<?xml version="1.0" encoding="UTF-8" standalone="no" ?>
<gpx xmlns="http://www.topografix.com/GPX/1/1" xmlns:xsi="http://www.w3.org/2001/XMLSchema-instance" xsi:schemaLocation="http://www.topografix.com/GPX/1/1 http://www.topografix.com/GPX/1/1/gpx.xsd" version="1.1" creator="VisuGPX - https://www.visugpx.com">
  <metadata>
    <name>Crémieu Col de Fay </name>
  </metadata>
  <trk>
    <name><![CDATA[Crémieu Col de Fay _1]]></name>
    <trkseg>
      <trkpt lat="45.73279" lon="5.2531">
        <ele>217.6</ele>
        <time>2023-05-27T06:51:58Z</time>
      </trkpt>
      <trkpt lat="45.73286" lon="5.25309">
        <ele>217.6</ele>
        <time>2023-05-27T06:51:59Z</time>
      </trkpt>
      <trkpt lat="45.73293" lon="5.25308">
        <ele>217.4</ele>
        <time>2023-05-27T06:52:00Z</time>
      </trkpt>
      <trkpt lat="45.73299" lon="5.25307">
        <ele>217.4</ele>
        <time>2023-05-27T06:52:01Z</time>
      </trkpt>
      <trkpt lat="45.73306" lon="5.25306">
        <ele>217.2</ele>
        <time>2023-05-27T06:52:02Z</time>
      </trkpt>
      <trkpt lat="45.73312" lon="5.25305">
        <ele>217.2</ele>
        <time>2023-05-27T06:52:03Z</time>
      </trkpt>
      <trkpt lat="45.73319" lon="5.25303">
        <ele>217.2</ele>
        <time>2023-05-27T06:52:04Z</time>
      </trkpt>
      <trkpt lat="45.73325" lon="5.25301">
        <ele>217.4</ele>
        <time>2023-05-27T06:52:05Z</time>
      </trkpt>
      <trkpt lat="45.73331" lon="5.25299">
        <ele>217</ele>
        <time>2023-05-27T06:52:06Z</time>
      </trkpt>
      <trkpt lat="45.73338" lon="5.25296">
        <ele>217</ele>
        <time>2023-05-27T06:52:07Z</time>
      </trkpt>
      <trkpt lat="45.73344" lon="5.25293">
        <ele>217.2</ele>
        <time>2023-05-27T06:52:08Z</time>
      </trkpt>
      <trkpt lat="45.73351" lon="5.25291">
        <ele>217.2</ele>
        <time>2023-05-27T06:52:09Z</time>
      </trkpt>
      <trkpt lat="45.73357" lon="5.25288">
        <ele>217.2</ele>
        <time>2023-05-27T06:52:10Z</time>
      </trkpt>
      <trkpt lat="45.73363" lon="5.25286">
        <ele>217.2</ele>
        <time>2023-05-27T06:52:11Z</time>
      </trkpt>
      <trkpt lat="45.7337" lon="5.25283">
        <ele>217.2</ele>
        <time>2023-05-27T06:52:12Z</time>
      </trkpt>
      <trkpt lat="45.73376" lon="5.25281">
        <ele>217</ele>
        <time>2023-05-27T06:52:13Z</time>
      </trkpt>
      <trkpt lat="45.73382" lon="5.25279">
        <ele>217</ele>
        <time>2023-05-27T06:52:14Z</time>
      </trkpt>
      <trkpt lat="45.73388" lon="5.25276">
        <ele>217</ele>
        <time>2023-05-27T06:52:15Z</time>
      </trkpt>
      <trkpt lat="45.73394" lon="5.25274">
        <ele>216.8</ele>
        <time>2023-05-27T06:52:16Z</time>
      </trkpt>
      <trkpt lat="45.73401" lon="5.25271">
        <ele>216.8</ele>
        <time>2023-05-27T06:52:17Z</time>
      </trkpt>
      <trkpt lat="45.73407" lon="5.25269">
        <ele>216.8</ele>
        <time>2023-05-27T06:52:18Z</time>
      </trkpt>
      <trkpt lat="45.73414" lon="5.25266">
        <ele>216.6</ele>
        <time>2023-05-27T06:52:19Z</time>
      </trkpt>
      <trkpt lat="45.7342" lon="5.25264">
        <ele>216.4</ele>
        <time>2023-05-27T06:52:20Z</time>
      </trkpt>
      <trkpt lat="45.73426" lon="5.25261">
        <ele>216.4</ele>
        <time>2023-05-27T06:52:21Z</time>
      </trkpt>
      <trkpt lat="45.73432" lon="5.25259">
        <ele>216.2</ele>
        <time>2023-05-27T06:52:22Z</time>
      </trkpt>
      <trkpt lat="45.73438" lon="5.25256">
        <ele>216.2</ele>
        <time>2023-05-27T06:52:23Z</time>
      </trkpt>
      <trkpt lat="45.73444" lon="5.25252">
        <ele>216.2</ele>
        <time>2023-05-27T06:52:24Z</time>
      </trkpt>
      <trkpt lat="45.73449" lon="5.25248">
        <ele>216.2</ele>
        <time>2023-05-27T06:52:25Z</time>
      </trkpt>
      <trkpt lat="45.73455" lon="5.25244">
        <ele>216.2</ele>
        <time>2023-05-27T06:52:26Z</time>
      </trkpt>
      <trkpt lat="45.7346" lon="5.25239">
        <ele>216</ele>
        <time>2023-05-27T06:52:27Z</time>
      </trkpt>
      <trkpt lat="45.73465" lon="5.25234">
        <ele>216</ele>
        <time>2023-05-27T06:52:28Z</time>
      </trkpt>
      <trkpt lat="45.7347" lon="5.25229">
        <ele>216</ele>
        <time>2023-05-27T06:52:29Z</time>
      </trkpt>
      <trkpt lat="45.73475" lon="5.25223">
        <ele>215.8</ele>
        <time>2023-05-27T06:52:30Z</time>
      </trkpt>
      <trkpt lat="45.7348" lon="5.25218">
        <ele>215.8</ele>
        <time>2023-05-27T06:52:31Z</time>
      </trkpt>
      <trkpt lat="45.73486" lon="5.25213">
        <ele>215.8</ele>
        <time>2023-05-27T06:52:32Z</time>
      </trkpt>
      <trkpt lat="45.73492" lon="5.25206">
        <ele>215.8</ele>
        <time>2023-05-27T06:52:33Z</time>
      </trkpt>
      <trkpt lat="45.73496" lon="5.25202">
        <ele>215.8</ele>
        <time>2023-05-27T06:52:34Z</time>
      </trkpt>
      <trkpt lat="45.73501" lon="5.25197">
        <ele>215.6</ele>
        <time>2023-05-27T06:52:35Z</time>
      </trkpt>
      <trkpt lat="45.73507" lon="5.25192">
        <ele>215.6</ele>
        <time>2023-05-27T06:52:36Z</time>
      </trkpt>
      <trkpt lat="45.73513" lon="5.25187">
        <ele>215.6</ele>
        <time>2023-05-27T06:52:37Z</time>
      </trkpt>
      <trkpt lat="45.73518" lon="5.25183">
        <ele>215.6</ele>
        <time>2023-05-27T06:52:38Z</time>
      </trkpt>
      <trkpt lat="45.73524" lon="5.25179">
        <ele>215.6</ele>
        <time>2023-05-27T06:52:39Z</time>
      </trkpt>
      <trkpt lat="45.7353" lon="5.25175">
        <ele>215.6</ele>
        <time>2023-05-27T06:52:40Z</time>
      </trkpt>
      <trkpt lat="45.73535" lon="5.25171">
        <ele>215.8</ele>
        <time>2023-05-27T06:52:41Z</time>
      </trkpt>
      <trkpt lat="45.73541" lon="5.25167">
        <ele>215.8</ele>
        <time>2023-05-27T06:52:42Z</time>
      </trkpt>
      <trkpt lat="45.73547" lon="5.25163">
        <ele>215.8</ele>
        <time>2023-05-27T06:52:43Z</time>
      </trkpt>
      <trkpt lat="45.73553" lon="5.25158">
        <ele>216</ele>
        <time>2023-05-27T06:52:44Z</time>
      </trkpt>
      <trkpt lat="45.73559" lon="5.25154">
        <ele>216.2</ele>
        <time>2023-05-27T06:52:45Z</time>
      </trkpt>
      <trkpt lat="45.73565" lon="5.2515">
        <ele>216.2</ele>
        <time>2023-05-27T06:52:46Z</time>
      </trkpt>
      <trkpt lat="45.73571" lon="5.25145">
        <ele>216.2</ele>
        <time>2023-05-27T06:52:47Z</time>
      </trkpt>
      <trkpt lat="45.73577" lon="5.25141">
        <ele>216.4</ele>
        <time>2023-05-27T06:52:48Z</time>
      </trkpt>
      <trkpt lat="45.73583" lon="5.25137">
        <ele>216.4</ele>
        <time>2023-05-27T06:52:49Z</time>
      </trkpt>
      <trkpt lat="45.73589" lon="5.25132">
        <ele>216.6</ele>
        <time>2023-05-27T06:52:50Z</time>
      </trkpt>
      <trkpt lat="45.73595" lon="5.25128">
        <ele>216.6</ele>
        <time>2023-05-27T06:52:51Z</time>
      </trkpt>
      <trkpt lat="45.73601" lon="5.25123">
        <ele>216.8</ele>
        <time>2023-05-27T06:52:52Z</time>
      </trkpt>
      <trkpt lat="45.73607" lon="5.25118">
        <ele>216.8</ele>
        <time>2023-05-27T06:52:53Z</time>
      </trkpt>
      <trkpt lat="45.73612" lon="5.25112">
        <ele>216.8</ele>
        <time>2023-05-27T06:52:54Z</time>
      </trkpt>
      <trkpt lat="45.73618" lon="5.25107">
        <ele>217</ele>
        <time>2023-05-27T06:52:55Z</time>
      </trkpt>
      <trkpt lat="45.73622" lon="5.25101">
        <ele>217</ele>
        <time>2023-05-27T06:52:56Z</time>
      </trkpt>
      <trkpt lat="45.73627" lon="5.25094">
        <ele>217</ele>
        <time>2023-05-27T06:52:57Z</time>
      </trkpt>
      <trkpt lat="45.73631" lon="5.25087">
        <ele>217</ele>
        <time>2023-05-27T06:52:58Z</time>
      </trkpt>
      <trkpt lat="45.73636" lon="5.2508">
        <ele>217.2</ele>
        <time>2023-05-27T06:52:59Z</time>
      </trkpt>
      <trkpt lat="45.7364" lon="5.25073">
        <ele>217.2</ele>
        <time>2023-05-27T06:53:00Z</time>
      </trkpt>
      <trkpt lat="45.73644" lon="5.25066">
        <ele>217.2</ele>
        <time>2023-05-27T06:53:01Z</time>
      </trkpt>
      <trkpt lat="45.73649" lon="5.25059">
        <ele>217.4</ele>
        <time>2023-05-27T06:53:02Z</time>
      </trkpt>
      <trkpt lat="45.73654" lon="5.25052">
        <ele>217.4</ele>
        <time>2023-05-27T06:53:03Z</time>
      </trkpt>
      <trkpt lat="45.73659" lon="5.25046">
        <ele>217.4</ele>
        <time>2023-05-27T06:53:04Z</time>
      </trkpt>
      <trkpt lat="45.73665" lon="5.2504">
        <ele>217.4</ele>
        <time>2023-05-27T06:53:05Z</time>
      </trkpt>
      <trkpt lat="45.7367" lon="5.25034">
        <ele>217.4</ele>
        <time>2023-05-27T06:53:06Z</time>
      </trkpt>
      <trkpt lat="45.73675" lon="5.25029">
        <ele>217.4</ele>
        <time>2023-05-27T06:53:07Z</time>
      </trkpt>
      <trkpt lat="45.7368" lon="5.25025">
        <ele>217.4</ele>
        <time>2023-05-27T06:53:08Z</time>
      </trkpt>
      <trkpt lat="45.73686" lon="5.2502">
        <ele>217.4</ele>
        <time>2023-05-27T06:53:09Z</time>
      </trkpt>
      <trkpt lat="45.73693" lon="5.25014">
        <ele>217.4</ele>
        <time>2023-05-27T06:53:10Z</time>
      </trkpt>
      <trkpt lat="45.73698" lon="5.2501">
        <ele>217.4</ele>
        <time>2023-05-27T06:53:11Z</time>
      </trkpt>
      <trkpt lat="45.73704" lon="5.25006">
        <ele>217.4</ele>
        <time>2023-05-27T06:53:12Z</time>
      </trkpt>
      <trkpt lat="45.7371" lon="5.25001">
        <ele>217.4</ele>
        <time>2023-05-27T06:53:13Z</time>
      </trkpt>
      <trkpt lat="45.73715" lon="5.24998">
        <ele>217.4</ele>
        <time>2023-05-27T06:53:14Z</time>
      </trkpt>
      <trkpt lat="45.73723" lon="5.24994">
        <ele>217.4</ele>
        <time>2023-05-27T06:53:15Z</time>
      </trkpt>
      <trkpt lat="45.73729" lon="5.2499">
        <ele>217.2</ele>
        <time>2023-05-27T06:53:16Z</time>
      </trkpt>
      <trkpt lat="45.73733" lon="5.24986">
        <ele>217.2</ele>
        <time>2023-05-27T06:53:17Z</time>
      </trkpt>
      <trkpt lat="45.7374" lon="5.24982">
        <ele>217.2</ele>
        <time>2023-05-27T06:53:18Z</time>
      </trkpt>
      <trkpt lat="45.73747" lon="5.24978">
        <ele>217.2</ele>
        <time>2023-05-27T06:53:19Z</time>
      </trkpt>
      <trkpt lat="45.73752" lon="5.24975">
        <ele>217</ele>
        <time>2023-05-27T06:53:20Z</time>
      </trkpt>
      <trkpt lat="45.73763" lon="5.2497">
        <ele>217</ele>
        <time>2023-05-27T06:53:22Z</time>
      </trkpt>
      <trkpt lat="45.7377" lon="5.24966">
        <ele>216.8</ele>
        <time>2023-05-27T06:53:23Z</time>
      </trkpt>
      <trkpt lat="45.73777" lon="5.24964">
        <ele>216.8</ele>
        <time>2023-05-27T06:53:24Z</time>
      </trkpt>
      <trkpt lat="45.73783" lon="5.24962">
        <ele>216.6</ele>
        <time>2023-05-27T06:53:25Z</time>
      </trkpt>
      <trkpt lat="45.7379" lon="5.2496">
        <ele>216.6</ele>
        <time>2023-05-27T06:53:26Z</time>
      </trkpt>
      <trkpt lat="45.73803" lon="5.24958">
        <ele>216.6</ele>
        <time>2023-05-27T06:53:28Z</time>
      </trkpt>
      <trkpt lat="45.7381" lon="5.24957">
        <ele>216.6</ele>
        <time>2023-05-27T06:53:29Z</time>
      </trkpt>
      <trkpt lat="45.73815" lon="5.24955">
        <ele>216.4</ele>
        <time>2023-05-27T06:53:30Z</time>
      </trkpt>
      <trkpt lat="45.73822" lon="5.24954">
        <ele>216.4</ele>
        <time>2023-05-27T06:53:31Z</time>
      </trkpt>
      <trkpt lat="45.73828" lon="5.24952">
        <ele>216.4</ele>
        <time>2023-05-27T06:53:32Z</time>
      </trkpt>
      <trkpt lat="45.73843" lon="5.24948">
        <ele>216.2</ele>
        <time>2023-05-27T06:53:34Z</time>
      </trkpt>
      <trkpt lat="45.7385" lon="5.24945">
        <ele>216.2</ele>
        <time>2023-05-27T06:53:35Z</time>
      </trkpt>
      <trkpt lat="45.73855" lon="5.24943">
        <ele>216.2</ele>
        <time>2023-05-27T06:53:36Z</time>
      </trkpt>
      <trkpt lat="45.73861" lon="5.24939">
        <ele>216</ele>
        <time>2023-05-27T06:53:37Z</time>
      </trkpt>
      <trkpt lat="45.73869" lon="5.24935">
        <ele>216</ele>
        <time>2023-05-27T06:53:38Z</time>
      </trkpt>
      <trkpt lat="45.73882" lon="5.24929">
        <ele>216</ele>
        <time>2023-05-27T06:53:40Z</time>
      </trkpt>
      <trkpt lat="45.73887" lon="5.24927">
        <ele>216</ele>
        <time>2023-05-27T06:53:41Z</time>
      </trkpt>
      <trkpt lat="45.73894" lon="5.24924">
        <ele>215.8</ele>
        <time>2023-05-27T06:53:42Z</time>
      </trkpt>
      <trkpt lat="45.73901" lon="5.24922">
        <ele>215.8</ele>
        <time>2023-05-27T06:53:43Z</time>
      </trkpt>
      <trkpt lat="45.73906" lon="5.2492">
        <ele>215.6</ele>
        <time>2023-05-27T06:53:44Z</time>
      </trkpt>
      <trkpt lat="45.73914" lon="5.24918">
        <ele>215.6</ele>
        <time>2023-05-27T06:53:45Z</time>
      </trkpt>
      <trkpt lat="45.73919" lon="5.24917">
        <ele>215.4</ele>
        <time>2023-05-27T06:53:46Z</time>
      </trkpt>
      <trkpt lat="45.73924" lon="5.24916">
        <ele>215.4</ele>
        <time>2023-05-27T06:53:47Z</time>
      </trkpt>
      <trkpt lat="45.7393" lon="5.24915">
        <ele>215.4</ele>
        <time>2023-05-27T06:53:48Z</time>
      </trkpt>
      <trkpt lat="45.73936" lon="5.24913">
        <ele>215.4</ele>
        <time>2023-05-27T06:53:49Z</time>
      </trkpt>
      <trkpt lat="45.73944" lon="5.24911">
        <ele>215.4</ele>
        <time>2023-05-27T06:53:50Z</time>
      </trkpt>
      <trkpt lat="45.73949" lon="5.2491">
        <ele>215.4</ele>
        <time>2023-05-27T06:53:51Z</time>
      </trkpt>
      <trkpt lat="45.73955" lon="5.24908">
        <ele>215.4</ele>
        <time>2023-05-27T06:53:52Z</time>
      </trkpt>
      <trkpt lat="45.7396" lon="5.24905">
        <ele>215.6</ele>
        <time>2023-05-27T06:53:53Z</time>
      </trkpt>
      <trkpt lat="45.73967" lon="5.24902">
        <ele>215.6</ele>
        <time>2023-05-27T06:53:54Z</time>
      </trkpt>
      <trkpt lat="45.73972" lon="5.24899">
        <ele>215.6</ele>
        <time>2023-05-27T06:53:55Z</time>
      </trkpt>
      <trkpt lat="45.73978" lon="5.24895">
        <ele>215.8</ele>
        <time>2023-05-27T06:53:56Z</time>
      </trkpt>
      <trkpt lat="45.73983" lon="5.24891">
        <ele>215.8</ele>
        <time>2023-05-27T06:53:57Z</time>
      </trkpt>
      <trkpt lat="45.7399" lon="5.24885">
        <ele>215.8</ele>
        <time>2023-05-27T06:53:58Z</time>
      </trkpt>
      <trkpt lat="45.73995" lon="5.2488">
        <ele>216</ele>
        <time>2023-05-27T06:53:59Z</time>
      </trkpt>
      <trkpt lat="45.74001" lon="5.24876">
        <ele>216</ele>
        <time>2023-05-27T06:54:00Z</time>
      </trkpt>
      <trkpt lat="45.74005" lon="5.24872">
        <ele>216.2</ele>
        <time>2023-05-27T06:54:01Z</time>
      </trkpt>
      <trkpt lat="45.74011" lon="5.24866">
        <ele>216.2</ele>
        <time>2023-05-27T06:54:02Z</time>
      </trkpt>
      <trkpt lat="45.74017" lon="5.24861">
        <ele>216.4</ele>
        <time>2023-05-27T06:54:03Z</time>
      </trkpt>
      <trkpt lat="45.74022" lon="5.24857">
        <ele>216.4</ele>
        <time>2023-05-27T06:54:04Z</time>
      </trkpt>
      <trkpt lat="45.74027" lon="5.24855">
        <ele>216.4</ele>
        <time>2023-05-27T06:54:05Z</time>
      </trkpt>
      <trkpt lat="45.74034" lon="5.24852">
        <ele>216.4</ele>
        <time>2023-05-27T06:54:06Z</time>
      </trkpt>
      <trkpt lat="45.7404" lon="5.2485">
        <ele>216.4</ele>
        <time>2023-05-27T06:54:07Z</time>
      </trkpt>
      <trkpt lat="45.74047" lon="5.24849">
        <ele>216.6</ele>
        <time>2023-05-27T06:54:08Z</time>
      </trkpt>
      <trkpt lat="45.74053" lon="5.24849">
        <ele>216.6</ele>
        <time>2023-05-27T06:54:09Z</time>
      </trkpt>
      <trkpt lat="45.74059" lon="5.24849">
        <ele>216.6</ele>
        <time>2023-05-27T06:54:10Z</time>
      </trkpt>
      <trkpt lat="45.74067" lon="5.24849">
        <ele>216.8</ele>
        <time>2023-05-27T06:54:11Z</time>
      </trkpt>
      <trkpt lat="45.74073" lon="5.2485">
        <ele>216.8</ele>
        <time>2023-05-27T06:54:12Z</time>
      </trkpt>
      <trkpt lat="45.74081" lon="5.24851">
        <ele>217</ele>
        <time>2023-05-27T06:54:13Z</time>
      </trkpt>
      <trkpt lat="45.74086" lon="5.24852">
        <ele>217</ele>
        <time>2023-05-27T06:54:14Z</time>
      </trkpt>
      <trkpt lat="45.74093" lon="5.24852">
        <ele>217</ele>
        <time>2023-05-27T06:54:15Z</time>
      </trkpt>
      <trkpt lat="45.741" lon="5.24853">
        <ele>217.2</ele>
        <time>2023-05-27T06:54:16Z</time>
      </trkpt>
      <trkpt lat="45.74107" lon="5.24853">
        <ele>217.4</ele>
        <time>2023-05-27T06:54:17Z</time>
      </trkpt>
      <trkpt lat="45.74114" lon="5.24852">
        <ele>217.4</ele>
        <time>2023-05-27T06:54:18Z</time>
      </trkpt>
      <trkpt lat="45.74119" lon="5.24851">
        <ele>217.6</ele>
        <time>2023-05-27T06:54:19Z</time>
      </trkpt>
      <trkpt lat="45.74125" lon="5.2485">
        <ele>217.8</ele>
        <time>2023-05-27T06:54:20Z</time>
      </trkpt>
      <trkpt lat="45.74139" lon="5.24847">
        <ele>218</ele>
        <time>2023-05-27T06:54:22Z</time>
      </trkpt>
      <trkpt lat="45.74144" lon="5.24846">
        <ele>218.2</ele>
        <time>2023-05-27T06:54:23Z</time>
      </trkpt>
      <trkpt lat="45.7415" lon="5.24845">
        <ele>218.4</ele>
        <time>2023-05-27T06:54:24Z</time>
      </trkpt>
      <trkpt lat="45.74157" lon="5.24842">
        <ele>218.4</ele>
        <time>2023-05-27T06:54:25Z</time>
      </trkpt>
      <trkpt lat="45.74163" lon="5.24841">
        <ele>218.6</ele>
        <time>2023-05-27T06:54:26Z</time>
      </trkpt>
      <trkpt lat="45.74169" lon="5.24839">
        <ele>218.8</ele>
        <time>2023-05-27T06:54:27Z</time>
      </trkpt>
      <trkpt lat="45.74174" lon="5.24837">
        <ele>219</ele>
        <time>2023-05-27T06:54:28Z</time>
      </trkpt>
      <trkpt lat="45.7418" lon="5.24834">
        <ele>219.4</ele>
        <time>2023-05-27T06:54:29Z</time>
      </trkpt>
      <trkpt lat="45.74187" lon="5.24831">
        <ele>219.4</ele>
        <time>2023-05-27T06:54:30Z</time>
      </trkpt>
      <trkpt lat="45.74193" lon="5.24828">
        <ele>219.6</ele>
        <time>2023-05-27T06:54:31Z</time>
      </trkpt>
      <trkpt lat="45.74197" lon="5.24826">
        <ele>219.6</ele>
        <time>2023-05-27T06:54:32Z</time>
      </trkpt>
      <trkpt lat="45.74203" lon="5.24823">
        <ele>219.8</ele>
        <time>2023-05-27T06:54:33Z</time>
      </trkpt>
      <trkpt lat="45.74209" lon="5.2482">
        <ele>219.8</ele>
        <time>2023-05-27T06:54:34Z</time>
      </trkpt>
      <trkpt lat="45.74214" lon="5.24817">
        <ele>220</ele>
        <time>2023-05-27T06:54:35Z</time>
      </trkpt>
      <trkpt lat="45.74221" lon="5.24813">
        <ele>220</ele>
        <time>2023-05-27T06:54:36Z</time>
      </trkpt>
      <trkpt lat="45.74226" lon="5.24811">
        <ele>220</ele>
        <time>2023-05-27T06:54:37Z</time>
      </trkpt>
      <trkpt lat="45.74232" lon="5.24808">
        <ele>220.2</ele>
        <time>2023-05-27T06:54:38Z</time>
      </trkpt>
      <trkpt lat="45.74238" lon="5.24805">
        <ele>220.2</ele>
        <time>2023-05-27T06:54:39Z</time>
      </trkpt>
      <trkpt lat="45.74244" lon="5.24802">
        <ele>220.2</ele>
        <time>2023-05-27T06:54:40Z</time>
      </trkpt>
      <trkpt lat="45.7425" lon="5.248">
        <ele>220.2</ele>
        <time>2023-05-27T06:54:41Z</time>
      </trkpt>
      <trkpt lat="45.74255" lon="5.24798">
        <ele>220.2</ele>
        <time>2023-05-27T06:54:42Z</time>
      </trkpt>
      <trkpt lat="45.74261" lon="5.24795">
        <ele>220.4</ele>
        <time>2023-05-27T06:54:43Z</time>
      </trkpt>
      <trkpt lat="45.74267" lon="5.24793">
        <ele>220.4</ele>
        <time>2023-05-27T06:54:44Z</time>
      </trkpt>
      <trkpt lat="45.74274" lon="5.24791">
        <ele>220.4</ele>
        <time>2023-05-27T06:54:45Z</time>
      </trkpt>
      <trkpt lat="45.7428" lon="5.2479">
        <ele>220.4</ele>
        <time>2023-05-27T06:54:46Z</time>
      </trkpt>
      <trkpt lat="45.74284" lon="5.24788">
        <ele>220.6</ele>
        <time>2023-05-27T06:54:47Z</time>
      </trkpt>
      <trkpt lat="45.74292" lon="5.24786">
        <ele>220.8</ele>
        <time>2023-05-27T06:54:48Z</time>
      </trkpt>
      <trkpt lat="45.74298" lon="5.24785">
        <ele>220.8</ele>
        <time>2023-05-27T06:54:49Z</time>
      </trkpt>
      <trkpt lat="45.74304" lon="5.24783">
        <ele>221.2</ele>
        <time>2023-05-27T06:54:50Z</time>
      </trkpt>
      <trkpt lat="45.74309" lon="5.24782">
        <ele>221.2</ele>
        <time>2023-05-27T06:54:51Z</time>
      </trkpt>
      <trkpt lat="45.74315" lon="5.24781">
        <ele>221.4</ele>
        <time>2023-05-27T06:54:52Z</time>
      </trkpt>
      <trkpt lat="45.74323" lon="5.2478">
        <ele>221.6</ele>
        <time>2023-05-27T06:54:53Z</time>
      </trkpt>
      <trkpt lat="45.74329" lon="5.24779">
        <ele>221.6</ele>
        <time>2023-05-27T06:54:54Z</time>
      </trkpt>
      <trkpt lat="45.74334" lon="5.24778">
        <ele>221.8</ele>
        <time>2023-05-27T06:54:55Z</time>
      </trkpt>
      <trkpt lat="45.7434" lon="5.24778">
        <ele>222</ele>
        <time>2023-05-27T06:54:56Z</time>
      </trkpt>
      <trkpt lat="45.74346" lon="5.24777">
        <ele>222.2</ele>
        <time>2023-05-27T06:54:57Z</time>
      </trkpt>
      <trkpt lat="45.74354" lon="5.24777">
        <ele>222.2</ele>
        <time>2023-05-27T06:54:58Z</time>
      </trkpt>
      <trkpt lat="45.74361" lon="5.24777">
        <ele>222.4</ele>
        <time>2023-05-27T06:54:59Z</time>
      </trkpt>
      <trkpt lat="45.74368" lon="5.24776">
        <ele>222.4</ele>
        <time>2023-05-27T06:55:00Z</time>
      </trkpt>
      <trkpt lat="45.74373" lon="5.24776">
        <ele>222.4</ele>
        <time>2023-05-27T06:55:01Z</time>
      </trkpt>
      <trkpt lat="45.7438" lon="5.24776">
        <ele>222.6</ele>
        <time>2023-05-27T06:55:02Z</time>
      </trkpt>
      <trkpt lat="45.74388" lon="5.24777">
        <ele>222.8</ele>
        <time>2023-05-27T06:55:03Z</time>
      </trkpt>
      <trkpt lat="45.74395" lon="5.24778">
        <ele>223</ele>
        <time>2023-05-27T06:55:04Z</time>
      </trkpt>
      <trkpt lat="45.74401" lon="5.24778">
        <ele>223</ele>
        <time>2023-05-27T06:55:05Z</time>
      </trkpt>
      <trkpt lat="45.74408" lon="5.24779">
        <ele>223</ele>
        <time>2023-05-27T06:55:06Z</time>
      </trkpt>
      <trkpt lat="45.74416" lon="5.2478">
        <ele>223</ele>
        <time>2023-05-27T06:55:07Z</time>
      </trkpt>
      <trkpt lat="45.74422" lon="5.24781">
        <ele>223.2</ele>
        <time>2023-05-27T06:55:08Z</time>
      </trkpt>
      <trkpt lat="45.74429" lon="5.24782">
        <ele>223.2</ele>
        <time>2023-05-27T06:55:09Z</time>
      </trkpt>
      <trkpt lat="45.74434" lon="5.24783">
        <ele>223.2</ele>
        <time>2023-05-27T06:55:10Z</time>
      </trkpt>
      <trkpt lat="45.74442" lon="5.24785">
        <ele>223</ele>
        <time>2023-05-27T06:55:11Z</time>
      </trkpt>
      <trkpt lat="45.74449" lon="5.24786">
        <ele>223</ele>
        <time>2023-05-27T06:55:12Z</time>
      </trkpt>
      <trkpt lat="45.74456" lon="5.24788">
        <ele>223</ele>
        <time>2023-05-27T06:55:13Z</time>
      </trkpt>
      <trkpt lat="45.74462" lon="5.2479">
        <ele>222.8</ele>
        <time>2023-05-27T06:55:14Z</time>
      </trkpt>
      <trkpt lat="45.74468" lon="5.24792">
        <ele>222.8</ele>
        <time>2023-05-27T06:55:15Z</time>
      </trkpt>
      <trkpt lat="45.74475" lon="5.24795">
        <ele>222.8</ele>
        <time>2023-05-27T06:55:16Z</time>
      </trkpt>
      <trkpt lat="45.74484" lon="5.24798">
        <ele>222.6</ele>
        <time>2023-05-27T06:55:17Z</time>
      </trkpt>
      <trkpt lat="45.7449" lon="5.24801">
        <ele>222.6</ele>
        <time>2023-05-27T06:55:18Z</time>
      </trkpt>
      <trkpt lat="45.74497" lon="5.24804">
        <ele>222.4</ele>
        <time>2023-05-27T06:55:19Z</time>
      </trkpt>
      <trkpt lat="45.74502" lon="5.24807">
        <ele>222.4</ele>
        <time>2023-05-27T06:55:20Z</time>
      </trkpt>
      <trkpt lat="45.7451" lon="5.24812">
        <ele>222.4</ele>
        <time>2023-05-27T06:55:21Z</time>
      </trkpt>
      <trkpt lat="45.74516" lon="5.24816">
        <ele>222.4</ele>
        <time>2023-05-27T06:55:22Z</time>
      </trkpt>
      <trkpt lat="45.74522" lon="5.24821">
        <ele>222.2</ele>
        <time>2023-05-27T06:55:23Z</time>
      </trkpt>
      <trkpt lat="45.74534" lon="5.24831">
        <ele>222.2</ele>
        <time>2023-05-27T06:55:25Z</time>
      </trkpt>
      <trkpt lat="45.7454" lon="5.24837">
        <ele>222</ele>
        <time>2023-05-27T06:55:26Z</time>
      </trkpt>
      <trkpt lat="45.74546" lon="5.24843">
        <ele>222</ele>
        <time>2023-05-27T06:55:27Z</time>
      </trkpt>
      <trkpt lat="45.7455" lon="5.24848">
        <ele>221.8</ele>
        <time>2023-05-27T06:55:28Z</time>
      </trkpt>
      <trkpt lat="45.74556" lon="5.24855">
        <ele>221.8</ele>
        <time>2023-05-27T06:55:29Z</time>
      </trkpt>
      <trkpt lat="45.74562" lon="5.24863">
        <ele>221.6</ele>
        <time>2023-05-27T06:55:30Z</time>
      </trkpt>
      <trkpt lat="45.74572" lon="5.24878">
        <ele>221.4</ele>
        <time>2023-05-27T06:55:32Z</time>
      </trkpt>
      <trkpt lat="45.74575" lon="5.24885">
        <ele>221.4</ele>
        <time>2023-05-27T06:55:33Z</time>
      </trkpt>
      <trkpt lat="45.7458" lon="5.24894">
        <ele>221.2</ele>
        <time>2023-05-27T06:55:34Z</time>
      </trkpt>
      <trkpt lat="45.74584" lon="5.24903">
        <ele>221.2</ele>
        <time>2023-05-27T06:55:35Z</time>
      </trkpt>
      <trkpt lat="45.74588" lon="5.24912">
        <ele>221</ele>
        <time>2023-05-27T06:55:36Z</time>
      </trkpt>
      <trkpt lat="45.7459" lon="5.24919">
        <ele>221</ele>
        <time>2023-05-27T06:55:37Z</time>
      </trkpt>
      <trkpt lat="45.74593" lon="5.24928">
        <ele>220.8</ele>
        <time>2023-05-27T06:55:38Z</time>
      </trkpt>
      <trkpt lat="45.74597" lon="5.2494">
        <ele>220.8</ele>
        <time>2023-05-27T06:55:39Z</time>
      </trkpt>
      <trkpt lat="45.74602" lon="5.24959">
        <ele>220.8</ele>
        <time>2023-05-27T06:55:41Z</time>
      </trkpt>
      <trkpt lat="45.74604" lon="5.24969">
        <ele>220.8</ele>
        <time>2023-05-27T06:55:42Z</time>
      </trkpt>
      <trkpt lat="45.74606" lon="5.24978">
        <ele>220.8</ele>
        <time>2023-05-27T06:55:43Z</time>
      </trkpt>
      <trkpt lat="45.74607" lon="5.24987">
        <ele>220.6</ele>
        <time>2023-05-27T06:55:44Z</time>
      </trkpt>
      <trkpt lat="45.74608" lon="5.24997">
        <ele>220.6</ele>
        <time>2023-05-27T06:55:45Z</time>
      </trkpt>
      <trkpt lat="45.74609" lon="5.25007">
        <ele>220.6</ele>
        <time>2023-05-27T06:55:46Z</time>
      </trkpt>
      <trkpt lat="45.74609" lon="5.25017">
        <ele>220.8</ele>
        <time>2023-05-27T06:55:47Z</time>
      </trkpt>
      <trkpt lat="45.74609" lon="5.25028">
        <ele>220.8</ele>
        <time>2023-05-27T06:55:48Z</time>
      </trkpt>
      <trkpt lat="45.74609" lon="5.25038">
        <ele>221</ele>
        <time>2023-05-27T06:55:49Z</time>
      </trkpt>
      <trkpt lat="45.74609" lon="5.25048">
        <ele>221</ele>
        <time>2023-05-27T06:55:50Z</time>
      </trkpt>
      <trkpt lat="45.74609" lon="5.25058">
        <ele>221.2</ele>
        <time>2023-05-27T06:55:51Z</time>
      </trkpt>
      <trkpt lat="45.74609" lon="5.25068">
        <ele>221.2</ele>
        <time>2023-05-27T06:55:52Z</time>
      </trkpt>
      <trkpt lat="45.7461" lon="5.25077">
        <ele>221.4</ele>
        <time>2023-05-27T06:55:53Z</time>
      </trkpt>
      <trkpt lat="45.74611" lon="5.25087">
        <ele>221.4</ele>
        <time>2023-05-27T06:55:54Z</time>
      </trkpt>
      <trkpt lat="45.74612" lon="5.25097">
        <ele>221.4</ele>
        <time>2023-05-27T06:55:55Z</time>
      </trkpt>
      <trkpt lat="45.74613" lon="5.25107">
        <ele>221.6</ele>
        <time>2023-05-27T06:55:56Z</time>
      </trkpt>
      <trkpt lat="45.74614" lon="5.25116">
        <ele>221.6</ele>
        <time>2023-05-27T06:55:57Z</time>
      </trkpt>
      <trkpt lat="45.74616" lon="5.25125">
        <ele>221.8</ele>
        <time>2023-05-27T06:55:58Z</time>
      </trkpt>
      <trkpt lat="45.74617" lon="5.25135">
        <ele>222</ele>
        <time>2023-05-27T06:55:59Z</time>
      </trkpt>
      <trkpt lat="45.74619" lon="5.25144">
        <ele>222.2</ele>
        <time>2023-05-27T06:56:00Z</time>
      </trkpt>
      <trkpt lat="45.74621" lon="5.25153">
        <ele>222.4</ele>
        <time>2023-05-27T06:56:01Z</time>
      </trkpt>
      <trkpt lat="45.74623" lon="5.25162">
        <ele>222.4</ele>
        <time>2023-05-27T06:56:02Z</time>
      </trkpt>
      <trkpt lat="45.74626" lon="5.25171">
        <ele>222.4</ele>
        <time>2023-05-27T06:56:03Z</time>
      </trkpt>
      <trkpt lat="45.74629" lon="5.25181">
        <ele>222.4</ele>
        <time>2023-05-27T06:56:04Z</time>
      </trkpt>
      <trkpt lat="45.74631" lon="5.25188">
        <ele>222.6</ele>
        <time>2023-05-27T06:56:05Z</time>
      </trkpt>
      <trkpt lat="45.74634" lon="5.25197">
        <ele>222.6</ele>
        <time>2023-05-27T06:56:06Z</time>
      </trkpt>
      <trkpt lat="45.74637" lon="5.25205">
        <ele>222.8</ele>
        <time>2023-05-27T06:56:07Z</time>
      </trkpt>
      <trkpt lat="45.74641" lon="5.25215">
        <ele>222.8</ele>
        <time>2023-05-27T06:56:08Z</time>
      </trkpt>
      <trkpt lat="45.74644" lon="5.25223">
        <ele>223</ele>
        <time>2023-05-27T06:56:09Z</time>
      </trkpt>
      <trkpt lat="45.74647" lon="5.25229">
        <ele>223.2</ele>
        <time>2023-05-27T06:56:10Z</time>
      </trkpt>
      <trkpt lat="45.74651" lon="5.25238">
        <ele>223.2</ele>
        <time>2023-05-27T06:56:11Z</time>
      </trkpt>
      <trkpt lat="45.74655" lon="5.25246">
        <ele>223.4</ele>
        <time>2023-05-27T06:56:12Z</time>
      </trkpt>
      <trkpt lat="45.74659" lon="5.25253">
        <ele>223.6</ele>
        <time>2023-05-27T06:56:13Z</time>
      </trkpt>
      <trkpt lat="45.74663" lon="5.25259">
        <ele>223.6</ele>
        <time>2023-05-27T06:56:14Z</time>
      </trkpt>
      <trkpt lat="45.74667" lon="5.25266">
        <ele>223.8</ele>
        <time>2023-05-27T06:56:15Z</time>
      </trkpt>
      <trkpt lat="45.74672" lon="5.25274">
        <ele>223.8</ele>
        <time>2023-05-27T06:56:16Z</time>
      </trkpt>
      <trkpt lat="45.74676" lon="5.2528">
        <ele>223.8</ele>
        <time>2023-05-27T06:56:17Z</time>
      </trkpt>
      <trkpt lat="45.7468" lon="5.25287">
        <ele>224</ele>
        <time>2023-05-27T06:56:18Z</time>
      </trkpt>
      <trkpt lat="45.74684" lon="5.25292">
        <ele>224</ele>
        <time>2023-05-27T06:56:19Z</time>
      </trkpt>
      <trkpt lat="45.74689" lon="5.25298">
        <ele>224.2</ele>
        <time>2023-05-27T06:56:20Z</time>
      </trkpt>
      <trkpt lat="45.74694" lon="5.25304">
        <ele>224.2</ele>
        <time>2023-05-27T06:56:21Z</time>
      </trkpt>
      <trkpt lat="45.747" lon="5.25311">
        <ele>224.2</ele>
        <time>2023-05-27T06:56:22Z</time>
      </trkpt>
      <trkpt lat="45.74705" lon="5.25316">
        <ele>224.2</ele>
        <time>2023-05-27T06:56:23Z</time>
      </trkpt>
      <trkpt lat="45.7471" lon="5.25322">
        <ele>224.2</ele>
        <time>2023-05-27T06:56:24Z</time>
      </trkpt>
      <trkpt lat="45.74716" lon="5.25327">
        <ele>224.6</ele>
        <time>2023-05-27T06:56:25Z</time>
      </trkpt>
      <trkpt lat="45.74721" lon="5.25332">
        <ele>224.6</ele>
        <time>2023-05-27T06:56:26Z</time>
      </trkpt>
      <trkpt lat="45.74727" lon="5.25337">
        <ele>224.8</ele>
        <time>2023-05-27T06:56:27Z</time>
      </trkpt>
      <trkpt lat="45.74731" lon="5.2534">
        <ele>224.8</ele>
        <time>2023-05-27T06:56:28Z</time>
      </trkpt>
      <trkpt lat="45.74738" lon="5.25345">
        <ele>224.8</ele>
        <time>2023-05-27T06:56:29Z</time>
      </trkpt>
      <trkpt lat="45.74744" lon="5.2535">
        <ele>224.8</ele>
        <time>2023-05-27T06:56:30Z</time>
      </trkpt>
      <trkpt lat="45.7475" lon="5.25353">
        <ele>225</ele>
        <time>2023-05-27T06:56:31Z</time>
      </trkpt>
      <trkpt lat="45.74755" lon="5.25356">
        <ele>225</ele>
        <time>2023-05-27T06:56:32Z</time>
      </trkpt>
      <trkpt lat="45.74762" lon="5.25359">
        <ele>225</ele>
        <time>2023-05-27T06:56:33Z</time>
      </trkpt>
      <trkpt lat="45.74769" lon="5.25363">
        <ele>225</ele>
        <time>2023-05-27T06:56:34Z</time>
      </trkpt>
      <trkpt lat="45.74776" lon="5.25365">
        <ele>225.2</ele>
        <time>2023-05-27T06:56:35Z</time>
      </trkpt>
      <trkpt lat="45.74783" lon="5.25367">
        <ele>225.2</ele>
        <time>2023-05-27T06:56:36Z</time>
      </trkpt>
      <trkpt lat="45.74788" lon="5.25369">
        <ele>225.2</ele>
        <time>2023-05-27T06:56:37Z</time>
      </trkpt>
      <trkpt lat="45.74795" lon="5.2537">
        <ele>225.2</ele>
        <time>2023-05-27T06:56:38Z</time>
      </trkpt>
      <trkpt lat="45.74802" lon="5.25372">
        <ele>225.2</ele>
        <time>2023-05-27T06:56:39Z</time>
      </trkpt>
      <trkpt lat="45.74808" lon="5.25373">
        <ele>225.2</ele>
        <time>2023-05-27T06:56:40Z</time>
      </trkpt>
      <trkpt lat="45.74815" lon="5.25374">
        <ele>225.4</ele>
        <time>2023-05-27T06:56:41Z</time>
      </trkpt>
      <trkpt lat="45.74821" lon="5.25375">
        <ele>225.4</ele>
        <time>2023-05-27T06:56:42Z</time>
      </trkpt>
      <trkpt lat="45.74828" lon="5.25376">
        <ele>225.4</ele>
        <time>2023-05-27T06:56:43Z</time>
      </trkpt>
      <trkpt lat="45.74835" lon="5.25377">
        <ele>225.4</ele>
        <time>2023-05-27T06:56:44Z</time>
      </trkpt>
      <trkpt lat="45.74843" lon="5.25378">
        <ele>225.4</ele>
        <time>2023-05-27T06:56:45Z</time>
      </trkpt>
      <trkpt lat="45.74848" lon="5.25379">
        <ele>225.4</ele>
        <time>2023-05-27T06:56:46Z</time>
      </trkpt>
      <trkpt lat="45.74855" lon="5.25379">
        <ele>225.4</ele>
        <time>2023-05-27T06:56:47Z</time>
      </trkpt>
      <trkpt lat="45.74863" lon="5.2538">
        <ele>225.4</ele>
        <time>2023-05-27T06:56:48Z</time>
      </trkpt>
      <trkpt lat="45.74871" lon="5.2538">
        <ele>225.4</ele>
        <time>2023-05-27T06:56:49Z</time>
      </trkpt>
      <trkpt lat="45.74878" lon="5.2538">
        <ele>225.4</ele>
        <time>2023-05-27T06:56:50Z</time>
      </trkpt>
      <trkpt lat="45.74883" lon="5.2538">
        <ele>225.4</ele>
        <time>2023-05-27T06:56:51Z</time>
      </trkpt>
      <trkpt lat="45.74892" lon="5.2538">
        <ele>225.4</ele>
        <time>2023-05-27T06:56:52Z</time>
      </trkpt>
      <trkpt lat="45.74899" lon="5.25379">
        <ele>225.4</ele>
        <time>2023-05-27T06:56:53Z</time>
      </trkpt>
      <trkpt lat="45.74906" lon="5.25379">
        <ele>225.4</ele>
        <time>2023-05-27T06:56:54Z</time>
      </trkpt>
      <trkpt lat="45.74912" lon="5.25379">
        <ele>225.2</ele>
        <time>2023-05-27T06:56:55Z</time>
      </trkpt>
      <trkpt lat="45.74919" lon="5.25378">
        <ele>225.4</ele>
        <time>2023-05-27T06:56:56Z</time>
      </trkpt>
      <trkpt lat="45.74928" lon="5.25377">
        <ele>225.4</ele>
        <time>2023-05-27T06:56:57Z</time>
      </trkpt>
      <trkpt lat="45.74936" lon="5.25377">
        <ele>225.4</ele>
        <time>2023-05-27T06:56:58Z</time>
      </trkpt>
      <trkpt lat="45.74943" lon="5.25375">
        <ele>225.4</ele>
        <time>2023-05-27T06:56:59Z</time>
      </trkpt>
      <trkpt lat="45.7495" lon="5.25374">
        <ele>225.4</ele>
        <time>2023-05-27T06:57:00Z</time>
      </trkpt>
      <trkpt lat="45.74958" lon="5.25372">
        <ele>225.4</ele>
        <time>2023-05-27T06:57:01Z</time>
      </trkpt>
      <trkpt lat="45.74966" lon="5.25371">
        <ele>225.4</ele>
        <time>2023-05-27T06:57:02Z</time>
      </trkpt>
      <trkpt lat="45.74971" lon="5.2537">
        <ele>225.4</ele>
        <time>2023-05-27T06:57:03Z</time>
      </trkpt>
      <trkpt lat="45.74979" lon="5.25368">
        <ele>225.4</ele>
        <time>2023-05-27T06:57:04Z</time>
      </trkpt>
      <trkpt lat="45.74987" lon="5.25366">
        <ele>225.2</ele>
        <time>2023-05-27T06:57:05Z</time>
      </trkpt>
      <trkpt lat="45.74996" lon="5.25363">
        <ele>225.2</ele>
        <time>2023-05-27T06:57:06Z</time>
      </trkpt>
      <trkpt lat="45.75003" lon="5.25361">
        <ele>225</ele>
        <time>2023-05-27T06:57:07Z</time>
      </trkpt>
      <trkpt lat="45.75011" lon="5.25358">
        <ele>225.2</ele>
        <time>2023-05-27T06:57:08Z</time>
      </trkpt>
      <trkpt lat="45.75017" lon="5.25356">
        <ele>225.2</ele>
        <time>2023-05-27T06:57:09Z</time>
      </trkpt>
      <trkpt lat="45.75025" lon="5.25353">
        <ele>225</ele>
        <time>2023-05-27T06:57:10Z</time>
      </trkpt>
      <trkpt lat="45.75034" lon="5.2535">
        <ele>224.8</ele>
        <time>2023-05-27T06:57:11Z</time>
      </trkpt>
      <trkpt lat="45.75042" lon="5.25347">
        <ele>224.8</ele>
        <time>2023-05-27T06:57:12Z</time>
      </trkpt>
      <trkpt lat="45.75048" lon="5.25345">
        <ele>224.8</ele>
        <time>2023-05-27T06:57:13Z</time>
      </trkpt>
      <trkpt lat="45.75064" lon="5.25339">
        <ele>224.6</ele>
        <time>2023-05-27T06:57:15Z</time>
      </trkpt>
      <trkpt lat="45.75078" lon="5.25334">
        <ele>224.4</ele>
        <time>2023-05-27T06:57:17Z</time>
      </trkpt>
      <trkpt lat="45.75086" lon="5.25331">
        <ele>224.4</ele>
        <time>2023-05-27T06:57:18Z</time>
      </trkpt>
      <trkpt lat="45.75094" lon="5.25328">
        <ele>224.2</ele>
        <time>2023-05-27T06:57:19Z</time>
      </trkpt>
      <trkpt lat="45.75103" lon="5.25325">
        <ele>224.2</ele>
        <time>2023-05-27T06:57:20Z</time>
      </trkpt>
      <trkpt lat="45.75111" lon="5.25322">
        <ele>224</ele>
        <time>2023-05-27T06:57:21Z</time>
      </trkpt>
      <trkpt lat="45.75125" lon="5.25317">
        <ele>223.8</ele>
        <time>2023-05-27T06:57:23Z</time>
      </trkpt>
      <trkpt lat="45.75133" lon="5.25314">
        <ele>223.4</ele>
        <time>2023-05-27T06:57:24Z</time>
      </trkpt>
      <trkpt lat="45.75142" lon="5.25311">
        <ele>223.2</ele>
        <time>2023-05-27T06:57:25Z</time>
      </trkpt>
      <trkpt lat="45.7515" lon="5.25309">
        <ele>223</ele>
        <time>2023-05-27T06:57:26Z</time>
      </trkpt>
      <trkpt lat="45.75156" lon="5.25306">
        <ele>223</ele>
        <time>2023-05-27T06:57:27Z</time>
      </trkpt>
      <trkpt lat="45.75172" lon="5.25301">
        <ele>222.6</ele>
        <time>2023-05-27T06:57:29Z</time>
      </trkpt>
      <trkpt lat="45.75181" lon="5.25298">
        <ele>222.4</ele>
        <time>2023-05-27T06:57:30Z</time>
      </trkpt>
      <trkpt lat="45.75188" lon="5.25296">
        <ele>222</ele>
        <time>2023-05-27T06:57:31Z</time>
      </trkpt>
      <trkpt lat="45.75196" lon="5.25293">
        <ele>222</ele>
        <time>2023-05-27T06:57:32Z</time>
      </trkpt>
      <trkpt lat="45.75206" lon="5.25291">
        <ele>221.6</ele>
        <time>2023-05-27T06:57:33Z</time>
      </trkpt>
      <trkpt lat="45.75214" lon="5.2529">
        <ele>221.6</ele>
        <time>2023-05-27T06:57:34Z</time>
      </trkpt>
      <trkpt lat="45.75222" lon="5.25289">
        <ele>221.4</ele>
        <time>2023-05-27T06:57:35Z</time>
      </trkpt>
      <trkpt lat="45.75229" lon="5.25288">
        <ele>221.2</ele>
        <time>2023-05-27T06:57:36Z</time>
      </trkpt>
      <trkpt lat="45.75237" lon="5.25288">
        <ele>220.8</ele>
        <time>2023-05-27T06:57:37Z</time>
      </trkpt>
      <trkpt lat="45.75247" lon="5.25289">
        <ele>220.8</ele>
        <time>2023-05-27T06:57:38Z</time>
      </trkpt>
      <trkpt lat="45.75255" lon="5.2529">
        <ele>220.6</ele>
        <time>2023-05-27T06:57:39Z</time>
      </trkpt>
      <trkpt lat="45.75263" lon="5.25292">
        <ele>220.4</ele>
        <time>2023-05-27T06:57:40Z</time>
      </trkpt>
      <trkpt lat="45.7527" lon="5.25293">
        <ele>220.4</ele>
        <time>2023-05-27T06:57:41Z</time>
      </trkpt>
      <trkpt lat="45.75279" lon="5.25295">
        <ele>220.2</ele>
        <time>2023-05-27T06:57:42Z</time>
      </trkpt>
      <trkpt lat="45.75287" lon="5.25297">
        <ele>220</ele>
        <time>2023-05-27T06:57:43Z</time>
      </trkpt>
      <trkpt lat="45.75295" lon="5.25299">
        <ele>219.8</ele>
        <time>2023-05-27T06:57:44Z</time>
      </trkpt>
      <trkpt lat="45.75302" lon="5.253">
        <ele>219.8</ele>
        <time>2023-05-27T06:57:45Z</time>
      </trkpt>
      <trkpt lat="45.7531" lon="5.25302">
        <ele>219.8</ele>
        <time>2023-05-27T06:57:46Z</time>
      </trkpt>
      <trkpt lat="45.75318" lon="5.25303">
        <ele>219.6</ele>
        <time>2023-05-27T06:57:47Z</time>
      </trkpt>
      <trkpt lat="45.75327" lon="5.25305">
        <ele>219.4</ele>
        <time>2023-05-27T06:57:48Z</time>
      </trkpt>
      <trkpt lat="45.75335" lon="5.25306">
        <ele>219.4</ele>
        <time>2023-05-27T06:57:49Z</time>
      </trkpt>
      <trkpt lat="45.75341" lon="5.25307">
        <ele>219.2</ele>
        <time>2023-05-27T06:57:50Z</time>
      </trkpt>
      <trkpt lat="45.75349" lon="5.25309">
        <ele>219.2</ele>
        <time>2023-05-27T06:57:51Z</time>
      </trkpt>
      <trkpt lat="45.75359" lon="5.25311">
        <ele>219</ele>
        <time>2023-05-27T06:57:52Z</time>
      </trkpt>
      <trkpt lat="45.75367" lon="5.25312">
        <ele>218.8</ele>
        <time>2023-05-27T06:57:53Z</time>
      </trkpt>
      <trkpt lat="45.75375" lon="5.25313">
        <ele>218.8</ele>
        <time>2023-05-27T06:57:54Z</time>
      </trkpt>
      <trkpt lat="45.75381" lon="5.25314">
        <ele>218.6</ele>
        <time>2023-05-27T06:57:55Z</time>
      </trkpt>
      <trkpt lat="45.7539" lon="5.25316">
        <ele>218.6</ele>
        <time>2023-05-27T06:57:56Z</time>
      </trkpt>
      <trkpt lat="45.75398" lon="5.25317">
        <ele>218.4</ele>
        <time>2023-05-27T06:57:57Z</time>
      </trkpt>
      <trkpt lat="45.75404" lon="5.25318">
        <ele>218.4</ele>
        <time>2023-05-27T06:57:58Z</time>
      </trkpt>
      <trkpt lat="45.75412" lon="5.2532">
        <ele>218.2</ele>
        <time>2023-05-27T06:57:59Z</time>
      </trkpt>
      <trkpt lat="45.75419" lon="5.25321">
        <ele>218.2</ele>
        <time>2023-05-27T06:58:00Z</time>
      </trkpt>
      <trkpt lat="45.75429" lon="5.25323">
        <ele>218</ele>
        <time>2023-05-27T06:58:01Z</time>
      </trkpt>
      <trkpt lat="45.75436" lon="5.25325">
        <ele>217.8</ele>
        <time>2023-05-27T06:58:02Z</time>
      </trkpt>
      <trkpt lat="45.75444" lon="5.25326">
        <ele>217.8</ele>
        <time>2023-05-27T06:58:03Z</time>
      </trkpt>
      <trkpt lat="45.7545" lon="5.25327">
        <ele>217.6</ele>
        <time>2023-05-27T06:58:04Z</time>
      </trkpt>
      <trkpt lat="45.75459" lon="5.25329">
        <ele>217.6</ele>
        <time>2023-05-27T06:58:05Z</time>
      </trkpt>
      <trkpt lat="45.75466" lon="5.2533">
        <ele>217.4</ele>
        <time>2023-05-27T06:58:06Z</time>
      </trkpt>
      <trkpt lat="45.75473" lon="5.25332">
        <ele>217.2</ele>
        <time>2023-05-27T06:58:07Z</time>
      </trkpt>
      <trkpt lat="45.75479" lon="5.25333">
        <ele>217.2</ele>
        <time>2023-05-27T06:58:08Z</time>
      </trkpt>
      <trkpt lat="45.75487" lon="5.25334">
        <ele>217.2</ele>
        <time>2023-05-27T06:58:09Z</time>
      </trkpt>
      <trkpt lat="45.75496" lon="5.25336">
        <ele>217</ele>
        <time>2023-05-27T06:58:10Z</time>
      </trkpt>
      <trkpt lat="45.75503" lon="5.25337">
        <ele>216.8</ele>
        <time>2023-05-27T06:58:11Z</time>
      </trkpt>
      <trkpt lat="45.75511" lon="5.25339">
        <ele>216.8</ele>
        <time>2023-05-27T06:58:12Z</time>
      </trkpt>
      <trkpt lat="45.75517" lon="5.25339">
        <ele>216.6</ele>
        <time>2023-05-27T06:58:13Z</time>
      </trkpt>
      <trkpt lat="45.75524" lon="5.25341">
        <ele>216.6</ele>
        <time>2023-05-27T06:58:14Z</time>
      </trkpt>
      <trkpt lat="45.75533" lon="5.25343">
        <ele>216.4</ele>
        <time>2023-05-27T06:58:15Z</time>
      </trkpt>
      <trkpt lat="45.7554" lon="5.25344">
        <ele>216.4</ele>
        <time>2023-05-27T06:58:16Z</time>
      </trkpt>
      <trkpt lat="45.75546" lon="5.25345">
        <ele>216.2</ele>
        <time>2023-05-27T06:58:17Z</time>
      </trkpt>
      <trkpt lat="45.75553" lon="5.25347">
        <ele>216.2</ele>
        <time>2023-05-27T06:58:18Z</time>
      </trkpt>
      <trkpt lat="45.7556" lon="5.25348">
        <ele>216</ele>
        <time>2023-05-27T06:58:19Z</time>
      </trkpt>
      <trkpt lat="45.75567" lon="5.2535">
        <ele>215.8</ele>
        <time>2023-05-27T06:58:20Z</time>
      </trkpt>
      <trkpt lat="45.75575" lon="5.25354">
        <ele>215.6</ele>
        <time>2023-05-27T06:58:21Z</time>
      </trkpt>
      <trkpt lat="45.75581" lon="5.25355">
        <ele>215.4</ele>
        <time>2023-05-27T06:58:22Z</time>
      </trkpt>
      <trkpt lat="45.7559" lon="5.25357">
        <ele>215.4</ele>
        <time>2023-05-27T06:58:23Z</time>
      </trkpt>
      <trkpt lat="45.75597" lon="5.25358">
        <ele>215.2</ele>
        <time>2023-05-27T06:58:24Z</time>
      </trkpt>
      <trkpt lat="45.75604" lon="5.25358">
        <ele>215.2</ele>
        <time>2023-05-27T06:58:25Z</time>
      </trkpt>
      <trkpt lat="45.75609" lon="5.25358">
        <ele>215</ele>
        <time>2023-05-27T06:58:26Z</time>
      </trkpt>
      <trkpt lat="45.75616" lon="5.25356">
        <ele>215</ele>
        <time>2023-05-27T06:58:27Z</time>
      </trkpt>
      <trkpt lat="45.75623" lon="5.25354">
        <ele>214.8</ele>
        <time>2023-05-27T06:58:28Z</time>
      </trkpt>
      <trkpt lat="45.75629" lon="5.25353">
        <ele>214.6</ele>
        <time>2023-05-27T06:58:29Z</time>
      </trkpt>
      <trkpt lat="45.75638" lon="5.25352">
        <ele>214.6</ele>
        <time>2023-05-27T06:58:30Z</time>
      </trkpt>
      <trkpt lat="45.75643" lon="5.25353">
        <ele>214.6</ele>
        <time>2023-05-27T06:58:31Z</time>
      </trkpt>
      <trkpt lat="45.7565" lon="5.25355">
        <ele>214.6</ele>
        <time>2023-05-27T06:58:32Z</time>
      </trkpt>
      <trkpt lat="45.75658" lon="5.25356">
        <ele>214.6</ele>
        <time>2023-05-27T06:58:33Z</time>
      </trkpt>
      <trkpt lat="45.75666" lon="5.25357">
        <ele>214.6</ele>
        <time>2023-05-27T06:58:34Z</time>
      </trkpt>
      <trkpt lat="45.75673" lon="5.25357">
        <ele>214.4</ele>
        <time>2023-05-27T06:58:35Z</time>
      </trkpt>
      <trkpt lat="45.75678" lon="5.25357">
        <ele>214.4</ele>
        <time>2023-05-27T06:58:36Z</time>
      </trkpt>
      <trkpt lat="45.75686" lon="5.25358">
        <ele>214.4</ele>
        <time>2023-05-27T06:58:37Z</time>
      </trkpt>
      <trkpt lat="45.75693" lon="5.25359">
        <ele>214.4</ele>
        <time>2023-05-27T06:58:38Z</time>
      </trkpt>
      <trkpt lat="45.757" lon="5.2536">
        <ele>214.4</ele>
        <time>2023-05-27T06:58:39Z</time>
      </trkpt>
      <trkpt lat="45.75705" lon="5.2536">
        <ele>214.4</ele>
        <time>2023-05-27T06:58:40Z</time>
      </trkpt>
      <trkpt lat="45.75711" lon="5.25361">
        <ele>214.4</ele>
        <time>2023-05-27T06:58:41Z</time>
      </trkpt>
      <trkpt lat="45.75718" lon="5.25364">
        <ele>214.4</ele>
        <time>2023-05-27T06:58:42Z</time>
      </trkpt>
      <trkpt lat="45.75724" lon="5.25366">
        <ele>214.4</ele>
        <time>2023-05-27T06:58:43Z</time>
      </trkpt>
      <trkpt lat="45.75729" lon="5.25367">
        <ele>214.4</ele>
        <time>2023-05-27T06:58:44Z</time>
      </trkpt>
      <trkpt lat="45.75735" lon="5.25369">
        <ele>214.4</ele>
        <time>2023-05-27T06:58:45Z</time>
      </trkpt>
      <trkpt lat="45.75742" lon="5.25372">
        <ele>214.6</ele>
        <time>2023-05-27T06:58:46Z</time>
      </trkpt>
      <trkpt lat="45.75748" lon="5.25374">
        <ele>214.6</ele>
        <time>2023-05-27T06:58:47Z</time>
      </trkpt>
      <trkpt lat="45.75754" lon="5.25376">
        <ele>214.8</ele>
        <time>2023-05-27T06:58:48Z</time>
      </trkpt>
      <trkpt lat="45.75758" lon="5.25378">
        <ele>214.8</ele>
        <time>2023-05-27T06:58:49Z</time>
      </trkpt>
      <trkpt lat="45.75764" lon="5.2538">
        <ele>214.8</ele>
        <time>2023-05-27T06:58:50Z</time>
      </trkpt>
      <trkpt lat="45.75771" lon="5.25383">
        <ele>215</ele>
        <time>2023-05-27T06:58:51Z</time>
      </trkpt>
      <trkpt lat="45.75776" lon="5.25385">
        <ele>215</ele>
        <time>2023-05-27T06:58:52Z</time>
      </trkpt>
      <trkpt lat="45.75782" lon="5.25388">
        <ele>215.2</ele>
        <time>2023-05-27T06:58:53Z</time>
      </trkpt>
      <trkpt lat="45.75787" lon="5.2539">
        <ele>215.4</ele>
        <time>2023-05-27T06:58:54Z</time>
      </trkpt>
      <trkpt lat="45.75794" lon="5.25392">
        <ele>215.6</ele>
        <time>2023-05-27T06:58:55Z</time>
      </trkpt>
      <trkpt lat="45.758" lon="5.25395">
        <ele>216</ele>
        <time>2023-05-27T06:58:56Z</time>
      </trkpt>
      <trkpt lat="45.75807" lon="5.25397">
        <ele>216.2</ele>
        <time>2023-05-27T06:58:57Z</time>
      </trkpt>
      <trkpt lat="45.75812" lon="5.25399">
        <ele>216.4</ele>
        <time>2023-05-27T06:58:58Z</time>
      </trkpt>
      <trkpt lat="45.75819" lon="5.25402">
        <ele>216.4</ele>
        <time>2023-05-27T06:58:59Z</time>
      </trkpt>
      <trkpt lat="45.75827" lon="5.25404">
        <ele>216.6</ele>
        <time>2023-05-27T06:59:00Z</time>
      </trkpt>
      <trkpt lat="45.75833" lon="5.25407">
        <ele>216.8</ele>
        <time>2023-05-27T06:59:01Z</time>
      </trkpt>
      <trkpt lat="45.7584" lon="5.25409">
        <ele>216.8</ele>
        <time>2023-05-27T06:59:02Z</time>
      </trkpt>
      <trkpt lat="45.75845" lon="5.25411">
        <ele>217</ele>
        <time>2023-05-27T06:59:03Z</time>
      </trkpt>
      <trkpt lat="45.75853" lon="5.25414">
        <ele>217</ele>
        <time>2023-05-27T06:59:04Z</time>
      </trkpt>
      <trkpt lat="45.75859" lon="5.25416">
        <ele>217.2</ele>
        <time>2023-05-27T06:59:05Z</time>
      </trkpt>
      <trkpt lat="45.75866" lon="5.25418">
        <ele>217.2</ele>
        <time>2023-05-27T06:59:06Z</time>
      </trkpt>
      <trkpt lat="45.75874" lon="5.25419">
        <ele>217.2</ele>
        <time>2023-05-27T06:59:07Z</time>
      </trkpt>
      <trkpt lat="45.75881" lon="5.2542">
        <ele>217.2</ele>
        <time>2023-05-27T06:59:08Z</time>
      </trkpt>
      <trkpt lat="45.7589" lon="5.2542">
        <ele>217.2</ele>
        <time>2023-05-27T06:59:09Z</time>
      </trkpt>
      <trkpt lat="45.75897" lon="5.2542">
        <ele>217</ele>
        <time>2023-05-27T06:59:10Z</time>
      </trkpt>
      <trkpt lat="45.75902" lon="5.25421">
        <ele>217</ele>
        <time>2023-05-27T06:59:11Z</time>
      </trkpt>
      <trkpt lat="45.75909" lon="5.2542">
        <ele>216.8</ele>
        <time>2023-05-27T06:59:12Z</time>
      </trkpt>
      <trkpt lat="45.75916" lon="5.2542">
        <ele>216.8</ele>
        <time>2023-05-27T06:59:13Z</time>
      </trkpt>
      <trkpt lat="45.75925" lon="5.25419">
        <ele>216.6</ele>
        <time>2023-05-27T06:59:14Z</time>
      </trkpt>
      <trkpt lat="45.75931" lon="5.25419">
        <ele>216.4</ele>
        <time>2023-05-27T06:59:15Z</time>
      </trkpt>
      <trkpt lat="45.75939" lon="5.25417">
        <ele>216.4</ele>
        <time>2023-05-27T06:59:16Z</time>
      </trkpt>
      <trkpt lat="45.75945" lon="5.25417">
        <ele>216.2</ele>
        <time>2023-05-27T06:59:17Z</time>
      </trkpt>
      <trkpt lat="45.75952" lon="5.25416">
        <ele>216.2</ele>
        <time>2023-05-27T06:59:18Z</time>
      </trkpt>
      <trkpt lat="45.75962" lon="5.25417">
        <ele>215.8</ele>
        <time>2023-05-27T06:59:19Z</time>
      </trkpt>
      <trkpt lat="45.7597" lon="5.25419">
        <ele>215.6</ele>
        <time>2023-05-27T06:59:20Z</time>
      </trkpt>
      <trkpt lat="45.75978" lon="5.25421">
        <ele>215.4</ele>
        <time>2023-05-27T06:59:21Z</time>
      </trkpt>
      <trkpt lat="45.75985" lon="5.25423">
        <ele>215.2</ele>
        <time>2023-05-27T06:59:22Z</time>
      </trkpt>
      <trkpt lat="45.75995" lon="5.25426">
        <ele>215</ele>
        <time>2023-05-27T06:59:23Z</time>
      </trkpt>
      <trkpt lat="45.76003" lon="5.2543">
        <ele>215</ele>
        <time>2023-05-27T06:59:24Z</time>
      </trkpt>
      <trkpt lat="45.76011" lon="5.25432">
        <ele>215</ele>
        <time>2023-05-27T06:59:25Z</time>
      </trkpt>
      <trkpt lat="45.76018" lon="5.25434">
        <ele>214.6</ele>
        <time>2023-05-27T06:59:26Z</time>
      </trkpt>
      <trkpt lat="45.76027" lon="5.25435">
        <ele>214.6</ele>
        <time>2023-05-27T06:59:27Z</time>
      </trkpt>
      <trkpt lat="45.76037" lon="5.25437">
        <ele>214.4</ele>
        <time>2023-05-27T06:59:28Z</time>
      </trkpt>
      <trkpt lat="45.76045" lon="5.25438">
        <ele>214</ele>
        <time>2023-05-27T06:59:29Z</time>
      </trkpt>
      <trkpt lat="45.76053" lon="5.25439">
        <ele>213.8</ele>
        <time>2023-05-27T06:59:30Z</time>
      </trkpt>
      <trkpt lat="45.7606" lon="5.25441">
        <ele>213.8</ele>
        <time>2023-05-27T06:59:31Z</time>
      </trkpt>
      <trkpt lat="45.76067" lon="5.25443">
        <ele>213.6</ele>
        <time>2023-05-27T06:59:32Z</time>
      </trkpt>
      <trkpt lat="45.76075" lon="5.25445">
        <ele>213.6</ele>
        <time>2023-05-27T06:59:33Z</time>
      </trkpt>
      <trkpt lat="45.76084" lon="5.25447">
        <ele>213.6</ele>
        <time>2023-05-27T06:59:34Z</time>
      </trkpt>
      <trkpt lat="45.76091" lon="5.25449">
        <ele>213.6</ele>
        <time>2023-05-27T06:59:35Z</time>
      </trkpt>
      <trkpt lat="45.76097" lon="5.25451">
        <ele>213.6</ele>
        <time>2023-05-27T06:59:36Z</time>
      </trkpt>
      <trkpt lat="45.76105" lon="5.25453">
        <ele>213.6</ele>
        <time>2023-05-27T06:59:37Z</time>
      </trkpt>
      <trkpt lat="45.76114" lon="5.25455">
        <ele>213.4</ele>
        <time>2023-05-27T06:59:38Z</time>
      </trkpt>
      <trkpt lat="45.76121" lon="5.25457">
        <ele>213.4</ele>
        <time>2023-05-27T06:59:39Z</time>
      </trkpt>
      <trkpt lat="45.76129" lon="5.25459">
        <ele>213.4</ele>
        <time>2023-05-27T06:59:40Z</time>
      </trkpt>
      <trkpt lat="45.76135" lon="5.25461">
        <ele>213.4</ele>
        <time>2023-05-27T06:59:41Z</time>
      </trkpt>
      <trkpt lat="45.76143" lon="5.25463">
        <ele>213.2</ele>
        <time>2023-05-27T06:59:42Z</time>
      </trkpt>
      <trkpt lat="45.76149" lon="5.25465">
        <ele>213.2</ele>
        <time>2023-05-27T06:59:43Z</time>
      </trkpt>
      <trkpt lat="45.76158" lon="5.25467">
        <ele>213</ele>
        <time>2023-05-27T06:59:44Z</time>
      </trkpt>
      <trkpt lat="45.76164" lon="5.25468">
        <ele>213</ele>
        <time>2023-05-27T06:59:45Z</time>
      </trkpt>
      <trkpt lat="45.76172" lon="5.2547">
        <ele>213</ele>
        <time>2023-05-27T06:59:46Z</time>
      </trkpt>
      <trkpt lat="45.7618" lon="5.25472">
        <ele>213</ele>
        <time>2023-05-27T06:59:47Z</time>
      </trkpt>
      <trkpt lat="45.76187" lon="5.25474">
        <ele>212.8</ele>
        <time>2023-05-27T06:59:48Z</time>
      </trkpt>
      <trkpt lat="45.76195" lon="5.25477">
        <ele>212.8</ele>
        <time>2023-05-27T06:59:49Z</time>
      </trkpt>
      <trkpt lat="45.76203" lon="5.25479">
        <ele>212.8</ele>
        <time>2023-05-27T06:59:50Z</time>
      </trkpt>
      <trkpt lat="45.76211" lon="5.25481">
        <ele>212.6</ele>
        <time>2023-05-27T06:59:51Z</time>
      </trkpt>
      <trkpt lat="45.76218" lon="5.25483">
        <ele>212.6</ele>
        <time>2023-05-27T06:59:52Z</time>
      </trkpt>
      <trkpt lat="45.76226" lon="5.25485">
        <ele>212.6</ele>
        <time>2023-05-27T06:59:53Z</time>
      </trkpt>
      <trkpt lat="45.76233" lon="5.25487">
        <ele>212.4</ele>
        <time>2023-05-27T06:59:54Z</time>
      </trkpt>
      <trkpt lat="45.76241" lon="5.25488">
        <ele>212.4</ele>
        <time>2023-05-27T06:59:55Z</time>
      </trkpt>
      <trkpt lat="45.76248" lon="5.2549">
        <ele>212.4</ele>
        <time>2023-05-27T06:59:56Z</time>
      </trkpt>
      <trkpt lat="45.76256" lon="5.25492">
        <ele>212.4</ele>
        <time>2023-05-27T06:59:57Z</time>
      </trkpt>
      <trkpt lat="45.76263" lon="5.25494">
        <ele>212.4</ele>
        <time>2023-05-27T06:59:58Z</time>
      </trkpt>
      <trkpt lat="45.7627" lon="5.25496">
        <ele>212.4</ele>
        <time>2023-05-27T06:59:59Z</time>
      </trkpt>
      <trkpt lat="45.76278" lon="5.25498">
        <ele>212.4</ele>
        <time>2023-05-27T07:00:00Z</time>
      </trkpt>
      <trkpt lat="45.76286" lon="5.25499">
        <ele>212.4</ele>
        <time>2023-05-27T07:00:01Z</time>
      </trkpt>
      <trkpt lat="45.76295" lon="5.25501">
        <ele>212.4</ele>
        <time>2023-05-27T07:00:02Z</time>
      </trkpt>
      <trkpt lat="45.76303" lon="5.25504">
        <ele>212.4</ele>
        <time>2023-05-27T07:00:03Z</time>
      </trkpt>
      <trkpt lat="45.76312" lon="5.25506">
        <ele>212.2</ele>
        <time>2023-05-27T07:00:04Z</time>
      </trkpt>
      <trkpt lat="45.7632" lon="5.25509">
        <ele>212.2</ele>
        <time>2023-05-27T07:00:05Z</time>
      </trkpt>
      <trkpt lat="45.76329" lon="5.25512">
        <ele>212</ele>
        <time>2023-05-27T07:00:06Z</time>
      </trkpt>
      <trkpt lat="45.76338" lon="5.25514">
        <ele>212</ele>
        <time>2023-05-27T07:00:07Z</time>
      </trkpt>
      <trkpt lat="45.76347" lon="5.25517">
        <ele>211.8</ele>
        <time>2023-05-27T07:00:08Z</time>
      </trkpt>
      <trkpt lat="45.76356" lon="5.25519">
        <ele>211.8</ele>
        <time>2023-05-27T07:00:09Z</time>
      </trkpt>
      <trkpt lat="45.76366" lon="5.25522">
        <ele>211.6</ele>
        <time>2023-05-27T07:00:10Z</time>
      </trkpt>
      <trkpt lat="45.76375" lon="5.25524">
        <ele>211.6</ele>
        <time>2023-05-27T07:00:11Z</time>
      </trkpt>
      <trkpt lat="45.76385" lon="5.25527">
        <ele>211.4</ele>
        <time>2023-05-27T07:00:12Z</time>
      </trkpt>
      <trkpt lat="45.76395" lon="5.2553">
        <ele>211.4</ele>
        <time>2023-05-27T07:00:13Z</time>
      </trkpt>
      <trkpt lat="45.76405" lon="5.25532">
        <ele>211.2</ele>
        <time>2023-05-27T07:00:14Z</time>
      </trkpt>
      <trkpt lat="45.76415" lon="5.25535">
        <ele>211</ele>
        <time>2023-05-27T07:00:15Z</time>
      </trkpt>
      <trkpt lat="45.76424" lon="5.25537">
        <ele>210.8</ele>
        <time>2023-05-27T07:00:16Z</time>
      </trkpt>
      <trkpt lat="45.76434" lon="5.2554">
        <ele>210.6</ele>
        <time>2023-05-27T07:00:17Z</time>
      </trkpt>
      <trkpt lat="45.76444" lon="5.25543">
        <ele>210.2</ele>
        <time>2023-05-27T07:00:18Z</time>
      </trkpt>
      <trkpt lat="45.76454" lon="5.25545">
        <ele>210</ele>
        <time>2023-05-27T07:00:19Z</time>
      </trkpt>
      <trkpt lat="45.76464" lon="5.25548">
        <ele>209.6</ele>
        <time>2023-05-27T07:00:20Z</time>
      </trkpt>
      <trkpt lat="45.76473" lon="5.2555">
        <ele>209</ele>
        <time>2023-05-27T07:00:21Z</time>
      </trkpt>
      <trkpt lat="45.76485" lon="5.25553">
        <ele>208.8</ele>
        <time>2023-05-27T07:00:22Z</time>
      </trkpt>
      <trkpt lat="45.76493" lon="5.25555">
        <ele>208.6</ele>
        <time>2023-05-27T07:00:23Z</time>
      </trkpt>
      <trkpt lat="45.76502" lon="5.25558">
        <ele>208.4</ele>
        <time>2023-05-27T07:00:24Z</time>
      </trkpt>
      <trkpt lat="45.76512" lon="5.2556">
        <ele>208.2</ele>
        <time>2023-05-27T07:00:25Z</time>
      </trkpt>
      <trkpt lat="45.76521" lon="5.25563">
        <ele>208</ele>
        <time>2023-05-27T07:00:26Z</time>
      </trkpt>
      <trkpt lat="45.76531" lon="5.25565">
        <ele>208</ele>
        <time>2023-05-27T07:00:27Z</time>
      </trkpt>
      <trkpt lat="45.7654" lon="5.25568">
        <ele>207.8</ele>
        <time>2023-05-27T07:00:28Z</time>
      </trkpt>
      <trkpt lat="45.76549" lon="5.2557">
        <ele>207.6</ele>
        <time>2023-05-27T07:00:29Z</time>
      </trkpt>
      <trkpt lat="45.76558" lon="5.25572">
        <ele>207.4</ele>
        <time>2023-05-27T07:00:30Z</time>
      </trkpt>
      <trkpt lat="45.76567" lon="5.25574">
        <ele>207.2</ele>
        <time>2023-05-27T07:00:31Z</time>
      </trkpt>
      <trkpt lat="45.76576" lon="5.25577">
        <ele>207</ele>
        <time>2023-05-27T07:00:32Z</time>
      </trkpt>
      <trkpt lat="45.76585" lon="5.25579">
        <ele>207</ele>
        <time>2023-05-27T07:00:33Z</time>
      </trkpt>
      <trkpt lat="45.76594" lon="5.25582">
        <ele>206.8</ele>
        <time>2023-05-27T07:00:34Z</time>
      </trkpt>
      <trkpt lat="45.76603" lon="5.25584">
        <ele>206.6</ele>
        <time>2023-05-27T07:00:35Z</time>
      </trkpt>
      <trkpt lat="45.76612" lon="5.25587">
        <ele>206.6</ele>
        <time>2023-05-27T07:00:36Z</time>
      </trkpt>
      <trkpt lat="45.76621" lon="5.25589">
        <ele>206.4</ele>
        <time>2023-05-27T07:00:37Z</time>
      </trkpt>
      <trkpt lat="45.7663" lon="5.25591">
        <ele>206.4</ele>
        <time>2023-05-27T07:00:38Z</time>
      </trkpt>
      <trkpt lat="45.76638" lon="5.25593">
        <ele>206.2</ele>
        <time>2023-05-27T07:00:39Z</time>
      </trkpt>
      <trkpt lat="45.76647" lon="5.25595">
        <ele>206</ele>
        <time>2023-05-27T07:00:40Z</time>
      </trkpt>
      <trkpt lat="45.76655" lon="5.25597">
        <ele>205.6</ele>
        <time>2023-05-27T07:00:41Z</time>
      </trkpt>
      <trkpt lat="45.76664" lon="5.256">
        <ele>205.4</ele>
        <time>2023-05-27T07:00:42Z</time>
      </trkpt>
      <trkpt lat="45.76672" lon="5.25602">
        <ele>205.2</ele>
        <time>2023-05-27T07:00:43Z</time>
      </trkpt>
      <trkpt lat="45.76681" lon="5.25604">
        <ele>205</ele>
        <time>2023-05-27T07:00:44Z</time>
      </trkpt>
      <trkpt lat="45.76689" lon="5.25606">
        <ele>205</ele>
        <time>2023-05-27T07:00:45Z</time>
      </trkpt>
      <trkpt lat="45.76698" lon="5.25608">
        <ele>204.8</ele>
        <time>2023-05-27T07:00:46Z</time>
      </trkpt>
      <trkpt lat="45.76706" lon="5.2561">
        <ele>204.8</ele>
        <time>2023-05-27T07:00:47Z</time>
      </trkpt>
      <trkpt lat="45.76715" lon="5.25612">
        <ele>204.6</ele>
        <time>2023-05-27T07:00:48Z</time>
      </trkpt>
      <trkpt lat="45.76723" lon="5.25615">
        <ele>204.6</ele>
        <time>2023-05-27T07:00:49Z</time>
      </trkpt>
      <trkpt lat="45.76731" lon="5.25617">
        <ele>204.4</ele>
        <time>2023-05-27T07:00:50Z</time>
      </trkpt>
      <trkpt lat="45.7674" lon="5.25619">
        <ele>204.4</ele>
        <time>2023-05-27T07:00:51Z</time>
      </trkpt>
      <trkpt lat="45.76748" lon="5.25622">
        <ele>204.2</ele>
        <time>2023-05-27T07:00:52Z</time>
      </trkpt>
      <trkpt lat="45.76757" lon="5.25624">
        <ele>204.2</ele>
        <time>2023-05-27T07:00:53Z</time>
      </trkpt>
      <trkpt lat="45.76765" lon="5.25626">
        <ele>204.2</ele>
        <time>2023-05-27T07:00:54Z</time>
      </trkpt>
      <trkpt lat="45.76774" lon="5.25629">
        <ele>204</ele>
        <time>2023-05-27T07:00:55Z</time>
      </trkpt>
      <trkpt lat="45.76782" lon="5.25631">
        <ele>204</ele>
        <time>2023-05-27T07:00:56Z</time>
      </trkpt>
      <trkpt lat="45.7679" lon="5.25633">
        <ele>204</ele>
        <time>2023-05-27T07:00:57Z</time>
      </trkpt>
      <trkpt lat="45.76799" lon="5.25635">
        <ele>204</ele>
        <time>2023-05-27T07:00:58Z</time>
      </trkpt>
      <trkpt lat="45.76807" lon="5.25637">
        <ele>204</ele>
        <time>2023-05-27T07:00:59Z</time>
      </trkpt>
      <trkpt lat="45.76815" lon="5.25639">
        <ele>204</ele>
        <time>2023-05-27T07:01:00Z</time>
      </trkpt>
      <trkpt lat="45.76824" lon="5.25642">
        <ele>204</ele>
        <time>2023-05-27T07:01:01Z</time>
      </trkpt>
      <trkpt lat="45.76833" lon="5.25644">
        <ele>204</ele>
        <time>2023-05-27T07:01:02Z</time>
      </trkpt>
      <trkpt lat="45.76841" lon="5.25646">
        <ele>203.8</ele>
        <time>2023-05-27T07:01:03Z</time>
      </trkpt>
      <trkpt lat="45.7685" lon="5.25648">
        <ele>203.8</ele>
        <time>2023-05-27T07:01:04Z</time>
      </trkpt>
      <trkpt lat="45.76858" lon="5.25651">
        <ele>203.8</ele>
        <time>2023-05-27T07:01:05Z</time>
      </trkpt>
      <trkpt lat="45.76867" lon="5.25653">
        <ele>203.8</ele>
        <time>2023-05-27T07:01:06Z</time>
      </trkpt>
      <trkpt lat="45.76875" lon="5.25655">
        <ele>203.8</ele>
        <time>2023-05-27T07:01:07Z</time>
      </trkpt>
      <trkpt lat="45.76883" lon="5.25657">
        <ele>203.8</ele>
        <time>2023-05-27T07:01:08Z</time>
      </trkpt>
      <trkpt lat="45.76892" lon="5.25659">
        <ele>203.6</ele>
        <time>2023-05-27T07:01:09Z</time>
      </trkpt>
      <trkpt lat="45.769" lon="5.25661">
        <ele>203.6</ele>
        <time>2023-05-27T07:01:10Z</time>
      </trkpt>
      <trkpt lat="45.76909" lon="5.25664">
        <ele>203.6</ele>
        <time>2023-05-27T07:01:11Z</time>
      </trkpt>
      <trkpt lat="45.76917" lon="5.25666">
        <ele>203.6</ele>
        <time>2023-05-27T07:01:12Z</time>
      </trkpt>
      <trkpt lat="45.76926" lon="5.25667">
        <ele>203.6</ele>
        <time>2023-05-27T07:01:13Z</time>
      </trkpt>
      <trkpt lat="45.76935" lon="5.25669">
        <ele>203.6</ele>
        <time>2023-05-27T07:01:14Z</time>
      </trkpt>
      <trkpt lat="45.76943" lon="5.25672">
        <ele>203.8</ele>
        <time>2023-05-27T07:01:15Z</time>
      </trkpt>
      <trkpt lat="45.76952" lon="5.25674">
        <ele>203.8</ele>
        <time>2023-05-27T07:01:16Z</time>
      </trkpt>
      <trkpt lat="45.7696" lon="5.25676">
        <ele>203.8</ele>
        <time>2023-05-27T07:01:17Z</time>
      </trkpt>
      <trkpt lat="45.76969" lon="5.25678">
        <ele>203.8</ele>
        <time>2023-05-27T07:01:18Z</time>
      </trkpt>
      <trkpt lat="45.76977" lon="5.25681">
        <ele>204</ele>
        <time>2023-05-27T07:01:19Z</time>
      </trkpt>
      <trkpt lat="45.76985" lon="5.25684">
        <ele>204</ele>
        <time>2023-05-27T07:01:20Z</time>
      </trkpt>
      <trkpt lat="45.76992" lon="5.25688">
        <ele>204</ele>
        <time>2023-05-27T07:01:21Z</time>
      </trkpt>
      <trkpt lat="45.77" lon="5.25691">
        <ele>204</ele>
        <time>2023-05-27T07:01:22Z</time>
      </trkpt>
      <trkpt lat="45.77008" lon="5.25695">
        <ele>204.2</ele>
        <time>2023-05-27T07:01:23Z</time>
      </trkpt>
      <trkpt lat="45.77015" lon="5.25699">
        <ele>204.2</ele>
        <time>2023-05-27T07:01:24Z</time>
      </trkpt>
      <trkpt lat="45.77023" lon="5.25704">
        <ele>204.2</ele>
        <time>2023-05-27T07:01:25Z</time>
      </trkpt>
      <trkpt lat="45.7703" lon="5.25708">
        <ele>204.4</ele>
        <time>2023-05-27T07:01:26Z</time>
      </trkpt>
      <trkpt lat="45.77037" lon="5.25712">
        <ele>204.6</ele>
        <time>2023-05-27T07:01:27Z</time>
      </trkpt>
      <trkpt lat="45.77045" lon="5.25714">
        <ele>204.6</ele>
        <time>2023-05-27T07:01:28Z</time>
      </trkpt>
      <trkpt lat="45.77053" lon="5.25717">
        <ele>204.6</ele>
        <time>2023-05-27T07:01:29Z</time>
      </trkpt>
      <trkpt lat="45.7706" lon="5.2572">
        <ele>204.6</ele>
        <time>2023-05-27T07:01:30Z</time>
      </trkpt>
      <trkpt lat="45.77067" lon="5.25725">
        <ele>204.6</ele>
        <time>2023-05-27T07:01:31Z</time>
      </trkpt>
      <trkpt lat="45.77073" lon="5.25732">
        <ele>204.6</ele>
        <time>2023-05-27T07:01:32Z</time>
      </trkpt>
      <trkpt lat="45.77078" lon="5.2574">
        <ele>204.6</ele>
        <time>2023-05-27T07:01:33Z</time>
      </trkpt>
      <trkpt lat="45.77083" lon="5.25748">
        <ele>204.6</ele>
        <time>2023-05-27T07:01:34Z</time>
      </trkpt>
      <trkpt lat="45.77088" lon="5.25756">
        <ele>204.6</ele>
        <time>2023-05-27T07:01:35Z</time>
      </trkpt>
      <trkpt lat="45.77092" lon="5.25765">
        <ele>204.6</ele>
        <time>2023-05-27T07:01:36Z</time>
      </trkpt>
      <trkpt lat="45.77097" lon="5.25775">
        <ele>204.8</ele>
        <time>2023-05-27T07:01:37Z</time>
      </trkpt>
      <trkpt lat="45.77101" lon="5.25784">
        <ele>204.8</ele>
        <time>2023-05-27T07:01:38Z</time>
      </trkpt>
      <trkpt lat="45.77104" lon="5.25794">
        <ele>204.8</ele>
        <time>2023-05-27T07:01:39Z</time>
      </trkpt>
      <trkpt lat="45.77108" lon="5.25804">
        <ele>204.8</ele>
        <time>2023-05-27T07:01:40Z</time>
      </trkpt>
      <trkpt lat="45.77111" lon="5.25813">
        <ele>204.8</ele>
        <time>2023-05-27T07:01:41Z</time>
      </trkpt>
      <trkpt lat="45.77114" lon="5.25823">
        <ele>204.8</ele>
        <time>2023-05-27T07:01:42Z</time>
      </trkpt>
      <trkpt lat="45.77117" lon="5.25833">
        <ele>204.8</ele>
        <time>2023-05-27T07:01:43Z</time>
      </trkpt>
      <trkpt lat="45.7712" lon="5.25842">
        <ele>204.8</ele>
        <time>2023-05-27T07:01:44Z</time>
      </trkpt>
      <trkpt lat="45.77123" lon="5.25852">
        <ele>204.8</ele>
        <time>2023-05-27T07:01:45Z</time>
      </trkpt>
      <trkpt lat="45.77126" lon="5.25862">
        <ele>204.8</ele>
        <time>2023-05-27T07:01:46Z</time>
      </trkpt>
      <trkpt lat="45.77128" lon="5.25872">
        <ele>204.8</ele>
        <time>2023-05-27T07:01:47Z</time>
      </trkpt>
      <trkpt lat="45.77131" lon="5.25882">
        <ele>204.8</ele>
        <time>2023-05-27T07:01:48Z</time>
      </trkpt>
      <trkpt lat="45.77133" lon="5.25893">
        <ele>204.8</ele>
        <time>2023-05-27T07:01:49Z</time>
      </trkpt>
      <trkpt lat="45.77136" lon="5.25903">
        <ele>204.8</ele>
        <time>2023-05-27T07:01:50Z</time>
      </trkpt>
      <trkpt lat="45.77138" lon="5.25913">
        <ele>204.8</ele>
        <time>2023-05-27T07:01:51Z</time>
      </trkpt>
      <trkpt lat="45.77141" lon="5.25924">
        <ele>204.8</ele>
        <time>2023-05-27T07:01:52Z</time>
      </trkpt>
      <trkpt lat="45.77144" lon="5.25934">
        <ele>204.8</ele>
        <time>2023-05-27T07:01:53Z</time>
      </trkpt>
      <trkpt lat="45.77147" lon="5.25944">
        <ele>204.8</ele>
        <time>2023-05-27T07:01:54Z</time>
      </trkpt>
      <trkpt lat="45.77149" lon="5.25954">
        <ele>204.8</ele>
        <time>2023-05-27T07:01:55Z</time>
      </trkpt>
      <trkpt lat="45.77151" lon="5.25965">
        <ele>204.8</ele>
        <time>2023-05-27T07:01:56Z</time>
      </trkpt>
      <trkpt lat="45.77154" lon="5.25975">
        <ele>205</ele>
        <time>2023-05-27T07:01:57Z</time>
      </trkpt>
      <trkpt lat="45.77156" lon="5.25985">
        <ele>205</ele>
        <time>2023-05-27T07:01:58Z</time>
      </trkpt>
      <trkpt lat="45.77159" lon="5.25995">
        <ele>205</ele>
        <time>2023-05-27T07:01:59Z</time>
      </trkpt>
      <trkpt lat="45.77161" lon="5.26005">
        <ele>205</ele>
        <time>2023-05-27T07:02:00Z</time>
      </trkpt>
      <trkpt lat="45.77164" lon="5.26015">
        <ele>205</ele>
        <time>2023-05-27T07:02:01Z</time>
      </trkpt>
      <trkpt lat="45.77166" lon="5.26025">
        <ele>205.2</ele>
        <time>2023-05-27T07:02:02Z</time>
      </trkpt>
      <trkpt lat="45.77169" lon="5.26035">
        <ele>205.2</ele>
        <time>2023-05-27T07:02:03Z</time>
      </trkpt>
      <trkpt lat="45.77171" lon="5.26045">
        <ele>205.4</ele>
        <time>2023-05-27T07:02:04Z</time>
      </trkpt>
      <trkpt lat="45.77174" lon="5.26055">
        <ele>205.6</ele>
        <time>2023-05-27T07:02:05Z</time>
      </trkpt>
      <trkpt lat="45.77176" lon="5.26065">
        <ele>205.6</ele>
        <time>2023-05-27T07:02:06Z</time>
      </trkpt>
      <trkpt lat="45.77179" lon="5.26074">
        <ele>205.6</ele>
        <time>2023-05-27T07:02:07Z</time>
      </trkpt>
      <trkpt lat="45.77182" lon="5.26084">
        <ele>205.6</ele>
        <time>2023-05-27T07:02:08Z</time>
      </trkpt>
      <trkpt lat="45.77184" lon="5.26094">
        <ele>205.6</ele>
        <time>2023-05-27T07:02:09Z</time>
      </trkpt>
      <trkpt lat="45.77187" lon="5.26104">
        <ele>205.6</ele>
        <time>2023-05-27T07:02:10Z</time>
      </trkpt>
      <trkpt lat="45.77189" lon="5.26113">
        <ele>205.6</ele>
        <time>2023-05-27T07:02:11Z</time>
      </trkpt>
      <trkpt lat="45.77192" lon="5.26123">
        <ele>205.8</ele>
        <time>2023-05-27T07:02:12Z</time>
      </trkpt>
      <trkpt lat="45.77194" lon="5.26133">
        <ele>205.8</ele>
        <time>2023-05-27T07:02:13Z</time>
      </trkpt>
      <trkpt lat="45.77196" lon="5.26143">
        <ele>205.8</ele>
        <time>2023-05-27T07:02:14Z</time>
      </trkpt>
      <trkpt lat="45.77199" lon="5.26153">
        <ele>205.8</ele>
        <time>2023-05-27T07:02:15Z</time>
      </trkpt>
      <trkpt lat="45.77201" lon="5.26162">
        <ele>205.8</ele>
        <time>2023-05-27T07:02:16Z</time>
      </trkpt>
      <trkpt lat="45.77204" lon="5.26172">
        <ele>205.8</ele>
        <time>2023-05-27T07:02:17Z</time>
      </trkpt>
      <trkpt lat="45.77207" lon="5.26182">
        <ele>205.8</ele>
        <time>2023-05-27T07:02:18Z</time>
      </trkpt>
      <trkpt lat="45.77209" lon="5.26191">
        <ele>205.8</ele>
        <time>2023-05-27T07:02:19Z</time>
      </trkpt>
      <trkpt lat="45.77212" lon="5.26201">
        <ele>205.8</ele>
        <time>2023-05-27T07:02:20Z</time>
      </trkpt>
      <trkpt lat="45.77214" lon="5.26212">
        <ele>205.8</ele>
        <time>2023-05-27T07:02:21Z</time>
      </trkpt>
      <trkpt lat="45.77217" lon="5.26222">
        <ele>206</ele>
        <time>2023-05-27T07:02:22Z</time>
      </trkpt>
      <trkpt lat="45.7722" lon="5.26232">
        <ele>206</ele>
        <time>2023-05-27T07:02:23Z</time>
      </trkpt>
      <trkpt lat="45.77222" lon="5.26242">
        <ele>206</ele>
        <time>2023-05-27T07:02:24Z</time>
      </trkpt>
      <trkpt lat="45.77225" lon="5.26253">
        <ele>206</ele>
        <time>2023-05-27T07:02:25Z</time>
      </trkpt>
      <trkpt lat="45.77228" lon="5.26263">
        <ele>206</ele>
        <time>2023-05-27T07:02:26Z</time>
      </trkpt>
      <trkpt lat="45.77231" lon="5.26273">
        <ele>206</ele>
        <time>2023-05-27T07:02:27Z</time>
      </trkpt>
      <trkpt lat="45.77234" lon="5.26283">
        <ele>206</ele>
        <time>2023-05-27T07:02:28Z</time>
      </trkpt>
      <trkpt lat="45.77236" lon="5.26293">
        <ele>206</ele>
        <time>2023-05-27T07:02:29Z</time>
      </trkpt>
      <trkpt lat="45.77239" lon="5.26303">
        <ele>206</ele>
        <time>2023-05-27T07:02:30Z</time>
      </trkpt>
      <trkpt lat="45.77241" lon="5.26313">
        <ele>206</ele>
        <time>2023-05-27T07:02:31Z</time>
      </trkpt>
      <trkpt lat="45.77244" lon="5.26323">
        <ele>206</ele>
        <time>2023-05-27T07:02:32Z</time>
      </trkpt>
      <trkpt lat="45.77247" lon="5.26333">
        <ele>206</ele>
        <time>2023-05-27T07:02:33Z</time>
      </trkpt>
      <trkpt lat="45.77249" lon="5.26343">
        <ele>206</ele>
        <time>2023-05-27T07:02:34Z</time>
      </trkpt>
      <trkpt lat="45.77252" lon="5.26353">
        <ele>206</ele>
        <time>2023-05-27T07:02:35Z</time>
      </trkpt>
      <trkpt lat="45.77255" lon="5.26362">
        <ele>206</ele>
        <time>2023-05-27T07:02:36Z</time>
      </trkpt>
      <trkpt lat="45.77257" lon="5.26372">
        <ele>206</ele>
        <time>2023-05-27T07:02:37Z</time>
      </trkpt>
      <trkpt lat="45.7726" lon="5.26381">
        <ele>206.2</ele>
        <time>2023-05-27T07:02:38Z</time>
      </trkpt>
      <trkpt lat="45.77262" lon="5.2639">
        <ele>206.2</ele>
        <time>2023-05-27T07:02:39Z</time>
      </trkpt>
      <trkpt lat="45.77264" lon="5.26399">
        <ele>206.2</ele>
        <time>2023-05-27T07:02:40Z</time>
      </trkpt>
      <trkpt lat="45.77267" lon="5.26408">
        <ele>206.2</ele>
        <time>2023-05-27T07:02:41Z</time>
      </trkpt>
      <trkpt lat="45.7727" lon="5.26418">
        <ele>206.2</ele>
        <time>2023-05-27T07:02:42Z</time>
      </trkpt>
      <trkpt lat="45.77272" lon="5.26427">
        <ele>206.2</ele>
        <time>2023-05-27T07:02:43Z</time>
      </trkpt>
      <trkpt lat="45.77274" lon="5.26435">
        <ele>206.2</ele>
        <time>2023-05-27T07:02:44Z</time>
      </trkpt>
      <trkpt lat="45.77276" lon="5.26444">
        <ele>206.4</ele>
        <time>2023-05-27T07:02:45Z</time>
      </trkpt>
      <trkpt lat="45.77279" lon="5.26452">
        <ele>206.4</ele>
        <time>2023-05-27T07:02:46Z</time>
      </trkpt>
      <trkpt lat="45.77281" lon="5.26461">
        <ele>206.8</ele>
        <time>2023-05-27T07:02:47Z</time>
      </trkpt>
      <trkpt lat="45.77283" lon="5.26469">
        <ele>207.2</ele>
        <time>2023-05-27T07:02:48Z</time>
      </trkpt>
      <trkpt lat="45.77286" lon="5.26476">
        <ele>207.4</ele>
        <time>2023-05-27T07:02:49Z</time>
      </trkpt>
      <trkpt lat="45.77288" lon="5.26484">
        <ele>207.6</ele>
        <time>2023-05-27T07:02:50Z</time>
      </trkpt>
      <trkpt lat="45.7729" lon="5.26491">
        <ele>207.8</ele>
        <time>2023-05-27T07:02:51Z</time>
      </trkpt>
      <trkpt lat="45.77292" lon="5.26498">
        <ele>208</ele>
        <time>2023-05-27T07:02:52Z</time>
      </trkpt>
      <trkpt lat="45.77295" lon="5.26505">
        <ele>208</ele>
        <time>2023-05-27T07:02:53Z</time>
      </trkpt>
      <trkpt lat="45.77296" lon="5.26512">
        <ele>208.2</ele>
        <time>2023-05-27T07:02:54Z</time>
      </trkpt>
      <trkpt lat="45.77298" lon="5.26519">
        <ele>208.2</ele>
        <time>2023-05-27T07:02:55Z</time>
      </trkpt>
      <trkpt lat="45.773" lon="5.26526">
        <ele>208.4</ele>
        <time>2023-05-27T07:02:56Z</time>
      </trkpt>
      <trkpt lat="45.77301" lon="5.26534">
        <ele>208.4</ele>
        <time>2023-05-27T07:02:57Z</time>
      </trkpt>
      <trkpt lat="45.77303" lon="5.26541">
        <ele>208.4</ele>
        <time>2023-05-27T07:02:58Z</time>
      </trkpt>
      <trkpt lat="45.77305" lon="5.26549">
        <ele>208.6</ele>
        <time>2023-05-27T07:02:59Z</time>
      </trkpt>
      <trkpt lat="45.77307" lon="5.26556">
        <ele>208.6</ele>
        <time>2023-05-27T07:03:00Z</time>
      </trkpt>
      <trkpt lat="45.77309" lon="5.26564">
        <ele>208.6</ele>
        <time>2023-05-27T07:03:01Z</time>
      </trkpt>
      <trkpt lat="45.77311" lon="5.26571">
        <ele>208.6</ele>
        <time>2023-05-27T07:03:02Z</time>
      </trkpt>
      <trkpt lat="45.77313" lon="5.26577">
        <ele>209</ele>
        <time>2023-05-27T07:03:03Z</time>
      </trkpt>
      <trkpt lat="45.77315" lon="5.26584">
        <ele>209.2</ele>
        <time>2023-05-27T07:03:04Z</time>
      </trkpt>
      <trkpt lat="45.77317" lon="5.26592">
        <ele>209.4</ele>
        <time>2023-05-27T07:03:05Z</time>
      </trkpt>
      <trkpt lat="45.77319" lon="5.26599">
        <ele>209.6</ele>
        <time>2023-05-27T07:03:06Z</time>
      </trkpt>
      <trkpt lat="45.77321" lon="5.26606">
        <ele>209.6</ele>
        <time>2023-05-27T07:03:07Z</time>
      </trkpt>
      <trkpt lat="45.77322" lon="5.26614">
        <ele>210</ele>
        <time>2023-05-27T07:03:08Z</time>
      </trkpt>
      <trkpt lat="45.77324" lon="5.26621">
        <ele>210</ele>
        <time>2023-05-27T07:03:09Z</time>
      </trkpt>
      <trkpt lat="45.77327" lon="5.26629">
        <ele>210.2</ele>
        <time>2023-05-27T07:03:10Z</time>
      </trkpt>
      <trkpt lat="45.7733" lon="5.26638">
        <ele>210.6</ele>
        <time>2023-05-27T07:03:11Z</time>
      </trkpt>
      <trkpt lat="45.77332" lon="5.26644">
        <ele>210.6</ele>
        <time>2023-05-27T07:03:12Z</time>
      </trkpt>
      <trkpt lat="45.77334" lon="5.26652">
        <ele>210.8</ele>
        <time>2023-05-27T07:03:13Z</time>
      </trkpt>
      <trkpt lat="45.77337" lon="5.26659">
        <ele>211</ele>
        <time>2023-05-27T07:03:14Z</time>
      </trkpt>
      <trkpt lat="45.77339" lon="5.26667">
        <ele>211.4</ele>
        <time>2023-05-27T07:03:15Z</time>
      </trkpt>
      <trkpt lat="45.77342" lon="5.26674">
        <ele>211.6</ele>
        <time>2023-05-27T07:03:16Z</time>
      </trkpt>
      <trkpt lat="45.77345" lon="5.26682">
        <ele>211.8</ele>
        <time>2023-05-27T07:03:17Z</time>
      </trkpt>
      <trkpt lat="45.77347" lon="5.26689">
        <ele>212.4</ele>
        <time>2023-05-27T07:03:18Z</time>
      </trkpt>
      <trkpt lat="45.7735" lon="5.26697">
        <ele>212.6</ele>
        <time>2023-05-27T07:03:19Z</time>
      </trkpt>
      <trkpt lat="45.77353" lon="5.26706">
        <ele>212.8</ele>
        <time>2023-05-27T07:03:20Z</time>
      </trkpt>
      <trkpt lat="45.77355" lon="5.26712">
        <ele>212.8</ele>
        <time>2023-05-27T07:03:21Z</time>
      </trkpt>
      <trkpt lat="45.77357" lon="5.2672">
        <ele>213</ele>
        <time>2023-05-27T07:03:22Z</time>
      </trkpt>
      <trkpt lat="45.77359" lon="5.26729">
        <ele>213.4</ele>
        <time>2023-05-27T07:03:23Z</time>
      </trkpt>
      <trkpt lat="45.77362" lon="5.26737">
        <ele>213.4</ele>
        <time>2023-05-27T07:03:24Z</time>
      </trkpt>
      <trkpt lat="45.77364" lon="5.26746">
        <ele>213.6</ele>
        <time>2023-05-27T07:03:25Z</time>
      </trkpt>
      <trkpt lat="45.77366" lon="5.26755">
        <ele>213.8</ele>
        <time>2023-05-27T07:03:26Z</time>
      </trkpt>
      <trkpt lat="45.77369" lon="5.26764">
        <ele>214.2</ele>
        <time>2023-05-27T07:03:27Z</time>
      </trkpt>
      <trkpt lat="45.7737" lon="5.26774">
        <ele>214.4</ele>
        <time>2023-05-27T07:03:28Z</time>
      </trkpt>
      <trkpt lat="45.77373" lon="5.26783">
        <ele>214.6</ele>
        <time>2023-05-27T07:03:29Z</time>
      </trkpt>
      <trkpt lat="45.77375" lon="5.26793">
        <ele>214.6</ele>
        <time>2023-05-27T07:03:30Z</time>
      </trkpt>
      <trkpt lat="45.77377" lon="5.26802">
        <ele>214.8</ele>
        <time>2023-05-27T07:03:31Z</time>
      </trkpt>
      <trkpt lat="45.77379" lon="5.26811">
        <ele>214.8</ele>
        <time>2023-05-27T07:03:32Z</time>
      </trkpt>
      <trkpt lat="45.77381" lon="5.26821">
        <ele>215</ele>
        <time>2023-05-27T07:03:33Z</time>
      </trkpt>
      <trkpt lat="45.77384" lon="5.2683">
        <ele>215</ele>
        <time>2023-05-27T07:03:34Z</time>
      </trkpt>
      <trkpt lat="45.77386" lon="5.2684">
        <ele>215.2</ele>
        <time>2023-05-27T07:03:35Z</time>
      </trkpt>
      <trkpt lat="45.77388" lon="5.26849">
        <ele>215.2</ele>
        <time>2023-05-27T07:03:36Z</time>
      </trkpt>
      <trkpt lat="45.7739" lon="5.26859">
        <ele>215.4</ele>
        <time>2023-05-27T07:03:37Z</time>
      </trkpt>
      <trkpt lat="45.77392" lon="5.26869">
        <ele>215.4</ele>
        <time>2023-05-27T07:03:38Z</time>
      </trkpt>
      <trkpt lat="45.77395" lon="5.26878">
        <ele>215.6</ele>
        <time>2023-05-27T07:03:39Z</time>
      </trkpt>
      <trkpt lat="45.77397" lon="5.26888">
        <ele>215.6</ele>
        <time>2023-05-27T07:03:40Z</time>
      </trkpt>
      <trkpt lat="45.77399" lon="5.26897">
        <ele>215.6</ele>
        <time>2023-05-27T07:03:41Z</time>
      </trkpt>
      <trkpt lat="45.77401" lon="5.26907">
        <ele>215.6</ele>
        <time>2023-05-27T07:03:42Z</time>
      </trkpt>
      <trkpt lat="45.77403" lon="5.26917">
        <ele>215.8</ele>
        <time>2023-05-27T07:03:43Z</time>
      </trkpt>
      <trkpt lat="45.77404" lon="5.26928">
        <ele>215.8</ele>
        <time>2023-05-27T07:03:44Z</time>
      </trkpt>
      <trkpt lat="45.77405" lon="5.26938">
        <ele>215.8</ele>
        <time>2023-05-27T07:03:45Z</time>
      </trkpt>
      <trkpt lat="45.77406" lon="5.26948">
        <ele>215.8</ele>
        <time>2023-05-27T07:03:46Z</time>
      </trkpt>
      <trkpt lat="45.77406" lon="5.26958">
        <ele>215.8</ele>
        <time>2023-05-27T07:03:47Z</time>
      </trkpt>
      <trkpt lat="45.77406" lon="5.26968">
        <ele>215.8</ele>
        <time>2023-05-27T07:03:48Z</time>
      </trkpt>
      <trkpt lat="45.77407" lon="5.26978">
        <ele>215.8</ele>
        <time>2023-05-27T07:03:49Z</time>
      </trkpt>
      <trkpt lat="45.77408" lon="5.26987">
        <ele>215.8</ele>
        <time>2023-05-27T07:03:50Z</time>
      </trkpt>
      <trkpt lat="45.7741" lon="5.26996">
        <ele>216</ele>
        <time>2023-05-27T07:03:51Z</time>
      </trkpt>
      <trkpt lat="45.77413" lon="5.27005">
        <ele>216.2</ele>
        <time>2023-05-27T07:03:52Z</time>
      </trkpt>
      <trkpt lat="45.77417" lon="5.27013">
        <ele>216.2</ele>
        <time>2023-05-27T07:03:53Z</time>
      </trkpt>
      <trkpt lat="45.7742" lon="5.27022">
        <ele>216.4</ele>
        <time>2023-05-27T07:03:54Z</time>
      </trkpt>
      <trkpt lat="45.77424" lon="5.2703">
        <ele>216.4</ele>
        <time>2023-05-27T07:03:55Z</time>
      </trkpt>
      <trkpt lat="45.77427" lon="5.27039">
        <ele>216.6</ele>
        <time>2023-05-27T07:03:56Z</time>
      </trkpt>
      <trkpt lat="45.77432" lon="5.27049">
        <ele>216.6</ele>
        <time>2023-05-27T07:03:57Z</time>
      </trkpt>
      <trkpt lat="45.77435" lon="5.27055">
        <ele>217</ele>
        <time>2023-05-27T07:03:58Z</time>
      </trkpt>
      <trkpt lat="45.77439" lon="5.27063">
        <ele>217</ele>
        <time>2023-05-27T07:03:59Z</time>
      </trkpt>
      <trkpt lat="45.77444" lon="5.2707">
        <ele>217.2</ele>
        <time>2023-05-27T07:04:00Z</time>
      </trkpt>
      <trkpt lat="45.77448" lon="5.27077">
        <ele>217.4</ele>
        <time>2023-05-27T07:04:01Z</time>
      </trkpt>
      <trkpt lat="45.77453" lon="5.27084">
        <ele>217.6</ele>
        <time>2023-05-27T07:04:02Z</time>
      </trkpt>
      <trkpt lat="45.77458" lon="5.27091">
        <ele>217.8</ele>
        <time>2023-05-27T07:04:03Z</time>
      </trkpt>
      <trkpt lat="45.77462" lon="5.27098">
        <ele>217.8</ele>
        <time>2023-05-27T07:04:04Z</time>
      </trkpt>
      <trkpt lat="45.77467" lon="5.27105">
        <ele>218</ele>
        <time>2023-05-27T07:04:05Z</time>
      </trkpt>
      <trkpt lat="45.77472" lon="5.27111">
        <ele>218</ele>
        <time>2023-05-27T07:04:06Z</time>
      </trkpt>
      <trkpt lat="45.77476" lon="5.27117">
        <ele>218.2</ele>
        <time>2023-05-27T07:04:07Z</time>
      </trkpt>
      <trkpt lat="45.77482" lon="5.27122">
        <ele>218.2</ele>
        <time>2023-05-27T07:04:08Z</time>
      </trkpt>
      <trkpt lat="45.77487" lon="5.27127">
        <ele>218.4</ele>
        <time>2023-05-27T07:04:09Z</time>
      </trkpt>
      <trkpt lat="45.77492" lon="5.27132">
        <ele>218.4</ele>
        <time>2023-05-27T07:04:10Z</time>
      </trkpt>
      <trkpt lat="45.77498" lon="5.27135">
        <ele>218.4</ele>
        <time>2023-05-27T07:04:11Z</time>
      </trkpt>
      <trkpt lat="45.77503" lon="5.27138">
        <ele>218.6</ele>
        <time>2023-05-27T07:04:12Z</time>
      </trkpt>
      <trkpt lat="45.77508" lon="5.2714">
        <ele>218.6</ele>
        <time>2023-05-27T07:04:13Z</time>
      </trkpt>
      <trkpt lat="45.77514" lon="5.27141">
        <ele>218.6</ele>
        <time>2023-05-27T07:04:14Z</time>
      </trkpt>
      <trkpt lat="45.7752" lon="5.27143">
        <ele>218.8</ele>
        <time>2023-05-27T07:04:15Z</time>
      </trkpt>
      <trkpt lat="45.77525" lon="5.27145">
        <ele>219</ele>
        <time>2023-05-27T07:04:16Z</time>
      </trkpt>
      <trkpt lat="45.77531" lon="5.27147">
        <ele>219.6</ele>
        <time>2023-05-27T07:04:17Z</time>
      </trkpt>
      <trkpt lat="45.77542" lon="5.27151">
        <ele>220</ele>
        <time>2023-05-27T07:04:19Z</time>
      </trkpt>
      <trkpt lat="45.77548" lon="5.27154">
        <ele>220.2</ele>
        <time>2023-05-27T07:04:20Z</time>
      </trkpt>
      <trkpt lat="45.77554" lon="5.27157">
        <ele>220.2</ele>
        <time>2023-05-27T07:04:21Z</time>
      </trkpt>
      <trkpt lat="45.77559" lon="5.2716">
        <ele>220.4</ele>
        <time>2023-05-27T07:04:22Z</time>
      </trkpt>
      <trkpt lat="45.77565" lon="5.27164">
        <ele>220.6</ele>
        <time>2023-05-27T07:04:23Z</time>
      </trkpt>
      <trkpt lat="45.7757" lon="5.27168">
        <ele>221</ele>
        <time>2023-05-27T07:04:24Z</time>
      </trkpt>
      <trkpt lat="45.77574" lon="5.27172">
        <ele>221</ele>
        <time>2023-05-27T07:04:25Z</time>
      </trkpt>
      <trkpt lat="45.77579" lon="5.27176">
        <ele>221.4</ele>
        <time>2023-05-27T07:04:26Z</time>
      </trkpt>
      <trkpt lat="45.77584" lon="5.27181">
        <ele>222.2</ele>
        <time>2023-05-27T07:04:27Z</time>
      </trkpt>
      <trkpt lat="45.77588" lon="5.27185">
        <ele>222.2</ele>
        <time>2023-05-27T07:04:28Z</time>
      </trkpt>
      <trkpt lat="45.77599" lon="5.27195">
        <ele>222.8</ele>
        <time>2023-05-27T07:04:30Z</time>
      </trkpt>
      <trkpt lat="45.77604" lon="5.27201">
        <ele>223.4</ele>
        <time>2023-05-27T07:04:31Z</time>
      </trkpt>
      <trkpt lat="45.77609" lon="5.27207">
        <ele>223.6</ele>
        <time>2023-05-27T07:04:32Z</time>
      </trkpt>
      <trkpt lat="45.77614" lon="5.27213">
        <ele>223.8</ele>
        <time>2023-05-27T07:04:33Z</time>
      </trkpt>
      <trkpt lat="45.77619" lon="5.27219">
        <ele>224.2</ele>
        <time>2023-05-27T07:04:34Z</time>
      </trkpt>
      <trkpt lat="45.77624" lon="5.27225">
        <ele>224.2</ele>
        <time>2023-05-27T07:04:35Z</time>
      </trkpt>
      <trkpt lat="45.7763" lon="5.27231">
        <ele>224.4</ele>
        <time>2023-05-27T07:04:36Z</time>
      </trkpt>
      <trkpt lat="45.77635" lon="5.27237">
        <ele>224.4</ele>
        <time>2023-05-27T07:04:37Z</time>
      </trkpt>
      <trkpt lat="45.77639" lon="5.27243">
        <ele>224.4</ele>
        <time>2023-05-27T07:04:38Z</time>
      </trkpt>
      <trkpt lat="45.77648" lon="5.27258">
        <ele>224.4</ele>
        <time>2023-05-27T07:04:40Z</time>
      </trkpt>
      <trkpt lat="45.77651" lon="5.27266">
        <ele>224.6</ele>
        <time>2023-05-27T07:04:41Z</time>
      </trkpt>
      <trkpt lat="45.77654" lon="5.27274">
        <ele>224.6</ele>
        <time>2023-05-27T07:04:42Z</time>
      </trkpt>
      <trkpt lat="45.77656" lon="5.27283">
        <ele>224.6</ele>
        <time>2023-05-27T07:04:43Z</time>
      </trkpt>
      <trkpt lat="45.77658" lon="5.27291">
        <ele>224.6</ele>
        <time>2023-05-27T07:04:44Z</time>
      </trkpt>
      <trkpt lat="45.7766" lon="5.27309">
        <ele>225</ele>
        <time>2023-05-27T07:04:46Z</time>
      </trkpt>
      <trkpt lat="45.7766" lon="5.27318">
        <ele>225.2</ele>
        <time>2023-05-27T07:04:47Z</time>
      </trkpt>
      <trkpt lat="45.7766" lon="5.27327">
        <ele>225.2</ele>
        <time>2023-05-27T07:04:48Z</time>
      </trkpt>
      <trkpt lat="45.7766" lon="5.27337">
        <ele>225.2</ele>
        <time>2023-05-27T07:04:49Z</time>
      </trkpt>
      <trkpt lat="45.7766" lon="5.27346">
        <ele>225.2</ele>
        <time>2023-05-27T07:04:50Z</time>
      </trkpt>
      <trkpt lat="45.7766" lon="5.27355">
        <ele>225.2</ele>
        <time>2023-05-27T07:04:51Z</time>
      </trkpt>
      <trkpt lat="45.7766" lon="5.27365">
        <ele>225.2</ele>
        <time>2023-05-27T07:04:52Z</time>
      </trkpt>
      <trkpt lat="45.7766" lon="5.27374">
        <ele>225.2</ele>
        <time>2023-05-27T07:04:53Z</time>
      </trkpt>
      <trkpt lat="45.77659" lon="5.27383">
        <ele>225.2</ele>
        <time>2023-05-27T07:04:54Z</time>
      </trkpt>
      <trkpt lat="45.77659" lon="5.27393">
        <ele>225.2</ele>
        <time>2023-05-27T07:04:55Z</time>
      </trkpt>
      <trkpt lat="45.77659" lon="5.27403">
        <ele>225.2</ele>
        <time>2023-05-27T07:04:56Z</time>
      </trkpt>
      <trkpt lat="45.77659" lon="5.27412">
        <ele>225.2</ele>
        <time>2023-05-27T07:04:57Z</time>
      </trkpt>
      <trkpt lat="45.77659" lon="5.27422">
        <ele>225.2</ele>
        <time>2023-05-27T07:04:58Z</time>
      </trkpt>
      <trkpt lat="45.77659" lon="5.27432">
        <ele>225.2</ele>
        <time>2023-05-27T07:04:59Z</time>
      </trkpt>
      <trkpt lat="45.77658" lon="5.27441">
        <ele>225.4</ele>
        <time>2023-05-27T07:05:00Z</time>
      </trkpt>
      <trkpt lat="45.77658" lon="5.27451">
        <ele>225.4</ele>
        <time>2023-05-27T07:05:01Z</time>
      </trkpt>
      <trkpt lat="45.77657" lon="5.2746">
        <ele>225.6</ele>
        <time>2023-05-27T07:05:02Z</time>
      </trkpt>
      <trkpt lat="45.77657" lon="5.2747">
        <ele>225.6</ele>
        <time>2023-05-27T07:05:03Z</time>
      </trkpt>
      <trkpt lat="45.77656" lon="5.2748">
        <ele>225.6</ele>
        <time>2023-05-27T07:05:04Z</time>
      </trkpt>
      <trkpt lat="45.77656" lon="5.2749">
        <ele>225.8</ele>
        <time>2023-05-27T07:05:05Z</time>
      </trkpt>
      <trkpt lat="45.77656" lon="5.275">
        <ele>225.8</ele>
        <time>2023-05-27T07:05:06Z</time>
      </trkpt>
      <trkpt lat="45.77655" lon="5.2751">
        <ele>225.8</ele>
        <time>2023-05-27T07:05:07Z</time>
      </trkpt>
      <trkpt lat="45.77654" lon="5.2752">
        <ele>226</ele>
        <time>2023-05-27T07:05:08Z</time>
      </trkpt>
      <trkpt lat="45.77652" lon="5.2753">
        <ele>226</ele>
        <time>2023-05-27T07:05:09Z</time>
      </trkpt>
      <trkpt lat="45.7765" lon="5.27539">
        <ele>226.2</ele>
        <time>2023-05-27T07:05:10Z</time>
      </trkpt>
      <trkpt lat="45.77649" lon="5.27549">
        <ele>226.4</ele>
        <time>2023-05-27T07:05:11Z</time>
      </trkpt>
      <trkpt lat="45.77646" lon="5.27559">
        <ele>226.6</ele>
        <time>2023-05-27T07:05:12Z</time>
      </trkpt>
      <trkpt lat="45.77644" lon="5.27569">
        <ele>226.6</ele>
        <time>2023-05-27T07:05:13Z</time>
      </trkpt>
      <trkpt lat="45.77642" lon="5.27579">
        <ele>226.8</ele>
        <time>2023-05-27T07:05:14Z</time>
      </trkpt>
      <trkpt lat="45.7764" lon="5.27588">
        <ele>226.8</ele>
        <time>2023-05-27T07:05:15Z</time>
      </trkpt>
      <trkpt lat="45.77638" lon="5.27598">
        <ele>227</ele>
        <time>2023-05-27T07:05:16Z</time>
      </trkpt>
      <trkpt lat="45.77636" lon="5.27608">
        <ele>227.2</ele>
        <time>2023-05-27T07:05:17Z</time>
      </trkpt>
      <trkpt lat="45.77634" lon="5.27618">
        <ele>227.6</ele>
        <time>2023-05-27T07:05:18Z</time>
      </trkpt>
      <trkpt lat="45.77632" lon="5.27628">
        <ele>227.8</ele>
        <time>2023-05-27T07:05:19Z</time>
      </trkpt>
      <trkpt lat="45.7763" lon="5.27637">
        <ele>227.8</ele>
        <time>2023-05-27T07:05:20Z</time>
      </trkpt>
      <trkpt lat="45.77629" lon="5.27647">
        <ele>228</ele>
        <time>2023-05-27T07:05:21Z</time>
      </trkpt>
      <trkpt lat="45.77627" lon="5.27657">
        <ele>227.8</ele>
        <time>2023-05-27T07:05:22Z</time>
      </trkpt>
      <trkpt lat="45.77626" lon="5.27667">
        <ele>228</ele>
        <time>2023-05-27T07:05:23Z</time>
      </trkpt>
      <trkpt lat="45.77624" lon="5.27677">
        <ele>228.2</ele>
        <time>2023-05-27T07:05:24Z</time>
      </trkpt>
      <trkpt lat="45.77623" lon="5.27697">
        <ele>228.6</ele>
        <time>2023-05-27T07:05:26Z</time>
      </trkpt>
      <trkpt lat="45.77622" lon="5.27707">
        <ele>228.6</ele>
        <time>2023-05-27T07:05:27Z</time>
      </trkpt>
      <trkpt lat="45.77622" lon="5.27717">
        <ele>228.6</ele>
        <time>2023-05-27T07:05:28Z</time>
      </trkpt>
      <trkpt lat="45.77621" lon="5.27727">
        <ele>228.6</ele>
        <time>2023-05-27T07:05:29Z</time>
      </trkpt>
      <trkpt lat="45.77621" lon="5.27737">
        <ele>228.8</ele>
        <time>2023-05-27T07:05:30Z</time>
      </trkpt>
      <trkpt lat="45.7762" lon="5.27748">
        <ele>228.8</ele>
        <time>2023-05-27T07:05:31Z</time>
      </trkpt>
      <trkpt lat="45.7762" lon="5.27758">
        <ele>229</ele>
        <time>2023-05-27T07:05:32Z</time>
      </trkpt>
      <trkpt lat="45.77619" lon="5.27768">
        <ele>229.2</ele>
        <time>2023-05-27T07:05:33Z</time>
      </trkpt>
      <trkpt lat="45.77618" lon="5.27778">
        <ele>229.2</ele>
        <time>2023-05-27T07:05:34Z</time>
      </trkpt>
      <trkpt lat="45.77617" lon="5.27788">
        <ele>229.4</ele>
        <time>2023-05-27T07:05:35Z</time>
      </trkpt>
      <trkpt lat="45.77616" lon="5.27798">
        <ele>229.4</ele>
        <time>2023-05-27T07:05:36Z</time>
      </trkpt>
      <trkpt lat="45.77614" lon="5.27808">
        <ele>229.4</ele>
        <time>2023-05-27T07:05:37Z</time>
      </trkpt>
      <trkpt lat="45.77613" lon="5.27817">
        <ele>229.6</ele>
        <time>2023-05-27T07:05:38Z</time>
      </trkpt>
      <trkpt lat="45.77611" lon="5.27827">
        <ele>229.6</ele>
        <time>2023-05-27T07:05:39Z</time>
      </trkpt>
      <trkpt lat="45.77609" lon="5.27837">
        <ele>229.8</ele>
        <time>2023-05-27T07:05:40Z</time>
      </trkpt>
      <trkpt lat="45.77607" lon="5.27846">
        <ele>229.8</ele>
        <time>2023-05-27T07:05:41Z</time>
      </trkpt>
      <trkpt lat="45.77605" lon="5.27854">
        <ele>230</ele>
        <time>2023-05-27T07:05:42Z</time>
      </trkpt>
      <trkpt lat="45.77603" lon="5.27862">
        <ele>230</ele>
        <time>2023-05-27T07:05:43Z</time>
      </trkpt>
      <trkpt lat="45.77602" lon="5.2787">
        <ele>230.2</ele>
        <time>2023-05-27T07:05:44Z</time>
      </trkpt>
      <trkpt lat="45.776" lon="5.27878">
        <ele>230.2</ele>
        <time>2023-05-27T07:05:45Z</time>
      </trkpt>
      <trkpt lat="45.77599" lon="5.27885">
        <ele>230.4</ele>
        <time>2023-05-27T07:05:46Z</time>
      </trkpt>
      <trkpt lat="45.77598" lon="5.27892">
        <ele>230.4</ele>
        <time>2023-05-27T07:05:47Z</time>
      </trkpt>
      <trkpt lat="45.77597" lon="5.279">
        <ele>230.6</ele>
        <time>2023-05-27T07:05:48Z</time>
      </trkpt>
      <trkpt lat="45.77597" lon="5.27915">
        <ele>231.2</ele>
        <time>2023-05-27T07:05:50Z</time>
      </trkpt>
      <trkpt lat="45.77598" lon="5.27922">
        <ele>231.4</ele>
        <time>2023-05-27T07:05:51Z</time>
      </trkpt>
      <trkpt lat="45.77599" lon="5.27929">
        <ele>231.6</ele>
        <time>2023-05-27T07:05:52Z</time>
      </trkpt>
      <trkpt lat="45.776" lon="5.27935">
        <ele>231.6</ele>
        <time>2023-05-27T07:05:53Z</time>
      </trkpt>
      <trkpt lat="45.77601" lon="5.27941">
        <ele>232</ele>
        <time>2023-05-27T07:05:54Z</time>
      </trkpt>
      <trkpt lat="45.77602" lon="5.27947">
        <ele>232.2</ele>
        <time>2023-05-27T07:05:55Z</time>
      </trkpt>
      <trkpt lat="45.77603" lon="5.27954">
        <ele>232.4</ele>
        <time>2023-05-27T07:05:56Z</time>
      </trkpt>
      <trkpt lat="45.77604" lon="5.27961">
        <ele>232.6</ele>
        <time>2023-05-27T07:05:57Z</time>
      </trkpt>
      <trkpt lat="45.77605" lon="5.27968">
        <ele>232.8</ele>
        <time>2023-05-27T07:05:58Z</time>
      </trkpt>
      <trkpt lat="45.77607" lon="5.27982">
        <ele>234</ele>
        <time>2023-05-27T07:06:00Z</time>
      </trkpt>
      <trkpt lat="45.77608" lon="5.27988">
        <ele>234.6</ele>
        <time>2023-05-27T07:06:01Z</time>
      </trkpt>
      <trkpt lat="45.7761" lon="5.27995">
        <ele>234.8</ele>
        <time>2023-05-27T07:06:02Z</time>
      </trkpt>
      <trkpt lat="45.77611" lon="5.28001">
        <ele>235.6</ele>
        <time>2023-05-27T07:06:03Z</time>
      </trkpt>
      <trkpt lat="45.77612" lon="5.28009">
        <ele>236.2</ele>
        <time>2023-05-27T07:06:04Z</time>
      </trkpt>
      <trkpt lat="45.77613" lon="5.28016">
        <ele>236.4</ele>
        <time>2023-05-27T07:06:05Z</time>
      </trkpt>
      <trkpt lat="45.77614" lon="5.28023">
        <ele>236.8</ele>
        <time>2023-05-27T07:06:06Z</time>
      </trkpt>
      <trkpt lat="45.77614" lon="5.28029">
        <ele>237.2</ele>
        <time>2023-05-27T07:06:07Z</time>
      </trkpt>
      <trkpt lat="45.77614" lon="5.28036">
        <ele>237.6</ele>
        <time>2023-05-27T07:06:08Z</time>
      </trkpt>
      <trkpt lat="45.77614" lon="5.28044">
        <ele>237.8</ele>
        <time>2023-05-27T07:06:09Z</time>
      </trkpt>
      <trkpt lat="45.77614" lon="5.28051">
        <ele>238</ele>
        <time>2023-05-27T07:06:10Z</time>
      </trkpt>
      <trkpt lat="45.77614" lon="5.28066">
        <ele>238.4</ele>
        <time>2023-05-27T07:06:12Z</time>
      </trkpt>
      <trkpt lat="45.77614" lon="5.28074">
        <ele>238.6</ele>
        <time>2023-05-27T07:06:13Z</time>
      </trkpt>
      <trkpt lat="45.77613" lon="5.28081">
        <ele>238.8</ele>
        <time>2023-05-27T07:06:14Z</time>
      </trkpt>
      <trkpt lat="45.77613" lon="5.28088">
        <ele>239.2</ele>
        <time>2023-05-27T07:06:15Z</time>
      </trkpt>
      <trkpt lat="45.77614" lon="5.28095">
        <ele>239.6</ele>
        <time>2023-05-27T07:06:16Z</time>
      </trkpt>
      <trkpt lat="45.77615" lon="5.28103">
        <ele>239.8</ele>
        <time>2023-05-27T07:06:17Z</time>
      </trkpt>
      <trkpt lat="45.77618" lon="5.28109">
        <ele>240.2</ele>
        <time>2023-05-27T07:06:18Z</time>
      </trkpt>
      <trkpt lat="45.77622" lon="5.28113">
        <ele>240.4</ele>
        <time>2023-05-27T07:06:19Z</time>
      </trkpt>
      <trkpt lat="45.77626" lon="5.28116">
        <ele>240.6</ele>
        <time>2023-05-27T07:06:20Z</time>
      </trkpt>
      <trkpt lat="45.77632" lon="5.28119">
        <ele>240.8</ele>
        <time>2023-05-27T07:06:21Z</time>
      </trkpt>
      <trkpt lat="45.77637" lon="5.28121">
        <ele>241</ele>
        <time>2023-05-27T07:06:22Z</time>
      </trkpt>
      <trkpt lat="45.77648" lon="5.28125">
        <ele>241.4</ele>
        <time>2023-05-27T07:06:24Z</time>
      </trkpt>
      <trkpt lat="45.77653" lon="5.28128">
        <ele>242</ele>
        <time>2023-05-27T07:06:25Z</time>
      </trkpt>
      <trkpt lat="45.77657" lon="5.2813">
        <ele>242.2</ele>
        <time>2023-05-27T07:06:26Z</time>
      </trkpt>
      <trkpt lat="45.77662" lon="5.28132">
        <ele>242.6</ele>
        <time>2023-05-27T07:06:27Z</time>
      </trkpt>
      <trkpt lat="45.77667" lon="5.28134">
        <ele>242.8</ele>
        <time>2023-05-27T07:06:28Z</time>
      </trkpt>
      <trkpt lat="45.77673" lon="5.28137">
        <ele>242.8</ele>
        <time>2023-05-27T07:06:29Z</time>
      </trkpt>
      <trkpt lat="45.77678" lon="5.28139">
        <ele>243.2</ele>
        <time>2023-05-27T07:06:30Z</time>
      </trkpt>
      <trkpt lat="45.77684" lon="5.28141">
        <ele>243.2</ele>
        <time>2023-05-27T07:06:31Z</time>
      </trkpt>
      <trkpt lat="45.77689" lon="5.28144">
        <ele>243.8</ele>
        <time>2023-05-27T07:06:32Z</time>
      </trkpt>
      <trkpt lat="45.77695" lon="5.28146">
        <ele>244</ele>
        <time>2023-05-27T07:06:33Z</time>
      </trkpt>
      <trkpt lat="45.77701" lon="5.28149">
        <ele>244.2</ele>
        <time>2023-05-27T07:06:34Z</time>
      </trkpt>
      <trkpt lat="45.77708" lon="5.28151">
        <ele>244.8</ele>
        <time>2023-05-27T07:06:35Z</time>
      </trkpt>
      <trkpt lat="45.77714" lon="5.28152">
        <ele>245</ele>
        <time>2023-05-27T07:06:36Z</time>
      </trkpt>
      <trkpt lat="45.77722" lon="5.28152">
        <ele>245.4</ele>
        <time>2023-05-27T07:06:37Z</time>
      </trkpt>
      <trkpt lat="45.77729" lon="5.28151">
        <ele>245.4</ele>
        <time>2023-05-27T07:06:38Z</time>
      </trkpt>
      <trkpt lat="45.77736" lon="5.2815">
        <ele>245.8</ele>
        <time>2023-05-27T07:06:39Z</time>
      </trkpt>
      <trkpt lat="45.77743" lon="5.28147">
        <ele>245.8</ele>
        <time>2023-05-27T07:06:40Z</time>
      </trkpt>
      <trkpt lat="45.7775" lon="5.28144">
        <ele>246.2</ele>
        <time>2023-05-27T07:06:41Z</time>
      </trkpt>
      <trkpt lat="45.77758" lon="5.28142">
        <ele>246.2</ele>
        <time>2023-05-27T07:06:42Z</time>
      </trkpt>
      <trkpt lat="45.77764" lon="5.2814">
        <ele>246.2</ele>
        <time>2023-05-27T07:06:43Z</time>
      </trkpt>
      <trkpt lat="45.77769" lon="5.2814">
        <ele>246.2</ele>
        <time>2023-05-27T07:06:44Z</time>
      </trkpt>
      <trkpt lat="45.77775" lon="5.28141">
        <ele>246.2</ele>
        <time>2023-05-27T07:06:45Z</time>
      </trkpt>
      <trkpt lat="45.77781" lon="5.28142">
        <ele>246.4</ele>
        <time>2023-05-27T07:06:46Z</time>
      </trkpt>
      <trkpt lat="45.77786" lon="5.28146">
        <ele>246.4</ele>
        <time>2023-05-27T07:06:47Z</time>
      </trkpt>
      <trkpt lat="45.77791" lon="5.28151">
        <ele>246.6</ele>
        <time>2023-05-27T07:06:48Z</time>
      </trkpt>
      <trkpt lat="45.77796" lon="5.28157">
        <ele>246.6</ele>
        <time>2023-05-27T07:06:49Z</time>
      </trkpt>
      <trkpt lat="45.77799" lon="5.28162">
        <ele>246.6</ele>
        <time>2023-05-27T07:06:50Z</time>
      </trkpt>
      <trkpt lat="45.77802" lon="5.28167">
        <ele>246.8</ele>
        <time>2023-05-27T07:06:51Z</time>
      </trkpt>
      <trkpt lat="45.77806" lon="5.28173">
        <ele>246.8</ele>
        <time>2023-05-27T07:06:52Z</time>
      </trkpt>
      <trkpt lat="45.7781" lon="5.28179">
        <ele>247</ele>
        <time>2023-05-27T07:06:53Z</time>
      </trkpt>
      <trkpt lat="45.77813" lon="5.28185">
        <ele>247.2</ele>
        <time>2023-05-27T07:06:54Z</time>
      </trkpt>
      <trkpt lat="45.77817" lon="5.28191">
        <ele>247.2</ele>
        <time>2023-05-27T07:06:55Z</time>
      </trkpt>
      <trkpt lat="45.77822" lon="5.28197">
        <ele>247.4</ele>
        <time>2023-05-27T07:06:56Z</time>
      </trkpt>
      <trkpt lat="45.77825" lon="5.28203">
        <ele>247.4</ele>
        <time>2023-05-27T07:06:57Z</time>
      </trkpt>
      <trkpt lat="45.77829" lon="5.28208">
        <ele>247.6</ele>
        <time>2023-05-27T07:06:58Z</time>
      </trkpt>
      <trkpt lat="45.77833" lon="5.28214">
        <ele>247.6</ele>
        <time>2023-05-27T07:06:59Z</time>
      </trkpt>
      <trkpt lat="45.77837" lon="5.2822">
        <ele>247.6</ele>
        <time>2023-05-27T07:07:00Z</time>
      </trkpt>
      <trkpt lat="45.77841" lon="5.28226">
        <ele>247.6</ele>
        <time>2023-05-27T07:07:01Z</time>
      </trkpt>
      <trkpt lat="45.77845" lon="5.28231">
        <ele>247.8</ele>
        <time>2023-05-27T07:07:02Z</time>
      </trkpt>
      <trkpt lat="45.7785" lon="5.28236">
        <ele>248</ele>
        <time>2023-05-27T07:07:03Z</time>
      </trkpt>
      <trkpt lat="45.77854" lon="5.28241">
        <ele>248</ele>
        <time>2023-05-27T07:07:04Z</time>
      </trkpt>
      <trkpt lat="45.77858" lon="5.28246">
        <ele>248.4</ele>
        <time>2023-05-27T07:07:05Z</time>
      </trkpt>
      <trkpt lat="45.77863" lon="5.28251">
        <ele>248.6</ele>
        <time>2023-05-27T07:07:06Z</time>
      </trkpt>
      <trkpt lat="45.77868" lon="5.28256">
        <ele>249</ele>
        <time>2023-05-27T07:07:07Z</time>
      </trkpt>
      <trkpt lat="45.77873" lon="5.28261">
        <ele>249</ele>
        <time>2023-05-27T07:07:08Z</time>
      </trkpt>
      <trkpt lat="45.77878" lon="5.28266">
        <ele>249</ele>
        <time>2023-05-27T07:07:09Z</time>
      </trkpt>
      <trkpt lat="45.77884" lon="5.28271">
        <ele>249.2</ele>
        <time>2023-05-27T07:07:10Z</time>
      </trkpt>
      <trkpt lat="45.7789" lon="5.28275">
        <ele>249.2</ele>
        <time>2023-05-27T07:07:11Z</time>
      </trkpt>
      <trkpt lat="45.77895" lon="5.28279">
        <ele>249.2</ele>
        <time>2023-05-27T07:07:12Z</time>
      </trkpt>
      <trkpt lat="45.77901" lon="5.28283">
        <ele>249.2</ele>
        <time>2023-05-27T07:07:13Z</time>
      </trkpt>
      <trkpt lat="45.77906" lon="5.28286">
        <ele>249.2</ele>
        <time>2023-05-27T07:07:14Z</time>
      </trkpt>
      <trkpt lat="45.77911" lon="5.2829">
        <ele>249.2</ele>
        <time>2023-05-27T07:07:15Z</time>
      </trkpt>
      <trkpt lat="45.77918" lon="5.28293">
        <ele>249.2</ele>
        <time>2023-05-27T07:07:16Z</time>
      </trkpt>
      <trkpt lat="45.77924" lon="5.28296">
        <ele>249</ele>
        <time>2023-05-27T07:07:17Z</time>
      </trkpt>
      <trkpt lat="45.77931" lon="5.28299">
        <ele>249</ele>
        <time>2023-05-27T07:07:18Z</time>
      </trkpt>
      <trkpt lat="45.77938" lon="5.28302">
        <ele>249</ele>
        <time>2023-05-27T07:07:19Z</time>
      </trkpt>
      <trkpt lat="45.77944" lon="5.28305">
        <ele>249</ele>
        <time>2023-05-27T07:07:20Z</time>
      </trkpt>
      <trkpt lat="45.77952" lon="5.28307">
        <ele>249</ele>
        <time>2023-05-27T07:07:21Z</time>
      </trkpt>
      <trkpt lat="45.77959" lon="5.2831">
        <ele>248.8</ele>
        <time>2023-05-27T07:07:22Z</time>
      </trkpt>
      <trkpt lat="45.77966" lon="5.28313">
        <ele>248.8</ele>
        <time>2023-05-27T07:07:23Z</time>
      </trkpt>
      <trkpt lat="45.77971" lon="5.28315">
        <ele>248.8</ele>
        <time>2023-05-27T07:07:24Z</time>
      </trkpt>
      <trkpt lat="45.77977" lon="5.28319">
        <ele>248.8</ele>
        <time>2023-05-27T07:07:25Z</time>
      </trkpt>
      <trkpt lat="45.77983" lon="5.28321">
        <ele>249</ele>
        <time>2023-05-27T07:07:26Z</time>
      </trkpt>
      <trkpt lat="45.77988" lon="5.28324">
        <ele>249</ele>
        <time>2023-05-27T07:07:27Z</time>
      </trkpt>
      <trkpt lat="45.77994" lon="5.28327">
        <ele>249</ele>
        <time>2023-05-27T07:07:28Z</time>
      </trkpt>
      <trkpt lat="45.77999" lon="5.28331">
        <ele>249.2</ele>
        <time>2023-05-27T07:07:29Z</time>
      </trkpt>
      <trkpt lat="45.78004" lon="5.28333">
        <ele>249.2</ele>
        <time>2023-05-27T07:07:30Z</time>
      </trkpt>
      <trkpt lat="45.78009" lon="5.28334">
        <ele>249.2</ele>
        <time>2023-05-27T07:07:31Z</time>
      </trkpt>
      <trkpt lat="45.78014" lon="5.28335">
        <ele>249.2</ele>
        <time>2023-05-27T07:07:32Z</time>
      </trkpt>
      <trkpt lat="45.78019" lon="5.28337">
        <ele>249.4</ele>
        <time>2023-05-27T07:07:33Z</time>
      </trkpt>
      <trkpt lat="45.78025" lon="5.2834">
        <ele>249.6</ele>
        <time>2023-05-27T07:07:34Z</time>
      </trkpt>
      <trkpt lat="45.78029" lon="5.28342">
        <ele>249.8</ele>
        <time>2023-05-27T07:07:35Z</time>
      </trkpt>
      <trkpt lat="45.78033" lon="5.28345">
        <ele>250.2</ele>
        <time>2023-05-27T07:07:36Z</time>
      </trkpt>
      <trkpt lat="45.78038" lon="5.28347">
        <ele>250.4</ele>
        <time>2023-05-27T07:07:37Z</time>
      </trkpt>
      <trkpt lat="45.78043" lon="5.28349">
        <ele>250.6</ele>
        <time>2023-05-27T07:07:38Z</time>
      </trkpt>
      <trkpt lat="45.78048" lon="5.28352">
        <ele>250.8</ele>
        <time>2023-05-27T07:07:39Z</time>
      </trkpt>
      <trkpt lat="45.78052" lon="5.28354">
        <ele>251</ele>
        <time>2023-05-27T07:07:40Z</time>
      </trkpt>
      <trkpt lat="45.78057" lon="5.28358">
        <ele>251.2</ele>
        <time>2023-05-27T07:07:41Z</time>
      </trkpt>
      <trkpt lat="45.78062" lon="5.28361">
        <ele>251.4</ele>
        <time>2023-05-27T07:07:42Z</time>
      </trkpt>
      <trkpt lat="45.78067" lon="5.28364">
        <ele>251.6</ele>
        <time>2023-05-27T07:07:43Z</time>
      </trkpt>
      <trkpt lat="45.78071" lon="5.28367">
        <ele>251.6</ele>
        <time>2023-05-27T07:07:44Z</time>
      </trkpt>
      <trkpt lat="45.78076" lon="5.2837">
        <ele>251.8</ele>
        <time>2023-05-27T07:07:45Z</time>
      </trkpt>
      <trkpt lat="45.7808" lon="5.28373">
        <ele>252.2</ele>
        <time>2023-05-27T07:07:46Z</time>
      </trkpt>
      <trkpt lat="45.78085" lon="5.28376">
        <ele>252.4</ele>
        <time>2023-05-27T07:07:47Z</time>
      </trkpt>
      <trkpt lat="45.78091" lon="5.28379">
        <ele>252.6</ele>
        <time>2023-05-27T07:07:48Z</time>
      </trkpt>
      <trkpt lat="45.78096" lon="5.28382">
        <ele>252.8</ele>
        <time>2023-05-27T07:07:49Z</time>
      </trkpt>
      <trkpt lat="45.78101" lon="5.28386">
        <ele>253.2</ele>
        <time>2023-05-27T07:07:50Z</time>
      </trkpt>
      <trkpt lat="45.78107" lon="5.28389">
        <ele>253.4</ele>
        <time>2023-05-27T07:07:51Z</time>
      </trkpt>
      <trkpt lat="45.78113" lon="5.28393">
        <ele>253.8</ele>
        <time>2023-05-27T07:07:52Z</time>
      </trkpt>
      <trkpt lat="45.78119" lon="5.28398">
        <ele>254.4</ele>
        <time>2023-05-27T07:07:53Z</time>
      </trkpt>
      <trkpt lat="45.78125" lon="5.28402">
        <ele>254.4</ele>
        <time>2023-05-27T07:07:54Z</time>
      </trkpt>
      <trkpt lat="45.78132" lon="5.28407">
        <ele>254.6</ele>
        <time>2023-05-27T07:07:55Z</time>
      </trkpt>
      <trkpt lat="45.7814" lon="5.28412">
        <ele>254.6</ele>
        <time>2023-05-27T07:07:56Z</time>
      </trkpt>
      <trkpt lat="45.78145" lon="5.28415">
        <ele>255</ele>
        <time>2023-05-27T07:07:57Z</time>
      </trkpt>
      <trkpt lat="45.78152" lon="5.28419">
        <ele>255.2</ele>
        <time>2023-05-27T07:07:58Z</time>
      </trkpt>
      <trkpt lat="45.78159" lon="5.28422">
        <ele>255.2</ele>
        <time>2023-05-27T07:07:59Z</time>
      </trkpt>
      <trkpt lat="45.78166" lon="5.28424">
        <ele>255.4</ele>
        <time>2023-05-27T07:08:00Z</time>
      </trkpt>
      <trkpt lat="45.78173" lon="5.28424">
        <ele>255.4</ele>
        <time>2023-05-27T07:08:01Z</time>
      </trkpt>
      <trkpt lat="45.78181" lon="5.28424">
        <ele>255.6</ele>
        <time>2023-05-27T07:08:02Z</time>
      </trkpt>
      <trkpt lat="45.78189" lon="5.28424">
        <ele>255.6</ele>
        <time>2023-05-27T07:08:03Z</time>
      </trkpt>
      <trkpt lat="45.78197" lon="5.28424">
        <ele>255.6</ele>
        <time>2023-05-27T07:08:04Z</time>
      </trkpt>
      <trkpt lat="45.78206" lon="5.28422">
        <ele>255.6</ele>
        <time>2023-05-27T07:08:05Z</time>
      </trkpt>
      <trkpt lat="45.78215" lon="5.28421">
        <ele>255.6</ele>
        <time>2023-05-27T07:08:06Z</time>
      </trkpt>
      <trkpt lat="45.78222" lon="5.28418">
        <ele>255.6</ele>
        <time>2023-05-27T07:08:07Z</time>
      </trkpt>
      <trkpt lat="45.78229" lon="5.28416">
        <ele>255.6</ele>
        <time>2023-05-27T07:08:08Z</time>
      </trkpt>
      <trkpt lat="45.78236" lon="5.28413">
        <ele>255.6</ele>
        <time>2023-05-27T07:08:09Z</time>
      </trkpt>
      <trkpt lat="45.78243" lon="5.2841">
        <ele>255.6</ele>
        <time>2023-05-27T07:08:10Z</time>
      </trkpt>
      <trkpt lat="45.78251" lon="5.28407">
        <ele>255.6</ele>
        <time>2023-05-27T07:08:11Z</time>
      </trkpt>
      <trkpt lat="45.78258" lon="5.28404">
        <ele>255.6</ele>
        <time>2023-05-27T07:08:12Z</time>
      </trkpt>
      <trkpt lat="45.78265" lon="5.28401">
        <ele>255.6</ele>
        <time>2023-05-27T07:08:13Z</time>
      </trkpt>
      <trkpt lat="45.78272" lon="5.28398">
        <ele>255.4</ele>
        <time>2023-05-27T07:08:14Z</time>
      </trkpt>
      <trkpt lat="45.78279" lon="5.28396">
        <ele>255.4</ele>
        <time>2023-05-27T07:08:15Z</time>
      </trkpt>
      <trkpt lat="45.78286" lon="5.28395">
        <ele>255.4</ele>
        <time>2023-05-27T07:08:16Z</time>
      </trkpt>
      <trkpt lat="45.78294" lon="5.28394">
        <ele>255.4</ele>
        <time>2023-05-27T07:08:17Z</time>
      </trkpt>
      <trkpt lat="45.78301" lon="5.28394">
        <ele>255.2</ele>
        <time>2023-05-27T07:08:18Z</time>
      </trkpt>
      <trkpt lat="45.78309" lon="5.28395">
        <ele>255.2</ele>
        <time>2023-05-27T07:08:19Z</time>
      </trkpt>
      <trkpt lat="45.78317" lon="5.28396">
        <ele>255.2</ele>
        <time>2023-05-27T07:08:20Z</time>
      </trkpt>
      <trkpt lat="45.78324" lon="5.28398">
        <ele>255</ele>
        <time>2023-05-27T07:08:21Z</time>
      </trkpt>
      <trkpt lat="45.78332" lon="5.284">
        <ele>255</ele>
        <time>2023-05-27T07:08:22Z</time>
      </trkpt>
      <trkpt lat="45.78338" lon="5.28404">
        <ele>254.8</ele>
        <time>2023-05-27T07:08:23Z</time>
      </trkpt>
      <trkpt lat="45.78345" lon="5.28409">
        <ele>254.6</ele>
        <time>2023-05-27T07:08:24Z</time>
      </trkpt>
      <trkpt lat="45.78352" lon="5.28414">
        <ele>254.6</ele>
        <time>2023-05-27T07:08:25Z</time>
      </trkpt>
      <trkpt lat="45.78358" lon="5.2842">
        <ele>254.4</ele>
        <time>2023-05-27T07:08:26Z</time>
      </trkpt>
      <trkpt lat="45.78365" lon="5.28425">
        <ele>254.2</ele>
        <time>2023-05-27T07:08:27Z</time>
      </trkpt>
      <trkpt lat="45.78372" lon="5.2843">
        <ele>254</ele>
        <time>2023-05-27T07:08:28Z</time>
      </trkpt>
      <trkpt lat="45.78379" lon="5.28436">
        <ele>254</ele>
        <time>2023-05-27T07:08:29Z</time>
      </trkpt>
      <trkpt lat="45.78386" lon="5.28442">
        <ele>253.8</ele>
        <time>2023-05-27T07:08:30Z</time>
      </trkpt>
      <trkpt lat="45.78392" lon="5.28446">
        <ele>253.8</ele>
        <time>2023-05-27T07:08:31Z</time>
      </trkpt>
      <trkpt lat="45.78401" lon="5.28454">
        <ele>253.8</ele>
        <time>2023-05-27T07:08:32Z</time>
      </trkpt>
      <trkpt lat="45.78408" lon="5.28461">
        <ele>253.6</ele>
        <time>2023-05-27T07:08:33Z</time>
      </trkpt>
      <trkpt lat="45.78417" lon="5.28468">
        <ele>253.6</ele>
        <time>2023-05-27T07:08:34Z</time>
      </trkpt>
      <trkpt lat="45.78426" lon="5.28476">
        <ele>253.4</ele>
        <time>2023-05-27T07:08:35Z</time>
      </trkpt>
      <trkpt lat="45.78435" lon="5.28484">
        <ele>253.4</ele>
        <time>2023-05-27T07:08:36Z</time>
      </trkpt>
      <trkpt lat="45.78444" lon="5.28492">
        <ele>253.2</ele>
        <time>2023-05-27T07:08:37Z</time>
      </trkpt>
      <trkpt lat="45.78453" lon="5.28499">
        <ele>253</ele>
        <time>2023-05-27T07:08:38Z</time>
      </trkpt>
      <trkpt lat="45.78462" lon="5.28506">
        <ele>253</ele>
        <time>2023-05-27T07:08:39Z</time>
      </trkpt>
      <trkpt lat="45.78471" lon="5.28513">
        <ele>252.8</ele>
        <time>2023-05-27T07:08:40Z</time>
      </trkpt>
      <trkpt lat="45.7848" lon="5.28518">
        <ele>252.6</ele>
        <time>2023-05-27T07:08:41Z</time>
      </trkpt>
      <trkpt lat="45.7849" lon="5.28522">
        <ele>252.4</ele>
        <time>2023-05-27T07:08:42Z</time>
      </trkpt>
      <trkpt lat="45.78499" lon="5.28523">
        <ele>252</ele>
        <time>2023-05-27T07:08:43Z</time>
      </trkpt>
      <trkpt lat="45.78509" lon="5.28521">
        <ele>251.8</ele>
        <time>2023-05-27T07:08:44Z</time>
      </trkpt>
      <trkpt lat="45.78529" lon="5.28513">
        <ele>251.2</ele>
        <time>2023-05-27T07:08:46Z</time>
      </trkpt>
      <trkpt lat="45.78537" lon="5.28507">
        <ele>250.8</ele>
        <time>2023-05-27T07:08:47Z</time>
      </trkpt>
      <trkpt lat="45.78546" lon="5.28499">
        <ele>250.8</ele>
        <time>2023-05-27T07:08:48Z</time>
      </trkpt>
      <trkpt lat="45.78554" lon="5.28491">
        <ele>250.4</ele>
        <time>2023-05-27T07:08:49Z</time>
      </trkpt>
      <trkpt lat="45.78562" lon="5.28483">
        <ele>250.2</ele>
        <time>2023-05-27T07:08:50Z</time>
      </trkpt>
      <trkpt lat="45.78571" lon="5.28477">
        <ele>250</ele>
        <time>2023-05-27T07:08:51Z</time>
      </trkpt>
      <trkpt lat="45.7858" lon="5.28477">
        <ele>249.6</ele>
        <time>2023-05-27T07:08:52Z</time>
      </trkpt>
      <trkpt lat="45.78589" lon="5.28481">
        <ele>249.6</ele>
        <time>2023-05-27T07:08:53Z</time>
      </trkpt>
      <trkpt lat="45.78597" lon="5.28486">
        <ele>249.2</ele>
        <time>2023-05-27T07:08:54Z</time>
      </trkpt>
      <trkpt lat="45.78605" lon="5.28491">
        <ele>248.6</ele>
        <time>2023-05-27T07:08:55Z</time>
      </trkpt>
      <trkpt lat="45.78613" lon="5.28496">
        <ele>248</ele>
        <time>2023-05-27T07:08:56Z</time>
      </trkpt>
      <trkpt lat="45.7862" lon="5.28502">
        <ele>247.6</ele>
        <time>2023-05-27T07:08:57Z</time>
      </trkpt>
      <trkpt lat="45.78627" lon="5.28509">
        <ele>247.4</ele>
        <time>2023-05-27T07:08:58Z</time>
      </trkpt>
      <trkpt lat="45.78634" lon="5.28515">
        <ele>246.8</ele>
        <time>2023-05-27T07:08:59Z</time>
      </trkpt>
      <trkpt lat="45.78641" lon="5.28522">
        <ele>246.4</ele>
        <time>2023-05-27T07:09:00Z</time>
      </trkpt>
      <trkpt lat="45.78649" lon="5.28528">
        <ele>246</ele>
        <time>2023-05-27T07:09:01Z</time>
      </trkpt>
      <trkpt lat="45.78657" lon="5.28535">
        <ele>245.8</ele>
        <time>2023-05-27T07:09:02Z</time>
      </trkpt>
      <trkpt lat="45.78665" lon="5.28542">
        <ele>245.8</ele>
        <time>2023-05-27T07:09:03Z</time>
      </trkpt>
      <trkpt lat="45.78673" lon="5.2855">
        <ele>245.2</ele>
        <time>2023-05-27T07:09:04Z</time>
      </trkpt>
      <trkpt lat="45.78681" lon="5.28557">
        <ele>245</ele>
        <time>2023-05-27T07:09:05Z</time>
      </trkpt>
      <trkpt lat="45.78689" lon="5.28564">
        <ele>244.4</ele>
        <time>2023-05-27T07:09:06Z</time>
      </trkpt>
      <trkpt lat="45.78697" lon="5.28571">
        <ele>244</ele>
        <time>2023-05-27T07:09:07Z</time>
      </trkpt>
      <trkpt lat="45.78705" lon="5.28578">
        <ele>243.4</ele>
        <time>2023-05-27T07:09:08Z</time>
      </trkpt>
      <trkpt lat="45.78713" lon="5.28585">
        <ele>242.8</ele>
        <time>2023-05-27T07:09:09Z</time>
      </trkpt>
      <trkpt lat="45.78721" lon="5.28592">
        <ele>242.4</ele>
        <time>2023-05-27T07:09:10Z</time>
      </trkpt>
      <trkpt lat="45.7873" lon="5.28599">
        <ele>241.8</ele>
        <time>2023-05-27T07:09:11Z</time>
      </trkpt>
      <trkpt lat="45.7874" lon="5.28604">
        <ele>241.4</ele>
        <time>2023-05-27T07:09:12Z</time>
      </trkpt>
      <trkpt lat="45.78749" lon="5.28608">
        <ele>240.6</ele>
        <time>2023-05-27T07:09:13Z</time>
      </trkpt>
      <trkpt lat="45.78759" lon="5.28612">
        <ele>240.4</ele>
        <time>2023-05-27T07:09:14Z</time>
      </trkpt>
      <trkpt lat="45.7877" lon="5.28614">
        <ele>239.8</ele>
        <time>2023-05-27T07:09:15Z</time>
      </trkpt>
      <trkpt lat="45.7878" lon="5.28617">
        <ele>239.2</ele>
        <time>2023-05-27T07:09:16Z</time>
      </trkpt>
      <trkpt lat="45.78791" lon="5.28621">
        <ele>239</ele>
        <time>2023-05-27T07:09:17Z</time>
      </trkpt>
      <trkpt lat="45.78801" lon="5.28625">
        <ele>238.8</ele>
        <time>2023-05-27T07:09:18Z</time>
      </trkpt>
      <trkpt lat="45.7881" lon="5.28631">
        <ele>238.8</ele>
        <time>2023-05-27T07:09:19Z</time>
      </trkpt>
      <trkpt lat="45.7882" lon="5.28638">
        <ele>238.6</ele>
        <time>2023-05-27T07:09:20Z</time>
      </trkpt>
      <trkpt lat="45.78829" lon="5.28645">
        <ele>237.8</ele>
        <time>2023-05-27T07:09:21Z</time>
      </trkpt>
      <trkpt lat="45.78838" lon="5.28652">
        <ele>237.4</ele>
        <time>2023-05-27T07:09:22Z</time>
      </trkpt>
      <trkpt lat="45.78847" lon="5.28659">
        <ele>236.8</ele>
        <time>2023-05-27T07:09:23Z</time>
      </trkpt>
      <trkpt lat="45.78857" lon="5.28666">
        <ele>236.6</ele>
        <time>2023-05-27T07:09:24Z</time>
      </trkpt>
      <trkpt lat="45.78866" lon="5.28673">
        <ele>236.4</ele>
        <time>2023-05-27T07:09:25Z</time>
      </trkpt>
      <trkpt lat="45.78876" lon="5.28679">
        <ele>236.4</ele>
        <time>2023-05-27T07:09:26Z</time>
      </trkpt>
      <trkpt lat="45.78887" lon="5.28684">
        <ele>236</ele>
        <time>2023-05-27T07:09:27Z</time>
      </trkpt>
      <trkpt lat="45.78897" lon="5.28688">
        <ele>235.8</ele>
        <time>2023-05-27T07:09:28Z</time>
      </trkpt>
      <trkpt lat="45.78908" lon="5.2869">
        <ele>235.6</ele>
        <time>2023-05-27T07:09:29Z</time>
      </trkpt>
      <trkpt lat="45.7892" lon="5.28692">
        <ele>235.4</ele>
        <time>2023-05-27T07:09:30Z</time>
      </trkpt>
      <trkpt lat="45.78931" lon="5.28693">
        <ele>235.4</ele>
        <time>2023-05-27T07:09:31Z</time>
      </trkpt>
      <trkpt lat="45.78943" lon="5.28693">
        <ele>235.2</ele>
        <time>2023-05-27T07:09:32Z</time>
      </trkpt>
      <trkpt lat="45.78955" lon="5.28693">
        <ele>235</ele>
        <time>2023-05-27T07:09:33Z</time>
      </trkpt>
      <trkpt lat="45.78967" lon="5.28692">
        <ele>234.6</ele>
        <time>2023-05-27T07:09:34Z</time>
      </trkpt>
      <trkpt lat="45.7898" lon="5.28692">
        <ele>234</ele>
        <time>2023-05-27T07:09:35Z</time>
      </trkpt>
      <trkpt lat="45.78992" lon="5.28693">
        <ele>234</ele>
        <time>2023-05-27T07:09:36Z</time>
      </trkpt>
      <trkpt lat="45.79005" lon="5.28695">
        <ele>233.8</ele>
        <time>2023-05-27T07:09:37Z</time>
      </trkpt>
      <trkpt lat="45.79017" lon="5.28697">
        <ele>233.6</ele>
        <time>2023-05-27T07:09:38Z</time>
      </trkpt>
      <trkpt lat="45.79029" lon="5.28699">
        <ele>233.4</ele>
        <time>2023-05-27T07:09:39Z</time>
      </trkpt>
      <trkpt lat="45.79042" lon="5.28702">
        <ele>233.4</ele>
        <time>2023-05-27T07:09:40Z</time>
      </trkpt>
      <trkpt lat="45.79054" lon="5.28705">
        <ele>233</ele>
        <time>2023-05-27T07:09:41Z</time>
      </trkpt>
      <trkpt lat="45.79066" lon="5.28708">
        <ele>232.6</ele>
        <time>2023-05-27T07:09:42Z</time>
      </trkpt>
      <trkpt lat="45.79077" lon="5.28712">
        <ele>232.6</ele>
        <time>2023-05-27T07:09:43Z</time>
      </trkpt>
      <trkpt lat="45.79088" lon="5.28715">
        <ele>232.2</ele>
        <time>2023-05-27T07:09:44Z</time>
      </trkpt>
      <trkpt lat="45.79099" lon="5.28719">
        <ele>232</ele>
        <time>2023-05-27T07:09:45Z</time>
      </trkpt>
      <trkpt lat="45.79109" lon="5.28724">
        <ele>231.4</ele>
        <time>2023-05-27T07:09:46Z</time>
      </trkpt>
      <trkpt lat="45.79119" lon="5.28728">
        <ele>231</ele>
        <time>2023-05-27T07:09:47Z</time>
      </trkpt>
      <trkpt lat="45.79129" lon="5.28734">
        <ele>230.8</ele>
        <time>2023-05-27T07:09:48Z</time>
      </trkpt>
      <trkpt lat="45.79138" lon="5.28739">
        <ele>230.6</ele>
        <time>2023-05-27T07:09:49Z</time>
      </trkpt>
      <trkpt lat="45.79145" lon="5.28744">
        <ele>230.4</ele>
        <time>2023-05-27T07:09:50Z</time>
      </trkpt>
      <trkpt lat="45.79153" lon="5.28751">
        <ele>229.8</ele>
        <time>2023-05-27T07:09:51Z</time>
      </trkpt>
      <trkpt lat="45.79163" lon="5.28758">
        <ele>229.6</ele>
        <time>2023-05-27T07:09:52Z</time>
      </trkpt>
      <trkpt lat="45.79171" lon="5.28763">
        <ele>229.4</ele>
        <time>2023-05-27T07:09:53Z</time>
      </trkpt>
      <trkpt lat="45.7918" lon="5.28768">
        <ele>229.2</ele>
        <time>2023-05-27T07:09:54Z</time>
      </trkpt>
      <trkpt lat="45.79188" lon="5.28774">
        <ele>229.2</ele>
        <time>2023-05-27T07:09:55Z</time>
      </trkpt>
      <trkpt lat="45.79197" lon="5.28779">
        <ele>229.2</ele>
        <time>2023-05-27T07:09:56Z</time>
      </trkpt>
      <trkpt lat="45.79205" lon="5.28785">
        <ele>229.2</ele>
        <time>2023-05-27T07:09:57Z</time>
      </trkpt>
      <trkpt lat="45.79214" lon="5.2879">
        <ele>229</ele>
        <time>2023-05-27T07:09:58Z</time>
      </trkpt>
      <trkpt lat="45.79223" lon="5.28796">
        <ele>229</ele>
        <time>2023-05-27T07:09:59Z</time>
      </trkpt>
      <trkpt lat="45.79232" lon="5.28802">
        <ele>229</ele>
        <time>2023-05-27T07:10:00Z</time>
      </trkpt>
      <trkpt lat="45.7924" lon="5.28808">
        <ele>229</ele>
        <time>2023-05-27T07:10:01Z</time>
      </trkpt>
      <trkpt lat="45.79248" lon="5.28815">
        <ele>229</ele>
        <time>2023-05-27T07:10:02Z</time>
      </trkpt>
      <trkpt lat="45.79257" lon="5.28822">
        <ele>228.8</ele>
        <time>2023-05-27T07:10:03Z</time>
      </trkpt>
      <trkpt lat="45.79266" lon="5.28829">
        <ele>228.8</ele>
        <time>2023-05-27T07:10:04Z</time>
      </trkpt>
      <trkpt lat="45.79274" lon="5.28836">
        <ele>228.8</ele>
        <time>2023-05-27T07:10:05Z</time>
      </trkpt>
      <trkpt lat="45.79283" lon="5.28842">
        <ele>228.6</ele>
        <time>2023-05-27T07:10:06Z</time>
      </trkpt>
      <trkpt lat="45.79292" lon="5.28849">
        <ele>228.4</ele>
        <time>2023-05-27T07:10:07Z</time>
      </trkpt>
      <trkpt lat="45.79301" lon="5.28856">
        <ele>228.2</ele>
        <time>2023-05-27T07:10:08Z</time>
      </trkpt>
      <trkpt lat="45.7931" lon="5.28863">
        <ele>228</ele>
        <time>2023-05-27T07:10:09Z</time>
      </trkpt>
      <trkpt lat="45.79317" lon="5.28871">
        <ele>227.8</ele>
        <time>2023-05-27T07:10:10Z</time>
      </trkpt>
      <trkpt lat="45.79325" lon="5.2888">
        <ele>227.6</ele>
        <time>2023-05-27T07:10:11Z</time>
      </trkpt>
      <trkpt lat="45.79331" lon="5.2889">
        <ele>227.4</ele>
        <time>2023-05-27T07:10:12Z</time>
      </trkpt>
      <trkpt lat="45.79337" lon="5.28901">
        <ele>226.8</ele>
        <time>2023-05-27T07:10:13Z</time>
      </trkpt>
      <trkpt lat="45.79341" lon="5.28913">
        <ele>226.6</ele>
        <time>2023-05-27T07:10:14Z</time>
      </trkpt>
      <trkpt lat="45.79346" lon="5.28924">
        <ele>226.4</ele>
        <time>2023-05-27T07:10:15Z</time>
      </trkpt>
      <trkpt lat="45.79351" lon="5.28935">
        <ele>226.2</ele>
        <time>2023-05-27T07:10:16Z</time>
      </trkpt>
      <trkpt lat="45.79355" lon="5.28945">
        <ele>226.2</ele>
        <time>2023-05-27T07:10:17Z</time>
      </trkpt>
      <trkpt lat="45.7936" lon="5.28955">
        <ele>226.2</ele>
        <time>2023-05-27T07:10:18Z</time>
      </trkpt>
      <trkpt lat="45.79364" lon="5.28965">
        <ele>226.2</ele>
        <time>2023-05-27T07:10:19Z</time>
      </trkpt>
      <trkpt lat="45.79369" lon="5.28974">
        <ele>226.2</ele>
        <time>2023-05-27T07:10:20Z</time>
      </trkpt>
      <trkpt lat="45.79373" lon="5.28983">
        <ele>226.2</ele>
        <time>2023-05-27T07:10:21Z</time>
      </trkpt>
      <trkpt lat="45.79378" lon="5.28992">
        <ele>226.2</ele>
        <time>2023-05-27T07:10:22Z</time>
      </trkpt>
      <trkpt lat="45.79382" lon="5.29">
        <ele>226.4</ele>
        <time>2023-05-27T07:10:23Z</time>
      </trkpt>
      <trkpt lat="45.79385" lon="5.29008">
        <ele>226.6</ele>
        <time>2023-05-27T07:10:24Z</time>
      </trkpt>
      <trkpt lat="45.79389" lon="5.29015">
        <ele>226.6</ele>
        <time>2023-05-27T07:10:25Z</time>
      </trkpt>
      <trkpt lat="45.79393" lon="5.29023">
        <ele>226.6</ele>
        <time>2023-05-27T07:10:26Z</time>
      </trkpt>
      <trkpt lat="45.79397" lon="5.2903">
        <ele>226.6</ele>
        <time>2023-05-27T07:10:27Z</time>
      </trkpt>
      <trkpt lat="45.79401" lon="5.29037">
        <ele>226.6</ele>
        <time>2023-05-27T07:10:28Z</time>
      </trkpt>
      <trkpt lat="45.79405" lon="5.29043">
        <ele>226.8</ele>
        <time>2023-05-27T07:10:29Z</time>
      </trkpt>
      <trkpt lat="45.79408" lon="5.29048">
        <ele>226.8</ele>
        <time>2023-05-27T07:10:30Z</time>
      </trkpt>
      <trkpt lat="45.79413" lon="5.29055">
        <ele>226.8</ele>
        <time>2023-05-27T07:10:31Z</time>
      </trkpt>
      <trkpt lat="45.79417" lon="5.2906">
        <ele>226.8</ele>
        <time>2023-05-27T07:10:32Z</time>
      </trkpt>
      <trkpt lat="45.7942" lon="5.29065">
        <ele>227</ele>
        <time>2023-05-27T07:10:33Z</time>
      </trkpt>
      <trkpt lat="45.79424" lon="5.2907">
        <ele>227</ele>
        <time>2023-05-27T07:10:34Z</time>
      </trkpt>
      <trkpt lat="45.79428" lon="5.29074">
        <ele>227.2</ele>
        <time>2023-05-27T07:10:35Z</time>
      </trkpt>
      <trkpt lat="45.79432" lon="5.29079">
        <ele>227.4</ele>
        <time>2023-05-27T07:10:36Z</time>
      </trkpt>
      <trkpt lat="45.79435" lon="5.29083">
        <ele>227.6</ele>
        <time>2023-05-27T07:10:37Z</time>
      </trkpt>
      <trkpt lat="45.79439" lon="5.29088">
        <ele>227.8</ele>
        <time>2023-05-27T07:10:38Z</time>
      </trkpt>
      <trkpt lat="45.79442" lon="5.29093">
        <ele>228.6</ele>
        <time>2023-05-27T07:10:39Z</time>
      </trkpt>
      <trkpt lat="45.79447" lon="5.29098">
        <ele>228.8</ele>
        <time>2023-05-27T07:10:40Z</time>
      </trkpt>
      <trkpt lat="45.79451" lon="5.29103">
        <ele>229</ele>
        <time>2023-05-27T07:10:41Z</time>
      </trkpt>
      <trkpt lat="45.79455" lon="5.29108">
        <ele>229.2</ele>
        <time>2023-05-27T07:10:42Z</time>
      </trkpt>
      <trkpt lat="45.7946" lon="5.29112">
        <ele>229.6</ele>
        <time>2023-05-27T07:10:43Z</time>
      </trkpt>
      <trkpt lat="45.79464" lon="5.29115">
        <ele>230</ele>
        <time>2023-05-27T07:10:44Z</time>
      </trkpt>
      <trkpt lat="45.79469" lon="5.29119">
        <ele>230.2</ele>
        <time>2023-05-27T07:10:45Z</time>
      </trkpt>
      <trkpt lat="45.79474" lon="5.29123">
        <ele>230.4</ele>
        <time>2023-05-27T07:10:46Z</time>
      </trkpt>
      <trkpt lat="45.79479" lon="5.29127">
        <ele>230.4</ele>
        <time>2023-05-27T07:10:47Z</time>
      </trkpt>
      <trkpt lat="45.79485" lon="5.29131">
        <ele>230.6</ele>
        <time>2023-05-27T07:10:48Z</time>
      </trkpt>
      <trkpt lat="45.7949" lon="5.29135">
        <ele>230.8</ele>
        <time>2023-05-27T07:10:49Z</time>
      </trkpt>
      <trkpt lat="45.79496" lon="5.29139">
        <ele>231</ele>
        <time>2023-05-27T07:10:50Z</time>
      </trkpt>
      <trkpt lat="45.79502" lon="5.29143">
        <ele>231.2</ele>
        <time>2023-05-27T07:10:51Z</time>
      </trkpt>
      <trkpt lat="45.79508" lon="5.29148">
        <ele>231.2</ele>
        <time>2023-05-27T07:10:52Z</time>
      </trkpt>
      <trkpt lat="45.79514" lon="5.29152">
        <ele>231.4</ele>
        <time>2023-05-27T07:10:53Z</time>
      </trkpt>
      <trkpt lat="45.79521" lon="5.29157">
        <ele>231.4</ele>
        <time>2023-05-27T07:10:54Z</time>
      </trkpt>
      <trkpt lat="45.79528" lon="5.29161">
        <ele>231.4</ele>
        <time>2023-05-27T07:10:55Z</time>
      </trkpt>
      <trkpt lat="45.79535" lon="5.29166">
        <ele>231.4</ele>
        <time>2023-05-27T07:10:56Z</time>
      </trkpt>
      <trkpt lat="45.79542" lon="5.2917">
        <ele>231.6</ele>
        <time>2023-05-27T07:10:57Z</time>
      </trkpt>
      <trkpt lat="45.79549" lon="5.29175">
        <ele>231.6</ele>
        <time>2023-05-27T07:10:58Z</time>
      </trkpt>
      <trkpt lat="45.79557" lon="5.2918">
        <ele>231.6</ele>
        <time>2023-05-27T07:10:59Z</time>
      </trkpt>
      <trkpt lat="45.79564" lon="5.29185">
        <ele>231.8</ele>
        <time>2023-05-27T07:11:00Z</time>
      </trkpt>
      <trkpt lat="45.79572" lon="5.2919">
        <ele>231.8</ele>
        <time>2023-05-27T07:11:01Z</time>
      </trkpt>
      <trkpt lat="45.79579" lon="5.29195">
        <ele>231.8</ele>
        <time>2023-05-27T07:11:02Z</time>
      </trkpt>
      <trkpt lat="45.79593" lon="5.29206">
        <ele>231.6</ele>
        <time>2023-05-27T07:11:04Z</time>
      </trkpt>
      <trkpt lat="45.79601" lon="5.29211">
        <ele>231.4</ele>
        <time>2023-05-27T07:11:05Z</time>
      </trkpt>
      <trkpt lat="45.79608" lon="5.29217">
        <ele>231.4</ele>
        <time>2023-05-27T07:11:06Z</time>
      </trkpt>
      <trkpt lat="45.79616" lon="5.29223">
        <ele>231.4</ele>
        <time>2023-05-27T07:11:07Z</time>
      </trkpt>
      <trkpt lat="45.79623" lon="5.29228">
        <ele>231.2</ele>
        <time>2023-05-27T07:11:08Z</time>
      </trkpt>
      <trkpt lat="45.79631" lon="5.29234">
        <ele>231.2</ele>
        <time>2023-05-27T07:11:09Z</time>
      </trkpt>
      <trkpt lat="45.7964" lon="5.2924">
        <ele>231</ele>
        <time>2023-05-27T07:11:10Z</time>
      </trkpt>
      <trkpt lat="45.79655" lon="5.29253">
        <ele>230.8</ele>
        <time>2023-05-27T07:11:12Z</time>
      </trkpt>
      <trkpt lat="45.79661" lon="5.29259">
        <ele>230.8</ele>
        <time>2023-05-27T07:11:13Z</time>
      </trkpt>
      <trkpt lat="45.79667" lon="5.29266">
        <ele>230.6</ele>
        <time>2023-05-27T07:11:14Z</time>
      </trkpt>
      <trkpt lat="45.79673" lon="5.29272">
        <ele>230.6</ele>
        <time>2023-05-27T07:11:15Z</time>
      </trkpt>
      <trkpt lat="45.79678" lon="5.29278">
        <ele>230.6</ele>
        <time>2023-05-27T07:11:16Z</time>
      </trkpt>
      <trkpt lat="45.79684" lon="5.29283">
        <ele>230.6</ele>
        <time>2023-05-27T07:11:17Z</time>
      </trkpt>
      <trkpt lat="45.7969" lon="5.29287">
        <ele>230.6</ele>
        <time>2023-05-27T07:11:18Z</time>
      </trkpt>
      <trkpt lat="45.79696" lon="5.2929">
        <ele>230.6</ele>
        <time>2023-05-27T07:11:19Z</time>
      </trkpt>
      <trkpt lat="45.79701" lon="5.29294">
        <ele>230.6</ele>
        <time>2023-05-27T07:11:20Z</time>
      </trkpt>
      <trkpt lat="45.79705" lon="5.29299">
        <ele>230.6</ele>
        <time>2023-05-27T07:11:21Z</time>
      </trkpt>
      <trkpt lat="45.79707" lon="5.29306">
        <ele>230.6</ele>
        <time>2023-05-27T07:11:22Z</time>
      </trkpt>
      <trkpt lat="45.79711" lon="5.29324">
        <ele>230.6</ele>
        <time>2023-05-27T07:11:24Z</time>
      </trkpt>
      <trkpt lat="45.79714" lon="5.29334">
        <ele>230.6</ele>
        <time>2023-05-27T07:11:25Z</time>
      </trkpt>
      <trkpt lat="45.79717" lon="5.29344">
        <ele>230.4</ele>
        <time>2023-05-27T07:11:26Z</time>
      </trkpt>
      <trkpt lat="45.7972" lon="5.29355">
        <ele>230.4</ele>
        <time>2023-05-27T07:11:27Z</time>
      </trkpt>
      <trkpt lat="45.79722" lon="5.29368">
        <ele>230</ele>
        <time>2023-05-27T07:11:28Z</time>
      </trkpt>
      <trkpt lat="45.79724" lon="5.29381">
        <ele>229.8</ele>
        <time>2023-05-27T07:11:29Z</time>
      </trkpt>
      <trkpt lat="45.79725" lon="5.29394">
        <ele>229.4</ele>
        <time>2023-05-27T07:11:30Z</time>
      </trkpt>
      <trkpt lat="45.79725" lon="5.29409">
        <ele>229.2</ele>
        <time>2023-05-27T07:11:31Z</time>
      </trkpt>
      <trkpt lat="45.79726" lon="5.29423">
        <ele>229</ele>
        <time>2023-05-27T07:11:32Z</time>
      </trkpt>
      <trkpt lat="45.79727" lon="5.29436">
        <ele>228.4</ele>
        <time>2023-05-27T07:11:33Z</time>
      </trkpt>
      <trkpt lat="45.79728" lon="5.29446">
        <ele>228.2</ele>
        <time>2023-05-27T07:11:34Z</time>
      </trkpt>
      <trkpt lat="45.79731" lon="5.2946">
        <ele>227.6</ele>
        <time>2023-05-27T07:11:35Z</time>
      </trkpt>
      <trkpt lat="45.79735" lon="5.29471">
        <ele>227</ele>
        <time>2023-05-27T07:11:36Z</time>
      </trkpt>
      <trkpt lat="45.7974" lon="5.29482">
        <ele>226.6</ele>
        <time>2023-05-27T07:11:37Z</time>
      </trkpt>
      <trkpt lat="45.79746" lon="5.29492">
        <ele>226</ele>
        <time>2023-05-27T07:11:38Z</time>
      </trkpt>
      <trkpt lat="45.79751" lon="5.29502">
        <ele>225.6</ele>
        <time>2023-05-27T07:11:39Z</time>
      </trkpt>
      <trkpt lat="45.79762" lon="5.29517">
        <ele>224.6</ele>
        <time>2023-05-27T07:11:41Z</time>
      </trkpt>
      <trkpt lat="45.79766" lon="5.29524">
        <ele>223.8</ele>
        <time>2023-05-27T07:11:42Z</time>
      </trkpt>
      <trkpt lat="45.7977" lon="5.29531">
        <ele>223</ele>
        <time>2023-05-27T07:11:43Z</time>
      </trkpt>
      <trkpt lat="45.79772" lon="5.29538">
        <ele>222.8</ele>
        <time>2023-05-27T07:11:44Z</time>
      </trkpt>
      <trkpt lat="45.79774" lon="5.29549">
        <ele>222.2</ele>
        <time>2023-05-27T07:11:45Z</time>
      </trkpt>
      <trkpt lat="45.79777" lon="5.29559">
        <ele>222</ele>
        <time>2023-05-27T07:11:46Z</time>
      </trkpt>
      <trkpt lat="45.79779" lon="5.29569">
        <ele>221.6</ele>
        <time>2023-05-27T07:11:47Z</time>
      </trkpt>
      <trkpt lat="45.79782" lon="5.29579">
        <ele>221.4</ele>
        <time>2023-05-27T07:11:48Z</time>
      </trkpt>
      <trkpt lat="45.79785" lon="5.29588">
        <ele>220.6</ele>
        <time>2023-05-27T07:11:49Z</time>
      </trkpt>
      <trkpt lat="45.79788" lon="5.29598">
        <ele>220</ele>
        <time>2023-05-27T07:11:50Z</time>
      </trkpt>
      <trkpt lat="45.79791" lon="5.29607">
        <ele>219.8</ele>
        <time>2023-05-27T07:11:51Z</time>
      </trkpt>
      <trkpt lat="45.79794" lon="5.29616">
        <ele>219.4</ele>
        <time>2023-05-27T07:11:52Z</time>
      </trkpt>
      <trkpt lat="45.79798" lon="5.29626">
        <ele>219.2</ele>
        <time>2023-05-27T07:11:53Z</time>
      </trkpt>
      <trkpt lat="45.79801" lon="5.29635">
        <ele>218.6</ele>
        <time>2023-05-27T07:11:54Z</time>
      </trkpt>
      <trkpt lat="45.79804" lon="5.29644">
        <ele>218.4</ele>
        <time>2023-05-27T07:11:55Z</time>
      </trkpt>
      <trkpt lat="45.79808" lon="5.29653">
        <ele>218.2</ele>
        <time>2023-05-27T07:11:56Z</time>
      </trkpt>
      <trkpt lat="45.79812" lon="5.29662">
        <ele>218</ele>
        <time>2023-05-27T07:11:57Z</time>
      </trkpt>
      <trkpt lat="45.79816" lon="5.29672">
        <ele>218</ele>
        <time>2023-05-27T07:11:58Z</time>
      </trkpt>
      <trkpt lat="45.7982" lon="5.29681">
        <ele>217.8</ele>
        <time>2023-05-27T07:11:59Z</time>
      </trkpt>
      <trkpt lat="45.79824" lon="5.29689">
        <ele>217.8</ele>
        <time>2023-05-27T07:12:00Z</time>
      </trkpt>
      <trkpt lat="45.79829" lon="5.29698">
        <ele>217.4</ele>
        <time>2023-05-27T07:12:01Z</time>
      </trkpt>
      <trkpt lat="45.79833" lon="5.29707">
        <ele>217.4</ele>
        <time>2023-05-27T07:12:02Z</time>
      </trkpt>
      <trkpt lat="45.79837" lon="5.29717">
        <ele>217.4</ele>
        <time>2023-05-27T07:12:03Z</time>
      </trkpt>
      <trkpt lat="45.7984" lon="5.29726">
        <ele>217.2</ele>
        <time>2023-05-27T07:12:04Z</time>
      </trkpt>
      <trkpt lat="45.79844" lon="5.29735">
        <ele>217</ele>
        <time>2023-05-27T07:12:05Z</time>
      </trkpt>
      <trkpt lat="45.79847" lon="5.29744">
        <ele>216.8</ele>
        <time>2023-05-27T07:12:06Z</time>
      </trkpt>
      <trkpt lat="45.7985" lon="5.29753">
        <ele>216.8</ele>
        <time>2023-05-27T07:12:07Z</time>
      </trkpt>
      <trkpt lat="45.79854" lon="5.29763">
        <ele>216.6</ele>
        <time>2023-05-27T07:12:08Z</time>
      </trkpt>
      <trkpt lat="45.79857" lon="5.29773">
        <ele>216.6</ele>
        <time>2023-05-27T07:12:09Z</time>
      </trkpt>
      <trkpt lat="45.7986" lon="5.29783">
        <ele>216.6</ele>
        <time>2023-05-27T07:12:10Z</time>
      </trkpt>
      <trkpt lat="45.79863" lon="5.29793">
        <ele>216.6</ele>
        <time>2023-05-27T07:12:11Z</time>
      </trkpt>
      <trkpt lat="45.79866" lon="5.29803">
        <ele>216.6</ele>
        <time>2023-05-27T07:12:12Z</time>
      </trkpt>
      <trkpt lat="45.79869" lon="5.29813">
        <ele>216.4</ele>
        <time>2023-05-27T07:12:13Z</time>
      </trkpt>
      <trkpt lat="45.79874" lon="5.29833">
        <ele>216.4</ele>
        <time>2023-05-27T07:12:15Z</time>
      </trkpt>
      <trkpt lat="45.79876" lon="5.29843">
        <ele>216.2</ele>
        <time>2023-05-27T07:12:16Z</time>
      </trkpt>
      <trkpt lat="45.79878" lon="5.29853">
        <ele>216.2</ele>
        <time>2023-05-27T07:12:17Z</time>
      </trkpt>
      <trkpt lat="45.7988" lon="5.29864">
        <ele>216.2</ele>
        <time>2023-05-27T07:12:18Z</time>
      </trkpt>
      <trkpt lat="45.79882" lon="5.29874">
        <ele>216.2</ele>
        <time>2023-05-27T07:12:19Z</time>
      </trkpt>
      <trkpt lat="45.79884" lon="5.29884">
        <ele>216.2</ele>
        <time>2023-05-27T07:12:20Z</time>
      </trkpt>
      <trkpt lat="45.79885" lon="5.29895">
        <ele>216.2</ele>
        <time>2023-05-27T07:12:21Z</time>
      </trkpt>
      <trkpt lat="45.79887" lon="5.29905">
        <ele>216.2</ele>
        <time>2023-05-27T07:12:22Z</time>
      </trkpt>
      <trkpt lat="45.79888" lon="5.29916">
        <ele>216.2</ele>
        <time>2023-05-27T07:12:23Z</time>
      </trkpt>
      <trkpt lat="45.79889" lon="5.29927">
        <ele>216.2</ele>
        <time>2023-05-27T07:12:24Z</time>
      </trkpt>
      <trkpt lat="45.79889" lon="5.29938">
        <ele>216.2</ele>
        <time>2023-05-27T07:12:25Z</time>
      </trkpt>
      <trkpt lat="45.79889" lon="5.29949">
        <ele>216.2</ele>
        <time>2023-05-27T07:12:26Z</time>
      </trkpt>
      <trkpt lat="45.79888" lon="5.2996">
        <ele>216</ele>
        <time>2023-05-27T07:12:27Z</time>
      </trkpt>
      <trkpt lat="45.79886" lon="5.29971">
        <ele>216</ele>
        <time>2023-05-27T07:12:28Z</time>
      </trkpt>
      <trkpt lat="45.79884" lon="5.29981">
        <ele>216</ele>
        <time>2023-05-27T07:12:29Z</time>
      </trkpt>
      <trkpt lat="45.79881" lon="5.2999">
        <ele>216</ele>
        <time>2023-05-27T07:12:30Z</time>
      </trkpt>
      <trkpt lat="45.79878" lon="5.29998">
        <ele>216</ele>
        <time>2023-05-27T07:12:31Z</time>
      </trkpt>
      <trkpt lat="45.79876" lon="5.30007">
        <ele>215.8</ele>
        <time>2023-05-27T07:12:32Z</time>
      </trkpt>
      <trkpt lat="45.79875" lon="5.30017">
        <ele>215.6</ele>
        <time>2023-05-27T07:12:33Z</time>
      </trkpt>
      <trkpt lat="45.79875" lon="5.30025">
        <ele>215.4</ele>
        <time>2023-05-27T07:12:34Z</time>
      </trkpt>
      <trkpt lat="45.79874" lon="5.30037">
        <ele>215.2</ele>
        <time>2023-05-27T07:12:35Z</time>
      </trkpt>
      <trkpt lat="45.79875" lon="5.30047">
        <ele>215</ele>
        <time>2023-05-27T07:12:36Z</time>
      </trkpt>
      <trkpt lat="45.79876" lon="5.30058">
        <ele>215</ele>
        <time>2023-05-27T07:12:37Z</time>
      </trkpt>
      <trkpt lat="45.79877" lon="5.30068">
        <ele>215</ele>
        <time>2023-05-27T07:12:38Z</time>
      </trkpt>
      <trkpt lat="45.79879" lon="5.30078">
        <ele>215</ele>
        <time>2023-05-27T07:12:39Z</time>
      </trkpt>
      <trkpt lat="45.79881" lon="5.30088">
        <ele>215</ele>
        <time>2023-05-27T07:12:40Z</time>
      </trkpt>
      <trkpt lat="45.79883" lon="5.30098">
        <ele>215</ele>
        <time>2023-05-27T07:12:41Z</time>
      </trkpt>
      <trkpt lat="45.79885" lon="5.30108">
        <ele>214.8</ele>
        <time>2023-05-27T07:12:42Z</time>
      </trkpt>
      <trkpt lat="45.79887" lon="5.30117">
        <ele>214.8</ele>
        <time>2023-05-27T07:12:43Z</time>
      </trkpt>
      <trkpt lat="45.7989" lon="5.30124">
        <ele>214.8</ele>
        <time>2023-05-27T07:12:44Z</time>
      </trkpt>
      <trkpt lat="45.79895" lon="5.30131">
        <ele>214.8</ele>
        <time>2023-05-27T07:12:45Z</time>
      </trkpt>
      <trkpt lat="45.79901" lon="5.30137">
        <ele>214.8</ele>
        <time>2023-05-27T07:12:46Z</time>
      </trkpt>
      <trkpt lat="45.79906" lon="5.30142">
        <ele>214.8</ele>
        <time>2023-05-27T07:12:47Z</time>
      </trkpt>
      <trkpt lat="45.79912" lon="5.30147">
        <ele>214.8</ele>
        <time>2023-05-27T07:12:48Z</time>
      </trkpt>
      <trkpt lat="45.79918" lon="5.30152">
        <ele>215</ele>
        <time>2023-05-27T07:12:49Z</time>
      </trkpt>
      <trkpt lat="45.79924" lon="5.30156">
        <ele>215</ele>
        <time>2023-05-27T07:12:50Z</time>
      </trkpt>
      <trkpt lat="45.7993" lon="5.30159">
        <ele>215</ele>
        <time>2023-05-27T07:12:51Z</time>
      </trkpt>
      <trkpt lat="45.79936" lon="5.30163">
        <ele>215.2</ele>
        <time>2023-05-27T07:12:52Z</time>
      </trkpt>
      <trkpt lat="45.79942" lon="5.30167">
        <ele>215.2</ele>
        <time>2023-05-27T07:12:53Z</time>
      </trkpt>
      <trkpt lat="45.79948" lon="5.3017">
        <ele>215.4</ele>
        <time>2023-05-27T07:12:54Z</time>
      </trkpt>
      <trkpt lat="45.79957" lon="5.30173">
        <ele>215.4</ele>
        <time>2023-05-27T07:12:55Z</time>
      </trkpt>
      <trkpt lat="45.79966" lon="5.30176">
        <ele>215.4</ele>
        <time>2023-05-27T07:12:56Z</time>
      </trkpt>
      <trkpt lat="45.79977" lon="5.30179">
        <ele>215.6</ele>
        <time>2023-05-27T07:12:57Z</time>
      </trkpt>
      <trkpt lat="45.79983" lon="5.30181">
        <ele>215.6</ele>
        <time>2023-05-27T07:12:58Z</time>
      </trkpt>
      <trkpt lat="45.79992" lon="5.30184">
        <ele>215.6</ele>
        <time>2023-05-27T07:12:59Z</time>
      </trkpt>
      <trkpt lat="45.79999" lon="5.30187">
        <ele>215.8</ele>
        <time>2023-05-27T07:13:00Z</time>
      </trkpt>
      <trkpt lat="45.80007" lon="5.30189">
        <ele>215.8</ele>
        <time>2023-05-27T07:13:01Z</time>
      </trkpt>
      <trkpt lat="45.80015" lon="5.30192">
        <ele>215.8</ele>
        <time>2023-05-27T07:13:02Z</time>
      </trkpt>
      <trkpt lat="45.80023" lon="5.30193">
        <ele>215.8</ele>
        <time>2023-05-27T07:13:03Z</time>
      </trkpt>
      <trkpt lat="45.80032" lon="5.30193">
        <ele>215.8</ele>
        <time>2023-05-27T07:13:04Z</time>
      </trkpt>
      <trkpt lat="45.80041" lon="5.30193">
        <ele>215.6</ele>
        <time>2023-05-27T07:13:05Z</time>
      </trkpt>
      <trkpt lat="45.8005" lon="5.30193">
        <ele>215.4</ele>
        <time>2023-05-27T07:13:06Z</time>
      </trkpt>
      <trkpt lat="45.80059" lon="5.30192">
        <ele>215.4</ele>
        <time>2023-05-27T07:13:07Z</time>
      </trkpt>
      <trkpt lat="45.80068" lon="5.30191">
        <ele>215</ele>
        <time>2023-05-27T07:13:08Z</time>
      </trkpt>
      <trkpt lat="45.80078" lon="5.30189">
        <ele>214.8</ele>
        <time>2023-05-27T07:13:09Z</time>
      </trkpt>
      <trkpt lat="45.80087" lon="5.30188">
        <ele>214.4</ele>
        <time>2023-05-27T07:13:10Z</time>
      </trkpt>
      <trkpt lat="45.80095" lon="5.30185">
        <ele>214.2</ele>
        <time>2023-05-27T07:13:11Z</time>
      </trkpt>
      <trkpt lat="45.80104" lon="5.30183">
        <ele>214</ele>
        <time>2023-05-27T07:13:12Z</time>
      </trkpt>
      <trkpt lat="45.80112" lon="5.30181">
        <ele>213.8</ele>
        <time>2023-05-27T07:13:13Z</time>
      </trkpt>
      <trkpt lat="45.8012" lon="5.30178">
        <ele>213.6</ele>
        <time>2023-05-27T07:13:14Z</time>
      </trkpt>
      <trkpt lat="45.80128" lon="5.30174">
        <ele>213.4</ele>
        <time>2023-05-27T07:13:15Z</time>
      </trkpt>
      <trkpt lat="45.80137" lon="5.30171">
        <ele>213.4</ele>
        <time>2023-05-27T07:13:16Z</time>
      </trkpt>
      <trkpt lat="45.80145" lon="5.30169">
        <ele>213.2</ele>
        <time>2023-05-27T07:13:17Z</time>
      </trkpt>
      <trkpt lat="45.80153" lon="5.30167">
        <ele>213.2</ele>
        <time>2023-05-27T07:13:18Z</time>
      </trkpt>
      <trkpt lat="45.80162" lon="5.30164">
        <ele>213</ele>
        <time>2023-05-27T07:13:19Z</time>
      </trkpt>
      <trkpt lat="45.80171" lon="5.30161">
        <ele>212.8</ele>
        <time>2023-05-27T07:13:20Z</time>
      </trkpt>
      <trkpt lat="45.80179" lon="5.30159">
        <ele>212.6</ele>
        <time>2023-05-27T07:13:21Z</time>
      </trkpt>
      <trkpt lat="45.80186" lon="5.30156">
        <ele>212.4</ele>
        <time>2023-05-27T07:13:22Z</time>
      </trkpt>
      <trkpt lat="45.80194" lon="5.30154">
        <ele>212.4</ele>
        <time>2023-05-27T07:13:23Z</time>
      </trkpt>
      <trkpt lat="45.80202" lon="5.30152">
        <ele>212.2</ele>
        <time>2023-05-27T07:13:24Z</time>
      </trkpt>
      <trkpt lat="45.8021" lon="5.30149">
        <ele>212.2</ele>
        <time>2023-05-27T07:13:25Z</time>
      </trkpt>
      <trkpt lat="45.80218" lon="5.30147">
        <ele>212.2</ele>
        <time>2023-05-27T07:13:26Z</time>
      </trkpt>
      <trkpt lat="45.80226" lon="5.30145">
        <ele>212.2</ele>
        <time>2023-05-27T07:13:27Z</time>
      </trkpt>
      <trkpt lat="45.80234" lon="5.30143">
        <ele>212.2</ele>
        <time>2023-05-27T07:13:28Z</time>
      </trkpt>
      <trkpt lat="45.80242" lon="5.30141">
        <ele>212.4</ele>
        <time>2023-05-27T07:13:29Z</time>
      </trkpt>
      <trkpt lat="45.8025" lon="5.3014">
        <ele>212.4</ele>
        <time>2023-05-27T07:13:30Z</time>
      </trkpt>
      <trkpt lat="45.80258" lon="5.3014">
        <ele>212.4</ele>
        <time>2023-05-27T07:13:31Z</time>
      </trkpt>
      <trkpt lat="45.80266" lon="5.30139">
        <ele>212.6</ele>
        <time>2023-05-27T07:13:32Z</time>
      </trkpt>
      <trkpt lat="45.80274" lon="5.30139">
        <ele>212.6</ele>
        <time>2023-05-27T07:13:33Z</time>
      </trkpt>
      <trkpt lat="45.80282" lon="5.30138">
        <ele>212.8</ele>
        <time>2023-05-27T07:13:34Z</time>
      </trkpt>
      <trkpt lat="45.8029" lon="5.30138">
        <ele>212.8</ele>
        <time>2023-05-27T07:13:35Z</time>
      </trkpt>
      <trkpt lat="45.80299" lon="5.30137">
        <ele>213</ele>
        <time>2023-05-27T07:13:36Z</time>
      </trkpt>
      <trkpt lat="45.80306" lon="5.30137">
        <ele>213</ele>
        <time>2023-05-27T07:13:37Z</time>
      </trkpt>
      <trkpt lat="45.80314" lon="5.30136">
        <ele>213</ele>
        <time>2023-05-27T07:13:38Z</time>
      </trkpt>
      <trkpt lat="45.80322" lon="5.30136">
        <ele>213.2</ele>
        <time>2023-05-27T07:13:39Z</time>
      </trkpt>
      <trkpt lat="45.8033" lon="5.30135">
        <ele>213.2</ele>
        <time>2023-05-27T07:13:40Z</time>
      </trkpt>
      <trkpt lat="45.80338" lon="5.30134">
        <ele>213.2</ele>
        <time>2023-05-27T07:13:41Z</time>
      </trkpt>
      <trkpt lat="45.80347" lon="5.30134">
        <ele>213.2</ele>
        <time>2023-05-27T07:13:42Z</time>
      </trkpt>
      <trkpt lat="45.80355" lon="5.30134">
        <ele>213.4</ele>
        <time>2023-05-27T07:13:43Z</time>
      </trkpt>
      <trkpt lat="45.80362" lon="5.30133">
        <ele>213.4</ele>
        <time>2023-05-27T07:13:44Z</time>
      </trkpt>
      <trkpt lat="45.8037" lon="5.30133">
        <ele>213.4</ele>
        <time>2023-05-27T07:13:45Z</time>
      </trkpt>
      <trkpt lat="45.80378" lon="5.30132">
        <ele>213.4</ele>
        <time>2023-05-27T07:13:46Z</time>
      </trkpt>
      <trkpt lat="45.80385" lon="5.30132">
        <ele>213.4</ele>
        <time>2023-05-27T07:13:47Z</time>
      </trkpt>
      <trkpt lat="45.80393" lon="5.30132">
        <ele>213.4</ele>
        <time>2023-05-27T07:13:48Z</time>
      </trkpt>
      <trkpt lat="45.804" lon="5.30133">
        <ele>213.6</ele>
        <time>2023-05-27T07:13:49Z</time>
      </trkpt>
      <trkpt lat="45.80408" lon="5.30135">
        <ele>213.8</ele>
        <time>2023-05-27T07:13:50Z</time>
      </trkpt>
      <trkpt lat="45.80415" lon="5.30136">
        <ele>213.8</ele>
        <time>2023-05-27T07:13:51Z</time>
      </trkpt>
      <trkpt lat="45.80423" lon="5.30138">
        <ele>213.8</ele>
        <time>2023-05-27T07:13:52Z</time>
      </trkpt>
      <trkpt lat="45.8043" lon="5.3014">
        <ele>213.8</ele>
        <time>2023-05-27T07:13:53Z</time>
      </trkpt>
      <trkpt lat="45.80438" lon="5.30143">
        <ele>213.8</ele>
        <time>2023-05-27T07:13:54Z</time>
      </trkpt>
      <trkpt lat="45.80445" lon="5.30145">
        <ele>214</ele>
        <time>2023-05-27T07:13:55Z</time>
      </trkpt>
      <trkpt lat="45.80452" lon="5.30147">
        <ele>214</ele>
        <time>2023-05-27T07:13:56Z</time>
      </trkpt>
      <trkpt lat="45.8046" lon="5.30149">
        <ele>214</ele>
        <time>2023-05-27T07:13:57Z</time>
      </trkpt>
      <trkpt lat="45.80467" lon="5.30151">
        <ele>214</ele>
        <time>2023-05-27T07:13:58Z</time>
      </trkpt>
      <trkpt lat="45.80475" lon="5.30154">
        <ele>214.2</ele>
        <time>2023-05-27T07:13:59Z</time>
      </trkpt>
      <trkpt lat="45.80483" lon="5.30156">
        <ele>214.2</ele>
        <time>2023-05-27T07:14:00Z</time>
      </trkpt>
      <trkpt lat="45.8049" lon="5.30159">
        <ele>214</ele>
        <time>2023-05-27T07:14:01Z</time>
      </trkpt>
      <trkpt lat="45.80498" lon="5.30162">
        <ele>214</ele>
        <time>2023-05-27T07:14:02Z</time>
      </trkpt>
      <trkpt lat="45.80506" lon="5.30164">
        <ele>214</ele>
        <time>2023-05-27T07:14:03Z</time>
      </trkpt>
      <trkpt lat="45.80514" lon="5.30167">
        <ele>214</ele>
        <time>2023-05-27T07:14:04Z</time>
      </trkpt>
      <trkpt lat="45.80523" lon="5.3017">
        <ele>214.2</ele>
        <time>2023-05-27T07:14:05Z</time>
      </trkpt>
      <trkpt lat="45.8053" lon="5.30172">
        <ele>214</ele>
        <time>2023-05-27T07:14:06Z</time>
      </trkpt>
      <trkpt lat="45.80538" lon="5.30175">
        <ele>214</ele>
        <time>2023-05-27T07:14:07Z</time>
      </trkpt>
      <trkpt lat="45.80547" lon="5.30178">
        <ele>214</ele>
        <time>2023-05-27T07:14:08Z</time>
      </trkpt>
      <trkpt lat="45.80555" lon="5.3018">
        <ele>214</ele>
        <time>2023-05-27T07:14:09Z</time>
      </trkpt>
      <trkpt lat="45.80563" lon="5.30183">
        <ele>214</ele>
        <time>2023-05-27T07:14:10Z</time>
      </trkpt>
      <trkpt lat="45.80571" lon="5.30185">
        <ele>214</ele>
        <time>2023-05-27T07:14:11Z</time>
      </trkpt>
      <trkpt lat="45.80579" lon="5.30188">
        <ele>213.8</ele>
        <time>2023-05-27T07:14:12Z</time>
      </trkpt>
      <trkpt lat="45.80587" lon="5.30191">
        <ele>213.8</ele>
        <time>2023-05-27T07:14:13Z</time>
      </trkpt>
      <trkpt lat="45.80595" lon="5.30193">
        <ele>213.6</ele>
        <time>2023-05-27T07:14:14Z</time>
      </trkpt>
      <trkpt lat="45.80603" lon="5.30196">
        <ele>213.6</ele>
        <time>2023-05-27T07:14:15Z</time>
      </trkpt>
      <trkpt lat="45.80611" lon="5.30199">
        <ele>213.2</ele>
        <time>2023-05-27T07:14:16Z</time>
      </trkpt>
      <trkpt lat="45.80619" lon="5.30202">
        <ele>213.2</ele>
        <time>2023-05-27T07:14:17Z</time>
      </trkpt>
      <trkpt lat="45.80627" lon="5.30204">
        <ele>213</ele>
        <time>2023-05-27T07:14:18Z</time>
      </trkpt>
      <trkpt lat="45.80634" lon="5.30207">
        <ele>213</ele>
        <time>2023-05-27T07:14:19Z</time>
      </trkpt>
      <trkpt lat="45.80642" lon="5.30209">
        <ele>213</ele>
        <time>2023-05-27T07:14:20Z</time>
      </trkpt>
      <trkpt lat="45.8065" lon="5.30212">
        <ele>213</ele>
        <time>2023-05-27T07:14:21Z</time>
      </trkpt>
      <trkpt lat="45.80657" lon="5.30214">
        <ele>213.2</ele>
        <time>2023-05-27T07:14:22Z</time>
      </trkpt>
      <trkpt lat="45.80665" lon="5.30217">
        <ele>213.2</ele>
        <time>2023-05-27T07:14:23Z</time>
      </trkpt>
      <trkpt lat="45.80672" lon="5.30219">
        <ele>213.4</ele>
        <time>2023-05-27T07:14:24Z</time>
      </trkpt>
      <trkpt lat="45.8068" lon="5.30222">
        <ele>213.4</ele>
        <time>2023-05-27T07:14:25Z</time>
      </trkpt>
      <trkpt lat="45.80688" lon="5.30224">
        <ele>213.4</ele>
        <time>2023-05-27T07:14:26Z</time>
      </trkpt>
      <trkpt lat="45.80695" lon="5.30227">
        <ele>213.4</ele>
        <time>2023-05-27T07:14:27Z</time>
      </trkpt>
      <trkpt lat="45.80703" lon="5.30229">
        <ele>213.6</ele>
        <time>2023-05-27T07:14:28Z</time>
      </trkpt>
      <trkpt lat="45.80711" lon="5.30232">
        <ele>213.4</ele>
        <time>2023-05-27T07:14:29Z</time>
      </trkpt>
      <trkpt lat="45.80718" lon="5.30234">
        <ele>213.4</ele>
        <time>2023-05-27T07:14:30Z</time>
      </trkpt>
      <trkpt lat="45.80733" lon="5.30238">
        <ele>213.4</ele>
        <time>2023-05-27T07:14:32Z</time>
      </trkpt>
      <trkpt lat="45.8074" lon="5.3024">
        <ele>213.2</ele>
        <time>2023-05-27T07:14:33Z</time>
      </trkpt>
      <trkpt lat="45.80747" lon="5.30242">
        <ele>213</ele>
        <time>2023-05-27T07:14:34Z</time>
      </trkpt>
      <trkpt lat="45.80753" lon="5.30244">
        <ele>213</ele>
        <time>2023-05-27T07:14:35Z</time>
      </trkpt>
      <trkpt lat="45.8076" lon="5.30245">
        <ele>212.8</ele>
        <time>2023-05-27T07:14:36Z</time>
      </trkpt>
      <trkpt lat="45.80767" lon="5.30246">
        <ele>212.8</ele>
        <time>2023-05-27T07:14:37Z</time>
      </trkpt>
      <trkpt lat="45.8078" lon="5.3025">
        <ele>212.6</ele>
        <time>2023-05-27T07:14:39Z</time>
      </trkpt>
      <trkpt lat="45.80787" lon="5.30251">
        <ele>212.6</ele>
        <time>2023-05-27T07:14:40Z</time>
      </trkpt>
      <trkpt lat="45.80793" lon="5.30251">
        <ele>212.6</ele>
        <time>2023-05-27T07:14:41Z</time>
      </trkpt>
      <trkpt lat="45.80799" lon="5.30252">
        <ele>212.6</ele>
        <time>2023-05-27T07:14:42Z</time>
      </trkpt>
      <trkpt lat="45.80806" lon="5.30254">
        <ele>212.6</ele>
        <time>2023-05-27T07:14:43Z</time>
      </trkpt>
      <trkpt lat="45.80812" lon="5.30255">
        <ele>212.6</ele>
        <time>2023-05-27T07:14:44Z</time>
      </trkpt>
      <trkpt lat="45.80824" lon="5.30259">
        <ele>212.6</ele>
        <time>2023-05-27T07:14:46Z</time>
      </trkpt>
      <trkpt lat="45.80831" lon="5.3026">
        <ele>212.6</ele>
        <time>2023-05-27T07:14:47Z</time>
      </trkpt>
      <trkpt lat="45.80837" lon="5.30262">
        <ele>212.6</ele>
        <time>2023-05-27T07:14:48Z</time>
      </trkpt>
      <trkpt lat="45.8085" lon="5.30266">
        <ele>212.6</ele>
        <time>2023-05-27T07:14:50Z</time>
      </trkpt>
      <trkpt lat="45.80857" lon="5.30269">
        <ele>212.6</ele>
        <time>2023-05-27T07:14:51Z</time>
      </trkpt>
      <trkpt lat="45.80864" lon="5.30272">
        <ele>212.6</ele>
        <time>2023-05-27T07:14:52Z</time>
      </trkpt>
      <trkpt lat="45.8087" lon="5.30272">
        <ele>212.4</ele>
        <time>2023-05-27T07:14:53Z</time>
      </trkpt>
      <trkpt lat="45.80877" lon="5.3027">
        <ele>212.4</ele>
        <time>2023-05-27T07:14:54Z</time>
      </trkpt>
      <trkpt lat="45.80882" lon="5.30266">
        <ele>212.4</ele>
        <time>2023-05-27T07:14:55Z</time>
      </trkpt>
      <trkpt lat="45.80886" lon="5.30258">
        <ele>212.4</ele>
        <time>2023-05-27T07:14:56Z</time>
      </trkpt>
      <trkpt lat="45.8089" lon="5.30249">
        <ele>212.4</ele>
        <time>2023-05-27T07:14:57Z</time>
      </trkpt>
      <trkpt lat="45.80893" lon="5.30239">
        <ele>212.2</ele>
        <time>2023-05-27T07:14:58Z</time>
      </trkpt>
      <trkpt lat="45.80897" lon="5.3023">
        <ele>212.2</ele>
        <time>2023-05-27T07:14:59Z</time>
      </trkpt>
      <trkpt lat="45.80901" lon="5.3022">
        <ele>212.2</ele>
        <time>2023-05-27T07:15:00Z</time>
      </trkpt>
      <trkpt lat="45.80906" lon="5.3021">
        <ele>212.2</ele>
        <time>2023-05-27T07:15:01Z</time>
      </trkpt>
      <trkpt lat="45.80911" lon="5.302">
        <ele>212.2</ele>
        <time>2023-05-27T07:15:02Z</time>
      </trkpt>
      <trkpt lat="45.80916" lon="5.30192">
        <ele>212.4</ele>
        <time>2023-05-27T07:15:03Z</time>
      </trkpt>
      <trkpt lat="45.80923" lon="5.30184">
        <ele>212.4</ele>
        <time>2023-05-27T07:15:04Z</time>
      </trkpt>
      <trkpt lat="45.80929" lon="5.30178">
        <ele>212.4</ele>
        <time>2023-05-27T07:15:05Z</time>
      </trkpt>
      <trkpt lat="45.80936" lon="5.30172">
        <ele>212.4</ele>
        <time>2023-05-27T07:15:06Z</time>
      </trkpt>
      <trkpt lat="45.80943" lon="5.30167">
        <ele>212.4</ele>
        <time>2023-05-27T07:15:07Z</time>
      </trkpt>
      <trkpt lat="45.80949" lon="5.3016">
        <ele>212.6</ele>
        <time>2023-05-27T07:15:08Z</time>
      </trkpt>
      <trkpt lat="45.80955" lon="5.30153">
        <ele>212.6</ele>
        <time>2023-05-27T07:15:09Z</time>
      </trkpt>
      <trkpt lat="45.80962" lon="5.30145">
        <ele>212.8</ele>
        <time>2023-05-27T07:15:10Z</time>
      </trkpt>
      <trkpt lat="45.80968" lon="5.30137">
        <ele>212.8</ele>
        <time>2023-05-27T07:15:11Z</time>
      </trkpt>
      <trkpt lat="45.80975" lon="5.30128">
        <ele>212.8</ele>
        <time>2023-05-27T07:15:13Z</time>
      </trkpt>
      <trkpt lat="45.80979" lon="5.30121">
        <ele>213</ele>
        <time>2023-05-27T07:15:14Z</time>
      </trkpt>
      <trkpt lat="45.80985" lon="5.30112">
        <ele>213</ele>
        <time>2023-05-27T07:15:15Z</time>
      </trkpt>
      <trkpt lat="45.80991" lon="5.30101">
        <ele>213.2</ele>
        <time>2023-05-27T07:15:16Z</time>
      </trkpt>
      <trkpt lat="45.80995" lon="5.30094">
        <ele>213.6</ele>
        <time>2023-05-27T07:15:17Z</time>
      </trkpt>
      <trkpt lat="45.80999" lon="5.30085">
        <ele>213.6</ele>
        <time>2023-05-27T07:15:18Z</time>
      </trkpt>
      <trkpt lat="45.81003" lon="5.30075">
        <ele>213.8</ele>
        <time>2023-05-27T07:15:19Z</time>
      </trkpt>
      <trkpt lat="45.81007" lon="5.30065">
        <ele>214</ele>
        <time>2023-05-27T07:15:20Z</time>
      </trkpt>
      <trkpt lat="45.81011" lon="5.30055">
        <ele>214.2</ele>
        <time>2023-05-27T07:15:21Z</time>
      </trkpt>
      <trkpt lat="45.81014" lon="5.30045">
        <ele>214.2</ele>
        <time>2023-05-27T07:15:22Z</time>
      </trkpt>
      <trkpt lat="45.81018" lon="5.30035">
        <ele>214.4</ele>
        <time>2023-05-27T07:15:23Z</time>
      </trkpt>
      <trkpt lat="45.81021" lon="5.30025">
        <ele>214.4</ele>
        <time>2023-05-27T07:15:24Z</time>
      </trkpt>
      <trkpt lat="45.81025" lon="5.30015">
        <ele>214.4</ele>
        <time>2023-05-27T07:15:25Z</time>
      </trkpt>
      <trkpt lat="45.81029" lon="5.30005">
        <ele>214.4</ele>
        <time>2023-05-27T07:15:26Z</time>
      </trkpt>
      <trkpt lat="45.81035" lon="5.29994">
        <ele>214.4</ele>
        <time>2023-05-27T07:15:27Z</time>
      </trkpt>
      <trkpt lat="45.81039" lon="5.29986">
        <ele>214.4</ele>
        <time>2023-05-27T07:15:28Z</time>
      </trkpt>
      <trkpt lat="45.81043" lon="5.29977">
        <ele>214.4</ele>
        <time>2023-05-27T07:15:29Z</time>
      </trkpt>
      <trkpt lat="45.81048" lon="5.29967">
        <ele>214.4</ele>
        <time>2023-05-27T07:15:30Z</time>
      </trkpt>
      <trkpt lat="45.81054" lon="5.29957">
        <ele>214.4</ele>
        <time>2023-05-27T07:15:31Z</time>
      </trkpt>
      <trkpt lat="45.81059" lon="5.29948">
        <ele>214.4</ele>
        <time>2023-05-27T07:15:32Z</time>
      </trkpt>
      <trkpt lat="45.81065" lon="5.29939">
        <ele>214.6</ele>
        <time>2023-05-27T07:15:33Z</time>
      </trkpt>
      <trkpt lat="45.8107" lon="5.2993">
        <ele>214.6</ele>
        <time>2023-05-27T07:15:34Z</time>
      </trkpt>
      <trkpt lat="45.81076" lon="5.29921">
        <ele>214.6</ele>
        <time>2023-05-27T07:15:35Z</time>
      </trkpt>
      <trkpt lat="45.81081" lon="5.29912">
        <ele>214.6</ele>
        <time>2023-05-27T07:15:36Z</time>
      </trkpt>
      <trkpt lat="45.81087" lon="5.29903">
        <ele>214.8</ele>
        <time>2023-05-27T07:15:37Z</time>
      </trkpt>
      <trkpt lat="45.81093" lon="5.29894">
        <ele>214.8</ele>
        <time>2023-05-27T07:15:38Z</time>
      </trkpt>
      <trkpt lat="45.81098" lon="5.29885">
        <ele>214.8</ele>
        <time>2023-05-27T07:15:39Z</time>
      </trkpt>
      <trkpt lat="45.81104" lon="5.29875">
        <ele>215</ele>
        <time>2023-05-27T07:15:40Z</time>
      </trkpt>
      <trkpt lat="45.81109" lon="5.29866">
        <ele>215</ele>
        <time>2023-05-27T07:15:41Z</time>
      </trkpt>
      <trkpt lat="45.81115" lon="5.29856">
        <ele>215</ele>
        <time>2023-05-27T07:15:42Z</time>
      </trkpt>
      <trkpt lat="45.81121" lon="5.29847">
        <ele>215</ele>
        <time>2023-05-27T07:15:43Z</time>
      </trkpt>
      <trkpt lat="45.81126" lon="5.29838">
        <ele>215</ele>
        <time>2023-05-27T07:15:44Z</time>
      </trkpt>
      <trkpt lat="45.81132" lon="5.29828">
        <ele>215</ele>
        <time>2023-05-27T07:15:45Z</time>
      </trkpt>
      <trkpt lat="45.81137" lon="5.29819">
        <ele>215</ele>
        <time>2023-05-27T07:15:46Z</time>
      </trkpt>
      <trkpt lat="45.81142" lon="5.29809">
        <ele>215</ele>
        <time>2023-05-27T07:15:47Z</time>
      </trkpt>
      <trkpt lat="45.81148" lon="5.29801">
        <ele>214.8</ele>
        <time>2023-05-27T07:15:48Z</time>
      </trkpt>
      <trkpt lat="45.81154" lon="5.29794">
        <ele>214.8</ele>
        <time>2023-05-27T07:15:49Z</time>
      </trkpt>
      <trkpt lat="45.81161" lon="5.2979">
        <ele>214.8</ele>
        <time>2023-05-27T07:15:50Z</time>
      </trkpt>
      <trkpt lat="45.81169" lon="5.2979">
        <ele>214.6</ele>
        <time>2023-05-27T07:15:51Z</time>
      </trkpt>
      <trkpt lat="45.81177" lon="5.29794">
        <ele>214.4</ele>
        <time>2023-05-27T07:15:52Z</time>
      </trkpt>
      <trkpt lat="45.81184" lon="5.29801">
        <ele>214.2</ele>
        <time>2023-05-27T07:15:53Z</time>
      </trkpt>
      <trkpt lat="45.8119" lon="5.2981">
        <ele>214.2</ele>
        <time>2023-05-27T07:15:54Z</time>
      </trkpt>
      <trkpt lat="45.81195" lon="5.29819">
        <ele>214</ele>
        <time>2023-05-27T07:15:55Z</time>
      </trkpt>
      <trkpt lat="45.81201" lon="5.29828">
        <ele>213.8</ele>
        <time>2023-05-27T07:15:56Z</time>
      </trkpt>
      <trkpt lat="45.81207" lon="5.29837">
        <ele>213.6</ele>
        <time>2023-05-27T07:15:57Z</time>
      </trkpt>
      <trkpt lat="45.81212" lon="5.29846">
        <ele>213.4</ele>
        <time>2023-05-27T07:15:58Z</time>
      </trkpt>
      <trkpt lat="45.81217" lon="5.29856">
        <ele>213.2</ele>
        <time>2023-05-27T07:15:59Z</time>
      </trkpt>
      <trkpt lat="45.81222" lon="5.29866">
        <ele>213</ele>
        <time>2023-05-27T07:16:00Z</time>
      </trkpt>
      <trkpt lat="45.81226" lon="5.29876">
        <ele>213</ele>
        <time>2023-05-27T07:16:01Z</time>
      </trkpt>
      <trkpt lat="45.8123" lon="5.29885">
        <ele>213</ele>
        <time>2023-05-27T07:16:02Z</time>
      </trkpt>
      <trkpt lat="45.81235" lon="5.29894">
        <ele>212.8</ele>
        <time>2023-05-27T07:16:03Z</time>
      </trkpt>
      <trkpt lat="45.81241" lon="5.29903">
        <ele>212.8</ele>
        <time>2023-05-27T07:16:04Z</time>
      </trkpt>
      <trkpt lat="45.81248" lon="5.29906">
        <ele>212.6</ele>
        <time>2023-05-27T07:16:05Z</time>
      </trkpt>
      <trkpt lat="45.81254" lon="5.29906">
        <ele>212.6</ele>
        <time>2023-05-27T07:16:06Z</time>
      </trkpt>
      <trkpt lat="45.8126" lon="5.29903">
        <ele>212.4</ele>
        <time>2023-05-27T07:16:07Z</time>
      </trkpt>
      <trkpt lat="45.81266" lon="5.299">
        <ele>212.4</ele>
        <time>2023-05-27T07:16:08Z</time>
      </trkpt>
      <trkpt lat="45.81273" lon="5.29896">
        <ele>212.4</ele>
        <time>2023-05-27T07:16:09Z</time>
      </trkpt>
      <trkpt lat="45.81278" lon="5.29891">
        <ele>212.4</ele>
        <time>2023-05-27T07:16:10Z</time>
      </trkpt>
      <trkpt lat="45.81284" lon="5.29885">
        <ele>212.2</ele>
        <time>2023-05-27T07:16:11Z</time>
      </trkpt>
      <trkpt lat="45.81287" lon="5.29877">
        <ele>212.2</ele>
        <time>2023-05-27T07:16:12Z</time>
      </trkpt>
      <trkpt lat="45.81289" lon="5.29867">
        <ele>212.2</ele>
        <time>2023-05-27T07:16:13Z</time>
      </trkpt>
      <trkpt lat="45.81292" lon="5.29855">
        <ele>212.2</ele>
        <time>2023-05-27T07:16:14Z</time>
      </trkpt>
      <trkpt lat="45.81296" lon="5.29847">
        <ele>212.2</ele>
        <time>2023-05-27T07:16:15Z</time>
      </trkpt>
      <trkpt lat="45.813" lon="5.29838">
        <ele>212.2</ele>
        <time>2023-05-27T07:16:16Z</time>
      </trkpt>
      <trkpt lat="45.81305" lon="5.29829">
        <ele>212.2</ele>
        <time>2023-05-27T07:16:17Z</time>
      </trkpt>
      <trkpt lat="45.8131" lon="5.2982">
        <ele>212.2</ele>
        <time>2023-05-27T07:16:18Z</time>
      </trkpt>
      <trkpt lat="45.81315" lon="5.29811">
        <ele>212.2</ele>
        <time>2023-05-27T07:16:19Z</time>
      </trkpt>
      <trkpt lat="45.81319" lon="5.29803">
        <ele>212.2</ele>
        <time>2023-05-27T07:16:20Z</time>
      </trkpt>
      <trkpt lat="45.81322" lon="5.29793">
        <ele>212.2</ele>
        <time>2023-05-27T07:16:21Z</time>
      </trkpt>
      <trkpt lat="45.81326" lon="5.29784">
        <ele>212.2</ele>
        <time>2023-05-27T07:16:22Z</time>
      </trkpt>
      <trkpt lat="45.81329" lon="5.29774">
        <ele>212.2</ele>
        <time>2023-05-27T07:16:23Z</time>
      </trkpt>
      <trkpt lat="45.81332" lon="5.29765">
        <ele>212.2</ele>
        <time>2023-05-27T07:16:24Z</time>
      </trkpt>
      <trkpt lat="45.81336" lon="5.29755">
        <ele>212</ele>
        <time>2023-05-27T07:16:25Z</time>
      </trkpt>
      <trkpt lat="45.81339" lon="5.29746">
        <ele>212.2</ele>
        <time>2023-05-27T07:16:26Z</time>
      </trkpt>
      <trkpt lat="45.81343" lon="5.29736">
        <ele>212.2</ele>
        <time>2023-05-27T07:16:27Z</time>
      </trkpt>
      <trkpt lat="45.81347" lon="5.29727">
        <ele>212.2</ele>
        <time>2023-05-27T07:16:28Z</time>
      </trkpt>
      <trkpt lat="45.8135" lon="5.29717">
        <ele>212.2</ele>
        <time>2023-05-27T07:16:29Z</time>
      </trkpt>
      <trkpt lat="45.81353" lon="5.29707">
        <ele>212.2</ele>
        <time>2023-05-27T07:16:30Z</time>
      </trkpt>
      <trkpt lat="45.81357" lon="5.29697">
        <ele>212.2</ele>
        <time>2023-05-27T07:16:31Z</time>
      </trkpt>
      <trkpt lat="45.8136" lon="5.29687">
        <ele>212.2</ele>
        <time>2023-05-27T07:16:32Z</time>
      </trkpt>
      <trkpt lat="45.81364" lon="5.29677">
        <ele>212.4</ele>
        <time>2023-05-27T07:16:33Z</time>
      </trkpt>
      <trkpt lat="45.81367" lon="5.29667">
        <ele>212.4</ele>
        <time>2023-05-27T07:16:34Z</time>
      </trkpt>
      <trkpt lat="45.81371" lon="5.29657">
        <ele>212.6</ele>
        <time>2023-05-27T07:16:35Z</time>
      </trkpt>
      <trkpt lat="45.81374" lon="5.29647">
        <ele>212.6</ele>
        <time>2023-05-27T07:16:36Z</time>
      </trkpt>
      <trkpt lat="45.81378" lon="5.29635">
        <ele>212.6</ele>
        <time>2023-05-27T07:16:37Z</time>
      </trkpt>
      <trkpt lat="45.81381" lon="5.29628">
        <ele>212.6</ele>
        <time>2023-05-27T07:16:38Z</time>
      </trkpt>
      <trkpt lat="45.81385" lon="5.29618">
        <ele>212.6</ele>
        <time>2023-05-27T07:16:39Z</time>
      </trkpt>
      <trkpt lat="45.81388" lon="5.29607">
        <ele>212.6</ele>
        <time>2023-05-27T07:16:40Z</time>
      </trkpt>
      <trkpt lat="45.81392" lon="5.29597">
        <ele>212.6</ele>
        <time>2023-05-27T07:16:41Z</time>
      </trkpt>
      <trkpt lat="45.81395" lon="5.29587">
        <ele>212.8</ele>
        <time>2023-05-27T07:16:42Z</time>
      </trkpt>
      <trkpt lat="45.81399" lon="5.29577">
        <ele>213</ele>
        <time>2023-05-27T07:16:43Z</time>
      </trkpt>
      <trkpt lat="45.81403" lon="5.29567">
        <ele>213</ele>
        <time>2023-05-27T07:16:44Z</time>
      </trkpt>
      <trkpt lat="45.81407" lon="5.29557">
        <ele>213</ele>
        <time>2023-05-27T07:16:45Z</time>
      </trkpt>
      <trkpt lat="45.81411" lon="5.29547">
        <ele>213.2</ele>
        <time>2023-05-27T07:16:46Z</time>
      </trkpt>
      <trkpt lat="45.81415" lon="5.29538">
        <ele>213.2</ele>
        <time>2023-05-27T07:16:47Z</time>
      </trkpt>
      <trkpt lat="45.81421" lon="5.2953">
        <ele>213.2</ele>
        <time>2023-05-27T07:16:48Z</time>
      </trkpt>
      <trkpt lat="45.81427" lon="5.29524">
        <ele>213.2</ele>
        <time>2023-05-27T07:16:49Z</time>
      </trkpt>
      <trkpt lat="45.81435" lon="5.29521">
        <ele>213.2</ele>
        <time>2023-05-27T07:16:50Z</time>
      </trkpt>
      <trkpt lat="45.81443" lon="5.29521">
        <ele>213</ele>
        <time>2023-05-27T07:16:51Z</time>
      </trkpt>
      <trkpt lat="45.81451" lon="5.29524">
        <ele>213</ele>
        <time>2023-05-27T07:16:52Z</time>
      </trkpt>
      <trkpt lat="45.81459" lon="5.29529">
        <ele>212.8</ele>
        <time>2023-05-27T07:16:53Z</time>
      </trkpt>
      <trkpt lat="45.81466" lon="5.29534">
        <ele>212.8</ele>
        <time>2023-05-27T07:16:54Z</time>
      </trkpt>
      <trkpt lat="45.81473" lon="5.29541">
        <ele>212.6</ele>
        <time>2023-05-27T07:16:55Z</time>
      </trkpt>
      <trkpt lat="45.8148" lon="5.29547">
        <ele>212.4</ele>
        <time>2023-05-27T07:16:56Z</time>
      </trkpt>
      <trkpt lat="45.81488" lon="5.29553">
        <ele>212.4</ele>
        <time>2023-05-27T07:16:57Z</time>
      </trkpt>
      <trkpt lat="45.81495" lon="5.2956">
        <ele>212.2</ele>
        <time>2023-05-27T07:16:58Z</time>
      </trkpt>
      <trkpt lat="45.81502" lon="5.29567">
        <ele>212.2</ele>
        <time>2023-05-27T07:16:59Z</time>
      </trkpt>
      <trkpt lat="45.81509" lon="5.29574">
        <ele>211.8</ele>
        <time>2023-05-27T07:17:00Z</time>
      </trkpt>
      <trkpt lat="45.81516" lon="5.29581">
        <ele>211.6</ele>
        <time>2023-05-27T07:17:01Z</time>
      </trkpt>
      <trkpt lat="45.81523" lon="5.29588">
        <ele>211.6</ele>
        <time>2023-05-27T07:17:02Z</time>
      </trkpt>
      <trkpt lat="45.8153" lon="5.29595">
        <ele>211.4</ele>
        <time>2023-05-27T07:17:03Z</time>
      </trkpt>
      <trkpt lat="45.81536" lon="5.29602">
        <ele>211.4</ele>
        <time>2023-05-27T07:17:04Z</time>
      </trkpt>
      <trkpt lat="45.81542" lon="5.2961">
        <ele>211.4</ele>
        <time>2023-05-27T07:17:05Z</time>
      </trkpt>
      <trkpt lat="45.81549" lon="5.29617">
        <ele>211.4</ele>
        <time>2023-05-27T07:17:06Z</time>
      </trkpt>
      <trkpt lat="45.81555" lon="5.29625">
        <ele>211.4</ele>
        <time>2023-05-27T07:17:07Z</time>
      </trkpt>
      <trkpt lat="45.81561" lon="5.29633">
        <ele>211.4</ele>
        <time>2023-05-27T07:17:08Z</time>
      </trkpt>
      <trkpt lat="45.81568" lon="5.29641">
        <ele>211.2</ele>
        <time>2023-05-27T07:17:09Z</time>
      </trkpt>
      <trkpt lat="45.81574" lon="5.29649">
        <ele>211.2</ele>
        <time>2023-05-27T07:17:10Z</time>
      </trkpt>
      <trkpt lat="45.8158" lon="5.29657">
        <ele>211.2</ele>
        <time>2023-05-27T07:17:11Z</time>
      </trkpt>
      <trkpt lat="45.81586" lon="5.29665">
        <ele>211.2</ele>
        <time>2023-05-27T07:17:12Z</time>
      </trkpt>
      <trkpt lat="45.81593" lon="5.29673">
        <ele>211.2</ele>
        <time>2023-05-27T07:17:13Z</time>
      </trkpt>
      <trkpt lat="45.81599" lon="5.2968">
        <ele>211</ele>
        <time>2023-05-27T07:17:14Z</time>
      </trkpt>
      <trkpt lat="45.81607" lon="5.29686">
        <ele>211</ele>
        <time>2023-05-27T07:17:15Z</time>
      </trkpt>
      <trkpt lat="45.81614" lon="5.29691">
        <ele>210.8</ele>
        <time>2023-05-27T07:17:16Z</time>
      </trkpt>
      <trkpt lat="45.81622" lon="5.29695">
        <ele>210.8</ele>
        <time>2023-05-27T07:17:17Z</time>
      </trkpt>
      <trkpt lat="45.8163" lon="5.29696">
        <ele>210.8</ele>
        <time>2023-05-27T07:17:18Z</time>
      </trkpt>
      <trkpt lat="45.81638" lon="5.29697">
        <ele>210.6</ele>
        <time>2023-05-27T07:17:19Z</time>
      </trkpt>
      <trkpt lat="45.81647" lon="5.29697">
        <ele>210.4</ele>
        <time>2023-05-27T07:17:20Z</time>
      </trkpt>
      <trkpt lat="45.81655" lon="5.29698">
        <ele>210.4</ele>
        <time>2023-05-27T07:17:21Z</time>
      </trkpt>
      <trkpt lat="45.81663" lon="5.29699">
        <ele>210.4</ele>
        <time>2023-05-27T07:17:22Z</time>
      </trkpt>
      <trkpt lat="45.81672" lon="5.297">
        <ele>210.2</ele>
        <time>2023-05-27T07:17:23Z</time>
      </trkpt>
      <trkpt lat="45.8168" lon="5.29703">
        <ele>210.2</ele>
        <time>2023-05-27T07:17:24Z</time>
      </trkpt>
      <trkpt lat="45.81688" lon="5.29707">
        <ele>210.2</ele>
        <time>2023-05-27T07:17:25Z</time>
      </trkpt>
      <trkpt lat="45.81695" lon="5.29712">
        <ele>210.2</ele>
        <time>2023-05-27T07:17:26Z</time>
      </trkpt>
      <trkpt lat="45.81702" lon="5.29719">
        <ele>210.2</ele>
        <time>2023-05-27T07:17:27Z</time>
      </trkpt>
      <trkpt lat="45.81709" lon="5.29725">
        <ele>210.2</ele>
        <time>2023-05-27T07:17:28Z</time>
      </trkpt>
      <trkpt lat="45.81716" lon="5.29732">
        <ele>210.2</ele>
        <time>2023-05-27T07:17:29Z</time>
      </trkpt>
      <trkpt lat="45.81723" lon="5.29739">
        <ele>210.2</ele>
        <time>2023-05-27T07:17:30Z</time>
      </trkpt>
      <trkpt lat="45.8173" lon="5.29746">
        <ele>210.2</ele>
        <time>2023-05-27T07:17:31Z</time>
      </trkpt>
      <trkpt lat="45.81736" lon="5.29754">
        <ele>210.2</ele>
        <time>2023-05-27T07:17:32Z</time>
      </trkpt>
      <trkpt lat="45.81743" lon="5.29761">
        <ele>210.2</ele>
        <time>2023-05-27T07:17:33Z</time>
      </trkpt>
      <trkpt lat="45.81749" lon="5.29768">
        <ele>210.4</ele>
        <time>2023-05-27T07:17:34Z</time>
      </trkpt>
      <trkpt lat="45.81756" lon="5.29775">
        <ele>210.4</ele>
        <time>2023-05-27T07:17:35Z</time>
      </trkpt>
      <trkpt lat="45.81764" lon="5.29781">
        <ele>210.4</ele>
        <time>2023-05-27T07:17:36Z</time>
      </trkpt>
      <trkpt lat="45.81772" lon="5.29786">
        <ele>210.4</ele>
        <time>2023-05-27T07:17:37Z</time>
      </trkpt>
      <trkpt lat="45.8178" lon="5.29788">
        <ele>210.4</ele>
        <time>2023-05-27T07:17:38Z</time>
      </trkpt>
      <trkpt lat="45.81787" lon="5.29789">
        <ele>210.4</ele>
        <time>2023-05-27T07:17:39Z</time>
      </trkpt>
      <trkpt lat="45.81798" lon="5.29789">
        <ele>210.4</ele>
        <time>2023-05-27T07:17:40Z</time>
      </trkpt>
      <trkpt lat="45.81807" lon="5.29788">
        <ele>210.4</ele>
        <time>2023-05-27T07:17:41Z</time>
      </trkpt>
      <trkpt lat="45.81816" lon="5.29787">
        <ele>210.4</ele>
        <time>2023-05-27T07:17:42Z</time>
      </trkpt>
      <trkpt lat="45.81826" lon="5.29786">
        <ele>210.2</ele>
        <time>2023-05-27T07:17:43Z</time>
      </trkpt>
      <trkpt lat="45.81836" lon="5.29785">
        <ele>210.2</ele>
        <time>2023-05-27T07:17:44Z</time>
      </trkpt>
      <trkpt lat="45.81846" lon="5.29785">
        <ele>210</ele>
        <time>2023-05-27T07:17:45Z</time>
      </trkpt>
      <trkpt lat="45.81855" lon="5.29784">
        <ele>209.8</ele>
        <time>2023-05-27T07:17:46Z</time>
      </trkpt>
      <trkpt lat="45.81865" lon="5.29783">
        <ele>209.6</ele>
        <time>2023-05-27T07:17:47Z</time>
      </trkpt>
      <trkpt lat="45.81873" lon="5.29783">
        <ele>209.4</ele>
        <time>2023-05-27T07:17:48Z</time>
      </trkpt>
      <trkpt lat="45.81885" lon="5.29783">
        <ele>209.2</ele>
        <time>2023-05-27T07:17:49Z</time>
      </trkpt>
      <trkpt lat="45.81895" lon="5.29783">
        <ele>209</ele>
        <time>2023-05-27T07:17:50Z</time>
      </trkpt>
      <trkpt lat="45.81905" lon="5.29783">
        <ele>209</ele>
        <time>2023-05-27T07:17:51Z</time>
      </trkpt>
      <trkpt lat="45.81913" lon="5.29783">
        <ele>208.8</ele>
        <time>2023-05-27T07:17:52Z</time>
      </trkpt>
      <trkpt lat="45.81926" lon="5.29783">
        <ele>208.2</ele>
        <time>2023-05-27T07:17:53Z</time>
      </trkpt>
      <trkpt lat="45.81933" lon="5.29782">
        <ele>208</ele>
        <time>2023-05-27T07:17:54Z</time>
      </trkpt>
      <trkpt lat="45.81945" lon="5.29782">
        <ele>207.6</ele>
        <time>2023-05-27T07:17:55Z</time>
      </trkpt>
      <trkpt lat="45.81955" lon="5.29781">
        <ele>207.6</ele>
        <time>2023-05-27T07:17:56Z</time>
      </trkpt>
      <trkpt lat="45.81964" lon="5.29779">
        <ele>207.2</ele>
        <time>2023-05-27T07:17:57Z</time>
      </trkpt>
      <trkpt lat="45.81973" lon="5.29777">
        <ele>207.2</ele>
        <time>2023-05-27T07:17:58Z</time>
      </trkpt>
      <trkpt lat="45.81983" lon="5.29776">
        <ele>207</ele>
        <time>2023-05-27T07:17:59Z</time>
      </trkpt>
      <trkpt lat="45.81992" lon="5.29774">
        <ele>206.8</ele>
        <time>2023-05-27T07:18:00Z</time>
      </trkpt>
      <trkpt lat="45.82001" lon="5.29772">
        <ele>206.8</ele>
        <time>2023-05-27T07:18:01Z</time>
      </trkpt>
      <trkpt lat="45.8201" lon="5.2977">
        <ele>206.6</ele>
        <time>2023-05-27T07:18:02Z</time>
      </trkpt>
      <trkpt lat="45.82019" lon="5.29768">
        <ele>206.4</ele>
        <time>2023-05-27T07:18:03Z</time>
      </trkpt>
      <trkpt lat="45.82028" lon="5.29766">
        <ele>206.2</ele>
        <time>2023-05-27T07:18:04Z</time>
      </trkpt>
      <trkpt lat="45.82037" lon="5.29764">
        <ele>206.2</ele>
        <time>2023-05-27T07:18:05Z</time>
      </trkpt>
      <trkpt lat="45.82045" lon="5.29762">
        <ele>206</ele>
        <time>2023-05-27T07:18:06Z</time>
      </trkpt>
      <trkpt lat="45.82054" lon="5.29759">
        <ele>205.8</ele>
        <time>2023-05-27T07:18:07Z</time>
      </trkpt>
      <trkpt lat="45.82064" lon="5.29757">
        <ele>205.6</ele>
        <time>2023-05-27T07:18:08Z</time>
      </trkpt>
      <trkpt lat="45.82073" lon="5.29755">
        <ele>205.4</ele>
        <time>2023-05-27T07:18:09Z</time>
      </trkpt>
      <trkpt lat="45.82082" lon="5.29752">
        <ele>205.2</ele>
        <time>2023-05-27T07:18:10Z</time>
      </trkpt>
      <trkpt lat="45.82091" lon="5.29748">
        <ele>205.2</ele>
        <time>2023-05-27T07:18:11Z</time>
      </trkpt>
      <trkpt lat="45.821" lon="5.29743">
        <ele>205</ele>
        <time>2023-05-27T07:18:12Z</time>
      </trkpt>
      <trkpt lat="45.8211" lon="5.29738">
        <ele>205</ele>
        <time>2023-05-27T07:18:13Z</time>
      </trkpt>
      <trkpt lat="45.82119" lon="5.29732">
        <ele>204.8</ele>
        <time>2023-05-27T07:18:14Z</time>
      </trkpt>
      <trkpt lat="45.82129" lon="5.29726">
        <ele>204.8</ele>
        <time>2023-05-27T07:18:15Z</time>
      </trkpt>
      <trkpt lat="45.82138" lon="5.29719">
        <ele>204.6</ele>
        <time>2023-05-27T07:18:16Z</time>
      </trkpt>
      <trkpt lat="45.82148" lon="5.29712">
        <ele>204.6</ele>
        <time>2023-05-27T07:18:17Z</time>
      </trkpt>
      <trkpt lat="45.82157" lon="5.29706">
        <ele>204.4</ele>
        <time>2023-05-27T07:18:18Z</time>
      </trkpt>
      <trkpt lat="45.82167" lon="5.297">
        <ele>204</ele>
        <time>2023-05-27T07:18:19Z</time>
      </trkpt>
      <trkpt lat="45.82176" lon="5.29694">
        <ele>203.6</ele>
        <time>2023-05-27T07:18:20Z</time>
      </trkpt>
      <trkpt lat="45.82186" lon="5.29689">
        <ele>203.4</ele>
        <time>2023-05-27T07:18:21Z</time>
      </trkpt>
      <trkpt lat="45.82195" lon="5.29685">
        <ele>203</ele>
        <time>2023-05-27T07:18:22Z</time>
      </trkpt>
      <trkpt lat="45.82205" lon="5.29684">
        <ele>202.8</ele>
        <time>2023-05-27T07:18:23Z</time>
      </trkpt>
      <trkpt lat="45.82215" lon="5.29684">
        <ele>202.4</ele>
        <time>2023-05-27T07:18:24Z</time>
      </trkpt>
      <trkpt lat="45.82225" lon="5.29687">
        <ele>202</ele>
        <time>2023-05-27T07:18:25Z</time>
      </trkpt>
      <trkpt lat="45.82234" lon="5.29693">
        <ele>201.8</ele>
        <time>2023-05-27T07:18:26Z</time>
      </trkpt>
      <trkpt lat="45.82243" lon="5.297">
        <ele>201.6</ele>
        <time>2023-05-27T07:18:27Z</time>
      </trkpt>
      <trkpt lat="45.82252" lon="5.29707">
        <ele>201.4</ele>
        <time>2023-05-27T07:18:28Z</time>
      </trkpt>
      <trkpt lat="45.82261" lon="5.29715">
        <ele>201.4</ele>
        <time>2023-05-27T07:18:29Z</time>
      </trkpt>
      <trkpt lat="45.82269" lon="5.29723">
        <ele>201.2</ele>
        <time>2023-05-27T07:18:30Z</time>
      </trkpt>
      <trkpt lat="45.82277" lon="5.29731">
        <ele>201</ele>
        <time>2023-05-27T07:18:31Z</time>
      </trkpt>
      <trkpt lat="45.82285" lon="5.29739">
        <ele>200.6</ele>
        <time>2023-05-27T07:18:32Z</time>
      </trkpt>
      <trkpt lat="45.82293" lon="5.29746">
        <ele>200.2</ele>
        <time>2023-05-27T07:18:33Z</time>
      </trkpt>
      <trkpt lat="45.82301" lon="5.29754">
        <ele>200</ele>
        <time>2023-05-27T07:18:34Z</time>
      </trkpt>
      <trkpt lat="45.82308" lon="5.29761">
        <ele>199.8</ele>
        <time>2023-05-27T07:18:35Z</time>
      </trkpt>
      <trkpt lat="45.82316" lon="5.29769">
        <ele>199.6</ele>
        <time>2023-05-27T07:18:36Z</time>
      </trkpt>
      <trkpt lat="45.82323" lon="5.29776">
        <ele>199.4</ele>
        <time>2023-05-27T07:18:37Z</time>
      </trkpt>
      <trkpt lat="45.8233" lon="5.29783">
        <ele>199.4</ele>
        <time>2023-05-27T07:18:38Z</time>
      </trkpt>
      <trkpt lat="45.82337" lon="5.29789">
        <ele>199.2</ele>
        <time>2023-05-27T07:18:39Z</time>
      </trkpt>
      <trkpt lat="45.82345" lon="5.29795">
        <ele>199.2</ele>
        <time>2023-05-27T07:18:40Z</time>
      </trkpt>
      <trkpt lat="45.82353" lon="5.29802">
        <ele>199.2</ele>
        <time>2023-05-27T07:18:41Z</time>
      </trkpt>
      <trkpt lat="45.8236" lon="5.29807">
        <ele>199.2</ele>
        <time>2023-05-27T07:18:42Z</time>
      </trkpt>
      <trkpt lat="45.82368" lon="5.29813">
        <ele>199.2</ele>
        <time>2023-05-27T07:18:43Z</time>
      </trkpt>
      <trkpt lat="45.82375" lon="5.29818">
        <ele>199</ele>
        <time>2023-05-27T07:18:44Z</time>
      </trkpt>
      <trkpt lat="45.82383" lon="5.29823">
        <ele>199</ele>
        <time>2023-05-27T07:18:45Z</time>
      </trkpt>
      <trkpt lat="45.82391" lon="5.29828">
        <ele>199.2</ele>
        <time>2023-05-27T07:18:46Z</time>
      </trkpt>
      <trkpt lat="45.82398" lon="5.29832">
        <ele>199.2</ele>
        <time>2023-05-27T07:18:47Z</time>
      </trkpt>
      <trkpt lat="45.82406" lon="5.29834">
        <ele>199.4</ele>
        <time>2023-05-27T07:18:48Z</time>
      </trkpt>
      <trkpt lat="45.82414" lon="5.29834">
        <ele>199.4</ele>
        <time>2023-05-27T07:18:49Z</time>
      </trkpt>
      <trkpt lat="45.82423" lon="5.29833">
        <ele>199.4</ele>
        <time>2023-05-27T07:18:50Z</time>
      </trkpt>
      <trkpt lat="45.82432" lon="5.29831">
        <ele>199.4</ele>
        <time>2023-05-27T07:18:51Z</time>
      </trkpt>
      <trkpt lat="45.82441" lon="5.29829">
        <ele>199.6</ele>
        <time>2023-05-27T07:18:52Z</time>
      </trkpt>
      <trkpt lat="45.82449" lon="5.29825">
        <ele>199.6</ele>
        <time>2023-05-27T07:18:53Z</time>
      </trkpt>
      <trkpt lat="45.82457" lon="5.29818">
        <ele>199.6</ele>
        <time>2023-05-27T07:18:54Z</time>
      </trkpt>
      <trkpt lat="45.82464" lon="5.29811">
        <ele>199.6</ele>
        <time>2023-05-27T07:18:55Z</time>
      </trkpt>
      <trkpt lat="45.82471" lon="5.29802">
        <ele>199.6</ele>
        <time>2023-05-27T07:18:56Z</time>
      </trkpt>
      <trkpt lat="45.82477" lon="5.29793">
        <ele>199.6</ele>
        <time>2023-05-27T07:18:57Z</time>
      </trkpt>
      <trkpt lat="45.82483" lon="5.29785">
        <ele>199.6</ele>
        <time>2023-05-27T07:18:58Z</time>
      </trkpt>
      <trkpt lat="45.8249" lon="5.29777">
        <ele>199.4</ele>
        <time>2023-05-27T07:18:59Z</time>
      </trkpt>
      <trkpt lat="45.82497" lon="5.29772">
        <ele>199.4</ele>
        <time>2023-05-27T07:19:00Z</time>
      </trkpt>
      <trkpt lat="45.82505" lon="5.29768">
        <ele>199.4</ele>
        <time>2023-05-27T07:19:01Z</time>
      </trkpt>
      <trkpt lat="45.82513" lon="5.29767">
        <ele>199.4</ele>
        <time>2023-05-27T07:19:02Z</time>
      </trkpt>
      <trkpt lat="45.82521" lon="5.29767">
        <ele>199.4</ele>
        <time>2023-05-27T07:19:03Z</time>
      </trkpt>
      <trkpt lat="45.82529" lon="5.29769">
        <ele>199.4</ele>
        <time>2023-05-27T07:19:04Z</time>
      </trkpt>
      <trkpt lat="45.82538" lon="5.29771">
        <ele>199.2</ele>
        <time>2023-05-27T07:19:05Z</time>
      </trkpt>
      <trkpt lat="45.82546" lon="5.29774">
        <ele>199.2</ele>
        <time>2023-05-27T07:19:06Z</time>
      </trkpt>
      <trkpt lat="45.82554" lon="5.29777">
        <ele>199</ele>
        <time>2023-05-27T07:19:07Z</time>
      </trkpt>
      <trkpt lat="45.82562" lon="5.2978">
        <ele>199</ele>
        <time>2023-05-27T07:19:08Z</time>
      </trkpt>
      <trkpt lat="45.8257" lon="5.29783">
        <ele>199</ele>
        <time>2023-05-27T07:19:09Z</time>
      </trkpt>
      <trkpt lat="45.82578" lon="5.29786">
        <ele>199</ele>
        <time>2023-05-27T07:19:10Z</time>
      </trkpt>
      <trkpt lat="45.82585" lon="5.29789">
        <ele>199</ele>
        <time>2023-05-27T07:19:11Z</time>
      </trkpt>
      <trkpt lat="45.82593" lon="5.29792">
        <ele>198.8</ele>
        <time>2023-05-27T07:19:12Z</time>
      </trkpt>
      <trkpt lat="45.826" lon="5.29794">
        <ele>198.8</ele>
        <time>2023-05-27T07:19:13Z</time>
      </trkpt>
      <trkpt lat="45.82607" lon="5.29797">
        <ele>198.6</ele>
        <time>2023-05-27T07:19:14Z</time>
      </trkpt>
      <trkpt lat="45.82615" lon="5.298">
        <ele>198.4</ele>
        <time>2023-05-27T07:19:15Z</time>
      </trkpt>
      <trkpt lat="45.82622" lon="5.29802">
        <ele>198.4</ele>
        <time>2023-05-27T07:19:16Z</time>
      </trkpt>
      <trkpt lat="45.82629" lon="5.29805">
        <ele>198.4</ele>
        <time>2023-05-27T07:19:17Z</time>
      </trkpt>
      <trkpt lat="45.82639" lon="5.29809">
        <ele>198.6</ele>
        <time>2023-05-27T07:19:18Z</time>
      </trkpt>
      <trkpt lat="45.82644" lon="5.29812">
        <ele>198.8</ele>
        <time>2023-05-27T07:19:19Z</time>
      </trkpt>
      <trkpt lat="45.82652" lon="5.29816">
        <ele>198.8</ele>
        <time>2023-05-27T07:19:20Z</time>
      </trkpt>
      <trkpt lat="45.82658" lon="5.29819">
        <ele>198.8</ele>
        <time>2023-05-27T07:19:21Z</time>
      </trkpt>
      <trkpt lat="45.82665" lon="5.29823">
        <ele>198.6</ele>
        <time>2023-05-27T07:19:22Z</time>
      </trkpt>
      <trkpt lat="45.82671" lon="5.29827">
        <ele>198.4</ele>
        <time>2023-05-27T07:19:23Z</time>
      </trkpt>
      <trkpt lat="45.82677" lon="5.29831">
        <ele>198.8</ele>
        <time>2023-05-27T07:19:24Z</time>
      </trkpt>
      <trkpt lat="45.82683" lon="5.29835">
        <ele>198.8</ele>
        <time>2023-05-27T07:19:25Z</time>
      </trkpt>
      <trkpt lat="45.82689" lon="5.29839">
        <ele>198.8</ele>
        <time>2023-05-27T07:19:26Z</time>
      </trkpt>
      <trkpt lat="45.82697" lon="5.29843">
        <ele>199</ele>
        <time>2023-05-27T07:19:27Z</time>
      </trkpt>
      <trkpt lat="45.82702" lon="5.29844">
        <ele>199</ele>
        <time>2023-05-27T07:19:28Z</time>
      </trkpt>
      <trkpt lat="45.82709" lon="5.29847">
        <ele>199.2</ele>
        <time>2023-05-27T07:19:29Z</time>
      </trkpt>
      <trkpt lat="45.82715" lon="5.29848">
        <ele>199.4</ele>
        <time>2023-05-27T07:19:30Z</time>
      </trkpt>
      <trkpt lat="45.82722" lon="5.2985">
        <ele>199.8</ele>
        <time>2023-05-27T07:19:31Z</time>
      </trkpt>
      <trkpt lat="45.82728" lon="5.29852">
        <ele>200</ele>
        <time>2023-05-27T07:19:32Z</time>
      </trkpt>
      <trkpt lat="45.82734" lon="5.29854">
        <ele>200.2</ele>
        <time>2023-05-27T07:19:33Z</time>
      </trkpt>
      <trkpt lat="45.82741" lon="5.29856">
        <ele>200.4</ele>
        <time>2023-05-27T07:19:34Z</time>
      </trkpt>
      <trkpt lat="45.82748" lon="5.29859">
        <ele>200.4</ele>
        <time>2023-05-27T07:19:35Z</time>
      </trkpt>
      <trkpt lat="45.82756" lon="5.29861">
        <ele>200.6</ele>
        <time>2023-05-27T07:19:36Z</time>
      </trkpt>
      <trkpt lat="45.82763" lon="5.29863">
        <ele>200.6</ele>
        <time>2023-05-27T07:19:37Z</time>
      </trkpt>
      <trkpt lat="45.82771" lon="5.29866">
        <ele>200.8</ele>
        <time>2023-05-27T07:19:38Z</time>
      </trkpt>
      <trkpt lat="45.82778" lon="5.29869">
        <ele>201</ele>
        <time>2023-05-27T07:19:39Z</time>
      </trkpt>
      <trkpt lat="45.82785" lon="5.29872">
        <ele>201.2</ele>
        <time>2023-05-27T07:19:40Z</time>
      </trkpt>
      <trkpt lat="45.82792" lon="5.29876">
        <ele>201.6</ele>
        <time>2023-05-27T07:19:41Z</time>
      </trkpt>
      <trkpt lat="45.82799" lon="5.2988">
        <ele>201.6</ele>
        <time>2023-05-27T07:19:42Z</time>
      </trkpt>
      <trkpt lat="45.82806" lon="5.29884">
        <ele>201.8</ele>
        <time>2023-05-27T07:19:43Z</time>
      </trkpt>
      <trkpt lat="45.82813" lon="5.29888">
        <ele>201.8</ele>
        <time>2023-05-27T07:19:44Z</time>
      </trkpt>
      <trkpt lat="45.8282" lon="5.29893">
        <ele>201.8</ele>
        <time>2023-05-27T07:19:45Z</time>
      </trkpt>
      <trkpt lat="45.82828" lon="5.29898">
        <ele>202</ele>
        <time>2023-05-27T07:19:46Z</time>
      </trkpt>
      <trkpt lat="45.82834" lon="5.29902">
        <ele>202</ele>
        <time>2023-05-27T07:19:47Z</time>
      </trkpt>
      <trkpt lat="45.82841" lon="5.29906">
        <ele>202</ele>
        <time>2023-05-27T07:19:48Z</time>
      </trkpt>
      <trkpt lat="45.82848" lon="5.29911">
        <ele>202.2</ele>
        <time>2023-05-27T07:19:49Z</time>
      </trkpt>
      <trkpt lat="45.82855" lon="5.29915">
        <ele>202.2</ele>
        <time>2023-05-27T07:19:50Z</time>
      </trkpt>
      <trkpt lat="45.82863" lon="5.2992">
        <ele>202.2</ele>
        <time>2023-05-27T07:19:51Z</time>
      </trkpt>
      <trkpt lat="45.8287" lon="5.29924">
        <ele>202.2</ele>
        <time>2023-05-27T07:19:52Z</time>
      </trkpt>
      <trkpt lat="45.82877" lon="5.29928">
        <ele>202.4</ele>
        <time>2023-05-27T07:19:53Z</time>
      </trkpt>
      <trkpt lat="45.82884" lon="5.29933">
        <ele>202.6</ele>
        <time>2023-05-27T07:19:54Z</time>
      </trkpt>
      <trkpt lat="45.82892" lon="5.29937">
        <ele>202.4</ele>
        <time>2023-05-27T07:19:55Z</time>
      </trkpt>
      <trkpt lat="45.82899" lon="5.29941">
        <ele>202.4</ele>
        <time>2023-05-27T07:19:56Z</time>
      </trkpt>
      <trkpt lat="45.82906" lon="5.29945">
        <ele>202.6</ele>
        <time>2023-05-27T07:19:57Z</time>
      </trkpt>
      <trkpt lat="45.82914" lon="5.29949">
        <ele>202.6</ele>
        <time>2023-05-27T07:19:58Z</time>
      </trkpt>
      <trkpt lat="45.82921" lon="5.29953">
        <ele>202.4</ele>
        <time>2023-05-27T07:19:59Z</time>
      </trkpt>
      <trkpt lat="45.82928" lon="5.29957">
        <ele>202.4</ele>
        <time>2023-05-27T07:20:00Z</time>
      </trkpt>
      <trkpt lat="45.82935" lon="5.29961">
        <ele>202.4</ele>
        <time>2023-05-27T07:20:01Z</time>
      </trkpt>
      <trkpt lat="45.82942" lon="5.29965">
        <ele>202.6</ele>
        <time>2023-05-27T07:20:02Z</time>
      </trkpt>
      <trkpt lat="45.8295" lon="5.29969">
        <ele>202.6</ele>
        <time>2023-05-27T07:20:03Z</time>
      </trkpt>
      <trkpt lat="45.82957" lon="5.29973">
        <ele>202.6</ele>
        <time>2023-05-27T07:20:04Z</time>
      </trkpt>
      <trkpt lat="45.82964" lon="5.29977">
        <ele>202.6</ele>
        <time>2023-05-27T07:20:05Z</time>
      </trkpt>
      <trkpt lat="45.82971" lon="5.29981">
        <ele>202.6</ele>
        <time>2023-05-27T07:20:06Z</time>
      </trkpt>
      <trkpt lat="45.82977" lon="5.29986">
        <ele>202.8</ele>
        <time>2023-05-27T07:20:07Z</time>
      </trkpt>
      <trkpt lat="45.82984" lon="5.2999">
        <ele>203</ele>
        <time>2023-05-27T07:20:08Z</time>
      </trkpt>
      <trkpt lat="45.82991" lon="5.29993">
        <ele>203.2</ele>
        <time>2023-05-27T07:20:09Z</time>
      </trkpt>
      <trkpt lat="45.82998" lon="5.29997">
        <ele>203.2</ele>
        <time>2023-05-27T07:20:10Z</time>
      </trkpt>
      <trkpt lat="45.83005" lon="5.30001">
        <ele>203.4</ele>
        <time>2023-05-27T07:20:11Z</time>
      </trkpt>
      <trkpt lat="45.83012" lon="5.30005">
        <ele>203.4</ele>
        <time>2023-05-27T07:20:12Z</time>
      </trkpt>
      <trkpt lat="45.83019" lon="5.30009">
        <ele>203.6</ele>
        <time>2023-05-27T07:20:13Z</time>
      </trkpt>
      <trkpt lat="45.83027" lon="5.30013">
        <ele>203.8</ele>
        <time>2023-05-27T07:20:14Z</time>
      </trkpt>
      <trkpt lat="45.83034" lon="5.30017">
        <ele>203.8</ele>
        <time>2023-05-27T07:20:15Z</time>
      </trkpt>
      <trkpt lat="45.83042" lon="5.3002">
        <ele>204</ele>
        <time>2023-05-27T07:20:16Z</time>
      </trkpt>
      <trkpt lat="45.8305" lon="5.30024">
        <ele>204</ele>
        <time>2023-05-27T07:20:17Z</time>
      </trkpt>
      <trkpt lat="45.83057" lon="5.30027">
        <ele>204</ele>
        <time>2023-05-27T07:20:18Z</time>
      </trkpt>
      <trkpt lat="45.83065" lon="5.3003">
        <ele>204</ele>
        <time>2023-05-27T07:20:19Z</time>
      </trkpt>
      <trkpt lat="45.83072" lon="5.30033">
        <ele>203.8</ele>
        <time>2023-05-27T07:20:20Z</time>
      </trkpt>
      <trkpt lat="45.8308" lon="5.30036">
        <ele>203.8</ele>
        <time>2023-05-27T07:20:21Z</time>
      </trkpt>
      <trkpt lat="45.83088" lon="5.3004">
        <ele>203.6</ele>
        <time>2023-05-27T07:20:22Z</time>
      </trkpt>
      <trkpt lat="45.83095" lon="5.30042">
        <ele>203.4</ele>
        <time>2023-05-27T07:20:23Z</time>
      </trkpt>
      <trkpt lat="45.83103" lon="5.30045">
        <ele>203.2</ele>
        <time>2023-05-27T07:20:24Z</time>
      </trkpt>
      <trkpt lat="45.83111" lon="5.30048">
        <ele>203</ele>
        <time>2023-05-27T07:20:25Z</time>
      </trkpt>
      <trkpt lat="45.83119" lon="5.30051">
        <ele>202.8</ele>
        <time>2023-05-27T07:20:26Z</time>
      </trkpt>
      <trkpt lat="45.83127" lon="5.30055">
        <ele>202.8</ele>
        <time>2023-05-27T07:20:27Z</time>
      </trkpt>
      <trkpt lat="45.83135" lon="5.30058">
        <ele>202.6</ele>
        <time>2023-05-27T07:20:28Z</time>
      </trkpt>
      <trkpt lat="45.83143" lon="5.30061">
        <ele>202.6</ele>
        <time>2023-05-27T07:20:29Z</time>
      </trkpt>
      <trkpt lat="45.83151" lon="5.30064">
        <ele>202.6</ele>
        <time>2023-05-27T07:20:30Z</time>
      </trkpt>
      <trkpt lat="45.83159" lon="5.30067">
        <ele>202.4</ele>
        <time>2023-05-27T07:20:31Z</time>
      </trkpt>
      <trkpt lat="45.83168" lon="5.30071">
        <ele>202.4</ele>
        <time>2023-05-27T07:20:32Z</time>
      </trkpt>
      <trkpt lat="45.83175" lon="5.30073">
        <ele>202.4</ele>
        <time>2023-05-27T07:20:33Z</time>
      </trkpt>
      <trkpt lat="45.83182" lon="5.30076">
        <ele>202.4</ele>
        <time>2023-05-27T07:20:34Z</time>
      </trkpt>
      <trkpt lat="45.8319" lon="5.30079">
        <ele>202.2</ele>
        <time>2023-05-27T07:20:35Z</time>
      </trkpt>
      <trkpt lat="45.83198" lon="5.30082">
        <ele>202.2</ele>
        <time>2023-05-27T07:20:36Z</time>
      </trkpt>
      <trkpt lat="45.83206" lon="5.30085">
        <ele>202.2</ele>
        <time>2023-05-27T07:20:37Z</time>
      </trkpt>
      <trkpt lat="45.83221" lon="5.30091">
        <ele>202.2</ele>
        <time>2023-05-27T07:20:39Z</time>
      </trkpt>
      <trkpt lat="45.83229" lon="5.30094">
        <ele>202.2</ele>
        <time>2023-05-27T07:20:40Z</time>
      </trkpt>
      <trkpt lat="45.83237" lon="5.30097">
        <ele>202.2</ele>
        <time>2023-05-27T07:20:41Z</time>
      </trkpt>
      <trkpt lat="45.83244" lon="5.30101">
        <ele>202</ele>
        <time>2023-05-27T07:20:42Z</time>
      </trkpt>
      <trkpt lat="45.83251" lon="5.30105">
        <ele>202</ele>
        <time>2023-05-27T07:20:43Z</time>
      </trkpt>
      <trkpt lat="45.83258" lon="5.30109">
        <ele>201.8</ele>
        <time>2023-05-27T07:20:44Z</time>
      </trkpt>
      <trkpt lat="45.83265" lon="5.30113">
        <ele>201.6</ele>
        <time>2023-05-27T07:20:45Z</time>
      </trkpt>
      <trkpt lat="45.83273" lon="5.30117">
        <ele>201.4</ele>
        <time>2023-05-27T07:20:46Z</time>
      </trkpt>
      <trkpt lat="45.83281" lon="5.30122">
        <ele>201.6</ele>
        <time>2023-05-27T07:20:47Z</time>
      </trkpt>
      <trkpt lat="45.83288" lon="5.30126">
        <ele>201.4</ele>
        <time>2023-05-27T07:20:48Z</time>
      </trkpt>
      <trkpt lat="45.83295" lon="5.3013">
        <ele>201.4</ele>
        <time>2023-05-27T07:20:49Z</time>
      </trkpt>
      <trkpt lat="45.83302" lon="5.30134">
        <ele>201.4</ele>
        <time>2023-05-27T07:20:50Z</time>
      </trkpt>
      <trkpt lat="45.83309" lon="5.30138">
        <ele>201.4</ele>
        <time>2023-05-27T07:20:51Z</time>
      </trkpt>
      <trkpt lat="45.83316" lon="5.30142">
        <ele>201.4</ele>
        <time>2023-05-27T07:20:52Z</time>
      </trkpt>
      <trkpt lat="45.83323" lon="5.30146">
        <ele>201.4</ele>
        <time>2023-05-27T07:20:53Z</time>
      </trkpt>
      <trkpt lat="45.8333" lon="5.3015">
        <ele>201.4</ele>
        <time>2023-05-27T07:20:54Z</time>
      </trkpt>
      <trkpt lat="45.83336" lon="5.30154">
        <ele>201.6</ele>
        <time>2023-05-27T07:20:55Z</time>
      </trkpt>
      <trkpt lat="45.83343" lon="5.30158">
        <ele>201.6</ele>
        <time>2023-05-27T07:20:56Z</time>
      </trkpt>
      <trkpt lat="45.8335" lon="5.30162">
        <ele>201.8</ele>
        <time>2023-05-27T07:20:57Z</time>
      </trkpt>
      <trkpt lat="45.83357" lon="5.30166">
        <ele>201.8</ele>
        <time>2023-05-27T07:20:58Z</time>
      </trkpt>
      <trkpt lat="45.83365" lon="5.3017">
        <ele>201.4</ele>
        <time>2023-05-27T07:20:59Z</time>
      </trkpt>
      <trkpt lat="45.83372" lon="5.30173">
        <ele>201.4</ele>
        <time>2023-05-27T07:21:00Z</time>
      </trkpt>
      <trkpt lat="45.83379" lon="5.30177">
        <ele>202.2</ele>
        <time>2023-05-27T07:21:01Z</time>
      </trkpt>
      <trkpt lat="45.83385" lon="5.30181">
        <ele>202.4</ele>
        <time>2023-05-27T07:21:02Z</time>
      </trkpt>
      <trkpt lat="45.83392" lon="5.30185">
        <ele>202.4</ele>
        <time>2023-05-27T07:21:03Z</time>
      </trkpt>
      <trkpt lat="45.834" lon="5.30189">
        <ele>202.4</ele>
        <time>2023-05-27T07:21:04Z</time>
      </trkpt>
      <trkpt lat="45.83405" lon="5.30192">
        <ele>202.4</ele>
        <time>2023-05-27T07:21:05Z</time>
      </trkpt>
      <trkpt lat="45.83412" lon="5.30196">
        <ele>202.6</ele>
        <time>2023-05-27T07:21:06Z</time>
      </trkpt>
      <trkpt lat="45.83418" lon="5.302">
        <ele>202.6</ele>
        <time>2023-05-27T07:21:07Z</time>
      </trkpt>
      <trkpt lat="45.83425" lon="5.30204">
        <ele>202.6</ele>
        <time>2023-05-27T07:21:08Z</time>
      </trkpt>
      <trkpt lat="45.83431" lon="5.30208">
        <ele>202.4</ele>
        <time>2023-05-27T07:21:09Z</time>
      </trkpt>
      <trkpt lat="45.83438" lon="5.30212">
        <ele>202.6</ele>
        <time>2023-05-27T07:21:10Z</time>
      </trkpt>
      <trkpt lat="45.83445" lon="5.30216">
        <ele>202.4</ele>
        <time>2023-05-27T07:21:11Z</time>
      </trkpt>
      <trkpt lat="45.83452" lon="5.3022">
        <ele>202.6</ele>
        <time>2023-05-27T07:21:12Z</time>
      </trkpt>
      <trkpt lat="45.8346" lon="5.30225">
        <ele>202.4</ele>
        <time>2023-05-27T07:21:13Z</time>
      </trkpt>
      <trkpt lat="45.83465" lon="5.30228">
        <ele>202.4</ele>
        <time>2023-05-27T07:21:14Z</time>
      </trkpt>
      <trkpt lat="45.83472" lon="5.30232">
        <ele>202.6</ele>
        <time>2023-05-27T07:21:15Z</time>
      </trkpt>
      <trkpt lat="45.83479" lon="5.30236">
        <ele>202.6</ele>
        <time>2023-05-27T07:21:16Z</time>
      </trkpt>
      <trkpt lat="45.83486" lon="5.3024">
        <ele>202.6</ele>
        <time>2023-05-27T07:21:17Z</time>
      </trkpt>
      <trkpt lat="45.83494" lon="5.30244">
        <ele>202.8</ele>
        <time>2023-05-27T07:21:18Z</time>
      </trkpt>
      <trkpt lat="45.83501" lon="5.30248">
        <ele>203</ele>
        <time>2023-05-27T07:21:19Z</time>
      </trkpt>
      <trkpt lat="45.83509" lon="5.30252">
        <ele>202.6</ele>
        <time>2023-05-27T07:21:20Z</time>
      </trkpt>
      <trkpt lat="45.83516" lon="5.30256">
        <ele>203</ele>
        <time>2023-05-27T07:21:21Z</time>
      </trkpt>
      <trkpt lat="45.83523" lon="5.3026">
        <ele>203</ele>
        <time>2023-05-27T07:21:22Z</time>
      </trkpt>
      <trkpt lat="45.8353" lon="5.30263">
        <ele>203.2</ele>
        <time>2023-05-27T07:21:23Z</time>
      </trkpt>
      <trkpt lat="45.83538" lon="5.30267">
        <ele>203.2</ele>
        <time>2023-05-27T07:21:24Z</time>
      </trkpt>
      <trkpt lat="45.83545" lon="5.30272">
        <ele>203.2</ele>
        <time>2023-05-27T07:21:25Z</time>
      </trkpt>
      <trkpt lat="45.83552" lon="5.30276">
        <ele>203.2</ele>
        <time>2023-05-27T07:21:26Z</time>
      </trkpt>
      <trkpt lat="45.83559" lon="5.3028">
        <ele>203.4</ele>
        <time>2023-05-27T07:21:27Z</time>
      </trkpt>
      <trkpt lat="45.83567" lon="5.30284">
        <ele>203.4</ele>
        <time>2023-05-27T07:21:28Z</time>
      </trkpt>
      <trkpt lat="45.83574" lon="5.30288">
        <ele>203.6</ele>
        <time>2023-05-27T07:21:29Z</time>
      </trkpt>
      <trkpt lat="45.83582" lon="5.30292">
        <ele>203.4</ele>
        <time>2023-05-27T07:21:30Z</time>
      </trkpt>
      <trkpt lat="45.83589" lon="5.30296">
        <ele>203.4</ele>
        <time>2023-05-27T07:21:31Z</time>
      </trkpt>
      <trkpt lat="45.83596" lon="5.303">
        <ele>203.6</ele>
        <time>2023-05-27T07:21:32Z</time>
      </trkpt>
      <trkpt lat="45.83603" lon="5.30304">
        <ele>203.6</ele>
        <time>2023-05-27T07:21:33Z</time>
      </trkpt>
      <trkpt lat="45.83611" lon="5.30309">
        <ele>203.8</ele>
        <time>2023-05-27T07:21:34Z</time>
      </trkpt>
      <trkpt lat="45.83618" lon="5.30313">
        <ele>204</ele>
        <time>2023-05-27T07:21:35Z</time>
      </trkpt>
      <trkpt lat="45.83624" lon="5.30317">
        <ele>204</ele>
        <time>2023-05-27T07:21:36Z</time>
      </trkpt>
      <trkpt lat="45.83631" lon="5.30321">
        <ele>204.2</ele>
        <time>2023-05-27T07:21:37Z</time>
      </trkpt>
      <trkpt lat="45.83638" lon="5.30325">
        <ele>204.2</ele>
        <time>2023-05-27T07:21:38Z</time>
      </trkpt>
      <trkpt lat="45.83646" lon="5.3033">
        <ele>204</ele>
        <time>2023-05-27T07:21:39Z</time>
      </trkpt>
      <trkpt lat="45.83656" lon="5.30335">
        <ele>204.2</ele>
        <time>2023-05-27T07:21:40Z</time>
      </trkpt>
      <trkpt lat="45.83662" lon="5.30339">
        <ele>204.2</ele>
        <time>2023-05-27T07:21:41Z</time>
      </trkpt>
      <trkpt lat="45.83669" lon="5.30343">
        <ele>204.4</ele>
        <time>2023-05-27T07:21:42Z</time>
      </trkpt>
      <trkpt lat="45.83677" lon="5.30347">
        <ele>204.4</ele>
        <time>2023-05-27T07:21:43Z</time>
      </trkpt>
      <trkpt lat="45.83684" lon="5.30352">
        <ele>204.6</ele>
        <time>2023-05-27T07:21:44Z</time>
      </trkpt>
      <trkpt lat="45.83692" lon="5.30356">
        <ele>204.6</ele>
        <time>2023-05-27T07:21:45Z</time>
      </trkpt>
      <trkpt lat="45.837" lon="5.30361">
        <ele>204.6</ele>
        <time>2023-05-27T07:21:46Z</time>
      </trkpt>
      <trkpt lat="45.83707" lon="5.30366">
        <ele>204.6</ele>
        <time>2023-05-27T07:21:47Z</time>
      </trkpt>
      <trkpt lat="45.83715" lon="5.30371">
        <ele>204.8</ele>
        <time>2023-05-27T07:21:48Z</time>
      </trkpt>
      <trkpt lat="45.83723" lon="5.30375">
        <ele>204.8</ele>
        <time>2023-05-27T07:21:49Z</time>
      </trkpt>
      <trkpt lat="45.83731" lon="5.3038">
        <ele>204.8</ele>
        <time>2023-05-27T07:21:50Z</time>
      </trkpt>
      <trkpt lat="45.83739" lon="5.30384">
        <ele>204.8</ele>
        <time>2023-05-27T07:21:51Z</time>
      </trkpt>
      <trkpt lat="45.83747" lon="5.30389">
        <ele>204.8</ele>
        <time>2023-05-27T07:21:52Z</time>
      </trkpt>
      <trkpt lat="45.83754" lon="5.30393">
        <ele>204.8</ele>
        <time>2023-05-27T07:21:53Z</time>
      </trkpt>
      <trkpt lat="45.83762" lon="5.30398">
        <ele>204.8</ele>
        <time>2023-05-27T07:21:54Z</time>
      </trkpt>
      <trkpt lat="45.8377" lon="5.30402">
        <ele>204.8</ele>
        <time>2023-05-27T07:21:55Z</time>
      </trkpt>
      <trkpt lat="45.83777" lon="5.30407">
        <ele>204.8</ele>
        <time>2023-05-27T07:21:56Z</time>
      </trkpt>
      <trkpt lat="45.83785" lon="5.30411">
        <ele>204.6</ele>
        <time>2023-05-27T07:21:57Z</time>
      </trkpt>
      <trkpt lat="45.83793" lon="5.30416">
        <ele>204.4</ele>
        <time>2023-05-27T07:21:58Z</time>
      </trkpt>
      <trkpt lat="45.838" lon="5.30421">
        <ele>204.2</ele>
        <time>2023-05-27T07:21:59Z</time>
      </trkpt>
      <trkpt lat="45.83808" lon="5.30425">
        <ele>204</ele>
        <time>2023-05-27T07:22:00Z</time>
      </trkpt>
      <trkpt lat="45.83816" lon="5.3043">
        <ele>203.6</ele>
        <time>2023-05-27T07:22:01Z</time>
      </trkpt>
      <trkpt lat="45.83825" lon="5.30435">
        <ele>203.6</ele>
        <time>2023-05-27T07:22:02Z</time>
      </trkpt>
      <trkpt lat="45.83833" lon="5.3044">
        <ele>203.2</ele>
        <time>2023-05-27T07:22:03Z</time>
      </trkpt>
      <trkpt lat="45.83841" lon="5.30445">
        <ele>203</ele>
        <time>2023-05-27T07:22:04Z</time>
      </trkpt>
      <trkpt lat="45.83849" lon="5.3045">
        <ele>202.8</ele>
        <time>2023-05-27T07:22:05Z</time>
      </trkpt>
      <trkpt lat="45.83857" lon="5.30455">
        <ele>202.8</ele>
        <time>2023-05-27T07:22:06Z</time>
      </trkpt>
      <trkpt lat="45.83865" lon="5.30461">
        <ele>202.4</ele>
        <time>2023-05-27T07:22:07Z</time>
      </trkpt>
      <trkpt lat="45.83873" lon="5.30466">
        <ele>202</ele>
        <time>2023-05-27T07:22:08Z</time>
      </trkpt>
      <trkpt lat="45.8388" lon="5.30472">
        <ele>202</ele>
        <time>2023-05-27T07:22:09Z</time>
      </trkpt>
      <trkpt lat="45.83888" lon="5.30477">
        <ele>202</ele>
        <time>2023-05-27T07:22:10Z</time>
      </trkpt>
      <trkpt lat="45.83896" lon="5.30482">
        <ele>202</ele>
        <time>2023-05-27T07:22:11Z</time>
      </trkpt>
      <trkpt lat="45.83904" lon="5.30487">
        <ele>201.8</ele>
        <time>2023-05-27T07:22:12Z</time>
      </trkpt>
      <trkpt lat="45.83912" lon="5.30492">
        <ele>201.8</ele>
        <time>2023-05-27T07:22:13Z</time>
      </trkpt>
      <trkpt lat="45.8392" lon="5.30496">
        <ele>201.8</ele>
        <time>2023-05-27T07:22:14Z</time>
      </trkpt>
      <trkpt lat="45.83928" lon="5.305">
        <ele>201.6</ele>
        <time>2023-05-27T07:22:15Z</time>
      </trkpt>
      <trkpt lat="45.83936" lon="5.30504">
        <ele>201.6</ele>
        <time>2023-05-27T07:22:16Z</time>
      </trkpt>
      <trkpt lat="45.83944" lon="5.30508">
        <ele>201.6</ele>
        <time>2023-05-27T07:22:17Z</time>
      </trkpt>
      <trkpt lat="45.83952" lon="5.30512">
        <ele>201.6</ele>
        <time>2023-05-27T07:22:18Z</time>
      </trkpt>
      <trkpt lat="45.8396" lon="5.30516">
        <ele>201.6</ele>
        <time>2023-05-27T07:22:19Z</time>
      </trkpt>
      <trkpt lat="45.83969" lon="5.3052">
        <ele>201.6</ele>
        <time>2023-05-27T07:22:20Z</time>
      </trkpt>
      <trkpt lat="45.83977" lon="5.30525">
        <ele>201.6</ele>
        <time>2023-05-27T07:22:21Z</time>
      </trkpt>
      <trkpt lat="45.83986" lon="5.30529">
        <ele>201.4</ele>
        <time>2023-05-27T07:22:22Z</time>
      </trkpt>
      <trkpt lat="45.83995" lon="5.30534">
        <ele>201.4</ele>
        <time>2023-05-27T07:22:23Z</time>
      </trkpt>
      <trkpt lat="45.84003" lon="5.30538">
        <ele>201.2</ele>
        <time>2023-05-27T07:22:24Z</time>
      </trkpt>
      <trkpt lat="45.84012" lon="5.30543">
        <ele>201.2</ele>
        <time>2023-05-27T07:22:25Z</time>
      </trkpt>
      <trkpt lat="45.84021" lon="5.30548">
        <ele>201</ele>
        <time>2023-05-27T07:22:26Z</time>
      </trkpt>
      <trkpt lat="45.8403" lon="5.30553">
        <ele>201</ele>
        <time>2023-05-27T07:22:27Z</time>
      </trkpt>
      <trkpt lat="45.84039" lon="5.30558">
        <ele>200.8</ele>
        <time>2023-05-27T07:22:28Z</time>
      </trkpt>
      <trkpt lat="45.84047" lon="5.30563">
        <ele>200.8</ele>
        <time>2023-05-27T07:22:29Z</time>
      </trkpt>
      <trkpt lat="45.84056" lon="5.30568">
        <ele>200.8</ele>
        <time>2023-05-27T07:22:30Z</time>
      </trkpt>
      <trkpt lat="45.84065" lon="5.30574">
        <ele>200.6</ele>
        <time>2023-05-27T07:22:31Z</time>
      </trkpt>
      <trkpt lat="45.84073" lon="5.30579">
        <ele>200.6</ele>
        <time>2023-05-27T07:22:32Z</time>
      </trkpt>
      <trkpt lat="45.84081" lon="5.30584">
        <ele>200.6</ele>
        <time>2023-05-27T07:22:33Z</time>
      </trkpt>
      <trkpt lat="45.8409" lon="5.3059">
        <ele>200.4</ele>
        <time>2023-05-27T07:22:34Z</time>
      </trkpt>
      <trkpt lat="45.84098" lon="5.30596">
        <ele>200.4</ele>
        <time>2023-05-27T07:22:35Z</time>
      </trkpt>
      <trkpt lat="45.84106" lon="5.30603">
        <ele>200.4</ele>
        <time>2023-05-27T07:22:36Z</time>
      </trkpt>
      <trkpt lat="45.84114" lon="5.3061">
        <ele>200.4</ele>
        <time>2023-05-27T07:22:37Z</time>
      </trkpt>
      <trkpt lat="45.84121" lon="5.30617">
        <ele>200.4</ele>
        <time>2023-05-27T07:22:38Z</time>
      </trkpt>
      <trkpt lat="45.84128" lon="5.30625">
        <ele>200.4</ele>
        <time>2023-05-27T07:22:39Z</time>
      </trkpt>
      <trkpt lat="45.84135" lon="5.30632">
        <ele>200.4</ele>
        <time>2023-05-27T07:22:40Z</time>
      </trkpt>
      <trkpt lat="45.84142" lon="5.3064">
        <ele>200.4</ele>
        <time>2023-05-27T07:22:41Z</time>
      </trkpt>
      <trkpt lat="45.84149" lon="5.30648">
        <ele>200.2</ele>
        <time>2023-05-27T07:22:42Z</time>
      </trkpt>
      <trkpt lat="45.84155" lon="5.30657">
        <ele>200</ele>
        <time>2023-05-27T07:22:43Z</time>
      </trkpt>
      <trkpt lat="45.84161" lon="5.30665">
        <ele>200</ele>
        <time>2023-05-27T07:22:44Z</time>
      </trkpt>
      <trkpt lat="45.84166" lon="5.30673">
        <ele>200</ele>
        <time>2023-05-27T07:22:45Z</time>
      </trkpt>
      <trkpt lat="45.84172" lon="5.30681">
        <ele>199.8</ele>
        <time>2023-05-27T07:22:46Z</time>
      </trkpt>
      <trkpt lat="45.84179" lon="5.30689">
        <ele>199.8</ele>
        <time>2023-05-27T07:22:47Z</time>
      </trkpt>
      <trkpt lat="45.84185" lon="5.30697">
        <ele>200</ele>
        <time>2023-05-27T07:22:48Z</time>
      </trkpt>
      <trkpt lat="45.84192" lon="5.30704">
        <ele>200</ele>
        <time>2023-05-27T07:22:49Z</time>
      </trkpt>
      <trkpt lat="45.84199" lon="5.30711">
        <ele>200.2</ele>
        <time>2023-05-27T07:22:50Z</time>
      </trkpt>
      <trkpt lat="45.84207" lon="5.30717">
        <ele>200.2</ele>
        <time>2023-05-27T07:22:51Z</time>
      </trkpt>
      <trkpt lat="45.84214" lon="5.30722">
        <ele>200</ele>
        <time>2023-05-27T07:22:52Z</time>
      </trkpt>
      <trkpt lat="45.84222" lon="5.30727">
        <ele>200</ele>
        <time>2023-05-27T07:22:53Z</time>
      </trkpt>
      <trkpt lat="45.8423" lon="5.30731">
        <ele>200</ele>
        <time>2023-05-27T07:22:54Z</time>
      </trkpt>
      <trkpt lat="45.84238" lon="5.30735">
        <ele>200</ele>
        <time>2023-05-27T07:22:55Z</time>
      </trkpt>
      <trkpt lat="45.84247" lon="5.30739">
        <ele>200</ele>
        <time>2023-05-27T07:22:56Z</time>
      </trkpt>
      <trkpt lat="45.84255" lon="5.30743">
        <ele>200</ele>
        <time>2023-05-27T07:22:57Z</time>
      </trkpt>
      <trkpt lat="45.84263" lon="5.30747">
        <ele>200</ele>
        <time>2023-05-27T07:22:58Z</time>
      </trkpt>
      <trkpt lat="45.84271" lon="5.30751">
        <ele>200</ele>
        <time>2023-05-27T07:22:59Z</time>
      </trkpt>
      <trkpt lat="45.84279" lon="5.30755">
        <ele>200</ele>
        <time>2023-05-27T07:23:00Z</time>
      </trkpt>
      <trkpt lat="45.84287" lon="5.3076">
        <ele>200</ele>
        <time>2023-05-27T07:23:01Z</time>
      </trkpt>
      <trkpt lat="45.84294" lon="5.30765">
        <ele>200</ele>
        <time>2023-05-27T07:23:02Z</time>
      </trkpt>
      <trkpt lat="45.84302" lon="5.30771">
        <ele>200</ele>
        <time>2023-05-27T07:23:03Z</time>
      </trkpt>
      <trkpt lat="45.84309" lon="5.30777">
        <ele>200</ele>
        <time>2023-05-27T07:23:04Z</time>
      </trkpt>
      <trkpt lat="45.84317" lon="5.30783">
        <ele>200</ele>
        <time>2023-05-27T07:23:05Z</time>
      </trkpt>
      <trkpt lat="45.84324" lon="5.30789">
        <ele>200</ele>
        <time>2023-05-27T07:23:06Z</time>
      </trkpt>
      <trkpt lat="45.84331" lon="5.30796">
        <ele>200</ele>
        <time>2023-05-27T07:23:07Z</time>
      </trkpt>
      <trkpt lat="45.84338" lon="5.30803">
        <ele>199.8</ele>
        <time>2023-05-27T07:23:08Z</time>
      </trkpt>
      <trkpt lat="45.84345" lon="5.3081">
        <ele>199.8</ele>
        <time>2023-05-27T07:23:09Z</time>
      </trkpt>
      <trkpt lat="45.84351" lon="5.30818">
        <ele>199.8</ele>
        <time>2023-05-27T07:23:10Z</time>
      </trkpt>
      <trkpt lat="45.84357" lon="5.30826">
        <ele>199.8</ele>
        <time>2023-05-27T07:23:11Z</time>
      </trkpt>
      <trkpt lat="45.84364" lon="5.30835">
        <ele>199.6</ele>
        <time>2023-05-27T07:23:12Z</time>
      </trkpt>
      <trkpt lat="45.84369" lon="5.30844">
        <ele>199.6</ele>
        <time>2023-05-27T07:23:13Z</time>
      </trkpt>
      <trkpt lat="45.84375" lon="5.30853">
        <ele>199.8</ele>
        <time>2023-05-27T07:23:14Z</time>
      </trkpt>
      <trkpt lat="45.84381" lon="5.30862">
        <ele>199.8</ele>
        <time>2023-05-27T07:23:15Z</time>
      </trkpt>
      <trkpt lat="45.84386" lon="5.30871">
        <ele>199.8</ele>
        <time>2023-05-27T07:23:16Z</time>
      </trkpt>
      <trkpt lat="45.84392" lon="5.3088">
        <ele>199.8</ele>
        <time>2023-05-27T07:23:17Z</time>
      </trkpt>
      <trkpt lat="45.84398" lon="5.30887">
        <ele>200</ele>
        <time>2023-05-27T07:23:18Z</time>
      </trkpt>
      <trkpt lat="45.84404" lon="5.30894">
        <ele>200</ele>
        <time>2023-05-27T07:23:19Z</time>
      </trkpt>
      <trkpt lat="45.8441" lon="5.30901">
        <ele>200</ele>
        <time>2023-05-27T07:23:20Z</time>
      </trkpt>
      <trkpt lat="45.84416" lon="5.30907">
        <ele>200</ele>
        <time>2023-05-27T07:23:21Z</time>
      </trkpt>
      <trkpt lat="45.84422" lon="5.30914">
        <ele>200</ele>
        <time>2023-05-27T07:23:22Z</time>
      </trkpt>
      <trkpt lat="45.84428" lon="5.3092">
        <ele>200</ele>
        <time>2023-05-27T07:23:23Z</time>
      </trkpt>
      <trkpt lat="45.84434" lon="5.30926">
        <ele>200</ele>
        <time>2023-05-27T07:23:24Z</time>
      </trkpt>
      <trkpt lat="45.8444" lon="5.30932">
        <ele>200</ele>
        <time>2023-05-27T07:23:25Z</time>
      </trkpt>
      <trkpt lat="45.84446" lon="5.30938">
        <ele>200</ele>
        <time>2023-05-27T07:23:26Z</time>
      </trkpt>
      <trkpt lat="45.84452" lon="5.30944">
        <ele>200.2</ele>
        <time>2023-05-27T07:23:27Z</time>
      </trkpt>
      <trkpt lat="45.84459" lon="5.3095">
        <ele>200.2</ele>
        <time>2023-05-27T07:23:28Z</time>
      </trkpt>
      <trkpt lat="45.84465" lon="5.30956">
        <ele>200.2</ele>
        <time>2023-05-27T07:23:29Z</time>
      </trkpt>
      <trkpt lat="45.84471" lon="5.30962">
        <ele>200.2</ele>
        <time>2023-05-27T07:23:30Z</time>
      </trkpt>
      <trkpt lat="45.84477" lon="5.30968">
        <ele>200.2</ele>
        <time>2023-05-27T07:23:31Z</time>
      </trkpt>
      <trkpt lat="45.84483" lon="5.30974">
        <ele>200.4</ele>
        <time>2023-05-27T07:23:32Z</time>
      </trkpt>
      <trkpt lat="45.84489" lon="5.3098">
        <ele>200.4</ele>
        <time>2023-05-27T07:23:33Z</time>
      </trkpt>
      <trkpt lat="45.84495" lon="5.30987">
        <ele>200.6</ele>
        <time>2023-05-27T07:23:34Z</time>
      </trkpt>
      <trkpt lat="45.84501" lon="5.30993">
        <ele>200.6</ele>
        <time>2023-05-27T07:23:35Z</time>
      </trkpt>
      <trkpt lat="45.84508" lon="5.30999">
        <ele>200.6</ele>
        <time>2023-05-27T07:23:36Z</time>
      </trkpt>
      <trkpt lat="45.84514" lon="5.31006">
        <ele>200.6</ele>
        <time>2023-05-27T07:23:37Z</time>
      </trkpt>
      <trkpt lat="45.84522" lon="5.31014">
        <ele>200.6</ele>
        <time>2023-05-27T07:23:38Z</time>
      </trkpt>
      <trkpt lat="45.84527" lon="5.31019">
        <ele>200.6</ele>
        <time>2023-05-27T07:23:39Z</time>
      </trkpt>
      <trkpt lat="45.84533" lon="5.31025">
        <ele>200.6</ele>
        <time>2023-05-27T07:23:40Z</time>
      </trkpt>
      <trkpt lat="45.84539" lon="5.31033">
        <ele>200.6</ele>
        <time>2023-05-27T07:23:41Z</time>
      </trkpt>
      <trkpt lat="45.84545" lon="5.3104">
        <ele>200.6</ele>
        <time>2023-05-27T07:23:42Z</time>
      </trkpt>
      <trkpt lat="45.84551" lon="5.31048">
        <ele>200.6</ele>
        <time>2023-05-27T07:23:43Z</time>
      </trkpt>
      <trkpt lat="45.84557" lon="5.31055">
        <ele>200.8</ele>
        <time>2023-05-27T07:23:44Z</time>
      </trkpt>
      <trkpt lat="45.84563" lon="5.31062">
        <ele>200.8</ele>
        <time>2023-05-27T07:23:45Z</time>
      </trkpt>
      <trkpt lat="45.84569" lon="5.31068">
        <ele>201</ele>
        <time>2023-05-27T07:23:46Z</time>
      </trkpt>
      <trkpt lat="45.84576" lon="5.31075">
        <ele>201</ele>
        <time>2023-05-27T07:23:47Z</time>
      </trkpt>
      <trkpt lat="45.84582" lon="5.31081">
        <ele>201</ele>
        <time>2023-05-27T07:23:48Z</time>
      </trkpt>
      <trkpt lat="45.84589" lon="5.31086">
        <ele>201</ele>
        <time>2023-05-27T07:23:49Z</time>
      </trkpt>
      <trkpt lat="45.84595" lon="5.31092">
        <ele>201</ele>
        <time>2023-05-27T07:23:50Z</time>
      </trkpt>
      <trkpt lat="45.84601" lon="5.31097">
        <ele>201.2</ele>
        <time>2023-05-27T07:23:51Z</time>
      </trkpt>
      <trkpt lat="45.84606" lon="5.31102">
        <ele>201.2</ele>
        <time>2023-05-27T07:23:52Z</time>
      </trkpt>
      <trkpt lat="45.84613" lon="5.31107">
        <ele>201.2</ele>
        <time>2023-05-27T07:23:53Z</time>
      </trkpt>
      <trkpt lat="45.84619" lon="5.31113">
        <ele>201.2</ele>
        <time>2023-05-27T07:23:54Z</time>
      </trkpt>
      <trkpt lat="45.84625" lon="5.31118">
        <ele>201.2</ele>
        <time>2023-05-27T07:23:55Z</time>
      </trkpt>
      <trkpt lat="45.84632" lon="5.31124">
        <ele>201.2</ele>
        <time>2023-05-27T07:23:56Z</time>
      </trkpt>
      <trkpt lat="45.84638" lon="5.3113">
        <ele>201.2</ele>
        <time>2023-05-27T07:23:57Z</time>
      </trkpt>
      <trkpt lat="45.84644" lon="5.31135">
        <ele>201.2</ele>
        <time>2023-05-27T07:23:58Z</time>
      </trkpt>
      <trkpt lat="45.84651" lon="5.31141">
        <ele>201.4</ele>
        <time>2023-05-27T07:23:59Z</time>
      </trkpt>
      <trkpt lat="45.84657" lon="5.31147">
        <ele>201.4</ele>
        <time>2023-05-27T07:24:00Z</time>
      </trkpt>
      <trkpt lat="45.84664" lon="5.31152">
        <ele>201.4</ele>
        <time>2023-05-27T07:24:01Z</time>
      </trkpt>
      <trkpt lat="45.8467" lon="5.31158">
        <ele>201.4</ele>
        <time>2023-05-27T07:24:02Z</time>
      </trkpt>
      <trkpt lat="45.84676" lon="5.31164">
        <ele>201.4</ele>
        <time>2023-05-27T07:24:03Z</time>
      </trkpt>
      <trkpt lat="45.84682" lon="5.3117">
        <ele>201.4</ele>
        <time>2023-05-27T07:24:04Z</time>
      </trkpt>
      <trkpt lat="45.84688" lon="5.31176">
        <ele>201.4</ele>
        <time>2023-05-27T07:24:05Z</time>
      </trkpt>
      <trkpt lat="45.84695" lon="5.31183">
        <ele>201.4</ele>
        <time>2023-05-27T07:24:06Z</time>
      </trkpt>
      <trkpt lat="45.84701" lon="5.31189">
        <ele>201.4</ele>
        <time>2023-05-27T07:24:07Z</time>
      </trkpt>
      <trkpt lat="45.84707" lon="5.31195">
        <ele>201.4</ele>
        <time>2023-05-27T07:24:08Z</time>
      </trkpt>
      <trkpt lat="45.84713" lon="5.31201">
        <ele>201.4</ele>
        <time>2023-05-27T07:24:09Z</time>
      </trkpt>
      <trkpt lat="45.84719" lon="5.31208">
        <ele>201.6</ele>
        <time>2023-05-27T07:24:10Z</time>
      </trkpt>
      <trkpt lat="45.84726" lon="5.31215">
        <ele>201.6</ele>
        <time>2023-05-27T07:24:11Z</time>
      </trkpt>
      <trkpt lat="45.84732" lon="5.31221">
        <ele>201.6</ele>
        <time>2023-05-27T07:24:12Z</time>
      </trkpt>
      <trkpt lat="45.84737" lon="5.31228">
        <ele>201.6</ele>
        <time>2023-05-27T07:24:13Z</time>
      </trkpt>
      <trkpt lat="45.84743" lon="5.31235">
        <ele>201.6</ele>
        <time>2023-05-27T07:24:14Z</time>
      </trkpt>
      <trkpt lat="45.84749" lon="5.31242">
        <ele>201.6</ele>
        <time>2023-05-27T07:24:15Z</time>
      </trkpt>
      <trkpt lat="45.84754" lon="5.31249">
        <ele>201.6</ele>
        <time>2023-05-27T07:24:16Z</time>
      </trkpt>
      <trkpt lat="45.8476" lon="5.31255">
        <ele>201.4</ele>
        <time>2023-05-27T07:24:17Z</time>
      </trkpt>
      <trkpt lat="45.84765" lon="5.31262">
        <ele>201.4</ele>
        <time>2023-05-27T07:24:18Z</time>
      </trkpt>
      <trkpt lat="45.84771" lon="5.31268">
        <ele>201.2</ele>
        <time>2023-05-27T07:24:19Z</time>
      </trkpt>
      <trkpt lat="45.84777" lon="5.31275">
        <ele>201</ele>
        <time>2023-05-27T07:24:20Z</time>
      </trkpt>
      <trkpt lat="45.84783" lon="5.31282">
        <ele>201</ele>
        <time>2023-05-27T07:24:21Z</time>
      </trkpt>
      <trkpt lat="45.84789" lon="5.31288">
        <ele>201</ele>
        <time>2023-05-27T07:24:22Z</time>
      </trkpt>
      <trkpt lat="45.84795" lon="5.31294">
        <ele>201</ele>
        <time>2023-05-27T07:24:23Z</time>
      </trkpt>
      <trkpt lat="45.84802" lon="5.313">
        <ele>201</ele>
        <time>2023-05-27T07:24:24Z</time>
      </trkpt>
      <trkpt lat="45.84808" lon="5.31306">
        <ele>201</ele>
        <time>2023-05-27T07:24:25Z</time>
      </trkpt>
      <trkpt lat="45.84814" lon="5.31312">
        <ele>201</ele>
        <time>2023-05-27T07:24:26Z</time>
      </trkpt>
      <trkpt lat="45.84821" lon="5.31318">
        <ele>201</ele>
        <time>2023-05-27T07:24:27Z</time>
      </trkpt>
      <trkpt lat="45.84828" lon="5.31323">
        <ele>201</ele>
        <time>2023-05-27T07:24:28Z</time>
      </trkpt>
      <trkpt lat="45.84834" lon="5.31329">
        <ele>201</ele>
        <time>2023-05-27T07:24:29Z</time>
      </trkpt>
      <trkpt lat="45.8484" lon="5.31335">
        <ele>201.2</ele>
        <time>2023-05-27T07:24:30Z</time>
      </trkpt>
      <trkpt lat="45.84846" lon="5.31342">
        <ele>201.2</ele>
        <time>2023-05-27T07:24:31Z</time>
      </trkpt>
      <trkpt lat="45.84853" lon="5.31349">
        <ele>201.2</ele>
        <time>2023-05-27T07:24:32Z</time>
      </trkpt>
      <trkpt lat="45.8486" lon="5.31358">
        <ele>201.2</ele>
        <time>2023-05-27T07:24:33Z</time>
      </trkpt>
      <trkpt lat="45.84864" lon="5.31363">
        <ele>201.2</ele>
        <time>2023-05-27T07:24:34Z</time>
      </trkpt>
      <trkpt lat="45.8487" lon="5.31371">
        <ele>201.2</ele>
        <time>2023-05-27T07:24:35Z</time>
      </trkpt>
      <trkpt lat="45.84877" lon="5.31378">
        <ele>201.2</ele>
        <time>2023-05-27T07:24:36Z</time>
      </trkpt>
      <trkpt lat="45.84883" lon="5.31386">
        <ele>201.4</ele>
        <time>2023-05-27T07:24:37Z</time>
      </trkpt>
      <trkpt lat="45.8489" lon="5.31393">
        <ele>201.4</ele>
        <time>2023-05-27T07:24:38Z</time>
      </trkpt>
      <trkpt lat="45.84897" lon="5.31399">
        <ele>201.6</ele>
        <time>2023-05-27T07:24:39Z</time>
      </trkpt>
      <trkpt lat="45.84903" lon="5.31404">
        <ele>201.6</ele>
        <time>2023-05-27T07:24:40Z</time>
      </trkpt>
      <trkpt lat="45.8491" lon="5.3141">
        <ele>202</ele>
        <time>2023-05-27T07:24:41Z</time>
      </trkpt>
      <trkpt lat="45.84916" lon="5.31416">
        <ele>202.2</ele>
        <time>2023-05-27T07:24:42Z</time>
      </trkpt>
      <trkpt lat="45.84923" lon="5.31421">
        <ele>202.4</ele>
        <time>2023-05-27T07:24:43Z</time>
      </trkpt>
      <trkpt lat="45.8493" lon="5.31427">
        <ele>202.4</ele>
        <time>2023-05-27T07:24:44Z</time>
      </trkpt>
      <trkpt lat="45.84936" lon="5.31433">
        <ele>202.4</ele>
        <time>2023-05-27T07:24:45Z</time>
      </trkpt>
      <trkpt lat="45.84943" lon="5.31439">
        <ele>202.4</ele>
        <time>2023-05-27T07:24:46Z</time>
      </trkpt>
      <trkpt lat="45.8495" lon="5.31445">
        <ele>202.4</ele>
        <time>2023-05-27T07:24:47Z</time>
      </trkpt>
      <trkpt lat="45.84957" lon="5.31451">
        <ele>202.4</ele>
        <time>2023-05-27T07:24:48Z</time>
      </trkpt>
      <trkpt lat="45.84964" lon="5.31458">
        <ele>202.4</ele>
        <time>2023-05-27T07:24:49Z</time>
      </trkpt>
      <trkpt lat="45.84971" lon="5.31465">
        <ele>202.2</ele>
        <time>2023-05-27T07:24:50Z</time>
      </trkpt>
      <trkpt lat="45.84978" lon="5.31472">
        <ele>202</ele>
        <time>2023-05-27T07:24:51Z</time>
      </trkpt>
      <trkpt lat="45.84985" lon="5.31479">
        <ele>201.8</ele>
        <time>2023-05-27T07:24:52Z</time>
      </trkpt>
      <trkpt lat="45.84991" lon="5.31487">
        <ele>201.8</ele>
        <time>2023-05-27T07:24:53Z</time>
      </trkpt>
      <trkpt lat="45.84997" lon="5.31494">
        <ele>201.6</ele>
        <time>2023-05-27T07:24:54Z</time>
      </trkpt>
      <trkpt lat="45.85004" lon="5.31502">
        <ele>201.4</ele>
        <time>2023-05-27T07:24:55Z</time>
      </trkpt>
      <trkpt lat="45.8501" lon="5.3151">
        <ele>201.4</ele>
        <time>2023-05-27T07:24:56Z</time>
      </trkpt>
      <trkpt lat="45.85016" lon="5.31518">
        <ele>201</ele>
        <time>2023-05-27T07:24:57Z</time>
      </trkpt>
      <trkpt lat="45.85022" lon="5.31527">
        <ele>200.8</ele>
        <time>2023-05-27T07:24:58Z</time>
      </trkpt>
      <trkpt lat="45.85028" lon="5.31535">
        <ele>200.6</ele>
        <time>2023-05-27T07:24:59Z</time>
      </trkpt>
      <trkpt lat="45.85034" lon="5.31542">
        <ele>200.6</ele>
        <time>2023-05-27T07:25:00Z</time>
      </trkpt>
      <trkpt lat="45.85041" lon="5.31552">
        <ele>200.6</ele>
        <time>2023-05-27T07:25:01Z</time>
      </trkpt>
      <trkpt lat="45.85046" lon="5.31559">
        <ele>200.4</ele>
        <time>2023-05-27T07:25:02Z</time>
      </trkpt>
      <trkpt lat="45.85051" lon="5.31567">
        <ele>200.4</ele>
        <time>2023-05-27T07:25:03Z</time>
      </trkpt>
      <trkpt lat="45.85056" lon="5.31576">
        <ele>200.4</ele>
        <time>2023-05-27T07:25:04Z</time>
      </trkpt>
      <trkpt lat="45.85061" lon="5.31585">
        <ele>200.4</ele>
        <time>2023-05-27T07:25:05Z</time>
      </trkpt>
      <trkpt lat="45.85064" lon="5.31596">
        <ele>200.2</ele>
        <time>2023-05-27T07:25:06Z</time>
      </trkpt>
      <trkpt lat="45.85066" lon="5.31606">
        <ele>200.2</ele>
        <time>2023-05-27T07:25:07Z</time>
      </trkpt>
      <trkpt lat="45.85067" lon="5.31618">
        <ele>200.2</ele>
        <time>2023-05-27T07:25:08Z</time>
      </trkpt>
      <trkpt lat="45.85067" lon="5.31629">
        <ele>200.2</ele>
        <time>2023-05-27T07:25:09Z</time>
      </trkpt>
      <trkpt lat="45.85066" lon="5.31639">
        <ele>200.2</ele>
        <time>2023-05-27T07:25:10Z</time>
      </trkpt>
      <trkpt lat="45.85065" lon="5.3165">
        <ele>200.4</ele>
        <time>2023-05-27T07:25:11Z</time>
      </trkpt>
      <trkpt lat="45.85064" lon="5.31661">
        <ele>200.4</ele>
        <time>2023-05-27T07:25:12Z</time>
      </trkpt>
      <trkpt lat="45.85063" lon="5.31672">
        <ele>200.4</ele>
        <time>2023-05-27T07:25:13Z</time>
      </trkpt>
      <trkpt lat="45.85063" lon="5.31684">
        <ele>200.4</ele>
        <time>2023-05-27T07:25:14Z</time>
      </trkpt>
      <trkpt lat="45.85062" lon="5.31695">
        <ele>200.4</ele>
        <time>2023-05-27T07:25:15Z</time>
      </trkpt>
      <trkpt lat="45.85061" lon="5.31707">
        <ele>200.4</ele>
        <time>2023-05-27T07:25:16Z</time>
      </trkpt>
      <trkpt lat="45.8506" lon="5.31718">
        <ele>200.4</ele>
        <time>2023-05-27T07:25:17Z</time>
      </trkpt>
      <trkpt lat="45.85059" lon="5.3173">
        <ele>200.6</ele>
        <time>2023-05-27T07:25:18Z</time>
      </trkpt>
      <trkpt lat="45.85058" lon="5.31741">
        <ele>200.6</ele>
        <time>2023-05-27T07:25:19Z</time>
      </trkpt>
      <trkpt lat="45.85058" lon="5.31753">
        <ele>200.6</ele>
        <time>2023-05-27T07:25:20Z</time>
      </trkpt>
      <trkpt lat="45.85057" lon="5.31765">
        <ele>200.8</ele>
        <time>2023-05-27T07:25:21Z</time>
      </trkpt>
      <trkpt lat="45.85056" lon="5.31776">
        <ele>200.8</ele>
        <time>2023-05-27T07:25:22Z</time>
      </trkpt>
      <trkpt lat="45.85055" lon="5.31787">
        <ele>201</ele>
        <time>2023-05-27T07:25:23Z</time>
      </trkpt>
      <trkpt lat="45.85055" lon="5.31798">
        <ele>201.2</ele>
        <time>2023-05-27T07:25:24Z</time>
      </trkpt>
      <trkpt lat="45.85054" lon="5.3181">
        <ele>201.2</ele>
        <time>2023-05-27T07:25:25Z</time>
      </trkpt>
      <trkpt lat="45.85053" lon="5.31821">
        <ele>201.4</ele>
        <time>2023-05-27T07:25:26Z</time>
      </trkpt>
      <trkpt lat="45.85053" lon="5.31833">
        <ele>201.6</ele>
        <time>2023-05-27T07:25:27Z</time>
      </trkpt>
      <trkpt lat="45.85052" lon="5.31845">
        <ele>201.6</ele>
        <time>2023-05-27T07:25:28Z</time>
      </trkpt>
      <trkpt lat="45.85052" lon="5.31857">
        <ele>201.6</ele>
        <time>2023-05-27T07:25:29Z</time>
      </trkpt>
      <trkpt lat="45.85051" lon="5.31868">
        <ele>201.6</ele>
        <time>2023-05-27T07:25:30Z</time>
      </trkpt>
      <trkpt lat="45.85051" lon="5.3188">
        <ele>201.8</ele>
        <time>2023-05-27T07:25:31Z</time>
      </trkpt>
      <trkpt lat="45.85051" lon="5.31891">
        <ele>201.8</ele>
        <time>2023-05-27T07:25:32Z</time>
      </trkpt>
      <trkpt lat="45.85051" lon="5.31903">
        <ele>202</ele>
        <time>2023-05-27T07:25:33Z</time>
      </trkpt>
      <trkpt lat="45.8505" lon="5.31914">
        <ele>202</ele>
        <time>2023-05-27T07:25:34Z</time>
      </trkpt>
      <trkpt lat="45.85049" lon="5.31926">
        <ele>202.2</ele>
        <time>2023-05-27T07:25:35Z</time>
      </trkpt>
      <trkpt lat="45.85048" lon="5.31938">
        <ele>202</ele>
        <time>2023-05-27T07:25:36Z</time>
      </trkpt>
      <trkpt lat="45.85048" lon="5.31949">
        <ele>202.2</ele>
        <time>2023-05-27T07:25:37Z</time>
      </trkpt>
      <trkpt lat="45.85047" lon="5.31959">
        <ele>202.4</ele>
        <time>2023-05-27T07:25:38Z</time>
      </trkpt>
      <trkpt lat="45.85047" lon="5.3197">
        <ele>202.4</ele>
        <time>2023-05-27T07:25:39Z</time>
      </trkpt>
      <trkpt lat="45.85047" lon="5.31981">
        <ele>202.6</ele>
        <time>2023-05-27T07:25:40Z</time>
      </trkpt>
      <trkpt lat="45.85046" lon="5.31992">
        <ele>202.6</ele>
        <time>2023-05-27T07:25:41Z</time>
      </trkpt>
      <trkpt lat="45.85046" lon="5.32003">
        <ele>202.6</ele>
        <time>2023-05-27T07:25:42Z</time>
      </trkpt>
      <trkpt lat="45.85046" lon="5.32014">
        <ele>202.6</ele>
        <time>2023-05-27T07:25:43Z</time>
      </trkpt>
      <trkpt lat="45.85046" lon="5.32025">
        <ele>202.6</ele>
        <time>2023-05-27T07:25:44Z</time>
      </trkpt>
      <trkpt lat="45.85045" lon="5.32036">
        <ele>202.6</ele>
        <time>2023-05-27T07:25:45Z</time>
      </trkpt>
      <trkpt lat="45.85044" lon="5.32048">
        <ele>202.6</ele>
        <time>2023-05-27T07:25:46Z</time>
      </trkpt>
      <trkpt lat="45.85043" lon="5.32059">
        <ele>202.6</ele>
        <time>2023-05-27T07:25:47Z</time>
      </trkpt>
      <trkpt lat="45.85042" lon="5.3207">
        <ele>202.6</ele>
        <time>2023-05-27T07:25:48Z</time>
      </trkpt>
      <trkpt lat="45.85041" lon="5.32082">
        <ele>202.6</ele>
        <time>2023-05-27T07:25:49Z</time>
      </trkpt>
      <trkpt lat="45.8504" lon="5.32093">
        <ele>202.6</ele>
        <time>2023-05-27T07:25:50Z</time>
      </trkpt>
      <trkpt lat="45.85039" lon="5.32104">
        <ele>202.6</ele>
        <time>2023-05-27T07:25:51Z</time>
      </trkpt>
      <trkpt lat="45.85038" lon="5.32115">
        <ele>202.6</ele>
        <time>2023-05-27T07:25:52Z</time>
      </trkpt>
      <trkpt lat="45.85037" lon="5.32126">
        <ele>202.6</ele>
        <time>2023-05-27T07:25:53Z</time>
      </trkpt>
      <trkpt lat="45.85035" lon="5.32136">
        <ele>202.8</ele>
        <time>2023-05-27T07:25:54Z</time>
      </trkpt>
      <trkpt lat="45.85033" lon="5.32147">
        <ele>202.8</ele>
        <time>2023-05-27T07:25:55Z</time>
      </trkpt>
      <trkpt lat="45.8503" lon="5.32157">
        <ele>202.8</ele>
        <time>2023-05-27T07:25:56Z</time>
      </trkpt>
      <trkpt lat="45.85027" lon="5.32168">
        <ele>203</ele>
        <time>2023-05-27T07:25:57Z</time>
      </trkpt>
      <trkpt lat="45.85025" lon="5.32179">
        <ele>203</ele>
        <time>2023-05-27T07:25:58Z</time>
      </trkpt>
      <trkpt lat="45.85022" lon="5.3219">
        <ele>203</ele>
        <time>2023-05-27T07:25:59Z</time>
      </trkpt>
      <trkpt lat="45.8502" lon="5.32201">
        <ele>203</ele>
        <time>2023-05-27T07:26:00Z</time>
      </trkpt>
      <trkpt lat="45.85018" lon="5.32213">
        <ele>203.2</ele>
        <time>2023-05-27T07:26:01Z</time>
      </trkpt>
      <trkpt lat="45.85015" lon="5.32224">
        <ele>203.2</ele>
        <time>2023-05-27T07:26:02Z</time>
      </trkpt>
      <trkpt lat="45.85013" lon="5.32235">
        <ele>203</ele>
        <time>2023-05-27T07:26:03Z</time>
      </trkpt>
      <trkpt lat="45.8501" lon="5.32246">
        <ele>202.6</ele>
        <time>2023-05-27T07:26:04Z</time>
      </trkpt>
      <trkpt lat="45.85009" lon="5.32257">
        <ele>202.6</ele>
        <time>2023-05-27T07:26:05Z</time>
      </trkpt>
      <trkpt lat="45.85007" lon="5.32268">
        <ele>202.4</ele>
        <time>2023-05-27T07:26:06Z</time>
      </trkpt>
      <trkpt lat="45.85006" lon="5.32279">
        <ele>202.4</ele>
        <time>2023-05-27T07:26:07Z</time>
      </trkpt>
      <trkpt lat="45.85006" lon="5.32291">
        <ele>202.2</ele>
        <time>2023-05-27T07:26:08Z</time>
      </trkpt>
      <trkpt lat="45.85006" lon="5.32302">
        <ele>202.2</ele>
        <time>2023-05-27T07:26:09Z</time>
      </trkpt>
      <trkpt lat="45.85008" lon="5.32313">
        <ele>202</ele>
        <time>2023-05-27T07:26:10Z</time>
      </trkpt>
      <trkpt lat="45.8501" lon="5.32323">
        <ele>202</ele>
        <time>2023-05-27T07:26:11Z</time>
      </trkpt>
      <trkpt lat="45.85014" lon="5.32333">
        <ele>202</ele>
        <time>2023-05-27T07:26:12Z</time>
      </trkpt>
      <trkpt lat="45.85018" lon="5.32343">
        <ele>202</ele>
        <time>2023-05-27T07:26:13Z</time>
      </trkpt>
      <trkpt lat="45.85022" lon="5.32351">
        <ele>202</ele>
        <time>2023-05-27T07:26:14Z</time>
      </trkpt>
      <trkpt lat="45.85026" lon="5.3236">
        <ele>202</ele>
        <time>2023-05-27T07:26:15Z</time>
      </trkpt>
      <trkpt lat="45.85031" lon="5.3237">
        <ele>202</ele>
        <time>2023-05-27T07:26:16Z</time>
      </trkpt>
      <trkpt lat="45.85035" lon="5.32379">
        <ele>202</ele>
        <time>2023-05-27T07:26:17Z</time>
      </trkpt>
      <trkpt lat="45.85039" lon="5.32388">
        <ele>202</ele>
        <time>2023-05-27T07:26:18Z</time>
      </trkpt>
      <trkpt lat="45.85043" lon="5.32398">
        <ele>202</ele>
        <time>2023-05-27T07:26:19Z</time>
      </trkpt>
      <trkpt lat="45.85046" lon="5.32407">
        <ele>202</ele>
        <time>2023-05-27T07:26:20Z</time>
      </trkpt>
      <trkpt lat="45.8505" lon="5.32417">
        <ele>202.2</ele>
        <time>2023-05-27T07:26:21Z</time>
      </trkpt>
      <trkpt lat="45.85053" lon="5.32427">
        <ele>202.4</ele>
        <time>2023-05-27T07:26:22Z</time>
      </trkpt>
      <trkpt lat="45.85057" lon="5.32436">
        <ele>202.6</ele>
        <time>2023-05-27T07:26:23Z</time>
      </trkpt>
      <trkpt lat="45.85061" lon="5.32445">
        <ele>202.6</ele>
        <time>2023-05-27T07:26:24Z</time>
      </trkpt>
      <trkpt lat="45.85064" lon="5.32454">
        <ele>202.8</ele>
        <time>2023-05-27T07:26:25Z</time>
      </trkpt>
      <trkpt lat="45.85067" lon="5.32464">
        <ele>203</ele>
        <time>2023-05-27T07:26:26Z</time>
      </trkpt>
      <trkpt lat="45.85071" lon="5.32473">
        <ele>203.2</ele>
        <time>2023-05-27T07:26:27Z</time>
      </trkpt>
      <trkpt lat="45.85074" lon="5.32483">
        <ele>203.2</ele>
        <time>2023-05-27T07:26:28Z</time>
      </trkpt>
      <trkpt lat="45.85077" lon="5.32493">
        <ele>203.6</ele>
        <time>2023-05-27T07:26:29Z</time>
      </trkpt>
      <trkpt lat="45.8508" lon="5.32502">
        <ele>204</ele>
        <time>2023-05-27T07:26:30Z</time>
      </trkpt>
      <trkpt lat="45.85083" lon="5.32512">
        <ele>204.2</ele>
        <time>2023-05-27T07:26:31Z</time>
      </trkpt>
      <trkpt lat="45.85086" lon="5.32522">
        <ele>204.4</ele>
        <time>2023-05-27T07:26:32Z</time>
      </trkpt>
      <trkpt lat="45.85089" lon="5.32531">
        <ele>204.4</ele>
        <time>2023-05-27T07:26:33Z</time>
      </trkpt>
      <trkpt lat="45.85093" lon="5.32539">
        <ele>204.6</ele>
        <time>2023-05-27T07:26:34Z</time>
      </trkpt>
      <trkpt lat="45.85096" lon="5.32548">
        <ele>204.6</ele>
        <time>2023-05-27T07:26:35Z</time>
      </trkpt>
      <trkpt lat="45.851" lon="5.32557">
        <ele>204.6</ele>
        <time>2023-05-27T07:26:36Z</time>
      </trkpt>
      <trkpt lat="45.85104" lon="5.32566">
        <ele>204.6</ele>
        <time>2023-05-27T07:26:37Z</time>
      </trkpt>
      <trkpt lat="45.85108" lon="5.32575">
        <ele>204.6</ele>
        <time>2023-05-27T07:26:38Z</time>
      </trkpt>
      <trkpt lat="45.85112" lon="5.32584">
        <ele>204.6</ele>
        <time>2023-05-27T07:26:39Z</time>
      </trkpt>
      <trkpt lat="45.85115" lon="5.32594">
        <ele>204.6</ele>
        <time>2023-05-27T07:26:40Z</time>
      </trkpt>
      <trkpt lat="45.85118" lon="5.32603">
        <ele>204.6</ele>
        <time>2023-05-27T07:26:41Z</time>
      </trkpt>
      <trkpt lat="45.85121" lon="5.32613">
        <ele>204.6</ele>
        <time>2023-05-27T07:26:42Z</time>
      </trkpt>
      <trkpt lat="45.85125" lon="5.32622">
        <ele>204.6</ele>
        <time>2023-05-27T07:26:43Z</time>
      </trkpt>
      <trkpt lat="45.85129" lon="5.32631">
        <ele>204.6</ele>
        <time>2023-05-27T07:26:44Z</time>
      </trkpt>
      <trkpt lat="45.85132" lon="5.3264">
        <ele>204.6</ele>
        <time>2023-05-27T07:26:45Z</time>
      </trkpt>
      <trkpt lat="45.85135" lon="5.3265">
        <ele>204.6</ele>
        <time>2023-05-27T07:26:46Z</time>
      </trkpt>
      <trkpt lat="45.85139" lon="5.32659">
        <ele>204.6</ele>
        <time>2023-05-27T07:26:47Z</time>
      </trkpt>
      <trkpt lat="45.85142" lon="5.32668">
        <ele>204.6</ele>
        <time>2023-05-27T07:26:48Z</time>
      </trkpt>
      <trkpt lat="45.85146" lon="5.32677">
        <ele>204.8</ele>
        <time>2023-05-27T07:26:49Z</time>
      </trkpt>
      <trkpt lat="45.85149" lon="5.32686">
        <ele>205</ele>
        <time>2023-05-27T07:26:50Z</time>
      </trkpt>
      <trkpt lat="45.85152" lon="5.32695">
        <ele>205</ele>
        <time>2023-05-27T07:26:51Z</time>
      </trkpt>
      <trkpt lat="45.85155" lon="5.32704">
        <ele>205.2</ele>
        <time>2023-05-27T07:26:52Z</time>
      </trkpt>
      <trkpt lat="45.85159" lon="5.32714">
        <ele>205.2</ele>
        <time>2023-05-27T07:26:53Z</time>
      </trkpt>
      <trkpt lat="45.85162" lon="5.32723">
        <ele>205.2</ele>
        <time>2023-05-27T07:26:54Z</time>
      </trkpt>
      <trkpt lat="45.85166" lon="5.32732">
        <ele>205.2</ele>
        <time>2023-05-27T07:26:55Z</time>
      </trkpt>
      <trkpt lat="45.85169" lon="5.32742">
        <ele>205.2</ele>
        <time>2023-05-27T07:26:56Z</time>
      </trkpt>
      <trkpt lat="45.85172" lon="5.32751">
        <ele>205.2</ele>
        <time>2023-05-27T07:26:57Z</time>
      </trkpt>
      <trkpt lat="45.85174" lon="5.32761">
        <ele>205.4</ele>
        <time>2023-05-27T07:26:58Z</time>
      </trkpt>
      <trkpt lat="45.85177" lon="5.32771">
        <ele>205.4</ele>
        <time>2023-05-27T07:26:59Z</time>
      </trkpt>
      <trkpt lat="45.85179" lon="5.32781">
        <ele>205.4</ele>
        <time>2023-05-27T07:27:00Z</time>
      </trkpt>
      <trkpt lat="45.8518" lon="5.32791">
        <ele>205.4</ele>
        <time>2023-05-27T07:27:01Z</time>
      </trkpt>
      <trkpt lat="45.85182" lon="5.32802">
        <ele>205.6</ele>
        <time>2023-05-27T07:27:02Z</time>
      </trkpt>
      <trkpt lat="45.85182" lon="5.32813">
        <ele>205.6</ele>
        <time>2023-05-27T07:27:03Z</time>
      </trkpt>
      <trkpt lat="45.85183" lon="5.32824">
        <ele>205.6</ele>
        <time>2023-05-27T07:27:04Z</time>
      </trkpt>
      <trkpt lat="45.85182" lon="5.32834">
        <ele>205.8</ele>
        <time>2023-05-27T07:27:05Z</time>
      </trkpt>
      <trkpt lat="45.85182" lon="5.32844">
        <ele>205.8</ele>
        <time>2023-05-27T07:27:06Z</time>
      </trkpt>
      <trkpt lat="45.85182" lon="5.32855">
        <ele>205.8</ele>
        <time>2023-05-27T07:27:07Z</time>
      </trkpt>
      <trkpt lat="45.85181" lon="5.32865">
        <ele>205.8</ele>
        <time>2023-05-27T07:27:08Z</time>
      </trkpt>
      <trkpt lat="45.8518" lon="5.32875">
        <ele>206</ele>
        <time>2023-05-27T07:27:09Z</time>
      </trkpt>
      <trkpt lat="45.85179" lon="5.32885">
        <ele>206</ele>
        <time>2023-05-27T07:27:10Z</time>
      </trkpt>
      <trkpt lat="45.85178" lon="5.32896">
        <ele>206</ele>
        <time>2023-05-27T07:27:11Z</time>
      </trkpt>
      <trkpt lat="45.85177" lon="5.32906">
        <ele>206</ele>
        <time>2023-05-27T07:27:12Z</time>
      </trkpt>
      <trkpt lat="45.85176" lon="5.32916">
        <ele>206</ele>
        <time>2023-05-27T07:27:13Z</time>
      </trkpt>
      <trkpt lat="45.85174" lon="5.32927">
        <ele>206</ele>
        <time>2023-05-27T07:27:14Z</time>
      </trkpt>
      <trkpt lat="45.85173" lon="5.32937">
        <ele>206.4</ele>
        <time>2023-05-27T07:27:15Z</time>
      </trkpt>
      <trkpt lat="45.85172" lon="5.32947">
        <ele>206.4</ele>
        <time>2023-05-27T07:27:16Z</time>
      </trkpt>
      <trkpt lat="45.85171" lon="5.32957">
        <ele>206.6</ele>
        <time>2023-05-27T07:27:17Z</time>
      </trkpt>
      <trkpt lat="45.8517" lon="5.32967">
        <ele>206.6</ele>
        <time>2023-05-27T07:27:18Z</time>
      </trkpt>
      <trkpt lat="45.85168" lon="5.32978">
        <ele>206.8</ele>
        <time>2023-05-27T07:27:19Z</time>
      </trkpt>
      <trkpt lat="45.85166" lon="5.32988">
        <ele>206.8</ele>
        <time>2023-05-27T07:27:20Z</time>
      </trkpt>
      <trkpt lat="45.85165" lon="5.32998">
        <ele>206.8</ele>
        <time>2023-05-27T07:27:21Z</time>
      </trkpt>
      <trkpt lat="45.85163" lon="5.33008">
        <ele>206.8</ele>
        <time>2023-05-27T07:27:22Z</time>
      </trkpt>
      <trkpt lat="45.85162" lon="5.33018">
        <ele>206.8</ele>
        <time>2023-05-27T07:27:23Z</time>
      </trkpt>
      <trkpt lat="45.8516" lon="5.33028">
        <ele>206.8</ele>
        <time>2023-05-27T07:27:24Z</time>
      </trkpt>
      <trkpt lat="45.85158" lon="5.33038">
        <ele>206.8</ele>
        <time>2023-05-27T07:27:25Z</time>
      </trkpt>
      <trkpt lat="45.85156" lon="5.33048">
        <ele>206.8</ele>
        <time>2023-05-27T07:27:26Z</time>
      </trkpt>
      <trkpt lat="45.85154" lon="5.33058">
        <ele>206.8</ele>
        <time>2023-05-27T07:27:27Z</time>
      </trkpt>
      <trkpt lat="45.85152" lon="5.33067">
        <ele>206.6</ele>
        <time>2023-05-27T07:27:28Z</time>
      </trkpt>
      <trkpt lat="45.85151" lon="5.33077">
        <ele>206.8</ele>
        <time>2023-05-27T07:27:29Z</time>
      </trkpt>
      <trkpt lat="45.8515" lon="5.33087">
        <ele>206.8</ele>
        <time>2023-05-27T07:27:30Z</time>
      </trkpt>
      <trkpt lat="45.85151" lon="5.33097">
        <ele>206.8</ele>
        <time>2023-05-27T07:27:31Z</time>
      </trkpt>
      <trkpt lat="45.85153" lon="5.33105">
        <ele>207</ele>
        <time>2023-05-27T07:27:32Z</time>
      </trkpt>
      <trkpt lat="45.85157" lon="5.33113">
        <ele>207.2</ele>
        <time>2023-05-27T07:27:33Z</time>
      </trkpt>
      <trkpt lat="45.85163" lon="5.33121">
        <ele>207.2</ele>
        <time>2023-05-27T07:27:34Z</time>
      </trkpt>
      <trkpt lat="45.85168" lon="5.33127">
        <ele>207.4</ele>
        <time>2023-05-27T07:27:35Z</time>
      </trkpt>
      <trkpt lat="45.85175" lon="5.33132">
        <ele>207.6</ele>
        <time>2023-05-27T07:27:36Z</time>
      </trkpt>
      <trkpt lat="45.85181" lon="5.33137">
        <ele>207.6</ele>
        <time>2023-05-27T07:27:37Z</time>
      </trkpt>
      <trkpt lat="45.85187" lon="5.33142">
        <ele>207.6</ele>
        <time>2023-05-27T07:27:38Z</time>
      </trkpt>
      <trkpt lat="45.85194" lon="5.33147">
        <ele>207.6</ele>
        <time>2023-05-27T07:27:39Z</time>
      </trkpt>
      <trkpt lat="45.852" lon="5.33152">
        <ele>207.6</ele>
        <time>2023-05-27T07:27:40Z</time>
      </trkpt>
      <trkpt lat="45.85207" lon="5.33155">
        <ele>207.6</ele>
        <time>2023-05-27T07:27:41Z</time>
      </trkpt>
      <trkpt lat="45.85215" lon="5.33158">
        <ele>207.8</ele>
        <time>2023-05-27T07:27:42Z</time>
      </trkpt>
      <trkpt lat="45.85222" lon="5.3316">
        <ele>208</ele>
        <time>2023-05-27T07:27:43Z</time>
      </trkpt>
      <trkpt lat="45.85229" lon="5.33163">
        <ele>208</ele>
        <time>2023-05-27T07:27:44Z</time>
      </trkpt>
      <trkpt lat="45.85237" lon="5.33166">
        <ele>208.2</ele>
        <time>2023-05-27T07:27:45Z</time>
      </trkpt>
      <trkpt lat="45.85244" lon="5.33168">
        <ele>208.2</ele>
        <time>2023-05-27T07:27:46Z</time>
      </trkpt>
      <trkpt lat="45.85252" lon="5.33171">
        <ele>208.4</ele>
        <time>2023-05-27T07:27:47Z</time>
      </trkpt>
      <trkpt lat="45.8526" lon="5.33173">
        <ele>208.4</ele>
        <time>2023-05-27T07:27:48Z</time>
      </trkpt>
      <trkpt lat="45.85267" lon="5.33175">
        <ele>208.4</ele>
        <time>2023-05-27T07:27:49Z</time>
      </trkpt>
      <trkpt lat="45.85275" lon="5.33177">
        <ele>208.4</ele>
        <time>2023-05-27T07:27:50Z</time>
      </trkpt>
      <trkpt lat="45.85282" lon="5.33179">
        <ele>208.4</ele>
        <time>2023-05-27T07:27:51Z</time>
      </trkpt>
      <trkpt lat="45.8529" lon="5.3318">
        <ele>208.6</ele>
        <time>2023-05-27T07:27:52Z</time>
      </trkpt>
      <trkpt lat="45.85298" lon="5.33182">
        <ele>208.6</ele>
        <time>2023-05-27T07:27:53Z</time>
      </trkpt>
      <trkpt lat="45.85306" lon="5.33184">
        <ele>208.6</ele>
        <time>2023-05-27T07:27:54Z</time>
      </trkpt>
      <trkpt lat="45.85314" lon="5.33186">
        <ele>208.6</ele>
        <time>2023-05-27T07:27:55Z</time>
      </trkpt>
      <trkpt lat="45.85321" lon="5.3319">
        <ele>208.6</ele>
        <time>2023-05-27T07:27:56Z</time>
      </trkpt>
      <trkpt lat="45.85326" lon="5.33196">
        <ele>208.6</ele>
        <time>2023-05-27T07:27:57Z</time>
      </trkpt>
      <trkpt lat="45.85329" lon="5.33205">
        <ele>208.6</ele>
        <time>2023-05-27T07:27:58Z</time>
      </trkpt>
      <trkpt lat="45.85328" lon="5.33214">
        <ele>208.6</ele>
        <time>2023-05-27T07:27:59Z</time>
      </trkpt>
      <trkpt lat="45.85326" lon="5.33224">
        <ele>208.6</ele>
        <time>2023-05-27T07:28:00Z</time>
      </trkpt>
      <trkpt lat="45.85323" lon="5.33233">
        <ele>208.8</ele>
        <time>2023-05-27T07:28:01Z</time>
      </trkpt>
      <trkpt lat="45.8532" lon="5.33243">
        <ele>208.8</ele>
        <time>2023-05-27T07:28:02Z</time>
      </trkpt>
      <trkpt lat="45.85318" lon="5.33253">
        <ele>208.8</ele>
        <time>2023-05-27T07:28:03Z</time>
      </trkpt>
      <trkpt lat="45.85315" lon="5.33262">
        <ele>208.8</ele>
        <time>2023-05-27T07:28:04Z</time>
      </trkpt>
      <trkpt lat="45.85313" lon="5.33272">
        <ele>208.8</ele>
        <time>2023-05-27T07:28:05Z</time>
      </trkpt>
      <trkpt lat="45.8531" lon="5.33282">
        <ele>208.8</ele>
        <time>2023-05-27T07:28:06Z</time>
      </trkpt>
      <trkpt lat="45.85307" lon="5.33292">
        <ele>208.8</ele>
        <time>2023-05-27T07:28:07Z</time>
      </trkpt>
      <trkpt lat="45.85304" lon="5.33302">
        <ele>208.8</ele>
        <time>2023-05-27T07:28:08Z</time>
      </trkpt>
      <trkpt lat="45.85302" lon="5.33312">
        <ele>209</ele>
        <time>2023-05-27T07:28:09Z</time>
      </trkpt>
      <trkpt lat="45.85299" lon="5.33322">
        <ele>209</ele>
        <time>2023-05-27T07:28:10Z</time>
      </trkpt>
      <trkpt lat="45.85296" lon="5.33332">
        <ele>209</ele>
        <time>2023-05-27T07:28:11Z</time>
      </trkpt>
      <trkpt lat="45.85294" lon="5.33342">
        <ele>209</ele>
        <time>2023-05-27T07:28:12Z</time>
      </trkpt>
      <trkpt lat="45.85291" lon="5.33351">
        <ele>209</ele>
        <time>2023-05-27T07:28:13Z</time>
      </trkpt>
      <trkpt lat="45.85287" lon="5.3336">
        <ele>209</ele>
        <time>2023-05-27T07:28:14Z</time>
      </trkpt>
      <trkpt lat="45.85283" lon="5.33369">
        <ele>209</ele>
        <time>2023-05-27T07:28:15Z</time>
      </trkpt>
      <trkpt lat="45.8528" lon="5.33375">
        <ele>209</ele>
        <time>2023-05-27T07:28:16Z</time>
      </trkpt>
      <trkpt lat="45.85277" lon="5.33381">
        <ele>209</ele>
        <time>2023-05-27T07:28:17Z</time>
      </trkpt>
      <trkpt lat="45.85274" lon="5.33386">
        <ele>209</ele>
        <time>2023-05-27T07:28:18Z</time>
      </trkpt>
      <trkpt lat="45.85271" lon="5.3339">
        <ele>209.2</ele>
        <time>2023-05-27T07:28:19Z</time>
      </trkpt>
      <trkpt lat="45.85267" lon="5.33394">
        <ele>209.2</ele>
        <time>2023-05-27T07:28:20Z</time>
      </trkpt>
      <trkpt lat="45.85264" lon="5.33397">
        <ele>209.4</ele>
        <time>2023-05-27T07:28:21Z</time>
      </trkpt>
      <trkpt lat="45.85262" lon="5.33404">
        <ele>209.4</ele>
        <time>2023-05-27T07:28:22Z</time>
      </trkpt>
      <trkpt lat="45.85262" lon="5.3341">
        <ele>209.6</ele>
        <time>2023-05-27T07:28:23Z</time>
      </trkpt>
      <trkpt lat="45.85265" lon="5.33416">
        <ele>209.6</ele>
        <time>2023-05-27T07:28:24Z</time>
      </trkpt>
      <trkpt lat="45.8527" lon="5.33419">
        <ele>209.6</ele>
        <time>2023-05-27T07:28:25Z</time>
      </trkpt>
      <trkpt lat="45.85277" lon="5.33419">
        <ele>209.6</ele>
        <time>2023-05-27T07:28:26Z</time>
      </trkpt>
      <trkpt lat="45.85284" lon="5.33417">
        <ele>209.6</ele>
        <time>2023-05-27T07:28:27Z</time>
      </trkpt>
      <trkpt lat="45.85291" lon="5.33418">
        <ele>209.6</ele>
        <time>2023-05-27T07:28:28Z</time>
      </trkpt>
      <trkpt lat="45.85297" lon="5.33421">
        <ele>209.4</ele>
        <time>2023-05-27T07:28:29Z</time>
      </trkpt>
      <trkpt lat="45.85303" lon="5.33424">
        <ele>209.2</ele>
        <time>2023-05-27T07:28:30Z</time>
      </trkpt>
      <trkpt lat="45.8531" lon="5.33428">
        <ele>209.4</ele>
        <time>2023-05-27T07:28:31Z</time>
      </trkpt>
      <trkpt lat="45.85316" lon="5.33432">
        <ele>209.4</ele>
        <time>2023-05-27T07:28:32Z</time>
      </trkpt>
      <trkpt lat="45.85322" lon="5.33436">
        <ele>209.2</ele>
        <time>2023-05-27T07:28:33Z</time>
      </trkpt>
      <trkpt lat="45.85328" lon="5.3344">
        <ele>209</ele>
        <time>2023-05-27T07:28:34Z</time>
      </trkpt>
      <trkpt lat="45.85335" lon="5.33444">
        <ele>208.6</ele>
        <time>2023-05-27T07:28:35Z</time>
      </trkpt>
      <trkpt lat="45.85341" lon="5.33448">
        <ele>208.8</ele>
        <time>2023-05-27T07:28:36Z</time>
      </trkpt>
      <trkpt lat="45.85348" lon="5.33453">
        <ele>208.4</ele>
        <time>2023-05-27T07:28:37Z</time>
      </trkpt>
      <trkpt lat="45.85362" lon="5.33462">
        <ele>208.4</ele>
        <time>2023-05-27T07:28:39Z</time>
      </trkpt>
      <trkpt lat="45.85369" lon="5.33466">
        <ele>208.4</ele>
        <time>2023-05-27T07:28:40Z</time>
      </trkpt>
      <trkpt lat="45.85375" lon="5.3347">
        <ele>208.4</ele>
        <time>2023-05-27T07:28:41Z</time>
      </trkpt>
      <trkpt lat="45.85382" lon="5.33475">
        <ele>208.6</ele>
        <time>2023-05-27T07:28:42Z</time>
      </trkpt>
      <trkpt lat="45.85389" lon="5.3348">
        <ele>208.6</ele>
        <time>2023-05-27T07:28:43Z</time>
      </trkpt>
      <trkpt lat="45.85396" lon="5.33484">
        <ele>208.6</ele>
        <time>2023-05-27T07:28:44Z</time>
      </trkpt>
      <trkpt lat="45.85403" lon="5.33489">
        <ele>208.6</ele>
        <time>2023-05-27T07:28:45Z</time>
      </trkpt>
      <trkpt lat="45.8541" lon="5.33494">
        <ele>208.2</ele>
        <time>2023-05-27T07:28:46Z</time>
      </trkpt>
      <trkpt lat="45.85417" lon="5.33498">
        <ele>208.2</ele>
        <time>2023-05-27T07:28:47Z</time>
      </trkpt>
      <trkpt lat="45.85424" lon="5.33503">
        <ele>208.2</ele>
        <time>2023-05-27T07:28:48Z</time>
      </trkpt>
      <trkpt lat="45.85431" lon="5.33508">
        <ele>208</ele>
        <time>2023-05-27T07:28:49Z</time>
      </trkpt>
      <trkpt lat="45.85439" lon="5.33512">
        <ele>208</ele>
        <time>2023-05-27T07:28:50Z</time>
      </trkpt>
      <trkpt lat="45.85446" lon="5.33517">
        <ele>208</ele>
        <time>2023-05-27T07:28:51Z</time>
      </trkpt>
      <trkpt lat="45.85455" lon="5.33523">
        <ele>208</ele>
        <time>2023-05-27T07:28:52Z</time>
      </trkpt>
      <trkpt lat="45.8546" lon="5.33527">
        <ele>208</ele>
        <time>2023-05-27T07:28:53Z</time>
      </trkpt>
      <trkpt lat="45.85468" lon="5.33532">
        <ele>208</ele>
        <time>2023-05-27T07:28:54Z</time>
      </trkpt>
      <trkpt lat="45.85476" lon="5.33537">
        <ele>208</ele>
        <time>2023-05-27T07:28:55Z</time>
      </trkpt>
      <trkpt lat="45.85483" lon="5.33542">
        <ele>208</ele>
        <time>2023-05-27T07:28:56Z</time>
      </trkpt>
      <trkpt lat="45.85491" lon="5.33547">
        <ele>207.8</ele>
        <time>2023-05-27T07:28:57Z</time>
      </trkpt>
      <trkpt lat="45.85498" lon="5.33552">
        <ele>207.8</ele>
        <time>2023-05-27T07:28:58Z</time>
      </trkpt>
      <trkpt lat="45.85506" lon="5.33557">
        <ele>207.8</ele>
        <time>2023-05-27T07:28:59Z</time>
      </trkpt>
      <trkpt lat="45.85513" lon="5.33562">
        <ele>207.6</ele>
        <time>2023-05-27T07:29:00Z</time>
      </trkpt>
      <trkpt lat="45.85521" lon="5.33567">
        <ele>207.6</ele>
        <time>2023-05-27T07:29:01Z</time>
      </trkpt>
      <trkpt lat="45.85528" lon="5.33573">
        <ele>207.6</ele>
        <time>2023-05-27T07:29:02Z</time>
      </trkpt>
      <trkpt lat="45.85536" lon="5.33578">
        <ele>207.6</ele>
        <time>2023-05-27T07:29:03Z</time>
      </trkpt>
      <trkpt lat="45.85544" lon="5.33583">
        <ele>207.6</ele>
        <time>2023-05-27T07:29:04Z</time>
      </trkpt>
      <trkpt lat="45.85551" lon="5.33588">
        <ele>207.6</ele>
        <time>2023-05-27T07:29:05Z</time>
      </trkpt>
      <trkpt lat="45.85559" lon="5.33593">
        <ele>207.6</ele>
        <time>2023-05-27T07:29:06Z</time>
      </trkpt>
      <trkpt lat="45.85566" lon="5.33597">
        <ele>207.8</ele>
        <time>2023-05-27T07:29:07Z</time>
      </trkpt>
      <trkpt lat="45.85574" lon="5.33603">
        <ele>207.8</ele>
        <time>2023-05-27T07:29:08Z</time>
      </trkpt>
      <trkpt lat="45.85582" lon="5.33608">
        <ele>207.8</ele>
        <time>2023-05-27T07:29:09Z</time>
      </trkpt>
      <trkpt lat="45.85591" lon="5.33613">
        <ele>208</ele>
        <time>2023-05-27T07:29:10Z</time>
      </trkpt>
      <trkpt lat="45.85598" lon="5.33618">
        <ele>208</ele>
        <time>2023-05-27T07:29:11Z</time>
      </trkpt>
      <trkpt lat="45.85606" lon="5.33623">
        <ele>208</ele>
        <time>2023-05-27T07:29:12Z</time>
      </trkpt>
      <trkpt lat="45.85613" lon="5.33628">
        <ele>208</ele>
        <time>2023-05-27T07:29:13Z</time>
      </trkpt>
      <trkpt lat="45.85621" lon="5.33633">
        <ele>208.2</ele>
        <time>2023-05-27T07:29:14Z</time>
      </trkpt>
      <trkpt lat="45.85628" lon="5.33638">
        <ele>208.2</ele>
        <time>2023-05-27T07:29:15Z</time>
      </trkpt>
      <trkpt lat="45.85636" lon="5.33643">
        <ele>208.2</ele>
        <time>2023-05-27T07:29:16Z</time>
      </trkpt>
      <trkpt lat="45.85644" lon="5.33648">
        <ele>208.2</ele>
        <time>2023-05-27T07:29:17Z</time>
      </trkpt>
      <trkpt lat="45.85652" lon="5.33653">
        <ele>208.4</ele>
        <time>2023-05-27T07:29:18Z</time>
      </trkpt>
      <trkpt lat="45.85659" lon="5.33658">
        <ele>208.4</ele>
        <time>2023-05-27T07:29:19Z</time>
      </trkpt>
      <trkpt lat="45.85667" lon="5.33663">
        <ele>208.4</ele>
        <time>2023-05-27T07:29:20Z</time>
      </trkpt>
      <trkpt lat="45.85674" lon="5.33668">
        <ele>208.6</ele>
        <time>2023-05-27T07:29:21Z</time>
      </trkpt>
      <trkpt lat="45.85682" lon="5.33674">
        <ele>208.6</ele>
        <time>2023-05-27T07:29:22Z</time>
      </trkpt>
      <trkpt lat="45.8569" lon="5.33679">
        <ele>208.6</ele>
        <time>2023-05-27T07:29:23Z</time>
      </trkpt>
      <trkpt lat="45.85698" lon="5.33685">
        <ele>208.6</ele>
        <time>2023-05-27T07:29:24Z</time>
      </trkpt>
      <trkpt lat="45.85705" lon="5.3369">
        <ele>208.6</ele>
        <time>2023-05-27T07:29:25Z</time>
      </trkpt>
      <trkpt lat="45.85712" lon="5.33697">
        <ele>208.8</ele>
        <time>2023-05-27T07:29:26Z</time>
      </trkpt>
      <trkpt lat="45.85719" lon="5.33703">
        <ele>208.8</ele>
        <time>2023-05-27T07:29:27Z</time>
      </trkpt>
      <trkpt lat="45.85727" lon="5.3371">
        <ele>208.8</ele>
        <time>2023-05-27T07:29:28Z</time>
      </trkpt>
      <trkpt lat="45.85734" lon="5.33718">
        <ele>208.8</ele>
        <time>2023-05-27T07:29:29Z</time>
      </trkpt>
      <trkpt lat="45.85741" lon="5.33726">
        <ele>208.8</ele>
        <time>2023-05-27T07:29:30Z</time>
      </trkpt>
      <trkpt lat="45.85747" lon="5.33734">
        <ele>208.6</ele>
        <time>2023-05-27T07:29:31Z</time>
      </trkpt>
      <trkpt lat="45.85754" lon="5.33742">
        <ele>208.6</ele>
        <time>2023-05-27T07:29:32Z</time>
      </trkpt>
      <trkpt lat="45.8576" lon="5.33751">
        <ele>208.6</ele>
        <time>2023-05-27T07:29:33Z</time>
      </trkpt>
      <trkpt lat="45.85767" lon="5.3376">
        <ele>208.6</ele>
        <time>2023-05-27T07:29:34Z</time>
      </trkpt>
      <trkpt lat="45.85772" lon="5.3377">
        <ele>208.4</ele>
        <time>2023-05-27T07:29:35Z</time>
      </trkpt>
      <trkpt lat="45.85778" lon="5.33779">
        <ele>208.4</ele>
        <time>2023-05-27T07:29:36Z</time>
      </trkpt>
      <trkpt lat="45.85784" lon="5.33789">
        <ele>208.4</ele>
        <time>2023-05-27T07:29:37Z</time>
      </trkpt>
      <trkpt lat="45.85789" lon="5.338">
        <ele>208.4</ele>
        <time>2023-05-27T07:29:38Z</time>
      </trkpt>
      <trkpt lat="45.85794" lon="5.3381">
        <ele>208.4</ele>
        <time>2023-05-27T07:29:39Z</time>
      </trkpt>
      <trkpt lat="45.85799" lon="5.3382">
        <ele>208.4</ele>
        <time>2023-05-27T07:29:40Z</time>
      </trkpt>
      <trkpt lat="45.85803" lon="5.33831">
        <ele>208.4</ele>
        <time>2023-05-27T07:29:41Z</time>
      </trkpt>
      <trkpt lat="45.85807" lon="5.33843">
        <ele>208.4</ele>
        <time>2023-05-27T07:29:42Z</time>
      </trkpt>
      <trkpt lat="45.85811" lon="5.33854">
        <ele>208.4</ele>
        <time>2023-05-27T07:29:43Z</time>
      </trkpt>
      <trkpt lat="45.85815" lon="5.33865">
        <ele>208.4</ele>
        <time>2023-05-27T07:29:44Z</time>
      </trkpt>
      <trkpt lat="45.85818" lon="5.33877">
        <ele>208.4</ele>
        <time>2023-05-27T07:29:45Z</time>
      </trkpt>
      <trkpt lat="45.85821" lon="5.33888">
        <ele>208.4</ele>
        <time>2023-05-27T07:29:46Z</time>
      </trkpt>
      <trkpt lat="45.85824" lon="5.339">
        <ele>208.4</ele>
        <time>2023-05-27T07:29:47Z</time>
      </trkpt>
      <trkpt lat="45.85827" lon="5.33912">
        <ele>208.4</ele>
        <time>2023-05-27T07:29:48Z</time>
      </trkpt>
      <trkpt lat="45.8583" lon="5.33923">
        <ele>208.4</ele>
        <time>2023-05-27T07:29:49Z</time>
      </trkpt>
      <trkpt lat="45.85833" lon="5.33935">
        <ele>208.4</ele>
        <time>2023-05-27T07:29:50Z</time>
      </trkpt>
      <trkpt lat="45.85836" lon="5.33946">
        <ele>208.2</ele>
        <time>2023-05-27T07:29:51Z</time>
      </trkpt>
      <trkpt lat="45.85839" lon="5.33958">
        <ele>208.2</ele>
        <time>2023-05-27T07:29:52Z</time>
      </trkpt>
      <trkpt lat="45.85842" lon="5.33969">
        <ele>208.2</ele>
        <time>2023-05-27T07:29:53Z</time>
      </trkpt>
      <trkpt lat="45.85845" lon="5.33981">
        <ele>208.2</ele>
        <time>2023-05-27T07:29:54Z</time>
      </trkpt>
      <trkpt lat="45.85848" lon="5.33992">
        <ele>208.2</ele>
        <time>2023-05-27T07:29:55Z</time>
      </trkpt>
      <trkpt lat="45.85851" lon="5.34003">
        <ele>208.4</ele>
        <time>2023-05-27T07:29:56Z</time>
      </trkpt>
      <trkpt lat="45.85854" lon="5.34014">
        <ele>208.4</ele>
        <time>2023-05-27T07:29:57Z</time>
      </trkpt>
      <trkpt lat="45.85857" lon="5.34025">
        <ele>208.4</ele>
        <time>2023-05-27T07:29:58Z</time>
      </trkpt>
      <trkpt lat="45.8586" lon="5.34035">
        <ele>208.4</ele>
        <time>2023-05-27T07:29:59Z</time>
      </trkpt>
      <trkpt lat="45.85863" lon="5.34045">
        <ele>208.4</ele>
        <time>2023-05-27T07:30:00Z</time>
      </trkpt>
      <trkpt lat="45.85866" lon="5.34055">
        <ele>208.4</ele>
        <time>2023-05-27T07:30:01Z</time>
      </trkpt>
      <trkpt lat="45.8587" lon="5.34065">
        <ele>208.4</ele>
        <time>2023-05-27T07:30:02Z</time>
      </trkpt>
      <trkpt lat="45.85874" lon="5.34074">
        <ele>208.4</ele>
        <time>2023-05-27T07:30:03Z</time>
      </trkpt>
      <trkpt lat="45.85879" lon="5.34083">
        <ele>208.6</ele>
        <time>2023-05-27T07:30:04Z</time>
      </trkpt>
      <trkpt lat="45.85883" lon="5.34091">
        <ele>208.6</ele>
        <time>2023-05-27T07:30:05Z</time>
      </trkpt>
      <trkpt lat="45.85888" lon="5.34099">
        <ele>208.6</ele>
        <time>2023-05-27T07:30:06Z</time>
      </trkpt>
      <trkpt lat="45.85893" lon="5.34107">
        <ele>208.8</ele>
        <time>2023-05-27T07:30:07Z</time>
      </trkpt>
      <trkpt lat="45.85898" lon="5.34115">
        <ele>208.8</ele>
        <time>2023-05-27T07:30:08Z</time>
      </trkpt>
      <trkpt lat="45.85904" lon="5.34123">
        <ele>209.4</ele>
        <time>2023-05-27T07:30:09Z</time>
      </trkpt>
      <trkpt lat="45.8591" lon="5.34131">
        <ele>209.6</ele>
        <time>2023-05-27T07:30:10Z</time>
      </trkpt>
      <trkpt lat="45.85915" lon="5.34138">
        <ele>210</ele>
        <time>2023-05-27T07:30:11Z</time>
      </trkpt>
      <trkpt lat="45.85921" lon="5.34145">
        <ele>210.2</ele>
        <time>2023-05-27T07:30:12Z</time>
      </trkpt>
      <trkpt lat="45.85927" lon="5.34152">
        <ele>210.6</ele>
        <time>2023-05-27T07:30:13Z</time>
      </trkpt>
      <trkpt lat="45.85933" lon="5.34158">
        <ele>210.6</ele>
        <time>2023-05-27T07:30:14Z</time>
      </trkpt>
      <trkpt lat="45.85939" lon="5.34164">
        <ele>211.2</ele>
        <time>2023-05-27T07:30:15Z</time>
      </trkpt>
      <trkpt lat="45.85945" lon="5.34169">
        <ele>211.6</ele>
        <time>2023-05-27T07:30:16Z</time>
      </trkpt>
      <trkpt lat="45.85959" lon="5.3418">
        <ele>212.2</ele>
        <time>2023-05-27T07:30:18Z</time>
      </trkpt>
      <trkpt lat="45.85965" lon="5.34185">
        <ele>212.4</ele>
        <time>2023-05-27T07:30:19Z</time>
      </trkpt>
      <trkpt lat="45.85972" lon="5.34189">
        <ele>212.8</ele>
        <time>2023-05-27T07:30:20Z</time>
      </trkpt>
      <trkpt lat="45.85979" lon="5.34192">
        <ele>213.2</ele>
        <time>2023-05-27T07:30:21Z</time>
      </trkpt>
      <trkpt lat="45.85987" lon="5.34196">
        <ele>213.4</ele>
        <time>2023-05-27T07:30:22Z</time>
      </trkpt>
      <trkpt lat="45.85994" lon="5.34199">
        <ele>213.8</ele>
        <time>2023-05-27T07:30:23Z</time>
      </trkpt>
      <trkpt lat="45.86002" lon="5.34202">
        <ele>214</ele>
        <time>2023-05-27T07:30:24Z</time>
      </trkpt>
      <trkpt lat="45.8601" lon="5.34204">
        <ele>214.4</ele>
        <time>2023-05-27T07:30:25Z</time>
      </trkpt>
      <trkpt lat="45.86025" lon="5.34209">
        <ele>215</ele>
        <time>2023-05-27T07:30:27Z</time>
      </trkpt>
      <trkpt lat="45.86033" lon="5.34211">
        <ele>215.6</ele>
        <time>2023-05-27T07:30:28Z</time>
      </trkpt>
      <trkpt lat="45.86041" lon="5.34214">
        <ele>215.8</ele>
        <time>2023-05-27T07:30:29Z</time>
      </trkpt>
      <trkpt lat="45.86049" lon="5.34216">
        <ele>216.2</ele>
        <time>2023-05-27T07:30:30Z</time>
      </trkpt>
      <trkpt lat="45.86056" lon="5.34218">
        <ele>216.4</ele>
        <time>2023-05-27T07:30:31Z</time>
      </trkpt>
      <trkpt lat="45.86064" lon="5.3422">
        <ele>216.8</ele>
        <time>2023-05-27T07:30:32Z</time>
      </trkpt>
      <trkpt lat="45.86072" lon="5.34223">
        <ele>217</ele>
        <time>2023-05-27T07:30:33Z</time>
      </trkpt>
      <trkpt lat="45.86079" lon="5.34225">
        <ele>217.4</ele>
        <time>2023-05-27T07:30:34Z</time>
      </trkpt>
      <trkpt lat="45.86087" lon="5.34226">
        <ele>217.8</ele>
        <time>2023-05-27T07:30:35Z</time>
      </trkpt>
      <trkpt lat="45.86095" lon="5.34228">
        <ele>218</ele>
        <time>2023-05-27T07:30:36Z</time>
      </trkpt>
      <trkpt lat="45.86102" lon="5.34229">
        <ele>218.4</ele>
        <time>2023-05-27T07:30:37Z</time>
      </trkpt>
      <trkpt lat="45.8611" lon="5.34231">
        <ele>218.6</ele>
        <time>2023-05-27T07:30:38Z</time>
      </trkpt>
      <trkpt lat="45.86117" lon="5.34233">
        <ele>218.8</ele>
        <time>2023-05-27T07:30:39Z</time>
      </trkpt>
      <trkpt lat="45.86125" lon="5.34235">
        <ele>219</ele>
        <time>2023-05-27T07:30:40Z</time>
      </trkpt>
      <trkpt lat="45.86133" lon="5.34237">
        <ele>219.2</ele>
        <time>2023-05-27T07:30:41Z</time>
      </trkpt>
      <trkpt lat="45.86141" lon="5.34238">
        <ele>219.4</ele>
        <time>2023-05-27T07:30:42Z</time>
      </trkpt>
      <trkpt lat="45.86148" lon="5.3424">
        <ele>219.6</ele>
        <time>2023-05-27T07:30:43Z</time>
      </trkpt>
      <trkpt lat="45.86156" lon="5.34242">
        <ele>219.6</ele>
        <time>2023-05-27T07:30:44Z</time>
      </trkpt>
      <trkpt lat="45.86164" lon="5.34244">
        <ele>219.8</ele>
        <time>2023-05-27T07:30:45Z</time>
      </trkpt>
      <trkpt lat="45.86172" lon="5.34245">
        <ele>220</ele>
        <time>2023-05-27T07:30:46Z</time>
      </trkpt>
      <trkpt lat="45.86181" lon="5.34247">
        <ele>220</ele>
        <time>2023-05-27T07:30:47Z</time>
      </trkpt>
      <trkpt lat="45.86189" lon="5.34249">
        <ele>220.2</ele>
        <time>2023-05-27T07:30:48Z</time>
      </trkpt>
      <trkpt lat="45.86197" lon="5.34251">
        <ele>220.4</ele>
        <time>2023-05-27T07:30:49Z</time>
      </trkpt>
      <trkpt lat="45.86205" lon="5.34252">
        <ele>220.6</ele>
        <time>2023-05-27T07:30:50Z</time>
      </trkpt>
      <trkpt lat="45.86213" lon="5.34254">
        <ele>221</ele>
        <time>2023-05-27T07:30:51Z</time>
      </trkpt>
      <trkpt lat="45.86221" lon="5.34255">
        <ele>221</ele>
        <time>2023-05-27T07:30:52Z</time>
      </trkpt>
      <trkpt lat="45.86229" lon="5.34256">
        <ele>221.2</ele>
        <time>2023-05-27T07:30:53Z</time>
      </trkpt>
      <trkpt lat="45.86237" lon="5.34257">
        <ele>221.4</ele>
        <time>2023-05-27T07:30:54Z</time>
      </trkpt>
      <trkpt lat="45.86244" lon="5.34259">
        <ele>221.4</ele>
        <time>2023-05-27T07:30:55Z</time>
      </trkpt>
      <trkpt lat="45.86252" lon="5.3426">
        <ele>221.4</ele>
        <time>2023-05-27T07:30:56Z</time>
      </trkpt>
      <trkpt lat="45.86259" lon="5.34261">
        <ele>221.4</ele>
        <time>2023-05-27T07:30:57Z</time>
      </trkpt>
      <trkpt lat="45.86266" lon="5.34262">
        <ele>221.6</ele>
        <time>2023-05-27T07:30:58Z</time>
      </trkpt>
      <trkpt lat="45.86274" lon="5.34264">
        <ele>221.6</ele>
        <time>2023-05-27T07:30:59Z</time>
      </trkpt>
      <trkpt lat="45.86281" lon="5.34265">
        <ele>221.6</ele>
        <time>2023-05-27T07:31:00Z</time>
      </trkpt>
      <trkpt lat="45.86289" lon="5.34267">
        <ele>221.6</ele>
        <time>2023-05-27T07:31:01Z</time>
      </trkpt>
      <trkpt lat="45.86297" lon="5.34268">
        <ele>221.4</ele>
        <time>2023-05-27T07:31:02Z</time>
      </trkpt>
      <trkpt lat="45.86304" lon="5.34269">
        <ele>221.4</ele>
        <time>2023-05-27T07:31:03Z</time>
      </trkpt>
      <trkpt lat="45.86312" lon="5.34271">
        <ele>221.4</ele>
        <time>2023-05-27T07:31:04Z</time>
      </trkpt>
      <trkpt lat="45.86319" lon="5.34272">
        <ele>221.4</ele>
        <time>2023-05-27T07:31:05Z</time>
      </trkpt>
      <trkpt lat="45.86327" lon="5.34274">
        <ele>221.2</ele>
        <time>2023-05-27T07:31:06Z</time>
      </trkpt>
      <trkpt lat="45.86335" lon="5.34275">
        <ele>221</ele>
        <time>2023-05-27T07:31:07Z</time>
      </trkpt>
      <trkpt lat="45.86343" lon="5.34277">
        <ele>221</ele>
        <time>2023-05-27T07:31:08Z</time>
      </trkpt>
      <trkpt lat="45.86351" lon="5.34278">
        <ele>220.8</ele>
        <time>2023-05-27T07:31:09Z</time>
      </trkpt>
      <trkpt lat="45.86359" lon="5.3428">
        <ele>220.6</ele>
        <time>2023-05-27T07:31:10Z</time>
      </trkpt>
      <trkpt lat="45.86367" lon="5.34281">
        <ele>220.4</ele>
        <time>2023-05-27T07:31:11Z</time>
      </trkpt>
      <trkpt lat="45.86374" lon="5.34283">
        <ele>220.2</ele>
        <time>2023-05-27T07:31:12Z</time>
      </trkpt>
      <trkpt lat="45.86383" lon="5.34285">
        <ele>220.4</ele>
        <time>2023-05-27T07:31:13Z</time>
      </trkpt>
      <trkpt lat="45.86391" lon="5.34286">
        <ele>220</ele>
        <time>2023-05-27T07:31:14Z</time>
      </trkpt>
      <trkpt lat="45.86399" lon="5.34288">
        <ele>219.8</ele>
        <time>2023-05-27T07:31:15Z</time>
      </trkpt>
      <trkpt lat="45.86407" lon="5.34289">
        <ele>219.6</ele>
        <time>2023-05-27T07:31:16Z</time>
      </trkpt>
      <trkpt lat="45.86415" lon="5.3429">
        <ele>219.4</ele>
        <time>2023-05-27T07:31:17Z</time>
      </trkpt>
      <trkpt lat="45.86424" lon="5.34292">
        <ele>219.4</ele>
        <time>2023-05-27T07:31:18Z</time>
      </trkpt>
      <trkpt lat="45.86432" lon="5.34294">
        <ele>219.2</ele>
        <time>2023-05-27T07:31:19Z</time>
      </trkpt>
      <trkpt lat="45.8644" lon="5.34296">
        <ele>219.2</ele>
        <time>2023-05-27T07:31:20Z</time>
      </trkpt>
      <trkpt lat="45.86448" lon="5.34297">
        <ele>218.8</ele>
        <time>2023-05-27T07:31:21Z</time>
      </trkpt>
      <trkpt lat="45.86456" lon="5.34299">
        <ele>218.6</ele>
        <time>2023-05-27T07:31:22Z</time>
      </trkpt>
      <trkpt lat="45.86465" lon="5.34301">
        <ele>218.6</ele>
        <time>2023-05-27T07:31:23Z</time>
      </trkpt>
      <trkpt lat="45.86473" lon="5.34302">
        <ele>218.4</ele>
        <time>2023-05-27T07:31:24Z</time>
      </trkpt>
      <trkpt lat="45.86482" lon="5.34304">
        <ele>218.4</ele>
        <time>2023-05-27T07:31:25Z</time>
      </trkpt>
      <trkpt lat="45.8649" lon="5.34306">
        <ele>218.4</ele>
        <time>2023-05-27T07:31:26Z</time>
      </trkpt>
      <trkpt lat="45.86499" lon="5.34308">
        <ele>218.4</ele>
        <time>2023-05-27T07:31:27Z</time>
      </trkpt>
      <trkpt lat="45.86507" lon="5.34309">
        <ele>218.2</ele>
        <time>2023-05-27T07:31:28Z</time>
      </trkpt>
      <trkpt lat="45.86516" lon="5.34311">
        <ele>218.2</ele>
        <time>2023-05-27T07:31:29Z</time>
      </trkpt>
      <trkpt lat="45.86524" lon="5.34312">
        <ele>218.2</ele>
        <time>2023-05-27T07:31:30Z</time>
      </trkpt>
      <trkpt lat="45.86533" lon="5.34314">
        <ele>218.2</ele>
        <time>2023-05-27T07:31:31Z</time>
      </trkpt>
      <trkpt lat="45.86541" lon="5.34315">
        <ele>218.2</ele>
        <time>2023-05-27T07:31:32Z</time>
      </trkpt>
      <trkpt lat="45.86549" lon="5.34316">
        <ele>218.2</ele>
        <time>2023-05-27T07:31:33Z</time>
      </trkpt>
      <trkpt lat="45.86557" lon="5.34317">
        <ele>218.2</ele>
        <time>2023-05-27T07:31:34Z</time>
      </trkpt>
      <trkpt lat="45.86565" lon="5.34317">
        <ele>218.2</ele>
        <time>2023-05-27T07:31:35Z</time>
      </trkpt>
      <trkpt lat="45.86573" lon="5.34316">
        <ele>218.2</ele>
        <time>2023-05-27T07:31:36Z</time>
      </trkpt>
      <trkpt lat="45.86581" lon="5.34316">
        <ele>218.2</ele>
        <time>2023-05-27T07:31:37Z</time>
      </trkpt>
      <trkpt lat="45.86589" lon="5.34315">
        <ele>218.4</ele>
        <time>2023-05-27T07:31:38Z</time>
      </trkpt>
      <trkpt lat="45.86597" lon="5.34314">
        <ele>218.4</ele>
        <time>2023-05-27T07:31:39Z</time>
      </trkpt>
      <trkpt lat="45.86605" lon="5.34313">
        <ele>218.8</ele>
        <time>2023-05-27T07:31:40Z</time>
      </trkpt>
      <trkpt lat="45.86613" lon="5.34311">
        <ele>218.8</ele>
        <time>2023-05-27T07:31:41Z</time>
      </trkpt>
      <trkpt lat="45.86621" lon="5.34308">
        <ele>219.2</ele>
        <time>2023-05-27T07:31:42Z</time>
      </trkpt>
      <trkpt lat="45.8663" lon="5.34307">
        <ele>219.6</ele>
        <time>2023-05-27T07:31:43Z</time>
      </trkpt>
      <trkpt lat="45.86639" lon="5.34305">
        <ele>219.8</ele>
        <time>2023-05-27T07:31:44Z</time>
      </trkpt>
      <trkpt lat="45.86648" lon="5.34304">
        <ele>220</ele>
        <time>2023-05-27T07:31:45Z</time>
      </trkpt>
      <trkpt lat="45.86656" lon="5.34302">
        <ele>220.2</ele>
        <time>2023-05-27T07:31:46Z</time>
      </trkpt>
      <trkpt lat="45.86665" lon="5.34301">
        <ele>220.8</ele>
        <time>2023-05-27T07:31:47Z</time>
      </trkpt>
      <trkpt lat="45.86674" lon="5.343">
        <ele>220.8</ele>
        <time>2023-05-27T07:31:48Z</time>
      </trkpt>
      <trkpt lat="45.86683" lon="5.34298">
        <ele>221</ele>
        <time>2023-05-27T07:31:49Z</time>
      </trkpt>
      <trkpt lat="45.86691" lon="5.34296">
        <ele>221.4</ele>
        <time>2023-05-27T07:31:50Z</time>
      </trkpt>
      <trkpt lat="45.867" lon="5.34295">
        <ele>221.4</ele>
        <time>2023-05-27T07:31:51Z</time>
      </trkpt>
      <trkpt lat="45.86709" lon="5.34293">
        <ele>221.6</ele>
        <time>2023-05-27T07:31:52Z</time>
      </trkpt>
      <trkpt lat="45.86718" lon="5.34291">
        <ele>221.8</ele>
        <time>2023-05-27T07:31:53Z</time>
      </trkpt>
      <trkpt lat="45.86727" lon="5.3429">
        <ele>222</ele>
        <time>2023-05-27T07:31:54Z</time>
      </trkpt>
      <trkpt lat="45.86735" lon="5.34288">
        <ele>222.2</ele>
        <time>2023-05-27T07:31:55Z</time>
      </trkpt>
      <trkpt lat="45.86744" lon="5.34286">
        <ele>222.2</ele>
        <time>2023-05-27T07:31:56Z</time>
      </trkpt>
      <trkpt lat="45.86752" lon="5.34285">
        <ele>222.2</ele>
        <time>2023-05-27T07:31:57Z</time>
      </trkpt>
      <trkpt lat="45.8676" lon="5.34283">
        <ele>222.4</ele>
        <time>2023-05-27T07:31:58Z</time>
      </trkpt>
      <trkpt lat="45.86769" lon="5.34282">
        <ele>222.4</ele>
        <time>2023-05-27T07:31:59Z</time>
      </trkpt>
      <trkpt lat="45.86778" lon="5.3428">
        <ele>222.4</ele>
        <time>2023-05-27T07:32:00Z</time>
      </trkpt>
      <trkpt lat="45.86787" lon="5.34279">
        <ele>222.4</ele>
        <time>2023-05-27T07:32:01Z</time>
      </trkpt>
      <trkpt lat="45.86795" lon="5.34277">
        <ele>222.4</ele>
        <time>2023-05-27T07:32:02Z</time>
      </trkpt>
      <trkpt lat="45.86804" lon="5.34276">
        <ele>222.4</ele>
        <time>2023-05-27T07:32:03Z</time>
      </trkpt>
      <trkpt lat="45.86812" lon="5.34275">
        <ele>222.4</ele>
        <time>2023-05-27T07:32:04Z</time>
      </trkpt>
      <trkpt lat="45.86821" lon="5.34273">
        <ele>222.4</ele>
        <time>2023-05-27T07:32:05Z</time>
      </trkpt>
      <trkpt lat="45.86829" lon="5.34272">
        <ele>222.4</ele>
        <time>2023-05-27T07:32:06Z</time>
      </trkpt>
      <trkpt lat="45.86838" lon="5.3427">
        <ele>222.4</ele>
        <time>2023-05-27T07:32:07Z</time>
      </trkpt>
      <trkpt lat="45.86847" lon="5.34269">
        <ele>222.4</ele>
        <time>2023-05-27T07:32:08Z</time>
      </trkpt>
      <trkpt lat="45.86856" lon="5.34267">
        <ele>222.4</ele>
        <time>2023-05-27T07:32:09Z</time>
      </trkpt>
      <trkpt lat="45.86864" lon="5.34266">
        <ele>222.4</ele>
        <time>2023-05-27T07:32:10Z</time>
      </trkpt>
      <trkpt lat="45.86874" lon="5.34265">
        <ele>222.4</ele>
        <time>2023-05-27T07:32:11Z</time>
      </trkpt>
      <trkpt lat="45.86883" lon="5.34265">
        <ele>222.4</ele>
        <time>2023-05-27T07:32:12Z</time>
      </trkpt>
      <trkpt lat="45.86893" lon="5.34265">
        <ele>222.4</ele>
        <time>2023-05-27T07:32:13Z</time>
      </trkpt>
      <trkpt lat="45.86905" lon="5.34266">
        <ele>222.2</ele>
        <time>2023-05-27T07:32:14Z</time>
      </trkpt>
      <trkpt lat="45.86915" lon="5.34267">
        <ele>222</ele>
        <time>2023-05-27T07:32:15Z</time>
      </trkpt>
      <trkpt lat="45.86915" lon="5.34267">
        <ele>221.8</ele>
        <time>2023-05-27T07:32:16Z</time>
      </trkpt>
      <trkpt lat="45.86933" lon="5.34271">
        <ele>221.6</ele>
        <time>2023-05-27T07:32:17Z</time>
      </trkpt>
      <trkpt lat="45.86945" lon="5.34274">
        <ele>221.6</ele>
        <time>2023-05-27T07:32:18Z</time>
      </trkpt>
      <trkpt lat="45.86955" lon="5.34276">
        <ele>221.4</ele>
        <time>2023-05-27T07:32:19Z</time>
      </trkpt>
      <trkpt lat="45.86965" lon="5.34278">
        <ele>221</ele>
        <time>2023-05-27T07:32:20Z</time>
      </trkpt>
      <trkpt lat="45.86973" lon="5.3428">
        <ele>220.8</ele>
        <time>2023-05-27T07:32:21Z</time>
      </trkpt>
      <trkpt lat="45.86983" lon="5.34282">
        <ele>220.6</ele>
        <time>2023-05-27T07:32:22Z</time>
      </trkpt>
      <trkpt lat="45.86992" lon="5.34284">
        <ele>220.4</ele>
        <time>2023-05-27T07:32:23Z</time>
      </trkpt>
      <trkpt lat="45.87004" lon="5.34287">
        <ele>220</ele>
        <time>2023-05-27T07:32:24Z</time>
      </trkpt>
      <trkpt lat="45.87014" lon="5.34289">
        <ele>219.6</ele>
        <time>2023-05-27T07:32:25Z</time>
      </trkpt>
      <trkpt lat="45.87022" lon="5.34291">
        <ele>219.6</ele>
        <time>2023-05-27T07:32:26Z</time>
      </trkpt>
      <trkpt lat="45.87031" lon="5.34293">
        <ele>219.2</ele>
        <time>2023-05-27T07:32:27Z</time>
      </trkpt>
      <trkpt lat="45.8704" lon="5.34295">
        <ele>219.2</ele>
        <time>2023-05-27T07:32:28Z</time>
      </trkpt>
      <trkpt lat="45.87052" lon="5.34298">
        <ele>219</ele>
        <time>2023-05-27T07:32:29Z</time>
      </trkpt>
      <trkpt lat="45.87061" lon="5.34299">
        <ele>218.8</ele>
        <time>2023-05-27T07:32:30Z</time>
      </trkpt>
      <trkpt lat="45.87068" lon="5.343">
        <ele>218.8</ele>
        <time>2023-05-27T07:32:31Z</time>
      </trkpt>
      <trkpt lat="45.87076" lon="5.34302">
        <ele>218.6</ele>
        <time>2023-05-27T07:32:32Z</time>
      </trkpt>
      <trkpt lat="45.87086" lon="5.34304">
        <ele>218.4</ele>
        <time>2023-05-27T07:32:33Z</time>
      </trkpt>
      <trkpt lat="45.87097" lon="5.34306">
        <ele>218.2</ele>
        <time>2023-05-27T07:32:34Z</time>
      </trkpt>
      <trkpt lat="45.87106" lon="5.34308">
        <ele>218</ele>
        <time>2023-05-27T07:32:35Z</time>
      </trkpt>
      <trkpt lat="45.87113" lon="5.3431">
        <ele>217.8</ele>
        <time>2023-05-27T07:32:36Z</time>
      </trkpt>
      <trkpt lat="45.87123" lon="5.34312">
        <ele>217.6</ele>
        <time>2023-05-27T07:32:37Z</time>
      </trkpt>
      <trkpt lat="45.87132" lon="5.34315">
        <ele>217.2</ele>
        <time>2023-05-27T07:32:38Z</time>
      </trkpt>
      <trkpt lat="45.87143" lon="5.34318">
        <ele>216.6</ele>
        <time>2023-05-27T07:32:39Z</time>
      </trkpt>
      <trkpt lat="45.87153" lon="5.34321">
        <ele>216.4</ele>
        <time>2023-05-27T07:32:40Z</time>
      </trkpt>
      <trkpt lat="45.8716" lon="5.34324">
        <ele>216</ele>
        <time>2023-05-27T07:32:41Z</time>
      </trkpt>
      <trkpt lat="45.87169" lon="5.34329">
        <ele>215.4</ele>
        <time>2023-05-27T07:32:42Z</time>
      </trkpt>
      <trkpt lat="45.87179" lon="5.34334">
        <ele>215.2</ele>
        <time>2023-05-27T07:32:43Z</time>
      </trkpt>
      <trkpt lat="45.87189" lon="5.3434">
        <ele>214.6</ele>
        <time>2023-05-27T07:32:44Z</time>
      </trkpt>
      <trkpt lat="45.87189" lon="5.3434">
        <ele>214.2</ele>
        <time>2023-05-27T07:32:45Z</time>
      </trkpt>
      <trkpt lat="45.87204" lon="5.34351">
        <ele>213.6</ele>
        <time>2023-05-27T07:32:46Z</time>
      </trkpt>
      <trkpt lat="45.87213" lon="5.34357">
        <ele>213.4</ele>
        <time>2023-05-27T07:32:47Z</time>
      </trkpt>
      <trkpt lat="45.87221" lon="5.34363">
        <ele>212.8</ele>
        <time>2023-05-27T07:32:48Z</time>
      </trkpt>
      <trkpt lat="45.87231" lon="5.3437">
        <ele>212.2</ele>
        <time>2023-05-27T07:32:49Z</time>
      </trkpt>
      <trkpt lat="45.87239" lon="5.34376">
        <ele>212</ele>
        <time>2023-05-27T07:32:50Z</time>
      </trkpt>
      <trkpt lat="45.87246" lon="5.3438">
        <ele>211.8</ele>
        <time>2023-05-27T07:32:51Z</time>
      </trkpt>
      <trkpt lat="45.87254" lon="5.34386">
        <ele>211.6</ele>
        <time>2023-05-27T07:32:52Z</time>
      </trkpt>
      <trkpt lat="45.87262" lon="5.34392">
        <ele>211.4</ele>
        <time>2023-05-27T07:32:53Z</time>
      </trkpt>
      <trkpt lat="45.87272" lon="5.34399">
        <ele>211.2</ele>
        <time>2023-05-27T07:32:54Z</time>
      </trkpt>
      <trkpt lat="45.8728" lon="5.34405">
        <ele>211</ele>
        <time>2023-05-27T07:32:55Z</time>
      </trkpt>
      <trkpt lat="45.87287" lon="5.34409">
        <ele>210.4</ele>
        <time>2023-05-27T07:32:56Z</time>
      </trkpt>
      <trkpt lat="45.87295" lon="5.34415">
        <ele>210</ele>
        <time>2023-05-27T07:32:57Z</time>
      </trkpt>
      <trkpt lat="45.87303" lon="5.34421">
        <ele>209.6</ele>
        <time>2023-05-27T07:32:58Z</time>
      </trkpt>
      <trkpt lat="45.87313" lon="5.34428">
        <ele>209.4</ele>
        <time>2023-05-27T07:32:59Z</time>
      </trkpt>
      <trkpt lat="45.87321" lon="5.34433">
        <ele>209.2</ele>
        <time>2023-05-27T07:33:00Z</time>
      </trkpt>
      <trkpt lat="45.87327" lon="5.34438">
        <ele>209</ele>
        <time>2023-05-27T07:33:01Z</time>
      </trkpt>
      <trkpt lat="45.87335" lon="5.34444">
        <ele>209</ele>
        <time>2023-05-27T07:33:02Z</time>
      </trkpt>
      <trkpt lat="45.87344" lon="5.34449">
        <ele>208.6</ele>
        <time>2023-05-27T07:33:03Z</time>
      </trkpt>
      <trkpt lat="45.87353" lon="5.34456">
        <ele>208.6</ele>
        <time>2023-05-27T07:33:04Z</time>
      </trkpt>
      <trkpt lat="45.87361" lon="5.34462">
        <ele>208</ele>
        <time>2023-05-27T07:33:05Z</time>
      </trkpt>
      <trkpt lat="45.8737" lon="5.34468">
        <ele>208</ele>
        <time>2023-05-27T07:33:06Z</time>
      </trkpt>
      <trkpt lat="45.87378" lon="5.34474">
        <ele>207.8</ele>
        <time>2023-05-27T07:33:07Z</time>
      </trkpt>
      <trkpt lat="45.87386" lon="5.3448">
        <ele>207.6</ele>
        <time>2023-05-27T07:33:08Z</time>
      </trkpt>
      <trkpt lat="45.87394" lon="5.34485">
        <ele>207.6</ele>
        <time>2023-05-27T07:33:09Z</time>
      </trkpt>
      <trkpt lat="45.87402" lon="5.34491">
        <ele>207.4</ele>
        <time>2023-05-27T07:33:10Z</time>
      </trkpt>
      <trkpt lat="45.8741" lon="5.34497">
        <ele>207.4</ele>
        <time>2023-05-27T07:33:11Z</time>
      </trkpt>
      <trkpt lat="45.87418" lon="5.34503">
        <ele>207.2</ele>
        <time>2023-05-27T07:33:12Z</time>
      </trkpt>
      <trkpt lat="45.87427" lon="5.34509">
        <ele>207.2</ele>
        <time>2023-05-27T07:33:13Z</time>
      </trkpt>
      <trkpt lat="45.87435" lon="5.34514">
        <ele>207</ele>
        <time>2023-05-27T07:33:14Z</time>
      </trkpt>
      <trkpt lat="45.87443" lon="5.3452">
        <ele>207</ele>
        <time>2023-05-27T07:33:15Z</time>
      </trkpt>
      <trkpt lat="45.87451" lon="5.34526">
        <ele>206.8</ele>
        <time>2023-05-27T07:33:16Z</time>
      </trkpt>
      <trkpt lat="45.87459" lon="5.34531">
        <ele>206.8</ele>
        <time>2023-05-27T07:33:17Z</time>
      </trkpt>
      <trkpt lat="45.87467" lon="5.34537">
        <ele>206.6</ele>
        <time>2023-05-27T07:33:18Z</time>
      </trkpt>
      <trkpt lat="45.87475" lon="5.34543">
        <ele>206.6</ele>
        <time>2023-05-27T07:33:19Z</time>
      </trkpt>
      <trkpt lat="45.87483" lon="5.34548">
        <ele>206.6</ele>
        <time>2023-05-27T07:33:20Z</time>
      </trkpt>
      <trkpt lat="45.87491" lon="5.34554">
        <ele>206.4</ele>
        <time>2023-05-27T07:33:21Z</time>
      </trkpt>
      <trkpt lat="45.87498" lon="5.34559">
        <ele>206.2</ele>
        <time>2023-05-27T07:33:22Z</time>
      </trkpt>
      <trkpt lat="45.87506" lon="5.34565">
        <ele>206</ele>
        <time>2023-05-27T07:33:23Z</time>
      </trkpt>
      <trkpt lat="45.87514" lon="5.34571">
        <ele>206</ele>
        <time>2023-05-27T07:33:24Z</time>
      </trkpt>
      <trkpt lat="45.87523" lon="5.34576">
        <ele>206</ele>
        <time>2023-05-27T07:33:25Z</time>
      </trkpt>
      <trkpt lat="45.87531" lon="5.34582">
        <ele>206</ele>
        <time>2023-05-27T07:33:26Z</time>
      </trkpt>
      <trkpt lat="45.87539" lon="5.34588">
        <ele>206</ele>
        <time>2023-05-27T07:33:27Z</time>
      </trkpt>
      <trkpt lat="45.87547" lon="5.34594">
        <ele>206</ele>
        <time>2023-05-27T07:33:28Z</time>
      </trkpt>
      <trkpt lat="45.87555" lon="5.34599">
        <ele>205.8</ele>
        <time>2023-05-27T07:33:29Z</time>
      </trkpt>
      <trkpt lat="45.87564" lon="5.34605">
        <ele>205.8</ele>
        <time>2023-05-27T07:33:30Z</time>
      </trkpt>
      <trkpt lat="45.87572" lon="5.34611">
        <ele>205.8</ele>
        <time>2023-05-27T07:33:31Z</time>
      </trkpt>
      <trkpt lat="45.87579" lon="5.34617">
        <ele>205.6</ele>
        <time>2023-05-27T07:33:32Z</time>
      </trkpt>
      <trkpt lat="45.87587" lon="5.34622">
        <ele>205.6</ele>
        <time>2023-05-27T07:33:33Z</time>
      </trkpt>
      <trkpt lat="45.87595" lon="5.34628">
        <ele>205.6</ele>
        <time>2023-05-27T07:33:34Z</time>
      </trkpt>
      <trkpt lat="45.87603" lon="5.34634">
        <ele>205.4</ele>
        <time>2023-05-27T07:33:35Z</time>
      </trkpt>
      <trkpt lat="45.87612" lon="5.3464">
        <ele>205.4</ele>
        <time>2023-05-27T07:33:36Z</time>
      </trkpt>
      <trkpt lat="45.8762" lon="5.34646">
        <ele>205.4</ele>
        <time>2023-05-27T07:33:37Z</time>
      </trkpt>
      <trkpt lat="45.87628" lon="5.34652">
        <ele>205</ele>
        <time>2023-05-27T07:33:38Z</time>
      </trkpt>
      <trkpt lat="45.87637" lon="5.34657">
        <ele>204.8</ele>
        <time>2023-05-27T07:33:39Z</time>
      </trkpt>
      <trkpt lat="45.87645" lon="5.34663">
        <ele>204.6</ele>
        <time>2023-05-27T07:33:40Z</time>
      </trkpt>
      <trkpt lat="45.87653" lon="5.34669">
        <ele>204.4</ele>
        <time>2023-05-27T07:33:41Z</time>
      </trkpt>
      <trkpt lat="45.87661" lon="5.34674">
        <ele>204.2</ele>
        <time>2023-05-27T07:33:42Z</time>
      </trkpt>
      <trkpt lat="45.87669" lon="5.3468">
        <ele>204</ele>
        <time>2023-05-27T07:33:43Z</time>
      </trkpt>
      <trkpt lat="45.87677" lon="5.34685">
        <ele>203.8</ele>
        <time>2023-05-27T07:33:44Z</time>
      </trkpt>
      <trkpt lat="45.87685" lon="5.34691">
        <ele>203.4</ele>
        <time>2023-05-27T07:33:45Z</time>
      </trkpt>
      <trkpt lat="45.87694" lon="5.34697">
        <ele>203.2</ele>
        <time>2023-05-27T07:33:46Z</time>
      </trkpt>
      <trkpt lat="45.87702" lon="5.34702">
        <ele>203</ele>
        <time>2023-05-27T07:33:47Z</time>
      </trkpt>
      <trkpt lat="45.8771" lon="5.34708">
        <ele>203</ele>
        <time>2023-05-27T07:33:48Z</time>
      </trkpt>
      <trkpt lat="45.87718" lon="5.34713">
        <ele>203</ele>
        <time>2023-05-27T07:33:49Z</time>
      </trkpt>
      <trkpt lat="45.87727" lon="5.34719">
        <ele>202.8</ele>
        <time>2023-05-27T07:33:50Z</time>
      </trkpt>
      <trkpt lat="45.87736" lon="5.34724">
        <ele>202.8</ele>
        <time>2023-05-27T07:33:51Z</time>
      </trkpt>
      <trkpt lat="45.87745" lon="5.34729">
        <ele>202.6</ele>
        <time>2023-05-27T07:33:52Z</time>
      </trkpt>
      <trkpt lat="45.87753" lon="5.34734">
        <ele>202.6</ele>
        <time>2023-05-27T07:33:53Z</time>
      </trkpt>
      <trkpt lat="45.87761" lon="5.34739">
        <ele>202.4</ele>
        <time>2023-05-27T07:33:54Z</time>
      </trkpt>
      <trkpt lat="45.87769" lon="5.34744">
        <ele>202.2</ele>
        <time>2023-05-27T07:33:55Z</time>
      </trkpt>
      <trkpt lat="45.87777" lon="5.34749">
        <ele>202.2</ele>
        <time>2023-05-27T07:33:56Z</time>
      </trkpt>
      <trkpt lat="45.87785" lon="5.34754">
        <ele>202.2</ele>
        <time>2023-05-27T07:33:57Z</time>
      </trkpt>
      <trkpt lat="45.87792" lon="5.3476">
        <ele>202</ele>
        <time>2023-05-27T07:33:58Z</time>
      </trkpt>
      <trkpt lat="45.87798" lon="5.34766">
        <ele>202</ele>
        <time>2023-05-27T07:33:59Z</time>
      </trkpt>
      <trkpt lat="45.87804" lon="5.34773">
        <ele>201.8</ele>
        <time>2023-05-27T07:34:00Z</time>
      </trkpt>
      <trkpt lat="45.8781" lon="5.34779">
        <ele>201.8</ele>
        <time>2023-05-27T07:34:01Z</time>
      </trkpt>
      <trkpt lat="45.87815" lon="5.34785">
        <ele>201.8</ele>
        <time>2023-05-27T07:34:02Z</time>
      </trkpt>
      <trkpt lat="45.87819" lon="5.3479">
        <ele>201.8</ele>
        <time>2023-05-27T07:34:03Z</time>
      </trkpt>
      <trkpt lat="45.87821" lon="5.34793">
        <ele>201.6</ele>
        <time>2023-05-27T07:34:04Z</time>
      </trkpt>
      <trkpt lat="45.87823" lon="5.34795">
        <ele>201.6</ele>
        <time>2023-05-27T07:34:05Z</time>
      </trkpt>
      <trkpt lat="45.87825" lon="5.34797">
        <ele>201.6</ele>
        <time>2023-05-27T07:34:06Z</time>
      </trkpt>
      <trkpt lat="45.87826" lon="5.34799">
        <ele>201.6</ele>
        <time>2023-05-27T07:34:07Z</time>
      </trkpt>
      <trkpt lat="45.87828" lon="5.34801">
        <ele>201.6</ele>
        <time>2023-05-27T07:34:08Z</time>
      </trkpt>
      <trkpt lat="45.8783" lon="5.34803">
        <ele>201.4</ele>
        <time>2023-05-27T07:34:09Z</time>
      </trkpt>
      <trkpt lat="45.87832" lon="5.34805">
        <ele>201.4</ele>
        <time>2023-05-27T07:34:10Z</time>
      </trkpt>
      <trkpt lat="45.87834" lon="5.34806">
        <ele>201.2</ele>
        <time>2023-05-27T07:34:11Z</time>
      </trkpt>
      <trkpt lat="45.87835" lon="5.34807">
        <ele>201.2</ele>
        <time>2023-05-27T07:34:12Z</time>
      </trkpt>
      <trkpt lat="45.87837" lon="5.34807">
        <ele>201</ele>
        <time>2023-05-27T07:34:13Z</time>
      </trkpt>
      <trkpt lat="45.87838" lon="5.34808">
        <ele>200.8</ele>
        <time>2023-05-27T07:34:14Z</time>
      </trkpt>
      <trkpt lat="45.87841" lon="5.34809">
        <ele>200.6</ele>
        <time>2023-05-27T07:34:15Z</time>
      </trkpt>
      <trkpt lat="45.87843" lon="5.34811">
        <ele>200.6</ele>
        <time>2023-05-27T07:34:16Z</time>
      </trkpt>
      <trkpt lat="45.87847" lon="5.34812">
        <ele>200.6</ele>
        <time>2023-05-27T07:34:17Z</time>
      </trkpt>
      <trkpt lat="45.87851" lon="5.34811">
        <ele>200.4</ele>
        <time>2023-05-27T07:34:18Z</time>
      </trkpt>
      <trkpt lat="45.87856" lon="5.34809">
        <ele>200.4</ele>
        <time>2023-05-27T07:34:19Z</time>
      </trkpt>
      <trkpt lat="45.8786" lon="5.34806">
        <ele>200.2</ele>
        <time>2023-05-27T07:34:20Z</time>
      </trkpt>
      <trkpt lat="45.87865" lon="5.34802">
        <ele>200</ele>
        <time>2023-05-27T07:34:21Z</time>
      </trkpt>
      <trkpt lat="45.87871" lon="5.34798">
        <ele>200</ele>
        <time>2023-05-27T07:34:22Z</time>
      </trkpt>
      <trkpt lat="45.87876" lon="5.34793">
        <ele>199.8</ele>
        <time>2023-05-27T07:34:23Z</time>
      </trkpt>
      <trkpt lat="45.87882" lon="5.34789">
        <ele>199.8</ele>
        <time>2023-05-27T07:34:24Z</time>
      </trkpt>
      <trkpt lat="45.87889" lon="5.34784">
        <ele>199.4</ele>
        <time>2023-05-27T07:34:25Z</time>
      </trkpt>
      <trkpt lat="45.87896" lon="5.34781">
        <ele>199.4</ele>
        <time>2023-05-27T07:34:26Z</time>
      </trkpt>
      <trkpt lat="45.87904" lon="5.34778">
        <ele>199.2</ele>
        <time>2023-05-27T07:34:27Z</time>
      </trkpt>
      <trkpt lat="45.87912" lon="5.34775">
        <ele>199.2</ele>
        <time>2023-05-27T07:34:28Z</time>
      </trkpt>
      <trkpt lat="45.8792" lon="5.34773">
        <ele>199.2</ele>
        <time>2023-05-27T07:34:29Z</time>
      </trkpt>
      <trkpt lat="45.87927" lon="5.34771">
        <ele>199</ele>
        <time>2023-05-27T07:34:30Z</time>
      </trkpt>
      <trkpt lat="45.87935" lon="5.3477">
        <ele>199</ele>
        <time>2023-05-27T07:34:31Z</time>
      </trkpt>
      <trkpt lat="45.87944" lon="5.34769">
        <ele>199</ele>
        <time>2023-05-27T07:34:32Z</time>
      </trkpt>
      <trkpt lat="45.87952" lon="5.34769">
        <ele>199</ele>
        <time>2023-05-27T07:34:33Z</time>
      </trkpt>
      <trkpt lat="45.8796" lon="5.34768">
        <ele>199</ele>
        <time>2023-05-27T07:34:34Z</time>
      </trkpt>
      <trkpt lat="45.87969" lon="5.34768">
        <ele>198.8</ele>
        <time>2023-05-27T07:34:35Z</time>
      </trkpt>
      <trkpt lat="45.87977" lon="5.34768">
        <ele>198.8</ele>
        <time>2023-05-27T07:34:36Z</time>
      </trkpt>
      <trkpt lat="45.87985" lon="5.34768">
        <ele>198.8</ele>
        <time>2023-05-27T07:34:37Z</time>
      </trkpt>
      <trkpt lat="45.87993" lon="5.34767">
        <ele>198.6</ele>
        <time>2023-05-27T07:34:38Z</time>
      </trkpt>
      <trkpt lat="45.88001" lon="5.34767">
        <ele>198.6</ele>
        <time>2023-05-27T07:34:39Z</time>
      </trkpt>
      <trkpt lat="45.88009" lon="5.34767">
        <ele>198.6</ele>
        <time>2023-05-27T07:34:40Z</time>
      </trkpt>
      <trkpt lat="45.88017" lon="5.34767">
        <ele>198.6</ele>
        <time>2023-05-27T07:34:41Z</time>
      </trkpt>
      <trkpt lat="45.88025" lon="5.34766">
        <ele>198.4</ele>
        <time>2023-05-27T07:34:42Z</time>
      </trkpt>
      <trkpt lat="45.88033" lon="5.34765">
        <ele>198.4</ele>
        <time>2023-05-27T07:34:43Z</time>
      </trkpt>
      <trkpt lat="45.8804" lon="5.34765">
        <ele>198.4</ele>
        <time>2023-05-27T07:34:44Z</time>
      </trkpt>
      <trkpt lat="45.88047" lon="5.34765">
        <ele>198.4</ele>
        <time>2023-05-27T07:34:45Z</time>
      </trkpt>
      <trkpt lat="45.88055" lon="5.34765">
        <ele>198.4</ele>
        <time>2023-05-27T07:34:46Z</time>
      </trkpt>
      <trkpt lat="45.88062" lon="5.34765">
        <ele>198.4</ele>
        <time>2023-05-27T07:34:47Z</time>
      </trkpt>
      <trkpt lat="45.88069" lon="5.34765">
        <ele>198.6</ele>
        <time>2023-05-27T07:34:48Z</time>
      </trkpt>
      <trkpt lat="45.88076" lon="5.34765">
        <ele>198.6</ele>
        <time>2023-05-27T07:34:49Z</time>
      </trkpt>
      <trkpt lat="45.88083" lon="5.34764">
        <ele>198.6</ele>
        <time>2023-05-27T07:34:50Z</time>
      </trkpt>
      <trkpt lat="45.88089" lon="5.34764">
        <ele>198.8</ele>
        <time>2023-05-27T07:34:51Z</time>
      </trkpt>
      <trkpt lat="45.88097" lon="5.34764">
        <ele>199</ele>
        <time>2023-05-27T07:34:52Z</time>
      </trkpt>
      <trkpt lat="45.88104" lon="5.34764">
        <ele>199.4</ele>
        <time>2023-05-27T07:34:53Z</time>
      </trkpt>
      <trkpt lat="45.8811" lon="5.34764">
        <ele>199.6</ele>
        <time>2023-05-27T07:34:54Z</time>
      </trkpt>
      <trkpt lat="45.88117" lon="5.34764">
        <ele>199.8</ele>
        <time>2023-05-27T07:34:55Z</time>
      </trkpt>
      <trkpt lat="45.88124" lon="5.34763">
        <ele>200</ele>
        <time>2023-05-27T07:34:56Z</time>
      </trkpt>
      <trkpt lat="45.88131" lon="5.34763">
        <ele>200.2</ele>
        <time>2023-05-27T07:34:57Z</time>
      </trkpt>
      <trkpt lat="45.88137" lon="5.34763">
        <ele>200.4</ele>
        <time>2023-05-27T07:34:58Z</time>
      </trkpt>
      <trkpt lat="45.88144" lon="5.34763">
        <ele>200.4</ele>
        <time>2023-05-27T07:34:59Z</time>
      </trkpt>
      <trkpt lat="45.88151" lon="5.34762">
        <ele>200.8</ele>
        <time>2023-05-27T07:35:00Z</time>
      </trkpt>
      <trkpt lat="45.88157" lon="5.34762">
        <ele>201.4</ele>
        <time>2023-05-27T07:35:01Z</time>
      </trkpt>
      <trkpt lat="45.88163" lon="5.34762">
        <ele>201.4</ele>
        <time>2023-05-27T07:35:02Z</time>
      </trkpt>
      <trkpt lat="45.8817" lon="5.34762">
        <ele>201.8</ele>
        <time>2023-05-27T07:35:03Z</time>
      </trkpt>
      <trkpt lat="45.88176" lon="5.34761">
        <ele>202</ele>
        <time>2023-05-27T07:35:04Z</time>
      </trkpt>
      <trkpt lat="45.88183" lon="5.34761">
        <ele>202.2</ele>
        <time>2023-05-27T07:35:05Z</time>
      </trkpt>
      <trkpt lat="45.88189" lon="5.34761">
        <ele>202.4</ele>
        <time>2023-05-27T07:35:06Z</time>
      </trkpt>
      <trkpt lat="45.88195" lon="5.3476">
        <ele>202.6</ele>
        <time>2023-05-27T07:35:07Z</time>
      </trkpt>
      <trkpt lat="45.88201" lon="5.3476">
        <ele>202.8</ele>
        <time>2023-05-27T07:35:08Z</time>
      </trkpt>
      <trkpt lat="45.88207" lon="5.3476">
        <ele>203</ele>
        <time>2023-05-27T07:35:09Z</time>
      </trkpt>
      <trkpt lat="45.88214" lon="5.3476">
        <ele>203.4</ele>
        <time>2023-05-27T07:35:10Z</time>
      </trkpt>
      <trkpt lat="45.8822" lon="5.34759">
        <ele>203.8</ele>
        <time>2023-05-27T07:35:11Z</time>
      </trkpt>
      <trkpt lat="45.88227" lon="5.34759">
        <ele>204.4</ele>
        <time>2023-05-27T07:35:12Z</time>
      </trkpt>
      <trkpt lat="45.88233" lon="5.34759">
        <ele>204.6</ele>
        <time>2023-05-27T07:35:13Z</time>
      </trkpt>
      <trkpt lat="45.8824" lon="5.34759">
        <ele>205.2</ele>
        <time>2023-05-27T07:35:14Z</time>
      </trkpt>
      <trkpt lat="45.88246" lon="5.34759">
        <ele>205.6</ele>
        <time>2023-05-27T07:35:15Z</time>
      </trkpt>
      <trkpt lat="45.88253" lon="5.34758">
        <ele>205.8</ele>
        <time>2023-05-27T07:35:16Z</time>
      </trkpt>
      <trkpt lat="45.88259" lon="5.34758">
        <ele>205.8</ele>
        <time>2023-05-27T07:35:17Z</time>
      </trkpt>
      <trkpt lat="45.88265" lon="5.34758">
        <ele>206</ele>
        <time>2023-05-27T07:35:18Z</time>
      </trkpt>
      <trkpt lat="45.88272" lon="5.34758">
        <ele>206</ele>
        <time>2023-05-27T07:35:19Z</time>
      </trkpt>
      <trkpt lat="45.88279" lon="5.34758">
        <ele>206.2</ele>
        <time>2023-05-27T07:35:20Z</time>
      </trkpt>
      <trkpt lat="45.88286" lon="5.34758">
        <ele>206.2</ele>
        <time>2023-05-27T07:35:21Z</time>
      </trkpt>
      <trkpt lat="45.88294" lon="5.34757">
        <ele>206.4</ele>
        <time>2023-05-27T07:35:22Z</time>
      </trkpt>
      <trkpt lat="45.88301" lon="5.34757">
        <ele>206.4</ele>
        <time>2023-05-27T07:35:23Z</time>
      </trkpt>
      <trkpt lat="45.88309" lon="5.34756">
        <ele>206.4</ele>
        <time>2023-05-27T07:35:24Z</time>
      </trkpt>
      <trkpt lat="45.88316" lon="5.34756">
        <ele>206.6</ele>
        <time>2023-05-27T07:35:25Z</time>
      </trkpt>
      <trkpt lat="45.88324" lon="5.34755">
        <ele>206.6</ele>
        <time>2023-05-27T07:35:26Z</time>
      </trkpt>
      <trkpt lat="45.88332" lon="5.34755">
        <ele>206.6</ele>
        <time>2023-05-27T07:35:27Z</time>
      </trkpt>
      <trkpt lat="45.88341" lon="5.34754">
        <ele>206.6</ele>
        <time>2023-05-27T07:35:28Z</time>
      </trkpt>
      <trkpt lat="45.8835" lon="5.34754">
        <ele>206.8</ele>
        <time>2023-05-27T07:35:29Z</time>
      </trkpt>
      <trkpt lat="45.88359" lon="5.34754">
        <ele>206.8</ele>
        <time>2023-05-27T07:35:30Z</time>
      </trkpt>
      <trkpt lat="45.88368" lon="5.34754">
        <ele>207</ele>
        <time>2023-05-27T07:35:31Z</time>
      </trkpt>
      <trkpt lat="45.88377" lon="5.34754">
        <ele>207</ele>
        <time>2023-05-27T07:35:32Z</time>
      </trkpt>
      <trkpt lat="45.88386" lon="5.34754">
        <ele>207</ele>
        <time>2023-05-27T07:35:33Z</time>
      </trkpt>
      <trkpt lat="45.88395" lon="5.34754">
        <ele>207</ele>
        <time>2023-05-27T07:35:34Z</time>
      </trkpt>
      <trkpt lat="45.88405" lon="5.34752">
        <ele>207.2</ele>
        <time>2023-05-27T07:35:35Z</time>
      </trkpt>
      <trkpt lat="45.88414" lon="5.34751">
        <ele>207.4</ele>
        <time>2023-05-27T07:35:36Z</time>
      </trkpt>
      <trkpt lat="45.88423" lon="5.34749">
        <ele>207.4</ele>
        <time>2023-05-27T07:35:37Z</time>
      </trkpt>
      <trkpt lat="45.88432" lon="5.34748">
        <ele>207.4</ele>
        <time>2023-05-27T07:35:38Z</time>
      </trkpt>
      <trkpt lat="45.88441" lon="5.34745">
        <ele>207.4</ele>
        <time>2023-05-27T07:35:39Z</time>
      </trkpt>
      <trkpt lat="45.88449" lon="5.34743">
        <ele>207.6</ele>
        <time>2023-05-27T07:35:40Z</time>
      </trkpt>
      <trkpt lat="45.88457" lon="5.34742">
        <ele>207.6</ele>
        <time>2023-05-27T07:35:41Z</time>
      </trkpt>
      <trkpt lat="45.88464" lon="5.34741">
        <ele>207.6</ele>
        <time>2023-05-27T07:35:42Z</time>
      </trkpt>
      <trkpt lat="45.88468" lon="5.34741">
        <ele>207.4</ele>
        <time>2023-05-27T07:35:43Z</time>
      </trkpt>
      <trkpt lat="45.88471" lon="5.34742">
        <ele>207.4</ele>
        <time>2023-05-27T07:35:44Z</time>
      </trkpt>
      <trkpt lat="45.88473" lon="5.34742">
        <ele>207.4</ele>
        <time>2023-05-27T07:35:45Z</time>
      </trkpt>
      <trkpt lat="45.88476" lon="5.34743">
        <ele>207.4</ele>
        <time>2023-05-27T07:35:46Z</time>
      </trkpt>
      <trkpt lat="45.8848" lon="5.34745">
        <ele>207.4</ele>
        <time>2023-05-27T07:35:47Z</time>
      </trkpt>
      <trkpt lat="45.88485" lon="5.34748">
        <ele>207.4</ele>
        <time>2023-05-27T07:35:48Z</time>
      </trkpt>
      <trkpt lat="45.8849" lon="5.34751">
        <ele>207.2</ele>
        <time>2023-05-27T07:35:49Z</time>
      </trkpt>
      <trkpt lat="45.88496" lon="5.34754">
        <ele>207.2</ele>
        <time>2023-05-27T07:35:50Z</time>
      </trkpt>
      <trkpt lat="45.88502" lon="5.34754">
        <ele>207.2</ele>
        <time>2023-05-27T07:35:51Z</time>
      </trkpt>
      <trkpt lat="45.88508" lon="5.34752">
        <ele>207</ele>
        <time>2023-05-27T07:35:52Z</time>
      </trkpt>
      <trkpt lat="45.88515" lon="5.34748">
        <ele>207</ele>
        <time>2023-05-27T07:35:53Z</time>
      </trkpt>
      <trkpt lat="45.8852" lon="5.34743">
        <ele>206.8</ele>
        <time>2023-05-27T07:35:54Z</time>
      </trkpt>
      <trkpt lat="45.88525" lon="5.34735">
        <ele>206.6</ele>
        <time>2023-05-27T07:35:55Z</time>
      </trkpt>
      <trkpt lat="45.88527" lon="5.34727">
        <ele>206.6</ele>
        <time>2023-05-27T07:35:56Z</time>
      </trkpt>
      <trkpt lat="45.88529" lon="5.34717">
        <ele>206.4</ele>
        <time>2023-05-27T07:35:57Z</time>
      </trkpt>
      <trkpt lat="45.88529" lon="5.34707">
        <ele>206.4</ele>
        <time>2023-05-27T07:35:58Z</time>
      </trkpt>
      <trkpt lat="45.88528" lon="5.34697">
        <ele>206.2</ele>
        <time>2023-05-27T07:35:59Z</time>
      </trkpt>
      <trkpt lat="45.88525" lon="5.34688">
        <ele>206.2</ele>
        <time>2023-05-27T07:36:00Z</time>
      </trkpt>
      <trkpt lat="45.88521" lon="5.3468">
        <ele>206</ele>
        <time>2023-05-27T07:36:01Z</time>
      </trkpt>
      <trkpt lat="45.88516" lon="5.34674">
        <ele>205.8</ele>
        <time>2023-05-27T07:36:02Z</time>
      </trkpt>
      <trkpt lat="45.88509" lon="5.3467">
        <ele>205.8</ele>
        <time>2023-05-27T07:36:03Z</time>
      </trkpt>
      <trkpt lat="45.88502" lon="5.34667">
        <ele>205.6</ele>
        <time>2023-05-27T07:36:04Z</time>
      </trkpt>
      <trkpt lat="45.88495" lon="5.34665">
        <ele>205.6</ele>
        <time>2023-05-27T07:36:05Z</time>
      </trkpt>
      <trkpt lat="45.88488" lon="5.34662">
        <ele>205.4</ele>
        <time>2023-05-27T07:36:06Z</time>
      </trkpt>
      <trkpt lat="45.88481" lon="5.34658">
        <ele>205.2</ele>
        <time>2023-05-27T07:36:07Z</time>
      </trkpt>
      <trkpt lat="45.88474" lon="5.34652">
        <ele>205.2</ele>
        <time>2023-05-27T07:36:08Z</time>
      </trkpt>
      <trkpt lat="45.88468" lon="5.34645">
        <ele>205.2</ele>
        <time>2023-05-27T07:36:09Z</time>
      </trkpt>
      <trkpt lat="45.88463" lon="5.34637">
        <ele>205</ele>
        <time>2023-05-27T07:36:10Z</time>
      </trkpt>
      <trkpt lat="45.88458" lon="5.34628">
        <ele>205</ele>
        <time>2023-05-27T07:36:11Z</time>
      </trkpt>
      <trkpt lat="45.88453" lon="5.3462">
        <ele>205</ele>
        <time>2023-05-27T07:36:12Z</time>
      </trkpt>
      <trkpt lat="45.88448" lon="5.34611">
        <ele>204.8</ele>
        <time>2023-05-27T07:36:13Z</time>
      </trkpt>
      <trkpt lat="45.88443" lon="5.34602">
        <ele>204.8</ele>
        <time>2023-05-27T07:36:14Z</time>
      </trkpt>
      <trkpt lat="45.88438" lon="5.34593">
        <ele>204.8</ele>
        <time>2023-05-27T07:36:15Z</time>
      </trkpt>
      <trkpt lat="45.88434" lon="5.34583">
        <ele>204.6</ele>
        <time>2023-05-27T07:36:16Z</time>
      </trkpt>
      <trkpt lat="45.88429" lon="5.34574">
        <ele>204.6</ele>
        <time>2023-05-27T07:36:17Z</time>
      </trkpt>
      <trkpt lat="45.88425" lon="5.34564">
        <ele>204.6</ele>
        <time>2023-05-27T07:36:18Z</time>
      </trkpt>
      <trkpt lat="45.88421" lon="5.34554">
        <ele>204.6</ele>
        <time>2023-05-27T07:36:19Z</time>
      </trkpt>
      <trkpt lat="45.88418" lon="5.34544">
        <ele>204.6</ele>
        <time>2023-05-27T07:36:20Z</time>
      </trkpt>
      <trkpt lat="45.88417" lon="5.34533">
        <ele>204.6</ele>
        <time>2023-05-27T07:36:21Z</time>
      </trkpt>
      <trkpt lat="45.88418" lon="5.34523">
        <ele>204.4</ele>
        <time>2023-05-27T07:36:22Z</time>
      </trkpt>
      <trkpt lat="45.88422" lon="5.34513">
        <ele>204.4</ele>
        <time>2023-05-27T07:36:23Z</time>
      </trkpt>
      <trkpt lat="45.88427" lon="5.34506">
        <ele>204.4</ele>
        <time>2023-05-27T07:36:24Z</time>
      </trkpt>
      <trkpt lat="45.88434" lon="5.34499">
        <ele>204.4</ele>
        <time>2023-05-27T07:36:25Z</time>
      </trkpt>
      <trkpt lat="45.88441" lon="5.34493">
        <ele>204.4</ele>
        <time>2023-05-27T07:36:26Z</time>
      </trkpt>
      <trkpt lat="45.88448" lon="5.34487">
        <ele>204.6</ele>
        <time>2023-05-27T07:36:27Z</time>
      </trkpt>
      <trkpt lat="45.88454" lon="5.34481">
        <ele>204.6</ele>
        <time>2023-05-27T07:36:28Z</time>
      </trkpt>
      <trkpt lat="45.88461" lon="5.34475">
        <ele>204.4</ele>
        <time>2023-05-27T07:36:29Z</time>
      </trkpt>
      <trkpt lat="45.88467" lon="5.34469">
        <ele>204.4</ele>
        <time>2023-05-27T07:36:30Z</time>
      </trkpt>
      <trkpt lat="45.88474" lon="5.34463">
        <ele>204.2</ele>
        <time>2023-05-27T07:36:31Z</time>
      </trkpt>
      <trkpt lat="45.8848" lon="5.34458">
        <ele>204.2</ele>
        <time>2023-05-27T07:36:32Z</time>
      </trkpt>
      <trkpt lat="45.88486" lon="5.34452">
        <ele>204.2</ele>
        <time>2023-05-27T07:36:33Z</time>
      </trkpt>
      <trkpt lat="45.88493" lon="5.34446">
        <ele>204.2</ele>
        <time>2023-05-27T07:36:34Z</time>
      </trkpt>
      <trkpt lat="45.88499" lon="5.3444">
        <ele>204.4</ele>
        <time>2023-05-27T07:36:35Z</time>
      </trkpt>
      <trkpt lat="45.88504" lon="5.34434">
        <ele>204.2</ele>
        <time>2023-05-27T07:36:36Z</time>
      </trkpt>
      <trkpt lat="45.88509" lon="5.34426">
        <ele>204.4</ele>
        <time>2023-05-27T07:36:37Z</time>
      </trkpt>
      <trkpt lat="45.88513" lon="5.34418">
        <ele>204.4</ele>
        <time>2023-05-27T07:36:38Z</time>
      </trkpt>
      <trkpt lat="45.88516" lon="5.34408">
        <ele>204.4</ele>
        <time>2023-05-27T07:36:39Z</time>
      </trkpt>
      <trkpt lat="45.88518" lon="5.34398">
        <ele>204.2</ele>
        <time>2023-05-27T07:36:40Z</time>
      </trkpt>
      <trkpt lat="45.8852" lon="5.34388">
        <ele>204.2</ele>
        <time>2023-05-27T07:36:41Z</time>
      </trkpt>
      <trkpt lat="45.88521" lon="5.34378">
        <ele>204.4</ele>
        <time>2023-05-27T07:36:42Z</time>
      </trkpt>
      <trkpt lat="45.88523" lon="5.34368">
        <ele>204.4</ele>
        <time>2023-05-27T07:36:43Z</time>
      </trkpt>
      <trkpt lat="45.88524" lon="5.34358">
        <ele>204.4</ele>
        <time>2023-05-27T07:36:44Z</time>
      </trkpt>
      <trkpt lat="45.88525" lon="5.34347">
        <ele>204.4</ele>
        <time>2023-05-27T07:36:45Z</time>
      </trkpt>
      <trkpt lat="45.88526" lon="5.34337">
        <ele>204.6</ele>
        <time>2023-05-27T07:36:46Z</time>
      </trkpt>
      <trkpt lat="45.88527" lon="5.34327">
        <ele>204.6</ele>
        <time>2023-05-27T07:36:47Z</time>
      </trkpt>
      <trkpt lat="45.88529" lon="5.34317">
        <ele>205</ele>
        <time>2023-05-27T07:36:48Z</time>
      </trkpt>
      <trkpt lat="45.8853" lon="5.34307">
        <ele>205.2</ele>
        <time>2023-05-27T07:36:49Z</time>
      </trkpt>
      <trkpt lat="45.88531" lon="5.34298">
        <ele>205.2</ele>
        <time>2023-05-27T07:36:50Z</time>
      </trkpt>
      <trkpt lat="45.88532" lon="5.34288">
        <ele>205.4</ele>
        <time>2023-05-27T07:36:51Z</time>
      </trkpt>
      <trkpt lat="45.88533" lon="5.34278">
        <ele>205.6</ele>
        <time>2023-05-27T07:36:52Z</time>
      </trkpt>
      <trkpt lat="45.88533" lon="5.34269">
        <ele>205.6</ele>
        <time>2023-05-27T07:36:53Z</time>
      </trkpt>
      <trkpt lat="45.88534" lon="5.34259">
        <ele>205.8</ele>
        <time>2023-05-27T07:36:54Z</time>
      </trkpt>
      <trkpt lat="45.88535" lon="5.34249">
        <ele>205.8</ele>
        <time>2023-05-27T07:36:55Z</time>
      </trkpt>
      <trkpt lat="45.88536" lon="5.34239">
        <ele>206.2</ele>
        <time>2023-05-27T07:36:56Z</time>
      </trkpt>
      <trkpt lat="45.88538" lon="5.3423">
        <ele>206.2</ele>
        <time>2023-05-27T07:36:57Z</time>
      </trkpt>
      <trkpt lat="45.88539" lon="5.3422">
        <ele>206.4</ele>
        <time>2023-05-27T07:36:58Z</time>
      </trkpt>
      <trkpt lat="45.88541" lon="5.34211">
        <ele>206.4</ele>
        <time>2023-05-27T07:36:59Z</time>
      </trkpt>
      <trkpt lat="45.88543" lon="5.34201">
        <ele>206.8</ele>
        <time>2023-05-27T07:37:00Z</time>
      </trkpt>
      <trkpt lat="45.88544" lon="5.34192">
        <ele>207</ele>
        <time>2023-05-27T07:37:01Z</time>
      </trkpt>
      <trkpt lat="45.88546" lon="5.34183">
        <ele>207.4</ele>
        <time>2023-05-27T07:37:02Z</time>
      </trkpt>
      <trkpt lat="45.88548" lon="5.34174">
        <ele>207.8</ele>
        <time>2023-05-27T07:37:03Z</time>
      </trkpt>
      <trkpt lat="45.8855" lon="5.34165">
        <ele>208</ele>
        <time>2023-05-27T07:37:04Z</time>
      </trkpt>
      <trkpt lat="45.88552" lon="5.34156">
        <ele>208.2</ele>
        <time>2023-05-27T07:37:05Z</time>
      </trkpt>
      <trkpt lat="45.88554" lon="5.34146">
        <ele>208.2</ele>
        <time>2023-05-27T07:37:06Z</time>
      </trkpt>
      <trkpt lat="45.88556" lon="5.34138">
        <ele>208.4</ele>
        <time>2023-05-27T07:37:07Z</time>
      </trkpt>
      <trkpt lat="45.88558" lon="5.34129">
        <ele>208.6</ele>
        <time>2023-05-27T07:37:08Z</time>
      </trkpt>
      <trkpt lat="45.88561" lon="5.3412">
        <ele>208.8</ele>
        <time>2023-05-27T07:37:09Z</time>
      </trkpt>
      <trkpt lat="45.88563" lon="5.34111">
        <ele>209</ele>
        <time>2023-05-27T07:37:10Z</time>
      </trkpt>
      <trkpt lat="45.88566" lon="5.34102">
        <ele>209.2</ele>
        <time>2023-05-27T07:37:11Z</time>
      </trkpt>
      <trkpt lat="45.88569" lon="5.34094">
        <ele>209.4</ele>
        <time>2023-05-27T07:37:12Z</time>
      </trkpt>
      <trkpt lat="45.88571" lon="5.34085">
        <ele>209.6</ele>
        <time>2023-05-27T07:37:13Z</time>
      </trkpt>
      <trkpt lat="45.88574" lon="5.34077">
        <ele>210</ele>
        <time>2023-05-27T07:37:14Z</time>
      </trkpt>
      <trkpt lat="45.88577" lon="5.34068">
        <ele>210</ele>
        <time>2023-05-27T07:37:15Z</time>
      </trkpt>
      <trkpt lat="45.8858" lon="5.34059">
        <ele>210.2</ele>
        <time>2023-05-27T07:37:16Z</time>
      </trkpt>
      <trkpt lat="45.88584" lon="5.3405">
        <ele>210.4</ele>
        <time>2023-05-27T07:37:17Z</time>
      </trkpt>
      <trkpt lat="45.88587" lon="5.34042">
        <ele>210.6</ele>
        <time>2023-05-27T07:37:18Z</time>
      </trkpt>
      <trkpt lat="45.8859" lon="5.34033">
        <ele>210.8</ele>
        <time>2023-05-27T07:37:19Z</time>
      </trkpt>
      <trkpt lat="45.88593" lon="5.34025">
        <ele>210.8</ele>
        <time>2023-05-27T07:37:20Z</time>
      </trkpt>
      <trkpt lat="45.88597" lon="5.34016">
        <ele>211</ele>
        <time>2023-05-27T07:37:21Z</time>
      </trkpt>
      <trkpt lat="45.886" lon="5.34008">
        <ele>211.2</ele>
        <time>2023-05-27T07:37:22Z</time>
      </trkpt>
      <trkpt lat="45.88603" lon="5.33999">
        <ele>211.2</ele>
        <time>2023-05-27T07:37:23Z</time>
      </trkpt>
      <trkpt lat="45.88606" lon="5.3399">
        <ele>211.6</ele>
        <time>2023-05-27T07:37:24Z</time>
      </trkpt>
      <trkpt lat="45.88609" lon="5.33982">
        <ele>211.6</ele>
        <time>2023-05-27T07:37:25Z</time>
      </trkpt>
      <trkpt lat="45.88612" lon="5.33973">
        <ele>211.8</ele>
        <time>2023-05-27T07:37:26Z</time>
      </trkpt>
      <trkpt lat="45.88615" lon="5.33964">
        <ele>211.8</ele>
        <time>2023-05-27T07:37:27Z</time>
      </trkpt>
      <trkpt lat="45.88619" lon="5.33956">
        <ele>212</ele>
        <time>2023-05-27T07:37:28Z</time>
      </trkpt>
      <trkpt lat="45.88622" lon="5.33947">
        <ele>212</ele>
        <time>2023-05-27T07:37:29Z</time>
      </trkpt>
      <trkpt lat="45.88625" lon="5.33939">
        <ele>212</ele>
        <time>2023-05-27T07:37:30Z</time>
      </trkpt>
      <trkpt lat="45.88628" lon="5.3393">
        <ele>211.8</ele>
        <time>2023-05-27T07:37:31Z</time>
      </trkpt>
      <trkpt lat="45.88632" lon="5.33922">
        <ele>211.8</ele>
        <time>2023-05-27T07:37:32Z</time>
      </trkpt>
      <trkpt lat="45.88635" lon="5.33913">
        <ele>211.6</ele>
        <time>2023-05-27T07:37:33Z</time>
      </trkpt>
      <trkpt lat="45.88638" lon="5.33904">
        <ele>211.6</ele>
        <time>2023-05-27T07:37:34Z</time>
      </trkpt>
      <trkpt lat="45.88641" lon="5.33896">
        <ele>211.6</ele>
        <time>2023-05-27T07:37:35Z</time>
      </trkpt>
      <trkpt lat="45.88644" lon="5.33887">
        <ele>211.6</ele>
        <time>2023-05-27T07:37:36Z</time>
      </trkpt>
      <trkpt lat="45.88647" lon="5.33879">
        <ele>211.6</ele>
        <time>2023-05-27T07:37:37Z</time>
      </trkpt>
      <trkpt lat="45.8865" lon="5.3387">
        <ele>211.6</ele>
        <time>2023-05-27T07:37:38Z</time>
      </trkpt>
      <trkpt lat="45.88654" lon="5.33862">
        <ele>211.6</ele>
        <time>2023-05-27T07:37:39Z</time>
      </trkpt>
      <trkpt lat="45.88657" lon="5.33853">
        <ele>211.6</ele>
        <time>2023-05-27T07:37:40Z</time>
      </trkpt>
      <trkpt lat="45.8866" lon="5.33845">
        <ele>211.6</ele>
        <time>2023-05-27T07:37:41Z</time>
      </trkpt>
      <trkpt lat="45.88664" lon="5.33837">
        <ele>211.6</ele>
        <time>2023-05-27T07:37:42Z</time>
      </trkpt>
      <trkpt lat="45.88667" lon="5.33828">
        <ele>211.6</ele>
        <time>2023-05-27T07:37:43Z</time>
      </trkpt>
      <trkpt lat="45.88671" lon="5.3382">
        <ele>211.6</ele>
        <time>2023-05-27T07:37:44Z</time>
      </trkpt>
      <trkpt lat="45.88674" lon="5.33812">
        <ele>211.6</ele>
        <time>2023-05-27T07:37:45Z</time>
      </trkpt>
      <trkpt lat="45.88677" lon="5.33804">
        <ele>211.6</ele>
        <time>2023-05-27T07:37:46Z</time>
      </trkpt>
      <trkpt lat="45.88681" lon="5.33795">
        <ele>211.8</ele>
        <time>2023-05-27T07:37:47Z</time>
      </trkpt>
      <trkpt lat="45.88684" lon="5.33788">
        <ele>211.8</ele>
        <time>2023-05-27T07:37:48Z</time>
      </trkpt>
      <trkpt lat="45.88688" lon="5.3378">
        <ele>211.8</ele>
        <time>2023-05-27T07:37:49Z</time>
      </trkpt>
      <trkpt lat="45.88692" lon="5.33773">
        <ele>211.8</ele>
        <time>2023-05-27T07:37:50Z</time>
      </trkpt>
      <trkpt lat="45.88696" lon="5.33765">
        <ele>211.8</ele>
        <time>2023-05-27T07:37:51Z</time>
      </trkpt>
      <trkpt lat="45.887" lon="5.33758">
        <ele>211.8</ele>
        <time>2023-05-27T07:37:52Z</time>
      </trkpt>
      <trkpt lat="45.88704" lon="5.33751">
        <ele>211.8</ele>
        <time>2023-05-27T07:37:53Z</time>
      </trkpt>
      <trkpt lat="45.88708" lon="5.33744">
        <ele>211.8</ele>
        <time>2023-05-27T07:37:54Z</time>
      </trkpt>
      <trkpt lat="45.88712" lon="5.33737">
        <ele>211.8</ele>
        <time>2023-05-27T07:37:55Z</time>
      </trkpt>
      <trkpt lat="45.88716" lon="5.33731">
        <ele>212</ele>
        <time>2023-05-27T07:37:56Z</time>
      </trkpt>
      <trkpt lat="45.8872" lon="5.33724">
        <ele>212</ele>
        <time>2023-05-27T07:37:57Z</time>
      </trkpt>
      <trkpt lat="45.88723" lon="5.33717">
        <ele>212.2</ele>
        <time>2023-05-27T07:37:58Z</time>
      </trkpt>
      <trkpt lat="45.88726" lon="5.3371">
        <ele>212.6</ele>
        <time>2023-05-27T07:37:59Z</time>
      </trkpt>
      <trkpt lat="45.88729" lon="5.33703">
        <ele>212.8</ele>
        <time>2023-05-27T07:38:00Z</time>
      </trkpt>
      <trkpt lat="45.88732" lon="5.33697">
        <ele>213.2</ele>
        <time>2023-05-27T07:38:01Z</time>
      </trkpt>
      <trkpt lat="45.88734" lon="5.3369">
        <ele>213.4</ele>
        <time>2023-05-27T07:38:02Z</time>
      </trkpt>
      <trkpt lat="45.88737" lon="5.33683">
        <ele>213.6</ele>
        <time>2023-05-27T07:38:03Z</time>
      </trkpt>
      <trkpt lat="45.88739" lon="5.33676">
        <ele>213.8</ele>
        <time>2023-05-27T07:38:04Z</time>
      </trkpt>
      <trkpt lat="45.88742" lon="5.33669">
        <ele>214.2</ele>
        <time>2023-05-27T07:38:05Z</time>
      </trkpt>
      <trkpt lat="45.88744" lon="5.33661">
        <ele>214.6</ele>
        <time>2023-05-27T07:38:06Z</time>
      </trkpt>
      <trkpt lat="45.88746" lon="5.33654">
        <ele>214.6</ele>
        <time>2023-05-27T07:38:07Z</time>
      </trkpt>
      <trkpt lat="45.88747" lon="5.33646">
        <ele>214.8</ele>
        <time>2023-05-27T07:38:08Z</time>
      </trkpt>
      <trkpt lat="45.88749" lon="5.33638">
        <ele>215</ele>
        <time>2023-05-27T07:38:09Z</time>
      </trkpt>
      <trkpt lat="45.88751" lon="5.33631">
        <ele>215</ele>
        <time>2023-05-27T07:38:10Z</time>
      </trkpt>
      <trkpt lat="45.88753" lon="5.33623">
        <ele>215.2</ele>
        <time>2023-05-27T07:38:11Z</time>
      </trkpt>
      <trkpt lat="45.88755" lon="5.33616">
        <ele>215.4</ele>
        <time>2023-05-27T07:38:12Z</time>
      </trkpt>
      <trkpt lat="45.88757" lon="5.33608">
        <ele>216</ele>
        <time>2023-05-27T07:38:13Z</time>
      </trkpt>
      <trkpt lat="45.88759" lon="5.33601">
        <ele>216.2</ele>
        <time>2023-05-27T07:38:14Z</time>
      </trkpt>
      <trkpt lat="45.88762" lon="5.33593">
        <ele>216.6</ele>
        <time>2023-05-27T07:38:15Z</time>
      </trkpt>
      <trkpt lat="45.88764" lon="5.33585">
        <ele>216.8</ele>
        <time>2023-05-27T07:38:16Z</time>
      </trkpt>
      <trkpt lat="45.88767" lon="5.33578">
        <ele>217</ele>
        <time>2023-05-27T07:38:17Z</time>
      </trkpt>
      <trkpt lat="45.8877" lon="5.3357">
        <ele>217</ele>
        <time>2023-05-27T07:38:18Z</time>
      </trkpt>
      <trkpt lat="45.88773" lon="5.33563">
        <ele>217.2</ele>
        <time>2023-05-27T07:38:19Z</time>
      </trkpt>
      <trkpt lat="45.88776" lon="5.33555">
        <ele>217.4</ele>
        <time>2023-05-27T07:38:20Z</time>
      </trkpt>
      <trkpt lat="45.8878" lon="5.33548">
        <ele>217.6</ele>
        <time>2023-05-27T07:38:21Z</time>
      </trkpt>
      <trkpt lat="45.88784" lon="5.3354">
        <ele>217.6</ele>
        <time>2023-05-27T07:38:22Z</time>
      </trkpt>
      <trkpt lat="45.88788" lon="5.33533">
        <ele>217.8</ele>
        <time>2023-05-27T07:38:23Z</time>
      </trkpt>
      <trkpt lat="45.88792" lon="5.33526">
        <ele>218</ele>
        <time>2023-05-27T07:38:24Z</time>
      </trkpt>
      <trkpt lat="45.88795" lon="5.33519">
        <ele>218</ele>
        <time>2023-05-27T07:38:25Z</time>
      </trkpt>
      <trkpt lat="45.88799" lon="5.33512">
        <ele>218.2</ele>
        <time>2023-05-27T07:38:26Z</time>
      </trkpt>
      <trkpt lat="45.88803" lon="5.33505">
        <ele>218.4</ele>
        <time>2023-05-27T07:38:27Z</time>
      </trkpt>
      <trkpt lat="45.88807" lon="5.33498">
        <ele>218.6</ele>
        <time>2023-05-27T07:38:28Z</time>
      </trkpt>
      <trkpt lat="45.88811" lon="5.33491">
        <ele>218.6</ele>
        <time>2023-05-27T07:38:29Z</time>
      </trkpt>
      <trkpt lat="45.88815" lon="5.33484">
        <ele>218.8</ele>
        <time>2023-05-27T07:38:30Z</time>
      </trkpt>
      <trkpt lat="45.88819" lon="5.33477">
        <ele>218.8</ele>
        <time>2023-05-27T07:38:31Z</time>
      </trkpt>
      <trkpt lat="45.88823" lon="5.3347">
        <ele>218.8</ele>
        <time>2023-05-27T07:38:32Z</time>
      </trkpt>
      <trkpt lat="45.88827" lon="5.33462">
        <ele>219</ele>
        <time>2023-05-27T07:38:33Z</time>
      </trkpt>
      <trkpt lat="45.88831" lon="5.33455">
        <ele>219.2</ele>
        <time>2023-05-27T07:38:34Z</time>
      </trkpt>
      <trkpt lat="45.88835" lon="5.33448">
        <ele>219.2</ele>
        <time>2023-05-27T07:38:35Z</time>
      </trkpt>
      <trkpt lat="45.8884" lon="5.33442">
        <ele>219.4</ele>
        <time>2023-05-27T07:38:36Z</time>
      </trkpt>
      <trkpt lat="45.88843" lon="5.33434">
        <ele>219.4</ele>
        <time>2023-05-27T07:38:37Z</time>
      </trkpt>
      <trkpt lat="45.88847" lon="5.33427">
        <ele>219.6</ele>
        <time>2023-05-27T07:38:38Z</time>
      </trkpt>
      <trkpt lat="45.88851" lon="5.3342">
        <ele>219.6</ele>
        <time>2023-05-27T07:38:39Z</time>
      </trkpt>
      <trkpt lat="45.88855" lon="5.33413">
        <ele>220</ele>
        <time>2023-05-27T07:38:40Z</time>
      </trkpt>
      <trkpt lat="45.88858" lon="5.33405">
        <ele>220.2</ele>
        <time>2023-05-27T07:38:41Z</time>
      </trkpt>
      <trkpt lat="45.88862" lon="5.33398">
        <ele>220.2</ele>
        <time>2023-05-27T07:38:42Z</time>
      </trkpt>
      <trkpt lat="45.88865" lon="5.3339">
        <ele>220.4</ele>
        <time>2023-05-27T07:38:43Z</time>
      </trkpt>
      <trkpt lat="45.88868" lon="5.33382">
        <ele>220.4</ele>
        <time>2023-05-27T07:38:44Z</time>
      </trkpt>
      <trkpt lat="45.88872" lon="5.33374">
        <ele>220.6</ele>
        <time>2023-05-27T07:38:45Z</time>
      </trkpt>
      <trkpt lat="45.88875" lon="5.33366">
        <ele>220.6</ele>
        <time>2023-05-27T07:38:46Z</time>
      </trkpt>
      <trkpt lat="45.88879" lon="5.33358">
        <ele>220.8</ele>
        <time>2023-05-27T07:38:47Z</time>
      </trkpt>
      <trkpt lat="45.88882" lon="5.33349">
        <ele>220.8</ele>
        <time>2023-05-27T07:38:48Z</time>
      </trkpt>
      <trkpt lat="45.88885" lon="5.33339">
        <ele>220.8</ele>
        <time>2023-05-27T07:38:49Z</time>
      </trkpt>
      <trkpt lat="45.88887" lon="5.33329">
        <ele>221</ele>
        <time>2023-05-27T07:38:50Z</time>
      </trkpt>
      <trkpt lat="45.88889" lon="5.33318">
        <ele>221</ele>
        <time>2023-05-27T07:38:51Z</time>
      </trkpt>
      <trkpt lat="45.8889" lon="5.33306">
        <ele>221</ele>
        <time>2023-05-27T07:38:52Z</time>
      </trkpt>
      <trkpt lat="45.8889" lon="5.33295">
        <ele>221</ele>
        <time>2023-05-27T07:38:53Z</time>
      </trkpt>
      <trkpt lat="45.88888" lon="5.33284">
        <ele>221</ele>
        <time>2023-05-27T07:38:54Z</time>
      </trkpt>
      <trkpt lat="45.88887" lon="5.33273">
        <ele>221</ele>
        <time>2023-05-27T07:38:55Z</time>
      </trkpt>
      <trkpt lat="45.88884" lon="5.33262">
        <ele>221</ele>
        <time>2023-05-27T07:38:56Z</time>
      </trkpt>
      <trkpt lat="45.88882" lon="5.33251">
        <ele>221.2</ele>
        <time>2023-05-27T07:38:57Z</time>
      </trkpt>
      <trkpt lat="45.88879" lon="5.3324">
        <ele>221.2</ele>
        <time>2023-05-27T07:38:58Z</time>
      </trkpt>
      <trkpt lat="45.88876" lon="5.3323">
        <ele>221.2</ele>
        <time>2023-05-27T07:38:59Z</time>
      </trkpt>
      <trkpt lat="45.88873" lon="5.33219">
        <ele>221.2</ele>
        <time>2023-05-27T07:39:00Z</time>
      </trkpt>
      <trkpt lat="45.8887" lon="5.33208">
        <ele>221.4</ele>
        <time>2023-05-27T07:39:01Z</time>
      </trkpt>
      <trkpt lat="45.88868" lon="5.33197">
        <ele>221.4</ele>
        <time>2023-05-27T07:39:02Z</time>
      </trkpt>
      <trkpt lat="45.88865" lon="5.33186">
        <ele>221.2</ele>
        <time>2023-05-27T07:39:03Z</time>
      </trkpt>
      <trkpt lat="45.88862" lon="5.33176">
        <ele>221.2</ele>
        <time>2023-05-27T07:39:04Z</time>
      </trkpt>
      <trkpt lat="45.8886" lon="5.33165">
        <ele>221.2</ele>
        <time>2023-05-27T07:39:05Z</time>
      </trkpt>
      <trkpt lat="45.88857" lon="5.33154">
        <ele>221.2</ele>
        <time>2023-05-27T07:39:06Z</time>
      </trkpt>
      <trkpt lat="45.88854" lon="5.33143">
        <ele>221</ele>
        <time>2023-05-27T07:39:07Z</time>
      </trkpt>
      <trkpt lat="45.88851" lon="5.33132">
        <ele>221</ele>
        <time>2023-05-27T07:39:08Z</time>
      </trkpt>
      <trkpt lat="45.88848" lon="5.33122">
        <ele>220.8</ele>
        <time>2023-05-27T07:39:09Z</time>
      </trkpt>
      <trkpt lat="45.88845" lon="5.3311">
        <ele>220.8</ele>
        <time>2023-05-27T07:39:10Z</time>
      </trkpt>
      <trkpt lat="45.88842" lon="5.33099">
        <ele>220.6</ele>
        <time>2023-05-27T07:39:11Z</time>
      </trkpt>
      <trkpt lat="45.8884" lon="5.33088">
        <ele>220.6</ele>
        <time>2023-05-27T07:39:12Z</time>
      </trkpt>
      <trkpt lat="45.88837" lon="5.33076">
        <ele>220.4</ele>
        <time>2023-05-27T07:39:13Z</time>
      </trkpt>
      <trkpt lat="45.88835" lon="5.33064">
        <ele>220.4</ele>
        <time>2023-05-27T07:39:14Z</time>
      </trkpt>
      <trkpt lat="45.88833" lon="5.33052">
        <ele>220.2</ele>
        <time>2023-05-27T07:39:15Z</time>
      </trkpt>
      <trkpt lat="45.88831" lon="5.3304">
        <ele>220.2</ele>
        <time>2023-05-27T07:39:16Z</time>
      </trkpt>
      <trkpt lat="45.88829" lon="5.33028">
        <ele>220</ele>
        <time>2023-05-27T07:39:17Z</time>
      </trkpt>
      <trkpt lat="45.88828" lon="5.33015">
        <ele>220</ele>
        <time>2023-05-27T07:39:18Z</time>
      </trkpt>
      <trkpt lat="45.88828" lon="5.33002">
        <ele>219.8</ele>
        <time>2023-05-27T07:39:19Z</time>
      </trkpt>
      <trkpt lat="45.88828" lon="5.32989">
        <ele>219.6</ele>
        <time>2023-05-27T07:39:20Z</time>
      </trkpt>
      <trkpt lat="45.88829" lon="5.32976">
        <ele>219.4</ele>
        <time>2023-05-27T07:39:21Z</time>
      </trkpt>
      <trkpt lat="45.88831" lon="5.32963">
        <ele>219.2</ele>
        <time>2023-05-27T07:39:22Z</time>
      </trkpt>
      <trkpt lat="45.88833" lon="5.3295">
        <ele>219</ele>
        <time>2023-05-27T07:39:23Z</time>
      </trkpt>
      <trkpt lat="45.88836" lon="5.32938">
        <ele>218.8</ele>
        <time>2023-05-27T07:39:24Z</time>
      </trkpt>
      <trkpt lat="45.8884" lon="5.32926">
        <ele>218.8</ele>
        <time>2023-05-27T07:39:25Z</time>
      </trkpt>
      <trkpt lat="45.88843" lon="5.32918">
        <ele>218.8</ele>
        <time>2023-05-27T07:39:26Z</time>
      </trkpt>
      <trkpt lat="45.88846" lon="5.3291">
        <ele>218.6</ele>
        <time>2023-05-27T07:39:27Z</time>
      </trkpt>
      <trkpt lat="45.8885" lon="5.32901">
        <ele>218.4</ele>
        <time>2023-05-27T07:39:28Z</time>
      </trkpt>
      <trkpt lat="45.88853" lon="5.32896">
        <ele>218.2</ele>
        <time>2023-05-27T07:39:29Z</time>
      </trkpt>
      <trkpt lat="45.88855" lon="5.32892">
        <ele>218</ele>
        <time>2023-05-27T07:39:30Z</time>
      </trkpt>
      <trkpt lat="45.88856" lon="5.3289">
        <ele>218</ele>
        <time>2023-05-27T07:39:31Z</time>
      </trkpt>
      <trkpt lat="45.88858" lon="5.32888">
        <ele>217.6</ele>
        <time>2023-05-27T07:39:32Z</time>
      </trkpt>
      <trkpt lat="45.88861" lon="5.32887">
        <ele>217.6</ele>
        <time>2023-05-27T07:39:33Z</time>
      </trkpt>
      <trkpt lat="45.88863" lon="5.32889">
        <ele>217.4</ele>
        <time>2023-05-27T07:39:34Z</time>
      </trkpt>
      <trkpt lat="45.88867" lon="5.32892">
        <ele>217.4</ele>
        <time>2023-05-27T07:39:35Z</time>
      </trkpt>
      <trkpt lat="45.8887" lon="5.32895">
        <ele>217.2</ele>
        <time>2023-05-27T07:39:36Z</time>
      </trkpt>
      <trkpt lat="45.88875" lon="5.32901">
        <ele>216.8</ele>
        <time>2023-05-27T07:39:37Z</time>
      </trkpt>
      <trkpt lat="45.8888" lon="5.32905">
        <ele>216.6</ele>
        <time>2023-05-27T07:39:38Z</time>
      </trkpt>
      <trkpt lat="45.88885" lon="5.32909">
        <ele>216.4</ele>
        <time>2023-05-27T07:39:39Z</time>
      </trkpt>
      <trkpt lat="45.8889" lon="5.32914">
        <ele>216.2</ele>
        <time>2023-05-27T07:39:40Z</time>
      </trkpt>
      <trkpt lat="45.88895" lon="5.32919">
        <ele>215.8</ele>
        <time>2023-05-27T07:39:41Z</time>
      </trkpt>
      <trkpt lat="45.889" lon="5.32924">
        <ele>215.4</ele>
        <time>2023-05-27T07:39:42Z</time>
      </trkpt>
      <trkpt lat="45.88905" lon="5.3293">
        <ele>215.2</ele>
        <time>2023-05-27T07:39:43Z</time>
      </trkpt>
      <trkpt lat="45.88909" lon="5.32937">
        <ele>214.8</ele>
        <time>2023-05-27T07:39:44Z</time>
      </trkpt>
      <trkpt lat="45.88914" lon="5.32944">
        <ele>214.6</ele>
        <time>2023-05-27T07:39:45Z</time>
      </trkpt>
      <trkpt lat="45.88919" lon="5.32951">
        <ele>214.2</ele>
        <time>2023-05-27T07:39:46Z</time>
      </trkpt>
      <trkpt lat="45.88923" lon="5.32959">
        <ele>214</ele>
        <time>2023-05-27T07:39:47Z</time>
      </trkpt>
      <trkpt lat="45.88927" lon="5.32967">
        <ele>213.8</ele>
        <time>2023-05-27T07:39:48Z</time>
      </trkpt>
      <trkpt lat="45.88931" lon="5.32975">
        <ele>213.6</ele>
        <time>2023-05-27T07:39:49Z</time>
      </trkpt>
      <trkpt lat="45.88936" lon="5.32984">
        <ele>213.4</ele>
        <time>2023-05-27T07:39:50Z</time>
      </trkpt>
      <trkpt lat="45.8894" lon="5.32993">
        <ele>213.2</ele>
        <time>2023-05-27T07:39:51Z</time>
      </trkpt>
      <trkpt lat="45.88944" lon="5.33002">
        <ele>213.2</ele>
        <time>2023-05-27T07:39:52Z</time>
      </trkpt>
      <trkpt lat="45.88948" lon="5.33011">
        <ele>213.2</ele>
        <time>2023-05-27T07:39:53Z</time>
      </trkpt>
      <trkpt lat="45.88951" lon="5.3302">
        <ele>213</ele>
        <time>2023-05-27T07:39:54Z</time>
      </trkpt>
      <trkpt lat="45.88955" lon="5.3303">
        <ele>213</ele>
        <time>2023-05-27T07:39:55Z</time>
      </trkpt>
      <trkpt lat="45.88958" lon="5.33039">
        <ele>212.8</ele>
        <time>2023-05-27T07:39:56Z</time>
      </trkpt>
      <trkpt lat="45.88961" lon="5.33048">
        <ele>212.8</ele>
        <time>2023-05-27T07:39:57Z</time>
      </trkpt>
      <trkpt lat="45.88964" lon="5.33057">
        <ele>212.8</ele>
        <time>2023-05-27T07:39:58Z</time>
      </trkpt>
      <trkpt lat="45.88967" lon="5.33067">
        <ele>212.8</ele>
        <time>2023-05-27T07:39:59Z</time>
      </trkpt>
      <trkpt lat="45.8897" lon="5.33077">
        <ele>212.8</ele>
        <time>2023-05-27T07:40:00Z</time>
      </trkpt>
      <trkpt lat="45.88973" lon="5.33087">
        <ele>212.8</ele>
        <time>2023-05-27T07:40:01Z</time>
      </trkpt>
      <trkpt lat="45.88976" lon="5.33097">
        <ele>212.8</ele>
        <time>2023-05-27T07:40:02Z</time>
      </trkpt>
      <trkpt lat="45.88979" lon="5.33107">
        <ele>212.8</ele>
        <time>2023-05-27T07:40:03Z</time>
      </trkpt>
      <trkpt lat="45.88982" lon="5.33118">
        <ele>212.8</ele>
        <time>2023-05-27T07:40:04Z</time>
      </trkpt>
      <trkpt lat="45.88985" lon="5.33128">
        <ele>213</ele>
        <time>2023-05-27T07:40:05Z</time>
      </trkpt>
      <trkpt lat="45.88988" lon="5.33138">
        <ele>213</ele>
        <time>2023-05-27T07:40:06Z</time>
      </trkpt>
      <trkpt lat="45.8899" lon="5.33148">
        <ele>213</ele>
        <time>2023-05-27T07:40:07Z</time>
      </trkpt>
      <trkpt lat="45.88993" lon="5.33158">
        <ele>213</ele>
        <time>2023-05-27T07:40:08Z</time>
      </trkpt>
      <trkpt lat="45.88996" lon="5.33169">
        <ele>213.2</ele>
        <time>2023-05-27T07:40:09Z</time>
      </trkpt>
      <trkpt lat="45.88999" lon="5.33179">
        <ele>213.2</ele>
        <time>2023-05-27T07:40:10Z</time>
      </trkpt>
      <trkpt lat="45.89002" lon="5.33189">
        <ele>213.2</ele>
        <time>2023-05-27T07:40:11Z</time>
      </trkpt>
      <trkpt lat="45.89005" lon="5.33199">
        <ele>213.2</ele>
        <time>2023-05-27T07:40:12Z</time>
      </trkpt>
      <trkpt lat="45.89008" lon="5.33209">
        <ele>213.2</ele>
        <time>2023-05-27T07:40:13Z</time>
      </trkpt>
      <trkpt lat="45.89011" lon="5.3322">
        <ele>213.2</ele>
        <time>2023-05-27T07:40:14Z</time>
      </trkpt>
      <trkpt lat="45.89014" lon="5.3323">
        <ele>213.2</ele>
        <time>2023-05-27T07:40:15Z</time>
      </trkpt>
      <trkpt lat="45.89017" lon="5.33241">
        <ele>213.2</ele>
        <time>2023-05-27T07:40:16Z</time>
      </trkpt>
      <trkpt lat="45.89021" lon="5.33251">
        <ele>213.4</ele>
        <time>2023-05-27T07:40:17Z</time>
      </trkpt>
      <trkpt lat="45.89024" lon="5.33261">
        <ele>213.4</ele>
        <time>2023-05-27T07:40:18Z</time>
      </trkpt>
      <trkpt lat="45.89028" lon="5.33271">
        <ele>213.4</ele>
        <time>2023-05-27T07:40:19Z</time>
      </trkpt>
      <trkpt lat="45.89032" lon="5.3328">
        <ele>213.4</ele>
        <time>2023-05-27T07:40:20Z</time>
      </trkpt>
      <trkpt lat="45.89036" lon="5.3329">
        <ele>213.6</ele>
        <time>2023-05-27T07:40:21Z</time>
      </trkpt>
      <trkpt lat="45.89039" lon="5.33299">
        <ele>213.6</ele>
        <time>2023-05-27T07:40:22Z</time>
      </trkpt>
      <trkpt lat="45.89043" lon="5.33308">
        <ele>213.8</ele>
        <time>2023-05-27T07:40:23Z</time>
      </trkpt>
      <trkpt lat="45.89047" lon="5.33318">
        <ele>213.8</ele>
        <time>2023-05-27T07:40:24Z</time>
      </trkpt>
      <trkpt lat="45.89051" lon="5.33327">
        <ele>214</ele>
        <time>2023-05-27T07:40:25Z</time>
      </trkpt>
      <trkpt lat="45.89055" lon="5.33336">
        <ele>214</ele>
        <time>2023-05-27T07:40:26Z</time>
      </trkpt>
      <trkpt lat="45.89059" lon="5.33346">
        <ele>214</ele>
        <time>2023-05-27T07:40:27Z</time>
      </trkpt>
      <trkpt lat="45.89062" lon="5.33354">
        <ele>214.2</ele>
        <time>2023-05-27T07:40:28Z</time>
      </trkpt>
      <trkpt lat="45.89066" lon="5.33363">
        <ele>214.2</ele>
        <time>2023-05-27T07:40:29Z</time>
      </trkpt>
      <trkpt lat="45.8907" lon="5.33372">
        <ele>214.2</ele>
        <time>2023-05-27T07:40:30Z</time>
      </trkpt>
      <trkpt lat="45.89074" lon="5.33381">
        <ele>214.2</ele>
        <time>2023-05-27T07:40:31Z</time>
      </trkpt>
      <trkpt lat="45.89078" lon="5.3339">
        <ele>214.2</ele>
        <time>2023-05-27T07:40:32Z</time>
      </trkpt>
      <trkpt lat="45.89082" lon="5.334">
        <ele>214.2</ele>
        <time>2023-05-27T07:40:33Z</time>
      </trkpt>
      <trkpt lat="45.89086" lon="5.33409">
        <ele>214.4</ele>
        <time>2023-05-27T07:40:34Z</time>
      </trkpt>
      <trkpt lat="45.8909" lon="5.33418">
        <ele>214.4</ele>
        <time>2023-05-27T07:40:35Z</time>
      </trkpt>
      <trkpt lat="45.89093" lon="5.33427">
        <ele>214.4</ele>
        <time>2023-05-27T07:40:36Z</time>
      </trkpt>
      <trkpt lat="45.89097" lon="5.33435">
        <ele>214.6</ele>
        <time>2023-05-27T07:40:37Z</time>
      </trkpt>
      <trkpt lat="45.891" lon="5.33445">
        <ele>214.8</ele>
        <time>2023-05-27T07:40:38Z</time>
      </trkpt>
      <trkpt lat="45.89104" lon="5.33454">
        <ele>215</ele>
        <time>2023-05-27T07:40:39Z</time>
      </trkpt>
      <trkpt lat="45.89107" lon="5.33463">
        <ele>215</ele>
        <time>2023-05-27T07:40:40Z</time>
      </trkpt>
      <trkpt lat="45.8911" lon="5.33471">
        <ele>215.2</ele>
        <time>2023-05-27T07:40:41Z</time>
      </trkpt>
      <trkpt lat="45.89113" lon="5.3348">
        <ele>215.2</ele>
        <time>2023-05-27T07:40:42Z</time>
      </trkpt>
      <trkpt lat="45.89115" lon="5.33489">
        <ele>215.2</ele>
        <time>2023-05-27T07:40:43Z</time>
      </trkpt>
      <trkpt lat="45.89117" lon="5.33496">
        <ele>215.2</ele>
        <time>2023-05-27T07:40:44Z</time>
      </trkpt>
      <trkpt lat="45.89121" lon="5.33507">
        <ele>215.4</ele>
        <time>2023-05-27T07:40:45Z</time>
      </trkpt>
      <trkpt lat="45.89123" lon="5.33514">
        <ele>215.4</ele>
        <time>2023-05-27T07:40:46Z</time>
      </trkpt>
      <trkpt lat="45.89126" lon="5.33523">
        <ele>215.6</ele>
        <time>2023-05-27T07:40:47Z</time>
      </trkpt>
      <trkpt lat="45.89129" lon="5.33534">
        <ele>215.6</ele>
        <time>2023-05-27T07:40:48Z</time>
      </trkpt>
      <trkpt lat="45.89132" lon="5.33543">
        <ele>215.8</ele>
        <time>2023-05-27T07:40:49Z</time>
      </trkpt>
      <trkpt lat="45.89135" lon="5.33553">
        <ele>215.8</ele>
        <time>2023-05-27T07:40:50Z</time>
      </trkpt>
      <trkpt lat="45.89137" lon="5.33561">
        <ele>216</ele>
        <time>2023-05-27T07:40:51Z</time>
      </trkpt>
      <trkpt lat="45.89139" lon="5.33571">
        <ele>216.2</ele>
        <time>2023-05-27T07:40:52Z</time>
      </trkpt>
      <trkpt lat="45.89141" lon="5.3358">
        <ele>216.2</ele>
        <time>2023-05-27T07:40:53Z</time>
      </trkpt>
      <trkpt lat="45.89144" lon="5.33592">
        <ele>216.4</ele>
        <time>2023-05-27T07:40:54Z</time>
      </trkpt>
      <trkpt lat="45.89145" lon="5.33602">
        <ele>216.6</ele>
        <time>2023-05-27T07:40:55Z</time>
      </trkpt>
      <trkpt lat="45.89147" lon="5.33611">
        <ele>216.8</ele>
        <time>2023-05-27T07:40:56Z</time>
      </trkpt>
      <trkpt lat="45.89148" lon="5.33621">
        <ele>216.8</ele>
        <time>2023-05-27T07:40:57Z</time>
      </trkpt>
      <trkpt lat="45.8915" lon="5.33634">
        <ele>217</ele>
        <time>2023-05-27T07:40:58Z</time>
      </trkpt>
      <trkpt lat="45.89152" lon="5.33644">
        <ele>217.2</ele>
        <time>2023-05-27T07:40:59Z</time>
      </trkpt>
      <trkpt lat="45.89153" lon="5.33655">
        <ele>217.2</ele>
        <time>2023-05-27T07:41:00Z</time>
      </trkpt>
      <trkpt lat="45.89155" lon="5.33663">
        <ele>217.2</ele>
        <time>2023-05-27T07:41:01Z</time>
      </trkpt>
      <trkpt lat="45.89156" lon="5.33674">
        <ele>217.4</ele>
        <time>2023-05-27T07:41:02Z</time>
      </trkpt>
      <trkpt lat="45.89158" lon="5.33685">
        <ele>217.4</ele>
        <time>2023-05-27T07:41:03Z</time>
      </trkpt>
      <trkpt lat="45.89162" lon="5.33708">
        <ele>217.8</ele>
        <time>2023-05-27T07:41:05Z</time>
      </trkpt>
      <trkpt lat="45.89164" lon="5.33717">
        <ele>217.8</ele>
        <time>2023-05-27T07:41:06Z</time>
      </trkpt>
      <trkpt lat="45.89166" lon="5.33729">
        <ele>217.8</ele>
        <time>2023-05-27T07:41:07Z</time>
      </trkpt>
      <trkpt lat="45.89168" lon="5.3374">
        <ele>217.8</ele>
        <time>2023-05-27T07:41:08Z</time>
      </trkpt>
      <trkpt lat="45.89171" lon="5.33753">
        <ele>217.8</ele>
        <time>2023-05-27T07:41:09Z</time>
      </trkpt>
      <trkpt lat="45.89173" lon="5.33764">
        <ele>218</ele>
        <time>2023-05-27T07:41:10Z</time>
      </trkpt>
      <trkpt lat="45.89175" lon="5.33774">
        <ele>218</ele>
        <time>2023-05-27T07:41:11Z</time>
      </trkpt>
      <trkpt lat="45.89177" lon="5.33786">
        <ele>217.8</ele>
        <time>2023-05-27T07:41:12Z</time>
      </trkpt>
      <trkpt lat="45.8918" lon="5.33798">
        <ele>217.8</ele>
        <time>2023-05-27T07:41:13Z</time>
      </trkpt>
      <trkpt lat="45.89183" lon="5.33812">
        <ele>217.8</ele>
        <time>2023-05-27T07:41:14Z</time>
      </trkpt>
      <trkpt lat="45.89186" lon="5.33823">
        <ele>217.8</ele>
        <time>2023-05-27T07:41:15Z</time>
      </trkpt>
      <trkpt lat="45.89188" lon="5.33831">
        <ele>217.8</ele>
        <time>2023-05-27T07:41:16Z</time>
      </trkpt>
      <trkpt lat="45.89191" lon="5.33842">
        <ele>217.8</ele>
        <time>2023-05-27T07:41:17Z</time>
      </trkpt>
      <trkpt lat="45.89194" lon="5.33853">
        <ele>217.8</ele>
        <time>2023-05-27T07:41:18Z</time>
      </trkpt>
      <trkpt lat="45.89198" lon="5.33866">
        <ele>217.8</ele>
        <time>2023-05-27T07:41:19Z</time>
      </trkpt>
      <trkpt lat="45.89201" lon="5.33877">
        <ele>217.6</ele>
        <time>2023-05-27T07:41:20Z</time>
      </trkpt>
      <trkpt lat="45.89204" lon="5.33888">
        <ele>217.6</ele>
        <time>2023-05-27T07:41:21Z</time>
      </trkpt>
      <trkpt lat="45.89206" lon="5.33898">
        <ele>217.4</ele>
        <time>2023-05-27T07:41:22Z</time>
      </trkpt>
      <trkpt lat="45.89209" lon="5.33909">
        <ele>217.4</ele>
        <time>2023-05-27T07:41:23Z</time>
      </trkpt>
      <trkpt lat="45.89211" lon="5.33923">
        <ele>217.4</ele>
        <time>2023-05-27T07:41:24Z</time>
      </trkpt>
      <trkpt lat="45.89212" lon="5.33934">
        <ele>217.4</ele>
        <time>2023-05-27T07:41:25Z</time>
      </trkpt>
      <trkpt lat="45.89213" lon="5.33945">
        <ele>217.4</ele>
        <time>2023-05-27T07:41:26Z</time>
      </trkpt>
      <trkpt lat="45.89214" lon="5.33957">
        <ele>217.4</ele>
        <time>2023-05-27T07:41:27Z</time>
      </trkpt>
      <trkpt lat="45.89214" lon="5.33968">
        <ele>217.4</ele>
        <time>2023-05-27T07:41:28Z</time>
      </trkpt>
      <trkpt lat="45.89214" lon="5.3398">
        <ele>217.4</ele>
        <time>2023-05-27T07:41:29Z</time>
      </trkpt>
      <trkpt lat="45.89213" lon="5.33992">
        <ele>217.4</ele>
        <time>2023-05-27T07:41:30Z</time>
      </trkpt>
      <trkpt lat="45.89213" lon="5.34003">
        <ele>217.4</ele>
        <time>2023-05-27T07:41:31Z</time>
      </trkpt>
      <trkpt lat="45.89212" lon="5.34012">
        <ele>217.4</ele>
        <time>2023-05-27T07:41:32Z</time>
      </trkpt>
      <trkpt lat="45.89211" lon="5.34023">
        <ele>217.4</ele>
        <time>2023-05-27T07:41:33Z</time>
      </trkpt>
      <trkpt lat="45.89209" lon="5.34036">
        <ele>217.4</ele>
        <time>2023-05-27T07:41:34Z</time>
      </trkpt>
      <trkpt lat="45.89209" lon="5.34048">
        <ele>217.4</ele>
        <time>2023-05-27T07:41:35Z</time>
      </trkpt>
      <trkpt lat="45.89208" lon="5.34057">
        <ele>217.4</ele>
        <time>2023-05-27T07:41:36Z</time>
      </trkpt>
      <trkpt lat="45.89208" lon="5.34069">
        <ele>217.4</ele>
        <time>2023-05-27T07:41:37Z</time>
      </trkpt>
      <trkpt lat="45.89207" lon="5.3408">
        <ele>217.4</ele>
        <time>2023-05-27T07:41:38Z</time>
      </trkpt>
      <trkpt lat="45.89208" lon="5.34106">
        <ele>217.2</ele>
        <time>2023-05-27T07:41:40Z</time>
      </trkpt>
      <trkpt lat="45.89208" lon="5.34116">
        <ele>217.2</ele>
        <time>2023-05-27T07:41:41Z</time>
      </trkpt>
      <trkpt lat="45.89208" lon="5.34131">
        <ele>217</ele>
        <time>2023-05-27T07:41:42Z</time>
      </trkpt>
      <trkpt lat="45.89208" lon="5.34141">
        <ele>216.8</ele>
        <time>2023-05-27T07:41:43Z</time>
      </trkpt>
      <trkpt lat="45.89209" lon="5.34156">
        <ele>216.8</ele>
        <time>2023-05-27T07:41:44Z</time>
      </trkpt>
      <trkpt lat="45.8921" lon="5.34169">
        <ele>216.6</ele>
        <time>2023-05-27T07:41:45Z</time>
      </trkpt>
      <trkpt lat="45.89211" lon="5.34182">
        <ele>216.4</ele>
        <time>2023-05-27T07:41:46Z</time>
      </trkpt>
      <trkpt lat="45.89211" lon="5.34192">
        <ele>216.4</ele>
        <time>2023-05-27T07:41:47Z</time>
      </trkpt>
      <trkpt lat="45.89212" lon="5.34205">
        <ele>216.2</ele>
        <time>2023-05-27T07:41:48Z</time>
      </trkpt>
      <trkpt lat="45.89213" lon="5.3422">
        <ele>215.8</ele>
        <time>2023-05-27T07:41:49Z</time>
      </trkpt>
      <trkpt lat="45.89214" lon="5.34233">
        <ele>215.6</ele>
        <time>2023-05-27T07:41:50Z</time>
      </trkpt>
      <trkpt lat="45.89215" lon="5.34246">
        <ele>215.6</ele>
        <time>2023-05-27T07:41:51Z</time>
      </trkpt>
      <trkpt lat="45.89215" lon="5.34257">
        <ele>215.4</ele>
        <time>2023-05-27T07:41:52Z</time>
      </trkpt>
      <trkpt lat="45.89216" lon="5.34269">
        <ele>215.4</ele>
        <time>2023-05-27T07:41:53Z</time>
      </trkpt>
      <trkpt lat="45.89217" lon="5.34285">
        <ele>215.2</ele>
        <time>2023-05-27T07:41:54Z</time>
      </trkpt>
      <trkpt lat="45.89218" lon="5.34298">
        <ele>215</ele>
        <time>2023-05-27T07:41:55Z</time>
      </trkpt>
      <trkpt lat="45.8922" lon="5.34311">
        <ele>214.8</ele>
        <time>2023-05-27T07:41:56Z</time>
      </trkpt>
      <trkpt lat="45.89221" lon="5.34324">
        <ele>214.8</ele>
        <time>2023-05-27T07:41:57Z</time>
      </trkpt>
      <trkpt lat="45.89223" lon="5.34336">
        <ele>214.8</ele>
        <time>2023-05-27T07:41:58Z</time>
      </trkpt>
      <trkpt lat="45.89224" lon="5.34349">
        <ele>214.4</ele>
        <time>2023-05-27T07:41:59Z</time>
      </trkpt>
      <trkpt lat="45.89226" lon="5.34362">
        <ele>214.2</ele>
        <time>2023-05-27T07:42:00Z</time>
      </trkpt>
      <trkpt lat="45.89228" lon="5.34372">
        <ele>214</ele>
        <time>2023-05-27T07:42:01Z</time>
      </trkpt>
      <trkpt lat="45.8923" lon="5.34387">
        <ele>213.8</ele>
        <time>2023-05-27T07:42:02Z</time>
      </trkpt>
      <trkpt lat="45.89232" lon="5.34396">
        <ele>213.6</ele>
        <time>2023-05-27T07:42:03Z</time>
      </trkpt>
      <trkpt lat="45.89234" lon="5.34408">
        <ele>213.2</ele>
        <time>2023-05-27T07:42:04Z</time>
      </trkpt>
      <trkpt lat="45.89237" lon="5.34422">
        <ele>213</ele>
        <time>2023-05-27T07:42:05Z</time>
      </trkpt>
      <trkpt lat="45.8924" lon="5.34434">
        <ele>212.8</ele>
        <time>2023-05-27T07:42:06Z</time>
      </trkpt>
      <trkpt lat="45.89242" lon="5.34443">
        <ele>212.8</ele>
        <time>2023-05-27T07:42:07Z</time>
      </trkpt>
      <trkpt lat="45.89245" lon="5.34454">
        <ele>212.6</ele>
        <time>2023-05-27T07:42:08Z</time>
      </trkpt>
      <trkpt lat="45.89253" lon="5.34478">
        <ele>212.4</ele>
        <time>2023-05-27T07:42:10Z</time>
      </trkpt>
      <trkpt lat="45.89255" lon="5.34486">
        <ele>212.2</ele>
        <time>2023-05-27T07:42:11Z</time>
      </trkpt>
      <trkpt lat="45.89259" lon="5.34497">
        <ele>212.2</ele>
        <time>2023-05-27T07:42:12Z</time>
      </trkpt>
      <trkpt lat="45.89263" lon="5.34507">
        <ele>212.2</ele>
        <time>2023-05-27T07:42:13Z</time>
      </trkpt>
      <trkpt lat="45.89267" lon="5.34517">
        <ele>212.2</ele>
        <time>2023-05-27T07:42:14Z</time>
      </trkpt>
      <trkpt lat="45.89272" lon="5.3453">
        <ele>212</ele>
        <time>2023-05-27T07:42:15Z</time>
      </trkpt>
      <trkpt lat="45.89275" lon="5.3454">
        <ele>211.8</ele>
        <time>2023-05-27T07:42:16Z</time>
      </trkpt>
      <trkpt lat="45.89279" lon="5.34549">
        <ele>211.6</ele>
        <time>2023-05-27T07:42:17Z</time>
      </trkpt>
      <trkpt lat="45.89283" lon="5.34559">
        <ele>211.4</ele>
        <time>2023-05-27T07:42:18Z</time>
      </trkpt>
      <trkpt lat="45.89288" lon="5.34571">
        <ele>211.4</ele>
        <time>2023-05-27T07:42:19Z</time>
      </trkpt>
      <trkpt lat="45.89292" lon="5.34581">
        <ele>211.4</ele>
        <time>2023-05-27T07:42:20Z</time>
      </trkpt>
      <trkpt lat="45.89296" lon="5.34592">
        <ele>211.2</ele>
        <time>2023-05-27T07:42:21Z</time>
      </trkpt>
      <trkpt lat="45.89303" lon="5.3461">
        <ele>211.2</ele>
        <time>2023-05-27T07:42:23Z</time>
      </trkpt>
      <trkpt lat="45.89307" lon="5.34621">
        <ele>211.2</ele>
        <time>2023-05-27T07:42:24Z</time>
      </trkpt>
      <trkpt lat="45.89312" lon="5.34633">
        <ele>211</ele>
        <time>2023-05-27T07:42:25Z</time>
      </trkpt>
      <trkpt lat="45.89316" lon="5.34642">
        <ele>211</ele>
        <time>2023-05-27T07:42:26Z</time>
      </trkpt>
      <trkpt lat="45.89319" lon="5.3465">
        <ele>211</ele>
        <time>2023-05-27T07:42:27Z</time>
      </trkpt>
      <trkpt lat="45.89323" lon="5.3466">
        <ele>211</ele>
        <time>2023-05-27T07:42:28Z</time>
      </trkpt>
      <trkpt lat="45.89327" lon="5.3467">
        <ele>211</ele>
        <time>2023-05-27T07:42:29Z</time>
      </trkpt>
      <trkpt lat="45.89331" lon="5.34679">
        <ele>211</ele>
        <time>2023-05-27T07:42:30Z</time>
      </trkpt>
      <trkpt lat="45.89335" lon="5.34691">
        <ele>211</ele>
        <time>2023-05-27T07:42:31Z</time>
      </trkpt>
      <trkpt lat="45.89339" lon="5.347">
        <ele>211</ele>
        <time>2023-05-27T07:42:32Z</time>
      </trkpt>
      <trkpt lat="45.89342" lon="5.34707">
        <ele>210.8</ele>
        <time>2023-05-27T07:42:33Z</time>
      </trkpt>
      <trkpt lat="45.89346" lon="5.34716">
        <ele>210.6</ele>
        <time>2023-05-27T07:42:34Z</time>
      </trkpt>
      <trkpt lat="45.89356" lon="5.34732">
        <ele>210.2</ele>
        <time>2023-05-27T07:42:36Z</time>
      </trkpt>
      <trkpt lat="45.89359" lon="5.34738">
        <ele>210.2</ele>
        <time>2023-05-27T07:42:37Z</time>
      </trkpt>
      <trkpt lat="45.89362" lon="5.34746">
        <ele>210.2</ele>
        <time>2023-05-27T07:42:38Z</time>
      </trkpt>
      <trkpt lat="45.89364" lon="5.34754">
        <ele>210.2</ele>
        <time>2023-05-27T07:42:39Z</time>
      </trkpt>
      <trkpt lat="45.89367" lon="5.34761">
        <ele>210.2</ele>
        <time>2023-05-27T07:42:40Z</time>
      </trkpt>
      <trkpt lat="45.89373" lon="5.34764">
        <ele>210.2</ele>
        <time>2023-05-27T07:42:41Z</time>
      </trkpt>
      <trkpt lat="45.89378" lon="5.34763">
        <ele>210.2</ele>
        <time>2023-05-27T07:42:42Z</time>
      </trkpt>
      <trkpt lat="45.89384" lon="5.34763">
        <ele>210.2</ele>
        <time>2023-05-27T07:42:43Z</time>
      </trkpt>
      <trkpt lat="45.89391" lon="5.34764">
        <ele>210.2</ele>
        <time>2023-05-27T07:42:44Z</time>
      </trkpt>
      <trkpt lat="45.89398" lon="5.34764">
        <ele>210.2</ele>
        <time>2023-05-27T07:42:45Z</time>
      </trkpt>
      <trkpt lat="45.89405" lon="5.34764">
        <ele>210.2</ele>
        <time>2023-05-27T07:42:46Z</time>
      </trkpt>
      <trkpt lat="45.89412" lon="5.34764">
        <ele>210.2</ele>
        <time>2023-05-27T07:42:47Z</time>
      </trkpt>
      <trkpt lat="45.8942" lon="5.34764">
        <ele>210.2</ele>
        <time>2023-05-27T07:42:48Z</time>
      </trkpt>
      <trkpt lat="45.89428" lon="5.34764">
        <ele>210.2</ele>
        <time>2023-05-27T07:42:49Z</time>
      </trkpt>
      <trkpt lat="45.89436" lon="5.34764">
        <ele>210.2</ele>
        <time>2023-05-27T07:42:50Z</time>
      </trkpt>
      <trkpt lat="45.89444" lon="5.34763">
        <ele>210.2</ele>
        <time>2023-05-27T07:42:51Z</time>
      </trkpt>
      <trkpt lat="45.89452" lon="5.34763">
        <ele>210.2</ele>
        <time>2023-05-27T07:42:52Z</time>
      </trkpt>
      <trkpt lat="45.8946" lon="5.34763">
        <ele>210</ele>
        <time>2023-05-27T07:42:53Z</time>
      </trkpt>
      <trkpt lat="45.89468" lon="5.34762">
        <ele>210</ele>
        <time>2023-05-27T07:42:54Z</time>
      </trkpt>
      <trkpt lat="45.89476" lon="5.34762">
        <ele>209.8</ele>
        <time>2023-05-27T07:42:55Z</time>
      </trkpt>
      <trkpt lat="45.89484" lon="5.34762">
        <ele>209.8</ele>
        <time>2023-05-27T07:42:56Z</time>
      </trkpt>
      <trkpt lat="45.89493" lon="5.34762">
        <ele>209.8</ele>
        <time>2023-05-27T07:42:57Z</time>
      </trkpt>
      <trkpt lat="45.89501" lon="5.34762">
        <ele>209.6</ele>
        <time>2023-05-27T07:42:58Z</time>
      </trkpt>
      <trkpt lat="45.8951" lon="5.34762">
        <ele>209.4</ele>
        <time>2023-05-27T07:42:59Z</time>
      </trkpt>
      <trkpt lat="45.89516" lon="5.34761">
        <ele>209.2</ele>
        <time>2023-05-27T07:43:00Z</time>
      </trkpt>
      <trkpt lat="45.89526" lon="5.34761">
        <ele>209</ele>
        <time>2023-05-27T07:43:01Z</time>
      </trkpt>
      <trkpt lat="45.89534" lon="5.34761">
        <ele>208.8</ele>
        <time>2023-05-27T07:43:02Z</time>
      </trkpt>
      <trkpt lat="45.89542" lon="5.3476">
        <ele>208.8</ele>
        <time>2023-05-27T07:43:03Z</time>
      </trkpt>
      <trkpt lat="45.89549" lon="5.3476">
        <ele>208.6</ele>
        <time>2023-05-27T07:43:04Z</time>
      </trkpt>
      <trkpt lat="45.89558" lon="5.3476">
        <ele>208.6</ele>
        <time>2023-05-27T07:43:05Z</time>
      </trkpt>
      <trkpt lat="45.89574" lon="5.3476">
        <ele>208.2</ele>
        <time>2023-05-27T07:43:07Z</time>
      </trkpt>
      <trkpt lat="45.89582" lon="5.3476">
        <ele>208</ele>
        <time>2023-05-27T07:43:08Z</time>
      </trkpt>
      <trkpt lat="45.8959" lon="5.3476">
        <ele>208</ele>
        <time>2023-05-27T07:43:09Z</time>
      </trkpt>
      <trkpt lat="45.89596" lon="5.3476">
        <ele>208</ele>
        <time>2023-05-27T07:43:10Z</time>
      </trkpt>
      <trkpt lat="45.89606" lon="5.3476">
        <ele>207.8</ele>
        <time>2023-05-27T07:43:11Z</time>
      </trkpt>
      <trkpt lat="45.89614" lon="5.3476">
        <ele>207.8</ele>
        <time>2023-05-27T07:43:12Z</time>
      </trkpt>
      <trkpt lat="45.89622" lon="5.3476">
        <ele>207.6</ele>
        <time>2023-05-27T07:43:13Z</time>
      </trkpt>
      <trkpt lat="45.8963" lon="5.3476">
        <ele>207.6</ele>
        <time>2023-05-27T07:43:14Z</time>
      </trkpt>
      <trkpt lat="45.89638" lon="5.34759">
        <ele>207.4</ele>
        <time>2023-05-27T07:43:15Z</time>
      </trkpt>
      <trkpt lat="45.89646" lon="5.34759">
        <ele>207.4</ele>
        <time>2023-05-27T07:43:16Z</time>
      </trkpt>
      <trkpt lat="45.89654" lon="5.34759">
        <ele>207.4</ele>
        <time>2023-05-27T07:43:17Z</time>
      </trkpt>
      <trkpt lat="45.8966" lon="5.34759">
        <ele>207.4</ele>
        <time>2023-05-27T07:43:18Z</time>
      </trkpt>
      <trkpt lat="45.89668" lon="5.34758">
        <ele>207.4</ele>
        <time>2023-05-27T07:43:19Z</time>
      </trkpt>
      <trkpt lat="45.89676" lon="5.34758">
        <ele>207.4</ele>
        <time>2023-05-27T07:43:20Z</time>
      </trkpt>
      <trkpt lat="45.89686" lon="5.34758">
        <ele>207.2</ele>
        <time>2023-05-27T07:43:21Z</time>
      </trkpt>
      <trkpt lat="45.89694" lon="5.34758">
        <ele>207.2</ele>
        <time>2023-05-27T07:43:22Z</time>
      </trkpt>
      <trkpt lat="45.89703" lon="5.34757">
        <ele>207.2</ele>
        <time>2023-05-27T07:43:23Z</time>
      </trkpt>
      <trkpt lat="45.89711" lon="5.34757">
        <ele>207.2</ele>
        <time>2023-05-27T07:43:24Z</time>
      </trkpt>
      <trkpt lat="45.89718" lon="5.34757">
        <ele>207</ele>
        <time>2023-05-27T07:43:25Z</time>
      </trkpt>
      <trkpt lat="45.89727" lon="5.34757">
        <ele>207</ele>
        <time>2023-05-27T07:43:26Z</time>
      </trkpt>
      <trkpt lat="45.89736" lon="5.34757">
        <ele>206.8</ele>
        <time>2023-05-27T07:43:27Z</time>
      </trkpt>
      <trkpt lat="45.89742" lon="5.34756">
        <ele>206.8</ele>
        <time>2023-05-27T07:43:28Z</time>
      </trkpt>
      <trkpt lat="45.8975" lon="5.34756">
        <ele>206.8</ele>
        <time>2023-05-27T07:43:29Z</time>
      </trkpt>
      <trkpt lat="45.8976" lon="5.34756">
        <ele>206.6</ele>
        <time>2023-05-27T07:43:30Z</time>
      </trkpt>
      <trkpt lat="45.89769" lon="5.34756">
        <ele>206.6</ele>
        <time>2023-05-27T07:43:31Z</time>
      </trkpt>
      <trkpt lat="45.89777" lon="5.34755">
        <ele>206.6</ele>
        <time>2023-05-27T07:43:32Z</time>
      </trkpt>
      <trkpt lat="45.89783" lon="5.34755">
        <ele>206.6</ele>
        <time>2023-05-27T07:43:33Z</time>
      </trkpt>
      <trkpt lat="45.89799" lon="5.34755">
        <ele>206.6</ele>
        <time>2023-05-27T07:43:35Z</time>
      </trkpt>
      <trkpt lat="45.89809" lon="5.34755">
        <ele>206.6</ele>
        <time>2023-05-27T07:43:36Z</time>
      </trkpt>
      <trkpt lat="45.89815" lon="5.34755">
        <ele>206.6</ele>
        <time>2023-05-27T07:43:37Z</time>
      </trkpt>
      <trkpt lat="45.89823" lon="5.34755">
        <ele>206.6</ele>
        <time>2023-05-27T07:43:38Z</time>
      </trkpt>
      <trkpt lat="45.8983" lon="5.34755">
        <ele>206.6</ele>
        <time>2023-05-27T07:43:39Z</time>
      </trkpt>
      <trkpt lat="45.89838" lon="5.34755">
        <ele>206.6</ele>
        <time>2023-05-27T07:43:40Z</time>
      </trkpt>
      <trkpt lat="45.89846" lon="5.34756">
        <ele>206.6</ele>
        <time>2023-05-27T07:43:41Z</time>
      </trkpt>
      <trkpt lat="45.89853" lon="5.34757">
        <ele>206.8</ele>
        <time>2023-05-27T07:43:42Z</time>
      </trkpt>
      <trkpt lat="45.8986" lon="5.34759">
        <ele>206.6</ele>
        <time>2023-05-27T07:43:43Z</time>
      </trkpt>
      <trkpt lat="45.89865" lon="5.34761">
        <ele>206.6</ele>
        <time>2023-05-27T07:43:44Z</time>
      </trkpt>
      <trkpt lat="45.89871" lon="5.34764">
        <ele>206.6</ele>
        <time>2023-05-27T07:43:45Z</time>
      </trkpt>
      <trkpt lat="45.89877" lon="5.34765">
        <ele>206.6</ele>
        <time>2023-05-27T07:43:46Z</time>
      </trkpt>
      <trkpt lat="45.89884" lon="5.34765">
        <ele>206.4</ele>
        <time>2023-05-27T07:43:47Z</time>
      </trkpt>
      <trkpt lat="45.89892" lon="5.34762">
        <ele>206.4</ele>
        <time>2023-05-27T07:43:48Z</time>
      </trkpt>
      <trkpt lat="45.89899" lon="5.3476">
        <ele>206.4</ele>
        <time>2023-05-27T07:43:49Z</time>
      </trkpt>
      <trkpt lat="45.89906" lon="5.34757">
        <ele>206.4</ele>
        <time>2023-05-27T07:43:50Z</time>
      </trkpt>
      <trkpt lat="45.8992" lon="5.34754">
        <ele>206.4</ele>
        <time>2023-05-27T07:43:52Z</time>
      </trkpt>
      <trkpt lat="45.89925" lon="5.34753">
        <ele>206.2</ele>
        <time>2023-05-27T07:43:53Z</time>
      </trkpt>
      <trkpt lat="45.89932" lon="5.34752">
        <ele>206.2</ele>
        <time>2023-05-27T07:43:54Z</time>
      </trkpt>
      <trkpt lat="45.89938" lon="5.34752">
        <ele>206.2</ele>
        <time>2023-05-27T07:43:55Z</time>
      </trkpt>
      <trkpt lat="45.89944" lon="5.34752">
        <ele>206.2</ele>
        <time>2023-05-27T07:43:56Z</time>
      </trkpt>
      <trkpt lat="45.89953" lon="5.34752">
        <ele>206.2</ele>
        <time>2023-05-27T07:43:57Z</time>
      </trkpt>
      <trkpt lat="45.8996" lon="5.34752">
        <ele>206</ele>
        <time>2023-05-27T07:43:58Z</time>
      </trkpt>
      <trkpt lat="45.89966" lon="5.34753">
        <ele>206</ele>
        <time>2023-05-27T07:43:59Z</time>
      </trkpt>
      <trkpt lat="45.89973" lon="5.34753">
        <ele>205.8</ele>
        <time>2023-05-27T07:44:00Z</time>
      </trkpt>
      <trkpt lat="45.89978" lon="5.34754">
        <ele>205.8</ele>
        <time>2023-05-27T07:44:01Z</time>
      </trkpt>
      <trkpt lat="45.89986" lon="5.34753">
        <ele>205.8</ele>
        <time>2023-05-27T07:44:02Z</time>
      </trkpt>
      <trkpt lat="45.89993" lon="5.34753">
        <ele>205.6</ele>
        <time>2023-05-27T07:44:03Z</time>
      </trkpt>
      <trkpt lat="45.9" lon="5.34753">
        <ele>205.6</ele>
        <time>2023-05-27T07:44:04Z</time>
      </trkpt>
      <trkpt lat="45.90006" lon="5.34753">
        <ele>205.6</ele>
        <time>2023-05-27T07:44:05Z</time>
      </trkpt>
      <trkpt lat="45.90014" lon="5.34753">
        <ele>205.6</ele>
        <time>2023-05-27T07:44:06Z</time>
      </trkpt>
      <trkpt lat="45.90021" lon="5.34753">
        <ele>205.6</ele>
        <time>2023-05-27T07:44:07Z</time>
      </trkpt>
      <trkpt lat="45.9003" lon="5.34753">
        <ele>205.6</ele>
        <time>2023-05-27T07:44:08Z</time>
      </trkpt>
      <trkpt lat="45.90036" lon="5.34752">
        <ele>205.6</ele>
        <time>2023-05-27T07:44:09Z</time>
      </trkpt>
      <trkpt lat="45.90043" lon="5.34752">
        <ele>205.6</ele>
        <time>2023-05-27T07:44:10Z</time>
      </trkpt>
      <trkpt lat="45.90052" lon="5.34753">
        <ele>205.8</ele>
        <time>2023-05-27T07:44:11Z</time>
      </trkpt>
      <trkpt lat="45.90058" lon="5.34753">
        <ele>205.8</ele>
        <time>2023-05-27T07:44:12Z</time>
      </trkpt>
      <trkpt lat="45.90065" lon="5.34753">
        <ele>205.8</ele>
        <time>2023-05-27T07:44:13Z</time>
      </trkpt>
      <trkpt lat="45.9007" lon="5.34753">
        <ele>205.8</ele>
        <time>2023-05-27T07:44:14Z</time>
      </trkpt>
      <trkpt lat="45.90077" lon="5.34753">
        <ele>205.8</ele>
        <time>2023-05-27T07:44:15Z</time>
      </trkpt>
      <trkpt lat="45.90085" lon="5.34753">
        <ele>205.6</ele>
        <time>2023-05-27T07:44:16Z</time>
      </trkpt>
      <trkpt lat="45.90092" lon="5.34752">
        <ele>205.6</ele>
        <time>2023-05-27T07:44:17Z</time>
      </trkpt>
      <trkpt lat="45.90099" lon="5.34752">
        <ele>205.6</ele>
        <time>2023-05-27T07:44:18Z</time>
      </trkpt>
      <trkpt lat="45.90105" lon="5.34752">
        <ele>205.6</ele>
        <time>2023-05-27T07:44:19Z</time>
      </trkpt>
      <trkpt lat="45.90112" lon="5.34751">
        <ele>205.6</ele>
        <time>2023-05-27T07:44:20Z</time>
      </trkpt>
      <trkpt lat="45.90119" lon="5.34751">
        <ele>205.6</ele>
        <time>2023-05-27T07:44:21Z</time>
      </trkpt>
      <trkpt lat="45.90134" lon="5.34751">
        <ele>205.6</ele>
        <time>2023-05-27T07:44:23Z</time>
      </trkpt>
      <trkpt lat="45.90142" lon="5.34751">
        <ele>205.6</ele>
        <time>2023-05-27T07:44:24Z</time>
      </trkpt>
      <trkpt lat="45.90149" lon="5.34751">
        <ele>205.8</ele>
        <time>2023-05-27T07:44:25Z</time>
      </trkpt>
      <trkpt lat="45.90156" lon="5.34752">
        <ele>205.8</ele>
        <time>2023-05-27T07:44:26Z</time>
      </trkpt>
      <trkpt lat="45.90162" lon="5.34752">
        <ele>205.8</ele>
        <time>2023-05-27T07:44:27Z</time>
      </trkpt>
      <trkpt lat="45.90169" lon="5.34752">
        <ele>206</ele>
        <time>2023-05-27T07:44:28Z</time>
      </trkpt>
      <trkpt lat="45.90175" lon="5.34752">
        <ele>206</ele>
        <time>2023-05-27T07:44:29Z</time>
      </trkpt>
      <trkpt lat="45.90181" lon="5.34752">
        <ele>206</ele>
        <time>2023-05-27T07:44:30Z</time>
      </trkpt>
      <trkpt lat="45.90188" lon="5.34752">
        <ele>206</ele>
        <time>2023-05-27T07:44:31Z</time>
      </trkpt>
      <trkpt lat="45.90196" lon="5.34752">
        <ele>206</ele>
        <time>2023-05-27T07:44:32Z</time>
      </trkpt>
      <trkpt lat="45.90202" lon="5.34752">
        <ele>206.2</ele>
        <time>2023-05-27T07:44:33Z</time>
      </trkpt>
      <trkpt lat="45.90207" lon="5.34752">
        <ele>206.2</ele>
        <time>2023-05-27T07:44:34Z</time>
      </trkpt>
      <trkpt lat="45.90213" lon="5.34752">
        <ele>206.4</ele>
        <time>2023-05-27T07:44:35Z</time>
      </trkpt>
      <trkpt lat="45.90219" lon="5.34752">
        <ele>206.4</ele>
        <time>2023-05-27T07:44:36Z</time>
      </trkpt>
      <trkpt lat="45.90226" lon="5.34752">
        <ele>206.6</ele>
        <time>2023-05-27T07:44:37Z</time>
      </trkpt>
      <trkpt lat="45.90229" lon="5.34757">
        <ele>206.6</ele>
        <time>2023-05-27T07:44:38Z</time>
      </trkpt>
      <trkpt lat="45.90233" lon="5.34763">
        <ele>206.8</ele>
        <time>2023-05-27T07:44:39Z</time>
      </trkpt>
      <trkpt lat="45.90234" lon="5.34765">
        <ele>207</ele>
        <time>2023-05-27T07:44:40Z</time>
      </trkpt>
      <trkpt lat="45.90234" lon="5.34766">
        <ele>207</ele>
        <time>2023-05-27T07:44:41Z</time>
      </trkpt>
      <trkpt lat="45.90234" lon="5.34767">
        <ele>207.2</ele>
        <time>2023-05-27T07:44:42Z</time>
      </trkpt>
      <trkpt lat="45.90234" lon="5.34768">
        <ele>207.2</ele>
        <time>2023-05-27T07:44:43Z</time>
      </trkpt>
      <trkpt lat="45.90235" lon="5.3477">
        <ele>207.2</ele>
        <time>2023-05-27T07:44:44Z</time>
      </trkpt>
      <trkpt lat="45.90236" lon="5.34773">
        <ele>207.2</ele>
        <time>2023-05-27T07:44:45Z</time>
      </trkpt>
      <trkpt lat="45.90236" lon="5.34777">
        <ele>207.2</ele>
        <time>2023-05-27T07:44:46Z</time>
      </trkpt>
      <trkpt lat="45.90237" lon="5.34785">
        <ele>207.2</ele>
        <time>2023-05-27T07:44:47Z</time>
      </trkpt>
      <trkpt lat="45.90238" lon="5.34791">
        <ele>207.2</ele>
        <time>2023-05-27T07:44:48Z</time>
      </trkpt>
      <trkpt lat="45.90239" lon="5.34797">
        <ele>207.2</ele>
        <time>2023-05-27T07:44:49Z</time>
      </trkpt>
      <trkpt lat="45.9024" lon="5.34804">
        <ele>207.2</ele>
        <time>2023-05-27T07:44:50Z</time>
      </trkpt>
      <trkpt lat="45.90241" lon="5.34812">
        <ele>207.2</ele>
        <time>2023-05-27T07:44:51Z</time>
      </trkpt>
      <trkpt lat="45.90242" lon="5.34821">
        <ele>207.2</ele>
        <time>2023-05-27T07:44:52Z</time>
      </trkpt>
      <trkpt lat="45.90242" lon="5.34826">
        <ele>207.2</ele>
        <time>2023-05-27T07:44:53Z</time>
      </trkpt>
      <trkpt lat="45.90243" lon="5.34833">
        <ele>207.2</ele>
        <time>2023-05-27T07:44:54Z</time>
      </trkpt>
      <trkpt lat="45.90244" lon="5.3484">
        <ele>207.2</ele>
        <time>2023-05-27T07:44:55Z</time>
      </trkpt>
      <trkpt lat="45.90246" lon="5.34846">
        <ele>207.2</ele>
        <time>2023-05-27T07:44:56Z</time>
      </trkpt>
      <trkpt lat="45.90249" lon="5.34853">
        <ele>207.2</ele>
        <time>2023-05-27T07:44:57Z</time>
      </trkpt>
      <trkpt lat="45.90254" lon="5.34857">
        <ele>207.2</ele>
        <time>2023-05-27T07:44:58Z</time>
      </trkpt>
      <trkpt lat="45.90257" lon="5.3486">
        <ele>207.2</ele>
        <time>2023-05-27T07:44:59Z</time>
      </trkpt>
      <trkpt lat="45.90263" lon="5.34863">
        <ele>207.2</ele>
        <time>2023-05-27T07:45:00Z</time>
      </trkpt>
      <trkpt lat="45.90267" lon="5.34865">
        <ele>207.2</ele>
        <time>2023-05-27T07:45:01Z</time>
      </trkpt>
      <trkpt lat="45.90271" lon="5.34866">
        <ele>207.4</ele>
        <time>2023-05-27T07:45:02Z</time>
      </trkpt>
      <trkpt lat="45.90275" lon="5.34867">
        <ele>207.4</ele>
        <time>2023-05-27T07:45:03Z</time>
      </trkpt>
      <trkpt lat="45.90278" lon="5.34867">
        <ele>207.4</ele>
        <time>2023-05-27T07:45:04Z</time>
      </trkpt>
      <trkpt lat="45.90282" lon="5.34869">
        <ele>207.6</ele>
        <time>2023-05-27T07:45:05Z</time>
      </trkpt>
      <trkpt lat="45.90286" lon="5.34869">
        <ele>207.8</ele>
        <time>2023-05-27T07:45:06Z</time>
      </trkpt>
      <trkpt lat="45.9029" lon="5.3487">
        <ele>208</ele>
        <time>2023-05-27T07:45:07Z</time>
      </trkpt>
      <trkpt lat="45.90295" lon="5.3487">
        <ele>208.2</ele>
        <time>2023-05-27T07:45:08Z</time>
      </trkpt>
      <trkpt lat="45.90304" lon="5.34872">
        <ele>208.6</ele>
        <time>2023-05-27T07:45:10Z</time>
      </trkpt>
      <trkpt lat="45.90308" lon="5.34874">
        <ele>208.8</ele>
        <time>2023-05-27T07:45:11Z</time>
      </trkpt>
      <trkpt lat="45.90312" lon="5.34875">
        <ele>209.2</ele>
        <time>2023-05-27T07:45:12Z</time>
      </trkpt>
      <trkpt lat="45.90316" lon="5.34876">
        <ele>209.2</ele>
        <time>2023-05-27T07:45:13Z</time>
      </trkpt>
      <trkpt lat="45.90321" lon="5.34877">
        <ele>209.4</ele>
        <time>2023-05-27T07:45:14Z</time>
      </trkpt>
      <trkpt lat="45.90325" lon="5.34878">
        <ele>209.8</ele>
        <time>2023-05-27T07:45:15Z</time>
      </trkpt>
      <trkpt lat="45.9033" lon="5.34879">
        <ele>209.8</ele>
        <time>2023-05-27T07:45:16Z</time>
      </trkpt>
      <trkpt lat="45.90333" lon="5.34881">
        <ele>210.2</ele>
        <time>2023-05-27T07:45:17Z</time>
      </trkpt>
      <trkpt lat="45.90335" lon="5.34884">
        <ele>210.2</ele>
        <time>2023-05-27T07:45:18Z</time>
      </trkpt>
      <trkpt lat="45.90338" lon="5.34886">
        <ele>210.6</ele>
        <time>2023-05-27T07:45:19Z</time>
      </trkpt>
      <trkpt lat="45.90342" lon="5.34887">
        <ele>210.8</ele>
        <time>2023-05-27T07:45:20Z</time>
      </trkpt>
      <trkpt lat="45.90347" lon="5.34889">
        <ele>211</ele>
        <time>2023-05-27T07:45:21Z</time>
      </trkpt>
      <trkpt lat="45.90352" lon="5.34888">
        <ele>211</ele>
        <time>2023-05-27T07:45:22Z</time>
      </trkpt>
      <trkpt lat="45.90357" lon="5.34888">
        <ele>211.4</ele>
        <time>2023-05-27T07:45:23Z</time>
      </trkpt>
      <trkpt lat="45.90361" lon="5.34889">
        <ele>211.4</ele>
        <time>2023-05-27T07:45:24Z</time>
      </trkpt>
      <trkpt lat="45.90365" lon="5.34891">
        <ele>211.6</ele>
        <time>2023-05-27T07:45:25Z</time>
      </trkpt>
      <trkpt lat="45.90369" lon="5.34894">
        <ele>211.8</ele>
        <time>2023-05-27T07:45:26Z</time>
      </trkpt>
      <trkpt lat="45.90373" lon="5.34896">
        <ele>211.8</ele>
        <time>2023-05-27T07:45:27Z</time>
      </trkpt>
      <trkpt lat="45.90384" lon="5.34898">
        <ele>212.2</ele>
        <time>2023-05-27T07:45:29Z</time>
      </trkpt>
      <trkpt lat="45.90389" lon="5.34899">
        <ele>212.6</ele>
        <time>2023-05-27T07:45:30Z</time>
      </trkpt>
      <trkpt lat="45.90395" lon="5.349">
        <ele>213</ele>
        <time>2023-05-27T07:45:31Z</time>
      </trkpt>
      <trkpt lat="45.904" lon="5.34901">
        <ele>213.2</ele>
        <time>2023-05-27T07:45:32Z</time>
      </trkpt>
      <trkpt lat="45.90405" lon="5.34903">
        <ele>213.4</ele>
        <time>2023-05-27T07:45:33Z</time>
      </trkpt>
      <trkpt lat="45.9041" lon="5.34905">
        <ele>213.8</ele>
        <time>2023-05-27T07:45:34Z</time>
      </trkpt>
      <trkpt lat="45.90414" lon="5.34907">
        <ele>214</ele>
        <time>2023-05-27T07:45:35Z</time>
      </trkpt>
      <trkpt lat="45.90419" lon="5.34908">
        <ele>214.2</ele>
        <time>2023-05-27T07:45:36Z</time>
      </trkpt>
      <trkpt lat="45.90424" lon="5.34909">
        <ele>214.6</ele>
        <time>2023-05-27T07:45:37Z</time>
      </trkpt>
      <trkpt lat="45.90428" lon="5.34911">
        <ele>214.8</ele>
        <time>2023-05-27T07:45:38Z</time>
      </trkpt>
      <trkpt lat="45.90433" lon="5.34914">
        <ele>215</ele>
        <time>2023-05-27T07:45:39Z</time>
      </trkpt>
      <trkpt lat="45.90439" lon="5.34917">
        <ele>215.2</ele>
        <time>2023-05-27T07:45:40Z</time>
      </trkpt>
      <trkpt lat="45.90446" lon="5.34921">
        <ele>215.6</ele>
        <time>2023-05-27T07:45:42Z</time>
      </trkpt>
      <trkpt lat="45.9045" lon="5.34922">
        <ele>215.8</ele>
        <time>2023-05-27T07:45:43Z</time>
      </trkpt>
      <trkpt lat="45.90456" lon="5.34923">
        <ele>216</ele>
        <time>2023-05-27T07:45:44Z</time>
      </trkpt>
      <trkpt lat="45.9046" lon="5.34923">
        <ele>216.2</ele>
        <time>2023-05-27T07:45:45Z</time>
      </trkpt>
      <trkpt lat="45.90464" lon="5.34922">
        <ele>216.2</ele>
        <time>2023-05-27T07:45:46Z</time>
      </trkpt>
      <trkpt lat="45.90467" lon="5.34917">
        <ele>216.4</ele>
        <time>2023-05-27T07:45:47Z</time>
      </trkpt>
      <trkpt lat="45.9047" lon="5.34912">
        <ele>216.6</ele>
        <time>2023-05-27T07:45:48Z</time>
      </trkpt>
      <trkpt lat="45.90473" lon="5.34907">
        <ele>216.6</ele>
        <time>2023-05-27T07:45:49Z</time>
      </trkpt>
      <trkpt lat="45.90476" lon="5.34901">
        <ele>216.8</ele>
        <time>2023-05-27T07:45:50Z</time>
      </trkpt>
      <trkpt lat="45.90478" lon="5.34895">
        <ele>217</ele>
        <time>2023-05-27T07:45:51Z</time>
      </trkpt>
      <trkpt lat="45.90479" lon="5.34888">
        <ele>217.2</ele>
        <time>2023-05-27T07:45:52Z</time>
      </trkpt>
      <trkpt lat="45.90482" lon="5.34882">
        <ele>217.4</ele>
        <time>2023-05-27T07:45:53Z</time>
      </trkpt>
      <trkpt lat="45.90483" lon="5.34876">
        <ele>217.4</ele>
        <time>2023-05-27T07:45:54Z</time>
      </trkpt>
      <trkpt lat="45.90485" lon="5.3487">
        <ele>217.6</ele>
        <time>2023-05-27T07:45:55Z</time>
      </trkpt>
      <trkpt lat="45.90485" lon="5.34863">
        <ele>217.8</ele>
        <time>2023-05-27T07:45:56Z</time>
      </trkpt>
      <trkpt lat="45.90486" lon="5.34855">
        <ele>218</ele>
        <time>2023-05-27T07:45:57Z</time>
      </trkpt>
      <trkpt lat="45.90487" lon="5.3485">
        <ele>218.2</ele>
        <time>2023-05-27T07:45:58Z</time>
      </trkpt>
      <trkpt lat="45.90488" lon="5.34843">
        <ele>218.4</ele>
        <time>2023-05-27T07:45:59Z</time>
      </trkpt>
      <trkpt lat="45.90492" lon="5.34836">
        <ele>218.6</ele>
        <time>2023-05-27T07:46:00Z</time>
      </trkpt>
      <trkpt lat="45.90494" lon="5.34832">
        <ele>218.8</ele>
        <time>2023-05-27T07:46:01Z</time>
      </trkpt>
      <trkpt lat="45.90498" lon="5.34829">
        <ele>219</ele>
        <time>2023-05-27T07:46:02Z</time>
      </trkpt>
      <trkpt lat="45.90502" lon="5.34826">
        <ele>219.2</ele>
        <time>2023-05-27T07:46:03Z</time>
      </trkpt>
      <trkpt lat="45.90506" lon="5.34824">
        <ele>219.2</ele>
        <time>2023-05-27T07:46:04Z</time>
      </trkpt>
      <trkpt lat="45.90511" lon="5.34822">
        <ele>219.4</ele>
        <time>2023-05-27T07:46:05Z</time>
      </trkpt>
      <trkpt lat="45.90514" lon="5.3482">
        <ele>219.6</ele>
        <time>2023-05-27T07:46:06Z</time>
      </trkpt>
      <trkpt lat="45.90519" lon="5.34818">
        <ele>219.8</ele>
        <time>2023-05-27T07:46:07Z</time>
      </trkpt>
      <trkpt lat="45.90523" lon="5.34816">
        <ele>220.2</ele>
        <time>2023-05-27T07:46:08Z</time>
      </trkpt>
      <trkpt lat="45.90527" lon="5.34814">
        <ele>220.2</ele>
        <time>2023-05-27T07:46:09Z</time>
      </trkpt>
      <trkpt lat="45.90531" lon="5.34813">
        <ele>220.6</ele>
        <time>2023-05-27T07:46:10Z</time>
      </trkpt>
      <trkpt lat="45.90537" lon="5.3481">
        <ele>220.8</ele>
        <time>2023-05-27T07:46:11Z</time>
      </trkpt>
      <trkpt lat="45.90542" lon="5.34808">
        <ele>221.2</ele>
        <time>2023-05-27T07:46:12Z</time>
      </trkpt>
      <trkpt lat="45.90545" lon="5.34807">
        <ele>221.6</ele>
        <time>2023-05-27T07:46:13Z</time>
      </trkpt>
      <trkpt lat="45.90549" lon="5.34805">
        <ele>221.6</ele>
        <time>2023-05-27T07:46:14Z</time>
      </trkpt>
      <trkpt lat="45.90554" lon="5.34803">
        <ele>221.8</ele>
        <time>2023-05-27T07:46:15Z</time>
      </trkpt>
      <trkpt lat="45.90557" lon="5.34802">
        <ele>222</ele>
        <time>2023-05-27T07:46:16Z</time>
      </trkpt>
      <trkpt lat="45.90562" lon="5.348">
        <ele>222</ele>
        <time>2023-05-27T07:46:17Z</time>
      </trkpt>
      <trkpt lat="45.90566" lon="5.34798">
        <ele>222</ele>
        <time>2023-05-27T07:46:18Z</time>
      </trkpt>
      <trkpt lat="45.9057" lon="5.34796">
        <ele>222</ele>
        <time>2023-05-27T07:46:19Z</time>
      </trkpt>
      <trkpt lat="45.90575" lon="5.34794">
        <ele>222</ele>
        <time>2023-05-27T07:46:20Z</time>
      </trkpt>
      <trkpt lat="45.90579" lon="5.34793">
        <ele>222</ele>
        <time>2023-05-27T07:46:21Z</time>
      </trkpt>
      <trkpt lat="45.90583" lon="5.34791">
        <ele>222.2</ele>
        <time>2023-05-27T07:46:22Z</time>
      </trkpt>
      <trkpt lat="45.90588" lon="5.34789">
        <ele>222</ele>
        <time>2023-05-27T07:46:23Z</time>
      </trkpt>
      <trkpt lat="45.90597" lon="5.34785">
        <ele>222.2</ele>
        <time>2023-05-27T07:46:25Z</time>
      </trkpt>
      <trkpt lat="45.90601" lon="5.34784">
        <ele>222</ele>
        <time>2023-05-27T07:46:26Z</time>
      </trkpt>
      <trkpt lat="45.90606" lon="5.34782">
        <ele>222</ele>
        <time>2023-05-27T07:46:27Z</time>
      </trkpt>
      <trkpt lat="45.90611" lon="5.34781">
        <ele>222</ele>
        <time>2023-05-27T07:46:28Z</time>
      </trkpt>
      <trkpt lat="45.90615" lon="5.34779">
        <ele>222.2</ele>
        <time>2023-05-27T07:46:29Z</time>
      </trkpt>
      <trkpt lat="45.90619" lon="5.34777">
        <ele>222.2</ele>
        <time>2023-05-27T07:46:30Z</time>
      </trkpt>
      <trkpt lat="45.90623" lon="5.34775">
        <ele>222.4</ele>
        <time>2023-05-27T07:46:31Z</time>
      </trkpt>
      <trkpt lat="45.90628" lon="5.34773">
        <ele>222.4</ele>
        <time>2023-05-27T07:46:32Z</time>
      </trkpt>
      <trkpt lat="45.90632" lon="5.34771">
        <ele>222.6</ele>
        <time>2023-05-27T07:46:33Z</time>
      </trkpt>
      <trkpt lat="45.90636" lon="5.34769">
        <ele>222.8</ele>
        <time>2023-05-27T07:46:34Z</time>
      </trkpt>
      <trkpt lat="45.90641" lon="5.34767">
        <ele>223</ele>
        <time>2023-05-27T07:46:35Z</time>
      </trkpt>
      <trkpt lat="45.90648" lon="5.34764">
        <ele>223.6</ele>
        <time>2023-05-27T07:46:37Z</time>
      </trkpt>
      <trkpt lat="45.90653" lon="5.34762">
        <ele>224</ele>
        <time>2023-05-27T07:46:38Z</time>
      </trkpt>
      <trkpt lat="45.90657" lon="5.34759">
        <ele>224.2</ele>
        <time>2023-05-27T07:46:39Z</time>
      </trkpt>
      <trkpt lat="45.90662" lon="5.34757">
        <ele>224.4</ele>
        <time>2023-05-27T07:46:40Z</time>
      </trkpt>
      <trkpt lat="45.90665" lon="5.34756">
        <ele>224.6</ele>
        <time>2023-05-27T07:46:41Z</time>
      </trkpt>
      <trkpt lat="45.9067" lon="5.34754">
        <ele>224.8</ele>
        <time>2023-05-27T07:46:42Z</time>
      </trkpt>
      <trkpt lat="45.90674" lon="5.34752">
        <ele>225</ele>
        <time>2023-05-27T07:46:43Z</time>
      </trkpt>
      <trkpt lat="45.9068" lon="5.3475">
        <ele>225.2</ele>
        <time>2023-05-27T07:46:44Z</time>
      </trkpt>
      <trkpt lat="45.90683" lon="5.34748">
        <ele>225.4</ele>
        <time>2023-05-27T07:46:45Z</time>
      </trkpt>
      <trkpt lat="45.90688" lon="5.34746">
        <ele>225.4</ele>
        <time>2023-05-27T07:46:46Z</time>
      </trkpt>
      <trkpt lat="45.90692" lon="5.34744">
        <ele>225.8</ele>
        <time>2023-05-27T07:46:47Z</time>
      </trkpt>
      <trkpt lat="45.90696" lon="5.34742">
        <ele>226</ele>
        <time>2023-05-27T07:46:48Z</time>
      </trkpt>
      <trkpt lat="45.90701" lon="5.3474">
        <ele>226.2</ele>
        <time>2023-05-27T07:46:49Z</time>
      </trkpt>
      <trkpt lat="45.90705" lon="5.3474">
        <ele>226.4</ele>
        <time>2023-05-27T07:46:50Z</time>
      </trkpt>
      <trkpt lat="45.90709" lon="5.34738">
        <ele>226.6</ele>
        <time>2023-05-27T07:46:51Z</time>
      </trkpt>
      <trkpt lat="45.90714" lon="5.34737">
        <ele>226.8</ele>
        <time>2023-05-27T07:46:52Z</time>
      </trkpt>
      <trkpt lat="45.90718" lon="5.34735">
        <ele>226.8</ele>
        <time>2023-05-27T07:46:53Z</time>
      </trkpt>
      <trkpt lat="45.90722" lon="5.34733">
        <ele>227</ele>
        <time>2023-05-27T07:46:54Z</time>
      </trkpt>
      <trkpt lat="45.90728" lon="5.34731">
        <ele>227.2</ele>
        <time>2023-05-27T07:46:55Z</time>
      </trkpt>
      <trkpt lat="45.90732" lon="5.34729">
        <ele>227.4</ele>
        <time>2023-05-27T07:46:56Z</time>
      </trkpt>
      <trkpt lat="45.90736" lon="5.34727">
        <ele>227.6</ele>
        <time>2023-05-27T07:46:57Z</time>
      </trkpt>
      <trkpt lat="45.9074" lon="5.34725">
        <ele>227.8</ele>
        <time>2023-05-27T07:46:58Z</time>
      </trkpt>
      <trkpt lat="45.90749" lon="5.34721">
        <ele>228</ele>
        <time>2023-05-27T07:47:00Z</time>
      </trkpt>
      <trkpt lat="45.90754" lon="5.34719">
        <ele>228.2</ele>
        <time>2023-05-27T07:47:01Z</time>
      </trkpt>
      <trkpt lat="45.90759" lon="5.34717">
        <ele>228.4</ele>
        <time>2023-05-27T07:47:02Z</time>
      </trkpt>
      <trkpt lat="45.90763" lon="5.34715">
        <ele>228.6</ele>
        <time>2023-05-27T07:47:03Z</time>
      </trkpt>
      <trkpt lat="45.90768" lon="5.34713">
        <ele>228.8</ele>
        <time>2023-05-27T07:47:04Z</time>
      </trkpt>
      <trkpt lat="45.90773" lon="5.3471">
        <ele>229</ele>
        <time>2023-05-27T07:47:05Z</time>
      </trkpt>
      <trkpt lat="45.90782" lon="5.34706">
        <ele>229.2</ele>
        <time>2023-05-27T07:47:07Z</time>
      </trkpt>
      <trkpt lat="45.90787" lon="5.34704">
        <ele>229.2</ele>
        <time>2023-05-27T07:47:08Z</time>
      </trkpt>
      <trkpt lat="45.90793" lon="5.34702">
        <ele>229.6</ele>
        <time>2023-05-27T07:47:09Z</time>
      </trkpt>
      <trkpt lat="45.90797" lon="5.34701">
        <ele>229.6</ele>
        <time>2023-05-27T07:47:10Z</time>
      </trkpt>
      <trkpt lat="45.90801" lon="5.347">
        <ele>229.8</ele>
        <time>2023-05-27T07:47:11Z</time>
      </trkpt>
      <trkpt lat="45.90806" lon="5.34699">
        <ele>230</ele>
        <time>2023-05-27T07:47:12Z</time>
      </trkpt>
      <trkpt lat="45.90812" lon="5.34699">
        <ele>230</ele>
        <time>2023-05-27T07:47:13Z</time>
      </trkpt>
      <trkpt lat="45.90817" lon="5.347">
        <ele>230.2</ele>
        <time>2023-05-27T07:47:14Z</time>
      </trkpt>
      <trkpt lat="45.90822" lon="5.34702">
        <ele>230.4</ele>
        <time>2023-05-27T07:47:15Z</time>
      </trkpt>
      <trkpt lat="45.90828" lon="5.34704">
        <ele>230.6</ele>
        <time>2023-05-27T07:47:16Z</time>
      </trkpt>
      <trkpt lat="45.90834" lon="5.34707">
        <ele>230.6</ele>
        <time>2023-05-27T07:47:17Z</time>
      </trkpt>
      <trkpt lat="45.9084" lon="5.34711">
        <ele>230.8</ele>
        <time>2023-05-27T07:47:18Z</time>
      </trkpt>
      <trkpt lat="45.90846" lon="5.34714">
        <ele>230.8</ele>
        <time>2023-05-27T07:47:19Z</time>
      </trkpt>
      <trkpt lat="45.90853" lon="5.34714">
        <ele>231</ele>
        <time>2023-05-27T07:47:20Z</time>
      </trkpt>
      <trkpt lat="45.9086" lon="5.34713">
        <ele>231</ele>
        <time>2023-05-27T07:47:21Z</time>
      </trkpt>
      <trkpt lat="45.90866" lon="5.34708">
        <ele>231.2</ele>
        <time>2023-05-27T07:47:22Z</time>
      </trkpt>
      <trkpt lat="45.9087" lon="5.34701">
        <ele>231.6</ele>
        <time>2023-05-27T07:47:23Z</time>
      </trkpt>
      <trkpt lat="45.90872" lon="5.34692">
        <ele>231.8</ele>
        <time>2023-05-27T07:47:24Z</time>
      </trkpt>
      <trkpt lat="45.90873" lon="5.34683">
        <ele>232</ele>
        <time>2023-05-27T07:47:25Z</time>
      </trkpt>
      <trkpt lat="45.90875" lon="5.34674">
        <ele>232</ele>
        <time>2023-05-27T07:47:26Z</time>
      </trkpt>
      <trkpt lat="45.90879" lon="5.34668">
        <ele>232.2</ele>
        <time>2023-05-27T07:47:27Z</time>
      </trkpt>
      <trkpt lat="45.90884" lon="5.34663">
        <ele>232.4</ele>
        <time>2023-05-27T07:47:28Z</time>
      </trkpt>
      <trkpt lat="45.90889" lon="5.3466">
        <ele>232.8</ele>
        <time>2023-05-27T07:47:29Z</time>
      </trkpt>
      <trkpt lat="45.90895" lon="5.34658">
        <ele>232.8</ele>
        <time>2023-05-27T07:47:30Z</time>
      </trkpt>
      <trkpt lat="45.90901" lon="5.34655">
        <ele>233</ele>
        <time>2023-05-27T07:47:31Z</time>
      </trkpt>
      <trkpt lat="45.90907" lon="5.34653">
        <ele>233.2</ele>
        <time>2023-05-27T07:47:32Z</time>
      </trkpt>
      <trkpt lat="45.90913" lon="5.3465">
        <ele>233.2</ele>
        <time>2023-05-27T07:47:33Z</time>
      </trkpt>
      <trkpt lat="45.90919" lon="5.34647">
        <ele>233.6</ele>
        <time>2023-05-27T07:47:34Z</time>
      </trkpt>
      <trkpt lat="45.90926" lon="5.34644">
        <ele>233.8</ele>
        <time>2023-05-27T07:47:35Z</time>
      </trkpt>
      <trkpt lat="45.90932" lon="5.34642">
        <ele>234</ele>
        <time>2023-05-27T07:47:36Z</time>
      </trkpt>
      <trkpt lat="45.90939" lon="5.3464">
        <ele>234.4</ele>
        <time>2023-05-27T07:47:37Z</time>
      </trkpt>
      <trkpt lat="45.90946" lon="5.34637">
        <ele>234.8</ele>
        <time>2023-05-27T07:47:38Z</time>
      </trkpt>
      <trkpt lat="45.90953" lon="5.34634">
        <ele>235</ele>
        <time>2023-05-27T07:47:39Z</time>
      </trkpt>
      <trkpt lat="45.90959" lon="5.34631">
        <ele>235</ele>
        <time>2023-05-27T07:47:40Z</time>
      </trkpt>
      <trkpt lat="45.90966" lon="5.34628">
        <ele>235.2</ele>
        <time>2023-05-27T07:47:41Z</time>
      </trkpt>
      <trkpt lat="45.90973" lon="5.34625">
        <ele>235.4</ele>
        <time>2023-05-27T07:47:42Z</time>
      </trkpt>
      <trkpt lat="45.9098" lon="5.34623">
        <ele>235.8</ele>
        <time>2023-05-27T07:47:43Z</time>
      </trkpt>
      <trkpt lat="45.90987" lon="5.3462">
        <ele>235.8</ele>
        <time>2023-05-27T07:47:44Z</time>
      </trkpt>
      <trkpt lat="45.90994" lon="5.34617">
        <ele>236.2</ele>
        <time>2023-05-27T07:47:45Z</time>
      </trkpt>
      <trkpt lat="45.91001" lon="5.34614">
        <ele>236.4</ele>
        <time>2023-05-27T07:47:46Z</time>
      </trkpt>
      <trkpt lat="45.91008" lon="5.34611">
        <ele>236.6</ele>
        <time>2023-05-27T07:47:47Z</time>
      </trkpt>
      <trkpt lat="45.91015" lon="5.34607">
        <ele>236.6</ele>
        <time>2023-05-27T07:47:48Z</time>
      </trkpt>
      <trkpt lat="45.91021" lon="5.34604">
        <ele>236.8</ele>
        <time>2023-05-27T07:47:49Z</time>
      </trkpt>
      <trkpt lat="45.91028" lon="5.34601">
        <ele>236.8</ele>
        <time>2023-05-27T07:47:50Z</time>
      </trkpt>
      <trkpt lat="45.91035" lon="5.34597">
        <ele>237</ele>
        <time>2023-05-27T07:47:51Z</time>
      </trkpt>
      <trkpt lat="45.91042" lon="5.34594">
        <ele>237</ele>
        <time>2023-05-27T07:47:52Z</time>
      </trkpt>
      <trkpt lat="45.91049" lon="5.34591">
        <ele>237.2</ele>
        <time>2023-05-27T07:47:53Z</time>
      </trkpt>
      <trkpt lat="45.91056" lon="5.34588">
        <ele>237.2</ele>
        <time>2023-05-27T07:47:54Z</time>
      </trkpt>
      <trkpt lat="45.91063" lon="5.34585">
        <ele>237.2</ele>
        <time>2023-05-27T07:47:55Z</time>
      </trkpt>
      <trkpt lat="45.9107" lon="5.34582">
        <ele>237.2</ele>
        <time>2023-05-27T07:47:56Z</time>
      </trkpt>
      <trkpt lat="45.91077" lon="5.34578">
        <ele>237.4</ele>
        <time>2023-05-27T07:47:57Z</time>
      </trkpt>
      <trkpt lat="45.91084" lon="5.34575">
        <ele>237.4</ele>
        <time>2023-05-27T07:47:58Z</time>
      </trkpt>
      <trkpt lat="45.91092" lon="5.34572">
        <ele>237.4</ele>
        <time>2023-05-27T07:47:59Z</time>
      </trkpt>
      <trkpt lat="45.911" lon="5.34569">
        <ele>237.4</ele>
        <time>2023-05-27T07:48:00Z</time>
      </trkpt>
      <trkpt lat="45.91107" lon="5.34566">
        <ele>237.4</ele>
        <time>2023-05-27T07:48:01Z</time>
      </trkpt>
      <trkpt lat="45.91115" lon="5.34563">
        <ele>237.2</ele>
        <time>2023-05-27T07:48:02Z</time>
      </trkpt>
      <trkpt lat="45.91122" lon="5.34559">
        <ele>237.2</ele>
        <time>2023-05-27T07:48:03Z</time>
      </trkpt>
      <trkpt lat="45.9113" lon="5.34556">
        <ele>237.2</ele>
        <time>2023-05-27T07:48:04Z</time>
      </trkpt>
      <trkpt lat="45.91137" lon="5.34553">
        <ele>237.2</ele>
        <time>2023-05-27T07:48:05Z</time>
      </trkpt>
      <trkpt lat="45.91144" lon="5.3455">
        <ele>237.2</ele>
        <time>2023-05-27T07:48:06Z</time>
      </trkpt>
      <trkpt lat="45.91151" lon="5.34548">
        <ele>237.2</ele>
        <time>2023-05-27T07:48:07Z</time>
      </trkpt>
      <trkpt lat="45.91157" lon="5.34548">
        <ele>237.2</ele>
        <time>2023-05-27T07:48:08Z</time>
      </trkpt>
      <trkpt lat="45.91163" lon="5.34549">
        <ele>237.2</ele>
        <time>2023-05-27T07:48:09Z</time>
      </trkpt>
      <trkpt lat="45.91167" lon="5.34553">
        <ele>237.2</ele>
        <time>2023-05-27T07:48:10Z</time>
      </trkpt>
      <trkpt lat="45.9117" lon="5.3456">
        <ele>237.2</ele>
        <time>2023-05-27T07:48:11Z</time>
      </trkpt>
      <trkpt lat="45.91171" lon="5.34566">
        <ele>237.2</ele>
        <time>2023-05-27T07:48:12Z</time>
      </trkpt>
      <trkpt lat="45.91173" lon="5.34572">
        <ele>237.2</ele>
        <time>2023-05-27T07:48:13Z</time>
      </trkpt>
      <trkpt lat="45.91176" lon="5.34576">
        <ele>237.2</ele>
        <time>2023-05-27T07:48:14Z</time>
      </trkpt>
      <trkpt lat="45.9118" lon="5.34578">
        <ele>237.2</ele>
        <time>2023-05-27T07:48:15Z</time>
      </trkpt>
      <trkpt lat="45.91184" lon="5.34577">
        <ele>237.2</ele>
        <time>2023-05-27T07:48:16Z</time>
      </trkpt>
      <trkpt lat="45.91188" lon="5.34575">
        <ele>237.2</ele>
        <time>2023-05-27T07:48:17Z</time>
      </trkpt>
      <trkpt lat="45.91193" lon="5.34573">
        <ele>237.2</ele>
        <time>2023-05-27T07:48:18Z</time>
      </trkpt>
      <trkpt lat="45.91197" lon="5.34571">
        <ele>237.2</ele>
        <time>2023-05-27T07:48:19Z</time>
      </trkpt>
      <trkpt lat="45.91202" lon="5.34568">
        <ele>237.2</ele>
        <time>2023-05-27T07:48:20Z</time>
      </trkpt>
      <trkpt lat="45.91206" lon="5.34566">
        <ele>237.2</ele>
        <time>2023-05-27T07:48:21Z</time>
      </trkpt>
      <trkpt lat="45.91211" lon="5.34564">
        <ele>237.2</ele>
        <time>2023-05-27T07:48:22Z</time>
      </trkpt>
      <trkpt lat="45.91215" lon="5.34562">
        <ele>237.2</ele>
        <time>2023-05-27T07:48:23Z</time>
      </trkpt>
      <trkpt lat="45.9122" lon="5.3456">
        <ele>237.4</ele>
        <time>2023-05-27T07:48:24Z</time>
      </trkpt>
      <trkpt lat="45.91224" lon="5.34558">
        <ele>237.6</ele>
        <time>2023-05-27T07:48:25Z</time>
      </trkpt>
      <trkpt lat="45.91228" lon="5.34555">
        <ele>237.6</ele>
        <time>2023-05-27T07:48:26Z</time>
      </trkpt>
      <trkpt lat="45.91232" lon="5.34553">
        <ele>237.8</ele>
        <time>2023-05-27T07:48:27Z</time>
      </trkpt>
      <trkpt lat="45.91237" lon="5.3455">
        <ele>237.8</ele>
        <time>2023-05-27T07:48:28Z</time>
      </trkpt>
      <trkpt lat="45.91241" lon="5.34548">
        <ele>238</ele>
        <time>2023-05-27T07:48:29Z</time>
      </trkpt>
      <trkpt lat="45.91246" lon="5.34546">
        <ele>238.2</ele>
        <time>2023-05-27T07:48:30Z</time>
      </trkpt>
      <trkpt lat="45.91249" lon="5.34544">
        <ele>238.4</ele>
        <time>2023-05-27T07:48:31Z</time>
      </trkpt>
      <trkpt lat="45.91254" lon="5.34542">
        <ele>238.4</ele>
        <time>2023-05-27T07:48:32Z</time>
      </trkpt>
      <trkpt lat="45.91259" lon="5.34539">
        <ele>238.4</ele>
        <time>2023-05-27T07:48:33Z</time>
      </trkpt>
      <trkpt lat="45.91265" lon="5.34537">
        <ele>238.6</ele>
        <time>2023-05-27T07:48:34Z</time>
      </trkpt>
      <trkpt lat="45.9127" lon="5.34534">
        <ele>238.8</ele>
        <time>2023-05-27T07:48:35Z</time>
      </trkpt>
      <trkpt lat="45.91276" lon="5.34531">
        <ele>239</ele>
        <time>2023-05-27T07:48:36Z</time>
      </trkpt>
      <trkpt lat="45.91281" lon="5.34529">
        <ele>239.2</ele>
        <time>2023-05-27T07:48:37Z</time>
      </trkpt>
      <trkpt lat="45.91294" lon="5.34523">
        <ele>239.4</ele>
        <time>2023-05-27T07:48:39Z</time>
      </trkpt>
      <trkpt lat="45.91298" lon="5.3452">
        <ele>239.4</ele>
        <time>2023-05-27T07:48:40Z</time>
      </trkpt>
      <trkpt lat="45.91304" lon="5.34518">
        <ele>239.4</ele>
        <time>2023-05-27T07:48:41Z</time>
      </trkpt>
      <trkpt lat="45.91311" lon="5.34514">
        <ele>239.6</ele>
        <time>2023-05-27T07:48:42Z</time>
      </trkpt>
      <trkpt lat="45.91317" lon="5.34512">
        <ele>239.6</ele>
        <time>2023-05-27T07:48:43Z</time>
      </trkpt>
      <trkpt lat="45.91321" lon="5.34509">
        <ele>239.4</ele>
        <time>2023-05-27T07:48:44Z</time>
      </trkpt>
      <trkpt lat="45.91327" lon="5.34507">
        <ele>239.4</ele>
        <time>2023-05-27T07:48:45Z</time>
      </trkpt>
      <trkpt lat="45.91333" lon="5.34504">
        <ele>239.4</ele>
        <time>2023-05-27T07:48:46Z</time>
      </trkpt>
      <trkpt lat="45.91338" lon="5.34501">
        <ele>239.6</ele>
        <time>2023-05-27T07:48:47Z</time>
      </trkpt>
      <trkpt lat="45.91344" lon="5.34498">
        <ele>239.8</ele>
        <time>2023-05-27T07:48:48Z</time>
      </trkpt>
      <trkpt lat="45.91349" lon="5.34495">
        <ele>239.8</ele>
        <time>2023-05-27T07:48:49Z</time>
      </trkpt>
      <trkpt lat="45.91362" lon="5.34489">
        <ele>239.4</ele>
        <time>2023-05-27T07:48:51Z</time>
      </trkpt>
      <trkpt lat="45.91368" lon="5.34486">
        <ele>239.4</ele>
        <time>2023-05-27T07:48:52Z</time>
      </trkpt>
      <trkpt lat="45.91373" lon="5.34484">
        <ele>239.4</ele>
        <time>2023-05-27T07:48:53Z</time>
      </trkpt>
      <trkpt lat="45.91378" lon="5.34481">
        <ele>239.4</ele>
        <time>2023-05-27T07:48:54Z</time>
      </trkpt>
      <trkpt lat="45.91384" lon="5.34479">
        <ele>239.4</ele>
        <time>2023-05-27T07:48:55Z</time>
      </trkpt>
      <trkpt lat="45.91391" lon="5.34476">
        <ele>239.4</ele>
        <time>2023-05-27T07:48:56Z</time>
      </trkpt>
      <trkpt lat="45.91397" lon="5.34473">
        <ele>239.4</ele>
        <time>2023-05-27T07:48:57Z</time>
      </trkpt>
      <trkpt lat="45.91401" lon="5.3447">
        <ele>239.4</ele>
        <time>2023-05-27T07:48:58Z</time>
      </trkpt>
      <trkpt lat="45.91407" lon="5.34468">
        <ele>239.4</ele>
        <time>2023-05-27T07:48:59Z</time>
      </trkpt>
      <trkpt lat="45.91414" lon="5.34464">
        <ele>239.4</ele>
        <time>2023-05-27T07:49:00Z</time>
      </trkpt>
      <trkpt lat="45.91424" lon="5.3446">
        <ele>239.6</ele>
        <time>2023-05-27T07:49:02Z</time>
      </trkpt>
      <trkpt lat="45.91429" lon="5.34457">
        <ele>239.8</ele>
        <time>2023-05-27T07:49:03Z</time>
      </trkpt>
      <trkpt lat="45.91435" lon="5.34455">
        <ele>239.8</ele>
        <time>2023-05-27T07:49:04Z</time>
      </trkpt>
      <trkpt lat="45.91442" lon="5.34451">
        <ele>239.8</ele>
        <time>2023-05-27T07:49:05Z</time>
      </trkpt>
      <trkpt lat="45.91448" lon="5.34448">
        <ele>240</ele>
        <time>2023-05-27T07:49:06Z</time>
      </trkpt>
      <trkpt lat="45.91453" lon="5.34446">
        <ele>240.4</ele>
        <time>2023-05-27T07:49:07Z</time>
      </trkpt>
      <trkpt lat="45.91459" lon="5.34444">
        <ele>240.4</ele>
        <time>2023-05-27T07:49:08Z</time>
      </trkpt>
      <trkpt lat="45.91465" lon="5.34441">
        <ele>240.6</ele>
        <time>2023-05-27T07:49:09Z</time>
      </trkpt>
      <trkpt lat="45.91473" lon="5.34438">
        <ele>240.8</ele>
        <time>2023-05-27T07:49:10Z</time>
      </trkpt>
      <trkpt lat="45.91479" lon="5.34436">
        <ele>241</ele>
        <time>2023-05-27T07:49:11Z</time>
      </trkpt>
      <trkpt lat="45.91485" lon="5.34434">
        <ele>241.2</ele>
        <time>2023-05-27T07:49:12Z</time>
      </trkpt>
      <trkpt lat="45.91491" lon="5.34432">
        <ele>241.2</ele>
        <time>2023-05-27T07:49:13Z</time>
      </trkpt>
      <trkpt lat="45.915" lon="5.34429">
        <ele>241.6</ele>
        <time>2023-05-27T07:49:14Z</time>
      </trkpt>
      <trkpt lat="45.91507" lon="5.34427">
        <ele>241.6</ele>
        <time>2023-05-27T07:49:15Z</time>
      </trkpt>
      <trkpt lat="45.91513" lon="5.34425">
        <ele>241.8</ele>
        <time>2023-05-27T07:49:16Z</time>
      </trkpt>
      <trkpt lat="45.91518" lon="5.34424">
        <ele>242</ele>
        <time>2023-05-27T07:49:17Z</time>
      </trkpt>
      <trkpt lat="45.91525" lon="5.34422">
        <ele>242</ele>
        <time>2023-05-27T07:49:18Z</time>
      </trkpt>
      <trkpt lat="45.91533" lon="5.34419">
        <ele>242</ele>
        <time>2023-05-27T07:49:19Z</time>
      </trkpt>
      <trkpt lat="45.91538" lon="5.34418">
        <ele>242</ele>
        <time>2023-05-27T07:49:20Z</time>
      </trkpt>
      <trkpt lat="45.91545" lon="5.34417">
        <ele>242</ele>
        <time>2023-05-27T07:49:21Z</time>
      </trkpt>
      <trkpt lat="45.91552" lon="5.34415">
        <ele>242</ele>
        <time>2023-05-27T07:49:22Z</time>
      </trkpt>
      <trkpt lat="45.91558" lon="5.34414">
        <ele>242</ele>
        <time>2023-05-27T07:49:23Z</time>
      </trkpt>
      <trkpt lat="45.91566" lon="5.34412">
        <ele>242.2</ele>
        <time>2023-05-27T07:49:24Z</time>
      </trkpt>
      <trkpt lat="45.91573" lon="5.34411">
        <ele>242.2</ele>
        <time>2023-05-27T07:49:25Z</time>
      </trkpt>
      <trkpt lat="45.9158" lon="5.34409">
        <ele>242.2</ele>
        <time>2023-05-27T07:49:26Z</time>
      </trkpt>
      <trkpt lat="45.91585" lon="5.34408">
        <ele>242.2</ele>
        <time>2023-05-27T07:49:27Z</time>
      </trkpt>
      <trkpt lat="45.91592" lon="5.34406">
        <ele>242.4</ele>
        <time>2023-05-27T07:49:28Z</time>
      </trkpt>
      <trkpt lat="45.91598" lon="5.34404">
        <ele>242.4</ele>
        <time>2023-05-27T07:49:29Z</time>
      </trkpt>
      <trkpt lat="45.91605" lon="5.34403">
        <ele>242.6</ele>
        <time>2023-05-27T07:49:30Z</time>
      </trkpt>
      <trkpt lat="45.91609" lon="5.34401">
        <ele>242.8</ele>
        <time>2023-05-27T07:49:31Z</time>
      </trkpt>
      <trkpt lat="45.91615" lon="5.344">
        <ele>242.8</ele>
        <time>2023-05-27T07:49:32Z</time>
      </trkpt>
      <trkpt lat="45.91621" lon="5.34399">
        <ele>243.2</ele>
        <time>2023-05-27T07:49:33Z</time>
      </trkpt>
      <trkpt lat="45.91627" lon="5.34398">
        <ele>243.2</ele>
        <time>2023-05-27T07:49:34Z</time>
      </trkpt>
      <trkpt lat="45.9163" lon="5.34397">
        <ele>243.8</ele>
        <time>2023-05-27T07:49:35Z</time>
      </trkpt>
      <trkpt lat="45.91635" lon="5.34397">
        <ele>244</ele>
        <time>2023-05-27T07:49:36Z</time>
      </trkpt>
      <trkpt lat="45.91639" lon="5.34396">
        <ele>244.2</ele>
        <time>2023-05-27T07:49:37Z</time>
      </trkpt>
      <trkpt lat="45.91643" lon="5.34396">
        <ele>244.4</ele>
        <time>2023-05-27T07:49:38Z</time>
      </trkpt>
      <trkpt lat="45.91648" lon="5.34396">
        <ele>244.6</ele>
        <time>2023-05-27T07:49:39Z</time>
      </trkpt>
      <trkpt lat="45.91652" lon="5.34396">
        <ele>245</ele>
        <time>2023-05-27T07:49:40Z</time>
      </trkpt>
      <trkpt lat="45.91657" lon="5.34396">
        <ele>245</ele>
        <time>2023-05-27T07:49:41Z</time>
      </trkpt>
      <trkpt lat="45.91662" lon="5.34397">
        <ele>245.2</ele>
        <time>2023-05-27T07:49:42Z</time>
      </trkpt>
      <trkpt lat="45.91668" lon="5.34397">
        <ele>245.4</ele>
        <time>2023-05-27T07:49:43Z</time>
      </trkpt>
      <trkpt lat="45.91673" lon="5.34397">
        <ele>245.6</ele>
        <time>2023-05-27T07:49:44Z</time>
      </trkpt>
      <trkpt lat="45.91677" lon="5.34397">
        <ele>245.8</ele>
        <time>2023-05-27T07:49:45Z</time>
      </trkpt>
      <trkpt lat="45.91682" lon="5.34397">
        <ele>246</ele>
        <time>2023-05-27T07:49:46Z</time>
      </trkpt>
      <trkpt lat="45.91687" lon="5.34398">
        <ele>246</ele>
        <time>2023-05-27T07:49:47Z</time>
      </trkpt>
      <trkpt lat="45.91692" lon="5.34398">
        <ele>246.2</ele>
        <time>2023-05-27T07:49:48Z</time>
      </trkpt>
      <trkpt lat="45.91698" lon="5.34399">
        <ele>246.4</ele>
        <time>2023-05-27T07:49:49Z</time>
      </trkpt>
      <trkpt lat="45.91703" lon="5.34399">
        <ele>246.6</ele>
        <time>2023-05-27T07:49:50Z</time>
      </trkpt>
      <trkpt lat="45.91709" lon="5.34401">
        <ele>246.8</ele>
        <time>2023-05-27T07:49:51Z</time>
      </trkpt>
      <trkpt lat="45.91715" lon="5.34401">
        <ele>246.8</ele>
        <time>2023-05-27T07:49:52Z</time>
      </trkpt>
      <trkpt lat="45.9172" lon="5.34401">
        <ele>246.8</ele>
        <time>2023-05-27T07:49:53Z</time>
      </trkpt>
      <trkpt lat="45.91726" lon="5.34401">
        <ele>247.2</ele>
        <time>2023-05-27T07:49:54Z</time>
      </trkpt>
      <trkpt lat="45.9173" lon="5.34402">
        <ele>247.4</ele>
        <time>2023-05-27T07:49:55Z</time>
      </trkpt>
      <trkpt lat="45.91735" lon="5.34402">
        <ele>247.4</ele>
        <time>2023-05-27T07:49:56Z</time>
      </trkpt>
      <trkpt lat="45.91741" lon="5.34402">
        <ele>247.6</ele>
        <time>2023-05-27T07:49:57Z</time>
      </trkpt>
      <trkpt lat="45.91746" lon="5.34402">
        <ele>247.6</ele>
        <time>2023-05-27T07:49:58Z</time>
      </trkpt>
      <trkpt lat="45.9175" lon="5.34401">
        <ele>247.8</ele>
        <time>2023-05-27T07:49:59Z</time>
      </trkpt>
      <trkpt lat="45.91754" lon="5.34401">
        <ele>248</ele>
        <time>2023-05-27T07:50:00Z</time>
      </trkpt>
      <trkpt lat="45.9176" lon="5.344">
        <ele>248.2</ele>
        <time>2023-05-27T07:50:01Z</time>
      </trkpt>
      <trkpt lat="45.91764" lon="5.344">
        <ele>248.4</ele>
        <time>2023-05-27T07:50:02Z</time>
      </trkpt>
      <trkpt lat="45.91768" lon="5.34399">
        <ele>249.2</ele>
        <time>2023-05-27T07:50:03Z</time>
      </trkpt>
      <trkpt lat="45.91772" lon="5.34398">
        <ele>249.4</ele>
        <time>2023-05-27T07:50:04Z</time>
      </trkpt>
      <trkpt lat="45.91776" lon="5.34397">
        <ele>250</ele>
        <time>2023-05-27T07:50:05Z</time>
      </trkpt>
      <trkpt lat="45.91781" lon="5.34395">
        <ele>250.4</ele>
        <time>2023-05-27T07:50:06Z</time>
      </trkpt>
      <trkpt lat="45.91787" lon="5.34393">
        <ele>250.4</ele>
        <time>2023-05-27T07:50:07Z</time>
      </trkpt>
      <trkpt lat="45.91791" lon="5.34392">
        <ele>250.8</ele>
        <time>2023-05-27T07:50:08Z</time>
      </trkpt>
      <trkpt lat="45.91796" lon="5.34389">
        <ele>251</ele>
        <time>2023-05-27T07:50:09Z</time>
      </trkpt>
      <trkpt lat="45.91801" lon="5.34388">
        <ele>251.4</ele>
        <time>2023-05-27T07:50:10Z</time>
      </trkpt>
      <trkpt lat="45.91807" lon="5.34386">
        <ele>251.4</ele>
        <time>2023-05-27T07:50:11Z</time>
      </trkpt>
      <trkpt lat="45.91811" lon="5.34384">
        <ele>251.4</ele>
        <time>2023-05-27T07:50:12Z</time>
      </trkpt>
      <trkpt lat="45.91816" lon="5.34383">
        <ele>251.4</ele>
        <time>2023-05-27T07:50:13Z</time>
      </trkpt>
      <trkpt lat="45.9182" lon="5.34382">
        <ele>251.6</ele>
        <time>2023-05-27T07:50:14Z</time>
      </trkpt>
      <trkpt lat="45.91825" lon="5.34379">
        <ele>251.8</ele>
        <time>2023-05-27T07:50:15Z</time>
      </trkpt>
      <trkpt lat="45.91829" lon="5.34377">
        <ele>251.8</ele>
        <time>2023-05-27T07:50:16Z</time>
      </trkpt>
      <trkpt lat="45.91833" lon="5.34376">
        <ele>251.8</ele>
        <time>2023-05-27T07:50:17Z</time>
      </trkpt>
      <trkpt lat="45.91838" lon="5.34374">
        <ele>251.8</ele>
        <time>2023-05-27T07:50:18Z</time>
      </trkpt>
      <trkpt lat="45.91842" lon="5.34372">
        <ele>252</ele>
        <time>2023-05-27T07:50:19Z</time>
      </trkpt>
      <trkpt lat="45.91847" lon="5.34371">
        <ele>252.2</ele>
        <time>2023-05-27T07:50:20Z</time>
      </trkpt>
      <trkpt lat="45.91851" lon="5.34369">
        <ele>252.2</ele>
        <time>2023-05-27T07:50:21Z</time>
      </trkpt>
      <trkpt lat="45.91856" lon="5.34368">
        <ele>252.2</ele>
        <time>2023-05-27T07:50:22Z</time>
      </trkpt>
      <trkpt lat="45.91861" lon="5.34367">
        <ele>252.4</ele>
        <time>2023-05-27T07:50:23Z</time>
      </trkpt>
      <trkpt lat="45.91865" lon="5.34367">
        <ele>252.4</ele>
        <time>2023-05-27T07:50:24Z</time>
      </trkpt>
      <trkpt lat="45.9187" lon="5.34366">
        <ele>252.6</ele>
        <time>2023-05-27T07:50:25Z</time>
      </trkpt>
      <trkpt lat="45.91875" lon="5.34366">
        <ele>252.8</ele>
        <time>2023-05-27T07:50:26Z</time>
      </trkpt>
      <trkpt lat="45.91879" lon="5.34365">
        <ele>252.8</ele>
        <time>2023-05-27T07:50:27Z</time>
      </trkpt>
      <trkpt lat="45.91884" lon="5.34366">
        <ele>253</ele>
        <time>2023-05-27T07:50:28Z</time>
      </trkpt>
      <trkpt lat="45.91888" lon="5.34367">
        <ele>253.2</ele>
        <time>2023-05-27T07:50:29Z</time>
      </trkpt>
      <trkpt lat="45.91893" lon="5.34367">
        <ele>253.4</ele>
        <time>2023-05-27T07:50:30Z</time>
      </trkpt>
      <trkpt lat="45.91897" lon="5.34367">
        <ele>253.6</ele>
        <time>2023-05-27T07:50:31Z</time>
      </trkpt>
      <trkpt lat="45.91901" lon="5.34368">
        <ele>253.6</ele>
        <time>2023-05-27T07:50:32Z</time>
      </trkpt>
      <trkpt lat="45.91905" lon="5.34368">
        <ele>253.8</ele>
        <time>2023-05-27T07:50:33Z</time>
      </trkpt>
      <trkpt lat="45.9191" lon="5.34369">
        <ele>254</ele>
        <time>2023-05-27T07:50:34Z</time>
      </trkpt>
      <trkpt lat="45.91914" lon="5.34371">
        <ele>254.2</ele>
        <time>2023-05-27T07:50:35Z</time>
      </trkpt>
      <trkpt lat="45.91918" lon="5.34372">
        <ele>254.2</ele>
        <time>2023-05-27T07:50:36Z</time>
      </trkpt>
      <trkpt lat="45.91922" lon="5.34373">
        <ele>254.4</ele>
        <time>2023-05-27T07:50:37Z</time>
      </trkpt>
      <trkpt lat="45.91926" lon="5.34374">
        <ele>254.6</ele>
        <time>2023-05-27T07:50:38Z</time>
      </trkpt>
      <trkpt lat="45.9193" lon="5.34375">
        <ele>254.6</ele>
        <time>2023-05-27T07:50:39Z</time>
      </trkpt>
      <trkpt lat="45.91934" lon="5.34377">
        <ele>255.2</ele>
        <time>2023-05-27T07:50:40Z</time>
      </trkpt>
      <trkpt lat="45.91937" lon="5.34379">
        <ele>255.4</ele>
        <time>2023-05-27T07:50:41Z</time>
      </trkpt>
      <trkpt lat="45.91941" lon="5.34381">
        <ele>255.6</ele>
        <time>2023-05-27T07:50:42Z</time>
      </trkpt>
      <trkpt lat="45.91945" lon="5.34383">
        <ele>256</ele>
        <time>2023-05-27T07:50:43Z</time>
      </trkpt>
      <trkpt lat="45.91949" lon="5.34385">
        <ele>256</ele>
        <time>2023-05-27T07:50:44Z</time>
      </trkpt>
      <trkpt lat="45.91953" lon="5.34388">
        <ele>256.2</ele>
        <time>2023-05-27T07:50:45Z</time>
      </trkpt>
      <trkpt lat="45.91956" lon="5.3439">
        <ele>256.2</ele>
        <time>2023-05-27T07:50:46Z</time>
      </trkpt>
      <trkpt lat="45.9196" lon="5.34393">
        <ele>256.4</ele>
        <time>2023-05-27T07:50:47Z</time>
      </trkpt>
      <trkpt lat="45.91964" lon="5.34396">
        <ele>256.6</ele>
        <time>2023-05-27T07:50:48Z</time>
      </trkpt>
      <trkpt lat="45.91967" lon="5.34399">
        <ele>256.6</ele>
        <time>2023-05-27T07:50:49Z</time>
      </trkpt>
      <trkpt lat="45.91971" lon="5.34403">
        <ele>256.8</ele>
        <time>2023-05-27T07:50:50Z</time>
      </trkpt>
      <trkpt lat="45.91974" lon="5.34406">
        <ele>257</ele>
        <time>2023-05-27T07:50:51Z</time>
      </trkpt>
      <trkpt lat="45.91977" lon="5.3441">
        <ele>257.2</ele>
        <time>2023-05-27T07:50:52Z</time>
      </trkpt>
      <trkpt lat="45.91981" lon="5.34413">
        <ele>257.2</ele>
        <time>2023-05-27T07:50:53Z</time>
      </trkpt>
      <trkpt lat="45.91984" lon="5.34417">
        <ele>257.4</ele>
        <time>2023-05-27T07:50:54Z</time>
      </trkpt>
      <trkpt lat="45.91987" lon="5.3442">
        <ele>257.6</ele>
        <time>2023-05-27T07:50:55Z</time>
      </trkpt>
      <trkpt lat="45.91991" lon="5.34423">
        <ele>257.4</ele>
        <time>2023-05-27T07:50:56Z</time>
      </trkpt>
      <trkpt lat="45.91994" lon="5.34426">
        <ele>257.6</ele>
        <time>2023-05-27T07:50:57Z</time>
      </trkpt>
      <trkpt lat="45.91998" lon="5.34429">
        <ele>257.6</ele>
        <time>2023-05-27T07:50:58Z</time>
      </trkpt>
      <trkpt lat="45.92001" lon="5.34432">
        <ele>257.8</ele>
        <time>2023-05-27T07:50:59Z</time>
      </trkpt>
      <trkpt lat="45.92005" lon="5.34435">
        <ele>257.8</ele>
        <time>2023-05-27T07:51:00Z</time>
      </trkpt>
      <trkpt lat="45.92009" lon="5.34438">
        <ele>258</ele>
        <time>2023-05-27T07:51:01Z</time>
      </trkpt>
      <trkpt lat="45.92013" lon="5.3444">
        <ele>258</ele>
        <time>2023-05-27T07:51:02Z</time>
      </trkpt>
      <trkpt lat="45.92017" lon="5.34443">
        <ele>258.2</ele>
        <time>2023-05-27T07:51:03Z</time>
      </trkpt>
      <trkpt lat="45.9202" lon="5.34447">
        <ele>258.4</ele>
        <time>2023-05-27T07:51:04Z</time>
      </trkpt>
      <trkpt lat="45.92024" lon="5.34449">
        <ele>258.6</ele>
        <time>2023-05-27T07:51:05Z</time>
      </trkpt>
      <trkpt lat="45.92027" lon="5.34452">
        <ele>258.8</ele>
        <time>2023-05-27T07:51:06Z</time>
      </trkpt>
      <trkpt lat="45.92031" lon="5.34455">
        <ele>258.8</ele>
        <time>2023-05-27T07:51:07Z</time>
      </trkpt>
      <trkpt lat="45.92034" lon="5.34457">
        <ele>259</ele>
        <time>2023-05-27T07:51:08Z</time>
      </trkpt>
      <trkpt lat="45.92038" lon="5.3446">
        <ele>259.2</ele>
        <time>2023-05-27T07:51:09Z</time>
      </trkpt>
      <trkpt lat="45.92041" lon="5.34462">
        <ele>259.4</ele>
        <time>2023-05-27T07:51:10Z</time>
      </trkpt>
      <trkpt lat="45.92045" lon="5.34465">
        <ele>259.4</ele>
        <time>2023-05-27T07:51:11Z</time>
      </trkpt>
      <trkpt lat="45.92049" lon="5.34468">
        <ele>259.6</ele>
        <time>2023-05-27T07:51:12Z</time>
      </trkpt>
      <trkpt lat="45.92053" lon="5.34471">
        <ele>259.8</ele>
        <time>2023-05-27T07:51:13Z</time>
      </trkpt>
      <trkpt lat="45.92057" lon="5.34474">
        <ele>260</ele>
        <time>2023-05-27T07:51:14Z</time>
      </trkpt>
      <trkpt lat="45.9206" lon="5.34476">
        <ele>260.2</ele>
        <time>2023-05-27T07:51:15Z</time>
      </trkpt>
      <trkpt lat="45.92064" lon="5.34479">
        <ele>260.4</ele>
        <time>2023-05-27T07:51:16Z</time>
      </trkpt>
      <trkpt lat="45.92068" lon="5.34481">
        <ele>260.4</ele>
        <time>2023-05-27T07:51:17Z</time>
      </trkpt>
      <trkpt lat="45.92072" lon="5.34483">
        <ele>260.6</ele>
        <time>2023-05-27T07:51:18Z</time>
      </trkpt>
      <trkpt lat="45.92076" lon="5.34485">
        <ele>260.8</ele>
        <time>2023-05-27T07:51:19Z</time>
      </trkpt>
      <trkpt lat="45.92081" lon="5.34487">
        <ele>261.4</ele>
        <time>2023-05-27T07:51:20Z</time>
      </trkpt>
      <trkpt lat="45.92085" lon="5.34488">
        <ele>261.6</ele>
        <time>2023-05-27T07:51:21Z</time>
      </trkpt>
      <trkpt lat="45.9209" lon="5.34489">
        <ele>261.8</ele>
        <time>2023-05-27T07:51:22Z</time>
      </trkpt>
      <trkpt lat="45.92095" lon="5.34491">
        <ele>262</ele>
        <time>2023-05-27T07:51:23Z</time>
      </trkpt>
      <trkpt lat="45.92099" lon="5.34492">
        <ele>262</ele>
        <time>2023-05-27T07:51:24Z</time>
      </trkpt>
      <trkpt lat="45.92103" lon="5.34493">
        <ele>262.2</ele>
        <time>2023-05-27T07:51:25Z</time>
      </trkpt>
      <trkpt lat="45.92108" lon="5.34494">
        <ele>262.4</ele>
        <time>2023-05-27T07:51:26Z</time>
      </trkpt>
      <trkpt lat="45.92113" lon="5.34495">
        <ele>262.6</ele>
        <time>2023-05-27T07:51:27Z</time>
      </trkpt>
      <trkpt lat="45.92118" lon="5.34497">
        <ele>262.6</ele>
        <time>2023-05-27T07:51:28Z</time>
      </trkpt>
      <trkpt lat="45.92123" lon="5.34498">
        <ele>263.2</ele>
        <time>2023-05-27T07:51:29Z</time>
      </trkpt>
      <trkpt lat="45.92128" lon="5.345">
        <ele>263.8</ele>
        <time>2023-05-27T07:51:30Z</time>
      </trkpt>
      <trkpt lat="45.92134" lon="5.34501">
        <ele>263.8</ele>
        <time>2023-05-27T07:51:31Z</time>
      </trkpt>
      <trkpt lat="45.92139" lon="5.34503">
        <ele>264.2</ele>
        <time>2023-05-27T07:51:32Z</time>
      </trkpt>
      <trkpt lat="45.92144" lon="5.34504">
        <ele>264.2</ele>
        <time>2023-05-27T07:51:33Z</time>
      </trkpt>
      <trkpt lat="45.9215" lon="5.34506">
        <ele>264.6</ele>
        <time>2023-05-27T07:51:34Z</time>
      </trkpt>
      <trkpt lat="45.92156" lon="5.34508">
        <ele>264.6</ele>
        <time>2023-05-27T07:51:35Z</time>
      </trkpt>
      <trkpt lat="45.92161" lon="5.34509">
        <ele>264.8</ele>
        <time>2023-05-27T07:51:36Z</time>
      </trkpt>
      <trkpt lat="45.92167" lon="5.34511">
        <ele>265</ele>
        <time>2023-05-27T07:51:37Z</time>
      </trkpt>
      <trkpt lat="45.92173" lon="5.34513">
        <ele>265.2</ele>
        <time>2023-05-27T07:51:38Z</time>
      </trkpt>
      <trkpt lat="45.92178" lon="5.34514">
        <ele>265.4</ele>
        <time>2023-05-27T07:51:39Z</time>
      </trkpt>
      <trkpt lat="45.92184" lon="5.34515">
        <ele>265.6</ele>
        <time>2023-05-27T07:51:40Z</time>
      </trkpt>
      <trkpt lat="45.9219" lon="5.34517">
        <ele>265.8</ele>
        <time>2023-05-27T07:51:41Z</time>
      </trkpt>
      <trkpt lat="45.92196" lon="5.34518">
        <ele>266</ele>
        <time>2023-05-27T07:51:42Z</time>
      </trkpt>
      <trkpt lat="45.92207" lon="5.34522">
        <ele>266.4</ele>
        <time>2023-05-27T07:51:44Z</time>
      </trkpt>
      <trkpt lat="45.92213" lon="5.34523">
        <ele>266.4</ele>
        <time>2023-05-27T07:51:45Z</time>
      </trkpt>
      <trkpt lat="45.92219" lon="5.34525">
        <ele>266.6</ele>
        <time>2023-05-27T07:51:46Z</time>
      </trkpt>
      <trkpt lat="45.92225" lon="5.34527">
        <ele>266.6</ele>
        <time>2023-05-27T07:51:47Z</time>
      </trkpt>
      <trkpt lat="45.92231" lon="5.34529">
        <ele>266.6</ele>
        <time>2023-05-27T07:51:48Z</time>
      </trkpt>
      <trkpt lat="45.92236" lon="5.34531">
        <ele>266.6</ele>
        <time>2023-05-27T07:51:49Z</time>
      </trkpt>
      <trkpt lat="45.92242" lon="5.34534">
        <ele>266.6</ele>
        <time>2023-05-27T07:51:50Z</time>
      </trkpt>
      <trkpt lat="45.92248" lon="5.34536">
        <ele>266.8</ele>
        <time>2023-05-27T07:51:51Z</time>
      </trkpt>
      <trkpt lat="45.92253" lon="5.34538">
        <ele>266.8</ele>
        <time>2023-05-27T07:51:52Z</time>
      </trkpt>
      <trkpt lat="45.92259" lon="5.3454">
        <ele>266.8</ele>
        <time>2023-05-27T07:51:53Z</time>
      </trkpt>
      <trkpt lat="45.92264" lon="5.34542">
        <ele>266.8</ele>
        <time>2023-05-27T07:51:54Z</time>
      </trkpt>
      <trkpt lat="45.9227" lon="5.34545">
        <ele>267</ele>
        <time>2023-05-27T07:51:55Z</time>
      </trkpt>
      <trkpt lat="45.92275" lon="5.34548">
        <ele>267.2</ele>
        <time>2023-05-27T07:51:56Z</time>
      </trkpt>
      <trkpt lat="45.9228" lon="5.34552">
        <ele>267.4</ele>
        <time>2023-05-27T07:51:57Z</time>
      </trkpt>
      <trkpt lat="45.92285" lon="5.34556">
        <ele>267.6</ele>
        <time>2023-05-27T07:51:58Z</time>
      </trkpt>
      <trkpt lat="45.9229" lon="5.3456">
        <ele>267.6</ele>
        <time>2023-05-27T07:51:59Z</time>
      </trkpt>
      <trkpt lat="45.92295" lon="5.34564">
        <ele>267.8</ele>
        <time>2023-05-27T07:52:00Z</time>
      </trkpt>
      <trkpt lat="45.923" lon="5.34569">
        <ele>268</ele>
        <time>2023-05-27T07:52:01Z</time>
      </trkpt>
      <trkpt lat="45.92305" lon="5.34574">
        <ele>268.2</ele>
        <time>2023-05-27T07:52:02Z</time>
      </trkpt>
      <trkpt lat="45.92309" lon="5.34579">
        <ele>268.2</ele>
        <time>2023-05-27T07:52:03Z</time>
      </trkpt>
      <trkpt lat="45.92314" lon="5.34585">
        <ele>268.4</ele>
        <time>2023-05-27T07:52:04Z</time>
      </trkpt>
      <trkpt lat="45.92318" lon="5.34591">
        <ele>268.4</ele>
        <time>2023-05-27T07:52:05Z</time>
      </trkpt>
      <trkpt lat="45.92322" lon="5.34597">
        <ele>268.4</ele>
        <time>2023-05-27T07:52:06Z</time>
      </trkpt>
      <trkpt lat="45.92326" lon="5.34604">
        <ele>268.4</ele>
        <time>2023-05-27T07:52:07Z</time>
      </trkpt>
      <trkpt lat="45.9233" lon="5.34611">
        <ele>268.4</ele>
        <time>2023-05-27T07:52:08Z</time>
      </trkpt>
      <trkpt lat="45.92334" lon="5.34618">
        <ele>268.4</ele>
        <time>2023-05-27T07:52:09Z</time>
      </trkpt>
      <trkpt lat="45.92338" lon="5.34625">
        <ele>268.6</ele>
        <time>2023-05-27T07:52:10Z</time>
      </trkpt>
      <trkpt lat="45.92342" lon="5.34633">
        <ele>268.6</ele>
        <time>2023-05-27T07:52:11Z</time>
      </trkpt>
      <trkpt lat="45.92346" lon="5.3464">
        <ele>268.8</ele>
        <time>2023-05-27T07:52:12Z</time>
      </trkpt>
      <trkpt lat="45.9235" lon="5.34647">
        <ele>268.8</ele>
        <time>2023-05-27T07:52:13Z</time>
      </trkpt>
      <trkpt lat="45.92354" lon="5.34654">
        <ele>268.8</ele>
        <time>2023-05-27T07:52:14Z</time>
      </trkpt>
      <trkpt lat="45.92357" lon="5.34662">
        <ele>269</ele>
        <time>2023-05-27T07:52:15Z</time>
      </trkpt>
      <trkpt lat="45.9236" lon="5.34669">
        <ele>269.2</ele>
        <time>2023-05-27T07:52:16Z</time>
      </trkpt>
      <trkpt lat="45.92364" lon="5.34677">
        <ele>269.2</ele>
        <time>2023-05-27T07:52:17Z</time>
      </trkpt>
      <trkpt lat="45.92366" lon="5.34685">
        <ele>269.4</ele>
        <time>2023-05-27T07:52:18Z</time>
      </trkpt>
      <trkpt lat="45.92369" lon="5.34693">
        <ele>269.4</ele>
        <time>2023-05-27T07:52:19Z</time>
      </trkpt>
      <trkpt lat="45.92372" lon="5.34701">
        <ele>269.8</ele>
        <time>2023-05-27T07:52:20Z</time>
      </trkpt>
      <trkpt lat="45.92374" lon="5.3471">
        <ele>269.8</ele>
        <time>2023-05-27T07:52:21Z</time>
      </trkpt>
      <trkpt lat="45.92376" lon="5.34718">
        <ele>270</ele>
        <time>2023-05-27T07:52:22Z</time>
      </trkpt>
      <trkpt lat="45.92379" lon="5.34726">
        <ele>270.2</ele>
        <time>2023-05-27T07:52:23Z</time>
      </trkpt>
      <trkpt lat="45.92381" lon="5.34735">
        <ele>270.2</ele>
        <time>2023-05-27T07:52:24Z</time>
      </trkpt>
      <trkpt lat="45.92383" lon="5.34743">
        <ele>270.2</ele>
        <time>2023-05-27T07:52:25Z</time>
      </trkpt>
      <trkpt lat="45.92385" lon="5.34751">
        <ele>270.4</ele>
        <time>2023-05-27T07:52:26Z</time>
      </trkpt>
      <trkpt lat="45.92387" lon="5.34759">
        <ele>270.4</ele>
        <time>2023-05-27T07:52:27Z</time>
      </trkpt>
      <trkpt lat="45.92389" lon="5.34767">
        <ele>270.8</ele>
        <time>2023-05-27T07:52:28Z</time>
      </trkpt>
      <trkpt lat="45.92392" lon="5.34775">
        <ele>270.8</ele>
        <time>2023-05-27T07:52:29Z</time>
      </trkpt>
      <trkpt lat="45.92395" lon="5.34783">
        <ele>271.2</ele>
        <time>2023-05-27T07:52:30Z</time>
      </trkpt>
      <trkpt lat="45.92397" lon="5.34791">
        <ele>271.2</ele>
        <time>2023-05-27T07:52:31Z</time>
      </trkpt>
      <trkpt lat="45.924" lon="5.34799">
        <ele>271.2</ele>
        <time>2023-05-27T07:52:32Z</time>
      </trkpt>
      <trkpt lat="45.92404" lon="5.34807">
        <ele>271.4</ele>
        <time>2023-05-27T07:52:33Z</time>
      </trkpt>
      <trkpt lat="45.92407" lon="5.34814">
        <ele>271.8</ele>
        <time>2023-05-27T07:52:34Z</time>
      </trkpt>
      <trkpt lat="45.92411" lon="5.34822">
        <ele>272</ele>
        <time>2023-05-27T07:52:35Z</time>
      </trkpt>
      <trkpt lat="45.92414" lon="5.3483">
        <ele>272.2</ele>
        <time>2023-05-27T07:52:36Z</time>
      </trkpt>
      <trkpt lat="45.92418" lon="5.34838">
        <ele>272.2</ele>
        <time>2023-05-27T07:52:37Z</time>
      </trkpt>
      <trkpt lat="45.92421" lon="5.34847">
        <ele>272.2</ele>
        <time>2023-05-27T07:52:38Z</time>
      </trkpt>
      <trkpt lat="45.92423" lon="5.34855">
        <ele>272.2</ele>
        <time>2023-05-27T07:52:39Z</time>
      </trkpt>
      <trkpt lat="45.92426" lon="5.34865">
        <ele>272.4</ele>
        <time>2023-05-27T07:52:40Z</time>
      </trkpt>
      <trkpt lat="45.9243" lon="5.34874">
        <ele>272.4</ele>
        <time>2023-05-27T07:52:41Z</time>
      </trkpt>
      <trkpt lat="45.92433" lon="5.34883">
        <ele>272.4</ele>
        <time>2023-05-27T07:52:42Z</time>
      </trkpt>
      <trkpt lat="45.92442" lon="5.349">
        <ele>272.4</ele>
        <time>2023-05-27T07:52:44Z</time>
      </trkpt>
      <trkpt lat="45.92445" lon="5.34908">
        <ele>272.6</ele>
        <time>2023-05-27T07:52:45Z</time>
      </trkpt>
      <trkpt lat="45.92449" lon="5.34917">
        <ele>272.6</ele>
        <time>2023-05-27T07:52:46Z</time>
      </trkpt>
      <trkpt lat="45.92453" lon="5.34925">
        <ele>272.6</ele>
        <time>2023-05-27T07:52:47Z</time>
      </trkpt>
      <trkpt lat="45.92456" lon="5.34933">
        <ele>272.8</ele>
        <time>2023-05-27T07:52:48Z</time>
      </trkpt>
      <trkpt lat="45.92459" lon="5.34942">
        <ele>272.8</ele>
        <time>2023-05-27T07:52:49Z</time>
      </trkpt>
      <trkpt lat="45.92462" lon="5.3495">
        <ele>272.8</ele>
        <time>2023-05-27T07:52:50Z</time>
      </trkpt>
      <trkpt lat="45.92465" lon="5.3496">
        <ele>273</ele>
        <time>2023-05-27T07:52:51Z</time>
      </trkpt>
      <trkpt lat="45.92468" lon="5.34969">
        <ele>273</ele>
        <time>2023-05-27T07:52:52Z</time>
      </trkpt>
      <trkpt lat="45.92471" lon="5.34979">
        <ele>273</ele>
        <time>2023-05-27T07:52:53Z</time>
      </trkpt>
      <trkpt lat="45.92476" lon="5.34999">
        <ele>273.2</ele>
        <time>2023-05-27T07:52:55Z</time>
      </trkpt>
      <trkpt lat="45.92479" lon="5.35009">
        <ele>273.4</ele>
        <time>2023-05-27T07:52:56Z</time>
      </trkpt>
      <trkpt lat="45.92481" lon="5.35019">
        <ele>273.4</ele>
        <time>2023-05-27T07:52:57Z</time>
      </trkpt>
      <trkpt lat="45.92484" lon="5.3503">
        <ele>273.6</ele>
        <time>2023-05-27T07:52:58Z</time>
      </trkpt>
      <trkpt lat="45.92486" lon="5.3504">
        <ele>273.6</ele>
        <time>2023-05-27T07:52:59Z</time>
      </trkpt>
      <trkpt lat="45.92489" lon="5.3505">
        <ele>273.6</ele>
        <time>2023-05-27T07:53:00Z</time>
      </trkpt>
      <trkpt lat="45.92491" lon="5.3506">
        <ele>273.6</ele>
        <time>2023-05-27T07:53:01Z</time>
      </trkpt>
      <trkpt lat="45.92494" lon="5.3507">
        <ele>273.6</ele>
        <time>2023-05-27T07:53:02Z</time>
      </trkpt>
      <trkpt lat="45.92496" lon="5.3508">
        <ele>273.8</ele>
        <time>2023-05-27T07:53:03Z</time>
      </trkpt>
      <trkpt lat="45.92499" lon="5.35089">
        <ele>273.8</ele>
        <time>2023-05-27T07:53:04Z</time>
      </trkpt>
      <trkpt lat="45.92501" lon="5.35099">
        <ele>274</ele>
        <time>2023-05-27T07:53:05Z</time>
      </trkpt>
      <trkpt lat="45.92504" lon="5.35108">
        <ele>274</ele>
        <time>2023-05-27T07:53:06Z</time>
      </trkpt>
      <trkpt lat="45.92507" lon="5.35117">
        <ele>274.2</ele>
        <time>2023-05-27T07:53:07Z</time>
      </trkpt>
      <trkpt lat="45.92511" lon="5.35126">
        <ele>274.4</ele>
        <time>2023-05-27T07:53:08Z</time>
      </trkpt>
      <trkpt lat="45.92514" lon="5.35136">
        <ele>274.4</ele>
        <time>2023-05-27T07:53:09Z</time>
      </trkpt>
      <trkpt lat="45.92517" lon="5.35145">
        <ele>274.4</ele>
        <time>2023-05-27T07:53:10Z</time>
      </trkpt>
      <trkpt lat="45.92521" lon="5.35155">
        <ele>274.6</ele>
        <time>2023-05-27T07:53:11Z</time>
      </trkpt>
      <trkpt lat="45.92524" lon="5.35164">
        <ele>274.6</ele>
        <time>2023-05-27T07:53:12Z</time>
      </trkpt>
      <trkpt lat="45.92528" lon="5.35174">
        <ele>274.6</ele>
        <time>2023-05-27T07:53:13Z</time>
      </trkpt>
      <trkpt lat="45.92531" lon="5.35183">
        <ele>274.6</ele>
        <time>2023-05-27T07:53:14Z</time>
      </trkpt>
      <trkpt lat="45.92535" lon="5.35192">
        <ele>274.6</ele>
        <time>2023-05-27T07:53:15Z</time>
      </trkpt>
      <trkpt lat="45.92542" lon="5.3521">
        <ele>274.8</ele>
        <time>2023-05-27T07:53:17Z</time>
      </trkpt>
      <trkpt lat="45.92546" lon="5.35219">
        <ele>274.8</ele>
        <time>2023-05-27T07:53:18Z</time>
      </trkpt>
      <trkpt lat="45.9255" lon="5.35229">
        <ele>274.8</ele>
        <time>2023-05-27T07:53:19Z</time>
      </trkpt>
      <trkpt lat="45.92553" lon="5.35238">
        <ele>274.8</ele>
        <time>2023-05-27T07:53:20Z</time>
      </trkpt>
      <trkpt lat="45.92556" lon="5.35246">
        <ele>274.8</ele>
        <time>2023-05-27T07:53:21Z</time>
      </trkpt>
      <trkpt lat="45.9256" lon="5.35256">
        <ele>274.8</ele>
        <time>2023-05-27T07:53:22Z</time>
      </trkpt>
      <trkpt lat="45.92564" lon="5.35265">
        <ele>274.8</ele>
        <time>2023-05-27T07:53:23Z</time>
      </trkpt>
      <trkpt lat="45.92568" lon="5.35274">
        <ele>274.8</ele>
        <time>2023-05-27T07:53:24Z</time>
      </trkpt>
      <trkpt lat="45.92572" lon="5.35282">
        <ele>274.8</ele>
        <time>2023-05-27T07:53:25Z</time>
      </trkpt>
      <trkpt lat="45.92577" lon="5.3529">
        <ele>274.8</ele>
        <time>2023-05-27T07:53:26Z</time>
      </trkpt>
      <trkpt lat="45.92581" lon="5.35297">
        <ele>275</ele>
        <time>2023-05-27T07:53:27Z</time>
      </trkpt>
      <trkpt lat="45.92591" lon="5.35311">
        <ele>275</ele>
        <time>2023-05-27T07:53:29Z</time>
      </trkpt>
      <trkpt lat="45.92596" lon="5.35318">
        <ele>275</ele>
        <time>2023-05-27T07:53:30Z</time>
      </trkpt>
      <trkpt lat="45.92601" lon="5.35324">
        <ele>275.2</ele>
        <time>2023-05-27T07:53:31Z</time>
      </trkpt>
      <trkpt lat="45.92606" lon="5.3533">
        <ele>275.2</ele>
        <time>2023-05-27T07:53:32Z</time>
      </trkpt>
      <trkpt lat="45.9261" lon="5.35336">
        <ele>275.2</ele>
        <time>2023-05-27T07:53:33Z</time>
      </trkpt>
      <trkpt lat="45.92616" lon="5.35342">
        <ele>275.4</ele>
        <time>2023-05-27T07:53:34Z</time>
      </trkpt>
      <trkpt lat="45.92621" lon="5.35348">
        <ele>275.4</ele>
        <time>2023-05-27T07:53:35Z</time>
      </trkpt>
      <trkpt lat="45.92626" lon="5.35353">
        <ele>275.4</ele>
        <time>2023-05-27T07:53:36Z</time>
      </trkpt>
      <trkpt lat="45.92631" lon="5.35359">
        <ele>275.6</ele>
        <time>2023-05-27T07:53:37Z</time>
      </trkpt>
      <trkpt lat="45.92637" lon="5.35364">
        <ele>275.8</ele>
        <time>2023-05-27T07:53:38Z</time>
      </trkpt>
      <trkpt lat="45.92643" lon="5.35368">
        <ele>276</ele>
        <time>2023-05-27T07:53:39Z</time>
      </trkpt>
      <trkpt lat="45.92649" lon="5.35372">
        <ele>276.4</ele>
        <time>2023-05-27T07:53:40Z</time>
      </trkpt>
      <trkpt lat="45.92655" lon="5.35375">
        <ele>276.4</ele>
        <time>2023-05-27T07:53:41Z</time>
      </trkpt>
      <trkpt lat="45.92661" lon="5.35377">
        <ele>276.8</ele>
        <time>2023-05-27T07:53:42Z</time>
      </trkpt>
      <trkpt lat="45.92667" lon="5.3538">
        <ele>277</ele>
        <time>2023-05-27T07:53:43Z</time>
      </trkpt>
      <trkpt lat="45.92674" lon="5.35382">
        <ele>277</ele>
        <time>2023-05-27T07:53:44Z</time>
      </trkpt>
      <trkpt lat="45.9268" lon="5.35384">
        <ele>277.2</ele>
        <time>2023-05-27T07:53:45Z</time>
      </trkpt>
      <trkpt lat="45.92687" lon="5.35386">
        <ele>277.2</ele>
        <time>2023-05-27T07:53:46Z</time>
      </trkpt>
      <trkpt lat="45.92694" lon="5.35387">
        <ele>277.4</ele>
        <time>2023-05-27T07:53:47Z</time>
      </trkpt>
      <trkpt lat="45.92701" lon="5.35387">
        <ele>277.6</ele>
        <time>2023-05-27T07:53:48Z</time>
      </trkpt>
      <trkpt lat="45.92708" lon="5.35388">
        <ele>277.8</ele>
        <time>2023-05-27T07:53:49Z</time>
      </trkpt>
      <trkpt lat="45.92715" lon="5.35389">
        <ele>278</ele>
        <time>2023-05-27T07:53:50Z</time>
      </trkpt>
      <trkpt lat="45.92722" lon="5.3539">
        <ele>278.2</ele>
        <time>2023-05-27T07:53:51Z</time>
      </trkpt>
      <trkpt lat="45.92728" lon="5.3539">
        <ele>278.4</ele>
        <time>2023-05-27T07:53:52Z</time>
      </trkpt>
      <trkpt lat="45.92734" lon="5.3539">
        <ele>278.6</ele>
        <time>2023-05-27T07:53:53Z</time>
      </trkpt>
      <trkpt lat="45.92741" lon="5.3539">
        <ele>278.6</ele>
        <time>2023-05-27T07:53:54Z</time>
      </trkpt>
      <trkpt lat="45.92747" lon="5.35392">
        <ele>278.8</ele>
        <time>2023-05-27T07:53:55Z</time>
      </trkpt>
      <trkpt lat="45.92752" lon="5.35392">
        <ele>279</ele>
        <time>2023-05-27T07:53:56Z</time>
      </trkpt>
      <trkpt lat="45.92758" lon="5.35393">
        <ele>279</ele>
        <time>2023-05-27T07:53:57Z</time>
      </trkpt>
      <trkpt lat="45.92765" lon="5.35393">
        <ele>279.4</ele>
        <time>2023-05-27T07:53:58Z</time>
      </trkpt>
      <trkpt lat="45.92772" lon="5.35394">
        <ele>279.6</ele>
        <time>2023-05-27T07:53:59Z</time>
      </trkpt>
      <trkpt lat="45.92778" lon="5.35395">
        <ele>279.8</ele>
        <time>2023-05-27T07:54:00Z</time>
      </trkpt>
      <trkpt lat="45.92785" lon="5.35396">
        <ele>279.8</ele>
        <time>2023-05-27T07:54:01Z</time>
      </trkpt>
      <trkpt lat="45.92791" lon="5.35398">
        <ele>279.8</ele>
        <time>2023-05-27T07:54:02Z</time>
      </trkpt>
      <trkpt lat="45.92798" lon="5.35401">
        <ele>280</ele>
        <time>2023-05-27T07:54:03Z</time>
      </trkpt>
      <trkpt lat="45.92804" lon="5.35403">
        <ele>280</ele>
        <time>2023-05-27T07:54:04Z</time>
      </trkpt>
      <trkpt lat="45.92811" lon="5.35405">
        <ele>280.2</ele>
        <time>2023-05-27T07:54:05Z</time>
      </trkpt>
      <trkpt lat="45.92817" lon="5.35408">
        <ele>280.4</ele>
        <time>2023-05-27T07:54:06Z</time>
      </trkpt>
      <trkpt lat="45.92824" lon="5.3541">
        <ele>280.4</ele>
        <time>2023-05-27T07:54:07Z</time>
      </trkpt>
      <trkpt lat="45.9283" lon="5.35412">
        <ele>280.4</ele>
        <time>2023-05-27T07:54:08Z</time>
      </trkpt>
      <trkpt lat="45.92836" lon="5.35413">
        <ele>280.6</ele>
        <time>2023-05-27T07:54:09Z</time>
      </trkpt>
      <trkpt lat="45.92842" lon="5.35414">
        <ele>280.6</ele>
        <time>2023-05-27T07:54:10Z</time>
      </trkpt>
      <trkpt lat="45.92849" lon="5.35415">
        <ele>280.8</ele>
        <time>2023-05-27T07:54:11Z</time>
      </trkpt>
      <trkpt lat="45.92855" lon="5.35415">
        <ele>280.8</ele>
        <time>2023-05-27T07:54:12Z</time>
      </trkpt>
      <trkpt lat="45.92862" lon="5.35416">
        <ele>280.8</ele>
        <time>2023-05-27T07:54:13Z</time>
      </trkpt>
      <trkpt lat="45.92868" lon="5.35416">
        <ele>281</ele>
        <time>2023-05-27T07:54:14Z</time>
      </trkpt>
      <trkpt lat="45.92875" lon="5.35417">
        <ele>281</ele>
        <time>2023-05-27T07:54:15Z</time>
      </trkpt>
      <trkpt lat="45.92881" lon="5.35418">
        <ele>281</ele>
        <time>2023-05-27T07:54:16Z</time>
      </trkpt>
      <trkpt lat="45.92887" lon="5.3542">
        <ele>281</ele>
        <time>2023-05-27T07:54:17Z</time>
      </trkpt>
      <trkpt lat="45.92893" lon="5.35422">
        <ele>281</ele>
        <time>2023-05-27T07:54:18Z</time>
      </trkpt>
      <trkpt lat="45.92899" lon="5.35424">
        <ele>281</ele>
        <time>2023-05-27T07:54:19Z</time>
      </trkpt>
      <trkpt lat="45.92905" lon="5.35427">
        <ele>281</ele>
        <time>2023-05-27T07:54:20Z</time>
      </trkpt>
      <trkpt lat="45.92911" lon="5.35431">
        <ele>281</ele>
        <time>2023-05-27T07:54:21Z</time>
      </trkpt>
      <trkpt lat="45.92917" lon="5.35435">
        <ele>280.8</ele>
        <time>2023-05-27T07:54:22Z</time>
      </trkpt>
      <trkpt lat="45.92923" lon="5.35438">
        <ele>280.8</ele>
        <time>2023-05-27T07:54:23Z</time>
      </trkpt>
      <trkpt lat="45.92928" lon="5.35442">
        <ele>281</ele>
        <time>2023-05-27T07:54:24Z</time>
      </trkpt>
      <trkpt lat="45.92934" lon="5.35445">
        <ele>281</ele>
        <time>2023-05-27T07:54:25Z</time>
      </trkpt>
      <trkpt lat="45.92941" lon="5.35448">
        <ele>281</ele>
        <time>2023-05-27T07:54:26Z</time>
      </trkpt>
      <trkpt lat="45.92948" lon="5.35449">
        <ele>281</ele>
        <time>2023-05-27T07:54:27Z</time>
      </trkpt>
      <trkpt lat="45.92954" lon="5.3545">
        <ele>281</ele>
        <time>2023-05-27T07:54:28Z</time>
      </trkpt>
      <trkpt lat="45.92959" lon="5.35452">
        <ele>281.2</ele>
        <time>2023-05-27T07:54:29Z</time>
      </trkpt>
      <trkpt lat="45.92965" lon="5.35454">
        <ele>281.2</ele>
        <time>2023-05-27T07:54:30Z</time>
      </trkpt>
      <trkpt lat="45.9297" lon="5.35456">
        <ele>281.4</ele>
        <time>2023-05-27T07:54:31Z</time>
      </trkpt>
      <trkpt lat="45.92976" lon="5.35459">
        <ele>281.6</ele>
        <time>2023-05-27T07:54:32Z</time>
      </trkpt>
      <trkpt lat="45.92982" lon="5.35462">
        <ele>281.6</ele>
        <time>2023-05-27T07:54:33Z</time>
      </trkpt>
      <trkpt lat="45.92988" lon="5.35465">
        <ele>281.8</ele>
        <time>2023-05-27T07:54:34Z</time>
      </trkpt>
      <trkpt lat="45.92993" lon="5.35468">
        <ele>281.8</ele>
        <time>2023-05-27T07:54:35Z</time>
      </trkpt>
      <trkpt lat="45.92998" lon="5.35471">
        <ele>282</ele>
        <time>2023-05-27T07:54:36Z</time>
      </trkpt>
      <trkpt lat="45.93003" lon="5.35474">
        <ele>282</ele>
        <time>2023-05-27T07:54:37Z</time>
      </trkpt>
      <trkpt lat="45.93008" lon="5.35477">
        <ele>282</ele>
        <time>2023-05-27T07:54:38Z</time>
      </trkpt>
      <trkpt lat="45.93012" lon="5.35481">
        <ele>282.2</ele>
        <time>2023-05-27T07:54:39Z</time>
      </trkpt>
      <trkpt lat="45.93016" lon="5.35485">
        <ele>282.4</ele>
        <time>2023-05-27T07:54:40Z</time>
      </trkpt>
      <trkpt lat="45.93019" lon="5.35489">
        <ele>282.4</ele>
        <time>2023-05-27T07:54:41Z</time>
      </trkpt>
      <trkpt lat="45.93023" lon="5.35493">
        <ele>282.6</ele>
        <time>2023-05-27T07:54:42Z</time>
      </trkpt>
      <trkpt lat="45.93026" lon="5.35495">
        <ele>282.8</ele>
        <time>2023-05-27T07:54:43Z</time>
      </trkpt>
      <trkpt lat="45.93029" lon="5.35498">
        <ele>283</ele>
        <time>2023-05-27T07:54:44Z</time>
      </trkpt>
      <trkpt lat="45.93033" lon="5.35502">
        <ele>283.4</ele>
        <time>2023-05-27T07:54:45Z</time>
      </trkpt>
      <trkpt lat="45.93037" lon="5.35505">
        <ele>283.6</ele>
        <time>2023-05-27T07:54:46Z</time>
      </trkpt>
      <trkpt lat="45.93041" lon="5.35508">
        <ele>283.8</ele>
        <time>2023-05-27T07:54:47Z</time>
      </trkpt>
      <trkpt lat="45.93045" lon="5.35511">
        <ele>284</ele>
        <time>2023-05-27T07:54:48Z</time>
      </trkpt>
      <trkpt lat="45.93048" lon="5.35514">
        <ele>284.2</ele>
        <time>2023-05-27T07:54:49Z</time>
      </trkpt>
      <trkpt lat="45.93052" lon="5.35517">
        <ele>284.6</ele>
        <time>2023-05-27T07:54:50Z</time>
      </trkpt>
      <trkpt lat="45.93055" lon="5.3552">
        <ele>284.6</ele>
        <time>2023-05-27T07:54:51Z</time>
      </trkpt>
      <trkpt lat="45.93058" lon="5.35524">
        <ele>284.8</ele>
        <time>2023-05-27T07:54:52Z</time>
      </trkpt>
      <trkpt lat="45.93061" lon="5.35528">
        <ele>284.8</ele>
        <time>2023-05-27T07:54:53Z</time>
      </trkpt>
      <trkpt lat="45.93064" lon="5.35532">
        <ele>285</ele>
        <time>2023-05-27T07:54:54Z</time>
      </trkpt>
      <trkpt lat="45.93067" lon="5.35536">
        <ele>285</ele>
        <time>2023-05-27T07:54:55Z</time>
      </trkpt>
      <trkpt lat="45.93069" lon="5.3554">
        <ele>285.2</ele>
        <time>2023-05-27T07:54:56Z</time>
      </trkpt>
      <trkpt lat="45.93071" lon="5.35545">
        <ele>285.4</ele>
        <time>2023-05-27T07:54:57Z</time>
      </trkpt>
      <trkpt lat="45.93074" lon="5.3555">
        <ele>285.6</ele>
        <time>2023-05-27T07:54:58Z</time>
      </trkpt>
      <trkpt lat="45.93076" lon="5.35554">
        <ele>285.8</ele>
        <time>2023-05-27T07:54:59Z</time>
      </trkpt>
      <trkpt lat="45.93078" lon="5.35558">
        <ele>285.8</ele>
        <time>2023-05-27T07:55:00Z</time>
      </trkpt>
      <trkpt lat="45.93079" lon="5.35561">
        <ele>286</ele>
        <time>2023-05-27T07:55:01Z</time>
      </trkpt>
      <trkpt lat="45.93081" lon="5.35565">
        <ele>286</ele>
        <time>2023-05-27T07:55:02Z</time>
      </trkpt>
      <trkpt lat="45.93084" lon="5.35569">
        <ele>286.2</ele>
        <time>2023-05-27T07:55:03Z</time>
      </trkpt>
      <trkpt lat="45.93086" lon="5.35573">
        <ele>286.4</ele>
        <time>2023-05-27T07:55:04Z</time>
      </trkpt>
      <trkpt lat="45.93088" lon="5.35577">
        <ele>286.4</ele>
        <time>2023-05-27T07:55:05Z</time>
      </trkpt>
      <trkpt lat="45.9309" lon="5.35581">
        <ele>286.6</ele>
        <time>2023-05-27T07:55:06Z</time>
      </trkpt>
      <trkpt lat="45.93093" lon="5.35585">
        <ele>286.6</ele>
        <time>2023-05-27T07:55:07Z</time>
      </trkpt>
      <trkpt lat="45.93095" lon="5.35589">
        <ele>286.8</ele>
        <time>2023-05-27T07:55:08Z</time>
      </trkpt>
      <trkpt lat="45.93097" lon="5.35593">
        <ele>287</ele>
        <time>2023-05-27T07:55:09Z</time>
      </trkpt>
      <trkpt lat="45.93099" lon="5.35596">
        <ele>287</ele>
        <time>2023-05-27T07:55:10Z</time>
      </trkpt>
      <trkpt lat="45.93102" lon="5.356">
        <ele>287.2</ele>
        <time>2023-05-27T07:55:11Z</time>
      </trkpt>
      <trkpt lat="45.93104" lon="5.35605">
        <ele>287.2</ele>
        <time>2023-05-27T07:55:12Z</time>
      </trkpt>
      <trkpt lat="45.93107" lon="5.35609">
        <ele>287.4</ele>
        <time>2023-05-27T07:55:13Z</time>
      </trkpt>
      <trkpt lat="45.93112" lon="5.35616">
        <ele>287.4</ele>
        <time>2023-05-27T07:55:15Z</time>
      </trkpt>
      <trkpt lat="45.93114" lon="5.35619">
        <ele>287.4</ele>
        <time>2023-05-27T07:55:16Z</time>
      </trkpt>
      <trkpt lat="45.93117" lon="5.35622">
        <ele>287.6</ele>
        <time>2023-05-27T07:55:17Z</time>
      </trkpt>
      <trkpt lat="45.9312" lon="5.35625">
        <ele>287.8</ele>
        <time>2023-05-27T07:55:18Z</time>
      </trkpt>
      <trkpt lat="45.93122" lon="5.35628">
        <ele>287.8</ele>
        <time>2023-05-27T07:55:19Z</time>
      </trkpt>
      <trkpt lat="45.93125" lon="5.35631">
        <ele>287.8</ele>
        <time>2023-05-27T07:55:20Z</time>
      </trkpt>
      <trkpt lat="45.93128" lon="5.35634">
        <ele>288</ele>
        <time>2023-05-27T07:55:21Z</time>
      </trkpt>
      <trkpt lat="45.93131" lon="5.35636">
        <ele>288</ele>
        <time>2023-05-27T07:55:22Z</time>
      </trkpt>
      <trkpt lat="45.93133" lon="5.35638">
        <ele>288</ele>
        <time>2023-05-27T07:55:23Z</time>
      </trkpt>
      <trkpt lat="45.93136" lon="5.35641">
        <ele>288</ele>
        <time>2023-05-27T07:55:24Z</time>
      </trkpt>
      <trkpt lat="45.93139" lon="5.35643">
        <ele>288.2</ele>
        <time>2023-05-27T07:55:25Z</time>
      </trkpt>
      <trkpt lat="45.93142" lon="5.35645">
        <ele>288.4</ele>
        <time>2023-05-27T07:55:26Z</time>
      </trkpt>
      <trkpt lat="45.93144" lon="5.35647">
        <ele>288.8</ele>
        <time>2023-05-27T07:55:27Z</time>
      </trkpt>
      <trkpt lat="45.93147" lon="5.35649">
        <ele>289</ele>
        <time>2023-05-27T07:55:28Z</time>
      </trkpt>
      <trkpt lat="45.9315" lon="5.35651">
        <ele>289.2</ele>
        <time>2023-05-27T07:55:29Z</time>
      </trkpt>
      <trkpt lat="45.93153" lon="5.35652">
        <ele>289.4</ele>
        <time>2023-05-27T07:55:30Z</time>
      </trkpt>
      <trkpt lat="45.93155" lon="5.35654">
        <ele>289.6</ele>
        <time>2023-05-27T07:55:31Z</time>
      </trkpt>
      <trkpt lat="45.93158" lon="5.35656">
        <ele>289.8</ele>
        <time>2023-05-27T07:55:32Z</time>
      </trkpt>
      <trkpt lat="45.93161" lon="5.35658">
        <ele>290</ele>
        <time>2023-05-27T07:55:33Z</time>
      </trkpt>
      <trkpt lat="45.93163" lon="5.3566">
        <ele>290.2</ele>
        <time>2023-05-27T07:55:34Z</time>
      </trkpt>
      <trkpt lat="45.93166" lon="5.35662">
        <ele>290.4</ele>
        <time>2023-05-27T07:55:35Z</time>
      </trkpt>
      <trkpt lat="45.93168" lon="5.35664">
        <ele>290.6</ele>
        <time>2023-05-27T07:55:36Z</time>
      </trkpt>
      <trkpt lat="45.93171" lon="5.35665">
        <ele>290.6</ele>
        <time>2023-05-27T07:55:37Z</time>
      </trkpt>
      <trkpt lat="45.93173" lon="5.35667">
        <ele>290.8</ele>
        <time>2023-05-27T07:55:38Z</time>
      </trkpt>
      <trkpt lat="45.93176" lon="5.35669">
        <ele>290.8</ele>
        <time>2023-05-27T07:55:39Z</time>
      </trkpt>
      <trkpt lat="45.93178" lon="5.35671">
        <ele>291</ele>
        <time>2023-05-27T07:55:40Z</time>
      </trkpt>
      <trkpt lat="45.93181" lon="5.35673">
        <ele>291.4</ele>
        <time>2023-05-27T07:55:41Z</time>
      </trkpt>
      <trkpt lat="45.93183" lon="5.35675">
        <ele>291.6</ele>
        <time>2023-05-27T07:55:42Z</time>
      </trkpt>
      <trkpt lat="45.93185" lon="5.35677">
        <ele>291.8</ele>
        <time>2023-05-27T07:55:43Z</time>
      </trkpt>
      <trkpt lat="45.93188" lon="5.35679">
        <ele>292.2</ele>
        <time>2023-05-27T07:55:44Z</time>
      </trkpt>
      <trkpt lat="45.93191" lon="5.35682">
        <ele>292.4</ele>
        <time>2023-05-27T07:55:45Z</time>
      </trkpt>
      <trkpt lat="45.93193" lon="5.35684">
        <ele>292.6</ele>
        <time>2023-05-27T07:55:46Z</time>
      </trkpt>
      <trkpt lat="45.93196" lon="5.35686">
        <ele>293</ele>
        <time>2023-05-27T07:55:47Z</time>
      </trkpt>
      <trkpt lat="45.93198" lon="5.35688">
        <ele>293.4</ele>
        <time>2023-05-27T07:55:48Z</time>
      </trkpt>
      <trkpt lat="45.93201" lon="5.3569">
        <ele>293.4</ele>
        <time>2023-05-27T07:55:49Z</time>
      </trkpt>
      <trkpt lat="45.93204" lon="5.35693">
        <ele>293.8</ele>
        <time>2023-05-27T07:55:50Z</time>
      </trkpt>
      <trkpt lat="45.93206" lon="5.35695">
        <ele>293.8</ele>
        <time>2023-05-27T07:55:51Z</time>
      </trkpt>
      <trkpt lat="45.93208" lon="5.35698">
        <ele>294</ele>
        <time>2023-05-27T07:55:52Z</time>
      </trkpt>
      <trkpt lat="45.9321" lon="5.357">
        <ele>294.2</ele>
        <time>2023-05-27T07:55:53Z</time>
      </trkpt>
      <trkpt lat="45.93213" lon="5.35702">
        <ele>294.2</ele>
        <time>2023-05-27T07:55:54Z</time>
      </trkpt>
      <trkpt lat="45.93215" lon="5.35704">
        <ele>294.6</ele>
        <time>2023-05-27T07:55:55Z</time>
      </trkpt>
      <trkpt lat="45.93218" lon="5.35706">
        <ele>294.6</ele>
        <time>2023-05-27T07:55:56Z</time>
      </trkpt>
      <trkpt lat="45.93221" lon="5.35709">
        <ele>294.8</ele>
        <time>2023-05-27T07:55:57Z</time>
      </trkpt>
      <trkpt lat="45.93223" lon="5.35711">
        <ele>295</ele>
        <time>2023-05-27T07:55:58Z</time>
      </trkpt>
      <trkpt lat="45.93226" lon="5.35713">
        <ele>295.4</ele>
        <time>2023-05-27T07:55:59Z</time>
      </trkpt>
      <trkpt lat="45.93229" lon="5.35715">
        <ele>295.6</ele>
        <time>2023-05-27T07:56:00Z</time>
      </trkpt>
      <trkpt lat="45.93231" lon="5.35717">
        <ele>295.8</ele>
        <time>2023-05-27T07:56:01Z</time>
      </trkpt>
      <trkpt lat="45.93234" lon="5.3572">
        <ele>296.2</ele>
        <time>2023-05-27T07:56:02Z</time>
      </trkpt>
      <trkpt lat="45.93236" lon="5.35722">
        <ele>296.2</ele>
        <time>2023-05-27T07:56:03Z</time>
      </trkpt>
      <trkpt lat="45.93238" lon="5.35723">
        <ele>296.6</ele>
        <time>2023-05-27T07:56:04Z</time>
      </trkpt>
      <trkpt lat="45.93244" lon="5.35727">
        <ele>297</ele>
        <time>2023-05-27T07:56:06Z</time>
      </trkpt>
      <trkpt lat="45.93246" lon="5.35729">
        <ele>297.2</ele>
        <time>2023-05-27T07:56:07Z</time>
      </trkpt>
      <trkpt lat="45.93249" lon="5.35731">
        <ele>297.4</ele>
        <time>2023-05-27T07:56:08Z</time>
      </trkpt>
      <trkpt lat="45.93251" lon="5.35733">
        <ele>297.6</ele>
        <time>2023-05-27T07:56:09Z</time>
      </trkpt>
      <trkpt lat="45.93254" lon="5.35734">
        <ele>297.8</ele>
        <time>2023-05-27T07:56:10Z</time>
      </trkpt>
      <trkpt lat="45.93256" lon="5.35736">
        <ele>298.2</ele>
        <time>2023-05-27T07:56:11Z</time>
      </trkpt>
      <trkpt lat="45.93261" lon="5.3574">
        <ele>298.4</ele>
        <time>2023-05-27T07:56:13Z</time>
      </trkpt>
      <trkpt lat="45.93264" lon="5.35742">
        <ele>298.4</ele>
        <time>2023-05-27T07:56:14Z</time>
      </trkpt>
      <trkpt lat="45.93266" lon="5.35744">
        <ele>298.6</ele>
        <time>2023-05-27T07:56:15Z</time>
      </trkpt>
      <trkpt lat="45.93269" lon="5.35747">
        <ele>299</ele>
        <time>2023-05-27T07:56:16Z</time>
      </trkpt>
      <trkpt lat="45.93271" lon="5.35749">
        <ele>299.4</ele>
        <time>2023-05-27T07:56:17Z</time>
      </trkpt>
      <trkpt lat="45.93273" lon="5.35751">
        <ele>299.8</ele>
        <time>2023-05-27T07:56:18Z</time>
      </trkpt>
      <trkpt lat="45.93276" lon="5.35754">
        <ele>299.8</ele>
        <time>2023-05-27T07:56:19Z</time>
      </trkpt>
      <trkpt lat="45.93279" lon="5.35756">
        <ele>300.2</ele>
        <time>2023-05-27T07:56:20Z</time>
      </trkpt>
      <trkpt lat="45.93281" lon="5.35759">
        <ele>300.4</ele>
        <time>2023-05-27T07:56:21Z</time>
      </trkpt>
      <trkpt lat="45.93284" lon="5.35761">
        <ele>301</ele>
        <time>2023-05-27T07:56:22Z</time>
      </trkpt>
      <trkpt lat="45.93286" lon="5.35764">
        <ele>301.2</ele>
        <time>2023-05-27T07:56:23Z</time>
      </trkpt>
      <trkpt lat="45.93288" lon="5.35767">
        <ele>301.4</ele>
        <time>2023-05-27T07:56:24Z</time>
      </trkpt>
      <trkpt lat="45.9329" lon="5.3577">
        <ele>301.8</ele>
        <time>2023-05-27T07:56:25Z</time>
      </trkpt>
      <trkpt lat="45.93292" lon="5.35772">
        <ele>302</ele>
        <time>2023-05-27T07:56:26Z</time>
      </trkpt>
      <trkpt lat="45.93295" lon="5.35775">
        <ele>302.6</ele>
        <time>2023-05-27T07:56:27Z</time>
      </trkpt>
      <trkpt lat="45.93297" lon="5.35778">
        <ele>302.8</ele>
        <time>2023-05-27T07:56:28Z</time>
      </trkpt>
      <trkpt lat="45.93299" lon="5.35781">
        <ele>303.2</ele>
        <time>2023-05-27T07:56:29Z</time>
      </trkpt>
      <trkpt lat="45.93302" lon="5.35784">
        <ele>303.6</ele>
        <time>2023-05-27T07:56:30Z</time>
      </trkpt>
      <trkpt lat="45.93304" lon="5.35786">
        <ele>303.8</ele>
        <time>2023-05-27T07:56:31Z</time>
      </trkpt>
      <trkpt lat="45.93305" lon="5.35789">
        <ele>304.6</ele>
        <time>2023-05-27T07:56:32Z</time>
      </trkpt>
      <trkpt lat="45.93307" lon="5.35792">
        <ele>305</ele>
        <time>2023-05-27T07:56:33Z</time>
      </trkpt>
      <trkpt lat="45.93309" lon="5.35795">
        <ele>305.8</ele>
        <time>2023-05-27T07:56:34Z</time>
      </trkpt>
      <trkpt lat="45.93311" lon="5.35798">
        <ele>306</ele>
        <time>2023-05-27T07:56:35Z</time>
      </trkpt>
      <trkpt lat="45.93313" lon="5.35801">
        <ele>306.4</ele>
        <time>2023-05-27T07:56:36Z</time>
      </trkpt>
      <trkpt lat="45.93315" lon="5.35804">
        <ele>306.8</ele>
        <time>2023-05-27T07:56:37Z</time>
      </trkpt>
      <trkpt lat="45.93317" lon="5.35807">
        <ele>306.8</ele>
        <time>2023-05-27T07:56:38Z</time>
      </trkpt>
      <trkpt lat="45.93319" lon="5.35811">
        <ele>307.2</ele>
        <time>2023-05-27T07:56:39Z</time>
      </trkpt>
      <trkpt lat="45.93321" lon="5.35815">
        <ele>307.4</ele>
        <time>2023-05-27T07:56:40Z</time>
      </trkpt>
      <trkpt lat="45.93323" lon="5.35818">
        <ele>307.6</ele>
        <time>2023-05-27T07:56:41Z</time>
      </trkpt>
      <trkpt lat="45.93325" lon="5.35821">
        <ele>307.8</ele>
        <time>2023-05-27T07:56:42Z</time>
      </trkpt>
      <trkpt lat="45.93327" lon="5.35825">
        <ele>308.2</ele>
        <time>2023-05-27T07:56:43Z</time>
      </trkpt>
      <trkpt lat="45.93329" lon="5.35828">
        <ele>308.8</ele>
        <time>2023-05-27T07:56:44Z</time>
      </trkpt>
      <trkpt lat="45.9333" lon="5.35832">
        <ele>308.8</ele>
        <time>2023-05-27T07:56:45Z</time>
      </trkpt>
      <trkpt lat="45.93331" lon="5.35836">
        <ele>309.2</ele>
        <time>2023-05-27T07:56:46Z</time>
      </trkpt>
      <trkpt lat="45.93333" lon="5.3584">
        <ele>309.4</ele>
        <time>2023-05-27T07:56:47Z</time>
      </trkpt>
      <trkpt lat="45.93334" lon="5.35843">
        <ele>309.8</ele>
        <time>2023-05-27T07:56:48Z</time>
      </trkpt>
      <trkpt lat="45.93335" lon="5.35847">
        <ele>310</ele>
        <time>2023-05-27T07:56:49Z</time>
      </trkpt>
      <trkpt lat="45.93337" lon="5.35851">
        <ele>310.4</ele>
        <time>2023-05-27T07:56:50Z</time>
      </trkpt>
      <trkpt lat="45.93338" lon="5.35855">
        <ele>310.6</ele>
        <time>2023-05-27T07:56:51Z</time>
      </trkpt>
      <trkpt lat="45.9334" lon="5.35859">
        <ele>311</ele>
        <time>2023-05-27T07:56:52Z</time>
      </trkpt>
      <trkpt lat="45.93342" lon="5.35864">
        <ele>311.8</ele>
        <time>2023-05-27T07:56:53Z</time>
      </trkpt>
      <trkpt lat="45.93343" lon="5.35869">
        <ele>312</ele>
        <time>2023-05-27T07:56:54Z</time>
      </trkpt>
      <trkpt lat="45.93345" lon="5.35873">
        <ele>312.2</ele>
        <time>2023-05-27T07:56:55Z</time>
      </trkpt>
      <trkpt lat="45.93346" lon="5.35877">
        <ele>312.4</ele>
        <time>2023-05-27T07:56:56Z</time>
      </trkpt>
      <trkpt lat="45.93348" lon="5.35881">
        <ele>313.2</ele>
        <time>2023-05-27T07:56:57Z</time>
      </trkpt>
      <trkpt lat="45.9335" lon="5.35884">
        <ele>313.4</ele>
        <time>2023-05-27T07:56:58Z</time>
      </trkpt>
      <trkpt lat="45.93352" lon="5.35887">
        <ele>313.8</ele>
        <time>2023-05-27T07:56:59Z</time>
      </trkpt>
      <trkpt lat="45.93354" lon="5.35889">
        <ele>314.4</ele>
        <time>2023-05-27T07:57:00Z</time>
      </trkpt>
      <trkpt lat="45.93357" lon="5.3589">
        <ele>314.6</ele>
        <time>2023-05-27T07:57:01Z</time>
      </trkpt>
      <trkpt lat="45.9336" lon="5.3589">
        <ele>315.2</ele>
        <time>2023-05-27T07:57:02Z</time>
      </trkpt>
      <trkpt lat="45.93363" lon="5.35889">
        <ele>315.6</ele>
        <time>2023-05-27T07:57:03Z</time>
      </trkpt>
      <trkpt lat="45.93366" lon="5.35888">
        <ele>316</ele>
        <time>2023-05-27T07:57:04Z</time>
      </trkpt>
      <trkpt lat="45.93369" lon="5.35886">
        <ele>316.2</ele>
        <time>2023-05-27T07:57:05Z</time>
      </trkpt>
      <trkpt lat="45.93372" lon="5.35884">
        <ele>316.4</ele>
        <time>2023-05-27T07:57:06Z</time>
      </trkpt>
      <trkpt lat="45.93375" lon="5.35882">
        <ele>316.8</ele>
        <time>2023-05-27T07:57:07Z</time>
      </trkpt>
      <trkpt lat="45.93377" lon="5.35879">
        <ele>317</ele>
        <time>2023-05-27T07:57:08Z</time>
      </trkpt>
      <trkpt lat="45.9338" lon="5.35877">
        <ele>317.4</ele>
        <time>2023-05-27T07:57:09Z</time>
      </trkpt>
      <trkpt lat="45.93383" lon="5.35875">
        <ele>317.4</ele>
        <time>2023-05-27T07:57:10Z</time>
      </trkpt>
      <trkpt lat="45.93385" lon="5.35872">
        <ele>317.8</ele>
        <time>2023-05-27T07:57:11Z</time>
      </trkpt>
      <trkpt lat="45.93388" lon="5.3587">
        <ele>317.8</ele>
        <time>2023-05-27T07:57:12Z</time>
      </trkpt>
      <trkpt lat="45.93391" lon="5.35868">
        <ele>318</ele>
        <time>2023-05-27T07:57:13Z</time>
      </trkpt>
      <trkpt lat="45.93394" lon="5.35866">
        <ele>318.2</ele>
        <time>2023-05-27T07:57:14Z</time>
      </trkpt>
      <trkpt lat="45.93396" lon="5.35864">
        <ele>318.4</ele>
        <time>2023-05-27T07:57:15Z</time>
      </trkpt>
      <trkpt lat="45.93399" lon="5.35862">
        <ele>318.6</ele>
        <time>2023-05-27T07:57:16Z</time>
      </trkpt>
      <trkpt lat="45.93402" lon="5.3586">
        <ele>318.8</ele>
        <time>2023-05-27T07:57:17Z</time>
      </trkpt>
      <trkpt lat="45.93405" lon="5.35858">
        <ele>319</ele>
        <time>2023-05-27T07:57:18Z</time>
      </trkpt>
      <trkpt lat="45.93407" lon="5.35856">
        <ele>319.2</ele>
        <time>2023-05-27T07:57:19Z</time>
      </trkpt>
      <trkpt lat="45.9341" lon="5.35854">
        <ele>319.4</ele>
        <time>2023-05-27T07:57:20Z</time>
      </trkpt>
      <trkpt lat="45.93413" lon="5.35853">
        <ele>319.4</ele>
        <time>2023-05-27T07:57:21Z</time>
      </trkpt>
      <trkpt lat="45.93416" lon="5.35852">
        <ele>319.4</ele>
        <time>2023-05-27T07:57:22Z</time>
      </trkpt>
      <trkpt lat="45.93419" lon="5.35852">
        <ele>319.6</ele>
        <time>2023-05-27T07:57:23Z</time>
      </trkpt>
      <trkpt lat="45.93422" lon="5.35852">
        <ele>319.6</ele>
        <time>2023-05-27T07:57:24Z</time>
      </trkpt>
      <trkpt lat="45.93425" lon="5.35852">
        <ele>319.8</ele>
        <time>2023-05-27T07:57:25Z</time>
      </trkpt>
      <trkpt lat="45.93428" lon="5.35853">
        <ele>319.8</ele>
        <time>2023-05-27T07:57:26Z</time>
      </trkpt>
      <trkpt lat="45.93431" lon="5.35854">
        <ele>320</ele>
        <time>2023-05-27T07:57:27Z</time>
      </trkpt>
      <trkpt lat="45.93433" lon="5.35855">
        <ele>320.2</ele>
        <time>2023-05-27T07:57:28Z</time>
      </trkpt>
      <trkpt lat="45.93436" lon="5.35857">
        <ele>320.4</ele>
        <time>2023-05-27T07:57:29Z</time>
      </trkpt>
      <trkpt lat="45.93438" lon="5.35858">
        <ele>320.8</ele>
        <time>2023-05-27T07:57:30Z</time>
      </trkpt>
      <trkpt lat="45.93441" lon="5.3586">
        <ele>321</ele>
        <time>2023-05-27T07:57:31Z</time>
      </trkpt>
      <trkpt lat="45.93444" lon="5.35862">
        <ele>321.2</ele>
        <time>2023-05-27T07:57:32Z</time>
      </trkpt>
      <trkpt lat="45.93446" lon="5.35864">
        <ele>321.4</ele>
        <time>2023-05-27T07:57:33Z</time>
      </trkpt>
      <trkpt lat="45.93448" lon="5.35866">
        <ele>322</ele>
        <time>2023-05-27T07:57:34Z</time>
      </trkpt>
      <trkpt lat="45.93451" lon="5.35868">
        <ele>322.4</ele>
        <time>2023-05-27T07:57:35Z</time>
      </trkpt>
      <trkpt lat="45.93453" lon="5.35869">
        <ele>322.6</ele>
        <time>2023-05-27T07:57:36Z</time>
      </trkpt>
      <trkpt lat="45.93455" lon="5.35871">
        <ele>323</ele>
        <time>2023-05-27T07:57:37Z</time>
      </trkpt>
      <trkpt lat="45.93458" lon="5.35873">
        <ele>323.2</ele>
        <time>2023-05-27T07:57:38Z</time>
      </trkpt>
      <trkpt lat="45.9346" lon="5.35874">
        <ele>324</ele>
        <time>2023-05-27T07:57:39Z</time>
      </trkpt>
      <trkpt lat="45.93462" lon="5.35877">
        <ele>324.2</ele>
        <time>2023-05-27T07:57:40Z</time>
      </trkpt>
      <trkpt lat="45.93464" lon="5.35879">
        <ele>324.8</ele>
        <time>2023-05-27T07:57:41Z</time>
      </trkpt>
      <trkpt lat="45.93465" lon="5.35881">
        <ele>325.4</ele>
        <time>2023-05-27T07:57:42Z</time>
      </trkpt>
      <trkpt lat="45.93467" lon="5.35882">
        <ele>325.4</ele>
        <time>2023-05-27T07:57:43Z</time>
      </trkpt>
      <trkpt lat="45.93469" lon="5.35884">
        <ele>325.8</ele>
        <time>2023-05-27T07:57:44Z</time>
      </trkpt>
      <trkpt lat="45.93472" lon="5.35886">
        <ele>326.4</ele>
        <time>2023-05-27T07:57:45Z</time>
      </trkpt>
      <trkpt lat="45.93474" lon="5.35888">
        <ele>327.2</ele>
        <time>2023-05-27T07:57:46Z</time>
      </trkpt>
      <trkpt lat="45.93477" lon="5.35891">
        <ele>327.6</ele>
        <time>2023-05-27T07:57:47Z</time>
      </trkpt>
      <trkpt lat="45.9348" lon="5.35893">
        <ele>328.2</ele>
        <time>2023-05-27T07:57:48Z</time>
      </trkpt>
      <trkpt lat="45.93482" lon="5.35895">
        <ele>328.6</ele>
        <time>2023-05-27T07:57:49Z</time>
      </trkpt>
      <trkpt lat="45.93485" lon="5.35897">
        <ele>329</ele>
        <time>2023-05-27T07:57:50Z</time>
      </trkpt>
      <trkpt lat="45.93488" lon="5.35899">
        <ele>329.4</ele>
        <time>2023-05-27T07:57:51Z</time>
      </trkpt>
      <trkpt lat="45.93491" lon="5.35902">
        <ele>329.6</ele>
        <time>2023-05-27T07:57:52Z</time>
      </trkpt>
      <trkpt lat="45.93493" lon="5.35904">
        <ele>330</ele>
        <time>2023-05-27T07:57:53Z</time>
      </trkpt>
      <trkpt lat="45.93495" lon="5.35906">
        <ele>330.2</ele>
        <time>2023-05-27T07:57:54Z</time>
      </trkpt>
      <trkpt lat="45.93498" lon="5.35909">
        <ele>330.6</ele>
        <time>2023-05-27T07:57:55Z</time>
      </trkpt>
      <trkpt lat="45.935" lon="5.35911">
        <ele>331</ele>
        <time>2023-05-27T07:57:56Z</time>
      </trkpt>
      <trkpt lat="45.93503" lon="5.35914">
        <ele>331.4</ele>
        <time>2023-05-27T07:57:57Z</time>
      </trkpt>
      <trkpt lat="45.93506" lon="5.35916">
        <ele>331.8</ele>
        <time>2023-05-27T07:57:58Z</time>
      </trkpt>
      <trkpt lat="45.93508" lon="5.35918">
        <ele>331.8</ele>
        <time>2023-05-27T07:57:59Z</time>
      </trkpt>
      <trkpt lat="45.93511" lon="5.35921">
        <ele>332.2</ele>
        <time>2023-05-27T07:58:00Z</time>
      </trkpt>
      <trkpt lat="45.93514" lon="5.35924">
        <ele>332.4</ele>
        <time>2023-05-27T07:58:01Z</time>
      </trkpt>
      <trkpt lat="45.93516" lon="5.35927">
        <ele>332.6</ele>
        <time>2023-05-27T07:58:02Z</time>
      </trkpt>
      <trkpt lat="45.93519" lon="5.35929">
        <ele>332.6</ele>
        <time>2023-05-27T07:58:03Z</time>
      </trkpt>
      <trkpt lat="45.93521" lon="5.35932">
        <ele>333</ele>
        <time>2023-05-27T07:58:04Z</time>
      </trkpt>
      <trkpt lat="45.93524" lon="5.35935">
        <ele>333.2</ele>
        <time>2023-05-27T07:58:05Z</time>
      </trkpt>
      <trkpt lat="45.93526" lon="5.35938">
        <ele>333.2</ele>
        <time>2023-05-27T07:58:06Z</time>
      </trkpt>
      <trkpt lat="45.93528" lon="5.35941">
        <ele>333.4</ele>
        <time>2023-05-27T07:58:07Z</time>
      </trkpt>
      <trkpt lat="45.93531" lon="5.35944">
        <ele>333.4</ele>
        <time>2023-05-27T07:58:08Z</time>
      </trkpt>
      <trkpt lat="45.93533" lon="5.35947">
        <ele>333.6</ele>
        <time>2023-05-27T07:58:09Z</time>
      </trkpt>
      <trkpt lat="45.93536" lon="5.3595">
        <ele>333.6</ele>
        <time>2023-05-27T07:58:10Z</time>
      </trkpt>
      <trkpt lat="45.93538" lon="5.35953">
        <ele>334</ele>
        <time>2023-05-27T07:58:11Z</time>
      </trkpt>
      <trkpt lat="45.9354" lon="5.35955">
        <ele>334.2</ele>
        <time>2023-05-27T07:58:12Z</time>
      </trkpt>
      <trkpt lat="45.93542" lon="5.35958">
        <ele>334.2</ele>
        <time>2023-05-27T07:58:13Z</time>
      </trkpt>
      <trkpt lat="45.93545" lon="5.35961">
        <ele>334.4</ele>
        <time>2023-05-27T07:58:14Z</time>
      </trkpt>
      <trkpt lat="45.93547" lon="5.35964">
        <ele>334.6</ele>
        <time>2023-05-27T07:58:15Z</time>
      </trkpt>
      <trkpt lat="45.93549" lon="5.35967">
        <ele>334.8</ele>
        <time>2023-05-27T07:58:16Z</time>
      </trkpt>
      <trkpt lat="45.93551" lon="5.3597">
        <ele>335</ele>
        <time>2023-05-27T07:58:17Z</time>
      </trkpt>
      <trkpt lat="45.93554" lon="5.35973">
        <ele>335.2</ele>
        <time>2023-05-27T07:58:18Z</time>
      </trkpt>
      <trkpt lat="45.93556" lon="5.35977">
        <ele>335.4</ele>
        <time>2023-05-27T07:58:19Z</time>
      </trkpt>
      <trkpt lat="45.93558" lon="5.3598">
        <ele>335.4</ele>
        <time>2023-05-27T07:58:20Z</time>
      </trkpt>
      <trkpt lat="45.93561" lon="5.35983">
        <ele>335.6</ele>
        <time>2023-05-27T07:58:21Z</time>
      </trkpt>
      <trkpt lat="45.93563" lon="5.35986">
        <ele>335.8</ele>
        <time>2023-05-27T07:58:22Z</time>
      </trkpt>
      <trkpt lat="45.93565" lon="5.35989">
        <ele>335.8</ele>
        <time>2023-05-27T07:58:23Z</time>
      </trkpt>
      <trkpt lat="45.93567" lon="5.35992">
        <ele>336</ele>
        <time>2023-05-27T07:58:24Z</time>
      </trkpt>
      <trkpt lat="45.93569" lon="5.35996">
        <ele>336.2</ele>
        <time>2023-05-27T07:58:25Z</time>
      </trkpt>
      <trkpt lat="45.93571" lon="5.35999">
        <ele>336.4</ele>
        <time>2023-05-27T07:58:26Z</time>
      </trkpt>
      <trkpt lat="45.93575" lon="5.36005">
        <ele>336.4</ele>
        <time>2023-05-27T07:58:28Z</time>
      </trkpt>
      <trkpt lat="45.93577" lon="5.36009">
        <ele>336.6</ele>
        <time>2023-05-27T07:58:29Z</time>
      </trkpt>
      <trkpt lat="45.93579" lon="5.36012">
        <ele>336.6</ele>
        <time>2023-05-27T07:58:30Z</time>
      </trkpt>
      <trkpt lat="45.93581" lon="5.36016">
        <ele>336.8</ele>
        <time>2023-05-27T07:58:31Z</time>
      </trkpt>
      <trkpt lat="45.93582" lon="5.36019">
        <ele>336.8</ele>
        <time>2023-05-27T07:58:32Z</time>
      </trkpt>
      <trkpt lat="45.93585" lon="5.36023">
        <ele>337</ele>
        <time>2023-05-27T07:58:33Z</time>
      </trkpt>
      <trkpt lat="45.93587" lon="5.36026">
        <ele>337.2</ele>
        <time>2023-05-27T07:58:34Z</time>
      </trkpt>
      <trkpt lat="45.93588" lon="5.3603">
        <ele>337.4</ele>
        <time>2023-05-27T07:58:35Z</time>
      </trkpt>
      <trkpt lat="45.9359" lon="5.36033">
        <ele>337.6</ele>
        <time>2023-05-27T07:58:36Z</time>
      </trkpt>
      <trkpt lat="45.93592" lon="5.36036">
        <ele>337.8</ele>
        <time>2023-05-27T07:58:37Z</time>
      </trkpt>
      <trkpt lat="45.93594" lon="5.3604">
        <ele>337.8</ele>
        <time>2023-05-27T07:58:38Z</time>
      </trkpt>
      <trkpt lat="45.93596" lon="5.36043">
        <ele>338</ele>
        <time>2023-05-27T07:58:39Z</time>
      </trkpt>
      <trkpt lat="45.93598" lon="5.36046">
        <ele>338</ele>
        <time>2023-05-27T07:58:40Z</time>
      </trkpt>
      <trkpt lat="45.936" lon="5.36049">
        <ele>338.6</ele>
        <time>2023-05-27T07:58:41Z</time>
      </trkpt>
      <trkpt lat="45.93603" lon="5.36052">
        <ele>339.2</ele>
        <time>2023-05-27T07:58:42Z</time>
      </trkpt>
      <trkpt lat="45.93605" lon="5.36055">
        <ele>339.4</ele>
        <time>2023-05-27T07:58:43Z</time>
      </trkpt>
      <trkpt lat="45.93607" lon="5.36059">
        <ele>339.6</ele>
        <time>2023-05-27T07:58:44Z</time>
      </trkpt>
      <trkpt lat="45.9361" lon="5.36062">
        <ele>339.8</ele>
        <time>2023-05-27T07:58:45Z</time>
      </trkpt>
      <trkpt lat="45.93612" lon="5.36066">
        <ele>340</ele>
        <time>2023-05-27T07:58:46Z</time>
      </trkpt>
      <trkpt lat="45.93616" lon="5.36072">
        <ele>340.4</ele>
        <time>2023-05-27T07:58:48Z</time>
      </trkpt>
      <trkpt lat="45.93619" lon="5.36076">
        <ele>340.8</ele>
        <time>2023-05-27T07:58:49Z</time>
      </trkpt>
      <trkpt lat="45.93621" lon="5.36079">
        <ele>341</ele>
        <time>2023-05-27T07:58:50Z</time>
      </trkpt>
      <trkpt lat="45.93623" lon="5.36082">
        <ele>341.2</ele>
        <time>2023-05-27T07:58:51Z</time>
      </trkpt>
      <trkpt lat="45.93626" lon="5.36085">
        <ele>341.4</ele>
        <time>2023-05-27T07:58:52Z</time>
      </trkpt>
      <trkpt lat="45.93628" lon="5.36089">
        <ele>341.6</ele>
        <time>2023-05-27T07:58:53Z</time>
      </trkpt>
      <trkpt lat="45.93631" lon="5.36093">
        <ele>341.6</ele>
        <time>2023-05-27T07:58:54Z</time>
      </trkpt>
      <trkpt lat="45.93633" lon="5.36096">
        <ele>342</ele>
        <time>2023-05-27T07:58:55Z</time>
      </trkpt>
      <trkpt lat="45.93635" lon="5.361">
        <ele>342.4</ele>
        <time>2023-05-27T07:58:56Z</time>
      </trkpt>
      <trkpt lat="45.93637" lon="5.36103">
        <ele>342.6</ele>
        <time>2023-05-27T07:58:57Z</time>
      </trkpt>
      <trkpt lat="45.93639" lon="5.36106">
        <ele>343</ele>
        <time>2023-05-27T07:58:58Z</time>
      </trkpt>
      <trkpt lat="45.93642" lon="5.36109">
        <ele>343.2</ele>
        <time>2023-05-27T07:58:59Z</time>
      </trkpt>
      <trkpt lat="45.93644" lon="5.36112">
        <ele>343.4</ele>
        <time>2023-05-27T07:59:00Z</time>
      </trkpt>
      <trkpt lat="45.93646" lon="5.36115">
        <ele>343.4</ele>
        <time>2023-05-27T07:59:01Z</time>
      </trkpt>
      <trkpt lat="45.93648" lon="5.36119">
        <ele>343.6</ele>
        <time>2023-05-27T07:59:02Z</time>
      </trkpt>
      <trkpt lat="45.93651" lon="5.36122">
        <ele>343.8</ele>
        <time>2023-05-27T07:59:03Z</time>
      </trkpt>
      <trkpt lat="45.93653" lon="5.36125">
        <ele>344</ele>
        <time>2023-05-27T07:59:04Z</time>
      </trkpt>
      <trkpt lat="45.93655" lon="5.36127">
        <ele>344.2</ele>
        <time>2023-05-27T07:59:05Z</time>
      </trkpt>
      <trkpt lat="45.93658" lon="5.36131">
        <ele>344.4</ele>
        <time>2023-05-27T07:59:06Z</time>
      </trkpt>
      <trkpt lat="45.9366" lon="5.36134">
        <ele>344.8</ele>
        <time>2023-05-27T07:59:07Z</time>
      </trkpt>
      <trkpt lat="45.93663" lon="5.36137">
        <ele>344.8</ele>
        <time>2023-05-27T07:59:08Z</time>
      </trkpt>
      <trkpt lat="45.93665" lon="5.3614">
        <ele>345</ele>
        <time>2023-05-27T07:59:09Z</time>
      </trkpt>
      <trkpt lat="45.93667" lon="5.36143">
        <ele>345.4</ele>
        <time>2023-05-27T07:59:10Z</time>
      </trkpt>
      <trkpt lat="45.9367" lon="5.36146">
        <ele>345.4</ele>
        <time>2023-05-27T07:59:11Z</time>
      </trkpt>
      <trkpt lat="45.93672" lon="5.36149">
        <ele>345.8</ele>
        <time>2023-05-27T07:59:12Z</time>
      </trkpt>
      <trkpt lat="45.93675" lon="5.36151">
        <ele>345.8</ele>
        <time>2023-05-27T07:59:13Z</time>
      </trkpt>
      <trkpt lat="45.93677" lon="5.36154">
        <ele>346</ele>
        <time>2023-05-27T07:59:14Z</time>
      </trkpt>
      <trkpt lat="45.93679" lon="5.36157">
        <ele>346.4</ele>
        <time>2023-05-27T07:59:15Z</time>
      </trkpt>
      <trkpt lat="45.93682" lon="5.3616">
        <ele>346.6</ele>
        <time>2023-05-27T07:59:16Z</time>
      </trkpt>
      <trkpt lat="45.93684" lon="5.36164">
        <ele>347</ele>
        <time>2023-05-27T07:59:17Z</time>
      </trkpt>
      <trkpt lat="45.93686" lon="5.36166">
        <ele>347.2</ele>
        <time>2023-05-27T07:59:18Z</time>
      </trkpt>
      <trkpt lat="45.93688" lon="5.36169">
        <ele>347.6</ele>
        <time>2023-05-27T07:59:19Z</time>
      </trkpt>
      <trkpt lat="45.9369" lon="5.36171">
        <ele>347.8</ele>
        <time>2023-05-27T07:59:20Z</time>
      </trkpt>
      <trkpt lat="45.93692" lon="5.36174">
        <ele>348.2</ele>
        <time>2023-05-27T07:59:21Z</time>
      </trkpt>
      <trkpt lat="45.93694" lon="5.36176">
        <ele>348.6</ele>
        <time>2023-05-27T07:59:22Z</time>
      </trkpt>
      <trkpt lat="45.93696" lon="5.36178">
        <ele>349</ele>
        <time>2023-05-27T07:59:23Z</time>
      </trkpt>
      <trkpt lat="45.93698" lon="5.3618">
        <ele>349.6</ele>
        <time>2023-05-27T07:59:24Z</time>
      </trkpt>
      <trkpt lat="45.937" lon="5.36183">
        <ele>349.8</ele>
        <time>2023-05-27T07:59:25Z</time>
      </trkpt>
      <trkpt lat="45.93701" lon="5.36187">
        <ele>350</ele>
        <time>2023-05-27T07:59:26Z</time>
      </trkpt>
      <trkpt lat="45.93703" lon="5.3619">
        <ele>350.2</ele>
        <time>2023-05-27T07:59:27Z</time>
      </trkpt>
      <trkpt lat="45.93705" lon="5.36195">
        <ele>350.8</ele>
        <time>2023-05-27T07:59:28Z</time>
      </trkpt>
      <trkpt lat="45.93708" lon="5.36202">
        <ele>351</ele>
        <time>2023-05-27T07:59:29Z</time>
      </trkpt>
      <trkpt lat="45.93709" lon="5.36208">
        <ele>351.4</ele>
        <time>2023-05-27T07:59:30Z</time>
      </trkpt>
      <trkpt lat="45.93711" lon="5.36214">
        <ele>351.6</ele>
        <time>2023-05-27T07:59:31Z</time>
      </trkpt>
      <trkpt lat="45.93712" lon="5.36221">
        <ele>352</ele>
        <time>2023-05-27T07:59:32Z</time>
      </trkpt>
      <trkpt lat="45.93713" lon="5.36228">
        <ele>352.4</ele>
        <time>2023-05-27T07:59:33Z</time>
      </trkpt>
      <trkpt lat="45.93714" lon="5.36236">
        <ele>352.6</ele>
        <time>2023-05-27T07:59:34Z</time>
      </trkpt>
      <trkpt lat="45.93716" lon="5.36244">
        <ele>352.8</ele>
        <time>2023-05-27T07:59:35Z</time>
      </trkpt>
      <trkpt lat="45.93717" lon="5.36252">
        <ele>353.2</ele>
        <time>2023-05-27T07:59:36Z</time>
      </trkpt>
      <trkpt lat="45.93718" lon="5.36261">
        <ele>353.6</ele>
        <time>2023-05-27T07:59:37Z</time>
      </trkpt>
      <trkpt lat="45.93719" lon="5.3627">
        <ele>353.8</ele>
        <time>2023-05-27T07:59:38Z</time>
      </trkpt>
      <trkpt lat="45.93719" lon="5.3628">
        <ele>354.2</ele>
        <time>2023-05-27T07:59:39Z</time>
      </trkpt>
      <trkpt lat="45.9372" lon="5.3629">
        <ele>354.6</ele>
        <time>2023-05-27T07:59:40Z</time>
      </trkpt>
      <trkpt lat="45.93722" lon="5.36299">
        <ele>354.6</ele>
        <time>2023-05-27T07:59:41Z</time>
      </trkpt>
      <trkpt lat="45.93723" lon="5.36309">
        <ele>354.8</ele>
        <time>2023-05-27T07:59:42Z</time>
      </trkpt>
      <trkpt lat="45.93723" lon="5.3632">
        <ele>355</ele>
        <time>2023-05-27T07:59:43Z</time>
      </trkpt>
      <trkpt lat="45.93723" lon="5.36335">
        <ele>355.2</ele>
        <time>2023-05-27T07:59:44Z</time>
      </trkpt>
      <trkpt lat="45.93722" lon="5.36351">
        <ele>355.2</ele>
        <time>2023-05-27T07:59:45Z</time>
      </trkpt>
      <trkpt lat="45.93721" lon="5.36366">
        <ele>355.4</ele>
        <time>2023-05-27T07:59:46Z</time>
      </trkpt>
      <trkpt lat="45.93719" lon="5.3638">
        <ele>355.6</ele>
        <time>2023-05-27T07:59:47Z</time>
      </trkpt>
      <trkpt lat="45.93715" lon="5.36393">
        <ele>355.6</ele>
        <time>2023-05-27T07:59:48Z</time>
      </trkpt>
      <trkpt lat="45.93711" lon="5.36407">
        <ele>355.8</ele>
        <time>2023-05-27T07:59:49Z</time>
      </trkpt>
      <trkpt lat="45.93709" lon="5.36421">
        <ele>355.8</ele>
        <time>2023-05-27T07:59:50Z</time>
      </trkpt>
      <trkpt lat="45.9371" lon="5.36438">
        <ele>355.8</ele>
        <time>2023-05-27T07:59:51Z</time>
      </trkpt>
      <trkpt lat="45.93714" lon="5.36454">
        <ele>356</ele>
        <time>2023-05-27T07:59:52Z</time>
      </trkpt>
      <trkpt lat="45.93721" lon="5.36465">
        <ele>356</ele>
        <time>2023-05-27T07:59:53Z</time>
      </trkpt>
      <trkpt lat="45.93729" lon="5.36473">
        <ele>356</ele>
        <time>2023-05-27T07:59:54Z</time>
      </trkpt>
      <trkpt lat="45.93738" lon="5.36482">
        <ele>356</ele>
        <time>2023-05-27T07:59:55Z</time>
      </trkpt>
      <trkpt lat="45.93748" lon="5.36493">
        <ele>355.6</ele>
        <time>2023-05-27T07:59:56Z</time>
      </trkpt>
      <trkpt lat="45.93755" lon="5.36502">
        <ele>355.6</ele>
        <time>2023-05-27T07:59:57Z</time>
      </trkpt>
      <trkpt lat="45.93765" lon="5.36517">
        <ele>355.6</ele>
        <time>2023-05-27T07:59:58Z</time>
      </trkpt>
      <trkpt lat="45.93773" lon="5.36529">
        <ele>355.4</ele>
        <time>2023-05-27T07:59:59Z</time>
      </trkpt>
      <trkpt lat="45.93782" lon="5.36539">
        <ele>355.4</ele>
        <time>2023-05-27T08:00:00Z</time>
      </trkpt>
      <trkpt lat="45.93793" lon="5.36547">
        <ele>355</ele>
        <time>2023-05-27T08:00:01Z</time>
      </trkpt>
      <trkpt lat="45.93804" lon="5.36554">
        <ele>355</ele>
        <time>2023-05-27T08:00:02Z</time>
      </trkpt>
      <trkpt lat="45.93814" lon="5.36559">
        <ele>354.8</ele>
        <time>2023-05-27T08:00:03Z</time>
      </trkpt>
      <trkpt lat="45.93825" lon="5.3656">
        <ele>354.6</ele>
        <time>2023-05-27T08:00:04Z</time>
      </trkpt>
      <trkpt lat="45.93836" lon="5.3656">
        <ele>354.6</ele>
        <time>2023-05-27T08:00:05Z</time>
      </trkpt>
      <trkpt lat="45.93846" lon="5.36559">
        <ele>354.2</ele>
        <time>2023-05-27T08:00:06Z</time>
      </trkpt>
      <trkpt lat="45.93852" lon="5.36555">
        <ele>354.2</ele>
        <time>2023-05-27T08:00:07Z</time>
      </trkpt>
      <trkpt lat="45.93857" lon="5.36549">
        <ele>353.8</ele>
        <time>2023-05-27T08:00:08Z</time>
      </trkpt>
      <trkpt lat="45.93862" lon="5.36541">
        <ele>353.6</ele>
        <time>2023-05-27T08:00:09Z</time>
      </trkpt>
      <trkpt lat="45.93864" lon="5.36532">
        <ele>352.8</ele>
        <time>2023-05-27T08:00:10Z</time>
      </trkpt>
      <trkpt lat="45.93866" lon="5.36521">
        <ele>352.2</ele>
        <time>2023-05-27T08:00:11Z</time>
      </trkpt>
      <trkpt lat="45.93866" lon="5.36508">
        <ele>351.2</ele>
        <time>2023-05-27T08:00:12Z</time>
      </trkpt>
      <trkpt lat="45.93863" lon="5.36496">
        <ele>351</ele>
        <time>2023-05-27T08:00:13Z</time>
      </trkpt>
      <trkpt lat="45.93854" lon="5.36472">
        <ele>349.4</ele>
        <time>2023-05-27T08:00:15Z</time>
      </trkpt>
      <trkpt lat="45.93848" lon="5.36463">
        <ele>349.2</ele>
        <time>2023-05-27T08:00:16Z</time>
      </trkpt>
      <trkpt lat="45.93838" lon="5.36453">
        <ele>348.2</ele>
        <time>2023-05-27T08:00:17Z</time>
      </trkpt>
      <trkpt lat="45.93828" lon="5.36446">
        <ele>347.8</ele>
        <time>2023-05-27T08:00:18Z</time>
      </trkpt>
      <trkpt lat="45.9382" lon="5.36439">
        <ele>346.8</ele>
        <time>2023-05-27T08:00:19Z</time>
      </trkpt>
      <trkpt lat="45.93815" lon="5.36429">
        <ele>346.4</ele>
        <time>2023-05-27T08:00:20Z</time>
      </trkpt>
      <trkpt lat="45.93814" lon="5.36418">
        <ele>345.8</ele>
        <time>2023-05-27T08:00:21Z</time>
      </trkpt>
      <trkpt lat="45.93818" lon="5.36405">
        <ele>345.4</ele>
        <time>2023-05-27T08:00:22Z</time>
      </trkpt>
      <trkpt lat="45.93826" lon="5.36396">
        <ele>344.6</ele>
        <time>2023-05-27T08:00:23Z</time>
      </trkpt>
      <trkpt lat="45.93834" lon="5.3639">
        <ele>343.4</ele>
        <time>2023-05-27T08:00:24Z</time>
      </trkpt>
      <trkpt lat="45.93842" lon="5.36385">
        <ele>342.6</ele>
        <time>2023-05-27T08:00:25Z</time>
      </trkpt>
      <trkpt lat="45.93851" lon="5.36379">
        <ele>341.8</ele>
        <time>2023-05-27T08:00:26Z</time>
      </trkpt>
      <trkpt lat="45.9386" lon="5.36371">
        <ele>341.4</ele>
        <time>2023-05-27T08:00:27Z</time>
      </trkpt>
      <trkpt lat="45.9387" lon="5.36362">
        <ele>340.8</ele>
        <time>2023-05-27T08:00:28Z</time>
      </trkpt>
      <trkpt lat="45.93879" lon="5.36352">
        <ele>340.6</ele>
        <time>2023-05-27T08:00:29Z</time>
      </trkpt>
      <trkpt lat="45.93888" lon="5.36342">
        <ele>339.4</ele>
        <time>2023-05-27T08:00:30Z</time>
      </trkpt>
      <trkpt lat="45.93897" lon="5.36332">
        <ele>339</ele>
        <time>2023-05-27T08:00:31Z</time>
      </trkpt>
      <trkpt lat="45.93906" lon="5.36321">
        <ele>338.6</ele>
        <time>2023-05-27T08:00:32Z</time>
      </trkpt>
      <trkpt lat="45.93915" lon="5.3631">
        <ele>337.4</ele>
        <time>2023-05-27T08:00:33Z</time>
      </trkpt>
      <trkpt lat="45.93925" lon="5.36298">
        <ele>336.8</ele>
        <time>2023-05-27T08:00:34Z</time>
      </trkpt>
      <trkpt lat="45.93934" lon="5.36286">
        <ele>335.8</ele>
        <time>2023-05-27T08:00:35Z</time>
      </trkpt>
      <trkpt lat="45.93941" lon="5.36273">
        <ele>335.4</ele>
        <time>2023-05-27T08:00:36Z</time>
      </trkpt>
      <trkpt lat="45.93947" lon="5.36257">
        <ele>334.6</ele>
        <time>2023-05-27T08:00:37Z</time>
      </trkpt>
      <trkpt lat="45.93953" lon="5.36241">
        <ele>333.6</ele>
        <time>2023-05-27T08:00:38Z</time>
      </trkpt>
      <trkpt lat="45.93961" lon="5.36227">
        <ele>333</ele>
        <time>2023-05-27T08:00:39Z</time>
      </trkpt>
      <trkpt lat="45.93973" lon="5.36217">
        <ele>331.8</ele>
        <time>2023-05-27T08:00:40Z</time>
      </trkpt>
      <trkpt lat="45.93982" lon="5.36212">
        <ele>331.4</ele>
        <time>2023-05-27T08:00:41Z</time>
      </trkpt>
      <trkpt lat="45.93995" lon="5.36204">
        <ele>330.2</ele>
        <time>2023-05-27T08:00:42Z</time>
      </trkpt>
      <trkpt lat="45.94007" lon="5.36199">
        <ele>329.8</ele>
        <time>2023-05-27T08:00:43Z</time>
      </trkpt>
      <trkpt lat="45.94018" lon="5.36192">
        <ele>328.8</ele>
        <time>2023-05-27T08:00:44Z</time>
      </trkpt>
      <trkpt lat="45.94028" lon="5.36183">
        <ele>327.8</ele>
        <time>2023-05-27T08:00:45Z</time>
      </trkpt>
      <trkpt lat="45.94039" lon="5.36174">
        <ele>327.6</ele>
        <time>2023-05-27T08:00:46Z</time>
      </trkpt>
      <trkpt lat="45.94053" lon="5.36168">
        <ele>326.6</ele>
        <time>2023-05-27T08:00:47Z</time>
      </trkpt>
      <trkpt lat="45.94063" lon="5.36162">
        <ele>326</ele>
        <time>2023-05-27T08:00:48Z</time>
      </trkpt>
      <trkpt lat="45.94072" lon="5.36159">
        <ele>324.8</ele>
        <time>2023-05-27T08:00:49Z</time>
      </trkpt>
      <trkpt lat="45.9408" lon="5.36161">
        <ele>324.2</ele>
        <time>2023-05-27T08:00:50Z</time>
      </trkpt>
      <trkpt lat="45.94087" lon="5.36167">
        <ele>322.6</ele>
        <time>2023-05-27T08:00:51Z</time>
      </trkpt>
      <trkpt lat="45.9409" lon="5.36174">
        <ele>321</ele>
        <time>2023-05-27T08:00:52Z</time>
      </trkpt>
      <trkpt lat="45.9409" lon="5.36182">
        <ele>320.6</ele>
        <time>2023-05-27T08:00:53Z</time>
      </trkpt>
      <trkpt lat="45.94088" lon="5.36188">
        <ele>318.6</ele>
        <time>2023-05-27T08:00:54Z</time>
      </trkpt>
      <trkpt lat="45.94085" lon="5.36196">
        <ele>317.8</ele>
        <time>2023-05-27T08:00:55Z</time>
      </trkpt>
      <trkpt lat="45.94082" lon="5.36204">
        <ele>316.4</ele>
        <time>2023-05-27T08:00:56Z</time>
      </trkpt>
      <trkpt lat="45.94079" lon="5.36213">
        <ele>315.8</ele>
        <time>2023-05-27T08:00:57Z</time>
      </trkpt>
      <trkpt lat="45.94076" lon="5.36221">
        <ele>314.4</ele>
        <time>2023-05-27T08:00:58Z</time>
      </trkpt>
      <trkpt lat="45.94073" lon="5.36231">
        <ele>313.6</ele>
        <time>2023-05-27T08:00:59Z</time>
      </trkpt>
      <trkpt lat="45.9407" lon="5.3624">
        <ele>313</ele>
        <time>2023-05-27T08:01:00Z</time>
      </trkpt>
      <trkpt lat="45.94066" lon="5.36248">
        <ele>311.8</ele>
        <time>2023-05-27T08:01:01Z</time>
      </trkpt>
      <trkpt lat="45.94061" lon="5.36256">
        <ele>311.2</ele>
        <time>2023-05-27T08:01:02Z</time>
      </trkpt>
      <trkpt lat="45.94056" lon="5.36264">
        <ele>310.4</ele>
        <time>2023-05-27T08:01:03Z</time>
      </trkpt>
      <trkpt lat="45.9405" lon="5.36272">
        <ele>310</ele>
        <time>2023-05-27T08:01:04Z</time>
      </trkpt>
      <trkpt lat="45.94044" lon="5.36279">
        <ele>309.2</ele>
        <time>2023-05-27T08:01:05Z</time>
      </trkpt>
      <trkpt lat="45.94039" lon="5.36285">
        <ele>308.2</ele>
        <time>2023-05-27T08:01:06Z</time>
      </trkpt>
      <trkpt lat="45.94034" lon="5.36293">
        <ele>307.8</ele>
        <time>2023-05-27T08:01:07Z</time>
      </trkpt>
      <trkpt lat="45.94025" lon="5.3631">
        <ele>306.6</ele>
        <time>2023-05-27T08:01:09Z</time>
      </trkpt>
      <trkpt lat="45.94022" lon="5.3632">
        <ele>305.8</ele>
        <time>2023-05-27T08:01:10Z</time>
      </trkpt>
      <trkpt lat="45.94019" lon="5.36332">
        <ele>305.2</ele>
        <time>2023-05-27T08:01:11Z</time>
      </trkpt>
      <trkpt lat="45.94017" lon="5.36341">
        <ele>303.8</ele>
        <time>2023-05-27T08:01:12Z</time>
      </trkpt>
      <trkpt lat="45.94015" lon="5.36355">
        <ele>303.4</ele>
        <time>2023-05-27T08:01:13Z</time>
      </trkpt>
      <trkpt lat="45.94013" lon="5.36366">
        <ele>302.8</ele>
        <time>2023-05-27T08:01:14Z</time>
      </trkpt>
      <trkpt lat="45.94012" lon="5.36376">
        <ele>302</ele>
        <time>2023-05-27T08:01:15Z</time>
      </trkpt>
      <trkpt lat="45.9401" lon="5.36388">
        <ele>301.8</ele>
        <time>2023-05-27T08:01:16Z</time>
      </trkpt>
      <trkpt lat="45.94009" lon="5.364">
        <ele>301.2</ele>
        <time>2023-05-27T08:01:17Z</time>
      </trkpt>
      <trkpt lat="45.94007" lon="5.36412">
        <ele>301</ele>
        <time>2023-05-27T08:01:18Z</time>
      </trkpt>
      <trkpt lat="45.94006" lon="5.36424">
        <ele>300.8</ele>
        <time>2023-05-27T08:01:19Z</time>
      </trkpt>
      <trkpt lat="45.94003" lon="5.36436">
        <ele>300.4</ele>
        <time>2023-05-27T08:01:20Z</time>
      </trkpt>
      <trkpt lat="45.94" lon="5.36447">
        <ele>300</ele>
        <time>2023-05-27T08:01:21Z</time>
      </trkpt>
      <trkpt lat="45.93999" lon="5.36458">
        <ele>299.6</ele>
        <time>2023-05-27T08:01:22Z</time>
      </trkpt>
      <trkpt lat="45.93995" lon="5.36467">
        <ele>299.6</ele>
        <time>2023-05-27T08:01:23Z</time>
      </trkpt>
      <trkpt lat="45.93992" lon="5.36478">
        <ele>299</ele>
        <time>2023-05-27T08:01:24Z</time>
      </trkpt>
      <trkpt lat="45.93991" lon="5.36488">
        <ele>298.8</ele>
        <time>2023-05-27T08:01:25Z</time>
      </trkpt>
      <trkpt lat="45.93991" lon="5.36499">
        <ele>298.6</ele>
        <time>2023-05-27T08:01:26Z</time>
      </trkpt>
      <trkpt lat="45.93991" lon="5.3651">
        <ele>298.4</ele>
        <time>2023-05-27T08:01:27Z</time>
      </trkpt>
      <trkpt lat="45.93994" lon="5.3652">
        <ele>298</ele>
        <time>2023-05-27T08:01:28Z</time>
      </trkpt>
      <trkpt lat="45.93997" lon="5.36531">
        <ele>297.8</ele>
        <time>2023-05-27T08:01:29Z</time>
      </trkpt>
      <trkpt lat="45.94002" lon="5.36541">
        <ele>298</ele>
        <time>2023-05-27T08:01:30Z</time>
      </trkpt>
      <trkpt lat="45.94007" lon="5.36552">
        <ele>297.8</ele>
        <time>2023-05-27T08:01:31Z</time>
      </trkpt>
      <trkpt lat="45.94012" lon="5.36562">
        <ele>297.8</ele>
        <time>2023-05-27T08:01:32Z</time>
      </trkpt>
      <trkpt lat="45.94018" lon="5.36574">
        <ele>297.6</ele>
        <time>2023-05-27T08:01:33Z</time>
      </trkpt>
      <trkpt lat="45.94025" lon="5.36585">
        <ele>297.6</ele>
        <time>2023-05-27T08:01:34Z</time>
      </trkpt>
      <trkpt lat="45.94032" lon="5.36597">
        <ele>297.2</ele>
        <time>2023-05-27T08:01:35Z</time>
      </trkpt>
      <trkpt lat="45.94038" lon="5.36608">
        <ele>297</ele>
        <time>2023-05-27T08:01:36Z</time>
      </trkpt>
      <trkpt lat="45.94046" lon="5.36618">
        <ele>297</ele>
        <time>2023-05-27T08:01:37Z</time>
      </trkpt>
      <trkpt lat="45.94055" lon="5.36627">
        <ele>296.2</ele>
        <time>2023-05-27T08:01:38Z</time>
      </trkpt>
      <trkpt lat="45.94066" lon="5.36635">
        <ele>296</ele>
        <time>2023-05-27T08:01:39Z</time>
      </trkpt>
      <trkpt lat="45.94077" lon="5.36641">
        <ele>295.4</ele>
        <time>2023-05-27T08:01:40Z</time>
      </trkpt>
      <trkpt lat="45.94088" lon="5.36642">
        <ele>295.2</ele>
        <time>2023-05-27T08:01:41Z</time>
      </trkpt>
      <trkpt lat="45.94101" lon="5.36638">
        <ele>294.4</ele>
        <time>2023-05-27T08:01:42Z</time>
      </trkpt>
      <trkpt lat="45.94113" lon="5.36632">
        <ele>293.4</ele>
        <time>2023-05-27T08:01:43Z</time>
      </trkpt>
      <trkpt lat="45.94124" lon="5.36623">
        <ele>293.2</ele>
        <time>2023-05-27T08:01:44Z</time>
      </trkpt>
      <trkpt lat="45.94134" lon="5.36611">
        <ele>292.6</ele>
        <time>2023-05-27T08:01:45Z</time>
      </trkpt>
      <trkpt lat="45.9415" lon="5.36583">
        <ele>291.8</ele>
        <time>2023-05-27T08:01:47Z</time>
      </trkpt>
      <trkpt lat="45.94155" lon="5.36566">
        <ele>291.4</ele>
        <time>2023-05-27T08:01:48Z</time>
      </trkpt>
      <trkpt lat="45.9416" lon="5.36549">
        <ele>290.6</ele>
        <time>2023-05-27T08:01:49Z</time>
      </trkpt>
      <trkpt lat="45.94164" lon="5.36531">
        <ele>289.8</ele>
        <time>2023-05-27T08:01:50Z</time>
      </trkpt>
      <trkpt lat="45.94169" lon="5.36513">
        <ele>289.2</ele>
        <time>2023-05-27T08:01:51Z</time>
      </trkpt>
      <trkpt lat="45.94174" lon="5.36495">
        <ele>288.2</ele>
        <time>2023-05-27T08:01:52Z</time>
      </trkpt>
      <trkpt lat="45.94179" lon="5.36478">
        <ele>287.8</ele>
        <time>2023-05-27T08:01:53Z</time>
      </trkpt>
      <trkpt lat="45.94185" lon="5.36459">
        <ele>286.6</ele>
        <time>2023-05-27T08:01:54Z</time>
      </trkpt>
      <trkpt lat="45.94191" lon="5.36442">
        <ele>286</ele>
        <time>2023-05-27T08:01:55Z</time>
      </trkpt>
      <trkpt lat="45.94196" lon="5.36425">
        <ele>285.2</ele>
        <time>2023-05-27T08:01:56Z</time>
      </trkpt>
      <trkpt lat="45.94202" lon="5.3641">
        <ele>284.2</ele>
        <time>2023-05-27T08:01:57Z</time>
      </trkpt>
      <trkpt lat="45.94208" lon="5.36398">
        <ele>283.6</ele>
        <time>2023-05-27T08:01:58Z</time>
      </trkpt>
      <trkpt lat="45.94216" lon="5.36388">
        <ele>282.6</ele>
        <time>2023-05-27T08:01:59Z</time>
      </trkpt>
      <trkpt lat="45.94223" lon="5.36381">
        <ele>282.2</ele>
        <time>2023-05-27T08:02:00Z</time>
      </trkpt>
      <trkpt lat="45.94231" lon="5.36377">
        <ele>281.2</ele>
        <time>2023-05-27T08:02:01Z</time>
      </trkpt>
      <trkpt lat="45.94239" lon="5.3638">
        <ele>280.8</ele>
        <time>2023-05-27T08:02:02Z</time>
      </trkpt>
      <trkpt lat="45.94247" lon="5.36383">
        <ele>279.4</ele>
        <time>2023-05-27T08:02:03Z</time>
      </trkpt>
      <trkpt lat="45.94256" lon="5.36387">
        <ele>278.4</ele>
        <time>2023-05-27T08:02:04Z</time>
      </trkpt>
      <trkpt lat="45.94263" lon="5.36389">
        <ele>278</ele>
        <time>2023-05-27T08:02:05Z</time>
      </trkpt>
      <trkpt lat="45.94269" lon="5.36392">
        <ele>276.4</ele>
        <time>2023-05-27T08:02:06Z</time>
      </trkpt>
      <trkpt lat="45.94274" lon="5.36394">
        <ele>275.8</ele>
        <time>2023-05-27T08:02:07Z</time>
      </trkpt>
      <trkpt lat="45.94277" lon="5.36396">
        <ele>274.4</ele>
        <time>2023-05-27T08:02:08Z</time>
      </trkpt>
      <trkpt lat="45.94278" lon="5.36399">
        <ele>273.6</ele>
        <time>2023-05-27T08:02:09Z</time>
      </trkpt>
      <trkpt lat="45.94279" lon="5.36401">
        <ele>272.2</ele>
        <time>2023-05-27T08:02:10Z</time>
      </trkpt>
      <trkpt lat="45.9428" lon="5.36404">
        <ele>271</ele>
        <time>2023-05-27T08:02:11Z</time>
      </trkpt>
      <trkpt lat="45.94279" lon="5.36407">
        <ele>270.6</ele>
        <time>2023-05-27T08:02:12Z</time>
      </trkpt>
      <trkpt lat="45.94278" lon="5.36412">
        <ele>269.6</ele>
        <time>2023-05-27T08:02:13Z</time>
      </trkpt>
      <trkpt lat="45.94277" lon="5.36417">
        <ele>269.2</ele>
        <time>2023-05-27T08:02:14Z</time>
      </trkpt>
      <trkpt lat="45.94275" lon="5.36423">
        <ele>268.6</ele>
        <time>2023-05-27T08:02:15Z</time>
      </trkpt>
      <trkpt lat="45.94273" lon="5.36429">
        <ele>268.2</ele>
        <time>2023-05-27T08:02:16Z</time>
      </trkpt>
      <trkpt lat="45.94272" lon="5.36435">
        <ele>267.2</ele>
        <time>2023-05-27T08:02:17Z</time>
      </trkpt>
      <trkpt lat="45.9427" lon="5.36441">
        <ele>266.2</ele>
        <time>2023-05-27T08:02:18Z</time>
      </trkpt>
      <trkpt lat="45.94268" lon="5.36447">
        <ele>265.8</ele>
        <time>2023-05-27T08:02:19Z</time>
      </trkpt>
      <trkpt lat="45.94266" lon="5.36453">
        <ele>264.8</ele>
        <time>2023-05-27T08:02:20Z</time>
      </trkpt>
      <trkpt lat="45.94264" lon="5.3646">
        <ele>264.2</ele>
        <time>2023-05-27T08:02:21Z</time>
      </trkpt>
      <trkpt lat="45.94261" lon="5.36466">
        <ele>263.4</ele>
        <time>2023-05-27T08:02:22Z</time>
      </trkpt>
      <trkpt lat="45.9426" lon="5.36473">
        <ele>263</ele>
        <time>2023-05-27T08:02:23Z</time>
      </trkpt>
      <trkpt lat="45.94259" lon="5.36479">
        <ele>262.2</ele>
        <time>2023-05-27T08:02:24Z</time>
      </trkpt>
      <trkpt lat="45.94257" lon="5.36486">
        <ele>261.8</ele>
        <time>2023-05-27T08:02:25Z</time>
      </trkpt>
      <trkpt lat="45.94255" lon="5.36493">
        <ele>261.4</ele>
        <time>2023-05-27T08:02:26Z</time>
      </trkpt>
      <trkpt lat="45.94253" lon="5.36499">
        <ele>261</ele>
        <time>2023-05-27T08:02:27Z</time>
      </trkpt>
      <trkpt lat="45.94252" lon="5.36504">
        <ele>260.8</ele>
        <time>2023-05-27T08:02:28Z</time>
      </trkpt>
      <trkpt lat="45.94249" lon="5.36512">
        <ele>260.2</ele>
        <time>2023-05-27T08:02:29Z</time>
      </trkpt>
      <trkpt lat="45.94246" lon="5.36518">
        <ele>259.8</ele>
        <time>2023-05-27T08:02:30Z</time>
      </trkpt>
      <trkpt lat="45.94244" lon="5.36525">
        <ele>259.4</ele>
        <time>2023-05-27T08:02:31Z</time>
      </trkpt>
      <trkpt lat="45.94241" lon="5.36531">
        <ele>259</ele>
        <time>2023-05-27T08:02:32Z</time>
      </trkpt>
      <trkpt lat="45.94238" lon="5.36538">
        <ele>258.8</ele>
        <time>2023-05-27T08:02:33Z</time>
      </trkpt>
      <trkpt lat="45.94236" lon="5.36545">
        <ele>258.4</ele>
        <time>2023-05-27T08:02:34Z</time>
      </trkpt>
      <trkpt lat="45.94234" lon="5.36552">
        <ele>258.2</ele>
        <time>2023-05-27T08:02:35Z</time>
      </trkpt>
      <trkpt lat="45.94232" lon="5.36559">
        <ele>257.6</ele>
        <time>2023-05-27T08:02:36Z</time>
      </trkpt>
      <trkpt lat="45.9423" lon="5.36565">
        <ele>257.6</ele>
        <time>2023-05-27T08:02:37Z</time>
      </trkpt>
      <trkpt lat="45.94227" lon="5.36572">
        <ele>257.4</ele>
        <time>2023-05-27T08:02:38Z</time>
      </trkpt>
      <trkpt lat="45.94222" lon="5.36585">
        <ele>257</ele>
        <time>2023-05-27T08:02:40Z</time>
      </trkpt>
      <trkpt lat="45.9422" lon="5.36592">
        <ele>256.8</ele>
        <time>2023-05-27T08:02:41Z</time>
      </trkpt>
      <trkpt lat="45.94217" lon="5.36598">
        <ele>256.8</ele>
        <time>2023-05-27T08:02:42Z</time>
      </trkpt>
      <trkpt lat="45.94215" lon="5.36605">
        <ele>256.6</ele>
        <time>2023-05-27T08:02:43Z</time>
      </trkpt>
      <trkpt lat="45.94212" lon="5.36613">
        <ele>256.6</ele>
        <time>2023-05-27T08:02:44Z</time>
      </trkpt>
      <trkpt lat="45.9421" lon="5.3662">
        <ele>256.4</ele>
        <time>2023-05-27T08:02:45Z</time>
      </trkpt>
      <trkpt lat="45.94207" lon="5.36627">
        <ele>256.2</ele>
        <time>2023-05-27T08:02:46Z</time>
      </trkpt>
      <trkpt lat="45.94205" lon="5.36634">
        <ele>256</ele>
        <time>2023-05-27T08:02:47Z</time>
      </trkpt>
      <trkpt lat="45.94202" lon="5.36641">
        <ele>255.8</ele>
        <time>2023-05-27T08:02:48Z</time>
      </trkpt>
      <trkpt lat="45.942" lon="5.36648">
        <ele>255.8</ele>
        <time>2023-05-27T08:02:49Z</time>
      </trkpt>
      <trkpt lat="45.94197" lon="5.36655">
        <ele>255.6</ele>
        <time>2023-05-27T08:02:50Z</time>
      </trkpt>
      <trkpt lat="45.94195" lon="5.36662">
        <ele>255.6</ele>
        <time>2023-05-27T08:02:51Z</time>
      </trkpt>
      <trkpt lat="45.94193" lon="5.36669">
        <ele>255.6</ele>
        <time>2023-05-27T08:02:52Z</time>
      </trkpt>
      <trkpt lat="45.9419" lon="5.36676">
        <ele>255.6</ele>
        <time>2023-05-27T08:02:53Z</time>
      </trkpt>
      <trkpt lat="45.94188" lon="5.36682">
        <ele>255.4</ele>
        <time>2023-05-27T08:02:54Z</time>
      </trkpt>
      <trkpt lat="45.94186" lon="5.3669">
        <ele>255.4</ele>
        <time>2023-05-27T08:02:55Z</time>
      </trkpt>
      <trkpt lat="45.94183" lon="5.36696">
        <ele>255.4</ele>
        <time>2023-05-27T08:02:56Z</time>
      </trkpt>
      <trkpt lat="45.94181" lon="5.36703">
        <ele>255.6</ele>
        <time>2023-05-27T08:02:57Z</time>
      </trkpt>
      <trkpt lat="45.94178" lon="5.3671">
        <ele>255.6</ele>
        <time>2023-05-27T08:02:58Z</time>
      </trkpt>
      <trkpt lat="45.94176" lon="5.36717">
        <ele>255.8</ele>
        <time>2023-05-27T08:02:59Z</time>
      </trkpt>
      <trkpt lat="45.94173" lon="5.36724">
        <ele>255.8</ele>
        <time>2023-05-27T08:03:00Z</time>
      </trkpt>
      <trkpt lat="45.94171" lon="5.36731">
        <ele>256</ele>
        <time>2023-05-27T08:03:01Z</time>
      </trkpt>
      <trkpt lat="45.94169" lon="5.36738">
        <ele>256</ele>
        <time>2023-05-27T08:03:02Z</time>
      </trkpt>
      <trkpt lat="45.94166" lon="5.36746">
        <ele>256.2</ele>
        <time>2023-05-27T08:03:03Z</time>
      </trkpt>
      <trkpt lat="45.94164" lon="5.36753">
        <ele>256.2</ele>
        <time>2023-05-27T08:03:04Z</time>
      </trkpt>
      <trkpt lat="45.94161" lon="5.3676">
        <ele>256.4</ele>
        <time>2023-05-27T08:03:05Z</time>
      </trkpt>
      <trkpt lat="45.94159" lon="5.36767">
        <ele>256.6</ele>
        <time>2023-05-27T08:03:06Z</time>
      </trkpt>
      <trkpt lat="45.94156" lon="5.36774">
        <ele>256.4</ele>
        <time>2023-05-27T08:03:07Z</time>
      </trkpt>
      <trkpt lat="45.94153" lon="5.36781">
        <ele>256.4</ele>
        <time>2023-05-27T08:03:08Z</time>
      </trkpt>
      <trkpt lat="45.9415" lon="5.36788">
        <ele>256.6</ele>
        <time>2023-05-27T08:03:09Z</time>
      </trkpt>
      <trkpt lat="45.94148" lon="5.36795">
        <ele>256.6</ele>
        <time>2023-05-27T08:03:10Z</time>
      </trkpt>
      <trkpt lat="45.94146" lon="5.36803">
        <ele>256.8</ele>
        <time>2023-05-27T08:03:11Z</time>
      </trkpt>
      <trkpt lat="45.94145" lon="5.36811">
        <ele>256.6</ele>
        <time>2023-05-27T08:03:12Z</time>
      </trkpt>
      <trkpt lat="45.94143" lon="5.36819">
        <ele>256.6</ele>
        <time>2023-05-27T08:03:13Z</time>
      </trkpt>
      <trkpt lat="45.9414" lon="5.36827">
        <ele>256.6</ele>
        <time>2023-05-27T08:03:14Z</time>
      </trkpt>
      <trkpt lat="45.94138" lon="5.36836">
        <ele>256.6</ele>
        <time>2023-05-27T08:03:15Z</time>
      </trkpt>
      <trkpt lat="45.94135" lon="5.36844">
        <ele>256.8</ele>
        <time>2023-05-27T08:03:16Z</time>
      </trkpt>
      <trkpt lat="45.94133" lon="5.36852">
        <ele>256.8</ele>
        <time>2023-05-27T08:03:17Z</time>
      </trkpt>
      <trkpt lat="45.9413" lon="5.3686">
        <ele>256.8</ele>
        <time>2023-05-27T08:03:18Z</time>
      </trkpt>
      <trkpt lat="45.94128" lon="5.36868">
        <ele>256.8</ele>
        <time>2023-05-27T08:03:19Z</time>
      </trkpt>
      <trkpt lat="45.94125" lon="5.36876">
        <ele>257</ele>
        <time>2023-05-27T08:03:20Z</time>
      </trkpt>
      <trkpt lat="45.94122" lon="5.36883">
        <ele>257</ele>
        <time>2023-05-27T08:03:21Z</time>
      </trkpt>
      <trkpt lat="45.94119" lon="5.36891">
        <ele>257</ele>
        <time>2023-05-27T08:03:22Z</time>
      </trkpt>
      <trkpt lat="45.94116" lon="5.36898">
        <ele>257</ele>
        <time>2023-05-27T08:03:23Z</time>
      </trkpt>
      <trkpt lat="45.94113" lon="5.36905">
        <ele>257</ele>
        <time>2023-05-27T08:03:24Z</time>
      </trkpt>
      <trkpt lat="45.9411" lon="5.36912">
        <ele>257</ele>
        <time>2023-05-27T08:03:25Z</time>
      </trkpt>
      <trkpt lat="45.94106" lon="5.36919">
        <ele>257</ele>
        <time>2023-05-27T08:03:26Z</time>
      </trkpt>
      <trkpt lat="45.94102" lon="5.36926">
        <ele>257.2</ele>
        <time>2023-05-27T08:03:27Z</time>
      </trkpt>
      <trkpt lat="45.94099" lon="5.36933">
        <ele>257.2</ele>
        <time>2023-05-27T08:03:28Z</time>
      </trkpt>
      <trkpt lat="45.94095" lon="5.3694">
        <ele>257.2</ele>
        <time>2023-05-27T08:03:29Z</time>
      </trkpt>
      <trkpt lat="45.94092" lon="5.36947">
        <ele>257.4</ele>
        <time>2023-05-27T08:03:30Z</time>
      </trkpt>
      <trkpt lat="45.94088" lon="5.36954">
        <ele>257.4</ele>
        <time>2023-05-27T08:03:31Z</time>
      </trkpt>
      <trkpt lat="45.9408" lon="5.36967">
        <ele>257.8</ele>
        <time>2023-05-27T08:03:33Z</time>
      </trkpt>
      <trkpt lat="45.94077" lon="5.36974">
        <ele>258</ele>
        <time>2023-05-27T08:03:34Z</time>
      </trkpt>
      <trkpt lat="45.94074" lon="5.36981">
        <ele>258</ele>
        <time>2023-05-27T08:03:35Z</time>
      </trkpt>
      <trkpt lat="45.94071" lon="5.36988">
        <ele>258.2</ele>
        <time>2023-05-27T08:03:36Z</time>
      </trkpt>
      <trkpt lat="45.94068" lon="5.36995">
        <ele>258.6</ele>
        <time>2023-05-27T08:03:37Z</time>
      </trkpt>
      <trkpt lat="45.94064" lon="5.37002">
        <ele>258.6</ele>
        <time>2023-05-27T08:03:38Z</time>
      </trkpt>
      <trkpt lat="45.94061" lon="5.37009">
        <ele>259</ele>
        <time>2023-05-27T08:03:39Z</time>
      </trkpt>
      <trkpt lat="45.94057" lon="5.37016">
        <ele>259</ele>
        <time>2023-05-27T08:03:40Z</time>
      </trkpt>
      <trkpt lat="45.94052" lon="5.37024">
        <ele>259.2</ele>
        <time>2023-05-27T08:03:41Z</time>
      </trkpt>
      <trkpt lat="45.94048" lon="5.37031">
        <ele>259.2</ele>
        <time>2023-05-27T08:03:42Z</time>
      </trkpt>
      <trkpt lat="45.94043" lon="5.37036">
        <ele>259.2</ele>
        <time>2023-05-27T08:03:43Z</time>
      </trkpt>
      <trkpt lat="45.94039" lon="5.37043">
        <ele>259.2</ele>
        <time>2023-05-27T08:03:44Z</time>
      </trkpt>
      <trkpt lat="45.94036" lon="5.37049">
        <ele>259.4</ele>
        <time>2023-05-27T08:03:45Z</time>
      </trkpt>
      <trkpt lat="45.94032" lon="5.37054">
        <ele>259.4</ele>
        <time>2023-05-27T08:03:46Z</time>
      </trkpt>
      <trkpt lat="45.94027" lon="5.37061">
        <ele>259.4</ele>
        <time>2023-05-27T08:03:47Z</time>
      </trkpt>
      <trkpt lat="45.94021" lon="5.37069">
        <ele>259.4</ele>
        <time>2023-05-27T08:03:48Z</time>
      </trkpt>
      <trkpt lat="45.94014" lon="5.37074">
        <ele>259.4</ele>
        <time>2023-05-27T08:03:49Z</time>
      </trkpt>
      <trkpt lat="45.94006" lon="5.37081">
        <ele>259.4</ele>
        <time>2023-05-27T08:03:50Z</time>
      </trkpt>
      <trkpt lat="45.94" lon="5.37088">
        <ele>259.4</ele>
        <time>2023-05-27T08:03:51Z</time>
      </trkpt>
      <trkpt lat="45.93995" lon="5.37095">
        <ele>259.6</ele>
        <time>2023-05-27T08:03:52Z</time>
      </trkpt>
      <trkpt lat="45.9399" lon="5.37102">
        <ele>259.8</ele>
        <time>2023-05-27T08:03:53Z</time>
      </trkpt>
      <trkpt lat="45.93984" lon="5.3711">
        <ele>259.8</ele>
        <time>2023-05-27T08:03:54Z</time>
      </trkpt>
      <trkpt lat="45.93976" lon="5.37116">
        <ele>260.4</ele>
        <time>2023-05-27T08:03:55Z</time>
      </trkpt>
      <trkpt lat="45.93967" lon="5.3712">
        <ele>260.4</ele>
        <time>2023-05-27T08:03:56Z</time>
      </trkpt>
      <trkpt lat="45.93959" lon="5.37125">
        <ele>260.8</ele>
        <time>2023-05-27T08:03:57Z</time>
      </trkpt>
      <trkpt lat="45.93951" lon="5.37129">
        <ele>261.2</ele>
        <time>2023-05-27T08:03:58Z</time>
      </trkpt>
      <trkpt lat="45.93944" lon="5.37135">
        <ele>261.2</ele>
        <time>2023-05-27T08:03:59Z</time>
      </trkpt>
      <trkpt lat="45.9394" lon="5.37139">
        <ele>261.4</ele>
        <time>2023-05-27T08:04:00Z</time>
      </trkpt>
      <trkpt lat="45.93936" lon="5.37143">
        <ele>261.4</ele>
        <time>2023-05-27T08:04:01Z</time>
      </trkpt>
      <trkpt lat="45.93931" lon="5.37146">
        <ele>261.4</ele>
        <time>2023-05-27T08:04:02Z</time>
      </trkpt>
      <trkpt lat="45.93926" lon="5.3715">
        <ele>261.4</ele>
        <time>2023-05-27T08:04:03Z</time>
      </trkpt>
      <trkpt lat="45.93921" lon="5.37152">
        <ele>261.8</ele>
        <time>2023-05-27T08:04:04Z</time>
      </trkpt>
      <trkpt lat="45.93915" lon="5.37155">
        <ele>261.8</ele>
        <time>2023-05-27T08:04:05Z</time>
      </trkpt>
      <trkpt lat="45.93908" lon="5.37158">
        <ele>262</ele>
        <time>2023-05-27T08:04:06Z</time>
      </trkpt>
      <trkpt lat="45.93901" lon="5.37161">
        <ele>262</ele>
        <time>2023-05-27T08:04:07Z</time>
      </trkpt>
      <trkpt lat="45.93892" lon="5.3717">
        <ele>262.2</ele>
        <time>2023-05-27T08:04:08Z</time>
      </trkpt>
      <trkpt lat="45.93883" lon="5.37177">
        <ele>262.2</ele>
        <time>2023-05-27T08:04:09Z</time>
      </trkpt>
      <trkpt lat="45.93877" lon="5.37181">
        <ele>262.2</ele>
        <time>2023-05-27T08:04:10Z</time>
      </trkpt>
      <trkpt lat="45.93869" lon="5.37185">
        <ele>262.4</ele>
        <time>2023-05-27T08:04:11Z</time>
      </trkpt>
      <trkpt lat="45.93861" lon="5.37189">
        <ele>262.6</ele>
        <time>2023-05-27T08:04:12Z</time>
      </trkpt>
      <trkpt lat="45.93852" lon="5.3719">
        <ele>262.6</ele>
        <time>2023-05-27T08:04:13Z</time>
      </trkpt>
      <trkpt lat="45.93844" lon="5.37191">
        <ele>262.8</ele>
        <time>2023-05-27T08:04:14Z</time>
      </trkpt>
      <trkpt lat="45.93837" lon="5.37191">
        <ele>262.8</ele>
        <time>2023-05-27T08:04:15Z</time>
      </trkpt>
      <trkpt lat="45.93831" lon="5.37193">
        <ele>263</ele>
        <time>2023-05-27T08:04:16Z</time>
      </trkpt>
      <trkpt lat="45.93826" lon="5.37194">
        <ele>263</ele>
        <time>2023-05-27T08:04:17Z</time>
      </trkpt>
      <trkpt lat="45.93821" lon="5.37194">
        <ele>263</ele>
        <time>2023-05-27T08:04:18Z</time>
      </trkpt>
      <trkpt lat="45.93815" lon="5.37195">
        <ele>263.2</ele>
        <time>2023-05-27T08:04:19Z</time>
      </trkpt>
      <trkpt lat="45.9381" lon="5.37197">
        <ele>263.2</ele>
        <time>2023-05-27T08:04:20Z</time>
      </trkpt>
      <trkpt lat="45.93805" lon="5.372">
        <ele>263.2</ele>
        <time>2023-05-27T08:04:21Z</time>
      </trkpt>
      <trkpt lat="45.93801" lon="5.37203">
        <ele>263.4</ele>
        <time>2023-05-27T08:04:22Z</time>
      </trkpt>
      <trkpt lat="45.93795" lon="5.37206">
        <ele>263.4</ele>
        <time>2023-05-27T08:04:23Z</time>
      </trkpt>
      <trkpt lat="45.93789" lon="5.37212">
        <ele>263.4</ele>
        <time>2023-05-27T08:04:24Z</time>
      </trkpt>
      <trkpt lat="45.93784" lon="5.37217">
        <ele>263.6</ele>
        <time>2023-05-27T08:04:25Z</time>
      </trkpt>
      <trkpt lat="45.93779" lon="5.37223">
        <ele>263.6</ele>
        <time>2023-05-27T08:04:26Z</time>
      </trkpt>
      <trkpt lat="45.93774" lon="5.37229">
        <ele>263.8</ele>
        <time>2023-05-27T08:04:27Z</time>
      </trkpt>
      <trkpt lat="45.93769" lon="5.37234">
        <ele>263.8</ele>
        <time>2023-05-27T08:04:28Z</time>
      </trkpt>
      <trkpt lat="45.93763" lon="5.3724">
        <ele>263.8</ele>
        <time>2023-05-27T08:04:29Z</time>
      </trkpt>
      <trkpt lat="45.93758" lon="5.37246">
        <ele>263.8</ele>
        <time>2023-05-27T08:04:30Z</time>
      </trkpt>
      <trkpt lat="45.93753" lon="5.37252">
        <ele>263.8</ele>
        <time>2023-05-27T08:04:31Z</time>
      </trkpt>
      <trkpt lat="45.93748" lon="5.37258">
        <ele>264</ele>
        <time>2023-05-27T08:04:32Z</time>
      </trkpt>
      <trkpt lat="45.93743" lon="5.37264">
        <ele>264</ele>
        <time>2023-05-27T08:04:33Z</time>
      </trkpt>
      <trkpt lat="45.93737" lon="5.37269">
        <ele>264</ele>
        <time>2023-05-27T08:04:34Z</time>
      </trkpt>
      <trkpt lat="45.93731" lon="5.37275">
        <ele>264</ele>
        <time>2023-05-27T08:04:35Z</time>
      </trkpt>
      <trkpt lat="45.93722" lon="5.37285">
        <ele>264</ele>
        <time>2023-05-27T08:04:37Z</time>
      </trkpt>
      <trkpt lat="45.93717" lon="5.37292">
        <ele>264</ele>
        <time>2023-05-27T08:04:38Z</time>
      </trkpt>
      <trkpt lat="45.93711" lon="5.37297">
        <ele>264.2</ele>
        <time>2023-05-27T08:04:39Z</time>
      </trkpt>
      <trkpt lat="45.93705" lon="5.37304">
        <ele>264.2</ele>
        <time>2023-05-27T08:04:40Z</time>
      </trkpt>
      <trkpt lat="45.937" lon="5.37311">
        <ele>264.2</ele>
        <time>2023-05-27T08:04:41Z</time>
      </trkpt>
      <trkpt lat="45.93693" lon="5.37318">
        <ele>264.2</ele>
        <time>2023-05-27T08:04:42Z</time>
      </trkpt>
      <trkpt lat="45.93688" lon="5.37323">
        <ele>264.2</ele>
        <time>2023-05-27T08:04:43Z</time>
      </trkpt>
      <trkpt lat="45.93683" lon="5.37329">
        <ele>264.2</ele>
        <time>2023-05-27T08:04:44Z</time>
      </trkpt>
      <trkpt lat="45.93677" lon="5.37335">
        <ele>264.2</ele>
        <time>2023-05-27T08:04:45Z</time>
      </trkpt>
      <trkpt lat="45.93668" lon="5.37341">
        <ele>264.6</ele>
        <time>2023-05-27T08:04:46Z</time>
      </trkpt>
      <trkpt lat="45.93659" lon="5.37348">
        <ele>264.6</ele>
        <time>2023-05-27T08:04:47Z</time>
      </trkpt>
      <trkpt lat="45.9365" lon="5.37355">
        <ele>264.6</ele>
        <time>2023-05-27T08:04:48Z</time>
      </trkpt>
      <trkpt lat="45.93643" lon="5.37362">
        <ele>264.4</ele>
        <time>2023-05-27T08:04:49Z</time>
      </trkpt>
      <trkpt lat="45.93636" lon="5.37369">
        <ele>264.4</ele>
        <time>2023-05-27T08:04:50Z</time>
      </trkpt>
      <trkpt lat="45.93631" lon="5.37378">
        <ele>264.4</ele>
        <time>2023-05-27T08:04:51Z</time>
      </trkpt>
      <trkpt lat="45.93626" lon="5.37388">
        <ele>264.4</ele>
        <time>2023-05-27T08:04:52Z</time>
      </trkpt>
      <trkpt lat="45.93621" lon="5.37398">
        <ele>264.4</ele>
        <time>2023-05-27T08:04:53Z</time>
      </trkpt>
      <trkpt lat="45.93615" lon="5.37407">
        <ele>264.4</ele>
        <time>2023-05-27T08:04:54Z</time>
      </trkpt>
      <trkpt lat="45.9361" lon="5.37417">
        <ele>264.2</ele>
        <time>2023-05-27T08:04:55Z</time>
      </trkpt>
      <trkpt lat="45.93605" lon="5.37427">
        <ele>264.2</ele>
        <time>2023-05-27T08:04:56Z</time>
      </trkpt>
      <trkpt lat="45.936" lon="5.37438">
        <ele>264</ele>
        <time>2023-05-27T08:04:57Z</time>
      </trkpt>
      <trkpt lat="45.93596" lon="5.37447">
        <ele>264</ele>
        <time>2023-05-27T08:04:58Z</time>
      </trkpt>
      <trkpt lat="45.93592" lon="5.37457">
        <ele>264</ele>
        <time>2023-05-27T08:04:59Z</time>
      </trkpt>
      <trkpt lat="45.93591" lon="5.37466">
        <ele>264</ele>
        <time>2023-05-27T08:05:00Z</time>
      </trkpt>
      <trkpt lat="45.93589" lon="5.37475">
        <ele>264</ele>
        <time>2023-05-27T08:05:01Z</time>
      </trkpt>
      <trkpt lat="45.93585" lon="5.37485">
        <ele>263.8</ele>
        <time>2023-05-27T08:05:02Z</time>
      </trkpt>
      <trkpt lat="45.93581" lon="5.37494">
        <ele>263.6</ele>
        <time>2023-05-27T08:05:03Z</time>
      </trkpt>
      <trkpt lat="45.93578" lon="5.37503">
        <ele>263.6</ele>
        <time>2023-05-27T08:05:04Z</time>
      </trkpt>
      <trkpt lat="45.93575" lon="5.37512">
        <ele>263.6</ele>
        <time>2023-05-27T08:05:05Z</time>
      </trkpt>
      <trkpt lat="45.93571" lon="5.3752">
        <ele>263.6</ele>
        <time>2023-05-27T08:05:06Z</time>
      </trkpt>
      <trkpt lat="45.93568" lon="5.37528">
        <ele>263.6</ele>
        <time>2023-05-27T08:05:07Z</time>
      </trkpt>
      <trkpt lat="45.93566" lon="5.37535">
        <ele>263.6</ele>
        <time>2023-05-27T08:05:08Z</time>
      </trkpt>
      <trkpt lat="45.93563" lon="5.37542">
        <ele>263.8</ele>
        <time>2023-05-27T08:05:09Z</time>
      </trkpt>
      <trkpt lat="45.9356" lon="5.37548">
        <ele>263.8</ele>
        <time>2023-05-27T08:05:10Z</time>
      </trkpt>
      <trkpt lat="45.93556" lon="5.37554">
        <ele>263.8</ele>
        <time>2023-05-27T08:05:11Z</time>
      </trkpt>
      <trkpt lat="45.93552" lon="5.3756">
        <ele>263.8</ele>
        <time>2023-05-27T08:05:12Z</time>
      </trkpt>
      <trkpt lat="45.93547" lon="5.37565">
        <ele>263.8</ele>
        <time>2023-05-27T08:05:13Z</time>
      </trkpt>
      <trkpt lat="45.93542" lon="5.37569">
        <ele>263.8</ele>
        <time>2023-05-27T08:05:14Z</time>
      </trkpt>
      <trkpt lat="45.93537" lon="5.37572">
        <ele>263.8</ele>
        <time>2023-05-27T08:05:15Z</time>
      </trkpt>
      <trkpt lat="45.9353" lon="5.37576">
        <ele>264</ele>
        <time>2023-05-27T08:05:16Z</time>
      </trkpt>
      <trkpt lat="45.93525" lon="5.37579">
        <ele>264.2</ele>
        <time>2023-05-27T08:05:17Z</time>
      </trkpt>
      <trkpt lat="45.9352" lon="5.37582">
        <ele>264.2</ele>
        <time>2023-05-27T08:05:18Z</time>
      </trkpt>
      <trkpt lat="45.93513" lon="5.37585">
        <ele>264.4</ele>
        <time>2023-05-27T08:05:19Z</time>
      </trkpt>
      <trkpt lat="45.93506" lon="5.37588">
        <ele>264.4</ele>
        <time>2023-05-27T08:05:20Z</time>
      </trkpt>
      <trkpt lat="45.93499" lon="5.37592">
        <ele>264.4</ele>
        <time>2023-05-27T08:05:21Z</time>
      </trkpt>
      <trkpt lat="45.93492" lon="5.37596">
        <ele>264.2</ele>
        <time>2023-05-27T08:05:22Z</time>
      </trkpt>
      <trkpt lat="45.93486" lon="5.37601">
        <ele>264.2</ele>
        <time>2023-05-27T08:05:23Z</time>
      </trkpt>
      <trkpt lat="45.9348" lon="5.37605">
        <ele>264.2</ele>
        <time>2023-05-27T08:05:24Z</time>
      </trkpt>
      <trkpt lat="45.93474" lon="5.3761">
        <ele>264.2</ele>
        <time>2023-05-27T08:05:25Z</time>
      </trkpt>
      <trkpt lat="45.93468" lon="5.37615">
        <ele>264.2</ele>
        <time>2023-05-27T08:05:26Z</time>
      </trkpt>
      <trkpt lat="45.93462" lon="5.37619">
        <ele>264</ele>
        <time>2023-05-27T08:05:27Z</time>
      </trkpt>
      <trkpt lat="45.93456" lon="5.37624">
        <ele>264</ele>
        <time>2023-05-27T08:05:28Z</time>
      </trkpt>
      <trkpt lat="45.93448" lon="5.3763">
        <ele>264</ele>
        <time>2023-05-27T08:05:29Z</time>
      </trkpt>
      <trkpt lat="45.93441" lon="5.37634">
        <ele>264</ele>
        <time>2023-05-27T08:05:30Z</time>
      </trkpt>
      <trkpt lat="45.93434" lon="5.37637">
        <ele>264</ele>
        <time>2023-05-27T08:05:31Z</time>
      </trkpt>
      <trkpt lat="45.93428" lon="5.3764">
        <ele>264</ele>
        <time>2023-05-27T08:05:32Z</time>
      </trkpt>
      <trkpt lat="45.93422" lon="5.37642">
        <ele>264</ele>
        <time>2023-05-27T08:05:33Z</time>
      </trkpt>
      <trkpt lat="45.93415" lon="5.37646">
        <ele>264</ele>
        <time>2023-05-27T08:05:34Z</time>
      </trkpt>
      <trkpt lat="45.93409" lon="5.37651">
        <ele>264</ele>
        <time>2023-05-27T08:05:35Z</time>
      </trkpt>
      <trkpt lat="45.93403" lon="5.37657">
        <ele>264</ele>
        <time>2023-05-27T08:05:36Z</time>
      </trkpt>
      <trkpt lat="45.93395" lon="5.37664">
        <ele>263.8</ele>
        <time>2023-05-27T08:05:37Z</time>
      </trkpt>
      <trkpt lat="45.93388" lon="5.37671">
        <ele>263.8</ele>
        <time>2023-05-27T08:05:38Z</time>
      </trkpt>
      <trkpt lat="45.93381" lon="5.37677">
        <ele>263.8</ele>
        <time>2023-05-27T08:05:39Z</time>
      </trkpt>
      <trkpt lat="45.93367" lon="5.37694">
        <ele>263.8</ele>
        <time>2023-05-27T08:05:41Z</time>
      </trkpt>
      <trkpt lat="45.9336" lon="5.377">
        <ele>263.8</ele>
        <time>2023-05-27T08:05:42Z</time>
      </trkpt>
      <trkpt lat="45.93353" lon="5.37706">
        <ele>263.6</ele>
        <time>2023-05-27T08:05:43Z</time>
      </trkpt>
      <trkpt lat="45.93348" lon="5.37714">
        <ele>263.6</ele>
        <time>2023-05-27T08:05:44Z</time>
      </trkpt>
      <trkpt lat="45.93341" lon="5.37723">
        <ele>263.6</ele>
        <time>2023-05-27T08:05:45Z</time>
      </trkpt>
      <trkpt lat="45.93335" lon="5.37731">
        <ele>263.6</ele>
        <time>2023-05-27T08:05:46Z</time>
      </trkpt>
      <trkpt lat="45.93329" lon="5.37737">
        <ele>263.6</ele>
        <time>2023-05-27T08:05:47Z</time>
      </trkpt>
      <trkpt lat="45.93323" lon="5.37743">
        <ele>263.6</ele>
        <time>2023-05-27T08:05:48Z</time>
      </trkpt>
      <trkpt lat="45.93317" lon="5.3775">
        <ele>263.6</ele>
        <time>2023-05-27T08:05:49Z</time>
      </trkpt>
      <trkpt lat="45.93313" lon="5.37759">
        <ele>263.6</ele>
        <time>2023-05-27T08:05:50Z</time>
      </trkpt>
      <trkpt lat="45.93309" lon="5.37767">
        <ele>263.8</ele>
        <time>2023-05-27T08:05:51Z</time>
      </trkpt>
      <trkpt lat="45.93304" lon="5.37775">
        <ele>263.8</ele>
        <time>2023-05-27T08:05:52Z</time>
      </trkpt>
      <trkpt lat="45.933" lon="5.37781">
        <ele>263.8</ele>
        <time>2023-05-27T08:05:53Z</time>
      </trkpt>
      <trkpt lat="45.93296" lon="5.37787">
        <ele>263.8</ele>
        <time>2023-05-27T08:05:54Z</time>
      </trkpt>
      <trkpt lat="45.93292" lon="5.37794">
        <ele>263.8</ele>
        <time>2023-05-27T08:05:55Z</time>
      </trkpt>
      <trkpt lat="45.93288" lon="5.37801">
        <ele>263.8</ele>
        <time>2023-05-27T08:05:56Z</time>
      </trkpt>
      <trkpt lat="45.93283" lon="5.37809">
        <ele>263.8</ele>
        <time>2023-05-27T08:05:57Z</time>
      </trkpt>
      <trkpt lat="45.93278" lon="5.37816">
        <ele>263.8</ele>
        <time>2023-05-27T08:05:58Z</time>
      </trkpt>
      <trkpt lat="45.93273" lon="5.37824">
        <ele>263.8</ele>
        <time>2023-05-27T08:05:59Z</time>
      </trkpt>
      <trkpt lat="45.93268" lon="5.37832">
        <ele>263.8</ele>
        <time>2023-05-27T08:06:00Z</time>
      </trkpt>
      <trkpt lat="45.93264" lon="5.37838">
        <ele>263.8</ele>
        <time>2023-05-27T08:06:01Z</time>
      </trkpt>
      <trkpt lat="45.93258" lon="5.37848">
        <ele>263.8</ele>
        <time>2023-05-27T08:06:02Z</time>
      </trkpt>
      <trkpt lat="45.93253" lon="5.37855">
        <ele>263.8</ele>
        <time>2023-05-27T08:06:03Z</time>
      </trkpt>
      <trkpt lat="45.93248" lon="5.37863">
        <ele>263.8</ele>
        <time>2023-05-27T08:06:04Z</time>
      </trkpt>
      <trkpt lat="45.93239" lon="5.37877">
        <ele>264</ele>
        <time>2023-05-27T08:06:06Z</time>
      </trkpt>
      <trkpt lat="45.93235" lon="5.37884">
        <ele>264.2</ele>
        <time>2023-05-27T08:06:07Z</time>
      </trkpt>
      <trkpt lat="45.9323" lon="5.37892">
        <ele>264.2</ele>
        <time>2023-05-27T08:06:08Z</time>
      </trkpt>
      <trkpt lat="45.93226" lon="5.37898">
        <ele>264.4</ele>
        <time>2023-05-27T08:06:09Z</time>
      </trkpt>
      <trkpt lat="45.93221" lon="5.37905">
        <ele>264.4</ele>
        <time>2023-05-27T08:06:10Z</time>
      </trkpt>
      <trkpt lat="45.93217" lon="5.37912">
        <ele>264.4</ele>
        <time>2023-05-27T08:06:11Z</time>
      </trkpt>
      <trkpt lat="45.93213" lon="5.37919">
        <ele>264.4</ele>
        <time>2023-05-27T08:06:12Z</time>
      </trkpt>
      <trkpt lat="45.93208" lon="5.37926">
        <ele>264.6</ele>
        <time>2023-05-27T08:06:13Z</time>
      </trkpt>
      <trkpt lat="45.932" lon="5.37942">
        <ele>264.6</ele>
        <time>2023-05-27T08:06:15Z</time>
      </trkpt>
      <trkpt lat="45.93196" lon="5.37952">
        <ele>264.6</ele>
        <time>2023-05-27T08:06:16Z</time>
      </trkpt>
      <trkpt lat="45.93192" lon="5.37961">
        <ele>264.6</ele>
        <time>2023-05-27T08:06:17Z</time>
      </trkpt>
      <trkpt lat="45.93188" lon="5.37971">
        <ele>264.6</ele>
        <time>2023-05-27T08:06:18Z</time>
      </trkpt>
      <trkpt lat="45.93184" lon="5.3798">
        <ele>264.6</ele>
        <time>2023-05-27T08:06:19Z</time>
      </trkpt>
      <trkpt lat="45.93181" lon="5.37989">
        <ele>264.6</ele>
        <time>2023-05-27T08:06:20Z</time>
      </trkpt>
      <trkpt lat="45.9318" lon="5.37998">
        <ele>264.6</ele>
        <time>2023-05-27T08:06:21Z</time>
      </trkpt>
      <trkpt lat="45.93178" lon="5.38008">
        <ele>264.4</ele>
        <time>2023-05-27T08:06:22Z</time>
      </trkpt>
      <trkpt lat="45.93177" lon="5.38018">
        <ele>264.6</ele>
        <time>2023-05-27T08:06:23Z</time>
      </trkpt>
      <trkpt lat="45.93173" lon="5.38027">
        <ele>264.6</ele>
        <time>2023-05-27T08:06:24Z</time>
      </trkpt>
      <trkpt lat="45.93169" lon="5.38035">
        <ele>264.4</ele>
        <time>2023-05-27T08:06:25Z</time>
      </trkpt>
      <trkpt lat="45.9316" lon="5.38047">
        <ele>264.4</ele>
        <time>2023-05-27T08:06:26Z</time>
      </trkpt>
      <trkpt lat="45.93154" lon="5.38056">
        <ele>264</ele>
        <time>2023-05-27T08:06:27Z</time>
      </trkpt>
      <trkpt lat="45.93149" lon="5.38063">
        <ele>264</ele>
        <time>2023-05-27T08:06:28Z</time>
      </trkpt>
      <trkpt lat="45.93144" lon="5.38069">
        <ele>264</ele>
        <time>2023-05-27T08:06:29Z</time>
      </trkpt>
      <trkpt lat="45.93139" lon="5.38077">
        <ele>264.2</ele>
        <time>2023-05-27T08:06:30Z</time>
      </trkpt>
      <trkpt lat="45.93134" lon="5.38083">
        <ele>264.2</ele>
        <time>2023-05-27T08:06:31Z</time>
      </trkpt>
      <trkpt lat="45.93125" lon="5.3809">
        <ele>264.2</ele>
        <time>2023-05-27T08:06:32Z</time>
      </trkpt>
      <trkpt lat="45.9312" lon="5.38097">
        <ele>264.4</ele>
        <time>2023-05-27T08:06:33Z</time>
      </trkpt>
      <trkpt lat="45.93115" lon="5.38105">
        <ele>264.4</ele>
        <time>2023-05-27T08:06:34Z</time>
      </trkpt>
      <trkpt lat="45.93104" lon="5.3812">
        <ele>264.4</ele>
        <time>2023-05-27T08:06:36Z</time>
      </trkpt>
      <trkpt lat="45.931" lon="5.38126">
        <ele>264.6</ele>
        <time>2023-05-27T08:06:37Z</time>
      </trkpt>
      <trkpt lat="45.93095" lon="5.38134">
        <ele>264.8</ele>
        <time>2023-05-27T08:06:38Z</time>
      </trkpt>
      <trkpt lat="45.93091" lon="5.38141">
        <ele>265</ele>
        <time>2023-05-27T08:06:39Z</time>
      </trkpt>
      <trkpt lat="45.93086" lon="5.38148">
        <ele>265.2</ele>
        <time>2023-05-27T08:06:40Z</time>
      </trkpt>
      <trkpt lat="45.93082" lon="5.38154">
        <ele>265.4</ele>
        <time>2023-05-27T08:06:41Z</time>
      </trkpt>
      <trkpt lat="45.93079" lon="5.3816">
        <ele>265.4</ele>
        <time>2023-05-27T08:06:42Z</time>
      </trkpt>
      <trkpt lat="45.93075" lon="5.38167">
        <ele>265.4</ele>
        <time>2023-05-27T08:06:43Z</time>
      </trkpt>
      <trkpt lat="45.9307" lon="5.38173">
        <ele>265.4</ele>
        <time>2023-05-27T08:06:44Z</time>
      </trkpt>
      <trkpt lat="45.93065" lon="5.38179">
        <ele>265.4</ele>
        <time>2023-05-27T08:06:45Z</time>
      </trkpt>
      <trkpt lat="45.9306" lon="5.38186">
        <ele>265.4</ele>
        <time>2023-05-27T08:06:46Z</time>
      </trkpt>
      <trkpt lat="45.93056" lon="5.38193">
        <ele>265.4</ele>
        <time>2023-05-27T08:06:47Z</time>
      </trkpt>
      <trkpt lat="45.9305" lon="5.38201">
        <ele>265.4</ele>
        <time>2023-05-27T08:06:48Z</time>
      </trkpt>
      <trkpt lat="45.93045" lon="5.38209">
        <ele>265.4</ele>
        <time>2023-05-27T08:06:49Z</time>
      </trkpt>
      <trkpt lat="45.9304" lon="5.38217">
        <ele>265.2</ele>
        <time>2023-05-27T08:06:50Z</time>
      </trkpt>
      <trkpt lat="45.93037" lon="5.38224">
        <ele>265.2</ele>
        <time>2023-05-27T08:06:51Z</time>
      </trkpt>
      <trkpt lat="45.93033" lon="5.3823">
        <ele>265.4</ele>
        <time>2023-05-27T08:06:52Z</time>
      </trkpt>
      <trkpt lat="45.9303" lon="5.38235">
        <ele>265.4</ele>
        <time>2023-05-27T08:06:53Z</time>
      </trkpt>
      <trkpt lat="45.93027" lon="5.38241">
        <ele>265.4</ele>
        <time>2023-05-27T08:06:54Z</time>
      </trkpt>
      <trkpt lat="45.93022" lon="5.38248">
        <ele>265.8</ele>
        <time>2023-05-27T08:06:55Z</time>
      </trkpt>
      <trkpt lat="45.93017" lon="5.38255">
        <ele>265.8</ele>
        <time>2023-05-27T08:06:56Z</time>
      </trkpt>
      <trkpt lat="45.93011" lon="5.38263">
        <ele>266</ele>
        <time>2023-05-27T08:06:57Z</time>
      </trkpt>
      <trkpt lat="45.93005" lon="5.38272">
        <ele>266.2</ele>
        <time>2023-05-27T08:06:58Z</time>
      </trkpt>
      <trkpt lat="45.93001" lon="5.3828">
        <ele>266.2</ele>
        <time>2023-05-27T08:06:59Z</time>
      </trkpt>
      <trkpt lat="45.92997" lon="5.38286">
        <ele>266.2</ele>
        <time>2023-05-27T08:07:00Z</time>
      </trkpt>
      <trkpt lat="45.92993" lon="5.38292">
        <ele>266.4</ele>
        <time>2023-05-27T08:07:01Z</time>
      </trkpt>
      <trkpt lat="45.9299" lon="5.38299">
        <ele>266.4</ele>
        <time>2023-05-27T08:07:02Z</time>
      </trkpt>
      <trkpt lat="45.92984" lon="5.38307">
        <ele>266.6</ele>
        <time>2023-05-27T08:07:03Z</time>
      </trkpt>
      <trkpt lat="45.92979" lon="5.38316">
        <ele>266.6</ele>
        <time>2023-05-27T08:07:04Z</time>
      </trkpt>
      <trkpt lat="45.92973" lon="5.38328">
        <ele>266.8</ele>
        <time>2023-05-27T08:07:05Z</time>
      </trkpt>
      <trkpt lat="45.92968" lon="5.38339">
        <ele>266.8</ele>
        <time>2023-05-27T08:07:06Z</time>
      </trkpt>
      <trkpt lat="45.92962" lon="5.3835">
        <ele>267</ele>
        <time>2023-05-27T08:07:07Z</time>
      </trkpt>
      <trkpt lat="45.92959" lon="5.38359">
        <ele>266.8</ele>
        <time>2023-05-27T08:07:08Z</time>
      </trkpt>
      <trkpt lat="45.92956" lon="5.38368">
        <ele>266.8</ele>
        <time>2023-05-27T08:07:09Z</time>
      </trkpt>
      <trkpt lat="45.92953" lon="5.38377">
        <ele>266.8</ele>
        <time>2023-05-27T08:07:10Z</time>
      </trkpt>
      <trkpt lat="45.92951" lon="5.38387">
        <ele>266.6</ele>
        <time>2023-05-27T08:07:11Z</time>
      </trkpt>
      <trkpt lat="45.92948" lon="5.38396">
        <ele>266.8</ele>
        <time>2023-05-27T08:07:12Z</time>
      </trkpt>
      <trkpt lat="45.92947" lon="5.38408">
        <ele>266.6</ele>
        <time>2023-05-27T08:07:13Z</time>
      </trkpt>
      <trkpt lat="45.92945" lon="5.38419">
        <ele>266.6</ele>
        <time>2023-05-27T08:07:14Z</time>
      </trkpt>
      <trkpt lat="45.9294" lon="5.38427">
        <ele>266.4</ele>
        <time>2023-05-27T08:07:15Z</time>
      </trkpt>
      <trkpt lat="45.92936" lon="5.38436">
        <ele>266.2</ele>
        <time>2023-05-27T08:07:16Z</time>
      </trkpt>
      <trkpt lat="45.92931" lon="5.38443">
        <ele>266.2</ele>
        <time>2023-05-27T08:07:17Z</time>
      </trkpt>
      <trkpt lat="45.92925" lon="5.38451">
        <ele>266.2</ele>
        <time>2023-05-27T08:07:18Z</time>
      </trkpt>
      <trkpt lat="45.92921" lon="5.38457">
        <ele>266.2</ele>
        <time>2023-05-27T08:07:19Z</time>
      </trkpt>
      <trkpt lat="45.92915" lon="5.38465">
        <ele>266.2</ele>
        <time>2023-05-27T08:07:20Z</time>
      </trkpt>
      <trkpt lat="45.92912" lon="5.38474">
        <ele>266.2</ele>
        <time>2023-05-27T08:07:21Z</time>
      </trkpt>
      <trkpt lat="45.92907" lon="5.38482">
        <ele>266.2</ele>
        <time>2023-05-27T08:07:22Z</time>
      </trkpt>
      <trkpt lat="45.929" lon="5.38491">
        <ele>266.2</ele>
        <time>2023-05-27T08:07:23Z</time>
      </trkpt>
      <trkpt lat="45.92892" lon="5.38496">
        <ele>266.2</ele>
        <time>2023-05-27T08:07:24Z</time>
      </trkpt>
      <trkpt lat="45.92885" lon="5.385">
        <ele>266.2</ele>
        <time>2023-05-27T08:07:25Z</time>
      </trkpt>
      <trkpt lat="45.9288" lon="5.38504">
        <ele>266.2</ele>
        <time>2023-05-27T08:07:26Z</time>
      </trkpt>
      <trkpt lat="45.92875" lon="5.38507">
        <ele>266.2</ele>
        <time>2023-05-27T08:07:27Z</time>
      </trkpt>
      <trkpt lat="45.9287" lon="5.38511">
        <ele>266.2</ele>
        <time>2023-05-27T08:07:28Z</time>
      </trkpt>
      <trkpt lat="45.92862" lon="5.38516">
        <ele>266.4</ele>
        <time>2023-05-27T08:07:29Z</time>
      </trkpt>
      <trkpt lat="45.92853" lon="5.38522">
        <ele>266.4</ele>
        <time>2023-05-27T08:07:30Z</time>
      </trkpt>
      <trkpt lat="45.92845" lon="5.38528">
        <ele>266.4</ele>
        <time>2023-05-27T08:07:31Z</time>
      </trkpt>
      <trkpt lat="45.92838" lon="5.38536">
        <ele>266.4</ele>
        <time>2023-05-27T08:07:32Z</time>
      </trkpt>
      <trkpt lat="45.92834" lon="5.38542">
        <ele>266.6</ele>
        <time>2023-05-27T08:07:33Z</time>
      </trkpt>
      <trkpt lat="45.92828" lon="5.38549">
        <ele>266.6</ele>
        <time>2023-05-27T08:07:34Z</time>
      </trkpt>
      <trkpt lat="45.92823" lon="5.38554">
        <ele>266.6</ele>
        <time>2023-05-27T08:07:35Z</time>
      </trkpt>
      <trkpt lat="45.92817" lon="5.38561">
        <ele>266.6</ele>
        <time>2023-05-27T08:07:36Z</time>
      </trkpt>
      <trkpt lat="45.92811" lon="5.38567">
        <ele>266.4</ele>
        <time>2023-05-27T08:07:37Z</time>
      </trkpt>
      <trkpt lat="45.92805" lon="5.38575">
        <ele>266.4</ele>
        <time>2023-05-27T08:07:38Z</time>
      </trkpt>
      <trkpt lat="45.92798" lon="5.38582">
        <ele>266.6</ele>
        <time>2023-05-27T08:07:39Z</time>
      </trkpt>
      <trkpt lat="45.92792" lon="5.38587">
        <ele>266.8</ele>
        <time>2023-05-27T08:07:40Z</time>
      </trkpt>
      <trkpt lat="45.92786" lon="5.38593">
        <ele>267</ele>
        <time>2023-05-27T08:07:41Z</time>
      </trkpt>
      <trkpt lat="45.92779" lon="5.38598">
        <ele>267</ele>
        <time>2023-05-27T08:07:42Z</time>
      </trkpt>
      <trkpt lat="45.92773" lon="5.38602">
        <ele>266.8</ele>
        <time>2023-05-27T08:07:43Z</time>
      </trkpt>
      <trkpt lat="45.92766" lon="5.38606">
        <ele>266.8</ele>
        <time>2023-05-27T08:07:44Z</time>
      </trkpt>
      <trkpt lat="45.92761" lon="5.3861">
        <ele>266.8</ele>
        <time>2023-05-27T08:07:45Z</time>
      </trkpt>
      <trkpt lat="45.92755" lon="5.38614">
        <ele>266.8</ele>
        <time>2023-05-27T08:07:46Z</time>
      </trkpt>
      <trkpt lat="45.92751" lon="5.38618">
        <ele>266.8</ele>
        <time>2023-05-27T08:07:47Z</time>
      </trkpt>
      <trkpt lat="45.92745" lon="5.38622">
        <ele>267</ele>
        <time>2023-05-27T08:07:48Z</time>
      </trkpt>
      <trkpt lat="45.9274" lon="5.38627">
        <ele>267</ele>
        <time>2023-05-27T08:07:49Z</time>
      </trkpt>
      <trkpt lat="45.92734" lon="5.38631">
        <ele>267</ele>
        <time>2023-05-27T08:07:50Z</time>
      </trkpt>
      <trkpt lat="45.92728" lon="5.38634">
        <ele>267</ele>
        <time>2023-05-27T08:07:51Z</time>
      </trkpt>
      <trkpt lat="45.9272" lon="5.38637">
        <ele>267</ele>
        <time>2023-05-27T08:07:52Z</time>
      </trkpt>
      <trkpt lat="45.92713" lon="5.3864">
        <ele>267</ele>
        <time>2023-05-27T08:07:53Z</time>
      </trkpt>
      <trkpt lat="45.92706" lon="5.38645">
        <ele>267</ele>
        <time>2023-05-27T08:07:54Z</time>
      </trkpt>
      <trkpt lat="45.92699" lon="5.3865">
        <ele>267</ele>
        <time>2023-05-27T08:07:55Z</time>
      </trkpt>
      <trkpt lat="45.92692" lon="5.38654">
        <ele>267</ele>
        <time>2023-05-27T08:07:56Z</time>
      </trkpt>
      <trkpt lat="45.92687" lon="5.38658">
        <ele>267</ele>
        <time>2023-05-27T08:07:57Z</time>
      </trkpt>
      <trkpt lat="45.92682" lon="5.38663">
        <ele>267</ele>
        <time>2023-05-27T08:07:58Z</time>
      </trkpt>
      <trkpt lat="45.92677" lon="5.38667">
        <ele>267</ele>
        <time>2023-05-27T08:07:59Z</time>
      </trkpt>
      <trkpt lat="45.92673" lon="5.3867">
        <ele>267</ele>
        <time>2023-05-27T08:08:00Z</time>
      </trkpt>
      <trkpt lat="45.92671" lon="5.38674">
        <ele>267</ele>
        <time>2023-05-27T08:08:01Z</time>
      </trkpt>
      <trkpt lat="45.92668" lon="5.38678">
        <ele>267.2</ele>
        <time>2023-05-27T08:08:02Z</time>
      </trkpt>
      <trkpt lat="45.92667" lon="5.38682">
        <ele>267.2</ele>
        <time>2023-05-27T08:08:03Z</time>
      </trkpt>
      <trkpt lat="45.92667" lon="5.38684">
        <ele>267.2</ele>
        <time>2023-05-27T08:08:04Z</time>
      </trkpt>
      <trkpt lat="45.92666" lon="5.38689">
        <ele>267</ele>
        <time>2023-05-27T08:08:05Z</time>
      </trkpt>
      <trkpt lat="45.92665" lon="5.38695">
        <ele>267</ele>
        <time>2023-05-27T08:08:06Z</time>
      </trkpt>
      <trkpt lat="45.92666" lon="5.38701">
        <ele>267</ele>
        <time>2023-05-27T08:08:07Z</time>
      </trkpt>
      <trkpt lat="45.92667" lon="5.38707">
        <ele>267</ele>
        <time>2023-05-27T08:08:08Z</time>
      </trkpt>
      <trkpt lat="45.92667" lon="5.38712">
        <ele>267</ele>
        <time>2023-05-27T08:08:09Z</time>
      </trkpt>
      <trkpt lat="45.92668" lon="5.38717">
        <ele>266.8</ele>
        <time>2023-05-27T08:08:10Z</time>
      </trkpt>
      <trkpt lat="45.92668" lon="5.38722">
        <ele>266.8</ele>
        <time>2023-05-27T08:08:11Z</time>
      </trkpt>
      <trkpt lat="45.92669" lon="5.3873">
        <ele>266.6</ele>
        <time>2023-05-27T08:08:12Z</time>
      </trkpt>
      <trkpt lat="45.92669" lon="5.38735">
        <ele>266.6</ele>
        <time>2023-05-27T08:08:13Z</time>
      </trkpt>
      <trkpt lat="45.9267" lon="5.3874">
        <ele>266.6</ele>
        <time>2023-05-27T08:08:14Z</time>
      </trkpt>
      <trkpt lat="45.92671" lon="5.38744">
        <ele>266.6</ele>
        <time>2023-05-27T08:08:15Z</time>
      </trkpt>
      <trkpt lat="45.92671" lon="5.38748">
        <ele>266.4</ele>
        <time>2023-05-27T08:08:16Z</time>
      </trkpt>
      <trkpt lat="45.92671" lon="5.38749">
        <ele>266.4</ele>
        <time>2023-05-27T08:08:17Z</time>
      </trkpt>
      <trkpt lat="45.92671" lon="5.3875">
        <ele>266.4</ele>
        <time>2023-05-27T08:08:18Z</time>
      </trkpt>
      <trkpt lat="45.92671" lon="5.3875">
        <ele>266.4</ele>
        <time>2023-05-27T08:08:19Z</time>
      </trkpt>
      <trkpt lat="45.92671" lon="5.3875">
        <ele>266.4</ele>
        <time>2023-05-27T08:08:20Z</time>
      </trkpt>
      <trkpt lat="45.9267" lon="5.38751">
        <ele>266.2</ele>
        <time>2023-05-27T08:08:21Z</time>
      </trkpt>
      <trkpt lat="45.9267" lon="5.38751">
        <ele>266.2</ele>
        <time>2023-05-27T08:08:22Z</time>
      </trkpt>
      <trkpt lat="45.9267" lon="5.38751">
        <ele>266.2</ele>
        <time>2023-05-27T08:08:23Z</time>
      </trkpt>
      <trkpt lat="45.92669" lon="5.38751">
        <ele>266</ele>
        <time>2023-05-27T08:08:24Z</time>
      </trkpt>
      <trkpt lat="45.92667" lon="5.38752">
        <ele>265.6</ele>
        <time>2023-05-27T08:08:25Z</time>
      </trkpt>
      <trkpt lat="45.92665" lon="5.38753">
        <ele>265.4</ele>
        <time>2023-05-27T08:08:26Z</time>
      </trkpt>
      <trkpt lat="45.92663" lon="5.38754">
        <ele>265.2</ele>
        <time>2023-05-27T08:08:27Z</time>
      </trkpt>
      <trkpt lat="45.92661" lon="5.38756">
        <ele>264.8</ele>
        <time>2023-05-27T08:08:28Z</time>
      </trkpt>
      <trkpt lat="45.92659" lon="5.38758">
        <ele>264.6</ele>
        <time>2023-05-27T08:08:29Z</time>
      </trkpt>
      <trkpt lat="45.92657" lon="5.3876">
        <ele>264.4</ele>
        <time>2023-05-27T08:08:30Z</time>
      </trkpt>
      <trkpt lat="45.92654" lon="5.38763">
        <ele>263.8</ele>
        <time>2023-05-27T08:08:31Z</time>
      </trkpt>
      <trkpt lat="45.92652" lon="5.38765">
        <ele>263.6</ele>
        <time>2023-05-27T08:08:32Z</time>
      </trkpt>
      <trkpt lat="45.9265" lon="5.38766">
        <ele>263.2</ele>
        <time>2023-05-27T08:08:33Z</time>
      </trkpt>
      <trkpt lat="45.92649" lon="5.38768">
        <ele>263</ele>
        <time>2023-05-27T08:08:34Z</time>
      </trkpt>
      <trkpt lat="45.92648" lon="5.3877">
        <ele>262.8</ele>
        <time>2023-05-27T08:08:35Z</time>
      </trkpt>
      <trkpt lat="45.92646" lon="5.38772">
        <ele>262.6</ele>
        <time>2023-05-27T08:08:36Z</time>
      </trkpt>
      <trkpt lat="45.92644" lon="5.38774">
        <ele>262.2</ele>
        <time>2023-05-27T08:08:37Z</time>
      </trkpt>
      <trkpt lat="45.92642" lon="5.38777">
        <ele>261.6</ele>
        <time>2023-05-27T08:08:38Z</time>
      </trkpt>
      <trkpt lat="45.9264" lon="5.3878">
        <ele>261.6</ele>
        <time>2023-05-27T08:08:39Z</time>
      </trkpt>
      <trkpt lat="45.92638" lon="5.38782">
        <ele>261.2</ele>
        <time>2023-05-27T08:08:40Z</time>
      </trkpt>
      <trkpt lat="45.92636" lon="5.38784">
        <ele>261</ele>
        <time>2023-05-27T08:08:41Z</time>
      </trkpt>
      <trkpt lat="45.92635" lon="5.38786">
        <ele>260.6</ele>
        <time>2023-05-27T08:08:42Z</time>
      </trkpt>
      <trkpt lat="45.92633" lon="5.38789">
        <ele>260.2</ele>
        <time>2023-05-27T08:08:43Z</time>
      </trkpt>
      <trkpt lat="45.92633" lon="5.38793">
        <ele>259.8</ele>
        <time>2023-05-27T08:08:44Z</time>
      </trkpt>
      <trkpt lat="45.92632" lon="5.38794">
        <ele>259.4</ele>
        <time>2023-05-27T08:08:45Z</time>
      </trkpt>
      <trkpt lat="45.92632" lon="5.38797">
        <ele>259.4</ele>
        <time>2023-05-27T08:08:46Z</time>
      </trkpt>
      <trkpt lat="45.92632" lon="5.38799">
        <ele>259</ele>
        <time>2023-05-27T08:08:47Z</time>
      </trkpt>
      <trkpt lat="45.92632" lon="5.388">
        <ele>259</ele>
        <time>2023-05-27T08:08:48Z</time>
      </trkpt>
      <trkpt lat="45.92632" lon="5.388">
        <ele>258.8</ele>
        <time>2023-05-27T08:08:49Z</time>
      </trkpt>
      <trkpt lat="45.92637" lon="5.38822">
        <ele>258.4</ele>
        <time>2023-05-27T08:08:54Z</time>
      </trkpt>
      <trkpt lat="45.92638" lon="5.38827">
        <ele>258.2</ele>
        <time>2023-05-27T08:08:55Z</time>
      </trkpt>
      <trkpt lat="45.92639" lon="5.38831">
        <ele>258.2</ele>
        <time>2023-05-27T08:08:56Z</time>
      </trkpt>
      <trkpt lat="45.9264" lon="5.38835">
        <ele>258</ele>
        <time>2023-05-27T08:08:57Z</time>
      </trkpt>
      <trkpt lat="45.92642" lon="5.38838">
        <ele>257.8</ele>
        <time>2023-05-27T08:08:58Z</time>
      </trkpt>
      <trkpt lat="45.92643" lon="5.38841">
        <ele>257.8</ele>
        <time>2023-05-27T08:08:59Z</time>
      </trkpt>
      <trkpt lat="45.92644" lon="5.38844">
        <ele>257.8</ele>
        <time>2023-05-27T08:09:00Z</time>
      </trkpt>
      <trkpt lat="45.92645" lon="5.38846">
        <ele>257.8</ele>
        <time>2023-05-27T08:09:01Z</time>
      </trkpt>
      <trkpt lat="45.92646" lon="5.38848">
        <ele>258</ele>
        <time>2023-05-27T08:09:02Z</time>
      </trkpt>
      <trkpt lat="45.92646" lon="5.3885">
        <ele>258</ele>
        <time>2023-05-27T08:09:03Z</time>
      </trkpt>
      <trkpt lat="45.92647" lon="5.38851">
        <ele>258</ele>
        <time>2023-05-27T08:09:04Z</time>
      </trkpt>
      <trkpt lat="45.92647" lon="5.38852">
        <ele>258</ele>
        <time>2023-05-27T08:09:05Z</time>
      </trkpt>
      <trkpt lat="45.92647" lon="5.38852">
        <ele>258.2</ele>
        <time>2023-05-27T08:09:06Z</time>
      </trkpt>
      <trkpt lat="45.92647" lon="5.38852">
        <ele>258.4</ele>
        <time>2023-05-27T08:09:07Z</time>
      </trkpt>
      <trkpt lat="45.92647" lon="5.38852">
        <ele>258.6</ele>
        <time>2023-05-27T08:09:08Z</time>
      </trkpt>
      <trkpt lat="45.92647" lon="5.38852">
        <ele>258.6</ele>
        <time>2023-05-27T08:09:09Z</time>
      </trkpt>
      <trkpt lat="45.92647" lon="5.38852">
        <ele>258.8</ele>
        <time>2023-05-27T08:09:10Z</time>
      </trkpt>
      <trkpt lat="45.92647" lon="5.38852">
        <ele>258.8</ele>
        <time>2023-05-27T08:09:11Z</time>
      </trkpt>
      <trkpt lat="45.92647" lon="5.38852">
        <ele>259</ele>
        <time>2023-05-27T08:09:12Z</time>
      </trkpt>
      <trkpt lat="45.92647" lon="5.38852">
        <ele>259.2</ele>
        <time>2023-05-27T08:09:13Z</time>
      </trkpt>
      <trkpt lat="45.92647" lon="5.38852">
        <ele>259.2</ele>
        <time>2023-05-27T08:09:14Z</time>
      </trkpt>
      <trkpt lat="45.92647" lon="5.38852">
        <ele>259.4</ele>
        <time>2023-05-27T08:09:15Z</time>
      </trkpt>
      <trkpt lat="45.92647" lon="5.38852">
        <ele>259.4</ele>
        <time>2023-05-27T08:09:16Z</time>
      </trkpt>
      <trkpt lat="45.92647" lon="5.38852">
        <ele>259.4</ele>
        <time>2023-05-27T08:09:17Z</time>
      </trkpt>
      <trkpt lat="45.92647" lon="5.38852">
        <ele>259.4</ele>
        <time>2023-05-27T08:09:18Z</time>
      </trkpt>
      <trkpt lat="45.92647" lon="5.38852">
        <ele>259.6</ele>
        <time>2023-05-27T08:09:19Z</time>
      </trkpt>
      <trkpt lat="45.92647" lon="5.38852">
        <ele>259.6</ele>
        <time>2023-05-27T08:09:20Z</time>
      </trkpt>
      <trkpt lat="45.92647" lon="5.38852">
        <ele>259.6</ele>
        <time>2023-05-27T08:09:21Z</time>
      </trkpt>
      <trkpt lat="45.92648" lon="5.38854">
        <ele>259.6</ele>
        <time>2023-05-27T08:09:22Z</time>
      </trkpt>
      <trkpt lat="45.92649" lon="5.38855">
        <ele>259.6</ele>
        <time>2023-05-27T08:09:23Z</time>
      </trkpt>
      <trkpt lat="45.9265" lon="5.38855">
        <ele>259.6</ele>
        <time>2023-05-27T08:09:24Z</time>
      </trkpt>
      <trkpt lat="45.92652" lon="5.38856">
        <ele>259.6</ele>
        <time>2023-05-27T08:09:25Z</time>
      </trkpt>
      <trkpt lat="45.92654" lon="5.38856">
        <ele>259.6</ele>
        <time>2023-05-27T08:09:26Z</time>
      </trkpt>
      <trkpt lat="45.92657" lon="5.38858">
        <ele>259.6</ele>
        <time>2023-05-27T08:09:27Z</time>
      </trkpt>
      <trkpt lat="45.9266" lon="5.38858">
        <ele>259.6</ele>
        <time>2023-05-27T08:09:28Z</time>
      </trkpt>
      <trkpt lat="45.92663" lon="5.38858">
        <ele>259.6</ele>
        <time>2023-05-27T08:09:29Z</time>
      </trkpt>
      <trkpt lat="45.92667" lon="5.38859">
        <ele>259.6</ele>
        <time>2023-05-27T08:09:30Z</time>
      </trkpt>
      <trkpt lat="45.92675" lon="5.38864">
        <ele>259.6</ele>
        <time>2023-05-27T08:09:32Z</time>
      </trkpt>
      <trkpt lat="45.92678" lon="5.38868">
        <ele>259.6</ele>
        <time>2023-05-27T08:09:33Z</time>
      </trkpt>
      <trkpt lat="45.92681" lon="5.38873">
        <ele>259.6</ele>
        <time>2023-05-27T08:09:34Z</time>
      </trkpt>
      <trkpt lat="45.92683" lon="5.38878">
        <ele>259.6</ele>
        <time>2023-05-27T08:09:35Z</time>
      </trkpt>
      <trkpt lat="45.92684" lon="5.38885">
        <ele>259.6</ele>
        <time>2023-05-27T08:09:36Z</time>
      </trkpt>
      <trkpt lat="45.92685" lon="5.38898">
        <ele>259.6</ele>
        <time>2023-05-27T08:09:38Z</time>
      </trkpt>
      <trkpt lat="45.92685" lon="5.38903">
        <ele>259.6</ele>
        <time>2023-05-27T08:09:39Z</time>
      </trkpt>
      <trkpt lat="45.92685" lon="5.38911">
        <ele>259.6</ele>
        <time>2023-05-27T08:09:40Z</time>
      </trkpt>
      <trkpt lat="45.92685" lon="5.38917">
        <ele>259.6</ele>
        <time>2023-05-27T08:09:41Z</time>
      </trkpt>
      <trkpt lat="45.92684" lon="5.38924">
        <ele>259.6</ele>
        <time>2023-05-27T08:09:42Z</time>
      </trkpt>
      <trkpt lat="45.92684" lon="5.38932">
        <ele>259.8</ele>
        <time>2023-05-27T08:09:43Z</time>
      </trkpt>
      <trkpt lat="45.92683" lon="5.38939">
        <ele>259.8</ele>
        <time>2023-05-27T08:09:44Z</time>
      </trkpt>
      <trkpt lat="45.92681" lon="5.38945">
        <ele>260</ele>
        <time>2023-05-27T08:09:45Z</time>
      </trkpt>
      <trkpt lat="45.92679" lon="5.38955">
        <ele>260</ele>
        <time>2023-05-27T08:09:46Z</time>
      </trkpt>
      <trkpt lat="45.92678" lon="5.38963">
        <ele>260</ele>
        <time>2023-05-27T08:09:47Z</time>
      </trkpt>
      <trkpt lat="45.92676" lon="5.38972">
        <ele>260</ele>
        <time>2023-05-27T08:09:48Z</time>
      </trkpt>
      <trkpt lat="45.92674" lon="5.38981">
        <ele>260.2</ele>
        <time>2023-05-27T08:09:49Z</time>
      </trkpt>
      <trkpt lat="45.92672" lon="5.3899">
        <ele>260.4</ele>
        <time>2023-05-27T08:09:50Z</time>
      </trkpt>
      <trkpt lat="45.9267" lon="5.38999">
        <ele>260.4</ele>
        <time>2023-05-27T08:09:51Z</time>
      </trkpt>
      <trkpt lat="45.92667" lon="5.39009">
        <ele>260.6</ele>
        <time>2023-05-27T08:09:52Z</time>
      </trkpt>
      <trkpt lat="45.92665" lon="5.39018">
        <ele>261</ele>
        <time>2023-05-27T08:09:53Z</time>
      </trkpt>
      <trkpt lat="45.92663" lon="5.39027">
        <ele>261.4</ele>
        <time>2023-05-27T08:09:54Z</time>
      </trkpt>
      <trkpt lat="45.9266" lon="5.39037">
        <ele>261.6</ele>
        <time>2023-05-27T08:09:55Z</time>
      </trkpt>
      <trkpt lat="45.92658" lon="5.39047">
        <ele>261.8</ele>
        <time>2023-05-27T08:09:56Z</time>
      </trkpt>
      <trkpt lat="45.92655" lon="5.39056">
        <ele>262</ele>
        <time>2023-05-27T08:09:57Z</time>
      </trkpt>
      <trkpt lat="45.92653" lon="5.39065">
        <ele>262</ele>
        <time>2023-05-27T08:09:58Z</time>
      </trkpt>
      <trkpt lat="45.9265" lon="5.39075">
        <ele>262</ele>
        <time>2023-05-27T08:09:59Z</time>
      </trkpt>
      <trkpt lat="45.92648" lon="5.39085">
        <ele>262</ele>
        <time>2023-05-27T08:10:00Z</time>
      </trkpt>
      <trkpt lat="45.92645" lon="5.39095">
        <ele>262.2</ele>
        <time>2023-05-27T08:10:01Z</time>
      </trkpt>
      <trkpt lat="45.92642" lon="5.39104">
        <ele>262.2</ele>
        <time>2023-05-27T08:10:02Z</time>
      </trkpt>
      <trkpt lat="45.9264" lon="5.39114">
        <ele>262.4</ele>
        <time>2023-05-27T08:10:03Z</time>
      </trkpt>
      <trkpt lat="45.92638" lon="5.39122">
        <ele>262.4</ele>
        <time>2023-05-27T08:10:04Z</time>
      </trkpt>
      <trkpt lat="45.92635" lon="5.39132">
        <ele>262.4</ele>
        <time>2023-05-27T08:10:05Z</time>
      </trkpt>
      <trkpt lat="45.92632" lon="5.39144">
        <ele>262.4</ele>
        <time>2023-05-27T08:10:06Z</time>
      </trkpt>
      <trkpt lat="45.9263" lon="5.39154">
        <ele>262.4</ele>
        <time>2023-05-27T08:10:07Z</time>
      </trkpt>
      <trkpt lat="45.92627" lon="5.39164">
        <ele>262.4</ele>
        <time>2023-05-27T08:10:08Z</time>
      </trkpt>
      <trkpt lat="45.92625" lon="5.39174">
        <ele>262.6</ele>
        <time>2023-05-27T08:10:09Z</time>
      </trkpt>
      <trkpt lat="45.92622" lon="5.39183">
        <ele>262.8</ele>
        <time>2023-05-27T08:10:10Z</time>
      </trkpt>
      <trkpt lat="45.92619" lon="5.39193">
        <ele>263</ele>
        <time>2023-05-27T08:10:11Z</time>
      </trkpt>
      <trkpt lat="45.92617" lon="5.39203">
        <ele>263</ele>
        <time>2023-05-27T08:10:12Z</time>
      </trkpt>
      <trkpt lat="45.92614" lon="5.39213">
        <ele>263.2</ele>
        <time>2023-05-27T08:10:13Z</time>
      </trkpt>
      <trkpt lat="45.92612" lon="5.39222">
        <ele>263.2</ele>
        <time>2023-05-27T08:10:14Z</time>
      </trkpt>
      <trkpt lat="45.9261" lon="5.39232">
        <ele>263.6</ele>
        <time>2023-05-27T08:10:15Z</time>
      </trkpt>
      <trkpt lat="45.92608" lon="5.39241">
        <ele>263.6</ele>
        <time>2023-05-27T08:10:16Z</time>
      </trkpt>
      <trkpt lat="45.92605" lon="5.3925">
        <ele>263.8</ele>
        <time>2023-05-27T08:10:17Z</time>
      </trkpt>
      <trkpt lat="45.92603" lon="5.3926">
        <ele>264</ele>
        <time>2023-05-27T08:10:18Z</time>
      </trkpt>
      <trkpt lat="45.926" lon="5.39269">
        <ele>264</ele>
        <time>2023-05-27T08:10:19Z</time>
      </trkpt>
      <trkpt lat="45.92595" lon="5.39286">
        <ele>264.2</ele>
        <time>2023-05-27T08:10:21Z</time>
      </trkpt>
      <trkpt lat="45.92593" lon="5.39295">
        <ele>264.4</ele>
        <time>2023-05-27T08:10:22Z</time>
      </trkpt>
      <trkpt lat="45.9259" lon="5.39304">
        <ele>264.4</ele>
        <time>2023-05-27T08:10:23Z</time>
      </trkpt>
      <trkpt lat="45.92588" lon="5.39312">
        <ele>264.6</ele>
        <time>2023-05-27T08:10:24Z</time>
      </trkpt>
      <trkpt lat="45.92585" lon="5.39319">
        <ele>264.6</ele>
        <time>2023-05-27T08:10:25Z</time>
      </trkpt>
      <trkpt lat="45.92582" lon="5.39329">
        <ele>264.6</ele>
        <time>2023-05-27T08:10:26Z</time>
      </trkpt>
      <trkpt lat="45.92579" lon="5.39337">
        <ele>264.6</ele>
        <time>2023-05-27T08:10:27Z</time>
      </trkpt>
      <trkpt lat="45.92575" lon="5.39345">
        <ele>264.8</ele>
        <time>2023-05-27T08:10:28Z</time>
      </trkpt>
      <trkpt lat="45.92571" lon="5.39353">
        <ele>264.8</ele>
        <time>2023-05-27T08:10:29Z</time>
      </trkpt>
      <trkpt lat="45.92568" lon="5.39361">
        <ele>265</ele>
        <time>2023-05-27T08:10:30Z</time>
      </trkpt>
      <trkpt lat="45.92564" lon="5.39369">
        <ele>265</ele>
        <time>2023-05-27T08:10:31Z</time>
      </trkpt>
      <trkpt lat="45.9256" lon="5.39376">
        <ele>265.2</ele>
        <time>2023-05-27T08:10:32Z</time>
      </trkpt>
      <trkpt lat="45.92556" lon="5.39383">
        <ele>265.4</ele>
        <time>2023-05-27T08:10:33Z</time>
      </trkpt>
      <trkpt lat="45.92552" lon="5.39389">
        <ele>265.6</ele>
        <time>2023-05-27T08:10:34Z</time>
      </trkpt>
      <trkpt lat="45.92547" lon="5.39395">
        <ele>265.6</ele>
        <time>2023-05-27T08:10:35Z</time>
      </trkpt>
      <trkpt lat="45.92543" lon="5.39402">
        <ele>265.6</ele>
        <time>2023-05-27T08:10:36Z</time>
      </trkpt>
      <trkpt lat="45.92538" lon="5.39408">
        <ele>265.8</ele>
        <time>2023-05-27T08:10:37Z</time>
      </trkpt>
      <trkpt lat="45.92534" lon="5.39413">
        <ele>266</ele>
        <time>2023-05-27T08:10:38Z</time>
      </trkpt>
      <trkpt lat="45.92529" lon="5.39419">
        <ele>266</ele>
        <time>2023-05-27T08:10:39Z</time>
      </trkpt>
      <trkpt lat="45.92526" lon="5.39423">
        <ele>266.2</ele>
        <time>2023-05-27T08:10:40Z</time>
      </trkpt>
      <trkpt lat="45.9252" lon="5.39429">
        <ele>266.2</ele>
        <time>2023-05-27T08:10:41Z</time>
      </trkpt>
      <trkpt lat="45.92516" lon="5.39433">
        <ele>266.4</ele>
        <time>2023-05-27T08:10:42Z</time>
      </trkpt>
      <trkpt lat="45.92511" lon="5.39438">
        <ele>266.4</ele>
        <time>2023-05-27T08:10:43Z</time>
      </trkpt>
      <trkpt lat="45.92506" lon="5.39442">
        <ele>266.6</ele>
        <time>2023-05-27T08:10:44Z</time>
      </trkpt>
      <trkpt lat="45.92501" lon="5.39446">
        <ele>266.8</ele>
        <time>2023-05-27T08:10:45Z</time>
      </trkpt>
      <trkpt lat="45.92496" lon="5.3945">
        <ele>266.8</ele>
        <time>2023-05-27T08:10:46Z</time>
      </trkpt>
      <trkpt lat="45.92491" lon="5.39454">
        <ele>267</ele>
        <time>2023-05-27T08:10:47Z</time>
      </trkpt>
      <trkpt lat="45.92487" lon="5.39459">
        <ele>267.4</ele>
        <time>2023-05-27T08:10:48Z</time>
      </trkpt>
      <trkpt lat="45.92482" lon="5.39463">
        <ele>267.6</ele>
        <time>2023-05-27T08:10:49Z</time>
      </trkpt>
      <trkpt lat="45.92478" lon="5.39467">
        <ele>267.8</ele>
        <time>2023-05-27T08:10:50Z</time>
      </trkpt>
      <trkpt lat="45.92472" lon="5.39471">
        <ele>267.8</ele>
        <time>2023-05-27T08:10:51Z</time>
      </trkpt>
      <trkpt lat="45.92462" lon="5.39482">
        <ele>268.2</ele>
        <time>2023-05-27T08:10:53Z</time>
      </trkpt>
      <trkpt lat="45.92456" lon="5.39487">
        <ele>268.4</ele>
        <time>2023-05-27T08:10:54Z</time>
      </trkpt>
      <trkpt lat="45.92451" lon="5.39492">
        <ele>268.6</ele>
        <time>2023-05-27T08:10:55Z</time>
      </trkpt>
      <trkpt lat="45.92445" lon="5.39497">
        <ele>268.6</ele>
        <time>2023-05-27T08:10:56Z</time>
      </trkpt>
      <trkpt lat="45.9244" lon="5.39502">
        <ele>268.8</ele>
        <time>2023-05-27T08:10:57Z</time>
      </trkpt>
      <trkpt lat="45.92434" lon="5.39507">
        <ele>269</ele>
        <time>2023-05-27T08:10:58Z</time>
      </trkpt>
      <trkpt lat="45.92429" lon="5.39512">
        <ele>269.2</ele>
        <time>2023-05-27T08:10:59Z</time>
      </trkpt>
      <trkpt lat="45.92423" lon="5.39517">
        <ele>269.2</ele>
        <time>2023-05-27T08:11:00Z</time>
      </trkpt>
      <trkpt lat="45.92417" lon="5.39522">
        <ele>269.4</ele>
        <time>2023-05-27T08:11:01Z</time>
      </trkpt>
      <trkpt lat="45.92412" lon="5.39527">
        <ele>269.6</ele>
        <time>2023-05-27T08:11:02Z</time>
      </trkpt>
      <trkpt lat="45.92406" lon="5.39531">
        <ele>269.8</ele>
        <time>2023-05-27T08:11:03Z</time>
      </trkpt>
      <trkpt lat="45.924" lon="5.39535">
        <ele>269.8</ele>
        <time>2023-05-27T08:11:04Z</time>
      </trkpt>
      <trkpt lat="45.92394" lon="5.39538">
        <ele>270</ele>
        <time>2023-05-27T08:11:05Z</time>
      </trkpt>
      <trkpt lat="45.92388" lon="5.39542">
        <ele>270</ele>
        <time>2023-05-27T08:11:06Z</time>
      </trkpt>
      <trkpt lat="45.92383" lon="5.39545">
        <ele>270.2</ele>
        <time>2023-05-27T08:11:07Z</time>
      </trkpt>
      <trkpt lat="45.92377" lon="5.39548">
        <ele>270.2</ele>
        <time>2023-05-27T08:11:08Z</time>
      </trkpt>
      <trkpt lat="45.92371" lon="5.39551">
        <ele>270.2</ele>
        <time>2023-05-27T08:11:09Z</time>
      </trkpt>
      <trkpt lat="45.92365" lon="5.39554">
        <ele>270.4</ele>
        <time>2023-05-27T08:11:10Z</time>
      </trkpt>
      <trkpt lat="45.9236" lon="5.39557">
        <ele>270.4</ele>
        <time>2023-05-27T08:11:11Z</time>
      </trkpt>
      <trkpt lat="45.92348" lon="5.39563">
        <ele>270.4</ele>
        <time>2023-05-27T08:11:12Z</time>
      </trkpt>
      <trkpt lat="45.92348" lon="5.39563">
        <ele>270.8</ele>
        <time>2023-05-27T08:11:13Z</time>
      </trkpt>
      <trkpt lat="45.92342" lon="5.39567">
        <ele>271</ele>
        <time>2023-05-27T08:11:14Z</time>
      </trkpt>
      <trkpt lat="45.92336" lon="5.39571">
        <ele>271.2</ele>
        <time>2023-05-27T08:11:15Z</time>
      </trkpt>
      <trkpt lat="45.92331" lon="5.39575">
        <ele>271.6</ele>
        <time>2023-05-27T08:11:16Z</time>
      </trkpt>
      <trkpt lat="45.92319" lon="5.39583">
        <ele>271.8</ele>
        <time>2023-05-27T08:11:17Z</time>
      </trkpt>
      <trkpt lat="45.92314" lon="5.39587">
        <ele>271.8</ele>
        <time>2023-05-27T08:11:18Z</time>
      </trkpt>
      <trkpt lat="45.92314" lon="5.39587">
        <ele>272</ele>
        <time>2023-05-27T08:11:19Z</time>
      </trkpt>
      <trkpt lat="45.92309" lon="5.3959">
        <ele>272</ele>
        <time>2023-05-27T08:11:20Z</time>
      </trkpt>
      <trkpt lat="45.92303" lon="5.39594">
        <ele>272.2</ele>
        <time>2023-05-27T08:11:21Z</time>
      </trkpt>
      <trkpt lat="45.92298" lon="5.39597">
        <ele>272.4</ele>
        <time>2023-05-27T08:11:22Z</time>
      </trkpt>
      <trkpt lat="45.92292" lon="5.396">
        <ele>272.8</ele>
        <time>2023-05-27T08:11:23Z</time>
      </trkpt>
      <trkpt lat="45.92287" lon="5.39603">
        <ele>273</ele>
        <time>2023-05-27T08:11:24Z</time>
      </trkpt>
      <trkpt lat="45.92281" lon="5.39607">
        <ele>273.2</ele>
        <time>2023-05-27T08:11:25Z</time>
      </trkpt>
      <trkpt lat="45.92276" lon="5.39611">
        <ele>273.2</ele>
        <time>2023-05-27T08:11:26Z</time>
      </trkpt>
      <trkpt lat="45.92271" lon="5.39615">
        <ele>273.4</ele>
        <time>2023-05-27T08:11:27Z</time>
      </trkpt>
      <trkpt lat="45.92266" lon="5.3962">
        <ele>273.6</ele>
        <time>2023-05-27T08:11:28Z</time>
      </trkpt>
      <trkpt lat="45.92261" lon="5.39625">
        <ele>273.8</ele>
        <time>2023-05-27T08:11:29Z</time>
      </trkpt>
      <trkpt lat="45.92257" lon="5.39631">
        <ele>274</ele>
        <time>2023-05-27T08:11:30Z</time>
      </trkpt>
      <trkpt lat="45.92252" lon="5.39635">
        <ele>274</ele>
        <time>2023-05-27T08:11:31Z</time>
      </trkpt>
      <trkpt lat="45.92246" lon="5.39638">
        <ele>274.2</ele>
        <time>2023-05-27T08:11:32Z</time>
      </trkpt>
      <trkpt lat="45.9224" lon="5.39641">
        <ele>274.2</ele>
        <time>2023-05-27T08:11:33Z</time>
      </trkpt>
      <trkpt lat="45.92234" lon="5.39643">
        <ele>274.4</ele>
        <time>2023-05-27T08:11:34Z</time>
      </trkpt>
      <trkpt lat="45.92228" lon="5.39646">
        <ele>274.4</ele>
        <time>2023-05-27T08:11:35Z</time>
      </trkpt>
      <trkpt lat="45.92223" lon="5.39648">
        <ele>274.4</ele>
        <time>2023-05-27T08:11:36Z</time>
      </trkpt>
      <trkpt lat="45.92217" lon="5.39651">
        <ele>274.6</ele>
        <time>2023-05-27T08:11:37Z</time>
      </trkpt>
      <trkpt lat="45.92212" lon="5.39654">
        <ele>274.8</ele>
        <time>2023-05-27T08:11:38Z</time>
      </trkpt>
      <trkpt lat="45.92206" lon="5.39656">
        <ele>274.8</ele>
        <time>2023-05-27T08:11:39Z</time>
      </trkpt>
      <trkpt lat="45.922" lon="5.39658">
        <ele>275</ele>
        <time>2023-05-27T08:11:40Z</time>
      </trkpt>
      <trkpt lat="45.92194" lon="5.39659">
        <ele>275</ele>
        <time>2023-05-27T08:11:41Z</time>
      </trkpt>
      <trkpt lat="45.92188" lon="5.39661">
        <ele>275.2</ele>
        <time>2023-05-27T08:11:42Z</time>
      </trkpt>
      <trkpt lat="45.92182" lon="5.39663">
        <ele>275.2</ele>
        <time>2023-05-27T08:11:43Z</time>
      </trkpt>
      <trkpt lat="45.92176" lon="5.39665">
        <ele>275.4</ele>
        <time>2023-05-27T08:11:44Z</time>
      </trkpt>
      <trkpt lat="45.92164" lon="5.3967">
        <ele>275.4</ele>
        <time>2023-05-27T08:11:45Z</time>
      </trkpt>
      <trkpt lat="45.92159" lon="5.39671">
        <ele>275.4</ele>
        <time>2023-05-27T08:11:46Z</time>
      </trkpt>
      <trkpt lat="45.92153" lon="5.39671">
        <ele>275.4</ele>
        <time>2023-05-27T08:11:47Z</time>
      </trkpt>
      <trkpt lat="45.92153" lon="5.39671">
        <ele>275.4</ele>
        <time>2023-05-27T08:11:48Z</time>
      </trkpt>
      <trkpt lat="45.92147" lon="5.39672">
        <ele>275.4</ele>
        <time>2023-05-27T08:11:49Z</time>
      </trkpt>
      <trkpt lat="45.92135" lon="5.39676">
        <ele>275.4</ele>
        <time>2023-05-27T08:11:50Z</time>
      </trkpt>
      <trkpt lat="45.92129" lon="5.39678">
        <ele>275.4</ele>
        <time>2023-05-27T08:11:51Z</time>
      </trkpt>
      <trkpt lat="45.92122" lon="5.3968">
        <ele>275.6</ele>
        <time>2023-05-27T08:11:52Z</time>
      </trkpt>
      <trkpt lat="45.92116" lon="5.39682">
        <ele>275.8</ele>
        <time>2023-05-27T08:11:53Z</time>
      </trkpt>
      <trkpt lat="45.92116" lon="5.39682">
        <ele>275.6</ele>
        <time>2023-05-27T08:11:54Z</time>
      </trkpt>
      <trkpt lat="45.92104" lon="5.39687">
        <ele>275.8</ele>
        <time>2023-05-27T08:11:55Z</time>
      </trkpt>
      <trkpt lat="45.92099" lon="5.39689">
        <ele>276</ele>
        <time>2023-05-27T08:11:56Z</time>
      </trkpt>
      <trkpt lat="45.92094" lon="5.39691">
        <ele>276.2</ele>
        <time>2023-05-27T08:11:57Z</time>
      </trkpt>
      <trkpt lat="45.92089" lon="5.39691">
        <ele>276.4</ele>
        <time>2023-05-27T08:11:58Z</time>
      </trkpt>
      <trkpt lat="45.92083" lon="5.39694">
        <ele>276.4</ele>
        <time>2023-05-27T08:11:59Z</time>
      </trkpt>
      <trkpt lat="45.92078" lon="5.39697">
        <ele>276.6</ele>
        <time>2023-05-27T08:12:00Z</time>
      </trkpt>
      <trkpt lat="45.92078" lon="5.39697">
        <ele>276.6</ele>
        <time>2023-05-27T08:12:01Z</time>
      </trkpt>
      <trkpt lat="45.92073" lon="5.39701">
        <ele>276.6</ele>
        <time>2023-05-27T08:12:02Z</time>
      </trkpt>
      <trkpt lat="45.92065" lon="5.39709">
        <ele>276.8</ele>
        <time>2023-05-27T08:12:03Z</time>
      </trkpt>
      <trkpt lat="45.92065" lon="5.39709">
        <ele>276.8</ele>
        <time>2023-05-27T08:12:04Z</time>
      </trkpt>
      <trkpt lat="45.92061" lon="5.39714">
        <ele>276.8</ele>
        <time>2023-05-27T08:12:05Z</time>
      </trkpt>
      <trkpt lat="45.92053" lon="5.39722">
        <ele>276.8</ele>
        <time>2023-05-27T08:12:06Z</time>
      </trkpt>
      <trkpt lat="45.92053" lon="5.39722">
        <ele>277</ele>
        <time>2023-05-27T08:12:07Z</time>
      </trkpt>
      <trkpt lat="45.9205" lon="5.39726">
        <ele>277</ele>
        <time>2023-05-27T08:12:08Z</time>
      </trkpt>
      <trkpt lat="45.92043" lon="5.39735">
        <ele>277</ele>
        <time>2023-05-27T08:12:09Z</time>
      </trkpt>
      <trkpt lat="45.92039" lon="5.39739">
        <ele>277</ele>
        <time>2023-05-27T08:12:10Z</time>
      </trkpt>
      <trkpt lat="45.92035" lon="5.39744">
        <ele>277</ele>
        <time>2023-05-27T08:12:11Z</time>
      </trkpt>
      <trkpt lat="45.92035" lon="5.39744">
        <ele>277.2</ele>
        <time>2023-05-27T08:12:12Z</time>
      </trkpt>
      <trkpt lat="45.92032" lon="5.39748">
        <ele>277.2</ele>
        <time>2023-05-27T08:12:13Z</time>
      </trkpt>
      <trkpt lat="45.92027" lon="5.39755">
        <ele>277.2</ele>
        <time>2023-05-27T08:12:14Z</time>
      </trkpt>
      <trkpt lat="45.92023" lon="5.3976">
        <ele>277.2</ele>
        <time>2023-05-27T08:12:15Z</time>
      </trkpt>
      <trkpt lat="45.9202" lon="5.39765">
        <ele>277.2</ele>
        <time>2023-05-27T08:12:16Z</time>
      </trkpt>
      <trkpt lat="45.92017" lon="5.39769">
        <ele>277.4</ele>
        <time>2023-05-27T08:12:17Z</time>
      </trkpt>
      <trkpt lat="45.92014" lon="5.39773">
        <ele>277.4</ele>
        <time>2023-05-27T08:12:18Z</time>
      </trkpt>
      <trkpt lat="45.92014" lon="5.39773">
        <ele>277.4</ele>
        <time>2023-05-27T08:12:19Z</time>
      </trkpt>
      <trkpt lat="45.92011" lon="5.39777">
        <ele>277.4</ele>
        <time>2023-05-27T08:12:20Z</time>
      </trkpt>
      <trkpt lat="45.92006" lon="5.39786">
        <ele>277.6</ele>
        <time>2023-05-27T08:12:21Z</time>
      </trkpt>
      <trkpt lat="45.92004" lon="5.39791">
        <ele>277.6</ele>
        <time>2023-05-27T08:12:22Z</time>
      </trkpt>
      <trkpt lat="45.92002" lon="5.39794">
        <ele>277.6</ele>
        <time>2023-05-27T08:12:23Z</time>
      </trkpt>
      <trkpt lat="45.92001" lon="5.39798">
        <ele>277.6</ele>
        <time>2023-05-27T08:12:24Z</time>
      </trkpt>
      <trkpt lat="45.92" lon="5.39801">
        <ele>277.6</ele>
        <time>2023-05-27T08:12:25Z</time>
      </trkpt>
      <trkpt lat="45.91999" lon="5.39804">
        <ele>277.8</ele>
        <time>2023-05-27T08:12:26Z</time>
      </trkpt>
      <trkpt lat="45.91999" lon="5.39805">
        <ele>277.8</ele>
        <time>2023-05-27T08:12:27Z</time>
      </trkpt>
      <trkpt lat="45.92" lon="5.39804">
        <ele>277.8</ele>
        <time>2023-05-27T08:12:28Z</time>
      </trkpt>
      <trkpt lat="45.92002" lon="5.39801">
        <ele>277.8</ele>
        <time>2023-05-27T08:12:29Z</time>
      </trkpt>
      <trkpt lat="45.92003" lon="5.39797">
        <ele>277.8</ele>
        <time>2023-05-27T08:12:30Z</time>
      </trkpt>
      <trkpt lat="45.92006" lon="5.39793">
        <ele>277.8</ele>
        <time>2023-05-27T08:12:31Z</time>
      </trkpt>
      <trkpt lat="45.92008" lon="5.39788">
        <ele>277.8</ele>
        <time>2023-05-27T08:12:32Z</time>
      </trkpt>
      <trkpt lat="45.9201" lon="5.39783">
        <ele>277.8</ele>
        <time>2023-05-27T08:12:34Z</time>
      </trkpt>
      <trkpt lat="45.92017" lon="5.39773">
        <ele>277.8</ele>
        <time>2023-05-27T08:12:35Z</time>
      </trkpt>
      <trkpt lat="45.9202" lon="5.39768">
        <ele>277.8</ele>
        <time>2023-05-27T08:12:36Z</time>
      </trkpt>
      <trkpt lat="45.92024" lon="5.39762">
        <ele>277.8</ele>
        <time>2023-05-27T08:12:37Z</time>
      </trkpt>
      <trkpt lat="45.92028" lon="5.39756">
        <ele>278</ele>
        <time>2023-05-27T08:12:38Z</time>
      </trkpt>
      <trkpt lat="45.92028" lon="5.39756">
        <ele>278</ele>
        <time>2023-05-27T08:12:39Z</time>
      </trkpt>
      <trkpt lat="45.92037" lon="5.39744">
        <ele>278</ele>
        <time>2023-05-27T08:12:40Z</time>
      </trkpt>
      <trkpt lat="45.92042" lon="5.39739">
        <ele>278</ele>
        <time>2023-05-27T08:12:41Z</time>
      </trkpt>
      <trkpt lat="45.92047" lon="5.39734">
        <ele>278.2</ele>
        <time>2023-05-27T08:12:42Z</time>
      </trkpt>
      <trkpt lat="45.92053" lon="5.39729">
        <ele>278.2</ele>
        <time>2023-05-27T08:12:43Z</time>
      </trkpt>
      <trkpt lat="45.92059" lon="5.39725">
        <ele>278.2</ele>
        <time>2023-05-27T08:12:44Z</time>
      </trkpt>
      <trkpt lat="45.92065" lon="5.3972">
        <ele>278.2</ele>
        <time>2023-05-27T08:12:45Z</time>
      </trkpt>
      <trkpt lat="45.9207" lon="5.39715">
        <ele>278.2</ele>
        <time>2023-05-27T08:12:46Z</time>
      </trkpt>
      <trkpt lat="45.92076" lon="5.3971">
        <ele>278.2</ele>
        <time>2023-05-27T08:12:47Z</time>
      </trkpt>
      <trkpt lat="45.92082" lon="5.39706">
        <ele>278.2</ele>
        <time>2023-05-27T08:12:48Z</time>
      </trkpt>
      <trkpt lat="45.92082" lon="5.39706">
        <ele>278.2</ele>
        <time>2023-05-27T08:12:49Z</time>
      </trkpt>
      <trkpt lat="45.92092" lon="5.39698">
        <ele>278</ele>
        <time>2023-05-27T08:12:50Z</time>
      </trkpt>
      <trkpt lat="45.92096" lon="5.39693">
        <ele>278</ele>
        <time>2023-05-27T08:12:51Z</time>
      </trkpt>
      <trkpt lat="45.92099" lon="5.39687">
        <ele>278</ele>
        <time>2023-05-27T08:12:52Z</time>
      </trkpt>
      <trkpt lat="45.92102" lon="5.3968">
        <ele>277.8</ele>
        <time>2023-05-27T08:12:53Z</time>
      </trkpt>
      <trkpt lat="45.92102" lon="5.3968">
        <ele>277.8</ele>
        <time>2023-05-27T08:12:54Z</time>
      </trkpt>
      <trkpt lat="45.92107" lon="5.39663">
        <ele>277.8</ele>
        <time>2023-05-27T08:12:55Z</time>
      </trkpt>
      <trkpt lat="45.9211" lon="5.39654">
        <ele>277.8</ele>
        <time>2023-05-27T08:12:56Z</time>
      </trkpt>
      <trkpt lat="45.92112" lon="5.39646">
        <ele>277.8</ele>
        <time>2023-05-27T08:12:57Z</time>
      </trkpt>
      <trkpt lat="45.92115" lon="5.39637">
        <ele>277.6</ele>
        <time>2023-05-27T08:12:58Z</time>
      </trkpt>
      <trkpt lat="45.92117" lon="5.39629">
        <ele>277.6</ele>
        <time>2023-05-27T08:12:59Z</time>
      </trkpt>
      <trkpt lat="45.92119" lon="5.3962">
        <ele>277.6</ele>
        <time>2023-05-27T08:13:00Z</time>
      </trkpt>
      <trkpt lat="45.9212" lon="5.3961">
        <ele>277.4</ele>
        <time>2023-05-27T08:13:01Z</time>
      </trkpt>
      <trkpt lat="45.92122" lon="5.39602">
        <ele>277.4</ele>
        <time>2023-05-27T08:13:02Z</time>
      </trkpt>
      <trkpt lat="45.92124" lon="5.39594">
        <ele>277.2</ele>
        <time>2023-05-27T08:13:03Z</time>
      </trkpt>
      <trkpt lat="45.92125" lon="5.39586">
        <ele>277</ele>
        <time>2023-05-27T08:13:04Z</time>
      </trkpt>
      <trkpt lat="45.92129" lon="5.3957">
        <ele>276.8</ele>
        <time>2023-05-27T08:13:06Z</time>
      </trkpt>
      <trkpt lat="45.92131" lon="5.39563">
        <ele>276.6</ele>
        <time>2023-05-27T08:13:07Z</time>
      </trkpt>
      <trkpt lat="45.92134" lon="5.39557">
        <ele>276.4</ele>
        <time>2023-05-27T08:13:08Z</time>
      </trkpt>
      <trkpt lat="45.92138" lon="5.39552">
        <ele>276.2</ele>
        <time>2023-05-27T08:13:09Z</time>
      </trkpt>
      <trkpt lat="45.92143" lon="5.39549">
        <ele>275.8</ele>
        <time>2023-05-27T08:13:10Z</time>
      </trkpt>
      <trkpt lat="45.92149" lon="5.39546">
        <ele>275.8</ele>
        <time>2023-05-27T08:13:11Z</time>
      </trkpt>
      <trkpt lat="45.92154" lon="5.39544">
        <ele>275.6</ele>
        <time>2023-05-27T08:13:12Z</time>
      </trkpt>
      <trkpt lat="45.92159" lon="5.39541">
        <ele>275.4</ele>
        <time>2023-05-27T08:13:13Z</time>
      </trkpt>
      <trkpt lat="45.92162" lon="5.39537">
        <ele>275.2</ele>
        <time>2023-05-27T08:13:14Z</time>
      </trkpt>
      <trkpt lat="45.92164" lon="5.39532">
        <ele>275</ele>
        <time>2023-05-27T08:13:15Z</time>
      </trkpt>
      <trkpt lat="45.92164" lon="5.39527">
        <ele>275</ele>
        <time>2023-05-27T08:13:16Z</time>
      </trkpt>
      <trkpt lat="45.92163" lon="5.39522">
        <ele>274.6</ele>
        <time>2023-05-27T08:13:17Z</time>
      </trkpt>
      <trkpt lat="45.92161" lon="5.39517">
        <ele>274.4</ele>
        <time>2023-05-27T08:13:18Z</time>
      </trkpt>
      <trkpt lat="45.92158" lon="5.39512">
        <ele>274.2</ele>
        <time>2023-05-27T08:13:19Z</time>
      </trkpt>
      <trkpt lat="45.92154" lon="5.39507">
        <ele>274</ele>
        <time>2023-05-27T08:13:20Z</time>
      </trkpt>
      <trkpt lat="45.92151" lon="5.39503">
        <ele>274</ele>
        <time>2023-05-27T08:13:21Z</time>
      </trkpt>
      <trkpt lat="45.92147" lon="5.39499">
        <ele>273.6</ele>
        <time>2023-05-27T08:13:22Z</time>
      </trkpt>
      <trkpt lat="45.92143" lon="5.39494">
        <ele>273.4</ele>
        <time>2023-05-27T08:13:23Z</time>
      </trkpt>
      <trkpt lat="45.92138" lon="5.3949">
        <ele>273</ele>
        <time>2023-05-27T08:13:24Z</time>
      </trkpt>
      <trkpt lat="45.92133" lon="5.39485">
        <ele>272.8</ele>
        <time>2023-05-27T08:13:25Z</time>
      </trkpt>
      <trkpt lat="45.92128" lon="5.39483">
        <ele>272.4</ele>
        <time>2023-05-27T08:13:26Z</time>
      </trkpt>
      <trkpt lat="45.92128" lon="5.39483">
        <ele>272.2</ele>
        <time>2023-05-27T08:13:27Z</time>
      </trkpt>
      <trkpt lat="45.92117" lon="5.3948">
        <ele>271.6</ele>
        <time>2023-05-27T08:13:28Z</time>
      </trkpt>
      <trkpt lat="45.9211" lon="5.39479">
        <ele>271</ele>
        <time>2023-05-27T08:13:29Z</time>
      </trkpt>
      <trkpt lat="45.92104" lon="5.39478">
        <ele>270.8</ele>
        <time>2023-05-27T08:13:30Z</time>
      </trkpt>
      <trkpt lat="45.92099" lon="5.39477">
        <ele>270.4</ele>
        <time>2023-05-27T08:13:31Z</time>
      </trkpt>
      <trkpt lat="45.92095" lon="5.39474">
        <ele>270.2</ele>
        <time>2023-05-27T08:13:32Z</time>
      </trkpt>
      <trkpt lat="45.92092" lon="5.3947">
        <ele>270</ele>
        <time>2023-05-27T08:13:33Z</time>
      </trkpt>
      <trkpt lat="45.92088" lon="5.39463">
        <ele>270</ele>
        <time>2023-05-27T08:13:34Z</time>
      </trkpt>
      <trkpt lat="45.92085" lon="5.39457">
        <ele>269.8</ele>
        <time>2023-05-27T08:13:35Z</time>
      </trkpt>
      <trkpt lat="45.92081" lon="5.39452">
        <ele>269.4</ele>
        <time>2023-05-27T08:13:36Z</time>
      </trkpt>
      <trkpt lat="45.92078" lon="5.39447">
        <ele>269.2</ele>
        <time>2023-05-27T08:13:37Z</time>
      </trkpt>
      <trkpt lat="45.92074" lon="5.3944">
        <ele>269</ele>
        <time>2023-05-27T08:13:38Z</time>
      </trkpt>
      <trkpt lat="45.9207" lon="5.39435">
        <ele>268.8</ele>
        <time>2023-05-27T08:13:39Z</time>
      </trkpt>
      <trkpt lat="45.92066" lon="5.3943">
        <ele>268.6</ele>
        <time>2023-05-27T08:13:40Z</time>
      </trkpt>
      <trkpt lat="45.92063" lon="5.39425">
        <ele>268.6</ele>
        <time>2023-05-27T08:13:41Z</time>
      </trkpt>
      <trkpt lat="45.9206" lon="5.39421">
        <ele>268.6</ele>
        <time>2023-05-27T08:13:42Z</time>
      </trkpt>
      <trkpt lat="45.92058" lon="5.39417">
        <ele>268.4</ele>
        <time>2023-05-27T08:13:43Z</time>
      </trkpt>
      <trkpt lat="45.92055" lon="5.39412">
        <ele>268.4</ele>
        <time>2023-05-27T08:13:44Z</time>
      </trkpt>
      <trkpt lat="45.92054" lon="5.39409">
        <ele>268.4</ele>
        <time>2023-05-27T08:13:45Z</time>
      </trkpt>
      <trkpt lat="45.92052" lon="5.39406">
        <ele>268.4</ele>
        <time>2023-05-27T08:13:46Z</time>
      </trkpt>
      <trkpt lat="45.92051" lon="5.39406">
        <ele>268.2</ele>
        <time>2023-05-27T08:13:47Z</time>
      </trkpt>
      <trkpt lat="45.9205" lon="5.39407">
        <ele>268.2</ele>
        <time>2023-05-27T08:13:48Z</time>
      </trkpt>
      <trkpt lat="45.9205" lon="5.39408">
        <ele>268</ele>
        <time>2023-05-27T08:13:49Z</time>
      </trkpt>
      <trkpt lat="45.9205" lon="5.39408">
        <ele>267.8</ele>
        <time>2023-05-27T08:13:50Z</time>
      </trkpt>
      <trkpt lat="45.9205" lon="5.39408">
        <ele>267.6</ele>
        <time>2023-05-27T08:13:52Z</time>
      </trkpt>
      <trkpt lat="45.9205" lon="5.39408">
        <ele>267.6</ele>
        <time>2023-05-27T08:13:53Z</time>
      </trkpt>
      <trkpt lat="45.9205" lon="5.39409">
        <ele>267.4</ele>
        <time>2023-05-27T08:13:54Z</time>
      </trkpt>
      <trkpt lat="45.9205" lon="5.39409">
        <ele>267.4</ele>
        <time>2023-05-27T08:13:55Z</time>
      </trkpt>
      <trkpt lat="45.9205" lon="5.39409">
        <ele>267.4</ele>
        <time>2023-05-27T08:13:56Z</time>
      </trkpt>
      <trkpt lat="45.9205" lon="5.39409">
        <ele>267.4</ele>
        <time>2023-05-27T08:13:58Z</time>
      </trkpt>
      <trkpt lat="45.9205" lon="5.39409">
        <ele>267.4</ele>
        <time>2023-05-27T08:13:59Z</time>
      </trkpt>
      <trkpt lat="45.92051" lon="5.39409">
        <ele>267.4</ele>
        <time>2023-05-27T08:14:00Z</time>
      </trkpt>
      <trkpt lat="45.92051" lon="5.39408">
        <ele>267.2</ele>
        <time>2023-05-27T08:14:01Z</time>
      </trkpt>
      <trkpt lat="45.92051" lon="5.39406">
        <ele>267.2</ele>
        <time>2023-05-27T08:14:02Z</time>
      </trkpt>
      <trkpt lat="45.9205" lon="5.39405">
        <ele>267.2</ele>
        <time>2023-05-27T08:14:03Z</time>
      </trkpt>
      <trkpt lat="45.92047" lon="5.39401">
        <ele>267</ele>
        <time>2023-05-27T08:14:05Z</time>
      </trkpt>
      <trkpt lat="45.92044" lon="5.394">
        <ele>266.8</ele>
        <time>2023-05-27T08:14:06Z</time>
      </trkpt>
      <trkpt lat="45.92041" lon="5.39401">
        <ele>266.8</ele>
        <time>2023-05-27T08:14:07Z</time>
      </trkpt>
      <trkpt lat="45.92037" lon="5.39403">
        <ele>266.8</ele>
        <time>2023-05-27T08:14:08Z</time>
      </trkpt>
      <trkpt lat="45.92034" lon="5.39407">
        <ele>266.8</ele>
        <time>2023-05-27T08:14:09Z</time>
      </trkpt>
      <trkpt lat="45.92026" lon="5.39416">
        <ele>266.8</ele>
        <time>2023-05-27T08:14:11Z</time>
      </trkpt>
      <trkpt lat="45.92022" lon="5.3942">
        <ele>266.6</ele>
        <time>2023-05-27T08:14:12Z</time>
      </trkpt>
      <trkpt lat="45.92019" lon="5.39424">
        <ele>266.6</ele>
        <time>2023-05-27T08:14:13Z</time>
      </trkpt>
      <trkpt lat="45.92014" lon="5.39431">
        <ele>266.6</ele>
        <time>2023-05-27T08:14:14Z</time>
      </trkpt>
      <trkpt lat="45.92009" lon="5.39436">
        <ele>266.4</ele>
        <time>2023-05-27T08:14:15Z</time>
      </trkpt>
      <trkpt lat="45.92004" lon="5.39442">
        <ele>266.2</ele>
        <time>2023-05-27T08:14:16Z</time>
      </trkpt>
      <trkpt lat="45.91999" lon="5.39448">
        <ele>266.2</ele>
        <time>2023-05-27T08:14:17Z</time>
      </trkpt>
      <trkpt lat="45.91995" lon="5.39453">
        <ele>266</ele>
        <time>2023-05-27T08:14:18Z</time>
      </trkpt>
      <trkpt lat="45.91989" lon="5.3946">
        <ele>266</ele>
        <time>2023-05-27T08:14:19Z</time>
      </trkpt>
      <trkpt lat="45.91985" lon="5.39467">
        <ele>265.8</ele>
        <time>2023-05-27T08:14:20Z</time>
      </trkpt>
      <trkpt lat="45.91985" lon="5.39467">
        <ele>265.8</ele>
        <time>2023-05-27T08:14:21Z</time>
      </trkpt>
      <trkpt lat="45.91974" lon="5.3948">
        <ele>265.6</ele>
        <time>2023-05-27T08:14:22Z</time>
      </trkpt>
      <trkpt lat="45.91974" lon="5.3948">
        <ele>265.6</ele>
        <time>2023-05-27T08:14:23Z</time>
      </trkpt>
      <trkpt lat="45.91964" lon="5.39495">
        <ele>265.6</ele>
        <time>2023-05-27T08:14:24Z</time>
      </trkpt>
      <trkpt lat="45.91958" lon="5.39502">
        <ele>265.4</ele>
        <time>2023-05-27T08:14:25Z</time>
      </trkpt>
      <trkpt lat="45.91954" lon="5.39508">
        <ele>265.4</ele>
        <time>2023-05-27T08:14:26Z</time>
      </trkpt>
      <trkpt lat="45.91948" lon="5.39517">
        <ele>265.2</ele>
        <time>2023-05-27T08:14:27Z</time>
      </trkpt>
      <trkpt lat="45.91944" lon="5.39524">
        <ele>265.2</ele>
        <time>2023-05-27T08:14:28Z</time>
      </trkpt>
      <trkpt lat="45.91938" lon="5.39533">
        <ele>265</ele>
        <time>2023-05-27T08:14:29Z</time>
      </trkpt>
      <trkpt lat="45.91932" lon="5.39541">
        <ele>265</ele>
        <time>2023-05-27T08:14:30Z</time>
      </trkpt>
      <trkpt lat="45.91927" lon="5.3955">
        <ele>265</ele>
        <time>2023-05-27T08:14:31Z</time>
      </trkpt>
      <trkpt lat="45.91922" lon="5.39559">
        <ele>265</ele>
        <time>2023-05-27T08:14:32Z</time>
      </trkpt>
      <trkpt lat="45.91917" lon="5.39568">
        <ele>265</ele>
        <time>2023-05-27T08:14:33Z</time>
      </trkpt>
      <trkpt lat="45.91912" lon="5.39577">
        <ele>265</ele>
        <time>2023-05-27T08:14:34Z</time>
      </trkpt>
      <trkpt lat="45.91907" lon="5.39586">
        <ele>265</ele>
        <time>2023-05-27T08:14:35Z</time>
      </trkpt>
      <trkpt lat="45.91903" lon="5.39596">
        <ele>265.2</ele>
        <time>2023-05-27T08:14:36Z</time>
      </trkpt>
      <trkpt lat="45.91898" lon="5.39605">
        <ele>265.2</ele>
        <time>2023-05-27T08:14:37Z</time>
      </trkpt>
      <trkpt lat="45.91898" lon="5.39605">
        <ele>265.2</ele>
        <time>2023-05-27T08:14:38Z</time>
      </trkpt>
      <trkpt lat="45.91889" lon="5.39625">
        <ele>265.2</ele>
        <time>2023-05-27T08:14:39Z</time>
      </trkpt>
      <trkpt lat="45.91884" lon="5.39635">
        <ele>265.2</ele>
        <time>2023-05-27T08:14:40Z</time>
      </trkpt>
      <trkpt lat="45.9188" lon="5.39645">
        <ele>265.2</ele>
        <time>2023-05-27T08:14:41Z</time>
      </trkpt>
      <trkpt lat="45.91877" lon="5.39653">
        <ele>265.2</ele>
        <time>2023-05-27T08:14:42Z</time>
      </trkpt>
      <trkpt lat="45.91872" lon="5.39665">
        <ele>265.2</ele>
        <time>2023-05-27T08:14:43Z</time>
      </trkpt>
      <trkpt lat="45.91869" lon="5.39676">
        <ele>265.4</ele>
        <time>2023-05-27T08:14:44Z</time>
      </trkpt>
      <trkpt lat="45.91865" lon="5.39686">
        <ele>265.4</ele>
        <time>2023-05-27T08:14:45Z</time>
      </trkpt>
      <trkpt lat="45.91862" lon="5.39695">
        <ele>265.4</ele>
        <time>2023-05-27T08:14:46Z</time>
      </trkpt>
      <trkpt lat="45.91859" lon="5.39705">
        <ele>265.4</ele>
        <time>2023-05-27T08:14:47Z</time>
      </trkpt>
      <trkpt lat="45.91855" lon="5.39718">
        <ele>265.6</ele>
        <time>2023-05-27T08:14:48Z</time>
      </trkpt>
      <trkpt lat="45.91852" lon="5.39729">
        <ele>265.6</ele>
        <time>2023-05-27T08:14:49Z</time>
      </trkpt>
      <trkpt lat="45.91849" lon="5.39739">
        <ele>265.8</ele>
        <time>2023-05-27T08:14:50Z</time>
      </trkpt>
      <trkpt lat="45.91846" lon="5.3975">
        <ele>266</ele>
        <time>2023-05-27T08:14:51Z</time>
      </trkpt>
      <trkpt lat="45.91843" lon="5.39761">
        <ele>266.2</ele>
        <time>2023-05-27T08:14:52Z</time>
      </trkpt>
      <trkpt lat="45.91841" lon="5.39771">
        <ele>266.4</ele>
        <time>2023-05-27T08:14:53Z</time>
      </trkpt>
      <trkpt lat="45.91838" lon="5.39782">
        <ele>266.6</ele>
        <time>2023-05-27T08:14:54Z</time>
      </trkpt>
      <trkpt lat="45.91836" lon="5.39793">
        <ele>267</ele>
        <time>2023-05-27T08:14:55Z</time>
      </trkpt>
      <trkpt lat="45.91834" lon="5.39803">
        <ele>267.2</ele>
        <time>2023-05-27T08:14:56Z</time>
      </trkpt>
      <trkpt lat="45.91832" lon="5.39814">
        <ele>267.4</ele>
        <time>2023-05-27T08:14:57Z</time>
      </trkpt>
      <trkpt lat="45.9183" lon="5.39826">
        <ele>267.6</ele>
        <time>2023-05-27T08:14:58Z</time>
      </trkpt>
      <trkpt lat="45.91828" lon="5.39837">
        <ele>268</ele>
        <time>2023-05-27T08:14:59Z</time>
      </trkpt>
      <trkpt lat="45.91827" lon="5.39848">
        <ele>268</ele>
        <time>2023-05-27T08:15:00Z</time>
      </trkpt>
      <trkpt lat="45.91825" lon="5.3986">
        <ele>268.4</ele>
        <time>2023-05-27T08:15:01Z</time>
      </trkpt>
      <trkpt lat="45.91824" lon="5.39871">
        <ele>268.8</ele>
        <time>2023-05-27T08:15:02Z</time>
      </trkpt>
      <trkpt lat="45.91823" lon="5.39882">
        <ele>269</ele>
        <time>2023-05-27T08:15:03Z</time>
      </trkpt>
      <trkpt lat="45.91822" lon="5.39893">
        <ele>269.2</ele>
        <time>2023-05-27T08:15:04Z</time>
      </trkpt>
      <trkpt lat="45.91821" lon="5.39904">
        <ele>269.2</ele>
        <time>2023-05-27T08:15:05Z</time>
      </trkpt>
      <trkpt lat="45.9182" lon="5.39916">
        <ele>269.6</ele>
        <time>2023-05-27T08:15:07Z</time>
      </trkpt>
      <trkpt lat="45.91819" lon="5.39938">
        <ele>269.8</ele>
        <time>2023-05-27T08:15:08Z</time>
      </trkpt>
      <trkpt lat="45.91819" lon="5.39949">
        <ele>270</ele>
        <time>2023-05-27T08:15:09Z</time>
      </trkpt>
      <trkpt lat="45.91819" lon="5.3996">
        <ele>270</ele>
        <time>2023-05-27T08:15:10Z</time>
      </trkpt>
      <trkpt lat="45.91818" lon="5.39971">
        <ele>270.4</ele>
        <time>2023-05-27T08:15:11Z</time>
      </trkpt>
      <trkpt lat="45.91818" lon="5.39981">
        <ele>270.6</ele>
        <time>2023-05-27T08:15:12Z</time>
      </trkpt>
      <trkpt lat="45.91818" lon="5.39992">
        <ele>270.8</ele>
        <time>2023-05-27T08:15:13Z</time>
      </trkpt>
      <trkpt lat="45.91818" lon="5.40003">
        <ele>270.8</ele>
        <time>2023-05-27T08:15:14Z</time>
      </trkpt>
      <trkpt lat="45.91818" lon="5.40014">
        <ele>271.2</ele>
        <time>2023-05-27T08:15:15Z</time>
      </trkpt>
      <trkpt lat="45.91819" lon="5.40024">
        <ele>271.2</ele>
        <time>2023-05-27T08:15:16Z</time>
      </trkpt>
      <trkpt lat="45.91819" lon="5.40035">
        <ele>271.4</ele>
        <time>2023-05-27T08:15:17Z</time>
      </trkpt>
      <trkpt lat="45.9182" lon="5.40046">
        <ele>271.4</ele>
        <time>2023-05-27T08:15:18Z</time>
      </trkpt>
      <trkpt lat="45.91821" lon="5.40057">
        <ele>271.4</ele>
        <time>2023-05-27T08:15:19Z</time>
      </trkpt>
      <trkpt lat="45.91822" lon="5.40067">
        <ele>271.6</ele>
        <time>2023-05-27T08:15:20Z</time>
      </trkpt>
      <trkpt lat="45.91823" lon="5.40078">
        <ele>271.6</ele>
        <time>2023-05-27T08:15:21Z</time>
      </trkpt>
      <trkpt lat="45.91824" lon="5.40089">
        <ele>271.8</ele>
        <time>2023-05-27T08:15:22Z</time>
      </trkpt>
      <trkpt lat="45.91824" lon="5.401">
        <ele>272.2</ele>
        <time>2023-05-27T08:15:23Z</time>
      </trkpt>
      <trkpt lat="45.91825" lon="5.4011">
        <ele>272.2</ele>
        <time>2023-05-27T08:15:24Z</time>
      </trkpt>
      <trkpt lat="45.91827" lon="5.40121">
        <ele>272.2</ele>
        <time>2023-05-27T08:15:25Z</time>
      </trkpt>
      <trkpt lat="45.91828" lon="5.40132">
        <ele>272.4</ele>
        <time>2023-05-27T08:15:26Z</time>
      </trkpt>
      <trkpt lat="45.91829" lon="5.40143">
        <ele>272.6</ele>
        <time>2023-05-27T08:15:27Z</time>
      </trkpt>
      <trkpt lat="45.91831" lon="5.40154">
        <ele>272.8</ele>
        <time>2023-05-27T08:15:28Z</time>
      </trkpt>
      <trkpt lat="45.91832" lon="5.40165">
        <ele>273</ele>
        <time>2023-05-27T08:15:29Z</time>
      </trkpt>
      <trkpt lat="45.91834" lon="5.40176">
        <ele>273.2</ele>
        <time>2023-05-27T08:15:30Z</time>
      </trkpt>
      <trkpt lat="45.91834" lon="5.40176">
        <ele>273.4</ele>
        <time>2023-05-27T08:15:31Z</time>
      </trkpt>
      <trkpt lat="45.91837" lon="5.40198">
        <ele>273.6</ele>
        <time>2023-05-27T08:15:32Z</time>
      </trkpt>
      <trkpt lat="45.91838" lon="5.40208">
        <ele>273.6</ele>
        <time>2023-05-27T08:15:33Z</time>
      </trkpt>
      <trkpt lat="45.91839" lon="5.40219">
        <ele>273.6</ele>
        <time>2023-05-27T08:15:34Z</time>
      </trkpt>
      <trkpt lat="45.91839" lon="5.40219">
        <ele>273.8</ele>
        <time>2023-05-27T08:15:35Z</time>
      </trkpt>
      <trkpt lat="45.91841" lon="5.40231">
        <ele>273.8</ele>
        <time>2023-05-27T08:15:36Z</time>
      </trkpt>
      <trkpt lat="45.91843" lon="5.40253">
        <ele>274</ele>
        <time>2023-05-27T08:15:37Z</time>
      </trkpt>
      <trkpt lat="45.91845" lon="5.40264">
        <ele>274.2</ele>
        <time>2023-05-27T08:15:38Z</time>
      </trkpt>
      <trkpt lat="45.91847" lon="5.40275">
        <ele>274.4</ele>
        <time>2023-05-27T08:15:39Z</time>
      </trkpt>
      <trkpt lat="45.91848" lon="5.40286">
        <ele>274.6</ele>
        <time>2023-05-27T08:15:40Z</time>
      </trkpt>
      <trkpt lat="45.91851" lon="5.40297">
        <ele>274.6</ele>
        <time>2023-05-27T08:15:41Z</time>
      </trkpt>
      <trkpt lat="45.91854" lon="5.40308">
        <ele>274.6</ele>
        <time>2023-05-27T08:15:42Z</time>
      </trkpt>
      <trkpt lat="45.91856" lon="5.40319">
        <ele>274.8</ele>
        <time>2023-05-27T08:15:43Z</time>
      </trkpt>
      <trkpt lat="45.91856" lon="5.40319">
        <ele>274.8</ele>
        <time>2023-05-27T08:15:44Z</time>
      </trkpt>
      <trkpt lat="45.91862" lon="5.40341">
        <ele>274.8</ele>
        <time>2023-05-27T08:15:45Z</time>
      </trkpt>
      <trkpt lat="45.91865" lon="5.40352">
        <ele>275</ele>
        <time>2023-05-27T08:15:46Z</time>
      </trkpt>
      <trkpt lat="45.91869" lon="5.40363">
        <ele>275</ele>
        <time>2023-05-27T08:15:47Z</time>
      </trkpt>
      <trkpt lat="45.91873" lon="5.40373">
        <ele>275.2</ele>
        <time>2023-05-27T08:15:48Z</time>
      </trkpt>
      <trkpt lat="45.91877" lon="5.40383">
        <ele>275.4</ele>
        <time>2023-05-27T08:15:49Z</time>
      </trkpt>
      <trkpt lat="45.91881" lon="5.40393">
        <ele>275.4</ele>
        <time>2023-05-27T08:15:50Z</time>
      </trkpt>
      <trkpt lat="45.91886" lon="5.40405">
        <ele>275.4</ele>
        <time>2023-05-27T08:15:51Z</time>
      </trkpt>
      <trkpt lat="45.9189" lon="5.40412">
        <ele>275.4</ele>
        <time>2023-05-27T08:15:52Z</time>
      </trkpt>
      <trkpt lat="45.91895" lon="5.40422">
        <ele>275.4</ele>
        <time>2023-05-27T08:15:53Z</time>
      </trkpt>
      <trkpt lat="45.919" lon="5.40431">
        <ele>275.4</ele>
        <time>2023-05-27T08:15:54Z</time>
      </trkpt>
      <trkpt lat="45.91905" lon="5.40441">
        <ele>275.8</ele>
        <time>2023-05-27T08:15:55Z</time>
      </trkpt>
      <trkpt lat="45.91911" lon="5.4045">
        <ele>275.8</ele>
        <time>2023-05-27T08:15:56Z</time>
      </trkpt>
      <trkpt lat="45.91916" lon="5.40458">
        <ele>275.8</ele>
        <time>2023-05-27T08:15:57Z</time>
      </trkpt>
      <trkpt lat="45.91922" lon="5.40467">
        <ele>275.6</ele>
        <time>2023-05-27T08:15:58Z</time>
      </trkpt>
      <trkpt lat="45.91929" lon="5.40475">
        <ele>275.8</ele>
        <time>2023-05-27T08:15:59Z</time>
      </trkpt>
      <trkpt lat="45.91935" lon="5.40484">
        <ele>275.8</ele>
        <time>2023-05-27T08:16:00Z</time>
      </trkpt>
      <trkpt lat="45.91942" lon="5.40492">
        <ele>275.8</ele>
        <time>2023-05-27T08:16:01Z</time>
      </trkpt>
      <trkpt lat="45.91948" lon="5.405">
        <ele>275.8</ele>
        <time>2023-05-27T08:16:02Z</time>
      </trkpt>
      <trkpt lat="45.91955" lon="5.40507">
        <ele>275.8</ele>
        <time>2023-05-27T08:16:03Z</time>
      </trkpt>
      <trkpt lat="45.91962" lon="5.40514">
        <ele>275.8</ele>
        <time>2023-05-27T08:16:04Z</time>
      </trkpt>
      <trkpt lat="45.91969" lon="5.4052">
        <ele>275.8</ele>
        <time>2023-05-27T08:16:05Z</time>
      </trkpt>
      <trkpt lat="45.91977" lon="5.40527">
        <ele>275.8</ele>
        <time>2023-05-27T08:16:06Z</time>
      </trkpt>
      <trkpt lat="45.91984" lon="5.40533">
        <ele>275.6</ele>
        <time>2023-05-27T08:16:07Z</time>
      </trkpt>
      <trkpt lat="45.91992" lon="5.40539">
        <ele>275.6</ele>
        <time>2023-05-27T08:16:08Z</time>
      </trkpt>
      <trkpt lat="45.92" lon="5.40544">
        <ele>275.4</ele>
        <time>2023-05-27T08:16:09Z</time>
      </trkpt>
      <trkpt lat="45.92008" lon="5.40549">
        <ele>275.6</ele>
        <time>2023-05-27T08:16:10Z</time>
      </trkpt>
      <trkpt lat="45.92017" lon="5.40555">
        <ele>275.6</ele>
        <time>2023-05-27T08:16:11Z</time>
      </trkpt>
      <trkpt lat="45.92025" lon="5.40559">
        <ele>275.4</ele>
        <time>2023-05-27T08:16:12Z</time>
      </trkpt>
      <trkpt lat="45.92032" lon="5.40562">
        <ele>275.4</ele>
        <time>2023-05-27T08:16:13Z</time>
      </trkpt>
      <trkpt lat="45.92041" lon="5.40565">
        <ele>275.4</ele>
        <time>2023-05-27T08:16:14Z</time>
      </trkpt>
      <trkpt lat="45.92049" lon="5.40569">
        <ele>275.4</ele>
        <time>2023-05-27T08:16:15Z</time>
      </trkpt>
      <trkpt lat="45.92058" lon="5.40572">
        <ele>275.4</ele>
        <time>2023-05-27T08:16:16Z</time>
      </trkpt>
      <trkpt lat="45.92066" lon="5.40574">
        <ele>275.4</ele>
        <time>2023-05-27T08:16:17Z</time>
      </trkpt>
      <trkpt lat="45.92075" lon="5.40576">
        <ele>275.4</ele>
        <time>2023-05-27T08:16:18Z</time>
      </trkpt>
      <trkpt lat="45.92084" lon="5.40577">
        <ele>275.4</ele>
        <time>2023-05-27T08:16:19Z</time>
      </trkpt>
      <trkpt lat="45.92094" lon="5.40579">
        <ele>275.4</ele>
        <time>2023-05-27T08:16:20Z</time>
      </trkpt>
      <trkpt lat="45.92101" lon="5.40579">
        <ele>275.4</ele>
        <time>2023-05-27T08:16:21Z</time>
      </trkpt>
      <trkpt lat="45.9211" lon="5.40579">
        <ele>275.4</ele>
        <time>2023-05-27T08:16:22Z</time>
      </trkpt>
      <trkpt lat="45.92119" lon="5.40579">
        <ele>275.6</ele>
        <time>2023-05-27T08:16:23Z</time>
      </trkpt>
      <trkpt lat="45.92127" lon="5.40579">
        <ele>275.6</ele>
        <time>2023-05-27T08:16:24Z</time>
      </trkpt>
      <trkpt lat="45.92136" lon="5.40578">
        <ele>275.6</ele>
        <time>2023-05-27T08:16:25Z</time>
      </trkpt>
      <trkpt lat="45.92145" lon="5.40577">
        <ele>275.8</ele>
        <time>2023-05-27T08:16:26Z</time>
      </trkpt>
      <trkpt lat="45.92153" lon="5.40575">
        <ele>275.8</ele>
        <time>2023-05-27T08:16:27Z</time>
      </trkpt>
      <trkpt lat="45.92162" lon="5.40573">
        <ele>275.8</ele>
        <time>2023-05-27T08:16:28Z</time>
      </trkpt>
      <trkpt lat="45.9217" lon="5.40571">
        <ele>276</ele>
        <time>2023-05-27T08:16:29Z</time>
      </trkpt>
      <trkpt lat="45.92178" lon="5.40569">
        <ele>276.2</ele>
        <time>2023-05-27T08:16:30Z</time>
      </trkpt>
      <trkpt lat="45.92187" lon="5.40567">
        <ele>276.2</ele>
        <time>2023-05-27T08:16:31Z</time>
      </trkpt>
      <trkpt lat="45.92195" lon="5.40565">
        <ele>276.2</ele>
        <time>2023-05-27T08:16:32Z</time>
      </trkpt>
      <trkpt lat="45.92203" lon="5.40563">
        <ele>276.2</ele>
        <time>2023-05-27T08:16:33Z</time>
      </trkpt>
      <trkpt lat="45.92211" lon="5.4056">
        <ele>276.4</ele>
        <time>2023-05-27T08:16:34Z</time>
      </trkpt>
      <trkpt lat="45.92219" lon="5.40558">
        <ele>276.6</ele>
        <time>2023-05-27T08:16:35Z</time>
      </trkpt>
      <trkpt lat="45.92227" lon="5.40556">
        <ele>276.6</ele>
        <time>2023-05-27T08:16:36Z</time>
      </trkpt>
      <trkpt lat="45.92235" lon="5.40553">
        <ele>276.6</ele>
        <time>2023-05-27T08:16:37Z</time>
      </trkpt>
      <trkpt lat="45.92243" lon="5.40551">
        <ele>276.8</ele>
        <time>2023-05-27T08:16:38Z</time>
      </trkpt>
      <trkpt lat="45.92251" lon="5.40549">
        <ele>276.8</ele>
        <time>2023-05-27T08:16:39Z</time>
      </trkpt>
      <trkpt lat="45.92259" lon="5.40546">
        <ele>276.8</ele>
        <time>2023-05-27T08:16:40Z</time>
      </trkpt>
      <trkpt lat="45.92267" lon="5.40544">
        <ele>276.8</ele>
        <time>2023-05-27T08:16:41Z</time>
      </trkpt>
      <trkpt lat="45.92275" lon="5.40542">
        <ele>276.8</ele>
        <time>2023-05-27T08:16:42Z</time>
      </trkpt>
      <trkpt lat="45.92284" lon="5.4054">
        <ele>277</ele>
        <time>2023-05-27T08:16:43Z</time>
      </trkpt>
      <trkpt lat="45.92292" lon="5.40538">
        <ele>277</ele>
        <time>2023-05-27T08:16:44Z</time>
      </trkpt>
      <trkpt lat="45.92301" lon="5.40536">
        <ele>277</ele>
        <time>2023-05-27T08:16:45Z</time>
      </trkpt>
      <trkpt lat="45.92308" lon="5.40534">
        <ele>276.8</ele>
        <time>2023-05-27T08:16:46Z</time>
      </trkpt>
      <trkpt lat="45.92316" lon="5.40532">
        <ele>276.8</ele>
        <time>2023-05-27T08:16:47Z</time>
      </trkpt>
      <trkpt lat="45.92324" lon="5.4053">
        <ele>276.8</ele>
        <time>2023-05-27T08:16:48Z</time>
      </trkpt>
      <trkpt lat="45.92332" lon="5.40527">
        <ele>276.8</ele>
        <time>2023-05-27T08:16:49Z</time>
      </trkpt>
      <trkpt lat="45.92332" lon="5.40527">
        <ele>277</ele>
        <time>2023-05-27T08:16:50Z</time>
      </trkpt>
      <trkpt lat="45.92349" lon="5.40523">
        <ele>276.6</ele>
        <time>2023-05-27T08:16:51Z</time>
      </trkpt>
      <trkpt lat="45.92357" lon="5.40521">
        <ele>276.6</ele>
        <time>2023-05-27T08:16:52Z</time>
      </trkpt>
      <trkpt lat="45.92357" lon="5.40521">
        <ele>276.6</ele>
        <time>2023-05-27T08:16:53Z</time>
      </trkpt>
      <trkpt lat="45.92374" lon="5.40517">
        <ele>276.6</ele>
        <time>2023-05-27T08:16:54Z</time>
      </trkpt>
      <trkpt lat="45.92382" lon="5.40515">
        <ele>276.6</ele>
        <time>2023-05-27T08:16:55Z</time>
      </trkpt>
      <trkpt lat="45.9239" lon="5.40513">
        <ele>276.2</ele>
        <time>2023-05-27T08:16:56Z</time>
      </trkpt>
      <trkpt lat="45.92398" lon="5.40511">
        <ele>276.4</ele>
        <time>2023-05-27T08:16:57Z</time>
      </trkpt>
      <trkpt lat="45.92398" lon="5.40511">
        <ele>276.4</ele>
        <time>2023-05-27T08:16:58Z</time>
      </trkpt>
      <trkpt lat="45.92414" lon="5.40506">
        <ele>276.4</ele>
        <time>2023-05-27T08:16:59Z</time>
      </trkpt>
      <trkpt lat="45.92422" lon="5.40504">
        <ele>276.2</ele>
        <time>2023-05-27T08:17:00Z</time>
      </trkpt>
      <trkpt lat="45.92431" lon="5.40502">
        <ele>276.2</ele>
        <time>2023-05-27T08:17:01Z</time>
      </trkpt>
      <trkpt lat="45.92438" lon="5.405">
        <ele>276.2</ele>
        <time>2023-05-27T08:17:02Z</time>
      </trkpt>
      <trkpt lat="45.92446" lon="5.40498">
        <ele>276.2</ele>
        <time>2023-05-27T08:17:03Z</time>
      </trkpt>
      <trkpt lat="45.92455" lon="5.40496">
        <ele>276.2</ele>
        <time>2023-05-27T08:17:04Z</time>
      </trkpt>
      <trkpt lat="45.92461" lon="5.40494">
        <ele>276.2</ele>
        <time>2023-05-27T08:17:05Z</time>
      </trkpt>
      <trkpt lat="45.92469" lon="5.40492">
        <ele>276.2</ele>
        <time>2023-05-27T08:17:06Z</time>
      </trkpt>
      <trkpt lat="45.92478" lon="5.4049">
        <ele>276.2</ele>
        <time>2023-05-27T08:17:07Z</time>
      </trkpt>
      <trkpt lat="45.92486" lon="5.40488">
        <ele>276.2</ele>
        <time>2023-05-27T08:17:08Z</time>
      </trkpt>
      <trkpt lat="45.92493" lon="5.40486">
        <ele>276.2</ele>
        <time>2023-05-27T08:17:09Z</time>
      </trkpt>
      <trkpt lat="45.92501" lon="5.40484">
        <ele>276.2</ele>
        <time>2023-05-27T08:17:10Z</time>
      </trkpt>
      <trkpt lat="45.92506" lon="5.40483">
        <ele>276.2</ele>
        <time>2023-05-27T08:17:11Z</time>
      </trkpt>
      <trkpt lat="45.92514" lon="5.40481">
        <ele>276.4</ele>
        <time>2023-05-27T08:17:12Z</time>
      </trkpt>
      <trkpt lat="45.92523" lon="5.40479">
        <ele>276.4</ele>
        <time>2023-05-27T08:17:13Z</time>
      </trkpt>
      <trkpt lat="45.9253" lon="5.40477">
        <ele>276.6</ele>
        <time>2023-05-27T08:17:14Z</time>
      </trkpt>
      <trkpt lat="45.92538" lon="5.40475">
        <ele>276.6</ele>
        <time>2023-05-27T08:17:15Z</time>
      </trkpt>
      <trkpt lat="45.92545" lon="5.40472">
        <ele>276.8</ele>
        <time>2023-05-27T08:17:16Z</time>
      </trkpt>
      <trkpt lat="45.92553" lon="5.4047">
        <ele>277</ele>
        <time>2023-05-27T08:17:17Z</time>
      </trkpt>
      <trkpt lat="45.9256" lon="5.40468">
        <ele>277.2</ele>
        <time>2023-05-27T08:17:18Z</time>
      </trkpt>
      <trkpt lat="45.92568" lon="5.40466">
        <ele>277.2</ele>
        <time>2023-05-27T08:17:19Z</time>
      </trkpt>
      <trkpt lat="45.92576" lon="5.40464">
        <ele>277.4</ele>
        <time>2023-05-27T08:17:20Z</time>
      </trkpt>
      <trkpt lat="45.92582" lon="5.40462">
        <ele>277.6</ele>
        <time>2023-05-27T08:17:21Z</time>
      </trkpt>
      <trkpt lat="45.92591" lon="5.4046">
        <ele>277.6</ele>
        <time>2023-05-27T08:17:22Z</time>
      </trkpt>
      <trkpt lat="45.92599" lon="5.40458">
        <ele>277.8</ele>
        <time>2023-05-27T08:17:23Z</time>
      </trkpt>
      <trkpt lat="45.92607" lon="5.40457">
        <ele>278</ele>
        <time>2023-05-27T08:17:24Z</time>
      </trkpt>
      <trkpt lat="45.92613" lon="5.40455">
        <ele>278</ele>
        <time>2023-05-27T08:17:25Z</time>
      </trkpt>
      <trkpt lat="45.92623" lon="5.40454">
        <ele>278</ele>
        <time>2023-05-27T08:17:26Z</time>
      </trkpt>
      <trkpt lat="45.92631" lon="5.40453">
        <ele>278</ele>
        <time>2023-05-27T08:17:27Z</time>
      </trkpt>
      <trkpt lat="45.92639" lon="5.40453">
        <ele>278</ele>
        <time>2023-05-27T08:17:28Z</time>
      </trkpt>
      <trkpt lat="45.92648" lon="5.40452">
        <ele>278</ele>
        <time>2023-05-27T08:17:29Z</time>
      </trkpt>
      <trkpt lat="45.92655" lon="5.40452">
        <ele>278</ele>
        <time>2023-05-27T08:17:30Z</time>
      </trkpt>
      <trkpt lat="45.92664" lon="5.40453">
        <ele>278</ele>
        <time>2023-05-27T08:17:31Z</time>
      </trkpt>
      <trkpt lat="45.92674" lon="5.40453">
        <ele>277.8</ele>
        <time>2023-05-27T08:17:32Z</time>
      </trkpt>
      <trkpt lat="45.92683" lon="5.40453">
        <ele>277.8</ele>
        <time>2023-05-27T08:17:33Z</time>
      </trkpt>
      <trkpt lat="45.92691" lon="5.40454">
        <ele>277.8</ele>
        <time>2023-05-27T08:17:34Z</time>
      </trkpt>
      <trkpt lat="45.927" lon="5.40455">
        <ele>277.6</ele>
        <time>2023-05-27T08:17:35Z</time>
      </trkpt>
      <trkpt lat="45.92709" lon="5.40456">
        <ele>277.6</ele>
        <time>2023-05-27T08:17:36Z</time>
      </trkpt>
      <trkpt lat="45.92717" lon="5.40457">
        <ele>277.4</ele>
        <time>2023-05-27T08:17:37Z</time>
      </trkpt>
      <trkpt lat="45.92726" lon="5.40459">
        <ele>277.4</ele>
        <time>2023-05-27T08:17:38Z</time>
      </trkpt>
      <trkpt lat="45.92732" lon="5.40461">
        <ele>277.4</ele>
        <time>2023-05-27T08:17:39Z</time>
      </trkpt>
      <trkpt lat="45.9274" lon="5.40463">
        <ele>277.2</ele>
        <time>2023-05-27T08:17:40Z</time>
      </trkpt>
      <trkpt lat="45.92748" lon="5.40465">
        <ele>277.2</ele>
        <time>2023-05-27T08:17:41Z</time>
      </trkpt>
      <trkpt lat="45.92756" lon="5.40468">
        <ele>277</ele>
        <time>2023-05-27T08:17:42Z</time>
      </trkpt>
      <trkpt lat="45.92764" lon="5.40471">
        <ele>277</ele>
        <time>2023-05-27T08:17:43Z</time>
      </trkpt>
      <trkpt lat="45.92771" lon="5.40474">
        <ele>277</ele>
        <time>2023-05-27T08:17:44Z</time>
      </trkpt>
      <trkpt lat="45.92771" lon="5.40474">
        <ele>277</ele>
        <time>2023-05-27T08:17:45Z</time>
      </trkpt>
      <trkpt lat="45.92786" lon="5.40483">
        <ele>276.8</ele>
        <time>2023-05-27T08:17:46Z</time>
      </trkpt>
      <trkpt lat="45.92794" lon="5.40487">
        <ele>276.6</ele>
        <time>2023-05-27T08:17:47Z</time>
      </trkpt>
      <trkpt lat="45.92801" lon="5.40492">
        <ele>276.6</ele>
        <time>2023-05-27T08:17:48Z</time>
      </trkpt>
      <trkpt lat="45.92808" lon="5.40496">
        <ele>276.4</ele>
        <time>2023-05-27T08:17:49Z</time>
      </trkpt>
      <trkpt lat="45.92816" lon="5.40501">
        <ele>276.4</ele>
        <time>2023-05-27T08:17:50Z</time>
      </trkpt>
      <trkpt lat="45.92823" lon="5.40505">
        <ele>276.2</ele>
        <time>2023-05-27T08:17:51Z</time>
      </trkpt>
      <trkpt lat="45.9283" lon="5.4051">
        <ele>276.2</ele>
        <time>2023-05-27T08:17:52Z</time>
      </trkpt>
      <trkpt lat="45.92837" lon="5.40516">
        <ele>276</ele>
        <time>2023-05-27T08:17:53Z</time>
      </trkpt>
      <trkpt lat="45.92844" lon="5.40522">
        <ele>276</ele>
        <time>2023-05-27T08:17:54Z</time>
      </trkpt>
      <trkpt lat="45.92851" lon="5.40528">
        <ele>276</ele>
        <time>2023-05-27T08:17:55Z</time>
      </trkpt>
      <trkpt lat="45.92858" lon="5.40533">
        <ele>275.8</ele>
        <time>2023-05-27T08:17:56Z</time>
      </trkpt>
      <trkpt lat="45.92865" lon="5.4054">
        <ele>275.6</ele>
        <time>2023-05-27T08:17:57Z</time>
      </trkpt>
      <trkpt lat="45.92871" lon="5.40546">
        <ele>275.4</ele>
        <time>2023-05-27T08:17:58Z</time>
      </trkpt>
      <trkpt lat="45.92878" lon="5.40552">
        <ele>275.4</ele>
        <time>2023-05-27T08:17:59Z</time>
      </trkpt>
      <trkpt lat="45.92884" lon="5.40558">
        <ele>275.4</ele>
        <time>2023-05-27T08:18:00Z</time>
      </trkpt>
      <trkpt lat="45.92891" lon="5.40565">
        <ele>275.2</ele>
        <time>2023-05-27T08:18:01Z</time>
      </trkpt>
      <trkpt lat="45.92897" lon="5.40571">
        <ele>275.2</ele>
        <time>2023-05-27T08:18:02Z</time>
      </trkpt>
      <trkpt lat="45.92903" lon="5.40577">
        <ele>275.2</ele>
        <time>2023-05-27T08:18:03Z</time>
      </trkpt>
      <trkpt lat="45.92909" lon="5.40584">
        <ele>275.2</ele>
        <time>2023-05-27T08:18:04Z</time>
      </trkpt>
      <trkpt lat="45.92914" lon="5.40591">
        <ele>275.2</ele>
        <time>2023-05-27T08:18:05Z</time>
      </trkpt>
      <trkpt lat="45.9292" lon="5.40597">
        <ele>275.2</ele>
        <time>2023-05-27T08:18:06Z</time>
      </trkpt>
      <trkpt lat="45.92923" lon="5.40605">
        <ele>275.2</ele>
        <time>2023-05-27T08:18:07Z</time>
      </trkpt>
      <trkpt lat="45.92923" lon="5.40605">
        <ele>275.2</ele>
        <time>2023-05-27T08:18:08Z</time>
      </trkpt>
      <trkpt lat="45.92922" lon="5.40621">
        <ele>275.2</ele>
        <time>2023-05-27T08:18:09Z</time>
      </trkpt>
      <trkpt lat="45.92918" lon="5.40626">
        <ele>275.2</ele>
        <time>2023-05-27T08:18:10Z</time>
      </trkpt>
      <trkpt lat="45.92912" lon="5.40629">
        <ele>275.2</ele>
        <time>2023-05-27T08:18:11Z</time>
      </trkpt>
      <trkpt lat="45.92907" lon="5.40631">
        <ele>275.4</ele>
        <time>2023-05-27T08:18:12Z</time>
      </trkpt>
      <trkpt lat="45.92901" lon="5.40633">
        <ele>275.4</ele>
        <time>2023-05-27T08:18:14Z</time>
      </trkpt>
      <trkpt lat="45.92889" lon="5.40638">
        <ele>275.4</ele>
        <time>2023-05-27T08:18:15Z</time>
      </trkpt>
      <trkpt lat="45.92883" lon="5.4064">
        <ele>275.6</ele>
        <time>2023-05-27T08:18:16Z</time>
      </trkpt>
      <trkpt lat="45.9288" lon="5.40641">
        <ele>275.6</ele>
        <time>2023-05-27T08:18:17Z</time>
      </trkpt>
      <trkpt lat="45.92874" lon="5.40642">
        <ele>275.6</ele>
        <time>2023-05-27T08:18:18Z</time>
      </trkpt>
      <trkpt lat="45.92869" lon="5.40644">
        <ele>275.6</ele>
        <time>2023-05-27T08:18:19Z</time>
      </trkpt>
      <trkpt lat="45.92862" lon="5.40646">
        <ele>275.6</ele>
        <time>2023-05-27T08:18:20Z</time>
      </trkpt>
      <trkpt lat="45.92856" lon="5.40647">
        <ele>275.8</ele>
        <time>2023-05-27T08:18:21Z</time>
      </trkpt>
      <trkpt lat="45.92851" lon="5.40648">
        <ele>275.6</ele>
        <time>2023-05-27T08:18:22Z</time>
      </trkpt>
      <trkpt lat="45.92844" lon="5.4065">
        <ele>275.6</ele>
        <time>2023-05-27T08:18:23Z</time>
      </trkpt>
      <trkpt lat="45.92837" lon="5.40652">
        <ele>275.6</ele>
        <time>2023-05-27T08:18:24Z</time>
      </trkpt>
      <trkpt lat="45.9283" lon="5.40654">
        <ele>275.6</ele>
        <time>2023-05-27T08:18:25Z</time>
      </trkpt>
      <trkpt lat="45.92823" lon="5.40656">
        <ele>275.6</ele>
        <time>2023-05-27T08:18:26Z</time>
      </trkpt>
      <trkpt lat="45.92817" lon="5.40657">
        <ele>275.8</ele>
        <time>2023-05-27T08:18:27Z</time>
      </trkpt>
      <trkpt lat="45.92811" lon="5.40659">
        <ele>275.8</ele>
        <time>2023-05-27T08:18:28Z</time>
      </trkpt>
      <trkpt lat="45.92805" lon="5.4066">
        <ele>276.2</ele>
        <time>2023-05-27T08:18:29Z</time>
      </trkpt>
      <trkpt lat="45.92796" lon="5.40662">
        <ele>276.2</ele>
        <time>2023-05-27T08:18:30Z</time>
      </trkpt>
      <trkpt lat="45.92791" lon="5.40664">
        <ele>276.2</ele>
        <time>2023-05-27T08:18:31Z</time>
      </trkpt>
      <trkpt lat="45.92784" lon="5.40666">
        <ele>276.4</ele>
        <time>2023-05-27T08:18:32Z</time>
      </trkpt>
      <trkpt lat="45.92778" lon="5.40667">
        <ele>276.4</ele>
        <time>2023-05-27T08:18:33Z</time>
      </trkpt>
      <trkpt lat="45.9277" lon="5.40669">
        <ele>276.4</ele>
        <time>2023-05-27T08:18:34Z</time>
      </trkpt>
      <trkpt lat="45.92763" lon="5.40672">
        <ele>276.4</ele>
        <time>2023-05-27T08:18:35Z</time>
      </trkpt>
      <trkpt lat="45.92756" lon="5.40674">
        <ele>276.4</ele>
        <time>2023-05-27T08:18:36Z</time>
      </trkpt>
      <trkpt lat="45.92751" lon="5.40676">
        <ele>276.4</ele>
        <time>2023-05-27T08:18:37Z</time>
      </trkpt>
      <trkpt lat="45.92745" lon="5.40678">
        <ele>276.4</ele>
        <time>2023-05-27T08:18:38Z</time>
      </trkpt>
      <trkpt lat="45.92738" lon="5.4068">
        <ele>276.4</ele>
        <time>2023-05-27T08:18:39Z</time>
      </trkpt>
      <trkpt lat="45.92731" lon="5.40682">
        <ele>276.4</ele>
        <time>2023-05-27T08:18:40Z</time>
      </trkpt>
      <trkpt lat="45.92725" lon="5.40684">
        <ele>276.2</ele>
        <time>2023-05-27T08:18:41Z</time>
      </trkpt>
      <trkpt lat="45.92718" lon="5.40686">
        <ele>276.2</ele>
        <time>2023-05-27T08:18:42Z</time>
      </trkpt>
      <trkpt lat="45.92712" lon="5.40689">
        <ele>276.2</ele>
        <time>2023-05-27T08:18:43Z</time>
      </trkpt>
      <trkpt lat="45.92706" lon="5.40692">
        <ele>276.2</ele>
        <time>2023-05-27T08:18:44Z</time>
      </trkpt>
      <trkpt lat="45.92699" lon="5.40697">
        <ele>276.2</ele>
        <time>2023-05-27T08:18:45Z</time>
      </trkpt>
      <trkpt lat="45.92695" lon="5.40701">
        <ele>276.2</ele>
        <time>2023-05-27T08:18:46Z</time>
      </trkpt>
      <trkpt lat="45.9269" lon="5.40707">
        <ele>276.2</ele>
        <time>2023-05-27T08:18:47Z</time>
      </trkpt>
      <trkpt lat="45.92685" lon="5.40715">
        <ele>276.2</ele>
        <time>2023-05-27T08:18:48Z</time>
      </trkpt>
      <trkpt lat="45.92681" lon="5.40721">
        <ele>276.2</ele>
        <time>2023-05-27T08:18:49Z</time>
      </trkpt>
      <trkpt lat="45.92678" lon="5.40728">
        <ele>276.4</ele>
        <time>2023-05-27T08:18:50Z</time>
      </trkpt>
      <trkpt lat="45.92675" lon="5.40733">
        <ele>276.6</ele>
        <time>2023-05-27T08:18:51Z</time>
      </trkpt>
      <trkpt lat="45.92671" lon="5.4074">
        <ele>276.6</ele>
        <time>2023-05-27T08:18:52Z</time>
      </trkpt>
      <trkpt lat="45.92667" lon="5.40748">
        <ele>276.8</ele>
        <time>2023-05-27T08:18:53Z</time>
      </trkpt>
      <trkpt lat="45.92664" lon="5.40756">
        <ele>276.8</ele>
        <time>2023-05-27T08:18:54Z</time>
      </trkpt>
      <trkpt lat="45.92661" lon="5.40765">
        <ele>276.8</ele>
        <time>2023-05-27T08:18:55Z</time>
      </trkpt>
      <trkpt lat="45.9266" lon="5.40772">
        <ele>277</ele>
        <time>2023-05-27T08:18:56Z</time>
      </trkpt>
      <trkpt lat="45.92659" lon="5.40784">
        <ele>277</ele>
        <time>2023-05-27T08:18:57Z</time>
      </trkpt>
      <trkpt lat="45.92659" lon="5.40793">
        <ele>277.2</ele>
        <time>2023-05-27T08:18:58Z</time>
      </trkpt>
      <trkpt lat="45.92659" lon="5.40801">
        <ele>277.2</ele>
        <time>2023-05-27T08:18:59Z</time>
      </trkpt>
      <trkpt lat="45.92659" lon="5.4081">
        <ele>277.2</ele>
        <time>2023-05-27T08:19:00Z</time>
      </trkpt>
      <trkpt lat="45.92659" lon="5.40817">
        <ele>277.2</ele>
        <time>2023-05-27T08:19:01Z</time>
      </trkpt>
      <trkpt lat="45.92659" lon="5.40827">
        <ele>277.2</ele>
        <time>2023-05-27T08:19:02Z</time>
      </trkpt>
      <trkpt lat="45.9266" lon="5.40835">
        <ele>277.4</ele>
        <time>2023-05-27T08:19:03Z</time>
      </trkpt>
      <trkpt lat="45.9266" lon="5.40841">
        <ele>277.6</ele>
        <time>2023-05-27T08:19:04Z</time>
      </trkpt>
      <trkpt lat="45.9266" lon="5.40849">
        <ele>277.6</ele>
        <time>2023-05-27T08:19:05Z</time>
      </trkpt>
      <trkpt lat="45.9266" lon="5.40855">
        <ele>277.6</ele>
        <time>2023-05-27T08:19:06Z</time>
      </trkpt>
      <trkpt lat="45.92661" lon="5.40863">
        <ele>277.8</ele>
        <time>2023-05-27T08:19:07Z</time>
      </trkpt>
      <trkpt lat="45.92662" lon="5.40871">
        <ele>277.8</ele>
        <time>2023-05-27T08:19:08Z</time>
      </trkpt>
      <trkpt lat="45.92662" lon="5.40878">
        <ele>277.8</ele>
        <time>2023-05-27T08:19:09Z</time>
      </trkpt>
      <trkpt lat="45.92663" lon="5.40883">
        <ele>277.8</ele>
        <time>2023-05-27T08:19:10Z</time>
      </trkpt>
      <trkpt lat="45.92663" lon="5.40891">
        <ele>277.8</ele>
        <time>2023-05-27T08:19:11Z</time>
      </trkpt>
      <trkpt lat="45.92663" lon="5.40898">
        <ele>278</ele>
        <time>2023-05-27T08:19:12Z</time>
      </trkpt>
      <trkpt lat="45.92663" lon="5.40905">
        <ele>278.2</ele>
        <time>2023-05-27T08:19:13Z</time>
      </trkpt>
      <trkpt lat="45.92663" lon="5.40905">
        <ele>278.2</ele>
        <time>2023-05-27T08:19:14Z</time>
      </trkpt>
      <trkpt lat="45.92663" lon="5.40919">
        <ele>278.4</ele>
        <time>2023-05-27T08:19:15Z</time>
      </trkpt>
      <trkpt lat="45.92663" lon="5.40925">
        <ele>278.4</ele>
        <time>2023-05-27T08:19:16Z</time>
      </trkpt>
      <trkpt lat="45.92662" lon="5.40932">
        <ele>278.4</ele>
        <time>2023-05-27T08:19:17Z</time>
      </trkpt>
      <trkpt lat="45.92662" lon="5.40938">
        <ele>278.6</ele>
        <time>2023-05-27T08:19:18Z</time>
      </trkpt>
      <trkpt lat="45.92661" lon="5.40944">
        <ele>278.6</ele>
        <time>2023-05-27T08:19:19Z</time>
      </trkpt>
      <trkpt lat="45.9266" lon="5.40951">
        <ele>278.8</ele>
        <time>2023-05-27T08:19:20Z</time>
      </trkpt>
      <trkpt lat="45.92659" lon="5.40956">
        <ele>278.8</ele>
        <time>2023-05-27T08:19:21Z</time>
      </trkpt>
      <trkpt lat="45.92659" lon="5.40962">
        <ele>279</ele>
        <time>2023-05-27T08:19:22Z</time>
      </trkpt>
      <trkpt lat="45.92659" lon="5.40967">
        <ele>279</ele>
        <time>2023-05-27T08:19:23Z</time>
      </trkpt>
      <trkpt lat="45.92658" lon="5.40972">
        <ele>279.2</ele>
        <time>2023-05-27T08:19:24Z</time>
      </trkpt>
      <trkpt lat="45.92658" lon="5.40976">
        <ele>279.4</ele>
        <time>2023-05-27T08:19:25Z</time>
      </trkpt>
      <trkpt lat="45.92658" lon="5.40981">
        <ele>279.4</ele>
        <time>2023-05-27T08:19:26Z</time>
      </trkpt>
      <trkpt lat="45.92658" lon="5.40988">
        <ele>279.6</ele>
        <time>2023-05-27T08:19:27Z</time>
      </trkpt>
      <trkpt lat="45.92658" lon="5.40995">
        <ele>279.6</ele>
        <time>2023-05-27T08:19:28Z</time>
      </trkpt>
      <trkpt lat="45.92658" lon="5.41002">
        <ele>279.6</ele>
        <time>2023-05-27T08:19:29Z</time>
      </trkpt>
      <trkpt lat="45.92658" lon="5.41008">
        <ele>279.6</ele>
        <time>2023-05-27T08:19:30Z</time>
      </trkpt>
      <trkpt lat="45.92658" lon="5.41015">
        <ele>279.8</ele>
        <time>2023-05-27T08:19:31Z</time>
      </trkpt>
      <trkpt lat="45.92658" lon="5.41022">
        <ele>279.8</ele>
        <time>2023-05-27T08:19:32Z</time>
      </trkpt>
      <trkpt lat="45.92659" lon="5.41029">
        <ele>280</ele>
        <time>2023-05-27T08:19:33Z</time>
      </trkpt>
      <trkpt lat="45.92659" lon="5.41037">
        <ele>280</ele>
        <time>2023-05-27T08:19:34Z</time>
      </trkpt>
      <trkpt lat="45.92659" lon="5.41042">
        <ele>280.2</ele>
        <time>2023-05-27T08:19:35Z</time>
      </trkpt>
      <trkpt lat="45.9266" lon="5.4105">
        <ele>280.2</ele>
        <time>2023-05-27T08:19:36Z</time>
      </trkpt>
      <trkpt lat="45.9266" lon="5.4105">
        <ele>280.4</ele>
        <time>2023-05-27T08:19:37Z</time>
      </trkpt>
      <trkpt lat="45.92661" lon="5.41063">
        <ele>280.6</ele>
        <time>2023-05-27T08:19:38Z</time>
      </trkpt>
      <trkpt lat="45.92662" lon="5.4107">
        <ele>280.6</ele>
        <time>2023-05-27T08:19:39Z</time>
      </trkpt>
      <trkpt lat="45.92662" lon="5.41077">
        <ele>281</ele>
        <time>2023-05-27T08:19:40Z</time>
      </trkpt>
      <trkpt lat="45.92662" lon="5.41083">
        <ele>281.2</ele>
        <time>2023-05-27T08:19:41Z</time>
      </trkpt>
      <trkpt lat="45.92662" lon="5.4109">
        <ele>281.2</ele>
        <time>2023-05-27T08:19:42Z</time>
      </trkpt>
      <trkpt lat="45.92662" lon="5.41096">
        <ele>281.4</ele>
        <time>2023-05-27T08:19:43Z</time>
      </trkpt>
      <trkpt lat="45.92661" lon="5.41101">
        <ele>281.6</ele>
        <time>2023-05-27T08:19:44Z</time>
      </trkpt>
      <trkpt lat="45.9266" lon="5.41108">
        <ele>281.8</ele>
        <time>2023-05-27T08:19:45Z</time>
      </trkpt>
      <trkpt lat="45.92658" lon="5.41114">
        <ele>282</ele>
        <time>2023-05-27T08:19:46Z</time>
      </trkpt>
      <trkpt lat="45.92656" lon="5.41118">
        <ele>282.2</ele>
        <time>2023-05-27T08:19:47Z</time>
      </trkpt>
      <trkpt lat="45.92654" lon="5.41123">
        <ele>282.4</ele>
        <time>2023-05-27T08:19:48Z</time>
      </trkpt>
      <trkpt lat="45.92651" lon="5.41127">
        <ele>282.4</ele>
        <time>2023-05-27T08:19:49Z</time>
      </trkpt>
      <trkpt lat="45.92648" lon="5.41131">
        <ele>282.6</ele>
        <time>2023-05-27T08:19:50Z</time>
      </trkpt>
      <trkpt lat="45.92646" lon="5.41135">
        <ele>282.8</ele>
        <time>2023-05-27T08:19:51Z</time>
      </trkpt>
      <trkpt lat="45.92643" lon="5.41138">
        <ele>283.4</ele>
        <time>2023-05-27T08:19:52Z</time>
      </trkpt>
      <trkpt lat="45.9264" lon="5.41142">
        <ele>283.6</ele>
        <time>2023-05-27T08:19:53Z</time>
      </trkpt>
      <trkpt lat="45.92638" lon="5.41145">
        <ele>284.2</ele>
        <time>2023-05-27T08:19:54Z</time>
      </trkpt>
      <trkpt lat="45.92635" lon="5.41147">
        <ele>284.6</ele>
        <time>2023-05-27T08:19:55Z</time>
      </trkpt>
      <trkpt lat="45.92635" lon="5.41147">
        <ele>284.8</ele>
        <time>2023-05-27T08:19:56Z</time>
      </trkpt>
      <trkpt lat="45.92631" lon="5.41152">
        <ele>285.2</ele>
        <time>2023-05-27T08:19:57Z</time>
      </trkpt>
      <trkpt lat="45.92628" lon="5.41154">
        <ele>285.4</ele>
        <time>2023-05-27T08:19:58Z</time>
      </trkpt>
      <trkpt lat="45.92626" lon="5.41156">
        <ele>285.8</ele>
        <time>2023-05-27T08:19:59Z</time>
      </trkpt>
      <trkpt lat="45.92624" lon="5.41159">
        <ele>286.2</ele>
        <time>2023-05-27T08:20:00Z</time>
      </trkpt>
      <trkpt lat="45.92621" lon="5.41161">
        <ele>286.6</ele>
        <time>2023-05-27T08:20:01Z</time>
      </trkpt>
      <trkpt lat="45.92618" lon="5.41163">
        <ele>287.6</ele>
        <time>2023-05-27T08:20:02Z</time>
      </trkpt>
      <trkpt lat="45.92616" lon="5.41165">
        <ele>288</ele>
        <time>2023-05-27T08:20:03Z</time>
      </trkpt>
      <trkpt lat="45.92613" lon="5.41167">
        <ele>288.6</ele>
        <time>2023-05-27T08:20:04Z</time>
      </trkpt>
      <trkpt lat="45.9261" lon="5.41169">
        <ele>289</ele>
        <time>2023-05-27T08:20:05Z</time>
      </trkpt>
      <trkpt lat="45.92608" lon="5.4117">
        <ele>289.4</ele>
        <time>2023-05-27T08:20:06Z</time>
      </trkpt>
      <trkpt lat="45.92605" lon="5.41172">
        <ele>289.6</ele>
        <time>2023-05-27T08:20:07Z</time>
      </trkpt>
      <trkpt lat="45.92602" lon="5.41173">
        <ele>290.6</ele>
        <time>2023-05-27T08:20:08Z</time>
      </trkpt>
      <trkpt lat="45.926" lon="5.41174">
        <ele>291</ele>
        <time>2023-05-27T08:20:09Z</time>
      </trkpt>
      <trkpt lat="45.92597" lon="5.41176">
        <ele>291.2</ele>
        <time>2023-05-27T08:20:10Z</time>
      </trkpt>
      <trkpt lat="45.92595" lon="5.41177">
        <ele>291.8</ele>
        <time>2023-05-27T08:20:11Z</time>
      </trkpt>
      <trkpt lat="45.92592" lon="5.41178">
        <ele>292</ele>
        <time>2023-05-27T08:20:12Z</time>
      </trkpt>
      <trkpt lat="45.9259" lon="5.41179">
        <ele>293</ele>
        <time>2023-05-27T08:20:13Z</time>
      </trkpt>
      <trkpt lat="45.92587" lon="5.4118">
        <ele>293.4</ele>
        <time>2023-05-27T08:20:14Z</time>
      </trkpt>
      <trkpt lat="45.92585" lon="5.41181">
        <ele>294</ele>
        <time>2023-05-27T08:20:15Z</time>
      </trkpt>
      <trkpt lat="45.92582" lon="5.41181">
        <ele>294.4</ele>
        <time>2023-05-27T08:20:16Z</time>
      </trkpt>
      <trkpt lat="45.9258" lon="5.41182">
        <ele>294.4</ele>
        <time>2023-05-27T08:20:17Z</time>
      </trkpt>
      <trkpt lat="45.92577" lon="5.41183">
        <ele>295</ele>
        <time>2023-05-27T08:20:18Z</time>
      </trkpt>
      <trkpt lat="45.92575" lon="5.41184">
        <ele>295.2</ele>
        <time>2023-05-27T08:20:19Z</time>
      </trkpt>
      <trkpt lat="45.92572" lon="5.41184">
        <ele>295.4</ele>
        <time>2023-05-27T08:20:20Z</time>
      </trkpt>
      <trkpt lat="45.92569" lon="5.41185">
        <ele>295.6</ele>
        <time>2023-05-27T08:20:21Z</time>
      </trkpt>
      <trkpt lat="45.92567" lon="5.41187">
        <ele>295.8</ele>
        <time>2023-05-27T08:20:22Z</time>
      </trkpt>
      <trkpt lat="45.92564" lon="5.41188">
        <ele>296.2</ele>
        <time>2023-05-27T08:20:23Z</time>
      </trkpt>
      <trkpt lat="45.92561" lon="5.41189">
        <ele>296.8</ele>
        <time>2023-05-27T08:20:24Z</time>
      </trkpt>
      <trkpt lat="45.92558" lon="5.41191">
        <ele>297.4</ele>
        <time>2023-05-27T08:20:25Z</time>
      </trkpt>
      <trkpt lat="45.92555" lon="5.41192">
        <ele>297.8</ele>
        <time>2023-05-27T08:20:26Z</time>
      </trkpt>
      <trkpt lat="45.92553" lon="5.41193">
        <ele>298.2</ele>
        <time>2023-05-27T08:20:27Z</time>
      </trkpt>
      <trkpt lat="45.9255" lon="5.41194">
        <ele>298.4</ele>
        <time>2023-05-27T08:20:28Z</time>
      </trkpt>
      <trkpt lat="45.92548" lon="5.41194">
        <ele>298.6</ele>
        <time>2023-05-27T08:20:29Z</time>
      </trkpt>
      <trkpt lat="45.92546" lon="5.41195">
        <ele>298.8</ele>
        <time>2023-05-27T08:20:30Z</time>
      </trkpt>
      <trkpt lat="45.92543" lon="5.41196">
        <ele>299.4</ele>
        <time>2023-05-27T08:20:31Z</time>
      </trkpt>
      <trkpt lat="45.92541" lon="5.41197">
        <ele>300.2</ele>
        <time>2023-05-27T08:20:32Z</time>
      </trkpt>
      <trkpt lat="45.92538" lon="5.41198">
        <ele>300.4</ele>
        <time>2023-05-27T08:20:33Z</time>
      </trkpt>
      <trkpt lat="45.92535" lon="5.41199">
        <ele>300.6</ele>
        <time>2023-05-27T08:20:34Z</time>
      </trkpt>
      <trkpt lat="45.92532" lon="5.412">
        <ele>300.8</ele>
        <time>2023-05-27T08:20:35Z</time>
      </trkpt>
      <trkpt lat="45.92529" lon="5.412">
        <ele>301</ele>
        <time>2023-05-27T08:20:36Z</time>
      </trkpt>
      <trkpt lat="45.92527" lon="5.41201">
        <ele>301.2</ele>
        <time>2023-05-27T08:20:37Z</time>
      </trkpt>
      <trkpt lat="45.92524" lon="5.41202">
        <ele>301.6</ele>
        <time>2023-05-27T08:20:38Z</time>
      </trkpt>
      <trkpt lat="45.92521" lon="5.41203">
        <ele>302</ele>
        <time>2023-05-27T08:20:39Z</time>
      </trkpt>
      <trkpt lat="45.92519" lon="5.41205">
        <ele>302</ele>
        <time>2023-05-27T08:20:40Z</time>
      </trkpt>
      <trkpt lat="45.92516" lon="5.41205">
        <ele>302.2</ele>
        <time>2023-05-27T08:20:41Z</time>
      </trkpt>
      <trkpt lat="45.92513" lon="5.41206">
        <ele>302.4</ele>
        <time>2023-05-27T08:20:42Z</time>
      </trkpt>
      <trkpt lat="45.92511" lon="5.41207">
        <ele>303</ele>
        <time>2023-05-27T08:20:43Z</time>
      </trkpt>
      <trkpt lat="45.92508" lon="5.41208">
        <ele>303.2</ele>
        <time>2023-05-27T08:20:44Z</time>
      </trkpt>
      <trkpt lat="45.92505" lon="5.41208">
        <ele>303.4</ele>
        <time>2023-05-27T08:20:45Z</time>
      </trkpt>
      <trkpt lat="45.92502" lon="5.41208">
        <ele>304</ele>
        <time>2023-05-27T08:20:46Z</time>
      </trkpt>
      <trkpt lat="45.92499" lon="5.41209">
        <ele>304.2</ele>
        <time>2023-05-27T08:20:47Z</time>
      </trkpt>
      <trkpt lat="45.92496" lon="5.4121">
        <ele>304.6</ele>
        <time>2023-05-27T08:20:48Z</time>
      </trkpt>
      <trkpt lat="45.92493" lon="5.4121">
        <ele>304.6</ele>
        <time>2023-05-27T08:20:49Z</time>
      </trkpt>
      <trkpt lat="45.9249" lon="5.41211">
        <ele>305</ele>
        <time>2023-05-27T08:20:50Z</time>
      </trkpt>
      <trkpt lat="45.92487" lon="5.41211">
        <ele>305.2</ele>
        <time>2023-05-27T08:20:51Z</time>
      </trkpt>
      <trkpt lat="45.92484" lon="5.41211">
        <ele>305.4</ele>
        <time>2023-05-27T08:20:52Z</time>
      </trkpt>
      <trkpt lat="45.92482" lon="5.41212">
        <ele>306</ele>
        <time>2023-05-27T08:20:53Z</time>
      </trkpt>
      <trkpt lat="45.92479" lon="5.41212">
        <ele>306.2</ele>
        <time>2023-05-27T08:20:54Z</time>
      </trkpt>
      <trkpt lat="45.92475" lon="5.41213">
        <ele>306.6</ele>
        <time>2023-05-27T08:20:55Z</time>
      </trkpt>
      <trkpt lat="45.92473" lon="5.41214">
        <ele>306.8</ele>
        <time>2023-05-27T08:20:56Z</time>
      </trkpt>
      <trkpt lat="45.9247" lon="5.41214">
        <ele>307.2</ele>
        <time>2023-05-27T08:20:57Z</time>
      </trkpt>
      <trkpt lat="45.92467" lon="5.41215">
        <ele>307.4</ele>
        <time>2023-05-27T08:20:58Z</time>
      </trkpt>
      <trkpt lat="45.92465" lon="5.41215">
        <ele>308</ele>
        <time>2023-05-27T08:20:59Z</time>
      </trkpt>
      <trkpt lat="45.92463" lon="5.41214">
        <ele>308.4</ele>
        <time>2023-05-27T08:21:00Z</time>
      </trkpt>
      <trkpt lat="45.9246" lon="5.41214">
        <ele>308.6</ele>
        <time>2023-05-27T08:21:01Z</time>
      </trkpt>
      <trkpt lat="45.92457" lon="5.41215">
        <ele>309</ele>
        <time>2023-05-27T08:21:02Z</time>
      </trkpt>
      <trkpt lat="45.92454" lon="5.41214">
        <ele>309</ele>
        <time>2023-05-27T08:21:03Z</time>
      </trkpt>
      <trkpt lat="45.92451" lon="5.41214">
        <ele>309.4</ele>
        <time>2023-05-27T08:21:04Z</time>
      </trkpt>
      <trkpt lat="45.92449" lon="5.41213">
        <ele>309.6</ele>
        <time>2023-05-27T08:21:05Z</time>
      </trkpt>
      <trkpt lat="45.92446" lon="5.41213">
        <ele>310</ele>
        <time>2023-05-27T08:21:06Z</time>
      </trkpt>
      <trkpt lat="45.92443" lon="5.41212">
        <ele>310.4</ele>
        <time>2023-05-27T08:21:07Z</time>
      </trkpt>
      <trkpt lat="45.92441" lon="5.41212">
        <ele>310.6</ele>
        <time>2023-05-27T08:21:08Z</time>
      </trkpt>
      <trkpt lat="45.92438" lon="5.41211">
        <ele>310.8</ele>
        <time>2023-05-27T08:21:09Z</time>
      </trkpt>
      <trkpt lat="45.92436" lon="5.41211">
        <ele>310.8</ele>
        <time>2023-05-27T08:21:10Z</time>
      </trkpt>
      <trkpt lat="45.92433" lon="5.4121">
        <ele>311.2</ele>
        <time>2023-05-27T08:21:11Z</time>
      </trkpt>
      <trkpt lat="45.9243" lon="5.41209">
        <ele>311.4</ele>
        <time>2023-05-27T08:21:12Z</time>
      </trkpt>
      <trkpt lat="45.92427" lon="5.4121">
        <ele>311.6</ele>
        <time>2023-05-27T08:21:13Z</time>
      </trkpt>
      <trkpt lat="45.92425" lon="5.4121">
        <ele>312</ele>
        <time>2023-05-27T08:21:14Z</time>
      </trkpt>
      <trkpt lat="45.92422" lon="5.41212">
        <ele>312.2</ele>
        <time>2023-05-27T08:21:15Z</time>
      </trkpt>
      <trkpt lat="45.9242" lon="5.41215">
        <ele>312.6</ele>
        <time>2023-05-27T08:21:16Z</time>
      </trkpt>
      <trkpt lat="45.92419" lon="5.41219">
        <ele>312.6</ele>
        <time>2023-05-27T08:21:17Z</time>
      </trkpt>
      <trkpt lat="45.92419" lon="5.41222">
        <ele>313</ele>
        <time>2023-05-27T08:21:18Z</time>
      </trkpt>
      <trkpt lat="45.9242" lon="5.41225">
        <ele>313</ele>
        <time>2023-05-27T08:21:19Z</time>
      </trkpt>
      <trkpt lat="45.92421" lon="5.41226">
        <ele>313.4</ele>
        <time>2023-05-27T08:21:20Z</time>
      </trkpt>
      <trkpt lat="45.92423" lon="5.41228">
        <ele>313.8</ele>
        <time>2023-05-27T08:21:21Z</time>
      </trkpt>
      <trkpt lat="45.92426" lon="5.41229">
        <ele>314</ele>
        <time>2023-05-27T08:21:22Z</time>
      </trkpt>
      <trkpt lat="45.92428" lon="5.4123">
        <ele>314.2</ele>
        <time>2023-05-27T08:21:23Z</time>
      </trkpt>
      <trkpt lat="45.9243" lon="5.41231">
        <ele>314.4</ele>
        <time>2023-05-27T08:21:24Z</time>
      </trkpt>
      <trkpt lat="45.92433" lon="5.41232">
        <ele>314.8</ele>
        <time>2023-05-27T08:21:25Z</time>
      </trkpt>
      <trkpt lat="45.92435" lon="5.41233">
        <ele>315</ele>
        <time>2023-05-27T08:21:26Z</time>
      </trkpt>
      <trkpt lat="45.92437" lon="5.41235">
        <ele>315</ele>
        <time>2023-05-27T08:21:27Z</time>
      </trkpt>
      <trkpt lat="45.9244" lon="5.41235">
        <ele>315</ele>
        <time>2023-05-27T08:21:28Z</time>
      </trkpt>
      <trkpt lat="45.92442" lon="5.41236">
        <ele>315.2</ele>
        <time>2023-05-27T08:21:29Z</time>
      </trkpt>
      <trkpt lat="45.92444" lon="5.41237">
        <ele>315.6</ele>
        <time>2023-05-27T08:21:30Z</time>
      </trkpt>
      <trkpt lat="45.92447" lon="5.41238">
        <ele>315.6</ele>
        <time>2023-05-27T08:21:31Z</time>
      </trkpt>
      <trkpt lat="45.92449" lon="5.41238">
        <ele>316</ele>
        <time>2023-05-27T08:21:32Z</time>
      </trkpt>
      <trkpt lat="45.92451" lon="5.41239">
        <ele>316</ele>
        <time>2023-05-27T08:21:33Z</time>
      </trkpt>
      <trkpt lat="45.92454" lon="5.4124">
        <ele>316.2</ele>
        <time>2023-05-27T08:21:34Z</time>
      </trkpt>
      <trkpt lat="45.92456" lon="5.41241">
        <ele>316.4</ele>
        <time>2023-05-27T08:21:35Z</time>
      </trkpt>
      <trkpt lat="45.92458" lon="5.41242">
        <ele>316.6</ele>
        <time>2023-05-27T08:21:36Z</time>
      </trkpt>
      <trkpt lat="45.92461" lon="5.41243">
        <ele>316.8</ele>
        <time>2023-05-27T08:21:37Z</time>
      </trkpt>
      <trkpt lat="45.92463" lon="5.41244">
        <ele>317</ele>
        <time>2023-05-27T08:21:38Z</time>
      </trkpt>
      <trkpt lat="45.92465" lon="5.41245">
        <ele>317.2</ele>
        <time>2023-05-27T08:21:39Z</time>
      </trkpt>
      <trkpt lat="45.92468" lon="5.41247">
        <ele>317.2</ele>
        <time>2023-05-27T08:21:40Z</time>
      </trkpt>
      <trkpt lat="45.9247" lon="5.41249">
        <ele>317.6</ele>
        <time>2023-05-27T08:21:41Z</time>
      </trkpt>
      <trkpt lat="45.92473" lon="5.41251">
        <ele>318</ele>
        <time>2023-05-27T08:21:42Z</time>
      </trkpt>
      <trkpt lat="45.92475" lon="5.41251">
        <ele>318.2</ele>
        <time>2023-05-27T08:21:43Z</time>
      </trkpt>
      <trkpt lat="45.92477" lon="5.41252">
        <ele>318.8</ele>
        <time>2023-05-27T08:21:44Z</time>
      </trkpt>
      <trkpt lat="45.9248" lon="5.41252">
        <ele>319</ele>
        <time>2023-05-27T08:21:45Z</time>
      </trkpt>
      <trkpt lat="45.92482" lon="5.41253">
        <ele>319.2</ele>
        <time>2023-05-27T08:21:46Z</time>
      </trkpt>
      <trkpt lat="45.92484" lon="5.41254">
        <ele>319.4</ele>
        <time>2023-05-27T08:21:47Z</time>
      </trkpt>
      <trkpt lat="45.92486" lon="5.41254">
        <ele>319.4</ele>
        <time>2023-05-27T08:21:48Z</time>
      </trkpt>
      <trkpt lat="45.92488" lon="5.41254">
        <ele>319.6</ele>
        <time>2023-05-27T08:21:49Z</time>
      </trkpt>
      <trkpt lat="45.9249" lon="5.41255">
        <ele>319.8</ele>
        <time>2023-05-27T08:21:50Z</time>
      </trkpt>
      <trkpt lat="45.92493" lon="5.41255">
        <ele>320.2</ele>
        <time>2023-05-27T08:21:51Z</time>
      </trkpt>
      <trkpt lat="45.92495" lon="5.41257">
        <ele>320.4</ele>
        <time>2023-05-27T08:21:52Z</time>
      </trkpt>
      <trkpt lat="45.92497" lon="5.41258">
        <ele>320.8</ele>
        <time>2023-05-27T08:21:53Z</time>
      </trkpt>
      <trkpt lat="45.92499" lon="5.4126">
        <ele>321</ele>
        <time>2023-05-27T08:21:54Z</time>
      </trkpt>
      <trkpt lat="45.92501" lon="5.41261">
        <ele>321.2</ele>
        <time>2023-05-27T08:21:55Z</time>
      </trkpt>
      <trkpt lat="45.92503" lon="5.41262">
        <ele>321.4</ele>
        <time>2023-05-27T08:21:56Z</time>
      </trkpt>
      <trkpt lat="45.92505" lon="5.41262">
        <ele>321.4</ele>
        <time>2023-05-27T08:21:57Z</time>
      </trkpt>
      <trkpt lat="45.92508" lon="5.41262">
        <ele>321.8</ele>
        <time>2023-05-27T08:21:58Z</time>
      </trkpt>
      <trkpt lat="45.9251" lon="5.41262">
        <ele>322</ele>
        <time>2023-05-27T08:21:59Z</time>
      </trkpt>
      <trkpt lat="45.92512" lon="5.41262">
        <ele>322</ele>
        <time>2023-05-27T08:22:00Z</time>
      </trkpt>
      <trkpt lat="45.92515" lon="5.41263">
        <ele>322.2</ele>
        <time>2023-05-27T08:22:01Z</time>
      </trkpt>
      <trkpt lat="45.92517" lon="5.41264">
        <ele>322.4</ele>
        <time>2023-05-27T08:22:02Z</time>
      </trkpt>
      <trkpt lat="45.92519" lon="5.41264">
        <ele>322.4</ele>
        <time>2023-05-27T08:22:03Z</time>
      </trkpt>
      <trkpt lat="45.92522" lon="5.41264">
        <ele>322.6</ele>
        <time>2023-05-27T08:22:04Z</time>
      </trkpt>
      <trkpt lat="45.92524" lon="5.41265">
        <ele>322.8</ele>
        <time>2023-05-27T08:22:05Z</time>
      </trkpt>
      <trkpt lat="45.92526" lon="5.41265">
        <ele>322.8</ele>
        <time>2023-05-27T08:22:06Z</time>
      </trkpt>
      <trkpt lat="45.92528" lon="5.41266">
        <ele>323</ele>
        <time>2023-05-27T08:22:07Z</time>
      </trkpt>
      <trkpt lat="45.92531" lon="5.41267">
        <ele>323.4</ele>
        <time>2023-05-27T08:22:08Z</time>
      </trkpt>
      <trkpt lat="45.92534" lon="5.41267">
        <ele>323.8</ele>
        <time>2023-05-27T08:22:09Z</time>
      </trkpt>
      <trkpt lat="45.92536" lon="5.41267">
        <ele>324</ele>
        <time>2023-05-27T08:22:10Z</time>
      </trkpt>
      <trkpt lat="45.92539" lon="5.41266">
        <ele>324.2</ele>
        <time>2023-05-27T08:22:11Z</time>
      </trkpt>
      <trkpt lat="45.92541" lon="5.41266">
        <ele>324.6</ele>
        <time>2023-05-27T08:22:12Z</time>
      </trkpt>
      <trkpt lat="45.92544" lon="5.41266">
        <ele>324.8</ele>
        <time>2023-05-27T08:22:13Z</time>
      </trkpt>
      <trkpt lat="45.92546" lon="5.41266">
        <ele>325.2</ele>
        <time>2023-05-27T08:22:14Z</time>
      </trkpt>
      <trkpt lat="45.92552" lon="5.41265">
        <ele>325.8</ele>
        <time>2023-05-27T08:22:16Z</time>
      </trkpt>
      <trkpt lat="45.92554" lon="5.41265">
        <ele>325.8</ele>
        <time>2023-05-27T08:22:17Z</time>
      </trkpt>
      <trkpt lat="45.92558" lon="5.41265">
        <ele>326</ele>
        <time>2023-05-27T08:22:18Z</time>
      </trkpt>
      <trkpt lat="45.92563" lon="5.41264">
        <ele>326.6</ele>
        <time>2023-05-27T08:22:20Z</time>
      </trkpt>
      <trkpt lat="45.92566" lon="5.41263">
        <ele>326.8</ele>
        <time>2023-05-27T08:22:21Z</time>
      </trkpt>
      <trkpt lat="45.92568" lon="5.41263">
        <ele>327</ele>
        <time>2023-05-27T08:22:22Z</time>
      </trkpt>
      <trkpt lat="45.92571" lon="5.41263">
        <ele>327.2</ele>
        <time>2023-05-27T08:22:23Z</time>
      </trkpt>
      <trkpt lat="45.92577" lon="5.41261">
        <ele>327.6</ele>
        <time>2023-05-27T08:22:25Z</time>
      </trkpt>
      <trkpt lat="45.92579" lon="5.41259">
        <ele>328</ele>
        <time>2023-05-27T08:22:26Z</time>
      </trkpt>
      <trkpt lat="45.92585" lon="5.41258">
        <ele>328.6</ele>
        <time>2023-05-27T08:22:28Z</time>
      </trkpt>
      <trkpt lat="45.92588" lon="5.41257">
        <ele>328.6</ele>
        <time>2023-05-27T08:22:29Z</time>
      </trkpt>
      <trkpt lat="45.92591" lon="5.41256">
        <ele>329</ele>
        <time>2023-05-27T08:22:30Z</time>
      </trkpt>
      <trkpt lat="45.92594" lon="5.41254">
        <ele>329.2</ele>
        <time>2023-05-27T08:22:31Z</time>
      </trkpt>
      <trkpt lat="45.92596" lon="5.41253">
        <ele>329.4</ele>
        <time>2023-05-27T08:22:32Z</time>
      </trkpt>
      <trkpt lat="45.92598" lon="5.41252">
        <ele>329.6</ele>
        <time>2023-05-27T08:22:33Z</time>
      </trkpt>
      <trkpt lat="45.92601" lon="5.41251">
        <ele>329.8</ele>
        <time>2023-05-27T08:22:34Z</time>
      </trkpt>
      <trkpt lat="45.92604" lon="5.41249">
        <ele>330</ele>
        <time>2023-05-27T08:22:35Z</time>
      </trkpt>
      <trkpt lat="45.92606" lon="5.41248">
        <ele>330.2</ele>
        <time>2023-05-27T08:22:36Z</time>
      </trkpt>
      <trkpt lat="45.92609" lon="5.41247">
        <ele>330.6</ele>
        <time>2023-05-27T08:22:37Z</time>
      </trkpt>
      <trkpt lat="45.92612" lon="5.41245">
        <ele>330.8</ele>
        <time>2023-05-27T08:22:38Z</time>
      </trkpt>
      <trkpt lat="45.92614" lon="5.41244">
        <ele>331</ele>
        <time>2023-05-27T08:22:39Z</time>
      </trkpt>
      <trkpt lat="45.92617" lon="5.41242">
        <ele>331.2</ele>
        <time>2023-05-27T08:22:40Z</time>
      </trkpt>
      <trkpt lat="45.9262" lon="5.4124">
        <ele>331.4</ele>
        <time>2023-05-27T08:22:41Z</time>
      </trkpt>
      <trkpt lat="45.92626" lon="5.41237">
        <ele>331.8</ele>
        <time>2023-05-27T08:22:43Z</time>
      </trkpt>
      <trkpt lat="45.92629" lon="5.41236">
        <ele>332</ele>
        <time>2023-05-27T08:22:44Z</time>
      </trkpt>
      <trkpt lat="45.92632" lon="5.41235">
        <ele>332.2</ele>
        <time>2023-05-27T08:22:45Z</time>
      </trkpt>
      <trkpt lat="45.92635" lon="5.41234">
        <ele>332.4</ele>
        <time>2023-05-27T08:22:46Z</time>
      </trkpt>
      <trkpt lat="45.9264" lon="5.41232">
        <ele>332.8</ele>
        <time>2023-05-27T08:22:48Z</time>
      </trkpt>
      <trkpt lat="45.92643" lon="5.41232">
        <ele>332.8</ele>
        <time>2023-05-27T08:22:49Z</time>
      </trkpt>
      <trkpt lat="45.92645" lon="5.41234">
        <ele>333</ele>
        <time>2023-05-27T08:22:50Z</time>
      </trkpt>
      <trkpt lat="45.92647" lon="5.41237">
        <ele>333.4</ele>
        <time>2023-05-27T08:22:51Z</time>
      </trkpt>
      <trkpt lat="45.92648" lon="5.41241">
        <ele>333.4</ele>
        <time>2023-05-27T08:22:52Z</time>
      </trkpt>
      <trkpt lat="45.92647" lon="5.41245">
        <ele>333.8</ele>
        <time>2023-05-27T08:22:53Z</time>
      </trkpt>
      <trkpt lat="45.92645" lon="5.41249">
        <ele>334</ele>
        <time>2023-05-27T08:22:54Z</time>
      </trkpt>
      <trkpt lat="45.92642" lon="5.41251">
        <ele>334.2</ele>
        <time>2023-05-27T08:22:55Z</time>
      </trkpt>
      <trkpt lat="45.9264" lon="5.41252">
        <ele>334.4</ele>
        <time>2023-05-27T08:22:56Z</time>
      </trkpt>
      <trkpt lat="45.92637" lon="5.41253">
        <ele>334.4</ele>
        <time>2023-05-27T08:22:57Z</time>
      </trkpt>
      <trkpt lat="45.92634" lon="5.41254">
        <ele>334.6</ele>
        <time>2023-05-27T08:22:58Z</time>
      </trkpt>
      <trkpt lat="45.92631" lon="5.41255">
        <ele>334.8</ele>
        <time>2023-05-27T08:22:59Z</time>
      </trkpt>
      <trkpt lat="45.92628" lon="5.41256">
        <ele>335</ele>
        <time>2023-05-27T08:23:00Z</time>
      </trkpt>
      <trkpt lat="45.92625" lon="5.41257">
        <ele>335.2</ele>
        <time>2023-05-27T08:23:01Z</time>
      </trkpt>
      <trkpt lat="45.92622" lon="5.41258">
        <ele>335.2</ele>
        <time>2023-05-27T08:23:02Z</time>
      </trkpt>
      <trkpt lat="45.92619" lon="5.41259">
        <ele>335.4</ele>
        <time>2023-05-27T08:23:03Z</time>
      </trkpt>
      <trkpt lat="45.92616" lon="5.4126">
        <ele>335.4</ele>
        <time>2023-05-27T08:23:04Z</time>
      </trkpt>
      <trkpt lat="45.92613" lon="5.41262">
        <ele>335.8</ele>
        <time>2023-05-27T08:23:05Z</time>
      </trkpt>
      <trkpt lat="45.9261" lon="5.41263">
        <ele>335.8</ele>
        <time>2023-05-27T08:23:06Z</time>
      </trkpt>
      <trkpt lat="45.92607" lon="5.41265">
        <ele>336</ele>
        <time>2023-05-27T08:23:07Z</time>
      </trkpt>
      <trkpt lat="45.92605" lon="5.41267">
        <ele>336.4</ele>
        <time>2023-05-27T08:23:08Z</time>
      </trkpt>
      <trkpt lat="45.92603" lon="5.41268">
        <ele>336.6</ele>
        <time>2023-05-27T08:23:09Z</time>
      </trkpt>
      <trkpt lat="45.926" lon="5.4127">
        <ele>336.8</ele>
        <time>2023-05-27T08:23:10Z</time>
      </trkpt>
      <trkpt lat="45.92598" lon="5.41271">
        <ele>337</ele>
        <time>2023-05-27T08:23:11Z</time>
      </trkpt>
      <trkpt lat="45.92596" lon="5.41273">
        <ele>337.4</ele>
        <time>2023-05-27T08:23:12Z</time>
      </trkpt>
      <trkpt lat="45.92593" lon="5.41274">
        <ele>337.6</ele>
        <time>2023-05-27T08:23:13Z</time>
      </trkpt>
      <trkpt lat="45.92591" lon="5.41277">
        <ele>338</ele>
        <time>2023-05-27T08:23:14Z</time>
      </trkpt>
      <trkpt lat="45.92588" lon="5.41278">
        <ele>338.2</ele>
        <time>2023-05-27T08:23:15Z</time>
      </trkpt>
      <trkpt lat="45.92586" lon="5.4128">
        <ele>338.2</ele>
        <time>2023-05-27T08:23:16Z</time>
      </trkpt>
      <trkpt lat="45.92583" lon="5.41282">
        <ele>338.8</ele>
        <time>2023-05-27T08:23:17Z</time>
      </trkpt>
      <trkpt lat="45.92581" lon="5.41284">
        <ele>339</ele>
        <time>2023-05-27T08:23:18Z</time>
      </trkpt>
      <trkpt lat="45.92579" lon="5.41285">
        <ele>339.4</ele>
        <time>2023-05-27T08:23:19Z</time>
      </trkpt>
      <trkpt lat="45.92576" lon="5.41286">
        <ele>339.6</ele>
        <time>2023-05-27T08:23:20Z</time>
      </trkpt>
      <trkpt lat="45.92574" lon="5.41288">
        <ele>340</ele>
        <time>2023-05-27T08:23:21Z</time>
      </trkpt>
      <trkpt lat="45.92571" lon="5.4129">
        <ele>340.2</ele>
        <time>2023-05-27T08:23:22Z</time>
      </trkpt>
      <trkpt lat="45.92568" lon="5.41291">
        <ele>340</ele>
        <time>2023-05-27T08:23:23Z</time>
      </trkpt>
      <trkpt lat="45.92566" lon="5.41292">
        <ele>340.4</ele>
        <time>2023-05-27T08:23:24Z</time>
      </trkpt>
      <trkpt lat="45.92563" lon="5.41293">
        <ele>340.6</ele>
        <time>2023-05-27T08:23:25Z</time>
      </trkpt>
      <trkpt lat="45.92561" lon="5.41295">
        <ele>341</ele>
        <time>2023-05-27T08:23:26Z</time>
      </trkpt>
      <trkpt lat="45.92555" lon="5.41298">
        <ele>341.4</ele>
        <time>2023-05-27T08:23:28Z</time>
      </trkpt>
      <trkpt lat="45.92553" lon="5.41299">
        <ele>341.8</ele>
        <time>2023-05-27T08:23:29Z</time>
      </trkpt>
      <trkpt lat="45.9255" lon="5.41301">
        <ele>342</ele>
        <time>2023-05-27T08:23:30Z</time>
      </trkpt>
      <trkpt lat="45.92548" lon="5.41302">
        <ele>342.2</ele>
        <time>2023-05-27T08:23:31Z</time>
      </trkpt>
      <trkpt lat="45.92545" lon="5.41303">
        <ele>342.4</ele>
        <time>2023-05-27T08:23:32Z</time>
      </trkpt>
      <trkpt lat="45.92542" lon="5.41304">
        <ele>342.6</ele>
        <time>2023-05-27T08:23:33Z</time>
      </trkpt>
      <trkpt lat="45.9254" lon="5.41306">
        <ele>342.6</ele>
        <time>2023-05-27T08:23:34Z</time>
      </trkpt>
      <trkpt lat="45.92537" lon="5.41307">
        <ele>342.8</ele>
        <time>2023-05-27T08:23:35Z</time>
      </trkpt>
      <trkpt lat="45.92534" lon="5.41308">
        <ele>343</ele>
        <time>2023-05-27T08:23:36Z</time>
      </trkpt>
      <trkpt lat="45.92531" lon="5.41309">
        <ele>343</ele>
        <time>2023-05-27T08:23:37Z</time>
      </trkpt>
      <trkpt lat="45.92528" lon="5.4131">
        <ele>343.2</ele>
        <time>2023-05-27T08:23:38Z</time>
      </trkpt>
      <trkpt lat="45.92525" lon="5.41311">
        <ele>343.4</ele>
        <time>2023-05-27T08:23:39Z</time>
      </trkpt>
      <trkpt lat="45.9252" lon="5.41314">
        <ele>344</ele>
        <time>2023-05-27T08:23:41Z</time>
      </trkpt>
      <trkpt lat="45.92517" lon="5.41315">
        <ele>344.6</ele>
        <time>2023-05-27T08:23:42Z</time>
      </trkpt>
      <trkpt lat="45.92514" lon="5.41316">
        <ele>345</ele>
        <time>2023-05-27T08:23:43Z</time>
      </trkpt>
      <trkpt lat="45.92511" lon="5.41317">
        <ele>345.2</ele>
        <time>2023-05-27T08:23:44Z</time>
      </trkpt>
      <trkpt lat="45.92509" lon="5.41319">
        <ele>345.6</ele>
        <time>2023-05-27T08:23:45Z</time>
      </trkpt>
      <trkpt lat="45.92506" lon="5.4132">
        <ele>345.8</ele>
        <time>2023-05-27T08:23:46Z</time>
      </trkpt>
      <trkpt lat="45.92504" lon="5.41321">
        <ele>346.2</ele>
        <time>2023-05-27T08:23:47Z</time>
      </trkpt>
      <trkpt lat="45.92502" lon="5.41322">
        <ele>346.6</ele>
        <time>2023-05-27T08:23:48Z</time>
      </trkpt>
      <trkpt lat="45.92499" lon="5.41323">
        <ele>346.6</ele>
        <time>2023-05-27T08:23:49Z</time>
      </trkpt>
      <trkpt lat="45.92496" lon="5.41324">
        <ele>347</ele>
        <time>2023-05-27T08:23:50Z</time>
      </trkpt>
      <trkpt lat="45.9249" lon="5.41327">
        <ele>347.4</ele>
        <time>2023-05-27T08:23:52Z</time>
      </trkpt>
      <trkpt lat="45.92487" lon="5.41327">
        <ele>347.6</ele>
        <time>2023-05-27T08:23:53Z</time>
      </trkpt>
      <trkpt lat="45.92484" lon="5.41328">
        <ele>348</ele>
        <time>2023-05-27T08:23:54Z</time>
      </trkpt>
      <trkpt lat="45.9248" lon="5.41328">
        <ele>348.2</ele>
        <time>2023-05-27T08:23:55Z</time>
      </trkpt>
      <trkpt lat="45.92477" lon="5.41328">
        <ele>348.4</ele>
        <time>2023-05-27T08:23:56Z</time>
      </trkpt>
      <trkpt lat="45.92474" lon="5.41328">
        <ele>348.6</ele>
        <time>2023-05-27T08:23:57Z</time>
      </trkpt>
      <trkpt lat="45.92471" lon="5.41327">
        <ele>348.6</ele>
        <time>2023-05-27T08:23:58Z</time>
      </trkpt>
      <trkpt lat="45.92467" lon="5.41326">
        <ele>349</ele>
        <time>2023-05-27T08:23:59Z</time>
      </trkpt>
      <trkpt lat="45.92464" lon="5.41324">
        <ele>349</ele>
        <time>2023-05-27T08:24:00Z</time>
      </trkpt>
      <trkpt lat="45.92458" lon="5.4132">
        <ele>349.6</ele>
        <time>2023-05-27T08:24:02Z</time>
      </trkpt>
      <trkpt lat="45.92455" lon="5.41318">
        <ele>349.6</ele>
        <time>2023-05-27T08:24:03Z</time>
      </trkpt>
      <trkpt lat="45.92452" lon="5.41316">
        <ele>350</ele>
        <time>2023-05-27T08:24:04Z</time>
      </trkpt>
      <trkpt lat="45.92449" lon="5.41313">
        <ele>350.2</ele>
        <time>2023-05-27T08:24:05Z</time>
      </trkpt>
      <trkpt lat="45.92447" lon="5.41311">
        <ele>350.6</ele>
        <time>2023-05-27T08:24:06Z</time>
      </trkpt>
      <trkpt lat="45.92445" lon="5.4131">
        <ele>350.8</ele>
        <time>2023-05-27T08:24:07Z</time>
      </trkpt>
      <trkpt lat="45.92443" lon="5.41309">
        <ele>351</ele>
        <time>2023-05-27T08:24:08Z</time>
      </trkpt>
      <trkpt lat="45.9244" lon="5.41308">
        <ele>351.6</ele>
        <time>2023-05-27T08:24:09Z</time>
      </trkpt>
      <trkpt lat="45.92437" lon="5.41307">
        <ele>351.6</ele>
        <time>2023-05-27T08:24:10Z</time>
      </trkpt>
      <trkpt lat="45.92434" lon="5.41306">
        <ele>352.2</ele>
        <time>2023-05-27T08:24:11Z</time>
      </trkpt>
      <trkpt lat="45.9243" lon="5.41304">
        <ele>352.6</ele>
        <time>2023-05-27T08:24:13Z</time>
      </trkpt>
      <trkpt lat="45.92427" lon="5.41304">
        <ele>352.6</ele>
        <time>2023-05-27T08:24:14Z</time>
      </trkpt>
      <trkpt lat="45.92425" lon="5.41303">
        <ele>352.8</ele>
        <time>2023-05-27T08:24:15Z</time>
      </trkpt>
      <trkpt lat="45.92422" lon="5.41302">
        <ele>353</ele>
        <time>2023-05-27T08:24:16Z</time>
      </trkpt>
      <trkpt lat="45.92419" lon="5.41301">
        <ele>353</ele>
        <time>2023-05-27T08:24:17Z</time>
      </trkpt>
      <trkpt lat="45.92416" lon="5.413">
        <ele>353.2</ele>
        <time>2023-05-27T08:24:18Z</time>
      </trkpt>
      <trkpt lat="45.92413" lon="5.413">
        <ele>353.4</ele>
        <time>2023-05-27T08:24:19Z</time>
      </trkpt>
      <trkpt lat="45.9241" lon="5.413">
        <ele>353.4</ele>
        <time>2023-05-27T08:24:20Z</time>
      </trkpt>
      <trkpt lat="45.92407" lon="5.413">
        <ele>353.6</ele>
        <time>2023-05-27T08:24:21Z</time>
      </trkpt>
      <trkpt lat="45.92404" lon="5.41301">
        <ele>354</ele>
        <time>2023-05-27T08:24:22Z</time>
      </trkpt>
      <trkpt lat="45.92401" lon="5.41301">
        <ele>354.4</ele>
        <time>2023-05-27T08:24:23Z</time>
      </trkpt>
      <trkpt lat="45.92395" lon="5.41301">
        <ele>354.8</ele>
        <time>2023-05-27T08:24:25Z</time>
      </trkpt>
      <trkpt lat="45.92392" lon="5.41301">
        <ele>355</ele>
        <time>2023-05-27T08:24:26Z</time>
      </trkpt>
      <trkpt lat="45.92389" lon="5.41301">
        <ele>355.2</ele>
        <time>2023-05-27T08:24:27Z</time>
      </trkpt>
      <trkpt lat="45.92386" lon="5.41301">
        <ele>355.6</ele>
        <time>2023-05-27T08:24:28Z</time>
      </trkpt>
      <trkpt lat="45.92383" lon="5.41302">
        <ele>355.6</ele>
        <time>2023-05-27T08:24:29Z</time>
      </trkpt>
      <trkpt lat="45.92379" lon="5.41302">
        <ele>355.8</ele>
        <time>2023-05-27T08:24:30Z</time>
      </trkpt>
      <trkpt lat="45.92376" lon="5.41303">
        <ele>356.2</ele>
        <time>2023-05-27T08:24:31Z</time>
      </trkpt>
      <trkpt lat="45.92374" lon="5.41304">
        <ele>356.2</ele>
        <time>2023-05-27T08:24:32Z</time>
      </trkpt>
      <trkpt lat="45.92372" lon="5.41304">
        <ele>356.4</ele>
        <time>2023-05-27T08:24:33Z</time>
      </trkpt>
      <trkpt lat="45.92369" lon="5.41304">
        <ele>356.8</ele>
        <time>2023-05-27T08:24:34Z</time>
      </trkpt>
      <trkpt lat="45.92364" lon="5.41304">
        <ele>357.4</ele>
        <time>2023-05-27T08:24:36Z</time>
      </trkpt>
      <trkpt lat="45.92362" lon="5.41304">
        <ele>357.8</ele>
        <time>2023-05-27T08:24:37Z</time>
      </trkpt>
      <trkpt lat="45.92359" lon="5.41303">
        <ele>358</ele>
        <time>2023-05-27T08:24:38Z</time>
      </trkpt>
      <trkpt lat="45.92356" lon="5.41303">
        <ele>358.2</ele>
        <time>2023-05-27T08:24:39Z</time>
      </trkpt>
      <trkpt lat="45.92353" lon="5.41302">
        <ele>358.4</ele>
        <time>2023-05-27T08:24:40Z</time>
      </trkpt>
      <trkpt lat="45.92349" lon="5.413">
        <ele>358.6</ele>
        <time>2023-05-27T08:24:41Z</time>
      </trkpt>
      <trkpt lat="45.92346" lon="5.413">
        <ele>358.8</ele>
        <time>2023-05-27T08:24:42Z</time>
      </trkpt>
      <trkpt lat="45.92344" lon="5.41299">
        <ele>359</ele>
        <time>2023-05-27T08:24:43Z</time>
      </trkpt>
      <trkpt lat="45.92342" lon="5.41298">
        <ele>359.2</ele>
        <time>2023-05-27T08:24:44Z</time>
      </trkpt>
      <trkpt lat="45.9234" lon="5.41296">
        <ele>359.6</ele>
        <time>2023-05-27T08:24:45Z</time>
      </trkpt>
      <trkpt lat="45.92337" lon="5.41295">
        <ele>360</ele>
        <time>2023-05-27T08:24:46Z</time>
      </trkpt>
      <trkpt lat="45.92334" lon="5.41293">
        <ele>360.2</ele>
        <time>2023-05-27T08:24:47Z</time>
      </trkpt>
      <trkpt lat="45.92332" lon="5.41292">
        <ele>360.6</ele>
        <time>2023-05-27T08:24:48Z</time>
      </trkpt>
      <trkpt lat="45.92329" lon="5.4129">
        <ele>360.8</ele>
        <time>2023-05-27T08:24:49Z</time>
      </trkpt>
      <trkpt lat="45.92327" lon="5.41287">
        <ele>361</ele>
        <time>2023-05-27T08:24:50Z</time>
      </trkpt>
      <trkpt lat="45.92324" lon="5.41284">
        <ele>361.2</ele>
        <time>2023-05-27T08:24:51Z</time>
      </trkpt>
      <trkpt lat="45.92322" lon="5.41282">
        <ele>361.4</ele>
        <time>2023-05-27T08:24:52Z</time>
      </trkpt>
      <trkpt lat="45.9232" lon="5.4128">
        <ele>361.6</ele>
        <time>2023-05-27T08:24:53Z</time>
      </trkpt>
      <trkpt lat="45.92317" lon="5.41278">
        <ele>361.8</ele>
        <time>2023-05-27T08:24:54Z</time>
      </trkpt>
      <trkpt lat="45.92314" lon="5.41275">
        <ele>362.4</ele>
        <time>2023-05-27T08:24:55Z</time>
      </trkpt>
      <trkpt lat="45.92312" lon="5.41273">
        <ele>362.6</ele>
        <time>2023-05-27T08:24:56Z</time>
      </trkpt>
      <trkpt lat="45.92306" lon="5.41267">
        <ele>363.8</ele>
        <time>2023-05-27T08:24:58Z</time>
      </trkpt>
      <trkpt lat="45.92304" lon="5.41265">
        <ele>363.8</ele>
        <time>2023-05-27T08:24:59Z</time>
      </trkpt>
      <trkpt lat="45.92302" lon="5.41263">
        <ele>364</ele>
        <time>2023-05-27T08:25:00Z</time>
      </trkpt>
      <trkpt lat="45.92299" lon="5.4126">
        <ele>364</ele>
        <time>2023-05-27T08:25:01Z</time>
      </trkpt>
      <trkpt lat="45.92297" lon="5.41258">
        <ele>364.2</ele>
        <time>2023-05-27T08:25:02Z</time>
      </trkpt>
      <trkpt lat="45.92295" lon="5.41255">
        <ele>364.4</ele>
        <time>2023-05-27T08:25:03Z</time>
      </trkpt>
      <trkpt lat="45.92292" lon="5.41253">
        <ele>364.6</ele>
        <time>2023-05-27T08:25:04Z</time>
      </trkpt>
      <trkpt lat="45.92289" lon="5.41251">
        <ele>364.8</ele>
        <time>2023-05-27T08:25:05Z</time>
      </trkpt>
      <trkpt lat="45.92287" lon="5.41249">
        <ele>365</ele>
        <time>2023-05-27T08:25:06Z</time>
      </trkpt>
      <trkpt lat="45.92284" lon="5.41247">
        <ele>365.2</ele>
        <time>2023-05-27T08:25:07Z</time>
      </trkpt>
      <trkpt lat="45.92279" lon="5.41242">
        <ele>365.8</ele>
        <time>2023-05-27T08:25:09Z</time>
      </trkpt>
      <trkpt lat="45.92277" lon="5.4124">
        <ele>366</ele>
        <time>2023-05-27T08:25:10Z</time>
      </trkpt>
      <trkpt lat="45.92274" lon="5.41238">
        <ele>366.2</ele>
        <time>2023-05-27T08:25:11Z</time>
      </trkpt>
      <trkpt lat="45.92271" lon="5.41236">
        <ele>366.6</ele>
        <time>2023-05-27T08:25:12Z</time>
      </trkpt>
      <trkpt lat="45.92269" lon="5.41234">
        <ele>366.6</ele>
        <time>2023-05-27T08:25:13Z</time>
      </trkpt>
      <trkpt lat="45.92265" lon="5.41232">
        <ele>366.8</ele>
        <time>2023-05-27T08:25:14Z</time>
      </trkpt>
      <trkpt lat="45.92262" lon="5.4123">
        <ele>367</ele>
        <time>2023-05-27T08:25:15Z</time>
      </trkpt>
      <trkpt lat="45.92259" lon="5.41227">
        <ele>367.2</ele>
        <time>2023-05-27T08:25:16Z</time>
      </trkpt>
      <trkpt lat="45.92257" lon="5.41225">
        <ele>367.4</ele>
        <time>2023-05-27T08:25:17Z</time>
      </trkpt>
      <trkpt lat="45.92255" lon="5.41222">
        <ele>367.8</ele>
        <time>2023-05-27T08:25:18Z</time>
      </trkpt>
      <trkpt lat="45.92252" lon="5.4122">
        <ele>368.2</ele>
        <time>2023-05-27T08:25:19Z</time>
      </trkpt>
      <trkpt lat="45.92248" lon="5.41218">
        <ele>368.2</ele>
        <time>2023-05-27T08:25:20Z</time>
      </trkpt>
      <trkpt lat="45.92245" lon="5.41215">
        <ele>368.4</ele>
        <time>2023-05-27T08:25:21Z</time>
      </trkpt>
      <trkpt lat="45.92243" lon="5.41213">
        <ele>368.4</ele>
        <time>2023-05-27T08:25:22Z</time>
      </trkpt>
      <trkpt lat="45.9224" lon="5.4121">
        <ele>368.6</ele>
        <time>2023-05-27T08:25:23Z</time>
      </trkpt>
      <trkpt lat="45.92237" lon="5.41207">
        <ele>368.6</ele>
        <time>2023-05-27T08:25:24Z</time>
      </trkpt>
      <trkpt lat="45.92234" lon="5.41204">
        <ele>368.8</ele>
        <time>2023-05-27T08:25:25Z</time>
      </trkpt>
      <trkpt lat="45.92231" lon="5.41201">
        <ele>368.8</ele>
        <time>2023-05-27T08:25:26Z</time>
      </trkpt>
      <trkpt lat="45.92228" lon="5.41199">
        <ele>368.8</ele>
        <time>2023-05-27T08:25:27Z</time>
      </trkpt>
      <trkpt lat="45.92222" lon="5.41194">
        <ele>369</ele>
        <time>2023-05-27T08:25:29Z</time>
      </trkpt>
      <trkpt lat="45.92219" lon="5.41191">
        <ele>369</ele>
        <time>2023-05-27T08:25:30Z</time>
      </trkpt>
      <trkpt lat="45.92216" lon="5.41188">
        <ele>369</ele>
        <time>2023-05-27T08:25:31Z</time>
      </trkpt>
      <trkpt lat="45.92213" lon="5.41186">
        <ele>369.2</ele>
        <time>2023-05-27T08:25:32Z</time>
      </trkpt>
      <trkpt lat="45.92208" lon="5.41183">
        <ele>369.4</ele>
        <time>2023-05-27T08:25:33Z</time>
      </trkpt>
      <trkpt lat="45.92205" lon="5.4118">
        <ele>369.4</ele>
        <time>2023-05-27T08:25:34Z</time>
      </trkpt>
      <trkpt lat="45.92202" lon="5.41176">
        <ele>369.6</ele>
        <time>2023-05-27T08:25:35Z</time>
      </trkpt>
      <trkpt lat="45.92199" lon="5.41173">
        <ele>369.8</ele>
        <time>2023-05-27T08:25:36Z</time>
      </trkpt>
      <trkpt lat="45.92196" lon="5.4117">
        <ele>369.8</ele>
        <time>2023-05-27T08:25:37Z</time>
      </trkpt>
      <trkpt lat="45.92192" lon="5.41167">
        <ele>370</ele>
        <time>2023-05-27T08:25:38Z</time>
      </trkpt>
      <trkpt lat="45.92189" lon="5.41165">
        <ele>370</ele>
        <time>2023-05-27T08:25:39Z</time>
      </trkpt>
      <trkpt lat="45.92186" lon="5.41162">
        <ele>370.2</ele>
        <time>2023-05-27T08:25:40Z</time>
      </trkpt>
      <trkpt lat="45.92184" lon="5.4116">
        <ele>370.2</ele>
        <time>2023-05-27T08:25:41Z</time>
      </trkpt>
      <trkpt lat="45.9218" lon="5.41156">
        <ele>370.6</ele>
        <time>2023-05-27T08:25:42Z</time>
      </trkpt>
      <trkpt lat="45.92174" lon="5.41151">
        <ele>371</ele>
        <time>2023-05-27T08:25:44Z</time>
      </trkpt>
      <trkpt lat="45.92171" lon="5.41148">
        <ele>371</ele>
        <time>2023-05-27T08:25:45Z</time>
      </trkpt>
      <trkpt lat="45.92168" lon="5.41146">
        <ele>371.2</ele>
        <time>2023-05-27T08:25:46Z</time>
      </trkpt>
      <trkpt lat="45.92165" lon="5.41144">
        <ele>371.4</ele>
        <time>2023-05-27T08:25:47Z</time>
      </trkpt>
      <trkpt lat="45.92162" lon="5.41141">
        <ele>371.4</ele>
        <time>2023-05-27T08:25:48Z</time>
      </trkpt>
      <trkpt lat="45.92159" lon="5.41139">
        <ele>371.6</ele>
        <time>2023-05-27T08:25:49Z</time>
      </trkpt>
      <trkpt lat="45.92156" lon="5.41136">
        <ele>371.8</ele>
        <time>2023-05-27T08:25:50Z</time>
      </trkpt>
      <trkpt lat="45.92154" lon="5.41134">
        <ele>372</ele>
        <time>2023-05-27T08:25:51Z</time>
      </trkpt>
      <trkpt lat="45.92148" lon="5.41129">
        <ele>372.2</ele>
        <time>2023-05-27T08:25:53Z</time>
      </trkpt>
      <trkpt lat="45.92145" lon="5.41126">
        <ele>372.2</ele>
        <time>2023-05-27T08:25:54Z</time>
      </trkpt>
      <trkpt lat="45.92141" lon="5.41124">
        <ele>372.4</ele>
        <time>2023-05-27T08:25:55Z</time>
      </trkpt>
      <trkpt lat="45.92138" lon="5.41122">
        <ele>372.8</ele>
        <time>2023-05-27T08:25:56Z</time>
      </trkpt>
      <trkpt lat="45.92135" lon="5.4112">
        <ele>373</ele>
        <time>2023-05-27T08:25:57Z</time>
      </trkpt>
      <trkpt lat="45.92132" lon="5.41118">
        <ele>373.2</ele>
        <time>2023-05-27T08:25:58Z</time>
      </trkpt>
      <trkpt lat="45.9213" lon="5.41115">
        <ele>373.2</ele>
        <time>2023-05-27T08:25:59Z</time>
      </trkpt>
      <trkpt lat="45.92127" lon="5.41113">
        <ele>373.6</ele>
        <time>2023-05-27T08:26:00Z</time>
      </trkpt>
      <trkpt lat="45.92124" lon="5.41111">
        <ele>374</ele>
        <time>2023-05-27T08:26:01Z</time>
      </trkpt>
      <trkpt lat="45.92118" lon="5.41108">
        <ele>374.2</ele>
        <time>2023-05-27T08:26:03Z</time>
      </trkpt>
      <trkpt lat="45.92116" lon="5.41106">
        <ele>374.4</ele>
        <time>2023-05-27T08:26:04Z</time>
      </trkpt>
      <trkpt lat="45.92113" lon="5.41105">
        <ele>374.6</ele>
        <time>2023-05-27T08:26:05Z</time>
      </trkpt>
      <trkpt lat="45.9211" lon="5.41103">
        <ele>374.8</ele>
        <time>2023-05-27T08:26:06Z</time>
      </trkpt>
      <trkpt lat="45.92106" lon="5.41101">
        <ele>374.8</ele>
        <time>2023-05-27T08:26:07Z</time>
      </trkpt>
      <trkpt lat="45.92103" lon="5.41099">
        <ele>375.4</ele>
        <time>2023-05-27T08:26:08Z</time>
      </trkpt>
      <trkpt lat="45.921" lon="5.41098">
        <ele>375.6</ele>
        <time>2023-05-27T08:26:09Z</time>
      </trkpt>
      <trkpt lat="45.92097" lon="5.41097">
        <ele>375.8</ele>
        <time>2023-05-27T08:26:10Z</time>
      </trkpt>
      <trkpt lat="45.92094" lon="5.41097">
        <ele>376</ele>
        <time>2023-05-27T08:26:11Z</time>
      </trkpt>
      <trkpt lat="45.92088" lon="5.41096">
        <ele>376.2</ele>
        <time>2023-05-27T08:26:13Z</time>
      </trkpt>
      <trkpt lat="45.92085" lon="5.41096">
        <ele>376.6</ele>
        <time>2023-05-27T08:26:14Z</time>
      </trkpt>
      <trkpt lat="45.92082" lon="5.41095">
        <ele>376.8</ele>
        <time>2023-05-27T08:26:15Z</time>
      </trkpt>
      <trkpt lat="45.92079" lon="5.41095">
        <ele>376.8</ele>
        <time>2023-05-27T08:26:16Z</time>
      </trkpt>
      <trkpt lat="45.92077" lon="5.41094">
        <ele>377.2</ele>
        <time>2023-05-27T08:26:17Z</time>
      </trkpt>
      <trkpt lat="45.92075" lon="5.41094">
        <ele>377.4</ele>
        <time>2023-05-27T08:26:18Z</time>
      </trkpt>
      <trkpt lat="45.92072" lon="5.41093">
        <ele>377.8</ele>
        <time>2023-05-27T08:26:19Z</time>
      </trkpt>
      <trkpt lat="45.92069" lon="5.41092">
        <ele>378</ele>
        <time>2023-05-27T08:26:20Z</time>
      </trkpt>
      <trkpt lat="45.92064" lon="5.41091">
        <ele>378.4</ele>
        <time>2023-05-27T08:26:22Z</time>
      </trkpt>
      <trkpt lat="45.92061" lon="5.4109">
        <ele>378.6</ele>
        <time>2023-05-27T08:26:23Z</time>
      </trkpt>
      <trkpt lat="45.92058" lon="5.41089">
        <ele>378.8</ele>
        <time>2023-05-27T08:26:24Z</time>
      </trkpt>
      <trkpt lat="45.92055" lon="5.41089">
        <ele>378.8</ele>
        <time>2023-05-27T08:26:25Z</time>
      </trkpt>
      <trkpt lat="45.92051" lon="5.41088">
        <ele>379</ele>
        <time>2023-05-27T08:26:26Z</time>
      </trkpt>
      <trkpt lat="45.92048" lon="5.41087">
        <ele>379.2</ele>
        <time>2023-05-27T08:26:27Z</time>
      </trkpt>
      <trkpt lat="45.92045" lon="5.41087">
        <ele>379.4</ele>
        <time>2023-05-27T08:26:28Z</time>
      </trkpt>
      <trkpt lat="45.92042" lon="5.41086">
        <ele>379.6</ele>
        <time>2023-05-27T08:26:29Z</time>
      </trkpt>
      <trkpt lat="45.92039" lon="5.41085">
        <ele>379.8</ele>
        <time>2023-05-27T08:26:30Z</time>
      </trkpt>
      <trkpt lat="45.92036" lon="5.41085">
        <ele>380</ele>
        <time>2023-05-27T08:26:31Z</time>
      </trkpt>
      <trkpt lat="45.92029" lon="5.41085">
        <ele>380.2</ele>
        <time>2023-05-27T08:26:33Z</time>
      </trkpt>
      <trkpt lat="45.92025" lon="5.41086">
        <ele>380.4</ele>
        <time>2023-05-27T08:26:34Z</time>
      </trkpt>
      <trkpt lat="45.92023" lon="5.41088">
        <ele>380.4</ele>
        <time>2023-05-27T08:26:35Z</time>
      </trkpt>
      <trkpt lat="45.9202" lon="5.41091">
        <ele>380.6</ele>
        <time>2023-05-27T08:26:36Z</time>
      </trkpt>
      <trkpt lat="45.92019" lon="5.41093">
        <ele>380.6</ele>
        <time>2023-05-27T08:26:37Z</time>
      </trkpt>
      <trkpt lat="45.92017" lon="5.41097">
        <ele>380.6</ele>
        <time>2023-05-27T08:26:38Z</time>
      </trkpt>
      <trkpt lat="45.92015" lon="5.41101">
        <ele>380.8</ele>
        <time>2023-05-27T08:26:39Z</time>
      </trkpt>
      <trkpt lat="45.92015" lon="5.41105">
        <ele>380.8</ele>
        <time>2023-05-27T08:26:40Z</time>
      </trkpt>
      <trkpt lat="45.92016" lon="5.41109">
        <ele>381</ele>
        <time>2023-05-27T08:26:41Z</time>
      </trkpt>
      <trkpt lat="45.92018" lon="5.41112">
        <ele>381</ele>
        <time>2023-05-27T08:26:42Z</time>
      </trkpt>
      <trkpt lat="45.9202" lon="5.41116">
        <ele>381</ele>
        <time>2023-05-27T08:26:43Z</time>
      </trkpt>
      <trkpt lat="45.92023" lon="5.41118">
        <ele>381</ele>
        <time>2023-05-27T08:26:44Z</time>
      </trkpt>
      <trkpt lat="45.92026" lon="5.4112">
        <ele>381.2</ele>
        <time>2023-05-27T08:26:45Z</time>
      </trkpt>
      <trkpt lat="45.92029" lon="5.41121">
        <ele>381.2</ele>
        <time>2023-05-27T08:26:46Z</time>
      </trkpt>
      <trkpt lat="45.92032" lon="5.41122">
        <ele>381.4</ele>
        <time>2023-05-27T08:26:47Z</time>
      </trkpt>
      <trkpt lat="45.92035" lon="5.41122">
        <ele>381.4</ele>
        <time>2023-05-27T08:26:48Z</time>
      </trkpt>
      <trkpt lat="45.92038" lon="5.41123">
        <ele>381.4</ele>
        <time>2023-05-27T08:26:49Z</time>
      </trkpt>
      <trkpt lat="45.92041" lon="5.41123">
        <ele>381.4</ele>
        <time>2023-05-27T08:26:50Z</time>
      </trkpt>
      <trkpt lat="45.92044" lon="5.41123">
        <ele>381.4</ele>
        <time>2023-05-27T08:26:51Z</time>
      </trkpt>
      <trkpt lat="45.92047" lon="5.41123">
        <ele>381.6</ele>
        <time>2023-05-27T08:26:52Z</time>
      </trkpt>
      <trkpt lat="45.9205" lon="5.41124">
        <ele>381.6</ele>
        <time>2023-05-27T08:26:53Z</time>
      </trkpt>
      <trkpt lat="45.92053" lon="5.41124">
        <ele>381.8</ele>
        <time>2023-05-27T08:26:54Z</time>
      </trkpt>
      <trkpt lat="45.92056" lon="5.41124">
        <ele>381.8</ele>
        <time>2023-05-27T08:26:55Z</time>
      </trkpt>
      <trkpt lat="45.92058" lon="5.41124">
        <ele>382</ele>
        <time>2023-05-27T08:26:56Z</time>
      </trkpt>
      <trkpt lat="45.92061" lon="5.41124">
        <ele>382.2</ele>
        <time>2023-05-27T08:26:57Z</time>
      </trkpt>
      <trkpt lat="45.92063" lon="5.41125">
        <ele>382.4</ele>
        <time>2023-05-27T08:26:58Z</time>
      </trkpt>
      <trkpt lat="45.92066" lon="5.41126">
        <ele>382.8</ele>
        <time>2023-05-27T08:26:59Z</time>
      </trkpt>
      <trkpt lat="45.92069" lon="5.41127">
        <ele>383</ele>
        <time>2023-05-27T08:27:00Z</time>
      </trkpt>
      <trkpt lat="45.92072" lon="5.41128">
        <ele>383.2</ele>
        <time>2023-05-27T08:27:01Z</time>
      </trkpt>
      <trkpt lat="45.92075" lon="5.4113">
        <ele>383.4</ele>
        <time>2023-05-27T08:27:02Z</time>
      </trkpt>
      <trkpt lat="45.9208" lon="5.41134">
        <ele>383.8</ele>
        <time>2023-05-27T08:27:04Z</time>
      </trkpt>
      <trkpt lat="45.92082" lon="5.41137">
        <ele>383.8</ele>
        <time>2023-05-27T08:27:05Z</time>
      </trkpt>
      <trkpt lat="45.92085" lon="5.41139">
        <ele>384.4</ele>
        <time>2023-05-27T08:27:06Z</time>
      </trkpt>
      <trkpt lat="45.92087" lon="5.41142">
        <ele>384.4</ele>
        <time>2023-05-27T08:27:07Z</time>
      </trkpt>
      <trkpt lat="45.9209" lon="5.41145">
        <ele>385</ele>
        <time>2023-05-27T08:27:08Z</time>
      </trkpt>
      <trkpt lat="45.92091" lon="5.41148">
        <ele>385.4</ele>
        <time>2023-05-27T08:27:09Z</time>
      </trkpt>
      <trkpt lat="45.92093" lon="5.41151">
        <ele>385.4</ele>
        <time>2023-05-27T08:27:10Z</time>
      </trkpt>
      <trkpt lat="45.92095" lon="5.41155">
        <ele>385.8</ele>
        <time>2023-05-27T08:27:11Z</time>
      </trkpt>
      <trkpt lat="45.92096" lon="5.41158">
        <ele>386</ele>
        <time>2023-05-27T08:27:12Z</time>
      </trkpt>
      <trkpt lat="45.92098" lon="5.41162">
        <ele>386.4</ele>
        <time>2023-05-27T08:27:13Z</time>
      </trkpt>
      <trkpt lat="45.92099" lon="5.41166">
        <ele>386.6</ele>
        <time>2023-05-27T08:27:14Z</time>
      </trkpt>
      <trkpt lat="45.921" lon="5.4117">
        <ele>387.2</ele>
        <time>2023-05-27T08:27:15Z</time>
      </trkpt>
      <trkpt lat="45.92101" lon="5.41173">
        <ele>387.4</ele>
        <time>2023-05-27T08:27:16Z</time>
      </trkpt>
      <trkpt lat="45.92102" lon="5.41177">
        <ele>387.6</ele>
        <time>2023-05-27T08:27:17Z</time>
      </trkpt>
      <trkpt lat="45.92103" lon="5.41181">
        <ele>387.8</ele>
        <time>2023-05-27T08:27:18Z</time>
      </trkpt>
      <trkpt lat="45.92104" lon="5.41185">
        <ele>387.8</ele>
        <time>2023-05-27T08:27:19Z</time>
      </trkpt>
      <trkpt lat="45.92105" lon="5.41188">
        <ele>388</ele>
        <time>2023-05-27T08:27:20Z</time>
      </trkpt>
      <trkpt lat="45.92106" lon="5.41192">
        <ele>388</ele>
        <time>2023-05-27T08:27:21Z</time>
      </trkpt>
      <trkpt lat="45.92107" lon="5.41196">
        <ele>388</ele>
        <time>2023-05-27T08:27:22Z</time>
      </trkpt>
      <trkpt lat="45.92109" lon="5.412">
        <ele>388</ele>
        <time>2023-05-27T08:27:23Z</time>
      </trkpt>
      <trkpt lat="45.9211" lon="5.41204">
        <ele>388.2</ele>
        <time>2023-05-27T08:27:24Z</time>
      </trkpt>
      <trkpt lat="45.92112" lon="5.41207">
        <ele>388.2</ele>
        <time>2023-05-27T08:27:25Z</time>
      </trkpt>
      <trkpt lat="45.92114" lon="5.4121">
        <ele>388.2</ele>
        <time>2023-05-27T08:27:26Z</time>
      </trkpt>
      <trkpt lat="45.92115" lon="5.41214">
        <ele>388.4</ele>
        <time>2023-05-27T08:27:27Z</time>
      </trkpt>
      <trkpt lat="45.92117" lon="5.41217">
        <ele>388.6</ele>
        <time>2023-05-27T08:27:28Z</time>
      </trkpt>
      <trkpt lat="45.92119" lon="5.4122">
        <ele>389</ele>
        <time>2023-05-27T08:27:29Z</time>
      </trkpt>
      <trkpt lat="45.92121" lon="5.41223">
        <ele>389.2</ele>
        <time>2023-05-27T08:27:30Z</time>
      </trkpt>
      <trkpt lat="45.92123" lon="5.41226">
        <ele>389.2</ele>
        <time>2023-05-27T08:27:31Z</time>
      </trkpt>
      <trkpt lat="45.92124" lon="5.41229">
        <ele>389.2</ele>
        <time>2023-05-27T08:27:32Z</time>
      </trkpt>
      <trkpt lat="45.92126" lon="5.41231">
        <ele>389.4</ele>
        <time>2023-05-27T08:27:33Z</time>
      </trkpt>
      <trkpt lat="45.92128" lon="5.41234">
        <ele>389.6</ele>
        <time>2023-05-27T08:27:34Z</time>
      </trkpt>
      <trkpt lat="45.92129" lon="5.41238">
        <ele>389.6</ele>
        <time>2023-05-27T08:27:35Z</time>
      </trkpt>
      <trkpt lat="45.92131" lon="5.41241">
        <ele>389.8</ele>
        <time>2023-05-27T08:27:36Z</time>
      </trkpt>
      <trkpt lat="45.92133" lon="5.41244">
        <ele>389.8</ele>
        <time>2023-05-27T08:27:37Z</time>
      </trkpt>
      <trkpt lat="45.92134" lon="5.41248">
        <ele>390</ele>
        <time>2023-05-27T08:27:38Z</time>
      </trkpt>
      <trkpt lat="45.92136" lon="5.4125">
        <ele>390</ele>
        <time>2023-05-27T08:27:39Z</time>
      </trkpt>
      <trkpt lat="45.92138" lon="5.41253">
        <ele>390.2</ele>
        <time>2023-05-27T08:27:40Z</time>
      </trkpt>
      <trkpt lat="45.92139" lon="5.41256">
        <ele>390.4</ele>
        <time>2023-05-27T08:27:41Z</time>
      </trkpt>
      <trkpt lat="45.92141" lon="5.41259">
        <ele>390.6</ele>
        <time>2023-05-27T08:27:42Z</time>
      </trkpt>
      <trkpt lat="45.92142" lon="5.41262">
        <ele>391</ele>
        <time>2023-05-27T08:27:43Z</time>
      </trkpt>
      <trkpt lat="45.92144" lon="5.41265">
        <ele>391.4</ele>
        <time>2023-05-27T08:27:44Z</time>
      </trkpt>
      <trkpt lat="45.92146" lon="5.41268">
        <ele>391.4</ele>
        <time>2023-05-27T08:27:45Z</time>
      </trkpt>
      <trkpt lat="45.92148" lon="5.41272">
        <ele>391.6</ele>
        <time>2023-05-27T08:27:46Z</time>
      </trkpt>
      <trkpt lat="45.9215" lon="5.41275">
        <ele>391.8</ele>
        <time>2023-05-27T08:27:47Z</time>
      </trkpt>
      <trkpt lat="45.92152" lon="5.41278">
        <ele>392.2</ele>
        <time>2023-05-27T08:27:48Z</time>
      </trkpt>
      <trkpt lat="45.92153" lon="5.41281">
        <ele>392.2</ele>
        <time>2023-05-27T08:27:49Z</time>
      </trkpt>
      <trkpt lat="45.92155" lon="5.41284">
        <ele>392.6</ele>
        <time>2023-05-27T08:27:50Z</time>
      </trkpt>
      <trkpt lat="45.92157" lon="5.41287">
        <ele>392.6</ele>
        <time>2023-05-27T08:27:51Z</time>
      </trkpt>
      <trkpt lat="45.92159" lon="5.4129">
        <ele>392.8</ele>
        <time>2023-05-27T08:27:52Z</time>
      </trkpt>
      <trkpt lat="45.9216" lon="5.41292">
        <ele>393</ele>
        <time>2023-05-27T08:27:53Z</time>
      </trkpt>
      <trkpt lat="45.92162" lon="5.41295">
        <ele>393</ele>
        <time>2023-05-27T08:27:54Z</time>
      </trkpt>
      <trkpt lat="45.92164" lon="5.41298">
        <ele>393.4</ele>
        <time>2023-05-27T08:27:55Z</time>
      </trkpt>
      <trkpt lat="45.92166" lon="5.413">
        <ele>393.6</ele>
        <time>2023-05-27T08:27:56Z</time>
      </trkpt>
      <trkpt lat="45.92168" lon="5.41303">
        <ele>393.8</ele>
        <time>2023-05-27T08:27:57Z</time>
      </trkpt>
      <trkpt lat="45.9217" lon="5.41306">
        <ele>393.8</ele>
        <time>2023-05-27T08:27:58Z</time>
      </trkpt>
      <trkpt lat="45.92173" lon="5.41312">
        <ele>394.2</ele>
        <time>2023-05-27T08:28:00Z</time>
      </trkpt>
      <trkpt lat="45.92174" lon="5.41315">
        <ele>394.4</ele>
        <time>2023-05-27T08:28:01Z</time>
      </trkpt>
      <trkpt lat="45.92175" lon="5.41318">
        <ele>394.8</ele>
        <time>2023-05-27T08:28:02Z</time>
      </trkpt>
      <trkpt lat="45.92177" lon="5.41321">
        <ele>394.8</ele>
        <time>2023-05-27T08:28:03Z</time>
      </trkpt>
      <trkpt lat="45.92178" lon="5.41324">
        <ele>395.2</ele>
        <time>2023-05-27T08:28:04Z</time>
      </trkpt>
      <trkpt lat="45.9218" lon="5.41327">
        <ele>395.4</ele>
        <time>2023-05-27T08:28:05Z</time>
      </trkpt>
      <trkpt lat="45.92181" lon="5.4133">
        <ele>395.6</ele>
        <time>2023-05-27T08:28:06Z</time>
      </trkpt>
      <trkpt lat="45.92182" lon="5.41335">
        <ele>396</ele>
        <time>2023-05-27T08:28:07Z</time>
      </trkpt>
      <trkpt lat="45.92183" lon="5.41337">
        <ele>396</ele>
        <time>2023-05-27T08:28:08Z</time>
      </trkpt>
      <trkpt lat="45.92184" lon="5.4134">
        <ele>396.2</ele>
        <time>2023-05-27T08:28:09Z</time>
      </trkpt>
      <trkpt lat="45.92185" lon="5.41344">
        <ele>396.4</ele>
        <time>2023-05-27T08:28:10Z</time>
      </trkpt>
      <trkpt lat="45.92186" lon="5.41347">
        <ele>396.6</ele>
        <time>2023-05-27T08:28:11Z</time>
      </trkpt>
      <trkpt lat="45.92188" lon="5.41353">
        <ele>396.8</ele>
        <time>2023-05-27T08:28:13Z</time>
      </trkpt>
      <trkpt lat="45.92189" lon="5.41357">
        <ele>397</ele>
        <time>2023-05-27T08:28:14Z</time>
      </trkpt>
      <trkpt lat="45.9219" lon="5.41361">
        <ele>397.2</ele>
        <time>2023-05-27T08:28:15Z</time>
      </trkpt>
      <trkpt lat="45.92191" lon="5.41364">
        <ele>397.6</ele>
        <time>2023-05-27T08:28:16Z</time>
      </trkpt>
      <trkpt lat="45.92192" lon="5.41368">
        <ele>397.8</ele>
        <time>2023-05-27T08:28:17Z</time>
      </trkpt>
      <trkpt lat="45.92193" lon="5.41371">
        <ele>398.2</ele>
        <time>2023-05-27T08:28:18Z</time>
      </trkpt>
      <trkpt lat="45.92195" lon="5.41374">
        <ele>398.4</ele>
        <time>2023-05-27T08:28:19Z</time>
      </trkpt>
      <trkpt lat="45.92196" lon="5.41377">
        <ele>398.6</ele>
        <time>2023-05-27T08:28:20Z</time>
      </trkpt>
      <trkpt lat="45.92198" lon="5.41381">
        <ele>398.8</ele>
        <time>2023-05-27T08:28:21Z</time>
      </trkpt>
      <trkpt lat="45.922" lon="5.41384">
        <ele>398.8</ele>
        <time>2023-05-27T08:28:22Z</time>
      </trkpt>
      <trkpt lat="45.92201" lon="5.41386">
        <ele>399.2</ele>
        <time>2023-05-27T08:28:23Z</time>
      </trkpt>
      <trkpt lat="45.92204" lon="5.41391">
        <ele>399.6</ele>
        <time>2023-05-27T08:28:25Z</time>
      </trkpt>
      <trkpt lat="45.92206" lon="5.41395">
        <ele>399.8</ele>
        <time>2023-05-27T08:28:26Z</time>
      </trkpt>
      <trkpt lat="45.92207" lon="5.41398">
        <ele>400</ele>
        <time>2023-05-27T08:28:27Z</time>
      </trkpt>
      <trkpt lat="45.92209" lon="5.41401">
        <ele>400.4</ele>
        <time>2023-05-27T08:28:28Z</time>
      </trkpt>
      <trkpt lat="45.92211" lon="5.41404">
        <ele>400.6</ele>
        <time>2023-05-27T08:28:29Z</time>
      </trkpt>
      <trkpt lat="45.92213" lon="5.41407">
        <ele>400.8</ele>
        <time>2023-05-27T08:28:30Z</time>
      </trkpt>
      <trkpt lat="45.92215" lon="5.4141">
        <ele>400.8</ele>
        <time>2023-05-27T08:28:31Z</time>
      </trkpt>
      <trkpt lat="45.92217" lon="5.41413">
        <ele>401</ele>
        <time>2023-05-27T08:28:32Z</time>
      </trkpt>
      <trkpt lat="45.92219" lon="5.41416">
        <ele>401</ele>
        <time>2023-05-27T08:28:33Z</time>
      </trkpt>
      <trkpt lat="45.92221" lon="5.4142">
        <ele>401.4</ele>
        <time>2023-05-27T08:28:34Z</time>
      </trkpt>
      <trkpt lat="45.92223" lon="5.41422">
        <ele>401.6</ele>
        <time>2023-05-27T08:28:35Z</time>
      </trkpt>
      <trkpt lat="45.92226" lon="5.41424">
        <ele>402</ele>
        <time>2023-05-27T08:28:36Z</time>
      </trkpt>
      <trkpt lat="45.92228" lon="5.41426">
        <ele>402.4</ele>
        <time>2023-05-27T08:28:37Z</time>
      </trkpt>
      <trkpt lat="45.92231" lon="5.41428">
        <ele>402.8</ele>
        <time>2023-05-27T08:28:38Z</time>
      </trkpt>
      <trkpt lat="45.92234" lon="5.4143">
        <ele>403.2</ele>
        <time>2023-05-27T08:28:39Z</time>
      </trkpt>
      <trkpt lat="45.92236" lon="5.41432">
        <ele>403.6</ele>
        <time>2023-05-27T08:28:40Z</time>
      </trkpt>
      <trkpt lat="45.92239" lon="5.41433">
        <ele>403.8</ele>
        <time>2023-05-27T08:28:41Z</time>
      </trkpt>
      <trkpt lat="45.92242" lon="5.41435">
        <ele>404.4</ele>
        <time>2023-05-27T08:28:42Z</time>
      </trkpt>
      <trkpt lat="45.92244" lon="5.41436">
        <ele>404.4</ele>
        <time>2023-05-27T08:28:43Z</time>
      </trkpt>
      <trkpt lat="45.92247" lon="5.41439">
        <ele>405</ele>
        <time>2023-05-27T08:28:44Z</time>
      </trkpt>
      <trkpt lat="45.92248" lon="5.41442">
        <ele>405</ele>
        <time>2023-05-27T08:28:45Z</time>
      </trkpt>
      <trkpt lat="45.9225" lon="5.41447">
        <ele>405.4</ele>
        <time>2023-05-27T08:28:46Z</time>
      </trkpt>
      <trkpt lat="45.9225" lon="5.4145">
        <ele>405.8</ele>
        <time>2023-05-27T08:28:47Z</time>
      </trkpt>
      <trkpt lat="45.9225" lon="5.41454">
        <ele>405.8</ele>
        <time>2023-05-27T08:28:48Z</time>
      </trkpt>
      <trkpt lat="45.92248" lon="5.41457">
        <ele>406.4</ele>
        <time>2023-05-27T08:28:49Z</time>
      </trkpt>
      <trkpt lat="45.92247" lon="5.41459">
        <ele>406.6</ele>
        <time>2023-05-27T08:28:50Z</time>
      </trkpt>
      <trkpt lat="45.92241" lon="5.41462">
        <ele>407.2</ele>
        <time>2023-05-27T08:28:52Z</time>
      </trkpt>
      <trkpt lat="45.92239" lon="5.41461">
        <ele>407.6</ele>
        <time>2023-05-27T08:28:53Z</time>
      </trkpt>
      <trkpt lat="45.92236" lon="5.41461">
        <ele>408.2</ele>
        <time>2023-05-27T08:28:54Z</time>
      </trkpt>
      <trkpt lat="45.9223" lon="5.41459">
        <ele>408.8</ele>
        <time>2023-05-27T08:28:56Z</time>
      </trkpt>
      <trkpt lat="45.92228" lon="5.41458">
        <ele>408.8</ele>
        <time>2023-05-27T08:28:57Z</time>
      </trkpt>
      <trkpt lat="45.92225" lon="5.41457">
        <ele>409.2</ele>
        <time>2023-05-27T08:28:58Z</time>
      </trkpt>
      <trkpt lat="45.92222" lon="5.41455">
        <ele>409.4</ele>
        <time>2023-05-27T08:28:59Z</time>
      </trkpt>
      <trkpt lat="45.92219" lon="5.41454">
        <ele>410.8</ele>
        <time>2023-05-27T08:29:00Z</time>
      </trkpt>
      <trkpt lat="45.92216" lon="5.41453">
        <ele>411.6</ele>
        <time>2023-05-27T08:29:01Z</time>
      </trkpt>
      <trkpt lat="45.92213" lon="5.41451">
        <ele>412</ele>
        <time>2023-05-27T08:29:02Z</time>
      </trkpt>
      <trkpt lat="45.92211" lon="5.41449">
        <ele>412.6</ele>
        <time>2023-05-27T08:29:03Z</time>
      </trkpt>
      <trkpt lat="45.92208" lon="5.41448">
        <ele>413</ele>
        <time>2023-05-27T08:29:04Z</time>
      </trkpt>
      <trkpt lat="45.92206" lon="5.41447">
        <ele>413.6</ele>
        <time>2023-05-27T08:29:05Z</time>
      </trkpt>
      <trkpt lat="45.92203" lon="5.41445">
        <ele>413.8</ele>
        <time>2023-05-27T08:29:06Z</time>
      </trkpt>
      <trkpt lat="45.922" lon="5.41444">
        <ele>414.2</ele>
        <time>2023-05-27T08:29:07Z</time>
      </trkpt>
      <trkpt lat="45.92198" lon="5.41441">
        <ele>414.6</ele>
        <time>2023-05-27T08:29:08Z</time>
      </trkpt>
      <trkpt lat="45.92195" lon="5.41439">
        <ele>414.8</ele>
        <time>2023-05-27T08:29:09Z</time>
      </trkpt>
      <trkpt lat="45.92193" lon="5.41438">
        <ele>415.8</ele>
        <time>2023-05-27T08:29:10Z</time>
      </trkpt>
      <trkpt lat="45.92191" lon="5.41436">
        <ele>416</ele>
        <time>2023-05-27T08:29:11Z</time>
      </trkpt>
      <trkpt lat="45.92188" lon="5.41434">
        <ele>417</ele>
        <time>2023-05-27T08:29:12Z</time>
      </trkpt>
      <trkpt lat="45.92186" lon="5.41433">
        <ele>417.6</ele>
        <time>2023-05-27T08:29:13Z</time>
      </trkpt>
      <trkpt lat="45.92184" lon="5.41431">
        <ele>418.6</ele>
        <time>2023-05-27T08:29:14Z</time>
      </trkpt>
      <trkpt lat="45.92181" lon="5.41429">
        <ele>419.4</ele>
        <time>2023-05-27T08:29:15Z</time>
      </trkpt>
      <trkpt lat="45.92178" lon="5.41427">
        <ele>419.6</ele>
        <time>2023-05-27T08:29:16Z</time>
      </trkpt>
      <trkpt lat="45.92176" lon="5.41425">
        <ele>420.2</ele>
        <time>2023-05-27T08:29:17Z</time>
      </trkpt>
      <trkpt lat="45.92173" lon="5.41423">
        <ele>420.6</ele>
        <time>2023-05-27T08:29:18Z</time>
      </trkpt>
      <trkpt lat="45.92171" lon="5.41421">
        <ele>421.2</ele>
        <time>2023-05-27T08:29:19Z</time>
      </trkpt>
      <trkpt lat="45.92166" lon="5.41418">
        <ele>421.8</ele>
        <time>2023-05-27T08:29:21Z</time>
      </trkpt>
      <trkpt lat="45.92164" lon="5.41416">
        <ele>422</ele>
        <time>2023-05-27T08:29:22Z</time>
      </trkpt>
      <trkpt lat="45.92161" lon="5.41414">
        <ele>422.2</ele>
        <time>2023-05-27T08:29:23Z</time>
      </trkpt>
      <trkpt lat="45.92159" lon="5.41413">
        <ele>423</ele>
        <time>2023-05-27T08:29:24Z</time>
      </trkpt>
      <trkpt lat="45.92156" lon="5.41412">
        <ele>423.4</ele>
        <time>2023-05-27T08:29:25Z</time>
      </trkpt>
      <trkpt lat="45.92154" lon="5.4141">
        <ele>423.8</ele>
        <time>2023-05-27T08:29:26Z</time>
      </trkpt>
      <trkpt lat="45.92151" lon="5.41409">
        <ele>424</ele>
        <time>2023-05-27T08:29:27Z</time>
      </trkpt>
      <trkpt lat="45.92148" lon="5.41408">
        <ele>424.2</ele>
        <time>2023-05-27T08:29:28Z</time>
      </trkpt>
      <trkpt lat="45.92145" lon="5.41407">
        <ele>424.4</ele>
        <time>2023-05-27T08:29:29Z</time>
      </trkpt>
      <trkpt lat="45.92142" lon="5.41406">
        <ele>425</ele>
        <time>2023-05-27T08:29:30Z</time>
      </trkpt>
      <trkpt lat="45.92139" lon="5.41406">
        <ele>425.6</ele>
        <time>2023-05-27T08:29:31Z</time>
      </trkpt>
      <trkpt lat="45.92137" lon="5.41405">
        <ele>426</ele>
        <time>2023-05-27T08:29:32Z</time>
      </trkpt>
      <trkpt lat="45.92134" lon="5.41405">
        <ele>426.4</ele>
        <time>2023-05-27T08:29:33Z</time>
      </trkpt>
      <trkpt lat="45.92132" lon="5.41405">
        <ele>426.6</ele>
        <time>2023-05-27T08:29:34Z</time>
      </trkpt>
      <trkpt lat="45.9213" lon="5.41405">
        <ele>426.8</ele>
        <time>2023-05-27T08:29:35Z</time>
      </trkpt>
      <trkpt lat="45.92127" lon="5.41405">
        <ele>427</ele>
        <time>2023-05-27T08:29:36Z</time>
      </trkpt>
      <trkpt lat="45.92124" lon="5.41405">
        <ele>427</ele>
        <time>2023-05-27T08:29:37Z</time>
      </trkpt>
      <trkpt lat="45.92121" lon="5.41405">
        <ele>427.2</ele>
        <time>2023-05-27T08:29:38Z</time>
      </trkpt>
      <trkpt lat="45.92118" lon="5.41406">
        <ele>427.2</ele>
        <time>2023-05-27T08:29:39Z</time>
      </trkpt>
      <trkpt lat="45.92115" lon="5.41406">
        <ele>427.4</ele>
        <time>2023-05-27T08:29:40Z</time>
      </trkpt>
      <trkpt lat="45.92113" lon="5.41406">
        <ele>427.4</ele>
        <time>2023-05-27T08:29:41Z</time>
      </trkpt>
      <trkpt lat="45.9211" lon="5.41406">
        <ele>427.4</ele>
        <time>2023-05-27T08:29:42Z</time>
      </trkpt>
      <trkpt lat="45.92108" lon="5.41406">
        <ele>427.6</ele>
        <time>2023-05-27T08:29:43Z</time>
      </trkpt>
      <trkpt lat="45.92105" lon="5.41406">
        <ele>427.8</ele>
        <time>2023-05-27T08:29:44Z</time>
      </trkpt>
      <trkpt lat="45.92103" lon="5.41407">
        <ele>427.8</ele>
        <time>2023-05-27T08:29:45Z</time>
      </trkpt>
      <trkpt lat="45.921" lon="5.41407">
        <ele>427.8</ele>
        <time>2023-05-27T08:29:46Z</time>
      </trkpt>
      <trkpt lat="45.92097" lon="5.41408">
        <ele>428</ele>
        <time>2023-05-27T08:29:47Z</time>
      </trkpt>
      <trkpt lat="45.92094" lon="5.41408">
        <ele>428</ele>
        <time>2023-05-27T08:29:48Z</time>
      </trkpt>
      <trkpt lat="45.92091" lon="5.41409">
        <ele>428.4</ele>
        <time>2023-05-27T08:29:49Z</time>
      </trkpt>
      <trkpt lat="45.92089" lon="5.41409">
        <ele>428.6</ele>
        <time>2023-05-27T08:29:50Z</time>
      </trkpt>
      <trkpt lat="45.92086" lon="5.4141">
        <ele>429</ele>
        <time>2023-05-27T08:29:51Z</time>
      </trkpt>
      <trkpt lat="45.92083" lon="5.4141">
        <ele>429.2</ele>
        <time>2023-05-27T08:29:52Z</time>
      </trkpt>
      <trkpt lat="45.9208" lon="5.4141">
        <ele>429.2</ele>
        <time>2023-05-27T08:29:53Z</time>
      </trkpt>
      <trkpt lat="45.92078" lon="5.41411">
        <ele>429.4</ele>
        <time>2023-05-27T08:29:54Z</time>
      </trkpt>
      <trkpt lat="45.92075" lon="5.41412">
        <ele>429.6</ele>
        <time>2023-05-27T08:29:55Z</time>
      </trkpt>
      <trkpt lat="45.92073" lon="5.41412">
        <ele>429.6</ele>
        <time>2023-05-27T08:29:56Z</time>
      </trkpt>
      <trkpt lat="45.9207" lon="5.41413">
        <ele>429.8</ele>
        <time>2023-05-27T08:29:57Z</time>
      </trkpt>
      <trkpt lat="45.92067" lon="5.41413">
        <ele>430</ele>
        <time>2023-05-27T08:29:58Z</time>
      </trkpt>
      <trkpt lat="45.92065" lon="5.41413">
        <ele>430</ele>
        <time>2023-05-27T08:29:59Z</time>
      </trkpt>
      <trkpt lat="45.92062" lon="5.41414">
        <ele>430.2</ele>
        <time>2023-05-27T08:30:00Z</time>
      </trkpt>
      <trkpt lat="45.92059" lon="5.41415">
        <ele>430.2</ele>
        <time>2023-05-27T08:30:01Z</time>
      </trkpt>
      <trkpt lat="45.92056" lon="5.41416">
        <ele>430.4</ele>
        <time>2023-05-27T08:30:02Z</time>
      </trkpt>
      <trkpt lat="45.92054" lon="5.41416">
        <ele>430.4</ele>
        <time>2023-05-27T08:30:03Z</time>
      </trkpt>
      <trkpt lat="45.92052" lon="5.41416">
        <ele>430.4</ele>
        <time>2023-05-27T08:30:04Z</time>
      </trkpt>
      <trkpt lat="45.92049" lon="5.41416">
        <ele>430.6</ele>
        <time>2023-05-27T08:30:05Z</time>
      </trkpt>
      <trkpt lat="45.92047" lon="5.41417">
        <ele>430.8</ele>
        <time>2023-05-27T08:30:06Z</time>
      </trkpt>
      <trkpt lat="45.92044" lon="5.41418">
        <ele>430.8</ele>
        <time>2023-05-27T08:30:07Z</time>
      </trkpt>
      <trkpt lat="45.92042" lon="5.41418">
        <ele>431</ele>
        <time>2023-05-27T08:30:08Z</time>
      </trkpt>
      <trkpt lat="45.92039" lon="5.41418">
        <ele>431.2</ele>
        <time>2023-05-27T08:30:09Z</time>
      </trkpt>
      <trkpt lat="45.92036" lon="5.41419">
        <ele>431.8</ele>
        <time>2023-05-27T08:30:10Z</time>
      </trkpt>
      <trkpt lat="45.92034" lon="5.41419">
        <ele>432.2</ele>
        <time>2023-05-27T08:30:11Z</time>
      </trkpt>
      <trkpt lat="45.92031" lon="5.4142">
        <ele>432.8</ele>
        <time>2023-05-27T08:30:12Z</time>
      </trkpt>
      <trkpt lat="45.92029" lon="5.4142">
        <ele>433.2</ele>
        <time>2023-05-27T08:30:13Z</time>
      </trkpt>
      <trkpt lat="45.92027" lon="5.4142">
        <ele>433.4</ele>
        <time>2023-05-27T08:30:14Z</time>
      </trkpt>
      <trkpt lat="45.92024" lon="5.41421">
        <ele>433.6</ele>
        <time>2023-05-27T08:30:15Z</time>
      </trkpt>
      <trkpt lat="45.92022" lon="5.41421">
        <ele>433.6</ele>
        <time>2023-05-27T08:30:16Z</time>
      </trkpt>
      <trkpt lat="45.92019" lon="5.41422">
        <ele>433.8</ele>
        <time>2023-05-27T08:30:17Z</time>
      </trkpt>
      <trkpt lat="45.92017" lon="5.41422">
        <ele>434</ele>
        <time>2023-05-27T08:30:18Z</time>
      </trkpt>
      <trkpt lat="45.92014" lon="5.41423">
        <ele>434.4</ele>
        <time>2023-05-27T08:30:19Z</time>
      </trkpt>
      <trkpt lat="45.92011" lon="5.41424">
        <ele>434.6</ele>
        <time>2023-05-27T08:30:20Z</time>
      </trkpt>
      <trkpt lat="45.92009" lon="5.41425">
        <ele>434.8</ele>
        <time>2023-05-27T08:30:21Z</time>
      </trkpt>
      <trkpt lat="45.92006" lon="5.41425">
        <ele>435</ele>
        <time>2023-05-27T08:30:22Z</time>
      </trkpt>
      <trkpt lat="45.92003" lon="5.41426">
        <ele>435.2</ele>
        <time>2023-05-27T08:30:23Z</time>
      </trkpt>
      <trkpt lat="45.92001" lon="5.41427">
        <ele>435.4</ele>
        <time>2023-05-27T08:30:24Z</time>
      </trkpt>
      <trkpt lat="45.91998" lon="5.41428">
        <ele>435.6</ele>
        <time>2023-05-27T08:30:25Z</time>
      </trkpt>
      <trkpt lat="45.91995" lon="5.41429">
        <ele>435.8</ele>
        <time>2023-05-27T08:30:26Z</time>
      </trkpt>
      <trkpt lat="45.91993" lon="5.4143">
        <ele>436</ele>
        <time>2023-05-27T08:30:27Z</time>
      </trkpt>
      <trkpt lat="45.9199" lon="5.41431">
        <ele>436.2</ele>
        <time>2023-05-27T08:30:28Z</time>
      </trkpt>
      <trkpt lat="45.91988" lon="5.41432">
        <ele>436.4</ele>
        <time>2023-05-27T08:30:29Z</time>
      </trkpt>
      <trkpt lat="45.91985" lon="5.41432">
        <ele>436.6</ele>
        <time>2023-05-27T08:30:30Z</time>
      </trkpt>
      <trkpt lat="45.91982" lon="5.41433">
        <ele>436.8</ele>
        <time>2023-05-27T08:30:31Z</time>
      </trkpt>
      <trkpt lat="45.91979" lon="5.41433">
        <ele>437</ele>
        <time>2023-05-27T08:30:32Z</time>
      </trkpt>
      <trkpt lat="45.91975" lon="5.41434">
        <ele>437.2</ele>
        <time>2023-05-27T08:30:33Z</time>
      </trkpt>
      <trkpt lat="45.91971" lon="5.41435">
        <ele>437.2</ele>
        <time>2023-05-27T08:30:34Z</time>
      </trkpt>
      <trkpt lat="45.91967" lon="5.41436">
        <ele>437.2</ele>
        <time>2023-05-27T08:30:35Z</time>
      </trkpt>
      <trkpt lat="45.91963" lon="5.41437">
        <ele>437.6</ele>
        <time>2023-05-27T08:30:36Z</time>
      </trkpt>
      <trkpt lat="45.91958" lon="5.41437">
        <ele>437.8</ele>
        <time>2023-05-27T08:30:37Z</time>
      </trkpt>
      <trkpt lat="45.91954" lon="5.41438">
        <ele>438</ele>
        <time>2023-05-27T08:30:38Z</time>
      </trkpt>
      <trkpt lat="45.91945" lon="5.41439">
        <ele>438.2</ele>
        <time>2023-05-27T08:30:40Z</time>
      </trkpt>
      <trkpt lat="45.91941" lon="5.41439">
        <ele>438.2</ele>
        <time>2023-05-27T08:30:41Z</time>
      </trkpt>
      <trkpt lat="45.91937" lon="5.4144">
        <ele>438.4</ele>
        <time>2023-05-27T08:30:42Z</time>
      </trkpt>
      <trkpt lat="45.91933" lon="5.4144">
        <ele>438.4</ele>
        <time>2023-05-27T08:30:43Z</time>
      </trkpt>
      <trkpt lat="45.91929" lon="5.4144">
        <ele>438.4</ele>
        <time>2023-05-27T08:30:44Z</time>
      </trkpt>
      <trkpt lat="45.91925" lon="5.41439">
        <ele>438.4</ele>
        <time>2023-05-27T08:30:45Z</time>
      </trkpt>
      <trkpt lat="45.91921" lon="5.4144">
        <ele>438.4</ele>
        <time>2023-05-27T08:30:46Z</time>
      </trkpt>
      <trkpt lat="45.91917" lon="5.4144">
        <ele>438.6</ele>
        <time>2023-05-27T08:30:47Z</time>
      </trkpt>
      <trkpt lat="45.91913" lon="5.41441">
        <ele>438.6</ele>
        <time>2023-05-27T08:30:48Z</time>
      </trkpt>
      <trkpt lat="45.9191" lon="5.41443">
        <ele>438.6</ele>
        <time>2023-05-27T08:30:49Z</time>
      </trkpt>
      <trkpt lat="45.91907" lon="5.41446">
        <ele>438.6</ele>
        <time>2023-05-27T08:30:50Z</time>
      </trkpt>
      <trkpt lat="45.91905" lon="5.41449">
        <ele>438.6</ele>
        <time>2023-05-27T08:30:51Z</time>
      </trkpt>
      <trkpt lat="45.91902" lon="5.41452">
        <ele>438.6</ele>
        <time>2023-05-27T08:30:52Z</time>
      </trkpt>
      <trkpt lat="45.919" lon="5.41454">
        <ele>438.6</ele>
        <time>2023-05-27T08:30:53Z</time>
      </trkpt>
      <trkpt lat="45.91897" lon="5.41457">
        <ele>438.8</ele>
        <time>2023-05-27T08:30:54Z</time>
      </trkpt>
      <trkpt lat="45.91895" lon="5.41459">
        <ele>439</ele>
        <time>2023-05-27T08:30:55Z</time>
      </trkpt>
      <trkpt lat="45.91893" lon="5.41463">
        <ele>439</ele>
        <time>2023-05-27T08:30:56Z</time>
      </trkpt>
      <trkpt lat="45.91891" lon="5.41465">
        <ele>439.4</ele>
        <time>2023-05-27T08:30:57Z</time>
      </trkpt>
      <trkpt lat="45.91889" lon="5.41468">
        <ele>439.4</ele>
        <time>2023-05-27T08:30:58Z</time>
      </trkpt>
      <trkpt lat="45.91887" lon="5.41471">
        <ele>439.8</ele>
        <time>2023-05-27T08:30:59Z</time>
      </trkpt>
      <trkpt lat="45.91885" lon="5.41473">
        <ele>439.8</ele>
        <time>2023-05-27T08:31:00Z</time>
      </trkpt>
      <trkpt lat="45.91883" lon="5.41477">
        <ele>440.4</ele>
        <time>2023-05-27T08:31:01Z</time>
      </trkpt>
      <trkpt lat="45.91881" lon="5.4148">
        <ele>440.8</ele>
        <time>2023-05-27T08:31:02Z</time>
      </trkpt>
      <trkpt lat="45.91879" lon="5.41482">
        <ele>440.8</ele>
        <time>2023-05-27T08:31:03Z</time>
      </trkpt>
      <trkpt lat="45.91877" lon="5.41485">
        <ele>441</ele>
        <time>2023-05-27T08:31:04Z</time>
      </trkpt>
      <trkpt lat="45.91874" lon="5.41489">
        <ele>441.2</ele>
        <time>2023-05-27T08:31:05Z</time>
      </trkpt>
      <trkpt lat="45.91871" lon="5.41495">
        <ele>441.2</ele>
        <time>2023-05-27T08:31:06Z</time>
      </trkpt>
      <trkpt lat="45.91868" lon="5.41499">
        <ele>441.4</ele>
        <time>2023-05-27T08:31:07Z</time>
      </trkpt>
      <trkpt lat="45.91864" lon="5.41504">
        <ele>441.4</ele>
        <time>2023-05-27T08:31:08Z</time>
      </trkpt>
      <trkpt lat="45.9186" lon="5.41509">
        <ele>441.6</ele>
        <time>2023-05-27T08:31:09Z</time>
      </trkpt>
      <trkpt lat="45.91856" lon="5.41513">
        <ele>441.6</ele>
        <time>2023-05-27T08:31:10Z</time>
      </trkpt>
      <trkpt lat="45.91851" lon="5.41516">
        <ele>441.6</ele>
        <time>2023-05-27T08:31:11Z</time>
      </trkpt>
      <trkpt lat="45.91846" lon="5.4152">
        <ele>441.6</ele>
        <time>2023-05-27T08:31:12Z</time>
      </trkpt>
      <trkpt lat="45.91841" lon="5.41524">
        <ele>441.6</ele>
        <time>2023-05-27T08:31:13Z</time>
      </trkpt>
      <trkpt lat="45.91835" lon="5.41527">
        <ele>441.6</ele>
        <time>2023-05-27T08:31:14Z</time>
      </trkpt>
      <trkpt lat="45.91829" lon="5.41531">
        <ele>441.6</ele>
        <time>2023-05-27T08:31:15Z</time>
      </trkpt>
      <trkpt lat="45.91823" lon="5.41535">
        <ele>441.6</ele>
        <time>2023-05-27T08:31:16Z</time>
      </trkpt>
      <trkpt lat="45.91818" lon="5.41539">
        <ele>441.6</ele>
        <time>2023-05-27T08:31:17Z</time>
      </trkpt>
      <trkpt lat="45.91812" lon="5.41542">
        <ele>441.4</ele>
        <time>2023-05-27T08:31:18Z</time>
      </trkpt>
      <trkpt lat="45.91807" lon="5.41546">
        <ele>441.2</ele>
        <time>2023-05-27T08:31:19Z</time>
      </trkpt>
      <trkpt lat="45.918" lon="5.41549">
        <ele>441</ele>
        <time>2023-05-27T08:31:20Z</time>
      </trkpt>
      <trkpt lat="45.91793" lon="5.41552">
        <ele>440.8</ele>
        <time>2023-05-27T08:31:21Z</time>
      </trkpt>
      <trkpt lat="45.91788" lon="5.41554">
        <ele>440.4</ele>
        <time>2023-05-27T08:31:22Z</time>
      </trkpt>
      <trkpt lat="45.91782" lon="5.41559">
        <ele>440.2</ele>
        <time>2023-05-27T08:31:23Z</time>
      </trkpt>
      <trkpt lat="45.91776" lon="5.41563">
        <ele>440.2</ele>
        <time>2023-05-27T08:31:24Z</time>
      </trkpt>
      <trkpt lat="45.91769" lon="5.41566">
        <ele>439.8</ele>
        <time>2023-05-27T08:31:25Z</time>
      </trkpt>
      <trkpt lat="45.91762" lon="5.41568">
        <ele>439.6</ele>
        <time>2023-05-27T08:31:26Z</time>
      </trkpt>
      <trkpt lat="45.91755" lon="5.41568">
        <ele>439.4</ele>
        <time>2023-05-27T08:31:27Z</time>
      </trkpt>
      <trkpt lat="45.91748" lon="5.41568">
        <ele>439.4</ele>
        <time>2023-05-27T08:31:28Z</time>
      </trkpt>
      <trkpt lat="45.91744" lon="5.41567">
        <ele>439.2</ele>
        <time>2023-05-27T08:31:29Z</time>
      </trkpt>
      <trkpt lat="45.91737" lon="5.41565">
        <ele>439.2</ele>
        <time>2023-05-27T08:31:30Z</time>
      </trkpt>
      <trkpt lat="45.91733" lon="5.41563">
        <ele>438.8</ele>
        <time>2023-05-27T08:31:31Z</time>
      </trkpt>
      <trkpt lat="45.91728" lon="5.41561">
        <ele>438.6</ele>
        <time>2023-05-27T08:31:32Z</time>
      </trkpt>
      <trkpt lat="45.91723" lon="5.41559">
        <ele>438.4</ele>
        <time>2023-05-27T08:31:33Z</time>
      </trkpt>
      <trkpt lat="45.91718" lon="5.41557">
        <ele>438.2</ele>
        <time>2023-05-27T08:31:34Z</time>
      </trkpt>
      <trkpt lat="45.91713" lon="5.41556">
        <ele>437.8</ele>
        <time>2023-05-27T08:31:35Z</time>
      </trkpt>
      <trkpt lat="45.91709" lon="5.41556">
        <ele>437.4</ele>
        <time>2023-05-27T08:31:36Z</time>
      </trkpt>
      <trkpt lat="45.91705" lon="5.41557">
        <ele>437.4</ele>
        <time>2023-05-27T08:31:37Z</time>
      </trkpt>
      <trkpt lat="45.91701" lon="5.41558">
        <ele>437.2</ele>
        <time>2023-05-27T08:31:38Z</time>
      </trkpt>
      <trkpt lat="45.91697" lon="5.41562">
        <ele>437</ele>
        <time>2023-05-27T08:31:39Z</time>
      </trkpt>
      <trkpt lat="45.91693" lon="5.41566">
        <ele>437</ele>
        <time>2023-05-27T08:31:40Z</time>
      </trkpt>
      <trkpt lat="45.91689" lon="5.4157">
        <ele>436.8</ele>
        <time>2023-05-27T08:31:41Z</time>
      </trkpt>
      <trkpt lat="45.91683" lon="5.41576">
        <ele>436.8</ele>
        <time>2023-05-27T08:31:42Z</time>
      </trkpt>
      <trkpt lat="45.91677" lon="5.4158">
        <ele>436.8</ele>
        <time>2023-05-27T08:31:43Z</time>
      </trkpt>
      <trkpt lat="45.91671" lon="5.41584">
        <ele>436.4</ele>
        <time>2023-05-27T08:31:44Z</time>
      </trkpt>
      <trkpt lat="45.91664" lon="5.41589">
        <ele>436.2</ele>
        <time>2023-05-27T08:31:45Z</time>
      </trkpt>
      <trkpt lat="45.91658" lon="5.41595">
        <ele>436</ele>
        <time>2023-05-27T08:31:46Z</time>
      </trkpt>
      <trkpt lat="45.91653" lon="5.41601">
        <ele>435.8</ele>
        <time>2023-05-27T08:31:47Z</time>
      </trkpt>
      <trkpt lat="45.91648" lon="5.41608">
        <ele>435.6</ele>
        <time>2023-05-27T08:31:48Z</time>
      </trkpt>
      <trkpt lat="45.91645" lon="5.41614">
        <ele>435.6</ele>
        <time>2023-05-27T08:31:49Z</time>
      </trkpt>
      <trkpt lat="45.91642" lon="5.41619">
        <ele>435.6</ele>
        <time>2023-05-27T08:31:50Z</time>
      </trkpt>
      <trkpt lat="45.91639" lon="5.41625">
        <ele>435.6</ele>
        <time>2023-05-27T08:31:51Z</time>
      </trkpt>
      <trkpt lat="45.91636" lon="5.41632">
        <ele>435.4</ele>
        <time>2023-05-27T08:31:52Z</time>
      </trkpt>
      <trkpt lat="45.91633" lon="5.41636">
        <ele>435.4</ele>
        <time>2023-05-27T08:31:53Z</time>
      </trkpt>
      <trkpt lat="45.91629" lon="5.41639">
        <ele>435.6</ele>
        <time>2023-05-27T08:31:54Z</time>
      </trkpt>
      <trkpt lat="45.91626" lon="5.41642">
        <ele>435.6</ele>
        <time>2023-05-27T08:31:55Z</time>
      </trkpt>
      <trkpt lat="45.91622" lon="5.41644">
        <ele>435.8</ele>
        <time>2023-05-27T08:31:56Z</time>
      </trkpt>
      <trkpt lat="45.91618" lon="5.41646">
        <ele>435.8</ele>
        <time>2023-05-27T08:31:57Z</time>
      </trkpt>
      <trkpt lat="45.91614" lon="5.41648">
        <ele>436</ele>
        <time>2023-05-27T08:31:58Z</time>
      </trkpt>
      <trkpt lat="45.91612" lon="5.4165">
        <ele>436</ele>
        <time>2023-05-27T08:31:59Z</time>
      </trkpt>
      <trkpt lat="45.91609" lon="5.41651">
        <ele>436.2</ele>
        <time>2023-05-27T08:32:00Z</time>
      </trkpt>
      <trkpt lat="45.91605" lon="5.41652">
        <ele>436.2</ele>
        <time>2023-05-27T08:32:01Z</time>
      </trkpt>
      <trkpt lat="45.91602" lon="5.41652">
        <ele>436.6</ele>
        <time>2023-05-27T08:32:02Z</time>
      </trkpt>
      <trkpt lat="45.91599" lon="5.41652">
        <ele>436.6</ele>
        <time>2023-05-27T08:32:03Z</time>
      </trkpt>
      <trkpt lat="45.91596" lon="5.41653">
        <ele>436.6</ele>
        <time>2023-05-27T08:32:04Z</time>
      </trkpt>
      <trkpt lat="45.91594" lon="5.41654">
        <ele>436.8</ele>
        <time>2023-05-27T08:32:05Z</time>
      </trkpt>
      <trkpt lat="45.91592" lon="5.41656">
        <ele>437</ele>
        <time>2023-05-27T08:32:06Z</time>
      </trkpt>
      <trkpt lat="45.91589" lon="5.41658">
        <ele>437.2</ele>
        <time>2023-05-27T08:32:07Z</time>
      </trkpt>
      <trkpt lat="45.91586" lon="5.4166">
        <ele>437.4</ele>
        <time>2023-05-27T08:32:08Z</time>
      </trkpt>
      <trkpt lat="45.91582" lon="5.41662">
        <ele>437.8</ele>
        <time>2023-05-27T08:32:09Z</time>
      </trkpt>
      <trkpt lat="45.91579" lon="5.41663">
        <ele>438</ele>
        <time>2023-05-27T08:32:10Z</time>
      </trkpt>
      <trkpt lat="45.91575" lon="5.41663">
        <ele>438</ele>
        <time>2023-05-27T08:32:11Z</time>
      </trkpt>
      <trkpt lat="45.91569" lon="5.41662">
        <ele>438.2</ele>
        <time>2023-05-27T08:32:12Z</time>
      </trkpt>
      <trkpt lat="45.91563" lon="5.41662">
        <ele>438.4</ele>
        <time>2023-05-27T08:32:13Z</time>
      </trkpt>
      <trkpt lat="45.91558" lon="5.41663">
        <ele>438.2</ele>
        <time>2023-05-27T08:32:14Z</time>
      </trkpt>
      <trkpt lat="45.91553" lon="5.41664">
        <ele>438.4</ele>
        <time>2023-05-27T08:32:15Z</time>
      </trkpt>
      <trkpt lat="45.91548" lon="5.41665">
        <ele>438.4</ele>
        <time>2023-05-27T08:32:16Z</time>
      </trkpt>
      <trkpt lat="45.91541" lon="5.41667">
        <ele>438.4</ele>
        <time>2023-05-27T08:32:17Z</time>
      </trkpt>
      <trkpt lat="45.91536" lon="5.41669">
        <ele>438.4</ele>
        <time>2023-05-27T08:32:18Z</time>
      </trkpt>
      <trkpt lat="45.91531" lon="5.4167">
        <ele>438.4</ele>
        <time>2023-05-27T08:32:19Z</time>
      </trkpt>
      <trkpt lat="45.91526" lon="5.41672">
        <ele>438.4</ele>
        <time>2023-05-27T08:32:20Z</time>
      </trkpt>
      <trkpt lat="45.91521" lon="5.41674">
        <ele>438.4</ele>
        <time>2023-05-27T08:32:21Z</time>
      </trkpt>
      <trkpt lat="45.91517" lon="5.41677">
        <ele>438.4</ele>
        <time>2023-05-27T08:32:22Z</time>
      </trkpt>
      <trkpt lat="45.91513" lon="5.41679">
        <ele>438.4</ele>
        <time>2023-05-27T08:32:23Z</time>
      </trkpt>
      <trkpt lat="45.91508" lon="5.41681">
        <ele>438.2</ele>
        <time>2023-05-27T08:32:24Z</time>
      </trkpt>
      <trkpt lat="45.91504" lon="5.41682">
        <ele>438.2</ele>
        <time>2023-05-27T08:32:25Z</time>
      </trkpt>
      <trkpt lat="45.91499" lon="5.41683">
        <ele>438.2</ele>
        <time>2023-05-27T08:32:26Z</time>
      </trkpt>
      <trkpt lat="45.91494" lon="5.41684">
        <ele>438.2</ele>
        <time>2023-05-27T08:32:27Z</time>
      </trkpt>
      <trkpt lat="45.9149" lon="5.41685">
        <ele>438.2</ele>
        <time>2023-05-27T08:32:28Z</time>
      </trkpt>
      <trkpt lat="45.91485" lon="5.41686">
        <ele>438</ele>
        <time>2023-05-27T08:32:29Z</time>
      </trkpt>
      <trkpt lat="45.9148" lon="5.41688">
        <ele>438</ele>
        <time>2023-05-27T08:32:30Z</time>
      </trkpt>
      <trkpt lat="45.91476" lon="5.41689">
        <ele>438</ele>
        <time>2023-05-27T08:32:31Z</time>
      </trkpt>
      <trkpt lat="45.9147" lon="5.41691">
        <ele>437.8</ele>
        <time>2023-05-27T08:32:32Z</time>
      </trkpt>
      <trkpt lat="45.91465" lon="5.41692">
        <ele>437.8</ele>
        <time>2023-05-27T08:32:33Z</time>
      </trkpt>
      <trkpt lat="45.9146" lon="5.41693">
        <ele>437.6</ele>
        <time>2023-05-27T08:32:34Z</time>
      </trkpt>
      <trkpt lat="45.91455" lon="5.41694">
        <ele>437.6</ele>
        <time>2023-05-27T08:32:35Z</time>
      </trkpt>
      <trkpt lat="45.91449" lon="5.41694">
        <ele>437.6</ele>
        <time>2023-05-27T08:32:36Z</time>
      </trkpt>
      <trkpt lat="45.91443" lon="5.41693">
        <ele>437.6</ele>
        <time>2023-05-27T08:32:37Z</time>
      </trkpt>
      <trkpt lat="45.91436" lon="5.41692">
        <ele>437.6</ele>
        <time>2023-05-27T08:32:38Z</time>
      </trkpt>
      <trkpt lat="45.91429" lon="5.41691">
        <ele>437.4</ele>
        <time>2023-05-27T08:32:39Z</time>
      </trkpt>
      <trkpt lat="45.91422" lon="5.41689">
        <ele>437.4</ele>
        <time>2023-05-27T08:32:40Z</time>
      </trkpt>
      <trkpt lat="45.91415" lon="5.41688">
        <ele>437.4</ele>
        <time>2023-05-27T08:32:41Z</time>
      </trkpt>
      <trkpt lat="45.91407" lon="5.41686">
        <ele>437.2</ele>
        <time>2023-05-27T08:32:42Z</time>
      </trkpt>
      <trkpt lat="45.91399" lon="5.41684">
        <ele>437.2</ele>
        <time>2023-05-27T08:32:43Z</time>
      </trkpt>
      <trkpt lat="45.91392" lon="5.41682">
        <ele>437.2</ele>
        <time>2023-05-27T08:32:44Z</time>
      </trkpt>
      <trkpt lat="45.91384" lon="5.41678">
        <ele>437</ele>
        <time>2023-05-27T08:32:45Z</time>
      </trkpt>
      <trkpt lat="45.91377" lon="5.41674">
        <ele>437</ele>
        <time>2023-05-27T08:32:46Z</time>
      </trkpt>
      <trkpt lat="45.91369" lon="5.4167">
        <ele>437</ele>
        <time>2023-05-27T08:32:47Z</time>
      </trkpt>
      <trkpt lat="45.91364" lon="5.41665">
        <ele>436.6</ele>
        <time>2023-05-27T08:32:48Z</time>
      </trkpt>
      <trkpt lat="45.91354" lon="5.41659">
        <ele>436.2</ele>
        <time>2023-05-27T08:32:49Z</time>
      </trkpt>
      <trkpt lat="45.91346" lon="5.41654">
        <ele>435.6</ele>
        <time>2023-05-27T08:32:50Z</time>
      </trkpt>
      <trkpt lat="45.91337" lon="5.41649">
        <ele>435.4</ele>
        <time>2023-05-27T08:32:51Z</time>
      </trkpt>
      <trkpt lat="45.91328" lon="5.41645">
        <ele>435.4</ele>
        <time>2023-05-27T08:32:52Z</time>
      </trkpt>
      <trkpt lat="45.91319" lon="5.41641">
        <ele>435.2</ele>
        <time>2023-05-27T08:32:53Z</time>
      </trkpt>
      <trkpt lat="45.91311" lon="5.41638">
        <ele>434.8</ele>
        <time>2023-05-27T08:32:54Z</time>
      </trkpt>
      <trkpt lat="45.91303" lon="5.41635">
        <ele>434.4</ele>
        <time>2023-05-27T08:32:55Z</time>
      </trkpt>
      <trkpt lat="45.91296" lon="5.41633">
        <ele>434.4</ele>
        <time>2023-05-27T08:32:56Z</time>
      </trkpt>
      <trkpt lat="45.91288" lon="5.41631">
        <ele>434</ele>
        <time>2023-05-27T08:32:57Z</time>
      </trkpt>
      <trkpt lat="45.9128" lon="5.41628">
        <ele>433.8</ele>
        <time>2023-05-27T08:32:58Z</time>
      </trkpt>
      <trkpt lat="45.91272" lon="5.41625">
        <ele>433.6</ele>
        <time>2023-05-27T08:32:59Z</time>
      </trkpt>
      <trkpt lat="45.91265" lon="5.41622">
        <ele>433</ele>
        <time>2023-05-27T08:33:00Z</time>
      </trkpt>
      <trkpt lat="45.91258" lon="5.41618">
        <ele>432.6</ele>
        <time>2023-05-27T08:33:01Z</time>
      </trkpt>
      <trkpt lat="45.9125" lon="5.41614">
        <ele>432.2</ele>
        <time>2023-05-27T08:33:02Z</time>
      </trkpt>
      <trkpt lat="45.91244" lon="5.41611">
        <ele>431.8</ele>
        <time>2023-05-27T08:33:03Z</time>
      </trkpt>
      <trkpt lat="45.91227" lon="5.41605">
        <ele>431</ele>
        <time>2023-05-27T08:33:05Z</time>
      </trkpt>
      <trkpt lat="45.91219" lon="5.41603">
        <ele>430.8</ele>
        <time>2023-05-27T08:33:06Z</time>
      </trkpt>
      <trkpt lat="45.91211" lon="5.41601">
        <ele>430.4</ele>
        <time>2023-05-27T08:33:07Z</time>
      </trkpt>
      <trkpt lat="45.91202" lon="5.416">
        <ele>430</ele>
        <time>2023-05-27T08:33:08Z</time>
      </trkpt>
      <trkpt lat="45.91192" lon="5.41599">
        <ele>429.8</ele>
        <time>2023-05-27T08:33:09Z</time>
      </trkpt>
      <trkpt lat="45.91184" lon="5.41597">
        <ele>429.6</ele>
        <time>2023-05-27T08:33:10Z</time>
      </trkpt>
      <trkpt lat="45.91168" lon="5.41596">
        <ele>428.8</ele>
        <time>2023-05-27T08:33:12Z</time>
      </trkpt>
      <trkpt lat="45.91161" lon="5.41597">
        <ele>428.8</ele>
        <time>2023-05-27T08:33:13Z</time>
      </trkpt>
      <trkpt lat="45.91155" lon="5.41598">
        <ele>428.4</ele>
        <time>2023-05-27T08:33:14Z</time>
      </trkpt>
      <trkpt lat="45.91148" lon="5.41598">
        <ele>428</ele>
        <time>2023-05-27T08:33:15Z</time>
      </trkpt>
      <trkpt lat="45.91142" lon="5.41595">
        <ele>427.2</ele>
        <time>2023-05-27T08:33:16Z</time>
      </trkpt>
      <trkpt lat="45.91138" lon="5.4159">
        <ele>427</ele>
        <time>2023-05-27T08:33:17Z</time>
      </trkpt>
      <trkpt lat="45.91137" lon="5.41586">
        <ele>426.6</ele>
        <time>2023-05-27T08:33:18Z</time>
      </trkpt>
      <trkpt lat="45.91139" lon="5.4158">
        <ele>426</ele>
        <time>2023-05-27T08:33:19Z</time>
      </trkpt>
      <trkpt lat="45.91142" lon="5.41575">
        <ele>425.8</ele>
        <time>2023-05-27T08:33:20Z</time>
      </trkpt>
      <trkpt lat="45.91145" lon="5.41572">
        <ele>425.2</ele>
        <time>2023-05-27T08:33:21Z</time>
      </trkpt>
      <trkpt lat="45.91147" lon="5.41569">
        <ele>425</ele>
        <time>2023-05-27T08:33:22Z</time>
      </trkpt>
      <trkpt lat="45.91149" lon="5.41568">
        <ele>424.6</ele>
        <time>2023-05-27T08:33:23Z</time>
      </trkpt>
      <trkpt lat="45.91152" lon="5.41566">
        <ele>424.6</ele>
        <time>2023-05-27T08:33:24Z</time>
      </trkpt>
      <trkpt lat="45.91154" lon="5.41565">
        <ele>423.8</ele>
        <time>2023-05-27T08:33:25Z</time>
      </trkpt>
      <trkpt lat="45.91157" lon="5.41563">
        <ele>423</ele>
        <time>2023-05-27T08:33:26Z</time>
      </trkpt>
      <trkpt lat="45.91159" lon="5.41562">
        <ele>422.8</ele>
        <time>2023-05-27T08:33:27Z</time>
      </trkpt>
      <trkpt lat="45.91162" lon="5.4156">
        <ele>422.4</ele>
        <time>2023-05-27T08:33:28Z</time>
      </trkpt>
      <trkpt lat="45.91166" lon="5.41558">
        <ele>422.2</ele>
        <time>2023-05-27T08:33:29Z</time>
      </trkpt>
      <trkpt lat="45.91169" lon="5.41556">
        <ele>421.6</ele>
        <time>2023-05-27T08:33:30Z</time>
      </trkpt>
      <trkpt lat="45.91174" lon="5.41554">
        <ele>421.4</ele>
        <time>2023-05-27T08:33:31Z</time>
      </trkpt>
      <trkpt lat="45.91178" lon="5.41552">
        <ele>421</ele>
        <time>2023-05-27T08:33:32Z</time>
      </trkpt>
      <trkpt lat="45.91182" lon="5.41551">
        <ele>420.2</ele>
        <time>2023-05-27T08:33:33Z</time>
      </trkpt>
      <trkpt lat="45.91185" lon="5.4155">
        <ele>419.8</ele>
        <time>2023-05-27T08:33:34Z</time>
      </trkpt>
      <trkpt lat="45.91188" lon="5.41549">
        <ele>419.4</ele>
        <time>2023-05-27T08:33:35Z</time>
      </trkpt>
      <trkpt lat="45.91192" lon="5.41549">
        <ele>419.2</ele>
        <time>2023-05-27T08:33:36Z</time>
      </trkpt>
      <trkpt lat="45.91195" lon="5.41548">
        <ele>418.8</ele>
        <time>2023-05-27T08:33:37Z</time>
      </trkpt>
      <trkpt lat="45.91198" lon="5.41548">
        <ele>418.8</ele>
        <time>2023-05-27T08:33:38Z</time>
      </trkpt>
      <trkpt lat="45.91203" lon="5.41548">
        <ele>418.6</ele>
        <time>2023-05-27T08:33:39Z</time>
      </trkpt>
      <trkpt lat="45.91207" lon="5.41547">
        <ele>418.6</ele>
        <time>2023-05-27T08:33:40Z</time>
      </trkpt>
      <trkpt lat="45.9121" lon="5.41546">
        <ele>418.4</ele>
        <time>2023-05-27T08:33:41Z</time>
      </trkpt>
      <trkpt lat="45.91213" lon="5.41545">
        <ele>418.2</ele>
        <time>2023-05-27T08:33:42Z</time>
      </trkpt>
      <trkpt lat="45.91217" lon="5.41543">
        <ele>418.2</ele>
        <time>2023-05-27T08:33:43Z</time>
      </trkpt>
      <trkpt lat="45.9122" lon="5.41542">
        <ele>418.2</ele>
        <time>2023-05-27T08:33:44Z</time>
      </trkpt>
      <trkpt lat="45.91224" lon="5.41541">
        <ele>418.2</ele>
        <time>2023-05-27T08:33:45Z</time>
      </trkpt>
      <trkpt lat="45.91227" lon="5.41541">
        <ele>418.2</ele>
        <time>2023-05-27T08:33:46Z</time>
      </trkpt>
      <trkpt lat="45.9123" lon="5.4154">
        <ele>418.4</ele>
        <time>2023-05-27T08:33:47Z</time>
      </trkpt>
      <trkpt lat="45.91234" lon="5.41539">
        <ele>418.4</ele>
        <time>2023-05-27T08:33:48Z</time>
      </trkpt>
      <trkpt lat="45.91236" lon="5.41538">
        <ele>418.6</ele>
        <time>2023-05-27T08:33:49Z</time>
      </trkpt>
      <trkpt lat="45.91239" lon="5.41538">
        <ele>418.6</ele>
        <time>2023-05-27T08:33:50Z</time>
      </trkpt>
      <trkpt lat="45.91241" lon="5.41538">
        <ele>418.6</ele>
        <time>2023-05-27T08:33:51Z</time>
      </trkpt>
      <trkpt lat="45.91243" lon="5.41537">
        <ele>418.8</ele>
        <time>2023-05-27T08:33:52Z</time>
      </trkpt>
      <trkpt lat="45.91246" lon="5.41537">
        <ele>419</ele>
        <time>2023-05-27T08:33:53Z</time>
      </trkpt>
      <trkpt lat="45.91248" lon="5.41537">
        <ele>419.2</ele>
        <time>2023-05-27T08:33:54Z</time>
      </trkpt>
      <trkpt lat="45.9125" lon="5.41537">
        <ele>419.2</ele>
        <time>2023-05-27T08:33:55Z</time>
      </trkpt>
      <trkpt lat="45.91252" lon="5.41538">
        <ele>419.4</ele>
        <time>2023-05-27T08:33:56Z</time>
      </trkpt>
      <trkpt lat="45.91254" lon="5.41538">
        <ele>419.4</ele>
        <time>2023-05-27T08:33:57Z</time>
      </trkpt>
      <trkpt lat="45.91256" lon="5.41538">
        <ele>419.8</ele>
        <time>2023-05-27T08:33:58Z</time>
      </trkpt>
      <trkpt lat="45.91258" lon="5.41539">
        <ele>419.8</ele>
        <time>2023-05-27T08:33:59Z</time>
      </trkpt>
      <trkpt lat="45.9126" lon="5.4154">
        <ele>420.2</ele>
        <time>2023-05-27T08:34:00Z</time>
      </trkpt>
      <trkpt lat="45.91262" lon="5.41542">
        <ele>420.2</ele>
        <time>2023-05-27T08:34:01Z</time>
      </trkpt>
      <trkpt lat="45.91264" lon="5.41543">
        <ele>420.4</ele>
        <time>2023-05-27T08:34:02Z</time>
      </trkpt>
      <trkpt lat="45.91266" lon="5.41543">
        <ele>420.4</ele>
        <time>2023-05-27T08:34:03Z</time>
      </trkpt>
      <trkpt lat="45.91269" lon="5.41545">
        <ele>420.6</ele>
        <time>2023-05-27T08:34:04Z</time>
      </trkpt>
      <trkpt lat="45.91272" lon="5.41548">
        <ele>420.6</ele>
        <time>2023-05-27T08:34:05Z</time>
      </trkpt>
      <trkpt lat="45.91274" lon="5.41549">
        <ele>420.8</ele>
        <time>2023-05-27T08:34:06Z</time>
      </trkpt>
      <trkpt lat="45.91276" lon="5.4155">
        <ele>421.2</ele>
        <time>2023-05-27T08:34:07Z</time>
      </trkpt>
      <trkpt lat="45.91278" lon="5.4155">
        <ele>421.4</ele>
        <time>2023-05-27T08:34:08Z</time>
      </trkpt>
      <trkpt lat="45.91281" lon="5.4155">
        <ele>421.4</ele>
        <time>2023-05-27T08:34:09Z</time>
      </trkpt>
      <trkpt lat="45.91283" lon="5.41551">
        <ele>421.6</ele>
        <time>2023-05-27T08:34:10Z</time>
      </trkpt>
      <trkpt lat="45.91286" lon="5.41552">
        <ele>421.6</ele>
        <time>2023-05-27T08:34:11Z</time>
      </trkpt>
      <trkpt lat="45.91289" lon="5.41553">
        <ele>421.8</ele>
        <time>2023-05-27T08:34:12Z</time>
      </trkpt>
      <trkpt lat="45.91291" lon="5.41554">
        <ele>421.8</ele>
        <time>2023-05-27T08:34:13Z</time>
      </trkpt>
      <trkpt lat="45.91293" lon="5.41555">
        <ele>421.8</ele>
        <time>2023-05-27T08:34:14Z</time>
      </trkpt>
      <trkpt lat="45.91295" lon="5.41556">
        <ele>421.8</ele>
        <time>2023-05-27T08:34:15Z</time>
      </trkpt>
      <trkpt lat="45.91296" lon="5.41557">
        <ele>422</ele>
        <time>2023-05-27T08:34:16Z</time>
      </trkpt>
      <trkpt lat="45.91299" lon="5.41558">
        <ele>422.2</ele>
        <time>2023-05-27T08:34:17Z</time>
      </trkpt>
      <trkpt lat="45.91302" lon="5.41559">
        <ele>422.2</ele>
        <time>2023-05-27T08:34:18Z</time>
      </trkpt>
      <trkpt lat="45.91305" lon="5.41559">
        <ele>422.4</ele>
        <time>2023-05-27T08:34:19Z</time>
      </trkpt>
      <trkpt lat="45.91308" lon="5.41559">
        <ele>422.4</ele>
        <time>2023-05-27T08:34:20Z</time>
      </trkpt>
      <trkpt lat="45.9131" lon="5.41559">
        <ele>422.6</ele>
        <time>2023-05-27T08:34:21Z</time>
      </trkpt>
      <trkpt lat="45.91312" lon="5.41559">
        <ele>422.6</ele>
        <time>2023-05-27T08:34:22Z</time>
      </trkpt>
      <trkpt lat="45.91314" lon="5.4156">
        <ele>422.6</ele>
        <time>2023-05-27T08:34:23Z</time>
      </trkpt>
      <trkpt lat="45.91316" lon="5.41561">
        <ele>423</ele>
        <time>2023-05-27T08:34:24Z</time>
      </trkpt>
      <trkpt lat="45.91318" lon="5.41561">
        <ele>422.8</ele>
        <time>2023-05-27T08:34:25Z</time>
      </trkpt>
      <trkpt lat="45.91319" lon="5.41561">
        <ele>423</ele>
        <time>2023-05-27T08:34:26Z</time>
      </trkpt>
      <trkpt lat="45.91321" lon="5.41562">
        <ele>423.2</ele>
        <time>2023-05-27T08:34:27Z</time>
      </trkpt>
      <trkpt lat="45.91323" lon="5.41562">
        <ele>423.4</ele>
        <time>2023-05-27T08:34:28Z</time>
      </trkpt>
      <trkpt lat="45.91325" lon="5.41564">
        <ele>423.8</ele>
        <time>2023-05-27T08:34:29Z</time>
      </trkpt>
      <trkpt lat="45.91328" lon="5.41565">
        <ele>424.2</ele>
        <time>2023-05-27T08:34:30Z</time>
      </trkpt>
      <trkpt lat="45.9133" lon="5.41566">
        <ele>424.6</ele>
        <time>2023-05-27T08:34:31Z</time>
      </trkpt>
      <trkpt lat="45.91333" lon="5.41567">
        <ele>424.8</ele>
        <time>2023-05-27T08:34:32Z</time>
      </trkpt>
      <trkpt lat="45.91336" lon="5.41568">
        <ele>425.2</ele>
        <time>2023-05-27T08:34:33Z</time>
      </trkpt>
      <trkpt lat="45.91339" lon="5.41568">
        <ele>425.4</ele>
        <time>2023-05-27T08:34:34Z</time>
      </trkpt>
      <trkpt lat="45.91342" lon="5.41567">
        <ele>425.8</ele>
        <time>2023-05-27T08:34:35Z</time>
      </trkpt>
      <trkpt lat="45.91344" lon="5.41566">
        <ele>426.4</ele>
        <time>2023-05-27T08:34:36Z</time>
      </trkpt>
      <trkpt lat="45.91347" lon="5.41565">
        <ele>426.6</ele>
        <time>2023-05-27T08:34:37Z</time>
      </trkpt>
      <trkpt lat="45.91351" lon="5.41564">
        <ele>426.6</ele>
        <time>2023-05-27T08:34:38Z</time>
      </trkpt>
      <trkpt lat="45.91354" lon="5.41563">
        <ele>426.8</ele>
        <time>2023-05-27T08:34:39Z</time>
      </trkpt>
      <trkpt lat="45.91357" lon="5.41561">
        <ele>427.2</ele>
        <time>2023-05-27T08:34:40Z</time>
      </trkpt>
      <trkpt lat="45.91361" lon="5.41559">
        <ele>427.4</ele>
        <time>2023-05-27T08:34:41Z</time>
      </trkpt>
      <trkpt lat="45.91364" lon="5.41558">
        <ele>427.8</ele>
        <time>2023-05-27T08:34:42Z</time>
      </trkpt>
      <trkpt lat="45.91366" lon="5.41557">
        <ele>428.4</ele>
        <time>2023-05-27T08:34:43Z</time>
      </trkpt>
      <trkpt lat="45.91369" lon="5.41556">
        <ele>428.8</ele>
        <time>2023-05-27T08:34:44Z</time>
      </trkpt>
      <trkpt lat="45.9137" lon="5.41555">
        <ele>429.2</ele>
        <time>2023-05-27T08:34:45Z</time>
      </trkpt>
      <trkpt lat="45.91372" lon="5.41554">
        <ele>429.2</ele>
        <time>2023-05-27T08:34:46Z</time>
      </trkpt>
      <trkpt lat="45.91374" lon="5.41554">
        <ele>429.4</ele>
        <time>2023-05-27T08:34:47Z</time>
      </trkpt>
      <trkpt lat="45.91377" lon="5.41553">
        <ele>429.6</ele>
        <time>2023-05-27T08:34:48Z</time>
      </trkpt>
      <trkpt lat="45.91379" lon="5.41552">
        <ele>430</ele>
        <time>2023-05-27T08:34:49Z</time>
      </trkpt>
      <trkpt lat="45.91381" lon="5.4155">
        <ele>430.4</ele>
        <time>2023-05-27T08:34:50Z</time>
      </trkpt>
      <trkpt lat="45.91382" lon="5.41549">
        <ele>430.6</ele>
        <time>2023-05-27T08:34:51Z</time>
      </trkpt>
      <trkpt lat="45.91383" lon="5.41547">
        <ele>431</ele>
        <time>2023-05-27T08:34:52Z</time>
      </trkpt>
      <trkpt lat="45.91384" lon="5.41546">
        <ele>431.2</ele>
        <time>2023-05-27T08:34:53Z</time>
      </trkpt>
      <trkpt lat="45.91386" lon="5.41544">
        <ele>431.4</ele>
        <time>2023-05-27T08:34:54Z</time>
      </trkpt>
      <trkpt lat="45.91388" lon="5.41541">
        <ele>431.6</ele>
        <time>2023-05-27T08:34:55Z</time>
      </trkpt>
      <trkpt lat="45.91389" lon="5.41539">
        <ele>431.8</ele>
        <time>2023-05-27T08:34:56Z</time>
      </trkpt>
      <trkpt lat="45.91391" lon="5.41536">
        <ele>432</ele>
        <time>2023-05-27T08:34:57Z</time>
      </trkpt>
      <trkpt lat="45.91392" lon="5.41533">
        <ele>432</ele>
        <time>2023-05-27T08:34:58Z</time>
      </trkpt>
      <trkpt lat="45.91393" lon="5.41529">
        <ele>432.2</ele>
        <time>2023-05-27T08:34:59Z</time>
      </trkpt>
      <trkpt lat="45.91395" lon="5.41525">
        <ele>432.2</ele>
        <time>2023-05-27T08:35:00Z</time>
      </trkpt>
      <trkpt lat="45.91396" lon="5.41522">
        <ele>432.4</ele>
        <time>2023-05-27T08:35:01Z</time>
      </trkpt>
      <trkpt lat="45.91397" lon="5.41519">
        <ele>432.6</ele>
        <time>2023-05-27T08:35:02Z</time>
      </trkpt>
      <trkpt lat="45.91398" lon="5.41516">
        <ele>432.6</ele>
        <time>2023-05-27T08:35:03Z</time>
      </trkpt>
      <trkpt lat="45.91399" lon="5.41514">
        <ele>432.8</ele>
        <time>2023-05-27T08:35:04Z</time>
      </trkpt>
      <trkpt lat="45.914" lon="5.4151">
        <ele>433.2</ele>
        <time>2023-05-27T08:35:05Z</time>
      </trkpt>
      <trkpt lat="45.91402" lon="5.41507">
        <ele>433.4</ele>
        <time>2023-05-27T08:35:06Z</time>
      </trkpt>
      <trkpt lat="45.91404" lon="5.41504">
        <ele>433.4</ele>
        <time>2023-05-27T08:35:07Z</time>
      </trkpt>
      <trkpt lat="45.91406" lon="5.415">
        <ele>433.6</ele>
        <time>2023-05-27T08:35:08Z</time>
      </trkpt>
      <trkpt lat="45.91407" lon="5.41497">
        <ele>433.8</ele>
        <time>2023-05-27T08:35:09Z</time>
      </trkpt>
      <trkpt lat="45.91408" lon="5.41493">
        <ele>434.4</ele>
        <time>2023-05-27T08:35:10Z</time>
      </trkpt>
      <trkpt lat="45.91409" lon="5.41489">
        <ele>434.6</ele>
        <time>2023-05-27T08:35:11Z</time>
      </trkpt>
      <trkpt lat="45.9141" lon="5.41485">
        <ele>434.8</ele>
        <time>2023-05-27T08:35:12Z</time>
      </trkpt>
      <trkpt lat="45.91411" lon="5.41481">
        <ele>435.2</ele>
        <time>2023-05-27T08:35:13Z</time>
      </trkpt>
      <trkpt lat="45.91413" lon="5.41477">
        <ele>435.4</ele>
        <time>2023-05-27T08:35:14Z</time>
      </trkpt>
      <trkpt lat="45.91414" lon="5.41473">
        <ele>435.6</ele>
        <time>2023-05-27T08:35:15Z</time>
      </trkpt>
      <trkpt lat="45.91415" lon="5.4147">
        <ele>435.6</ele>
        <time>2023-05-27T08:35:16Z</time>
      </trkpt>
      <trkpt lat="45.91415" lon="5.41468">
        <ele>435.8</ele>
        <time>2023-05-27T08:35:17Z</time>
      </trkpt>
      <trkpt lat="45.91416" lon="5.41464">
        <ele>436.2</ele>
        <time>2023-05-27T08:35:18Z</time>
      </trkpt>
      <trkpt lat="45.91417" lon="5.41461">
        <ele>436.4</ele>
        <time>2023-05-27T08:35:19Z</time>
      </trkpt>
      <trkpt lat="45.91419" lon="5.41457">
        <ele>436.8</ele>
        <time>2023-05-27T08:35:20Z</time>
      </trkpt>
      <trkpt lat="45.91422" lon="5.41453">
        <ele>436.8</ele>
        <time>2023-05-27T08:35:21Z</time>
      </trkpt>
      <trkpt lat="45.91423" lon="5.41448">
        <ele>437</ele>
        <time>2023-05-27T08:35:22Z</time>
      </trkpt>
      <trkpt lat="45.91425" lon="5.41445">
        <ele>437.2</ele>
        <time>2023-05-27T08:35:23Z</time>
      </trkpt>
      <trkpt lat="45.91427" lon="5.41441">
        <ele>437.4</ele>
        <time>2023-05-27T08:35:24Z</time>
      </trkpt>
      <trkpt lat="45.91428" lon="5.41438">
        <ele>437.6</ele>
        <time>2023-05-27T08:35:25Z</time>
      </trkpt>
      <trkpt lat="45.91428" lon="5.41435">
        <ele>437.8</ele>
        <time>2023-05-27T08:35:26Z</time>
      </trkpt>
      <trkpt lat="45.91427" lon="5.41431">
        <ele>438</ele>
        <time>2023-05-27T08:35:27Z</time>
      </trkpt>
      <trkpt lat="45.91426" lon="5.41428">
        <ele>438.2</ele>
        <time>2023-05-27T08:35:28Z</time>
      </trkpt>
      <trkpt lat="45.91425" lon="5.41426">
        <ele>438.4</ele>
        <time>2023-05-27T08:35:29Z</time>
      </trkpt>
      <trkpt lat="45.91422" lon="5.41426">
        <ele>438.6</ele>
        <time>2023-05-27T08:35:30Z</time>
      </trkpt>
      <trkpt lat="45.9142" lon="5.41427">
        <ele>438.8</ele>
        <time>2023-05-27T08:35:31Z</time>
      </trkpt>
      <trkpt lat="45.91418" lon="5.41428">
        <ele>439.2</ele>
        <time>2023-05-27T08:35:32Z</time>
      </trkpt>
      <trkpt lat="45.91416" lon="5.4143">
        <ele>439.2</ele>
        <time>2023-05-27T08:35:33Z</time>
      </trkpt>
      <trkpt lat="45.91414" lon="5.41432">
        <ele>439.4</ele>
        <time>2023-05-27T08:35:34Z</time>
      </trkpt>
      <trkpt lat="45.91413" lon="5.41435">
        <ele>439.4</ele>
        <time>2023-05-27T08:35:35Z</time>
      </trkpt>
      <trkpt lat="45.91412" lon="5.41438">
        <ele>439.6</ele>
        <time>2023-05-27T08:35:36Z</time>
      </trkpt>
      <trkpt lat="45.91411" lon="5.4144">
        <ele>439.6</ele>
        <time>2023-05-27T08:35:37Z</time>
      </trkpt>
      <trkpt lat="45.9141" lon="5.41442">
        <ele>439.8</ele>
        <time>2023-05-27T08:35:38Z</time>
      </trkpt>
      <trkpt lat="45.91408" lon="5.41445">
        <ele>440</ele>
        <time>2023-05-27T08:35:39Z</time>
      </trkpt>
      <trkpt lat="45.91407" lon="5.41446">
        <ele>440</ele>
        <time>2023-05-27T08:35:40Z</time>
      </trkpt>
      <trkpt lat="45.91406" lon="5.41448">
        <ele>440.4</ele>
        <time>2023-05-27T08:35:41Z</time>
      </trkpt>
      <trkpt lat="45.91405" lon="5.4145">
        <ele>440.4</ele>
        <time>2023-05-27T08:35:42Z</time>
      </trkpt>
      <trkpt lat="45.91404" lon="5.41451">
        <ele>440.4</ele>
        <time>2023-05-27T08:35:43Z</time>
      </trkpt>
      <trkpt lat="45.91402" lon="5.41453">
        <ele>440.4</ele>
        <time>2023-05-27T08:35:44Z</time>
      </trkpt>
      <trkpt lat="45.914" lon="5.41454">
        <ele>440.4</ele>
        <time>2023-05-27T08:35:45Z</time>
      </trkpt>
      <trkpt lat="45.91399" lon="5.41456">
        <ele>440.6</ele>
        <time>2023-05-27T08:35:46Z</time>
      </trkpt>
      <trkpt lat="45.91397" lon="5.41459">
        <ele>440.6</ele>
        <time>2023-05-27T08:35:47Z</time>
      </trkpt>
      <trkpt lat="45.91395" lon="5.41461">
        <ele>440.6</ele>
        <time>2023-05-27T08:35:48Z</time>
      </trkpt>
      <trkpt lat="45.91394" lon="5.41463">
        <ele>440.6</ele>
        <time>2023-05-27T08:35:49Z</time>
      </trkpt>
      <trkpt lat="45.91392" lon="5.41464">
        <ele>440.8</ele>
        <time>2023-05-27T08:35:50Z</time>
      </trkpt>
      <trkpt lat="45.9139" lon="5.41465">
        <ele>440.6</ele>
        <time>2023-05-27T08:35:51Z</time>
      </trkpt>
      <trkpt lat="45.91389" lon="5.41466">
        <ele>440.8</ele>
        <time>2023-05-27T08:35:52Z</time>
      </trkpt>
      <trkpt lat="45.91387" lon="5.41467">
        <ele>440.8</ele>
        <time>2023-05-27T08:35:53Z</time>
      </trkpt>
      <trkpt lat="45.91386" lon="5.41469">
        <ele>440.8</ele>
        <time>2023-05-27T08:35:54Z</time>
      </trkpt>
      <trkpt lat="45.91384" lon="5.41471">
        <ele>441</ele>
        <time>2023-05-27T08:35:55Z</time>
      </trkpt>
      <trkpt lat="45.91382" lon="5.41472">
        <ele>441</ele>
        <time>2023-05-27T08:35:56Z</time>
      </trkpt>
      <trkpt lat="45.9138" lon="5.41474">
        <ele>441.4</ele>
        <time>2023-05-27T08:35:57Z</time>
      </trkpt>
      <trkpt lat="45.91378" lon="5.41475">
        <ele>441.6</ele>
        <time>2023-05-27T08:35:58Z</time>
      </trkpt>
      <trkpt lat="45.91375" lon="5.41477">
        <ele>441.8</ele>
        <time>2023-05-27T08:35:59Z</time>
      </trkpt>
      <trkpt lat="45.91373" lon="5.41478">
        <ele>442</ele>
        <time>2023-05-27T08:36:00Z</time>
      </trkpt>
      <trkpt lat="45.9137" lon="5.4148">
        <ele>442</ele>
        <time>2023-05-27T08:36:01Z</time>
      </trkpt>
      <trkpt lat="45.91367" lon="5.41481">
        <ele>442.2</ele>
        <time>2023-05-27T08:36:02Z</time>
      </trkpt>
      <trkpt lat="45.91365" lon="5.41482">
        <ele>442.4</ele>
        <time>2023-05-27T08:36:03Z</time>
      </trkpt>
      <trkpt lat="45.91362" lon="5.41482">
        <ele>442.4</ele>
        <time>2023-05-27T08:36:04Z</time>
      </trkpt>
      <trkpt lat="45.9136" lon="5.41482">
        <ele>442.6</ele>
        <time>2023-05-27T08:36:05Z</time>
      </trkpt>
      <trkpt lat="45.91357" lon="5.41482">
        <ele>442.8</ele>
        <time>2023-05-27T08:36:06Z</time>
      </trkpt>
      <trkpt lat="45.91354" lon="5.41482">
        <ele>443.4</ele>
        <time>2023-05-27T08:36:07Z</time>
      </trkpt>
      <trkpt lat="45.91351" lon="5.41481">
        <ele>443.6</ele>
        <time>2023-05-27T08:36:08Z</time>
      </trkpt>
      <trkpt lat="45.91349" lon="5.4148">
        <ele>444</ele>
        <time>2023-05-27T08:36:09Z</time>
      </trkpt>
      <trkpt lat="45.91348" lon="5.4148">
        <ele>444.2</ele>
        <time>2023-05-27T08:36:10Z</time>
      </trkpt>
      <trkpt lat="45.91345" lon="5.4148">
        <ele>444.6</ele>
        <time>2023-05-27T08:36:11Z</time>
      </trkpt>
      <trkpt lat="45.91343" lon="5.41479">
        <ele>444.6</ele>
        <time>2023-05-27T08:36:12Z</time>
      </trkpt>
      <trkpt lat="45.91341" lon="5.41478">
        <ele>445</ele>
        <time>2023-05-27T08:36:13Z</time>
      </trkpt>
      <trkpt lat="45.91339" lon="5.41476">
        <ele>445.4</ele>
        <time>2023-05-27T08:36:14Z</time>
      </trkpt>
      <trkpt lat="45.91337" lon="5.41475">
        <ele>445.8</ele>
        <time>2023-05-27T08:36:15Z</time>
      </trkpt>
      <trkpt lat="45.91333" lon="5.41473">
        <ele>446.2</ele>
        <time>2023-05-27T08:36:16Z</time>
      </trkpt>
      <trkpt lat="45.91331" lon="5.41471">
        <ele>446.4</ele>
        <time>2023-05-27T08:36:17Z</time>
      </trkpt>
      <trkpt lat="45.91331" lon="5.41468">
        <ele>446.8</ele>
        <time>2023-05-27T08:36:18Z</time>
      </trkpt>
      <trkpt lat="45.9133" lon="5.41465">
        <ele>447</ele>
        <time>2023-05-27T08:36:19Z</time>
      </trkpt>
      <trkpt lat="45.91331" lon="5.41463">
        <ele>447.4</ele>
        <time>2023-05-27T08:36:20Z</time>
      </trkpt>
      <trkpt lat="45.91331" lon="5.4146">
        <ele>447.8</ele>
        <time>2023-05-27T08:36:21Z</time>
      </trkpt>
      <trkpt lat="45.91331" lon="5.41458">
        <ele>448</ele>
        <time>2023-05-27T08:36:22Z</time>
      </trkpt>
      <trkpt lat="45.91331" lon="5.41454">
        <ele>448.2</ele>
        <time>2023-05-27T08:36:23Z</time>
      </trkpt>
      <trkpt lat="45.91331" lon="5.41451">
        <ele>448.4</ele>
        <time>2023-05-27T08:36:24Z</time>
      </trkpt>
      <trkpt lat="45.91331" lon="5.41448">
        <ele>449</ele>
        <time>2023-05-27T08:36:25Z</time>
      </trkpt>
      <trkpt lat="45.91331" lon="5.41445">
        <ele>449.2</ele>
        <time>2023-05-27T08:36:26Z</time>
      </trkpt>
      <trkpt lat="45.91331" lon="5.41443">
        <ele>449.6</ele>
        <time>2023-05-27T08:36:27Z</time>
      </trkpt>
      <trkpt lat="45.91332" lon="5.41441">
        <ele>450</ele>
        <time>2023-05-27T08:36:28Z</time>
      </trkpt>
      <trkpt lat="45.91332" lon="5.41439">
        <ele>450.2</ele>
        <time>2023-05-27T08:36:29Z</time>
      </trkpt>
      <trkpt lat="45.91332" lon="5.41436">
        <ele>450.6</ele>
        <time>2023-05-27T08:36:30Z</time>
      </trkpt>
      <trkpt lat="45.91333" lon="5.41433">
        <ele>450.8</ele>
        <time>2023-05-27T08:36:31Z</time>
      </trkpt>
      <trkpt lat="45.91333" lon="5.4143">
        <ele>451.2</ele>
        <time>2023-05-27T08:36:32Z</time>
      </trkpt>
      <trkpt lat="45.91334" lon="5.41427">
        <ele>451.4</ele>
        <time>2023-05-27T08:36:33Z</time>
      </trkpt>
      <trkpt lat="45.91335" lon="5.41424">
        <ele>451.6</ele>
        <time>2023-05-27T08:36:34Z</time>
      </trkpt>
      <trkpt lat="45.91335" lon="5.41421">
        <ele>452</ele>
        <time>2023-05-27T08:36:35Z</time>
      </trkpt>
      <trkpt lat="45.91335" lon="5.41419">
        <ele>452.2</ele>
        <time>2023-05-27T08:36:36Z</time>
      </trkpt>
      <trkpt lat="45.91335" lon="5.41416">
        <ele>452.4</ele>
        <time>2023-05-27T08:36:37Z</time>
      </trkpt>
      <trkpt lat="45.91335" lon="5.41412">
        <ele>452.6</ele>
        <time>2023-05-27T08:36:38Z</time>
      </trkpt>
      <trkpt lat="45.91336" lon="5.41409">
        <ele>453</ele>
        <time>2023-05-27T08:36:39Z</time>
      </trkpt>
      <trkpt lat="45.91336" lon="5.41406">
        <ele>453</ele>
        <time>2023-05-27T08:36:40Z</time>
      </trkpt>
      <trkpt lat="45.91337" lon="5.41402">
        <ele>453.4</ele>
        <time>2023-05-27T08:36:41Z</time>
      </trkpt>
      <trkpt lat="45.91337" lon="5.41397">
        <ele>453.8</ele>
        <time>2023-05-27T08:36:42Z</time>
      </trkpt>
      <trkpt lat="45.91337" lon="5.41393">
        <ele>454</ele>
        <time>2023-05-27T08:36:43Z</time>
      </trkpt>
      <trkpt lat="45.91337" lon="5.41389">
        <ele>454.6</ele>
        <time>2023-05-27T08:36:44Z</time>
      </trkpt>
      <trkpt lat="45.91336" lon="5.41386">
        <ele>454.8</ele>
        <time>2023-05-27T08:36:45Z</time>
      </trkpt>
      <trkpt lat="45.91336" lon="5.41383">
        <ele>455.2</ele>
        <time>2023-05-27T08:36:46Z</time>
      </trkpt>
      <trkpt lat="45.91335" lon="5.41379">
        <ele>455.6</ele>
        <time>2023-05-27T08:36:47Z</time>
      </trkpt>
      <trkpt lat="45.91336" lon="5.41376">
        <ele>456</ele>
        <time>2023-05-27T08:36:48Z</time>
      </trkpt>
      <trkpt lat="45.91336" lon="5.41372">
        <ele>456.2</ele>
        <time>2023-05-27T08:36:49Z</time>
      </trkpt>
      <trkpt lat="45.91336" lon="5.41369">
        <ele>456.4</ele>
        <time>2023-05-27T08:36:50Z</time>
      </trkpt>
      <trkpt lat="45.91336" lon="5.41366">
        <ele>456.4</ele>
        <time>2023-05-27T08:36:51Z</time>
      </trkpt>
      <trkpt lat="45.91336" lon="5.41362">
        <ele>456.6</ele>
        <time>2023-05-27T08:36:52Z</time>
      </trkpt>
      <trkpt lat="45.91336" lon="5.41359">
        <ele>456.8</ele>
        <time>2023-05-27T08:36:53Z</time>
      </trkpt>
      <trkpt lat="45.91336" lon="5.41355">
        <ele>457</ele>
        <time>2023-05-27T08:36:54Z</time>
      </trkpt>
      <trkpt lat="45.91338" lon="5.4135">
        <ele>457.2</ele>
        <time>2023-05-27T08:36:55Z</time>
      </trkpt>
      <trkpt lat="45.91339" lon="5.41346">
        <ele>457.2</ele>
        <time>2023-05-27T08:36:56Z</time>
      </trkpt>
      <trkpt lat="45.9134" lon="5.41343">
        <ele>457.4</ele>
        <time>2023-05-27T08:36:57Z</time>
      </trkpt>
      <trkpt lat="45.91343" lon="5.41341">
        <ele>457.6</ele>
        <time>2023-05-27T08:36:58Z</time>
      </trkpt>
      <trkpt lat="45.91345" lon="5.41339">
        <ele>457.8</ele>
        <time>2023-05-27T08:36:59Z</time>
      </trkpt>
      <trkpt lat="45.91347" lon="5.41337">
        <ele>458.2</ele>
        <time>2023-05-27T08:37:00Z</time>
      </trkpt>
      <trkpt lat="45.91349" lon="5.41335">
        <ele>458.4</ele>
        <time>2023-05-27T08:37:01Z</time>
      </trkpt>
      <trkpt lat="45.9135" lon="5.41333">
        <ele>459</ele>
        <time>2023-05-27T08:37:02Z</time>
      </trkpt>
      <trkpt lat="45.91352" lon="5.41332">
        <ele>459.2</ele>
        <time>2023-05-27T08:37:03Z</time>
      </trkpt>
      <trkpt lat="45.91354" lon="5.4133">
        <ele>459.4</ele>
        <time>2023-05-27T08:37:04Z</time>
      </trkpt>
      <trkpt lat="45.91355" lon="5.41327">
        <ele>459.6</ele>
        <time>2023-05-27T08:37:05Z</time>
      </trkpt>
      <trkpt lat="45.91357" lon="5.41325">
        <ele>459.8</ele>
        <time>2023-05-27T08:37:06Z</time>
      </trkpt>
      <trkpt lat="45.91357" lon="5.41322">
        <ele>460</ele>
        <time>2023-05-27T08:37:07Z</time>
      </trkpt>
      <trkpt lat="45.91358" lon="5.41319">
        <ele>460</ele>
        <time>2023-05-27T08:37:08Z</time>
      </trkpt>
      <trkpt lat="45.91358" lon="5.41317">
        <ele>460.2</ele>
        <time>2023-05-27T08:37:09Z</time>
      </trkpt>
      <trkpt lat="45.91358" lon="5.41314">
        <ele>460.4</ele>
        <time>2023-05-27T08:37:10Z</time>
      </trkpt>
      <trkpt lat="45.91358" lon="5.41312">
        <ele>460.4</ele>
        <time>2023-05-27T08:37:11Z</time>
      </trkpt>
      <trkpt lat="45.91358" lon="5.4131">
        <ele>460.6</ele>
        <time>2023-05-27T08:37:12Z</time>
      </trkpt>
      <trkpt lat="45.91358" lon="5.41307">
        <ele>460.8</ele>
        <time>2023-05-27T08:37:13Z</time>
      </trkpt>
      <trkpt lat="45.91357" lon="5.41305">
        <ele>460.8</ele>
        <time>2023-05-27T08:37:14Z</time>
      </trkpt>
      <trkpt lat="45.91356" lon="5.41302">
        <ele>461</ele>
        <time>2023-05-27T08:37:15Z</time>
      </trkpt>
      <trkpt lat="45.91356" lon="5.413">
        <ele>461.2</ele>
        <time>2023-05-27T08:37:16Z</time>
      </trkpt>
      <trkpt lat="45.91355" lon="5.41298">
        <ele>461.4</ele>
        <time>2023-05-27T08:37:17Z</time>
      </trkpt>
      <trkpt lat="45.91354" lon="5.41295">
        <ele>461.6</ele>
        <time>2023-05-27T08:37:18Z</time>
      </trkpt>
      <trkpt lat="45.91352" lon="5.41292">
        <ele>461.8</ele>
        <time>2023-05-27T08:37:19Z</time>
      </trkpt>
      <trkpt lat="45.91351" lon="5.4129">
        <ele>461.8</ele>
        <time>2023-05-27T08:37:20Z</time>
      </trkpt>
      <trkpt lat="45.91349" lon="5.41288">
        <ele>462</ele>
        <time>2023-05-27T08:37:21Z</time>
      </trkpt>
      <trkpt lat="45.91347" lon="5.41287">
        <ele>462</ele>
        <time>2023-05-27T08:37:22Z</time>
      </trkpt>
      <trkpt lat="45.91345" lon="5.41285">
        <ele>462</ele>
        <time>2023-05-27T08:37:23Z</time>
      </trkpt>
      <trkpt lat="45.91343" lon="5.41284">
        <ele>462.2</ele>
        <time>2023-05-27T08:37:24Z</time>
      </trkpt>
      <trkpt lat="45.9134" lon="5.41284">
        <ele>462.2</ele>
        <time>2023-05-27T08:37:25Z</time>
      </trkpt>
      <trkpt lat="45.91338" lon="5.41284">
        <ele>462.2</ele>
        <time>2023-05-27T08:37:26Z</time>
      </trkpt>
      <trkpt lat="45.91336" lon="5.41284">
        <ele>462.2</ele>
        <time>2023-05-27T08:37:27Z</time>
      </trkpt>
      <trkpt lat="45.91334" lon="5.41284">
        <ele>462</ele>
        <time>2023-05-27T08:37:28Z</time>
      </trkpt>
      <trkpt lat="45.91332" lon="5.41284">
        <ele>462</ele>
        <time>2023-05-27T08:37:29Z</time>
      </trkpt>
      <trkpt lat="45.9133" lon="5.41284">
        <ele>462</ele>
        <time>2023-05-27T08:37:30Z</time>
      </trkpt>
      <trkpt lat="45.91327" lon="5.41285">
        <ele>462</ele>
        <time>2023-05-27T08:37:31Z</time>
      </trkpt>
      <trkpt lat="45.91325" lon="5.41285">
        <ele>461.8</ele>
        <time>2023-05-27T08:37:32Z</time>
      </trkpt>
      <trkpt lat="45.91324" lon="5.41285">
        <ele>461.8</ele>
        <time>2023-05-27T08:37:33Z</time>
      </trkpt>
      <trkpt lat="45.91322" lon="5.41285">
        <ele>461.8</ele>
        <time>2023-05-27T08:37:34Z</time>
      </trkpt>
      <trkpt lat="45.91318" lon="5.41286">
        <ele>461.6</ele>
        <time>2023-05-27T08:37:36Z</time>
      </trkpt>
      <trkpt lat="45.91316" lon="5.41286">
        <ele>461.6</ele>
        <time>2023-05-27T08:37:37Z</time>
      </trkpt>
      <trkpt lat="45.91314" lon="5.41286">
        <ele>461.8</ele>
        <time>2023-05-27T08:37:38Z</time>
      </trkpt>
      <trkpt lat="45.91312" lon="5.41286">
        <ele>461.8</ele>
        <time>2023-05-27T08:37:39Z</time>
      </trkpt>
      <trkpt lat="45.9131" lon="5.41286">
        <ele>461.8</ele>
        <time>2023-05-27T08:37:40Z</time>
      </trkpt>
      <trkpt lat="45.91306" lon="5.41287">
        <ele>461.8</ele>
        <time>2023-05-27T08:37:42Z</time>
      </trkpt>
      <trkpt lat="45.91304" lon="5.41288">
        <ele>461.6</ele>
        <time>2023-05-27T08:37:43Z</time>
      </trkpt>
      <trkpt lat="45.91301" lon="5.41289">
        <ele>461.8</ele>
        <time>2023-05-27T08:37:44Z</time>
      </trkpt>
      <trkpt lat="45.913" lon="5.4129">
        <ele>462</ele>
        <time>2023-05-27T08:37:45Z</time>
      </trkpt>
      <trkpt lat="45.91298" lon="5.41291">
        <ele>461.8</ele>
        <time>2023-05-27T08:37:46Z</time>
      </trkpt>
      <trkpt lat="45.91295" lon="5.41292">
        <ele>461.8</ele>
        <time>2023-05-27T08:37:47Z</time>
      </trkpt>
      <trkpt lat="45.91293" lon="5.41293">
        <ele>461.8</ele>
        <time>2023-05-27T08:37:48Z</time>
      </trkpt>
      <trkpt lat="45.91291" lon="5.41294">
        <ele>461.8</ele>
        <time>2023-05-27T08:37:49Z</time>
      </trkpt>
      <trkpt lat="45.9129" lon="5.41295">
        <ele>462</ele>
        <time>2023-05-27T08:37:50Z</time>
      </trkpt>
      <trkpt lat="45.91288" lon="5.41296">
        <ele>462</ele>
        <time>2023-05-27T08:37:51Z</time>
      </trkpt>
      <trkpt lat="45.91287" lon="5.41297">
        <ele>462</ele>
        <time>2023-05-27T08:37:52Z</time>
      </trkpt>
      <trkpt lat="45.91285" lon="5.41298">
        <ele>462.6</ele>
        <time>2023-05-27T08:37:53Z</time>
      </trkpt>
      <trkpt lat="45.91283" lon="5.413">
        <ele>462.8</ele>
        <time>2023-05-27T08:37:54Z</time>
      </trkpt>
      <trkpt lat="45.91281" lon="5.41302">
        <ele>463.2</ele>
        <time>2023-05-27T08:37:55Z</time>
      </trkpt>
      <trkpt lat="45.9128" lon="5.41304">
        <ele>463.6</ele>
        <time>2023-05-27T08:37:56Z</time>
      </trkpt>
      <trkpt lat="45.91278" lon="5.41305">
        <ele>463.8</ele>
        <time>2023-05-27T08:37:57Z</time>
      </trkpt>
      <trkpt lat="45.91276" lon="5.41306">
        <ele>464.4</ele>
        <time>2023-05-27T08:37:58Z</time>
      </trkpt>
      <trkpt lat="45.91275" lon="5.41307">
        <ele>464.6</ele>
        <time>2023-05-27T08:37:59Z</time>
      </trkpt>
      <trkpt lat="45.91273" lon="5.41309">
        <ele>465</ele>
        <time>2023-05-27T08:38:00Z</time>
      </trkpt>
      <trkpt lat="45.91272" lon="5.4131">
        <ele>465.4</ele>
        <time>2023-05-27T08:38:01Z</time>
      </trkpt>
      <trkpt lat="45.9127" lon="5.41312">
        <ele>465.6</ele>
        <time>2023-05-27T08:38:02Z</time>
      </trkpt>
      <trkpt lat="45.91269" lon="5.41313">
        <ele>466</ele>
        <time>2023-05-27T08:38:03Z</time>
      </trkpt>
      <trkpt lat="45.91267" lon="5.41315">
        <ele>466.2</ele>
        <time>2023-05-27T08:38:04Z</time>
      </trkpt>
      <trkpt lat="45.91266" lon="5.41316">
        <ele>466.6</ele>
        <time>2023-05-27T08:38:05Z</time>
      </trkpt>
      <trkpt lat="45.91264" lon="5.41317">
        <ele>467</ele>
        <time>2023-05-27T08:38:06Z</time>
      </trkpt>
      <trkpt lat="45.91263" lon="5.41319">
        <ele>467.6</ele>
        <time>2023-05-27T08:38:07Z</time>
      </trkpt>
      <trkpt lat="45.91262" lon="5.4132">
        <ele>468</ele>
        <time>2023-05-27T08:38:08Z</time>
      </trkpt>
      <trkpt lat="45.91261" lon="5.41323">
        <ele>468.2</ele>
        <time>2023-05-27T08:38:09Z</time>
      </trkpt>
      <trkpt lat="45.91259" lon="5.41324">
        <ele>468.8</ele>
        <time>2023-05-27T08:38:10Z</time>
      </trkpt>
      <trkpt lat="45.91258" lon="5.41326">
        <ele>469.2</ele>
        <time>2023-05-27T08:38:11Z</time>
      </trkpt>
      <trkpt lat="45.91256" lon="5.41328">
        <ele>469.4</ele>
        <time>2023-05-27T08:38:12Z</time>
      </trkpt>
      <trkpt lat="45.91254" lon="5.41332">
        <ele>469.8</ele>
        <time>2023-05-27T08:38:13Z</time>
      </trkpt>
      <trkpt lat="45.91252" lon="5.41334">
        <ele>469.8</ele>
        <time>2023-05-27T08:38:14Z</time>
      </trkpt>
      <trkpt lat="45.91251" lon="5.41337">
        <ele>470.4</ele>
        <time>2023-05-27T08:38:15Z</time>
      </trkpt>
      <trkpt lat="45.91249" lon="5.41339">
        <ele>470.6</ele>
        <time>2023-05-27T08:38:16Z</time>
      </trkpt>
      <trkpt lat="45.91247" lon="5.41342">
        <ele>471.6</ele>
        <time>2023-05-27T08:38:17Z</time>
      </trkpt>
      <trkpt lat="45.91245" lon="5.41345">
        <ele>472</ele>
        <time>2023-05-27T08:38:18Z</time>
      </trkpt>
      <trkpt lat="45.91244" lon="5.41349">
        <ele>472.6</ele>
        <time>2023-05-27T08:38:19Z</time>
      </trkpt>
      <trkpt lat="45.91242" lon="5.41353">
        <ele>472.6</ele>
        <time>2023-05-27T08:38:20Z</time>
      </trkpt>
      <trkpt lat="45.9124" lon="5.41356">
        <ele>472.8</ele>
        <time>2023-05-27T08:38:21Z</time>
      </trkpt>
      <trkpt lat="45.91239" lon="5.41358">
        <ele>473.2</ele>
        <time>2023-05-27T08:38:22Z</time>
      </trkpt>
      <trkpt lat="45.91237" lon="5.41361">
        <ele>473.2</ele>
        <time>2023-05-27T08:38:23Z</time>
      </trkpt>
      <trkpt lat="45.91235" lon="5.41363">
        <ele>473.4</ele>
        <time>2023-05-27T08:38:24Z</time>
      </trkpt>
      <trkpt lat="45.91233" lon="5.41366">
        <ele>473.6</ele>
        <time>2023-05-27T08:38:25Z</time>
      </trkpt>
      <trkpt lat="45.91232" lon="5.41367">
        <ele>473.8</ele>
        <time>2023-05-27T08:38:26Z</time>
      </trkpt>
      <trkpt lat="45.9123" lon="5.41369">
        <ele>474</ele>
        <time>2023-05-27T08:38:27Z</time>
      </trkpt>
      <trkpt lat="45.91228" lon="5.4137">
        <ele>474.4</ele>
        <time>2023-05-27T08:38:28Z</time>
      </trkpt>
      <trkpt lat="45.91226" lon="5.41371">
        <ele>474.6</ele>
        <time>2023-05-27T08:38:29Z</time>
      </trkpt>
      <trkpt lat="45.91224" lon="5.41373">
        <ele>474.6</ele>
        <time>2023-05-27T08:38:30Z</time>
      </trkpt>
      <trkpt lat="45.91221" lon="5.41374">
        <ele>474.8</ele>
        <time>2023-05-27T08:38:31Z</time>
      </trkpt>
      <trkpt lat="45.91219" lon="5.41375">
        <ele>474.8</ele>
        <time>2023-05-27T08:38:32Z</time>
      </trkpt>
      <trkpt lat="45.91217" lon="5.41376">
        <ele>474.8</ele>
        <time>2023-05-27T08:38:33Z</time>
      </trkpt>
      <trkpt lat="45.91215" lon="5.41377">
        <ele>474.8</ele>
        <time>2023-05-27T08:38:34Z</time>
      </trkpt>
      <trkpt lat="45.91213" lon="5.41378">
        <ele>475</ele>
        <time>2023-05-27T08:38:35Z</time>
      </trkpt>
      <trkpt lat="45.9121" lon="5.41379">
        <ele>475.2</ele>
        <time>2023-05-27T08:38:36Z</time>
      </trkpt>
      <trkpt lat="45.91208" lon="5.4138">
        <ele>475.4</ele>
        <time>2023-05-27T08:38:37Z</time>
      </trkpt>
      <trkpt lat="45.91206" lon="5.41381">
        <ele>475.6</ele>
        <time>2023-05-27T08:38:38Z</time>
      </trkpt>
      <trkpt lat="45.91204" lon="5.41382">
        <ele>475.6</ele>
        <time>2023-05-27T08:38:39Z</time>
      </trkpt>
      <trkpt lat="45.91201" lon="5.41383">
        <ele>475.8</ele>
        <time>2023-05-27T08:38:40Z</time>
      </trkpt>
      <trkpt lat="45.91199" lon="5.41383">
        <ele>476.2</ele>
        <time>2023-05-27T08:38:41Z</time>
      </trkpt>
      <trkpt lat="45.91196" lon="5.41384">
        <ele>476.8</ele>
        <time>2023-05-27T08:38:42Z</time>
      </trkpt>
      <trkpt lat="45.91193" lon="5.41384">
        <ele>477</ele>
        <time>2023-05-27T08:38:43Z</time>
      </trkpt>
      <trkpt lat="45.91191" lon="5.41385">
        <ele>477</ele>
        <time>2023-05-27T08:38:44Z</time>
      </trkpt>
      <trkpt lat="45.91189" lon="5.41386">
        <ele>477.4</ele>
        <time>2023-05-27T08:38:45Z</time>
      </trkpt>
      <trkpt lat="45.91187" lon="5.41386">
        <ele>477.4</ele>
        <time>2023-05-27T08:38:46Z</time>
      </trkpt>
      <trkpt lat="45.91184" lon="5.41387">
        <ele>477.6</ele>
        <time>2023-05-27T08:38:47Z</time>
      </trkpt>
      <trkpt lat="45.91182" lon="5.41388">
        <ele>477.8</ele>
        <time>2023-05-27T08:38:48Z</time>
      </trkpt>
      <trkpt lat="45.9118" lon="5.41388">
        <ele>478.4</ele>
        <time>2023-05-27T08:38:49Z</time>
      </trkpt>
      <trkpt lat="45.91178" lon="5.41388">
        <ele>478.8</ele>
        <time>2023-05-27T08:38:50Z</time>
      </trkpt>
      <trkpt lat="45.91175" lon="5.41389">
        <ele>478.8</ele>
        <time>2023-05-27T08:38:51Z</time>
      </trkpt>
      <trkpt lat="45.91173" lon="5.41389">
        <ele>479.2</ele>
        <time>2023-05-27T08:38:52Z</time>
      </trkpt>
      <trkpt lat="45.91171" lon="5.4139">
        <ele>479</ele>
        <time>2023-05-27T08:38:53Z</time>
      </trkpt>
      <trkpt lat="45.91169" lon="5.4139">
        <ele>479.4</ele>
        <time>2023-05-27T08:38:54Z</time>
      </trkpt>
      <trkpt lat="45.91166" lon="5.4139">
        <ele>479.4</ele>
        <time>2023-05-27T08:38:55Z</time>
      </trkpt>
      <trkpt lat="45.91163" lon="5.41391">
        <ele>480</ele>
        <time>2023-05-27T08:38:56Z</time>
      </trkpt>
      <trkpt lat="45.91161" lon="5.41391">
        <ele>480.6</ele>
        <time>2023-05-27T08:38:57Z</time>
      </trkpt>
      <trkpt lat="45.91158" lon="5.41392">
        <ele>480.8</ele>
        <time>2023-05-27T08:38:58Z</time>
      </trkpt>
      <trkpt lat="45.91156" lon="5.41392">
        <ele>481.2</ele>
        <time>2023-05-27T08:38:59Z</time>
      </trkpt>
      <trkpt lat="45.91153" lon="5.41393">
        <ele>481.4</ele>
        <time>2023-05-27T08:39:00Z</time>
      </trkpt>
      <trkpt lat="45.91151" lon="5.41393">
        <ele>482</ele>
        <time>2023-05-27T08:39:01Z</time>
      </trkpt>
      <trkpt lat="45.91148" lon="5.41394">
        <ele>482.2</ele>
        <time>2023-05-27T08:39:02Z</time>
      </trkpt>
      <trkpt lat="45.91145" lon="5.41394">
        <ele>482.8</ele>
        <time>2023-05-27T08:39:03Z</time>
      </trkpt>
      <trkpt lat="45.91143" lon="5.41395">
        <ele>483.2</ele>
        <time>2023-05-27T08:39:04Z</time>
      </trkpt>
      <trkpt lat="45.9114" lon="5.41395">
        <ele>483.2</ele>
        <time>2023-05-27T08:39:05Z</time>
      </trkpt>
      <trkpt lat="45.91138" lon="5.41395">
        <ele>483.4</ele>
        <time>2023-05-27T08:39:06Z</time>
      </trkpt>
      <trkpt lat="45.91135" lon="5.41396">
        <ele>483.6</ele>
        <time>2023-05-27T08:39:07Z</time>
      </trkpt>
      <trkpt lat="45.91133" lon="5.41397">
        <ele>484.2</ele>
        <time>2023-05-27T08:39:08Z</time>
      </trkpt>
      <trkpt lat="45.9113" lon="5.41397">
        <ele>484.6</ele>
        <time>2023-05-27T08:39:09Z</time>
      </trkpt>
      <trkpt lat="45.91128" lon="5.41398">
        <ele>485.2</ele>
        <time>2023-05-27T08:39:10Z</time>
      </trkpt>
      <trkpt lat="45.91126" lon="5.41399">
        <ele>485.4</ele>
        <time>2023-05-27T08:39:11Z</time>
      </trkpt>
      <trkpt lat="45.91123" lon="5.414">
        <ele>485.6</ele>
        <time>2023-05-27T08:39:12Z</time>
      </trkpt>
      <trkpt lat="45.91121" lon="5.414">
        <ele>485.8</ele>
        <time>2023-05-27T08:39:13Z</time>
      </trkpt>
      <trkpt lat="45.91119" lon="5.41401">
        <ele>485.8</ele>
        <time>2023-05-27T08:39:14Z</time>
      </trkpt>
      <trkpt lat="45.91116" lon="5.41401">
        <ele>486</ele>
        <time>2023-05-27T08:39:15Z</time>
      </trkpt>
      <trkpt lat="45.91114" lon="5.41402">
        <ele>486.2</ele>
        <time>2023-05-27T08:39:16Z</time>
      </trkpt>
      <trkpt lat="45.91112" lon="5.41402">
        <ele>486.4</ele>
        <time>2023-05-27T08:39:17Z</time>
      </trkpt>
      <trkpt lat="45.9111" lon="5.41403">
        <ele>486.6</ele>
        <time>2023-05-27T08:39:18Z</time>
      </trkpt>
      <trkpt lat="45.91108" lon="5.41403">
        <ele>486.8</ele>
        <time>2023-05-27T08:39:19Z</time>
      </trkpt>
      <trkpt lat="45.91105" lon="5.41404">
        <ele>487</ele>
        <time>2023-05-27T08:39:20Z</time>
      </trkpt>
      <trkpt lat="45.91103" lon="5.41404">
        <ele>487</ele>
        <time>2023-05-27T08:39:21Z</time>
      </trkpt>
      <trkpt lat="45.91101" lon="5.41404">
        <ele>487.2</ele>
        <time>2023-05-27T08:39:22Z</time>
      </trkpt>
      <trkpt lat="45.91099" lon="5.41405">
        <ele>487.2</ele>
        <time>2023-05-27T08:39:23Z</time>
      </trkpt>
      <trkpt lat="45.91097" lon="5.41405">
        <ele>487.4</ele>
        <time>2023-05-27T08:39:24Z</time>
      </trkpt>
      <trkpt lat="45.91094" lon="5.41405">
        <ele>487.6</ele>
        <time>2023-05-27T08:39:25Z</time>
      </trkpt>
      <trkpt lat="45.91092" lon="5.41406">
        <ele>487.8</ele>
        <time>2023-05-27T08:39:26Z</time>
      </trkpt>
      <trkpt lat="45.91089" lon="5.41407">
        <ele>488.2</ele>
        <time>2023-05-27T08:39:27Z</time>
      </trkpt>
      <trkpt lat="45.91087" lon="5.41408">
        <ele>488.4</ele>
        <time>2023-05-27T08:39:28Z</time>
      </trkpt>
      <trkpt lat="45.91085" lon="5.41408">
        <ele>488.6</ele>
        <time>2023-05-27T08:39:29Z</time>
      </trkpt>
      <trkpt lat="45.91082" lon="5.41408">
        <ele>488.6</ele>
        <time>2023-05-27T08:39:30Z</time>
      </trkpt>
      <trkpt lat="45.9108" lon="5.41409">
        <ele>488.6</ele>
        <time>2023-05-27T08:39:31Z</time>
      </trkpt>
      <trkpt lat="45.91078" lon="5.4141">
        <ele>488.8</ele>
        <time>2023-05-27T08:39:32Z</time>
      </trkpt>
      <trkpt lat="45.91075" lon="5.4141">
        <ele>489</ele>
        <time>2023-05-27T08:39:33Z</time>
      </trkpt>
      <trkpt lat="45.91073" lon="5.41411">
        <ele>489.2</ele>
        <time>2023-05-27T08:39:34Z</time>
      </trkpt>
      <trkpt lat="45.91071" lon="5.41412">
        <ele>489.4</ele>
        <time>2023-05-27T08:39:35Z</time>
      </trkpt>
      <trkpt lat="45.91069" lon="5.41412">
        <ele>489.8</ele>
        <time>2023-05-27T08:39:36Z</time>
      </trkpt>
      <trkpt lat="45.91066" lon="5.41413">
        <ele>489.8</ele>
        <time>2023-05-27T08:39:37Z</time>
      </trkpt>
      <trkpt lat="45.91064" lon="5.41413">
        <ele>490</ele>
        <time>2023-05-27T08:39:38Z</time>
      </trkpt>
      <trkpt lat="45.91062" lon="5.41414">
        <ele>490.2</ele>
        <time>2023-05-27T08:39:39Z</time>
      </trkpt>
      <trkpt lat="45.91059" lon="5.41414">
        <ele>490.6</ele>
        <time>2023-05-27T08:39:40Z</time>
      </trkpt>
      <trkpt lat="45.91057" lon="5.41414">
        <ele>490.8</ele>
        <time>2023-05-27T08:39:41Z</time>
      </trkpt>
      <trkpt lat="45.91055" lon="5.41414">
        <ele>490.8</ele>
        <time>2023-05-27T08:39:42Z</time>
      </trkpt>
      <trkpt lat="45.91053" lon="5.41415">
        <ele>491</ele>
        <time>2023-05-27T08:39:43Z</time>
      </trkpt>
      <trkpt lat="45.9105" lon="5.41415">
        <ele>491.2</ele>
        <time>2023-05-27T08:39:44Z</time>
      </trkpt>
      <trkpt lat="45.91048" lon="5.41416">
        <ele>491.6</ele>
        <time>2023-05-27T08:39:45Z</time>
      </trkpt>
      <trkpt lat="45.91045" lon="5.41416">
        <ele>491.8</ele>
        <time>2023-05-27T08:39:46Z</time>
      </trkpt>
      <trkpt lat="45.91043" lon="5.41416">
        <ele>492.2</ele>
        <time>2023-05-27T08:39:47Z</time>
      </trkpt>
      <trkpt lat="45.91041" lon="5.41417">
        <ele>492.4</ele>
        <time>2023-05-27T08:39:48Z</time>
      </trkpt>
      <trkpt lat="45.91039" lon="5.41417">
        <ele>492.4</ele>
        <time>2023-05-27T08:39:49Z</time>
      </trkpt>
      <trkpt lat="45.91036" lon="5.41418">
        <ele>492.6</ele>
        <time>2023-05-27T08:39:50Z</time>
      </trkpt>
      <trkpt lat="45.91034" lon="5.41419">
        <ele>492.8</ele>
        <time>2023-05-27T08:39:51Z</time>
      </trkpt>
      <trkpt lat="45.91033" lon="5.41419">
        <ele>493</ele>
        <time>2023-05-27T08:39:52Z</time>
      </trkpt>
      <trkpt lat="45.9103" lon="5.41419">
        <ele>493.4</ele>
        <time>2023-05-27T08:39:53Z</time>
      </trkpt>
      <trkpt lat="45.91028" lon="5.4142">
        <ele>493.8</ele>
        <time>2023-05-27T08:39:54Z</time>
      </trkpt>
      <trkpt lat="45.91026" lon="5.4142">
        <ele>494</ele>
        <time>2023-05-27T08:39:55Z</time>
      </trkpt>
      <trkpt lat="45.91024" lon="5.41421">
        <ele>494.2</ele>
        <time>2023-05-27T08:39:56Z</time>
      </trkpt>
      <trkpt lat="45.91022" lon="5.4142">
        <ele>494.6</ele>
        <time>2023-05-27T08:39:57Z</time>
      </trkpt>
      <trkpt lat="45.91019" lon="5.41421">
        <ele>494.8</ele>
        <time>2023-05-27T08:39:58Z</time>
      </trkpt>
      <trkpt lat="45.91017" lon="5.41422">
        <ele>495.2</ele>
        <time>2023-05-27T08:39:59Z</time>
      </trkpt>
      <trkpt lat="45.91015" lon="5.41422">
        <ele>495.6</ele>
        <time>2023-05-27T08:40:00Z</time>
      </trkpt>
      <trkpt lat="45.91012" lon="5.41423">
        <ele>496.2</ele>
        <time>2023-05-27T08:40:01Z</time>
      </trkpt>
      <trkpt lat="45.9101" lon="5.41423">
        <ele>496.8</ele>
        <time>2023-05-27T08:40:02Z</time>
      </trkpt>
      <trkpt lat="45.91007" lon="5.41423">
        <ele>497</ele>
        <time>2023-05-27T08:40:03Z</time>
      </trkpt>
      <trkpt lat="45.91005" lon="5.41423">
        <ele>497.6</ele>
        <time>2023-05-27T08:40:04Z</time>
      </trkpt>
      <trkpt lat="45.91003" lon="5.41423">
        <ele>498</ele>
        <time>2023-05-27T08:40:05Z</time>
      </trkpt>
      <trkpt lat="45.91001" lon="5.41424">
        <ele>498.4</ele>
        <time>2023-05-27T08:40:06Z</time>
      </trkpt>
      <trkpt lat="45.90998" lon="5.41424">
        <ele>498.8</ele>
        <time>2023-05-27T08:40:07Z</time>
      </trkpt>
      <trkpt lat="45.90996" lon="5.41424">
        <ele>499.4</ele>
        <time>2023-05-27T08:40:08Z</time>
      </trkpt>
      <trkpt lat="45.90995" lon="5.41424">
        <ele>500</ele>
        <time>2023-05-27T08:40:09Z</time>
      </trkpt>
      <trkpt lat="45.90993" lon="5.41424">
        <ele>500.4</ele>
        <time>2023-05-27T08:40:10Z</time>
      </trkpt>
      <trkpt lat="45.90991" lon="5.41424">
        <ele>500.8</ele>
        <time>2023-05-27T08:40:11Z</time>
      </trkpt>
      <trkpt lat="45.90989" lon="5.41424">
        <ele>501</ele>
        <time>2023-05-27T08:40:12Z</time>
      </trkpt>
      <trkpt lat="45.90987" lon="5.41424">
        <ele>501</ele>
        <time>2023-05-27T08:40:13Z</time>
      </trkpt>
      <trkpt lat="45.90985" lon="5.41425">
        <ele>501.6</ele>
        <time>2023-05-27T08:40:14Z</time>
      </trkpt>
      <trkpt lat="45.90983" lon="5.41424">
        <ele>501.8</ele>
        <time>2023-05-27T08:40:15Z</time>
      </trkpt>
      <trkpt lat="45.90981" lon="5.41424">
        <ele>502.6</ele>
        <time>2023-05-27T08:40:16Z</time>
      </trkpt>
      <trkpt lat="45.90979" lon="5.41424">
        <ele>503.2</ele>
        <time>2023-05-27T08:40:17Z</time>
      </trkpt>
      <trkpt lat="45.90977" lon="5.41424">
        <ele>503.6</ele>
        <time>2023-05-27T08:40:18Z</time>
      </trkpt>
      <trkpt lat="45.90974" lon="5.41425">
        <ele>504</ele>
        <time>2023-05-27T08:40:19Z</time>
      </trkpt>
      <trkpt lat="45.90971" lon="5.41425">
        <ele>504.6</ele>
        <time>2023-05-27T08:40:20Z</time>
      </trkpt>
      <trkpt lat="45.90969" lon="5.41425">
        <ele>504.6</ele>
        <time>2023-05-27T08:40:21Z</time>
      </trkpt>
      <trkpt lat="45.90967" lon="5.41425">
        <ele>505</ele>
        <time>2023-05-27T08:40:22Z</time>
      </trkpt>
      <trkpt lat="45.90964" lon="5.41425">
        <ele>505.2</ele>
        <time>2023-05-27T08:40:23Z</time>
      </trkpt>
      <trkpt lat="45.90962" lon="5.41426">
        <ele>505.6</ele>
        <time>2023-05-27T08:40:24Z</time>
      </trkpt>
      <trkpt lat="45.90959" lon="5.41426">
        <ele>506</ele>
        <time>2023-05-27T08:40:25Z</time>
      </trkpt>
      <trkpt lat="45.90957" lon="5.41426">
        <ele>506.4</ele>
        <time>2023-05-27T08:40:26Z</time>
      </trkpt>
      <trkpt lat="45.90955" lon="5.41427">
        <ele>507</ele>
        <time>2023-05-27T08:40:27Z</time>
      </trkpt>
      <trkpt lat="45.90952" lon="5.41428">
        <ele>507</ele>
        <time>2023-05-27T08:40:28Z</time>
      </trkpt>
      <trkpt lat="45.9095" lon="5.41428">
        <ele>507.4</ele>
        <time>2023-05-27T08:40:29Z</time>
      </trkpt>
      <trkpt lat="45.90948" lon="5.41428">
        <ele>508</ele>
        <time>2023-05-27T08:40:30Z</time>
      </trkpt>
      <trkpt lat="45.90945" lon="5.41428">
        <ele>508.2</ele>
        <time>2023-05-27T08:40:31Z</time>
      </trkpt>
      <trkpt lat="45.90942" lon="5.41428">
        <ele>508.4</ele>
        <time>2023-05-27T08:40:32Z</time>
      </trkpt>
      <trkpt lat="45.9094" lon="5.41428">
        <ele>508.8</ele>
        <time>2023-05-27T08:40:33Z</time>
      </trkpt>
      <trkpt lat="45.90938" lon="5.41427">
        <ele>509.2</ele>
        <time>2023-05-27T08:40:34Z</time>
      </trkpt>
      <trkpt lat="45.90936" lon="5.41427">
        <ele>509.4</ele>
        <time>2023-05-27T08:40:35Z</time>
      </trkpt>
      <trkpt lat="45.90933" lon="5.41426">
        <ele>509.8</ele>
        <time>2023-05-27T08:40:36Z</time>
      </trkpt>
      <trkpt lat="45.9093" lon="5.41426">
        <ele>510.4</ele>
        <time>2023-05-27T08:40:37Z</time>
      </trkpt>
      <trkpt lat="45.90928" lon="5.41425">
        <ele>510.6</ele>
        <time>2023-05-27T08:40:38Z</time>
      </trkpt>
      <trkpt lat="45.90926" lon="5.41425">
        <ele>511.2</ele>
        <time>2023-05-27T08:40:39Z</time>
      </trkpt>
      <trkpt lat="45.90924" lon="5.41425">
        <ele>511.4</ele>
        <time>2023-05-27T08:40:40Z</time>
      </trkpt>
      <trkpt lat="45.90921" lon="5.41424">
        <ele>511.6</ele>
        <time>2023-05-27T08:40:41Z</time>
      </trkpt>
      <trkpt lat="45.90919" lon="5.41424">
        <ele>511.8</ele>
        <time>2023-05-27T08:40:42Z</time>
      </trkpt>
      <trkpt lat="45.90916" lon="5.41425">
        <ele>512</ele>
        <time>2023-05-27T08:40:43Z</time>
      </trkpt>
      <trkpt lat="45.90912" lon="5.41426">
        <ele>512.8</ele>
        <time>2023-05-27T08:40:44Z</time>
      </trkpt>
      <trkpt lat="45.90909" lon="5.41425">
        <ele>513.2</ele>
        <time>2023-05-27T08:40:45Z</time>
      </trkpt>
      <trkpt lat="45.90906" lon="5.41425">
        <ele>513.6</ele>
        <time>2023-05-27T08:40:46Z</time>
      </trkpt>
      <trkpt lat="45.90903" lon="5.41426">
        <ele>513.6</ele>
        <time>2023-05-27T08:40:47Z</time>
      </trkpt>
      <trkpt lat="45.90901" lon="5.41428">
        <ele>514.2</ele>
        <time>2023-05-27T08:40:48Z</time>
      </trkpt>
      <trkpt lat="45.909" lon="5.41428">
        <ele>514.4</ele>
        <time>2023-05-27T08:40:49Z</time>
      </trkpt>
      <trkpt lat="45.90899" lon="5.41427">
        <ele>514.8</ele>
        <time>2023-05-27T08:40:50Z</time>
      </trkpt>
      <trkpt lat="45.90897" lon="5.41427">
        <ele>515</ele>
        <time>2023-05-27T08:40:51Z</time>
      </trkpt>
      <trkpt lat="45.90894" lon="5.41428">
        <ele>515.2</ele>
        <time>2023-05-27T08:40:52Z</time>
      </trkpt>
      <trkpt lat="45.90892" lon="5.41428">
        <ele>515.4</ele>
        <time>2023-05-27T08:40:53Z</time>
      </trkpt>
      <trkpt lat="45.9089" lon="5.41429">
        <ele>515.6</ele>
        <time>2023-05-27T08:40:54Z</time>
      </trkpt>
      <trkpt lat="45.90889" lon="5.41429">
        <ele>516</ele>
        <time>2023-05-27T08:40:55Z</time>
      </trkpt>
      <trkpt lat="45.90887" lon="5.41429">
        <ele>516</ele>
        <time>2023-05-27T08:40:56Z</time>
      </trkpt>
      <trkpt lat="45.90886" lon="5.41429">
        <ele>516.4</ele>
        <time>2023-05-27T08:40:57Z</time>
      </trkpt>
      <trkpt lat="45.90883" lon="5.41429">
        <ele>516.6</ele>
        <time>2023-05-27T08:40:58Z</time>
      </trkpt>
      <trkpt lat="45.90881" lon="5.41429">
        <ele>516.8</ele>
        <time>2023-05-27T08:40:59Z</time>
      </trkpt>
      <trkpt lat="45.9088" lon="5.41429">
        <ele>517.2</ele>
        <time>2023-05-27T08:41:00Z</time>
      </trkpt>
      <trkpt lat="45.90878" lon="5.4143">
        <ele>517.4</ele>
        <time>2023-05-27T08:41:01Z</time>
      </trkpt>
      <trkpt lat="45.90876" lon="5.4143">
        <ele>517.8</ele>
        <time>2023-05-27T08:41:02Z</time>
      </trkpt>
      <trkpt lat="45.90875" lon="5.4143">
        <ele>518</ele>
        <time>2023-05-27T08:41:03Z</time>
      </trkpt>
      <trkpt lat="45.90874" lon="5.4143">
        <ele>518.4</ele>
        <time>2023-05-27T08:41:04Z</time>
      </trkpt>
      <trkpt lat="45.90872" lon="5.4143">
        <ele>518.6</ele>
        <time>2023-05-27T08:41:05Z</time>
      </trkpt>
      <trkpt lat="45.9087" lon="5.4143">
        <ele>518.8</ele>
        <time>2023-05-27T08:41:06Z</time>
      </trkpt>
      <trkpt lat="45.90866" lon="5.4143">
        <ele>519.4</ele>
        <time>2023-05-27T08:41:07Z</time>
      </trkpt>
      <trkpt lat="45.90864" lon="5.41429">
        <ele>519.6</ele>
        <time>2023-05-27T08:41:08Z</time>
      </trkpt>
      <trkpt lat="45.90861" lon="5.41428">
        <ele>520.4</ele>
        <time>2023-05-27T08:41:09Z</time>
      </trkpt>
      <trkpt lat="45.90859" lon="5.41427">
        <ele>520.6</ele>
        <time>2023-05-27T08:41:10Z</time>
      </trkpt>
      <trkpt lat="45.90856" lon="5.41427">
        <ele>521.2</ele>
        <time>2023-05-27T08:41:11Z</time>
      </trkpt>
      <trkpt lat="45.90852" lon="5.41426">
        <ele>521.4</ele>
        <time>2023-05-27T08:41:12Z</time>
      </trkpt>
      <trkpt lat="45.90848" lon="5.41426">
        <ele>521.8</ele>
        <time>2023-05-27T08:41:13Z</time>
      </trkpt>
      <trkpt lat="45.90846" lon="5.41423">
        <ele>522.2</ele>
        <time>2023-05-27T08:41:14Z</time>
      </trkpt>
      <trkpt lat="45.90843" lon="5.4142">
        <ele>522.2</ele>
        <time>2023-05-27T08:41:15Z</time>
      </trkpt>
      <trkpt lat="45.90842" lon="5.41417">
        <ele>522.6</ele>
        <time>2023-05-27T08:41:16Z</time>
      </trkpt>
      <trkpt lat="45.9084" lon="5.41414">
        <ele>522.8</ele>
        <time>2023-05-27T08:41:17Z</time>
      </trkpt>
      <trkpt lat="45.90839" lon="5.41411">
        <ele>523</ele>
        <time>2023-05-27T08:41:18Z</time>
      </trkpt>
      <trkpt lat="45.90838" lon="5.41408">
        <ele>523.2</ele>
        <time>2023-05-27T08:41:19Z</time>
      </trkpt>
      <trkpt lat="45.90837" lon="5.41405">
        <ele>523.2</ele>
        <time>2023-05-27T08:41:20Z</time>
      </trkpt>
      <trkpt lat="45.90837" lon="5.41402">
        <ele>523.4</ele>
        <time>2023-05-27T08:41:21Z</time>
      </trkpt>
      <trkpt lat="45.90837" lon="5.41399">
        <ele>523.4</ele>
        <time>2023-05-27T08:41:22Z</time>
      </trkpt>
      <trkpt lat="45.90836" lon="5.41396">
        <ele>523.6</ele>
        <time>2023-05-27T08:41:23Z</time>
      </trkpt>
      <trkpt lat="45.90835" lon="5.41393">
        <ele>523.6</ele>
        <time>2023-05-27T08:41:24Z</time>
      </trkpt>
      <trkpt lat="45.90834" lon="5.4139">
        <ele>523.8</ele>
        <time>2023-05-27T08:41:25Z</time>
      </trkpt>
      <trkpt lat="45.90834" lon="5.41387">
        <ele>523.8</ele>
        <time>2023-05-27T08:41:26Z</time>
      </trkpt>
      <trkpt lat="45.90833" lon="5.41385">
        <ele>524</ele>
        <time>2023-05-27T08:41:27Z</time>
      </trkpt>
      <trkpt lat="45.90835" lon="5.41381">
        <ele>524.2</ele>
        <time>2023-05-27T08:41:28Z</time>
      </trkpt>
      <trkpt lat="45.90837" lon="5.41378">
        <ele>524.2</ele>
        <time>2023-05-27T08:41:29Z</time>
      </trkpt>
      <trkpt lat="45.90836" lon="5.41374">
        <ele>524.4</ele>
        <time>2023-05-27T08:41:30Z</time>
      </trkpt>
      <trkpt lat="45.90834" lon="5.4137">
        <ele>524.6</ele>
        <time>2023-05-27T08:41:31Z</time>
      </trkpt>
      <trkpt lat="45.90834" lon="5.41367">
        <ele>524.6</ele>
        <time>2023-05-27T08:41:32Z</time>
      </trkpt>
      <trkpt lat="45.90834" lon="5.41364">
        <ele>524.8</ele>
        <time>2023-05-27T08:41:33Z</time>
      </trkpt>
      <trkpt lat="45.90834" lon="5.4136">
        <ele>525.2</ele>
        <time>2023-05-27T08:41:34Z</time>
      </trkpt>
      <trkpt lat="45.90835" lon="5.41357">
        <ele>525.4</ele>
        <time>2023-05-27T08:41:35Z</time>
      </trkpt>
      <trkpt lat="45.90835" lon="5.41353">
        <ele>525.8</ele>
        <time>2023-05-27T08:41:36Z</time>
      </trkpt>
      <trkpt lat="45.90835" lon="5.4135">
        <ele>526.4</ele>
        <time>2023-05-27T08:41:37Z</time>
      </trkpt>
      <trkpt lat="45.90836" lon="5.41346">
        <ele>526.6</ele>
        <time>2023-05-27T08:41:38Z</time>
      </trkpt>
      <trkpt lat="45.90836" lon="5.41342">
        <ele>527</ele>
        <time>2023-05-27T08:41:39Z</time>
      </trkpt>
      <trkpt lat="45.90836" lon="5.41338">
        <ele>527</ele>
        <time>2023-05-27T08:41:40Z</time>
      </trkpt>
      <trkpt lat="45.90837" lon="5.41333">
        <ele>527.4</ele>
        <time>2023-05-27T08:41:41Z</time>
      </trkpt>
      <trkpt lat="45.90837" lon="5.41328">
        <ele>527.8</ele>
        <time>2023-05-27T08:41:42Z</time>
      </trkpt>
      <trkpt lat="45.90838" lon="5.41323">
        <ele>528</ele>
        <time>2023-05-27T08:41:43Z</time>
      </trkpt>
      <trkpt lat="45.90838" lon="5.41317">
        <ele>528.2</ele>
        <time>2023-05-27T08:41:44Z</time>
      </trkpt>
      <trkpt lat="45.90838" lon="5.41311">
        <ele>528.4</ele>
        <time>2023-05-27T08:41:45Z</time>
      </trkpt>
      <trkpt lat="45.90839" lon="5.41304">
        <ele>528.8</ele>
        <time>2023-05-27T08:41:46Z</time>
      </trkpt>
      <trkpt lat="45.90839" lon="5.41296">
        <ele>528.8</ele>
        <time>2023-05-27T08:41:47Z</time>
      </trkpt>
      <trkpt lat="45.90839" lon="5.41287">
        <ele>529.2</ele>
        <time>2023-05-27T08:41:48Z</time>
      </trkpt>
      <trkpt lat="45.90839" lon="5.41279">
        <ele>529.2</ele>
        <time>2023-05-27T08:41:49Z</time>
      </trkpt>
      <trkpt lat="45.90838" lon="5.41271">
        <ele>529.4</ele>
        <time>2023-05-27T08:41:50Z</time>
      </trkpt>
      <trkpt lat="45.90838" lon="5.41263">
        <ele>529.4</ele>
        <time>2023-05-27T08:41:51Z</time>
      </trkpt>
      <trkpt lat="45.90837" lon="5.41256">
        <ele>529.6</ele>
        <time>2023-05-27T08:41:52Z</time>
      </trkpt>
      <trkpt lat="45.90836" lon="5.4125">
        <ele>529.8</ele>
        <time>2023-05-27T08:41:53Z</time>
      </trkpt>
      <trkpt lat="45.90836" lon="5.41243">
        <ele>530</ele>
        <time>2023-05-27T08:41:54Z</time>
      </trkpt>
      <trkpt lat="45.90835" lon="5.41237">
        <ele>530.4</ele>
        <time>2023-05-27T08:41:55Z</time>
      </trkpt>
      <trkpt lat="45.90835" lon="5.41231">
        <ele>530.6</ele>
        <time>2023-05-27T08:41:56Z</time>
      </trkpt>
      <trkpt lat="45.90834" lon="5.41226">
        <ele>530.6</ele>
        <time>2023-05-27T08:41:57Z</time>
      </trkpt>
      <trkpt lat="45.90834" lon="5.41216">
        <ele>531</ele>
        <time>2023-05-27T08:41:59Z</time>
      </trkpt>
      <trkpt lat="45.90834" lon="5.4121">
        <ele>531.2</ele>
        <time>2023-05-27T08:42:00Z</time>
      </trkpt>
      <trkpt lat="45.90833" lon="5.41205">
        <ele>531.2</ele>
        <time>2023-05-27T08:42:01Z</time>
      </trkpt>
      <trkpt lat="45.90834" lon="5.41199">
        <ele>531.4</ele>
        <time>2023-05-27T08:42:02Z</time>
      </trkpt>
      <trkpt lat="45.90834" lon="5.41194">
        <ele>531.4</ele>
        <time>2023-05-27T08:42:03Z</time>
      </trkpt>
      <trkpt lat="45.90834" lon="5.4119">
        <ele>531.6</ele>
        <time>2023-05-27T08:42:04Z</time>
      </trkpt>
      <trkpt lat="45.90835" lon="5.41186">
        <ele>531.8</ele>
        <time>2023-05-27T08:42:05Z</time>
      </trkpt>
      <trkpt lat="45.90836" lon="5.41182">
        <ele>532</ele>
        <time>2023-05-27T08:42:06Z</time>
      </trkpt>
      <trkpt lat="45.90837" lon="5.41178">
        <ele>532.2</ele>
        <time>2023-05-27T08:42:07Z</time>
      </trkpt>
      <trkpt lat="45.90839" lon="5.41175">
        <ele>532.4</ele>
        <time>2023-05-27T08:42:08Z</time>
      </trkpt>
      <trkpt lat="45.90841" lon="5.41172">
        <ele>532.8</ele>
        <time>2023-05-27T08:42:09Z</time>
      </trkpt>
      <trkpt lat="45.90843" lon="5.4117">
        <ele>533</ele>
        <time>2023-05-27T08:42:10Z</time>
      </trkpt>
      <trkpt lat="45.90845" lon="5.41168">
        <ele>533.2</ele>
        <time>2023-05-27T08:42:11Z</time>
      </trkpt>
      <trkpt lat="45.90847" lon="5.41165">
        <ele>533.2</ele>
        <time>2023-05-27T08:42:12Z</time>
      </trkpt>
      <trkpt lat="45.90849" lon="5.41162">
        <ele>533.4</ele>
        <time>2023-05-27T08:42:13Z</time>
      </trkpt>
      <trkpt lat="45.90852" lon="5.41158">
        <ele>533.6</ele>
        <time>2023-05-27T08:42:14Z</time>
      </trkpt>
      <trkpt lat="45.90855" lon="5.41155">
        <ele>533.6</ele>
        <time>2023-05-27T08:42:15Z</time>
      </trkpt>
      <trkpt lat="45.90857" lon="5.41151">
        <ele>533.8</ele>
        <time>2023-05-27T08:42:16Z</time>
      </trkpt>
      <trkpt lat="45.90859" lon="5.41148">
        <ele>533.8</ele>
        <time>2023-05-27T08:42:17Z</time>
      </trkpt>
      <trkpt lat="45.90861" lon="5.41144">
        <ele>534</ele>
        <time>2023-05-27T08:42:18Z</time>
      </trkpt>
      <trkpt lat="45.90864" lon="5.41135">
        <ele>534.4</ele>
        <time>2023-05-27T08:42:20Z</time>
      </trkpt>
      <trkpt lat="45.90865" lon="5.41131">
        <ele>534.6</ele>
        <time>2023-05-27T08:42:21Z</time>
      </trkpt>
      <trkpt lat="45.90866" lon="5.41126">
        <ele>534.6</ele>
        <time>2023-05-27T08:42:22Z</time>
      </trkpt>
      <trkpt lat="45.90867" lon="5.41122">
        <ele>534.8</ele>
        <time>2023-05-27T08:42:23Z</time>
      </trkpt>
      <trkpt lat="45.90867" lon="5.41117">
        <ele>535</ele>
        <time>2023-05-27T08:42:24Z</time>
      </trkpt>
      <trkpt lat="45.90868" lon="5.41111">
        <ele>535.2</ele>
        <time>2023-05-27T08:42:25Z</time>
      </trkpt>
      <trkpt lat="45.90869" lon="5.41105">
        <ele>535.4</ele>
        <time>2023-05-27T08:42:26Z</time>
      </trkpt>
      <trkpt lat="45.90869" lon="5.41099">
        <ele>535.6</ele>
        <time>2023-05-27T08:42:27Z</time>
      </trkpt>
      <trkpt lat="45.9087" lon="5.41093">
        <ele>535.8</ele>
        <time>2023-05-27T08:42:28Z</time>
      </trkpt>
      <trkpt lat="45.9087" lon="5.41086">
        <ele>535.8</ele>
        <time>2023-05-27T08:42:29Z</time>
      </trkpt>
      <trkpt lat="45.90871" lon="5.41079">
        <ele>536</ele>
        <time>2023-05-27T08:42:30Z</time>
      </trkpt>
      <trkpt lat="45.90871" lon="5.41072">
        <ele>536</ele>
        <time>2023-05-27T08:42:31Z</time>
      </trkpt>
      <trkpt lat="45.90872" lon="5.41064">
        <ele>536.2</ele>
        <time>2023-05-27T08:42:32Z</time>
      </trkpt>
      <trkpt lat="45.90873" lon="5.41057">
        <ele>536.2</ele>
        <time>2023-05-27T08:42:33Z</time>
      </trkpt>
      <trkpt lat="45.90874" lon="5.4105">
        <ele>536.4</ele>
        <time>2023-05-27T08:42:34Z</time>
      </trkpt>
      <trkpt lat="45.90875" lon="5.41043">
        <ele>536.6</ele>
        <time>2023-05-27T08:42:35Z</time>
      </trkpt>
      <trkpt lat="45.90877" lon="5.41038">
        <ele>536.6</ele>
        <time>2023-05-27T08:42:36Z</time>
      </trkpt>
      <trkpt lat="45.90878" lon="5.41033">
        <ele>536.8</ele>
        <time>2023-05-27T08:42:37Z</time>
      </trkpt>
      <trkpt lat="45.90879" lon="5.41028">
        <ele>536.8</ele>
        <time>2023-05-27T08:42:38Z</time>
      </trkpt>
      <trkpt lat="45.9088" lon="5.41023">
        <ele>537</ele>
        <time>2023-05-27T08:42:39Z</time>
      </trkpt>
      <trkpt lat="45.90881" lon="5.41019">
        <ele>537</ele>
        <time>2023-05-27T08:42:40Z</time>
      </trkpt>
      <trkpt lat="45.90882" lon="5.41016">
        <ele>537.2</ele>
        <time>2023-05-27T08:42:41Z</time>
      </trkpt>
      <trkpt lat="45.90881" lon="5.41012">
        <ele>537.6</ele>
        <time>2023-05-27T08:42:42Z</time>
      </trkpt>
      <trkpt lat="45.90879" lon="5.41009">
        <ele>537.6</ele>
        <time>2023-05-27T08:42:43Z</time>
      </trkpt>
      <trkpt lat="45.90878" lon="5.41005">
        <ele>537.8</ele>
        <time>2023-05-27T08:42:44Z</time>
      </trkpt>
      <trkpt lat="45.90875" lon="5.41002">
        <ele>537.8</ele>
        <time>2023-05-27T08:42:45Z</time>
      </trkpt>
      <trkpt lat="45.90873" lon="5.41">
        <ele>538</ele>
        <time>2023-05-27T08:42:46Z</time>
      </trkpt>
      <trkpt lat="45.90871" lon="5.40997">
        <ele>538.2</ele>
        <time>2023-05-27T08:42:47Z</time>
      </trkpt>
      <trkpt lat="45.90868" lon="5.40994">
        <ele>538.2</ele>
        <time>2023-05-27T08:42:48Z</time>
      </trkpt>
      <trkpt lat="45.90863" lon="5.40988">
        <ele>538.2</ele>
        <time>2023-05-27T08:42:50Z</time>
      </trkpt>
      <trkpt lat="45.9086" lon="5.40986">
        <ele>538.2</ele>
        <time>2023-05-27T08:42:51Z</time>
      </trkpt>
      <trkpt lat="45.90858" lon="5.40983">
        <ele>538.4</ele>
        <time>2023-05-27T08:42:52Z</time>
      </trkpt>
      <trkpt lat="45.90855" lon="5.40981">
        <ele>538.4</ele>
        <time>2023-05-27T08:42:53Z</time>
      </trkpt>
      <trkpt lat="45.90853" lon="5.40978">
        <ele>538.6</ele>
        <time>2023-05-27T08:42:54Z</time>
      </trkpt>
      <trkpt lat="45.9085" lon="5.40976">
        <ele>538.6</ele>
        <time>2023-05-27T08:42:55Z</time>
      </trkpt>
      <trkpt lat="45.90848" lon="5.40973">
        <ele>538.6</ele>
        <time>2023-05-27T08:42:56Z</time>
      </trkpt>
      <trkpt lat="45.90846" lon="5.40971">
        <ele>538.6</ele>
        <time>2023-05-27T08:42:57Z</time>
      </trkpt>
      <trkpt lat="45.90843" lon="5.40969">
        <ele>538.8</ele>
        <time>2023-05-27T08:42:58Z</time>
      </trkpt>
      <trkpt lat="45.90841" lon="5.40966">
        <ele>538.8</ele>
        <time>2023-05-27T08:42:59Z</time>
      </trkpt>
      <trkpt lat="45.90839" lon="5.40964">
        <ele>538.8</ele>
        <time>2023-05-27T08:43:00Z</time>
      </trkpt>
      <trkpt lat="45.90837" lon="5.40962">
        <ele>538.8</ele>
        <time>2023-05-27T08:43:01Z</time>
      </trkpt>
      <trkpt lat="45.90835" lon="5.4096">
        <ele>539</ele>
        <time>2023-05-27T08:43:02Z</time>
      </trkpt>
      <trkpt lat="45.90833" lon="5.40959">
        <ele>539</ele>
        <time>2023-05-27T08:43:03Z</time>
      </trkpt>
      <trkpt lat="45.90831" lon="5.40957">
        <ele>539.2</ele>
        <time>2023-05-27T08:43:04Z</time>
      </trkpt>
      <trkpt lat="45.90829" lon="5.40955">
        <ele>539.4</ele>
        <time>2023-05-27T08:43:05Z</time>
      </trkpt>
      <trkpt lat="45.90828" lon="5.40954">
        <ele>539.4</ele>
        <time>2023-05-27T08:43:06Z</time>
      </trkpt>
      <trkpt lat="45.90826" lon="5.40952">
        <ele>539.6</ele>
        <time>2023-05-27T08:43:07Z</time>
      </trkpt>
      <trkpt lat="45.90825" lon="5.40952">
        <ele>540</ele>
        <time>2023-05-27T08:43:08Z</time>
      </trkpt>
      <trkpt lat="45.90823" lon="5.40952">
        <ele>540.2</ele>
        <time>2023-05-27T08:43:09Z</time>
      </trkpt>
      <trkpt lat="45.90821" lon="5.40952">
        <ele>540.8</ele>
        <time>2023-05-27T08:43:10Z</time>
      </trkpt>
      <trkpt lat="45.9082" lon="5.40953">
        <ele>541.2</ele>
        <time>2023-05-27T08:43:11Z</time>
      </trkpt>
      <trkpt lat="45.90818" lon="5.40954">
        <ele>541.8</ele>
        <time>2023-05-27T08:43:12Z</time>
      </trkpt>
      <trkpt lat="45.90816" lon="5.40955">
        <ele>542</ele>
        <time>2023-05-27T08:43:13Z</time>
      </trkpt>
      <trkpt lat="45.90814" lon="5.40956">
        <ele>542.4</ele>
        <time>2023-05-27T08:43:14Z</time>
      </trkpt>
      <trkpt lat="45.90811" lon="5.40957">
        <ele>542.6</ele>
        <time>2023-05-27T08:43:15Z</time>
      </trkpt>
      <trkpt lat="45.90808" lon="5.4096">
        <ele>543.2</ele>
        <time>2023-05-27T08:43:16Z</time>
      </trkpt>
      <trkpt lat="45.90805" lon="5.40961">
        <ele>543.4</ele>
        <time>2023-05-27T08:43:17Z</time>
      </trkpt>
      <trkpt lat="45.90802" lon="5.40961">
        <ele>543.6</ele>
        <time>2023-05-27T08:43:18Z</time>
      </trkpt>
      <trkpt lat="45.90799" lon="5.40961">
        <ele>544</ele>
        <time>2023-05-27T08:43:19Z</time>
      </trkpt>
      <trkpt lat="45.90796" lon="5.40961">
        <ele>544.2</ele>
        <time>2023-05-27T08:43:20Z</time>
      </trkpt>
      <trkpt lat="45.90792" lon="5.4096">
        <ele>544.4</ele>
        <time>2023-05-27T08:43:21Z</time>
      </trkpt>
      <trkpt lat="45.90789" lon="5.40959">
        <ele>544.6</ele>
        <time>2023-05-27T08:43:22Z</time>
      </trkpt>
      <trkpt lat="45.90787" lon="5.40959">
        <ele>545</ele>
        <time>2023-05-27T08:43:23Z</time>
      </trkpt>
      <trkpt lat="45.90785" lon="5.40959">
        <ele>546</ele>
        <time>2023-05-27T08:43:24Z</time>
      </trkpt>
      <trkpt lat="45.90782" lon="5.40958">
        <ele>546.4</ele>
        <time>2023-05-27T08:43:25Z</time>
      </trkpt>
      <trkpt lat="45.90779" lon="5.40957">
        <ele>546.8</ele>
        <time>2023-05-27T08:43:26Z</time>
      </trkpt>
      <trkpt lat="45.90776" lon="5.40957">
        <ele>547</ele>
        <time>2023-05-27T08:43:27Z</time>
      </trkpt>
      <trkpt lat="45.90774" lon="5.40956">
        <ele>547.2</ele>
        <time>2023-05-27T08:43:28Z</time>
      </trkpt>
      <trkpt lat="45.90771" lon="5.40955">
        <ele>547.4</ele>
        <time>2023-05-27T08:43:29Z</time>
      </trkpt>
      <trkpt lat="45.90769" lon="5.40954">
        <ele>547.6</ele>
        <time>2023-05-27T08:43:30Z</time>
      </trkpt>
      <trkpt lat="45.90766" lon="5.40953">
        <ele>548</ele>
        <time>2023-05-27T08:43:31Z</time>
      </trkpt>
      <trkpt lat="45.90762" lon="5.40954">
        <ele>548</ele>
        <time>2023-05-27T08:43:32Z</time>
      </trkpt>
      <trkpt lat="45.90758" lon="5.40954">
        <ele>548.2</ele>
        <time>2023-05-27T08:43:33Z</time>
      </trkpt>
      <trkpt lat="45.90756" lon="5.40953">
        <ele>548.2</ele>
        <time>2023-05-27T08:43:34Z</time>
      </trkpt>
      <trkpt lat="45.90753" lon="5.40954">
        <ele>548.6</ele>
        <time>2023-05-27T08:43:35Z</time>
      </trkpt>
      <trkpt lat="45.90751" lon="5.40955">
        <ele>549</ele>
        <time>2023-05-27T08:43:36Z</time>
      </trkpt>
      <trkpt lat="45.90749" lon="5.40956">
        <ele>549.4</ele>
        <time>2023-05-27T08:43:37Z</time>
      </trkpt>
      <trkpt lat="45.90747" lon="5.40956">
        <ele>549.8</ele>
        <time>2023-05-27T08:43:38Z</time>
      </trkpt>
      <trkpt lat="45.90744" lon="5.40957">
        <ele>550</ele>
        <time>2023-05-27T08:43:39Z</time>
      </trkpt>
      <trkpt lat="45.90741" lon="5.40958">
        <ele>550.2</ele>
        <time>2023-05-27T08:43:40Z</time>
      </trkpt>
      <trkpt lat="45.90738" lon="5.40959">
        <ele>550.2</ele>
        <time>2023-05-27T08:43:41Z</time>
      </trkpt>
      <trkpt lat="45.90734" lon="5.40961">
        <ele>550.2</ele>
        <time>2023-05-27T08:43:42Z</time>
      </trkpt>
      <trkpt lat="45.90731" lon="5.40963">
        <ele>550.2</ele>
        <time>2023-05-27T08:43:43Z</time>
      </trkpt>
      <trkpt lat="45.90728" lon="5.40964">
        <ele>550.4</ele>
        <time>2023-05-27T08:43:44Z</time>
      </trkpt>
      <trkpt lat="45.90725" lon="5.40966">
        <ele>550.4</ele>
        <time>2023-05-27T08:43:45Z</time>
      </trkpt>
      <trkpt lat="45.90723" lon="5.40968">
        <ele>550.4</ele>
        <time>2023-05-27T08:43:46Z</time>
      </trkpt>
      <trkpt lat="45.9072" lon="5.40969">
        <ele>550.4</ele>
        <time>2023-05-27T08:43:47Z</time>
      </trkpt>
      <trkpt lat="45.90719" lon="5.4097">
        <ele>550.4</ele>
        <time>2023-05-27T08:43:48Z</time>
      </trkpt>
      <trkpt lat="45.90717" lon="5.40971">
        <ele>550.2</ele>
        <time>2023-05-27T08:43:49Z</time>
      </trkpt>
      <trkpt lat="45.90714" lon="5.40973">
        <ele>550.2</ele>
        <time>2023-05-27T08:43:50Z</time>
      </trkpt>
      <trkpt lat="45.90712" lon="5.40974">
        <ele>549.8</ele>
        <time>2023-05-27T08:43:51Z</time>
      </trkpt>
      <trkpt lat="45.90709" lon="5.40976">
        <ele>549.6</ele>
        <time>2023-05-27T08:43:52Z</time>
      </trkpt>
      <trkpt lat="45.90706" lon="5.40979">
        <ele>549.6</ele>
        <time>2023-05-27T08:43:53Z</time>
      </trkpt>
      <trkpt lat="45.90703" lon="5.4098">
        <ele>549.8</ele>
        <time>2023-05-27T08:43:54Z</time>
      </trkpt>
      <trkpt lat="45.90701" lon="5.40982">
        <ele>549.8</ele>
        <time>2023-05-27T08:43:55Z</time>
      </trkpt>
      <trkpt lat="45.90698" lon="5.40983">
        <ele>549.8</ele>
        <time>2023-05-27T08:43:56Z</time>
      </trkpt>
      <trkpt lat="45.90694" lon="5.40984">
        <ele>549.6</ele>
        <time>2023-05-27T08:43:57Z</time>
      </trkpt>
      <trkpt lat="45.90691" lon="5.40985">
        <ele>549.6</ele>
        <time>2023-05-27T08:43:58Z</time>
      </trkpt>
      <trkpt lat="45.90688" lon="5.40985">
        <ele>549.8</ele>
        <time>2023-05-27T08:43:59Z</time>
      </trkpt>
      <trkpt lat="45.90685" lon="5.40986">
        <ele>549.6</ele>
        <time>2023-05-27T08:44:00Z</time>
      </trkpt>
      <trkpt lat="45.90682" lon="5.40986">
        <ele>549.6</ele>
        <time>2023-05-27T08:44:01Z</time>
      </trkpt>
      <trkpt lat="45.90679" lon="5.40987">
        <ele>549.6</ele>
        <time>2023-05-27T08:44:02Z</time>
      </trkpt>
      <trkpt lat="45.90675" lon="5.40987">
        <ele>549.4</ele>
        <time>2023-05-27T08:44:03Z</time>
      </trkpt>
      <trkpt lat="45.90672" lon="5.40987">
        <ele>549.4</ele>
        <time>2023-05-27T08:44:04Z</time>
      </trkpt>
      <trkpt lat="45.90669" lon="5.40987">
        <ele>549.4</ele>
        <time>2023-05-27T08:44:05Z</time>
      </trkpt>
      <trkpt lat="45.90666" lon="5.40986">
        <ele>549.2</ele>
        <time>2023-05-27T08:44:06Z</time>
      </trkpt>
      <trkpt lat="45.90663" lon="5.40986">
        <ele>549.2</ele>
        <time>2023-05-27T08:44:07Z</time>
      </trkpt>
      <trkpt lat="45.9066" lon="5.40986">
        <ele>549.2</ele>
        <time>2023-05-27T08:44:08Z</time>
      </trkpt>
      <trkpt lat="45.90657" lon="5.40986">
        <ele>549.2</ele>
        <time>2023-05-27T08:44:09Z</time>
      </trkpt>
      <trkpt lat="45.90656" lon="5.40985">
        <ele>549</ele>
        <time>2023-05-27T08:44:10Z</time>
      </trkpt>
      <trkpt lat="45.90654" lon="5.40985">
        <ele>548.8</ele>
        <time>2023-05-27T08:44:11Z</time>
      </trkpt>
      <trkpt lat="45.90651" lon="5.40984">
        <ele>548.8</ele>
        <time>2023-05-27T08:44:12Z</time>
      </trkpt>
      <trkpt lat="45.90649" lon="5.40984">
        <ele>548.8</ele>
        <time>2023-05-27T08:44:13Z</time>
      </trkpt>
      <trkpt lat="45.90647" lon="5.40984">
        <ele>548.8</ele>
        <time>2023-05-27T08:44:14Z</time>
      </trkpt>
      <trkpt lat="45.90644" lon="5.40983">
        <ele>548.8</ele>
        <time>2023-05-27T08:44:15Z</time>
      </trkpt>
      <trkpt lat="45.90641" lon="5.40983">
        <ele>548.8</ele>
        <time>2023-05-27T08:44:16Z</time>
      </trkpt>
      <trkpt lat="45.90639" lon="5.40983">
        <ele>548.8</ele>
        <time>2023-05-27T08:44:17Z</time>
      </trkpt>
      <trkpt lat="45.90637" lon="5.40982">
        <ele>548.8</ele>
        <time>2023-05-27T08:44:18Z</time>
      </trkpt>
      <trkpt lat="45.90634" lon="5.40982">
        <ele>548.8</ele>
        <time>2023-05-27T08:44:19Z</time>
      </trkpt>
      <trkpt lat="45.90632" lon="5.40981">
        <ele>548.8</ele>
        <time>2023-05-27T08:44:20Z</time>
      </trkpt>
      <trkpt lat="45.90629" lon="5.40981">
        <ele>548.8</ele>
        <time>2023-05-27T08:44:21Z</time>
      </trkpt>
      <trkpt lat="45.90627" lon="5.40981">
        <ele>548.8</ele>
        <time>2023-05-27T08:44:22Z</time>
      </trkpt>
      <trkpt lat="45.90624" lon="5.40981">
        <ele>548.8</ele>
        <time>2023-05-27T08:44:23Z</time>
      </trkpt>
      <trkpt lat="45.90622" lon="5.4098">
        <ele>549</ele>
        <time>2023-05-27T08:44:24Z</time>
      </trkpt>
      <trkpt lat="45.90619" lon="5.4098">
        <ele>549</ele>
        <time>2023-05-27T08:44:25Z</time>
      </trkpt>
      <trkpt lat="45.90617" lon="5.40979">
        <ele>549</ele>
        <time>2023-05-27T08:44:26Z</time>
      </trkpt>
      <trkpt lat="45.90614" lon="5.40979">
        <ele>549</ele>
        <time>2023-05-27T08:44:27Z</time>
      </trkpt>
      <trkpt lat="45.90612" lon="5.40979">
        <ele>549</ele>
        <time>2023-05-27T08:44:28Z</time>
      </trkpt>
      <trkpt lat="45.9061" lon="5.40978">
        <ele>549.2</ele>
        <time>2023-05-27T08:44:29Z</time>
      </trkpt>
      <trkpt lat="45.90607" lon="5.40978">
        <ele>549.2</ele>
        <time>2023-05-27T08:44:30Z</time>
      </trkpt>
      <trkpt lat="45.90605" lon="5.40977">
        <ele>549.2</ele>
        <time>2023-05-27T08:44:31Z</time>
      </trkpt>
      <trkpt lat="45.90603" lon="5.40977">
        <ele>549.4</ele>
        <time>2023-05-27T08:44:32Z</time>
      </trkpt>
      <trkpt lat="45.90598" lon="5.40976">
        <ele>549.4</ele>
        <time>2023-05-27T08:44:34Z</time>
      </trkpt>
      <trkpt lat="45.90596" lon="5.40976">
        <ele>549.6</ele>
        <time>2023-05-27T08:44:35Z</time>
      </trkpt>
      <trkpt lat="45.90594" lon="5.40976">
        <ele>549.8</ele>
        <time>2023-05-27T08:44:36Z</time>
      </trkpt>
      <trkpt lat="45.90592" lon="5.40975">
        <ele>549.8</ele>
        <time>2023-05-27T08:44:37Z</time>
      </trkpt>
      <trkpt lat="45.9059" lon="5.40975">
        <ele>550</ele>
        <time>2023-05-27T08:44:38Z</time>
      </trkpt>
      <trkpt lat="45.90587" lon="5.40975">
        <ele>550</ele>
        <time>2023-05-27T08:44:39Z</time>
      </trkpt>
      <trkpt lat="45.90585" lon="5.40974">
        <ele>550.4</ele>
        <time>2023-05-27T08:44:40Z</time>
      </trkpt>
      <trkpt lat="45.90582" lon="5.40974">
        <ele>550.4</ele>
        <time>2023-05-27T08:44:41Z</time>
      </trkpt>
      <trkpt lat="45.9058" lon="5.40974">
        <ele>550.8</ele>
        <time>2023-05-27T08:44:42Z</time>
      </trkpt>
      <trkpt lat="45.90577" lon="5.40974">
        <ele>551</ele>
        <time>2023-05-27T08:44:43Z</time>
      </trkpt>
      <trkpt lat="45.90575" lon="5.40974">
        <ele>551.2</ele>
        <time>2023-05-27T08:44:44Z</time>
      </trkpt>
      <trkpt lat="45.90572" lon="5.40974">
        <ele>551.4</ele>
        <time>2023-05-27T08:44:45Z</time>
      </trkpt>
      <trkpt lat="45.9057" lon="5.40974">
        <ele>551.4</ele>
        <time>2023-05-27T08:44:46Z</time>
      </trkpt>
      <trkpt lat="45.90567" lon="5.40974">
        <ele>551.6</ele>
        <time>2023-05-27T08:44:47Z</time>
      </trkpt>
      <trkpt lat="45.90565" lon="5.40974">
        <ele>551.6</ele>
        <time>2023-05-27T08:44:48Z</time>
      </trkpt>
      <trkpt lat="45.90563" lon="5.40974">
        <ele>552</ele>
        <time>2023-05-27T08:44:49Z</time>
      </trkpt>
      <trkpt lat="45.9056" lon="5.40974">
        <ele>552.4</ele>
        <time>2023-05-27T08:44:50Z</time>
      </trkpt>
      <trkpt lat="45.90558" lon="5.40974">
        <ele>552.6</ele>
        <time>2023-05-27T08:44:51Z</time>
      </trkpt>
      <trkpt lat="45.90555" lon="5.40974">
        <ele>552.8</ele>
        <time>2023-05-27T08:44:52Z</time>
      </trkpt>
      <trkpt lat="45.90553" lon="5.40975">
        <ele>553.2</ele>
        <time>2023-05-27T08:44:53Z</time>
      </trkpt>
      <trkpt lat="45.90551" lon="5.40975">
        <ele>553.6</ele>
        <time>2023-05-27T08:44:54Z</time>
      </trkpt>
      <trkpt lat="45.90548" lon="5.40975">
        <ele>553.8</ele>
        <time>2023-05-27T08:44:55Z</time>
      </trkpt>
      <trkpt lat="45.90546" lon="5.40975">
        <ele>554</ele>
        <time>2023-05-27T08:44:56Z</time>
      </trkpt>
      <trkpt lat="45.90543" lon="5.40975">
        <ele>554.2</ele>
        <time>2023-05-27T08:44:57Z</time>
      </trkpt>
      <trkpt lat="45.90541" lon="5.40976">
        <ele>554.4</ele>
        <time>2023-05-27T08:44:58Z</time>
      </trkpt>
      <trkpt lat="45.90538" lon="5.40976">
        <ele>554.8</ele>
        <time>2023-05-27T08:44:59Z</time>
      </trkpt>
      <trkpt lat="45.90535" lon="5.40977">
        <ele>555</ele>
        <time>2023-05-27T08:45:00Z</time>
      </trkpt>
      <trkpt lat="45.90533" lon="5.40977">
        <ele>555.2</ele>
        <time>2023-05-27T08:45:01Z</time>
      </trkpt>
      <trkpt lat="45.9053" lon="5.40976">
        <ele>555.6</ele>
        <time>2023-05-27T08:45:02Z</time>
      </trkpt>
      <trkpt lat="45.90527" lon="5.40976">
        <ele>555.8</ele>
        <time>2023-05-27T08:45:03Z</time>
      </trkpt>
      <trkpt lat="45.90525" lon="5.40976">
        <ele>556.4</ele>
        <time>2023-05-27T08:45:04Z</time>
      </trkpt>
      <trkpt lat="45.90523" lon="5.40975">
        <ele>556.8</ele>
        <time>2023-05-27T08:45:05Z</time>
      </trkpt>
      <trkpt lat="45.90521" lon="5.40975">
        <ele>557.2</ele>
        <time>2023-05-27T08:45:06Z</time>
      </trkpt>
      <trkpt lat="45.90518" lon="5.40975">
        <ele>557.2</ele>
        <time>2023-05-27T08:45:07Z</time>
      </trkpt>
      <trkpt lat="45.90515" lon="5.40975">
        <ele>557.6</ele>
        <time>2023-05-27T08:45:08Z</time>
      </trkpt>
      <trkpt lat="45.90513" lon="5.40974">
        <ele>557.6</ele>
        <time>2023-05-27T08:45:09Z</time>
      </trkpt>
      <trkpt lat="45.90511" lon="5.40974">
        <ele>557.8</ele>
        <time>2023-05-27T08:45:10Z</time>
      </trkpt>
      <trkpt lat="45.90508" lon="5.40974">
        <ele>558.2</ele>
        <time>2023-05-27T08:45:11Z</time>
      </trkpt>
      <trkpt lat="45.90506" lon="5.40973">
        <ele>558.4</ele>
        <time>2023-05-27T08:45:12Z</time>
      </trkpt>
      <trkpt lat="45.90504" lon="5.40973">
        <ele>559</ele>
        <time>2023-05-27T08:45:13Z</time>
      </trkpt>
      <trkpt lat="45.90501" lon="5.40972">
        <ele>558.8</ele>
        <time>2023-05-27T08:45:14Z</time>
      </trkpt>
      <trkpt lat="45.90499" lon="5.40971">
        <ele>559.2</ele>
        <time>2023-05-27T08:45:15Z</time>
      </trkpt>
      <trkpt lat="45.90497" lon="5.40971">
        <ele>559.8</ele>
        <time>2023-05-27T08:45:16Z</time>
      </trkpt>
      <trkpt lat="45.90494" lon="5.4097">
        <ele>560.4</ele>
        <time>2023-05-27T08:45:17Z</time>
      </trkpt>
      <trkpt lat="45.90492" lon="5.4097">
        <ele>560.4</ele>
        <time>2023-05-27T08:45:18Z</time>
      </trkpt>
      <trkpt lat="45.9049" lon="5.4097">
        <ele>560.6</ele>
        <time>2023-05-27T08:45:19Z</time>
      </trkpt>
      <trkpt lat="45.90488" lon="5.40969">
        <ele>561</ele>
        <time>2023-05-27T08:45:20Z</time>
      </trkpt>
      <trkpt lat="45.90485" lon="5.40969">
        <ele>561</ele>
        <time>2023-05-27T08:45:21Z</time>
      </trkpt>
      <trkpt lat="45.90483" lon="5.40968">
        <ele>561.6</ele>
        <time>2023-05-27T08:45:22Z</time>
      </trkpt>
      <trkpt lat="45.90481" lon="5.40968">
        <ele>561.8</ele>
        <time>2023-05-27T08:45:23Z</time>
      </trkpt>
      <trkpt lat="45.90479" lon="5.40968">
        <ele>562.2</ele>
        <time>2023-05-27T08:45:24Z</time>
      </trkpt>
      <trkpt lat="45.90477" lon="5.40967">
        <ele>562.4</ele>
        <time>2023-05-27T08:45:25Z</time>
      </trkpt>
      <trkpt lat="45.90474" lon="5.40967">
        <ele>562.8</ele>
        <time>2023-05-27T08:45:26Z</time>
      </trkpt>
      <trkpt lat="45.90472" lon="5.40967">
        <ele>563</ele>
        <time>2023-05-27T08:45:27Z</time>
      </trkpt>
      <trkpt lat="45.9047" lon="5.40966">
        <ele>563.4</ele>
        <time>2023-05-27T08:45:28Z</time>
      </trkpt>
      <trkpt lat="45.90467" lon="5.40966">
        <ele>563.6</ele>
        <time>2023-05-27T08:45:29Z</time>
      </trkpt>
      <trkpt lat="45.90465" lon="5.40966">
        <ele>563.6</ele>
        <time>2023-05-27T08:45:30Z</time>
      </trkpt>
      <trkpt lat="45.90462" lon="5.40966">
        <ele>564.2</ele>
        <time>2023-05-27T08:45:31Z</time>
      </trkpt>
      <trkpt lat="45.9046" lon="5.40965">
        <ele>564.2</ele>
        <time>2023-05-27T08:45:32Z</time>
      </trkpt>
      <trkpt lat="45.90458" lon="5.40965">
        <ele>564.4</ele>
        <time>2023-05-27T08:45:33Z</time>
      </trkpt>
      <trkpt lat="45.90456" lon="5.40965">
        <ele>564.8</ele>
        <time>2023-05-27T08:45:34Z</time>
      </trkpt>
      <trkpt lat="45.90454" lon="5.40965">
        <ele>565</ele>
        <time>2023-05-27T08:45:35Z</time>
      </trkpt>
      <trkpt lat="45.90451" lon="5.40965">
        <ele>565.6</ele>
        <time>2023-05-27T08:45:36Z</time>
      </trkpt>
      <trkpt lat="45.90448" lon="5.40965">
        <ele>566</ele>
        <time>2023-05-27T08:45:37Z</time>
      </trkpt>
      <trkpt lat="45.90446" lon="5.40966">
        <ele>566.4</ele>
        <time>2023-05-27T08:45:38Z</time>
      </trkpt>
      <trkpt lat="45.90445" lon="5.40967">
        <ele>567</ele>
        <time>2023-05-27T08:45:39Z</time>
      </trkpt>
      <trkpt lat="45.90442" lon="5.40968">
        <ele>567.2</ele>
        <time>2023-05-27T08:45:40Z</time>
      </trkpt>
      <trkpt lat="45.90439" lon="5.40968">
        <ele>567.4</ele>
        <time>2023-05-27T08:45:41Z</time>
      </trkpt>
      <trkpt lat="45.90438" lon="5.40967">
        <ele>567.6</ele>
        <time>2023-05-27T08:45:42Z</time>
      </trkpt>
      <trkpt lat="45.90437" lon="5.40965">
        <ele>568.2</ele>
        <time>2023-05-27T08:45:43Z</time>
      </trkpt>
      <trkpt lat="45.90435" lon="5.40963">
        <ele>568.4</ele>
        <time>2023-05-27T08:45:44Z</time>
      </trkpt>
      <trkpt lat="45.90434" lon="5.4096">
        <ele>569.4</ele>
        <time>2023-05-27T08:45:45Z</time>
      </trkpt>
      <trkpt lat="45.90433" lon="5.40956">
        <ele>569.8</ele>
        <time>2023-05-27T08:45:46Z</time>
      </trkpt>
      <trkpt lat="45.90432" lon="5.40953">
        <ele>570.4</ele>
        <time>2023-05-27T08:45:47Z</time>
      </trkpt>
      <trkpt lat="45.90431" lon="5.40951">
        <ele>571</ele>
        <time>2023-05-27T08:45:48Z</time>
      </trkpt>
      <trkpt lat="45.90429" lon="5.40948">
        <ele>571.4</ele>
        <time>2023-05-27T08:45:49Z</time>
      </trkpt>
      <trkpt lat="45.90427" lon="5.40944">
        <ele>572</ele>
        <time>2023-05-27T08:45:50Z</time>
      </trkpt>
      <trkpt lat="45.90426" lon="5.40941">
        <ele>572.8</ele>
        <time>2023-05-27T08:45:51Z</time>
      </trkpt>
      <trkpt lat="45.90425" lon="5.40938">
        <ele>573.6</ele>
        <time>2023-05-27T08:45:52Z</time>
      </trkpt>
      <trkpt lat="45.90424" lon="5.40935">
        <ele>574</ele>
        <time>2023-05-27T08:45:53Z</time>
      </trkpt>
      <trkpt lat="45.90423" lon="5.40931">
        <ele>574.6</ele>
        <time>2023-05-27T08:45:54Z</time>
      </trkpt>
      <trkpt lat="45.90422" lon="5.40928">
        <ele>575.4</ele>
        <time>2023-05-27T08:45:55Z</time>
      </trkpt>
      <trkpt lat="45.9042" lon="5.40925">
        <ele>575.6</ele>
        <time>2023-05-27T08:45:56Z</time>
      </trkpt>
      <trkpt lat="45.90419" lon="5.40923">
        <ele>576</ele>
        <time>2023-05-27T08:45:57Z</time>
      </trkpt>
      <trkpt lat="45.90417" lon="5.40919">
        <ele>576.2</ele>
        <time>2023-05-27T08:45:58Z</time>
      </trkpt>
      <trkpt lat="45.90415" lon="5.40916">
        <ele>576.6</ele>
        <time>2023-05-27T08:45:59Z</time>
      </trkpt>
      <trkpt lat="45.90413" lon="5.40914">
        <ele>576.8</ele>
        <time>2023-05-27T08:46:00Z</time>
      </trkpt>
      <trkpt lat="45.90411" lon="5.40912">
        <ele>577</ele>
        <time>2023-05-27T08:46:01Z</time>
      </trkpt>
      <trkpt lat="45.90409" lon="5.4091">
        <ele>577.8</ele>
        <time>2023-05-27T08:46:02Z</time>
      </trkpt>
      <trkpt lat="45.90407" lon="5.40906">
        <ele>578</ele>
        <time>2023-05-27T08:46:03Z</time>
      </trkpt>
      <trkpt lat="45.90405" lon="5.40904">
        <ele>578.6</ele>
        <time>2023-05-27T08:46:04Z</time>
      </trkpt>
      <trkpt lat="45.90403" lon="5.40902">
        <ele>578.8</ele>
        <time>2023-05-27T08:46:05Z</time>
      </trkpt>
      <trkpt lat="45.90401" lon="5.40899">
        <ele>579.4</ele>
        <time>2023-05-27T08:46:06Z</time>
      </trkpt>
      <trkpt lat="45.90399" lon="5.40897">
        <ele>579.6</ele>
        <time>2023-05-27T08:46:07Z</time>
      </trkpt>
      <trkpt lat="45.90396" lon="5.40894">
        <ele>580.2</ele>
        <time>2023-05-27T08:46:08Z</time>
      </trkpt>
      <trkpt lat="45.90394" lon="5.40891">
        <ele>580.6</ele>
        <time>2023-05-27T08:46:09Z</time>
      </trkpt>
      <trkpt lat="45.90392" lon="5.40888">
        <ele>580.8</ele>
        <time>2023-05-27T08:46:10Z</time>
      </trkpt>
      <trkpt lat="45.90389" lon="5.40885">
        <ele>581.2</ele>
        <time>2023-05-27T08:46:11Z</time>
      </trkpt>
      <trkpt lat="45.90387" lon="5.40882">
        <ele>581.4</ele>
        <time>2023-05-27T08:46:12Z</time>
      </trkpt>
      <trkpt lat="45.90386" lon="5.40878">
        <ele>582</ele>
        <time>2023-05-27T08:46:13Z</time>
      </trkpt>
      <trkpt lat="45.90384" lon="5.40875">
        <ele>582.2</ele>
        <time>2023-05-27T08:46:14Z</time>
      </trkpt>
      <trkpt lat="45.90383" lon="5.40871">
        <ele>582.4</ele>
        <time>2023-05-27T08:46:15Z</time>
      </trkpt>
      <trkpt lat="45.90381" lon="5.40867">
        <ele>582.8</ele>
        <time>2023-05-27T08:46:16Z</time>
      </trkpt>
      <trkpt lat="45.9038" lon="5.40863">
        <ele>583</ele>
        <time>2023-05-27T08:46:17Z</time>
      </trkpt>
      <trkpt lat="45.90378" lon="5.40859">
        <ele>583.6</ele>
        <time>2023-05-27T08:46:18Z</time>
      </trkpt>
      <trkpt lat="45.90377" lon="5.40855">
        <ele>584</ele>
        <time>2023-05-27T08:46:19Z</time>
      </trkpt>
      <trkpt lat="45.90376" lon="5.40852">
        <ele>584.8</ele>
        <time>2023-05-27T08:46:20Z</time>
      </trkpt>
      <trkpt lat="45.90375" lon="5.40847">
        <ele>585</ele>
        <time>2023-05-27T08:46:21Z</time>
      </trkpt>
      <trkpt lat="45.90375" lon="5.40843">
        <ele>585.4</ele>
        <time>2023-05-27T08:46:22Z</time>
      </trkpt>
      <trkpt lat="45.90375" lon="5.40839">
        <ele>586</ele>
        <time>2023-05-27T08:46:23Z</time>
      </trkpt>
      <trkpt lat="45.90374" lon="5.40835">
        <ele>586.2</ele>
        <time>2023-05-27T08:46:24Z</time>
      </trkpt>
      <trkpt lat="45.90374" lon="5.4083">
        <ele>586.4</ele>
        <time>2023-05-27T08:46:25Z</time>
      </trkpt>
      <trkpt lat="45.90373" lon="5.40826">
        <ele>586.4</ele>
        <time>2023-05-27T08:46:26Z</time>
      </trkpt>
      <trkpt lat="45.90374" lon="5.40822">
        <ele>586.6</ele>
        <time>2023-05-27T08:46:27Z</time>
      </trkpt>
      <trkpt lat="45.90374" lon="5.40818">
        <ele>586.8</ele>
        <time>2023-05-27T08:46:28Z</time>
      </trkpt>
      <trkpt lat="45.90374" lon="5.40814">
        <ele>587</ele>
        <time>2023-05-27T08:46:29Z</time>
      </trkpt>
      <trkpt lat="45.90374" lon="5.40809">
        <ele>587.6</ele>
        <time>2023-05-27T08:46:30Z</time>
      </trkpt>
      <trkpt lat="45.90374" lon="5.40805">
        <ele>587.8</ele>
        <time>2023-05-27T08:46:31Z</time>
      </trkpt>
      <trkpt lat="45.90373" lon="5.408">
        <ele>588.2</ele>
        <time>2023-05-27T08:46:32Z</time>
      </trkpt>
      <trkpt lat="45.90373" lon="5.40795">
        <ele>588.2</ele>
        <time>2023-05-27T08:46:33Z</time>
      </trkpt>
      <trkpt lat="45.90373" lon="5.4079">
        <ele>588.6</ele>
        <time>2023-05-27T08:46:34Z</time>
      </trkpt>
      <trkpt lat="45.90373" lon="5.40785">
        <ele>588.6</ele>
        <time>2023-05-27T08:46:35Z</time>
      </trkpt>
      <trkpt lat="45.90373" lon="5.4078">
        <ele>589</ele>
        <time>2023-05-27T08:46:36Z</time>
      </trkpt>
      <trkpt lat="45.90372" lon="5.40775">
        <ele>589.2</ele>
        <time>2023-05-27T08:46:37Z</time>
      </trkpt>
      <trkpt lat="45.90372" lon="5.4077">
        <ele>589.4</ele>
        <time>2023-05-27T08:46:38Z</time>
      </trkpt>
      <trkpt lat="45.90371" lon="5.40765">
        <ele>589.6</ele>
        <time>2023-05-27T08:46:39Z</time>
      </trkpt>
      <trkpt lat="45.90371" lon="5.40762">
        <ele>589.6</ele>
        <time>2023-05-27T08:46:40Z</time>
      </trkpt>
      <trkpt lat="45.9037" lon="5.40756">
        <ele>589.8</ele>
        <time>2023-05-27T08:46:41Z</time>
      </trkpt>
      <trkpt lat="45.90369" lon="5.40752">
        <ele>589.8</ele>
        <time>2023-05-27T08:46:42Z</time>
      </trkpt>
      <trkpt lat="45.90368" lon="5.40747">
        <ele>590.2</ele>
        <time>2023-05-27T08:46:43Z</time>
      </trkpt>
      <trkpt lat="45.90367" lon="5.40742">
        <ele>590.4</ele>
        <time>2023-05-27T08:46:44Z</time>
      </trkpt>
      <trkpt lat="45.90365" lon="5.40737">
        <ele>590.6</ele>
        <time>2023-05-27T08:46:45Z</time>
      </trkpt>
      <trkpt lat="45.90364" lon="5.40732">
        <ele>590.8</ele>
        <time>2023-05-27T08:46:46Z</time>
      </trkpt>
      <trkpt lat="45.90362" lon="5.40726">
        <ele>591</ele>
        <time>2023-05-27T08:46:47Z</time>
      </trkpt>
      <trkpt lat="45.90361" lon="5.4072">
        <ele>591.6</ele>
        <time>2023-05-27T08:46:48Z</time>
      </trkpt>
      <trkpt lat="45.90359" lon="5.40712">
        <ele>591.8</ele>
        <time>2023-05-27T08:46:49Z</time>
      </trkpt>
      <trkpt lat="45.90358" lon="5.40707">
        <ele>592.4</ele>
        <time>2023-05-27T08:46:50Z</time>
      </trkpt>
      <trkpt lat="45.90357" lon="5.40699">
        <ele>592.8</ele>
        <time>2023-05-27T08:46:51Z</time>
      </trkpt>
      <trkpt lat="45.90357" lon="5.40692">
        <ele>593</ele>
        <time>2023-05-27T08:46:52Z</time>
      </trkpt>
      <trkpt lat="45.90356" lon="5.40684">
        <ele>593</ele>
        <time>2023-05-27T08:46:53Z</time>
      </trkpt>
      <trkpt lat="45.90356" lon="5.40676">
        <ele>593.2</ele>
        <time>2023-05-27T08:46:54Z</time>
      </trkpt>
      <trkpt lat="45.90356" lon="5.40668">
        <ele>593.2</ele>
        <time>2023-05-27T08:46:55Z</time>
      </trkpt>
      <trkpt lat="45.90356" lon="5.40661">
        <ele>593.4</ele>
        <time>2023-05-27T08:46:56Z</time>
      </trkpt>
      <trkpt lat="45.90355" lon="5.40653">
        <ele>593.4</ele>
        <time>2023-05-27T08:46:57Z</time>
      </trkpt>
      <trkpt lat="45.90355" lon="5.40646">
        <ele>593.4</ele>
        <time>2023-05-27T08:46:58Z</time>
      </trkpt>
      <trkpt lat="45.90354" lon="5.40639">
        <ele>593.4</ele>
        <time>2023-05-27T08:46:59Z</time>
      </trkpt>
      <trkpt lat="45.90353" lon="5.40632">
        <ele>593.4</ele>
        <time>2023-05-27T08:47:00Z</time>
      </trkpt>
      <trkpt lat="45.90353" lon="5.40625">
        <ele>593.4</ele>
        <time>2023-05-27T08:47:01Z</time>
      </trkpt>
      <trkpt lat="45.90352" lon="5.40618">
        <ele>593.4</ele>
        <time>2023-05-27T08:47:02Z</time>
      </trkpt>
      <trkpt lat="45.90353" lon="5.40611">
        <ele>593.4</ele>
        <time>2023-05-27T08:47:03Z</time>
      </trkpt>
      <trkpt lat="45.90354" lon="5.40604">
        <ele>593.4</ele>
        <time>2023-05-27T08:47:04Z</time>
      </trkpt>
      <trkpt lat="45.90355" lon="5.40598">
        <ele>593.6</ele>
        <time>2023-05-27T08:47:05Z</time>
      </trkpt>
      <trkpt lat="45.90357" lon="5.40592">
        <ele>593.6</ele>
        <time>2023-05-27T08:47:06Z</time>
      </trkpt>
      <trkpt lat="45.90359" lon="5.40586">
        <ele>593.8</ele>
        <time>2023-05-27T08:47:07Z</time>
      </trkpt>
      <trkpt lat="45.90361" lon="5.40581">
        <ele>593.6</ele>
        <time>2023-05-27T08:47:08Z</time>
      </trkpt>
      <trkpt lat="45.90363" lon="5.40575">
        <ele>593.8</ele>
        <time>2023-05-27T08:47:09Z</time>
      </trkpt>
      <trkpt lat="45.90366" lon="5.40568">
        <ele>594</ele>
        <time>2023-05-27T08:47:10Z</time>
      </trkpt>
      <trkpt lat="45.90368" lon="5.40564">
        <ele>594.2</ele>
        <time>2023-05-27T08:47:11Z</time>
      </trkpt>
      <trkpt lat="45.9037" lon="5.40557">
        <ele>594.4</ele>
        <time>2023-05-27T08:47:12Z</time>
      </trkpt>
      <trkpt lat="45.90372" lon="5.4055">
        <ele>594.6</ele>
        <time>2023-05-27T08:47:13Z</time>
      </trkpt>
      <trkpt lat="45.90374" lon="5.40546">
        <ele>594.6</ele>
        <time>2023-05-27T08:47:14Z</time>
      </trkpt>
      <trkpt lat="45.90376" lon="5.40539">
        <ele>594.8</ele>
        <time>2023-05-27T08:47:15Z</time>
      </trkpt>
      <trkpt lat="45.90379" lon="5.40533">
        <ele>594.8</ele>
        <time>2023-05-27T08:47:16Z</time>
      </trkpt>
      <trkpt lat="45.9038" lon="5.40527">
        <ele>594.8</ele>
        <time>2023-05-27T08:47:17Z</time>
      </trkpt>
      <trkpt lat="45.90383" lon="5.40521">
        <ele>594.8</ele>
        <time>2023-05-27T08:47:18Z</time>
      </trkpt>
      <trkpt lat="45.90385" lon="5.40515">
        <ele>594.8</ele>
        <time>2023-05-27T08:47:19Z</time>
      </trkpt>
      <trkpt lat="45.90387" lon="5.40509">
        <ele>594.8</ele>
        <time>2023-05-27T08:47:20Z</time>
      </trkpt>
      <trkpt lat="45.90389" lon="5.40503">
        <ele>594.8</ele>
        <time>2023-05-27T08:47:21Z</time>
      </trkpt>
      <trkpt lat="45.90391" lon="5.40497">
        <ele>594.8</ele>
        <time>2023-05-27T08:47:22Z</time>
      </trkpt>
      <trkpt lat="45.90392" lon="5.40491">
        <ele>594.8</ele>
        <time>2023-05-27T08:47:23Z</time>
      </trkpt>
      <trkpt lat="45.90393" lon="5.40484">
        <ele>594.8</ele>
        <time>2023-05-27T08:47:24Z</time>
      </trkpt>
      <trkpt lat="45.90394" lon="5.40478">
        <ele>595</ele>
        <time>2023-05-27T08:47:25Z</time>
      </trkpt>
      <trkpt lat="45.90395" lon="5.40472">
        <ele>595</ele>
        <time>2023-05-27T08:47:26Z</time>
      </trkpt>
      <trkpt lat="45.90396" lon="5.40465">
        <ele>595.2</ele>
        <time>2023-05-27T08:47:27Z</time>
      </trkpt>
      <trkpt lat="45.90397" lon="5.40459">
        <ele>595.4</ele>
        <time>2023-05-27T08:47:28Z</time>
      </trkpt>
      <trkpt lat="45.90397" lon="5.40453">
        <ele>595.4</ele>
        <time>2023-05-27T08:47:29Z</time>
      </trkpt>
      <trkpt lat="45.90397" lon="5.40447">
        <ele>595.4</ele>
        <time>2023-05-27T08:47:30Z</time>
      </trkpt>
      <trkpt lat="45.90398" lon="5.4044">
        <ele>595.6</ele>
        <time>2023-05-27T08:47:31Z</time>
      </trkpt>
      <trkpt lat="45.90398" lon="5.40433">
        <ele>595.8</ele>
        <time>2023-05-27T08:47:32Z</time>
      </trkpt>
      <trkpt lat="45.90398" lon="5.40425">
        <ele>595.8</ele>
        <time>2023-05-27T08:47:33Z</time>
      </trkpt>
      <trkpt lat="45.90398" lon="5.40416">
        <ele>596</ele>
        <time>2023-05-27T08:47:34Z</time>
      </trkpt>
      <trkpt lat="45.904" lon="5.40405">
        <ele>596.4</ele>
        <time>2023-05-27T08:47:35Z</time>
      </trkpt>
      <trkpt lat="45.90401" lon="5.40397">
        <ele>596.4</ele>
        <time>2023-05-27T08:47:36Z</time>
      </trkpt>
      <trkpt lat="45.90404" lon="5.40388">
        <ele>596.4</ele>
        <time>2023-05-27T08:47:37Z</time>
      </trkpt>
      <trkpt lat="45.90407" lon="5.4038">
        <ele>596.6</ele>
        <time>2023-05-27T08:47:38Z</time>
      </trkpt>
      <trkpt lat="45.90411" lon="5.40372">
        <ele>597</ele>
        <time>2023-05-27T08:47:39Z</time>
      </trkpt>
      <trkpt lat="45.90415" lon="5.40364">
        <ele>597</ele>
        <time>2023-05-27T08:47:40Z</time>
      </trkpt>
      <trkpt lat="45.90419" lon="5.40357">
        <ele>597.6</ele>
        <time>2023-05-27T08:47:41Z</time>
      </trkpt>
      <trkpt lat="45.90424" lon="5.40351">
        <ele>597.8</ele>
        <time>2023-05-27T08:47:42Z</time>
      </trkpt>
      <trkpt lat="45.90428" lon="5.40345">
        <ele>597.8</ele>
        <time>2023-05-27T08:47:43Z</time>
      </trkpt>
      <trkpt lat="45.90433" lon="5.40338">
        <ele>598</ele>
        <time>2023-05-27T08:47:44Z</time>
      </trkpt>
      <trkpt lat="45.90436" lon="5.40333">
        <ele>598.2</ele>
        <time>2023-05-27T08:47:45Z</time>
      </trkpt>
      <trkpt lat="45.90439" lon="5.40326">
        <ele>598.4</ele>
        <time>2023-05-27T08:47:46Z</time>
      </trkpt>
      <trkpt lat="45.90442" lon="5.4032">
        <ele>598.6</ele>
        <time>2023-05-27T08:47:47Z</time>
      </trkpt>
      <trkpt lat="45.90445" lon="5.40313">
        <ele>598.6</ele>
        <time>2023-05-27T08:47:48Z</time>
      </trkpt>
      <trkpt lat="45.90449" lon="5.40306">
        <ele>598.8</ele>
        <time>2023-05-27T08:47:49Z</time>
      </trkpt>
      <trkpt lat="45.90452" lon="5.40299">
        <ele>599</ele>
        <time>2023-05-27T08:47:50Z</time>
      </trkpt>
      <trkpt lat="45.90454" lon="5.40292">
        <ele>599</ele>
        <time>2023-05-27T08:47:51Z</time>
      </trkpt>
      <trkpt lat="45.90457" lon="5.40285">
        <ele>599</ele>
        <time>2023-05-27T08:47:52Z</time>
      </trkpt>
      <trkpt lat="45.90459" lon="5.40277">
        <ele>599.2</ele>
        <time>2023-05-27T08:47:53Z</time>
      </trkpt>
      <trkpt lat="45.90462" lon="5.4027">
        <ele>599.2</ele>
        <time>2023-05-27T08:47:54Z</time>
      </trkpt>
      <trkpt lat="45.90464" lon="5.40262">
        <ele>599.4</ele>
        <time>2023-05-27T08:47:55Z</time>
      </trkpt>
      <trkpt lat="45.90466" lon="5.40254">
        <ele>599.4</ele>
        <time>2023-05-27T08:47:56Z</time>
      </trkpt>
      <trkpt lat="45.90469" lon="5.40246">
        <ele>599.6</ele>
        <time>2023-05-27T08:47:57Z</time>
      </trkpt>
      <trkpt lat="45.90471" lon="5.40236">
        <ele>599.6</ele>
        <time>2023-05-27T08:47:58Z</time>
      </trkpt>
      <trkpt lat="45.90473" lon="5.4023">
        <ele>599.8</ele>
        <time>2023-05-27T08:47:59Z</time>
      </trkpt>
      <trkpt lat="45.90474" lon="5.40221">
        <ele>600</ele>
        <time>2023-05-27T08:48:00Z</time>
      </trkpt>
      <trkpt lat="45.90475" lon="5.40213">
        <ele>600.2</ele>
        <time>2023-05-27T08:48:01Z</time>
      </trkpt>
      <trkpt lat="45.90476" lon="5.40205">
        <ele>600.2</ele>
        <time>2023-05-27T08:48:02Z</time>
      </trkpt>
      <trkpt lat="45.90477" lon="5.40197">
        <ele>600.2</ele>
        <time>2023-05-27T08:48:03Z</time>
      </trkpt>
      <trkpt lat="45.90477" lon="5.40189">
        <ele>600.2</ele>
        <time>2023-05-27T08:48:04Z</time>
      </trkpt>
      <trkpt lat="45.90479" lon="5.40181">
        <ele>600.4</ele>
        <time>2023-05-27T08:48:05Z</time>
      </trkpt>
      <trkpt lat="45.9048" lon="5.40173">
        <ele>600.4</ele>
        <time>2023-05-27T08:48:06Z</time>
      </trkpt>
      <trkpt lat="45.90483" lon="5.40165">
        <ele>600.4</ele>
        <time>2023-05-27T08:48:07Z</time>
      </trkpt>
      <trkpt lat="45.90486" lon="5.40158">
        <ele>600.4</ele>
        <time>2023-05-27T08:48:08Z</time>
      </trkpt>
      <trkpt lat="45.9049" lon="5.40151">
        <ele>600.6</ele>
        <time>2023-05-27T08:48:09Z</time>
      </trkpt>
      <trkpt lat="45.90493" lon="5.40145">
        <ele>600.6</ele>
        <time>2023-05-27T08:48:10Z</time>
      </trkpt>
      <trkpt lat="45.90497" lon="5.40138">
        <ele>600.6</ele>
        <time>2023-05-27T08:48:11Z</time>
      </trkpt>
      <trkpt lat="45.90502" lon="5.4013">
        <ele>600.6</ele>
        <time>2023-05-27T08:48:12Z</time>
      </trkpt>
      <trkpt lat="45.90505" lon="5.40125">
        <ele>600.6</ele>
        <time>2023-05-27T08:48:13Z</time>
      </trkpt>
      <trkpt lat="45.90509" lon="5.40118">
        <ele>600.6</ele>
        <time>2023-05-27T08:48:14Z</time>
      </trkpt>
      <trkpt lat="45.90513" lon="5.40112">
        <ele>600.6</ele>
        <time>2023-05-27T08:48:15Z</time>
      </trkpt>
      <trkpt lat="45.90518" lon="5.40107">
        <ele>600.6</ele>
        <time>2023-05-27T08:48:16Z</time>
      </trkpt>
      <trkpt lat="45.90523" lon="5.40102">
        <ele>600.6</ele>
        <time>2023-05-27T08:48:17Z</time>
      </trkpt>
      <trkpt lat="45.90528" lon="5.40096">
        <ele>600.6</ele>
        <time>2023-05-27T08:48:18Z</time>
      </trkpt>
      <trkpt lat="45.90532" lon="5.40091">
        <ele>600.6</ele>
        <time>2023-05-27T08:48:19Z</time>
      </trkpt>
      <trkpt lat="45.90537" lon="5.40085">
        <ele>600.4</ele>
        <time>2023-05-27T08:48:20Z</time>
      </trkpt>
      <trkpt lat="45.90542" lon="5.4008">
        <ele>600.2</ele>
        <time>2023-05-27T08:48:21Z</time>
      </trkpt>
      <trkpt lat="45.90547" lon="5.40075">
        <ele>600.2</ele>
        <time>2023-05-27T08:48:22Z</time>
      </trkpt>
      <trkpt lat="45.90552" lon="5.4007">
        <ele>600</ele>
        <time>2023-05-27T08:48:23Z</time>
      </trkpt>
      <trkpt lat="45.90556" lon="5.40065">
        <ele>600</ele>
        <time>2023-05-27T08:48:24Z</time>
      </trkpt>
      <trkpt lat="45.90561" lon="5.4006">
        <ele>600</ele>
        <time>2023-05-27T08:48:25Z</time>
      </trkpt>
      <trkpt lat="45.90566" lon="5.40054">
        <ele>599.8</ele>
        <time>2023-05-27T08:48:26Z</time>
      </trkpt>
      <trkpt lat="45.90571" lon="5.40049">
        <ele>599.8</ele>
        <time>2023-05-27T08:48:27Z</time>
      </trkpt>
      <trkpt lat="45.90575" lon="5.40045">
        <ele>599.8</ele>
        <time>2023-05-27T08:48:28Z</time>
      </trkpt>
      <trkpt lat="45.9058" lon="5.4004">
        <ele>599.8</ele>
        <time>2023-05-27T08:48:29Z</time>
      </trkpt>
      <trkpt lat="45.90584" lon="5.40035">
        <ele>599.8</ele>
        <time>2023-05-27T08:48:30Z</time>
      </trkpt>
      <trkpt lat="45.90588" lon="5.40029">
        <ele>599.8</ele>
        <time>2023-05-27T08:48:31Z</time>
      </trkpt>
      <trkpt lat="45.90592" lon="5.40024">
        <ele>599.8</ele>
        <time>2023-05-27T08:48:32Z</time>
      </trkpt>
      <trkpt lat="45.90596" lon="5.40019">
        <ele>599.8</ele>
        <time>2023-05-27T08:48:33Z</time>
      </trkpt>
      <trkpt lat="45.906" lon="5.40014">
        <ele>599.8</ele>
        <time>2023-05-27T08:48:34Z</time>
      </trkpt>
      <trkpt lat="45.90605" lon="5.40008">
        <ele>599.8</ele>
        <time>2023-05-27T08:48:35Z</time>
      </trkpt>
      <trkpt lat="45.90609" lon="5.40003">
        <ele>599.8</ele>
        <time>2023-05-27T08:48:36Z</time>
      </trkpt>
      <trkpt lat="45.90614" lon="5.39997">
        <ele>599.8</ele>
        <time>2023-05-27T08:48:37Z</time>
      </trkpt>
      <trkpt lat="45.90618" lon="5.39991">
        <ele>599.8</ele>
        <time>2023-05-27T08:48:38Z</time>
      </trkpt>
      <trkpt lat="45.90621" lon="5.39986">
        <ele>600</ele>
        <time>2023-05-27T08:48:39Z</time>
      </trkpt>
      <trkpt lat="45.90625" lon="5.3998">
        <ele>600</ele>
        <time>2023-05-27T08:48:40Z</time>
      </trkpt>
      <trkpt lat="45.90628" lon="5.39975">
        <ele>600</ele>
        <time>2023-05-27T08:48:41Z</time>
      </trkpt>
      <trkpt lat="45.90632" lon="5.39968">
        <ele>600.2</ele>
        <time>2023-05-27T08:48:42Z</time>
      </trkpt>
      <trkpt lat="45.90636" lon="5.39961">
        <ele>600.4</ele>
        <time>2023-05-27T08:48:43Z</time>
      </trkpt>
      <trkpt lat="45.9064" lon="5.39955">
        <ele>600.6</ele>
        <time>2023-05-27T08:48:44Z</time>
      </trkpt>
      <trkpt lat="45.90644" lon="5.39949">
        <ele>600.8</ele>
        <time>2023-05-27T08:48:45Z</time>
      </trkpt>
      <trkpt lat="45.90648" lon="5.39943">
        <ele>600.8</ele>
        <time>2023-05-27T08:48:46Z</time>
      </trkpt>
      <trkpt lat="45.90652" lon="5.39936">
        <ele>601</ele>
        <time>2023-05-27T08:48:47Z</time>
      </trkpt>
      <trkpt lat="45.90656" lon="5.3993">
        <ele>601</ele>
        <time>2023-05-27T08:48:48Z</time>
      </trkpt>
      <trkpt lat="45.9066" lon="5.39925">
        <ele>601.2</ele>
        <time>2023-05-27T08:48:49Z</time>
      </trkpt>
      <trkpt lat="45.90666" lon="5.39921">
        <ele>601.2</ele>
        <time>2023-05-27T08:48:50Z</time>
      </trkpt>
      <trkpt lat="45.90671" lon="5.39919">
        <ele>601.2</ele>
        <time>2023-05-27T08:48:51Z</time>
      </trkpt>
      <trkpt lat="45.90675" lon="5.39918">
        <ele>601.2</ele>
        <time>2023-05-27T08:48:52Z</time>
      </trkpt>
      <trkpt lat="45.90682" lon="5.39918">
        <ele>601</ele>
        <time>2023-05-27T08:48:53Z</time>
      </trkpt>
      <trkpt lat="45.90688" lon="5.39919">
        <ele>601</ele>
        <time>2023-05-27T08:48:54Z</time>
      </trkpt>
      <trkpt lat="45.90694" lon="5.39919">
        <ele>601</ele>
        <time>2023-05-27T08:48:55Z</time>
      </trkpt>
      <trkpt lat="45.90698" lon="5.3992">
        <ele>601</ele>
        <time>2023-05-27T08:48:56Z</time>
      </trkpt>
      <trkpt lat="45.90703" lon="5.39919">
        <ele>601</ele>
        <time>2023-05-27T08:48:57Z</time>
      </trkpt>
      <trkpt lat="45.9071" lon="5.39917">
        <ele>601</ele>
        <time>2023-05-27T08:48:58Z</time>
      </trkpt>
      <trkpt lat="45.90716" lon="5.39916">
        <ele>601</ele>
        <time>2023-05-27T08:48:59Z</time>
      </trkpt>
      <trkpt lat="45.90722" lon="5.39914">
        <ele>601</ele>
        <time>2023-05-27T08:49:00Z</time>
      </trkpt>
      <trkpt lat="45.90727" lon="5.39913">
        <ele>601.2</ele>
        <time>2023-05-27T08:49:01Z</time>
      </trkpt>
      <trkpt lat="45.90733" lon="5.39911">
        <ele>601.2</ele>
        <time>2023-05-27T08:49:02Z</time>
      </trkpt>
      <trkpt lat="45.90738" lon="5.39908">
        <ele>601.4</ele>
        <time>2023-05-27T08:49:03Z</time>
      </trkpt>
      <trkpt lat="45.90745" lon="5.39905">
        <ele>601.6</ele>
        <time>2023-05-27T08:49:04Z</time>
      </trkpt>
      <trkpt lat="45.90751" lon="5.39903">
        <ele>601.8</ele>
        <time>2023-05-27T08:49:05Z</time>
      </trkpt>
      <trkpt lat="45.90756" lon="5.39901">
        <ele>602</ele>
        <time>2023-05-27T08:49:06Z</time>
      </trkpt>
      <trkpt lat="45.90762" lon="5.39899">
        <ele>602.4</ele>
        <time>2023-05-27T08:49:07Z</time>
      </trkpt>
      <trkpt lat="45.90768" lon="5.39896">
        <ele>602.8</ele>
        <time>2023-05-27T08:49:08Z</time>
      </trkpt>
      <trkpt lat="45.90775" lon="5.39893">
        <ele>603</ele>
        <time>2023-05-27T08:49:09Z</time>
      </trkpt>
      <trkpt lat="45.90781" lon="5.39891">
        <ele>603</ele>
        <time>2023-05-27T08:49:10Z</time>
      </trkpt>
      <trkpt lat="45.90787" lon="5.39889">
        <ele>603</ele>
        <time>2023-05-27T08:49:11Z</time>
      </trkpt>
      <trkpt lat="45.90793" lon="5.39887">
        <ele>603.2</ele>
        <time>2023-05-27T08:49:12Z</time>
      </trkpt>
      <trkpt lat="45.90799" lon="5.39886">
        <ele>603.2</ele>
        <time>2023-05-27T08:49:13Z</time>
      </trkpt>
      <trkpt lat="45.90806" lon="5.39883">
        <ele>603.2</ele>
        <time>2023-05-27T08:49:14Z</time>
      </trkpt>
      <trkpt lat="45.90811" lon="5.3988">
        <ele>603.2</ele>
        <time>2023-05-27T08:49:15Z</time>
      </trkpt>
      <trkpt lat="45.90816" lon="5.39877">
        <ele>603.2</ele>
        <time>2023-05-27T08:49:16Z</time>
      </trkpt>
      <trkpt lat="45.90821" lon="5.39875">
        <ele>603</ele>
        <time>2023-05-27T08:49:17Z</time>
      </trkpt>
      <trkpt lat="45.90826" lon="5.39874">
        <ele>603</ele>
        <time>2023-05-27T08:49:18Z</time>
      </trkpt>
      <trkpt lat="45.90832" lon="5.39872">
        <ele>603</ele>
        <time>2023-05-27T08:49:19Z</time>
      </trkpt>
      <trkpt lat="45.90836" lon="5.39871">
        <ele>603</ele>
        <time>2023-05-27T08:49:20Z</time>
      </trkpt>
      <trkpt lat="45.90841" lon="5.39869">
        <ele>603</ele>
        <time>2023-05-27T08:49:21Z</time>
      </trkpt>
      <trkpt lat="45.90847" lon="5.39867">
        <ele>603</ele>
        <time>2023-05-27T08:49:22Z</time>
      </trkpt>
      <trkpt lat="45.90852" lon="5.39865">
        <ele>603</ele>
        <time>2023-05-27T08:49:23Z</time>
      </trkpt>
      <trkpt lat="45.90857" lon="5.39863">
        <ele>603</ele>
        <time>2023-05-27T08:49:24Z</time>
      </trkpt>
      <trkpt lat="45.90861" lon="5.39862">
        <ele>603</ele>
        <time>2023-05-27T08:49:25Z</time>
      </trkpt>
      <trkpt lat="45.90866" lon="5.3986">
        <ele>603</ele>
        <time>2023-05-27T08:49:26Z</time>
      </trkpt>
      <trkpt lat="45.90872" lon="5.39858">
        <ele>603</ele>
        <time>2023-05-27T08:49:27Z</time>
      </trkpt>
      <trkpt lat="45.90877" lon="5.39856">
        <ele>603.2</ele>
        <time>2023-05-27T08:49:28Z</time>
      </trkpt>
      <trkpt lat="45.90882" lon="5.39854">
        <ele>603.2</ele>
        <time>2023-05-27T08:49:29Z</time>
      </trkpt>
      <trkpt lat="45.90886" lon="5.39852">
        <ele>603.4</ele>
        <time>2023-05-27T08:49:30Z</time>
      </trkpt>
      <trkpt lat="45.90892" lon="5.39849">
        <ele>603.8</ele>
        <time>2023-05-27T08:49:31Z</time>
      </trkpt>
      <trkpt lat="45.90898" lon="5.39846">
        <ele>603.8</ele>
        <time>2023-05-27T08:49:32Z</time>
      </trkpt>
      <trkpt lat="45.90903" lon="5.39843">
        <ele>604</ele>
        <time>2023-05-27T08:49:33Z</time>
      </trkpt>
      <trkpt lat="45.90907" lon="5.39841">
        <ele>604.2</ele>
        <time>2023-05-27T08:49:34Z</time>
      </trkpt>
      <trkpt lat="45.90913" lon="5.39837">
        <ele>604.4</ele>
        <time>2023-05-27T08:49:35Z</time>
      </trkpt>
      <trkpt lat="45.90919" lon="5.39833">
        <ele>604.4</ele>
        <time>2023-05-27T08:49:36Z</time>
      </trkpt>
      <trkpt lat="45.90923" lon="5.3983">
        <ele>604.8</ele>
        <time>2023-05-27T08:49:37Z</time>
      </trkpt>
      <trkpt lat="45.90929" lon="5.39825">
        <ele>605</ele>
        <time>2023-05-27T08:49:38Z</time>
      </trkpt>
      <trkpt lat="45.90933" lon="5.39821">
        <ele>605.2</ele>
        <time>2023-05-27T08:49:39Z</time>
      </trkpt>
      <trkpt lat="45.90938" lon="5.39816">
        <ele>605.4</ele>
        <time>2023-05-27T08:49:40Z</time>
      </trkpt>
      <trkpt lat="45.90942" lon="5.3981">
        <ele>605.4</ele>
        <time>2023-05-27T08:49:41Z</time>
      </trkpt>
      <trkpt lat="45.90947" lon="5.39803">
        <ele>605.8</ele>
        <time>2023-05-27T08:49:42Z</time>
      </trkpt>
      <trkpt lat="45.9095" lon="5.39796">
        <ele>606</ele>
        <time>2023-05-27T08:49:43Z</time>
      </trkpt>
      <trkpt lat="45.90953" lon="5.39789">
        <ele>606.4</ele>
        <time>2023-05-27T08:49:44Z</time>
      </trkpt>
      <trkpt lat="45.90955" lon="5.39782">
        <ele>606.8</ele>
        <time>2023-05-27T08:49:45Z</time>
      </trkpt>
      <trkpt lat="45.90957" lon="5.39775">
        <ele>607</ele>
        <time>2023-05-27T08:49:46Z</time>
      </trkpt>
      <trkpt lat="45.90958" lon="5.39768">
        <ele>607.2</ele>
        <time>2023-05-27T08:49:47Z</time>
      </trkpt>
      <trkpt lat="45.90958" lon="5.3976">
        <ele>607.2</ele>
        <time>2023-05-27T08:49:48Z</time>
      </trkpt>
      <trkpt lat="45.90957" lon="5.39753">
        <ele>607.2</ele>
        <time>2023-05-27T08:49:49Z</time>
      </trkpt>
      <trkpt lat="45.90956" lon="5.39745">
        <ele>607.2</ele>
        <time>2023-05-27T08:49:50Z</time>
      </trkpt>
      <trkpt lat="45.90953" lon="5.39738">
        <ele>607.4</ele>
        <time>2023-05-27T08:49:51Z</time>
      </trkpt>
      <trkpt lat="45.9095" lon="5.39732">
        <ele>607.4</ele>
        <time>2023-05-27T08:49:52Z</time>
      </trkpt>
      <trkpt lat="45.90947" lon="5.39725">
        <ele>607.4</ele>
        <time>2023-05-27T08:49:53Z</time>
      </trkpt>
      <trkpt lat="45.90943" lon="5.39719">
        <ele>607.4</ele>
        <time>2023-05-27T08:49:54Z</time>
      </trkpt>
      <trkpt lat="45.90938" lon="5.39714">
        <ele>607.4</ele>
        <time>2023-05-27T08:49:55Z</time>
      </trkpt>
      <trkpt lat="45.90934" lon="5.3971">
        <ele>607.6</ele>
        <time>2023-05-27T08:49:56Z</time>
      </trkpt>
      <trkpt lat="45.9093" lon="5.39705">
        <ele>607.8</ele>
        <time>2023-05-27T08:49:57Z</time>
      </trkpt>
      <trkpt lat="45.90925" lon="5.397">
        <ele>608</ele>
        <time>2023-05-27T08:49:58Z</time>
      </trkpt>
      <trkpt lat="45.9092" lon="5.39695">
        <ele>608.2</ele>
        <time>2023-05-27T08:49:59Z</time>
      </trkpt>
      <trkpt lat="45.90914" lon="5.3969">
        <ele>608.2</ele>
        <time>2023-05-27T08:50:00Z</time>
      </trkpt>
      <trkpt lat="45.90908" lon="5.39685">
        <ele>608.6</ele>
        <time>2023-05-27T08:50:01Z</time>
      </trkpt>
      <trkpt lat="45.90902" lon="5.3968">
        <ele>608.8</ele>
        <time>2023-05-27T08:50:02Z</time>
      </trkpt>
      <trkpt lat="45.90896" lon="5.39677">
        <ele>609</ele>
        <time>2023-05-27T08:50:03Z</time>
      </trkpt>
      <trkpt lat="45.9089" lon="5.39674">
        <ele>609.2</ele>
        <time>2023-05-27T08:50:04Z</time>
      </trkpt>
      <trkpt lat="45.90883" lon="5.39671">
        <ele>609.2</ele>
        <time>2023-05-27T08:50:05Z</time>
      </trkpt>
      <trkpt lat="45.90877" lon="5.39668">
        <ele>609.2</ele>
        <time>2023-05-27T08:50:06Z</time>
      </trkpt>
      <trkpt lat="45.90871" lon="5.39665">
        <ele>609.2</ele>
        <time>2023-05-27T08:50:07Z</time>
      </trkpt>
      <trkpt lat="45.90864" lon="5.39662">
        <ele>609.2</ele>
        <time>2023-05-27T08:50:08Z</time>
      </trkpt>
      <trkpt lat="45.90858" lon="5.39658">
        <ele>609.2</ele>
        <time>2023-05-27T08:50:09Z</time>
      </trkpt>
      <trkpt lat="45.90851" lon="5.39655">
        <ele>609.2</ele>
        <time>2023-05-27T08:50:10Z</time>
      </trkpt>
      <trkpt lat="45.90843" lon="5.39651">
        <ele>609.2</ele>
        <time>2023-05-27T08:50:11Z</time>
      </trkpt>
      <trkpt lat="45.90835" lon="5.39647">
        <ele>609.2</ele>
        <time>2023-05-27T08:50:12Z</time>
      </trkpt>
      <trkpt lat="45.90827" lon="5.39642">
        <ele>609.2</ele>
        <time>2023-05-27T08:50:13Z</time>
      </trkpt>
      <trkpt lat="45.90819" lon="5.39638">
        <ele>609</ele>
        <time>2023-05-27T08:50:14Z</time>
      </trkpt>
      <trkpt lat="45.90811" lon="5.39634">
        <ele>609</ele>
        <time>2023-05-27T08:50:15Z</time>
      </trkpt>
      <trkpt lat="45.90802" lon="5.3963">
        <ele>608.8</ele>
        <time>2023-05-27T08:50:16Z</time>
      </trkpt>
      <trkpt lat="45.90794" lon="5.39627">
        <ele>608.4</ele>
        <time>2023-05-27T08:50:17Z</time>
      </trkpt>
      <trkpt lat="45.90785" lon="5.39621">
        <ele>608.2</ele>
        <time>2023-05-27T08:50:18Z</time>
      </trkpt>
      <trkpt lat="45.90778" lon="5.39615">
        <ele>608.2</ele>
        <time>2023-05-27T08:50:19Z</time>
      </trkpt>
      <trkpt lat="45.90771" lon="5.39608">
        <ele>608</ele>
        <time>2023-05-27T08:50:20Z</time>
      </trkpt>
      <trkpt lat="45.90764" lon="5.396">
        <ele>608</ele>
        <time>2023-05-27T08:50:21Z</time>
      </trkpt>
      <trkpt lat="45.90757" lon="5.3959">
        <ele>607.8</ele>
        <time>2023-05-27T08:50:22Z</time>
      </trkpt>
      <trkpt lat="45.90751" lon="5.3958">
        <ele>607.8</ele>
        <time>2023-05-27T08:50:23Z</time>
      </trkpt>
      <trkpt lat="45.90745" lon="5.3957">
        <ele>607.8</ele>
        <time>2023-05-27T08:50:24Z</time>
      </trkpt>
      <trkpt lat="45.90741" lon="5.39558">
        <ele>607.6</ele>
        <time>2023-05-27T08:50:25Z</time>
      </trkpt>
      <trkpt lat="45.90736" lon="5.39547">
        <ele>607.6</ele>
        <time>2023-05-27T08:50:26Z</time>
      </trkpt>
      <trkpt lat="45.90732" lon="5.39535">
        <ele>607.4</ele>
        <time>2023-05-27T08:50:27Z</time>
      </trkpt>
      <trkpt lat="45.90727" lon="5.39524">
        <ele>607.2</ele>
        <time>2023-05-27T08:50:28Z</time>
      </trkpt>
      <trkpt lat="45.90722" lon="5.39513">
        <ele>607</ele>
        <time>2023-05-27T08:50:29Z</time>
      </trkpt>
      <trkpt lat="45.90718" lon="5.39502">
        <ele>607</ele>
        <time>2023-05-27T08:50:30Z</time>
      </trkpt>
      <trkpt lat="45.90714" lon="5.39491">
        <ele>606.8</ele>
        <time>2023-05-27T08:50:31Z</time>
      </trkpt>
      <trkpt lat="45.90711" lon="5.39479">
        <ele>606.8</ele>
        <time>2023-05-27T08:50:32Z</time>
      </trkpt>
      <trkpt lat="45.90707" lon="5.39468">
        <ele>606.4</ele>
        <time>2023-05-27T08:50:33Z</time>
      </trkpt>
      <trkpt lat="45.90702" lon="5.39457">
        <ele>606.4</ele>
        <time>2023-05-27T08:50:34Z</time>
      </trkpt>
      <trkpt lat="45.90696" lon="5.39446">
        <ele>606</ele>
        <time>2023-05-27T08:50:35Z</time>
      </trkpt>
      <trkpt lat="45.9069" lon="5.39436">
        <ele>605.4</ele>
        <time>2023-05-27T08:50:36Z</time>
      </trkpt>
      <trkpt lat="45.90682" lon="5.39428">
        <ele>605.2</ele>
        <time>2023-05-27T08:50:37Z</time>
      </trkpt>
      <trkpt lat="45.90674" lon="5.39423">
        <ele>604.8</ele>
        <time>2023-05-27T08:50:38Z</time>
      </trkpt>
      <trkpt lat="45.90664" lon="5.3942">
        <ele>604.6</ele>
        <time>2023-05-27T08:50:39Z</time>
      </trkpt>
      <trkpt lat="45.90653" lon="5.3942">
        <ele>604.2</ele>
        <time>2023-05-27T08:50:40Z</time>
      </trkpt>
      <trkpt lat="45.90646" lon="5.39422">
        <ele>603.8</ele>
        <time>2023-05-27T08:50:41Z</time>
      </trkpt>
      <trkpt lat="45.90638" lon="5.39428">
        <ele>603.6</ele>
        <time>2023-05-27T08:50:42Z</time>
      </trkpt>
      <trkpt lat="45.90631" lon="5.39437">
        <ele>603.2</ele>
        <time>2023-05-27T08:50:43Z</time>
      </trkpt>
      <trkpt lat="45.90625" lon="5.39448">
        <ele>603</ele>
        <time>2023-05-27T08:50:44Z</time>
      </trkpt>
      <trkpt lat="45.90618" lon="5.39459">
        <ele>602.6</ele>
        <time>2023-05-27T08:50:45Z</time>
      </trkpt>
      <trkpt lat="45.90612" lon="5.39471">
        <ele>602.4</ele>
        <time>2023-05-27T08:50:46Z</time>
      </trkpt>
      <trkpt lat="45.90605" lon="5.39482">
        <ele>602</ele>
        <time>2023-05-27T08:50:47Z</time>
      </trkpt>
      <trkpt lat="45.90598" lon="5.39493">
        <ele>601.8</ele>
        <time>2023-05-27T08:50:48Z</time>
      </trkpt>
      <trkpt lat="45.9059" lon="5.39503">
        <ele>601.6</ele>
        <time>2023-05-27T08:50:49Z</time>
      </trkpt>
      <trkpt lat="45.90581" lon="5.39512">
        <ele>600.8</ele>
        <time>2023-05-27T08:50:50Z</time>
      </trkpt>
      <trkpt lat="45.90573" lon="5.39522">
        <ele>600.2</ele>
        <time>2023-05-27T08:50:51Z</time>
      </trkpt>
      <trkpt lat="45.90563" lon="5.39532">
        <ele>599.8</ele>
        <time>2023-05-27T08:50:52Z</time>
      </trkpt>
      <trkpt lat="45.90556" lon="5.39539">
        <ele>599.4</ele>
        <time>2023-05-27T08:50:53Z</time>
      </trkpt>
      <trkpt lat="45.90547" lon="5.39546">
        <ele>598.8</ele>
        <time>2023-05-27T08:50:54Z</time>
      </trkpt>
      <trkpt lat="45.90537" lon="5.39555">
        <ele>598.2</ele>
        <time>2023-05-27T08:50:55Z</time>
      </trkpt>
      <trkpt lat="45.90528" lon="5.39562">
        <ele>597.8</ele>
        <time>2023-05-27T08:50:56Z</time>
      </trkpt>
      <trkpt lat="45.90518" lon="5.39568">
        <ele>597</ele>
        <time>2023-05-27T08:50:57Z</time>
      </trkpt>
      <trkpt lat="45.90508" lon="5.39574">
        <ele>596.6</ele>
        <time>2023-05-27T08:50:58Z</time>
      </trkpt>
      <trkpt lat="45.90498" lon="5.3958">
        <ele>596.2</ele>
        <time>2023-05-27T08:50:59Z</time>
      </trkpt>
      <trkpt lat="45.90487" lon="5.39586">
        <ele>596.2</ele>
        <time>2023-05-27T08:51:00Z</time>
      </trkpt>
      <trkpt lat="45.90475" lon="5.39591">
        <ele>595.6</ele>
        <time>2023-05-27T08:51:01Z</time>
      </trkpt>
      <trkpt lat="45.90464" lon="5.39597">
        <ele>594.8</ele>
        <time>2023-05-27T08:51:02Z</time>
      </trkpt>
      <trkpt lat="45.90454" lon="5.39602">
        <ele>594.2</ele>
        <time>2023-05-27T08:51:03Z</time>
      </trkpt>
      <trkpt lat="45.90443" lon="5.39608">
        <ele>593.4</ele>
        <time>2023-05-27T08:51:04Z</time>
      </trkpt>
      <trkpt lat="45.90433" lon="5.39613">
        <ele>593</ele>
        <time>2023-05-27T08:51:05Z</time>
      </trkpt>
      <trkpt lat="45.90422" lon="5.39619">
        <ele>592.2</ele>
        <time>2023-05-27T08:51:06Z</time>
      </trkpt>
      <trkpt lat="45.90412" lon="5.39625">
        <ele>592</ele>
        <time>2023-05-27T08:51:07Z</time>
      </trkpt>
      <trkpt lat="45.90402" lon="5.39631">
        <ele>591.4</ele>
        <time>2023-05-27T08:51:08Z</time>
      </trkpt>
      <trkpt lat="45.90392" lon="5.39638">
        <ele>591</ele>
        <time>2023-05-27T08:51:09Z</time>
      </trkpt>
      <trkpt lat="45.90381" lon="5.39643">
        <ele>590.8</ele>
        <time>2023-05-27T08:51:10Z</time>
      </trkpt>
      <trkpt lat="45.90371" lon="5.39648">
        <ele>590.4</ele>
        <time>2023-05-27T08:51:11Z</time>
      </trkpt>
      <trkpt lat="45.90361" lon="5.39653">
        <ele>590</ele>
        <time>2023-05-27T08:51:12Z</time>
      </trkpt>
      <trkpt lat="45.9035" lon="5.39656">
        <ele>589.2</ele>
        <time>2023-05-27T08:51:13Z</time>
      </trkpt>
      <trkpt lat="45.90341" lon="5.3966">
        <ele>589</ele>
        <time>2023-05-27T08:51:14Z</time>
      </trkpt>
      <trkpt lat="45.90327" lon="5.39664">
        <ele>588.4</ele>
        <time>2023-05-27T08:51:15Z</time>
      </trkpt>
      <trkpt lat="45.90319" lon="5.39665">
        <ele>587.6</ele>
        <time>2023-05-27T08:51:16Z</time>
      </trkpt>
      <trkpt lat="45.90312" lon="5.39665">
        <ele>587.4</ele>
        <time>2023-05-27T08:51:17Z</time>
      </trkpt>
      <trkpt lat="45.90305" lon="5.39662">
        <ele>586.2</ele>
        <time>2023-05-27T08:51:18Z</time>
      </trkpt>
      <trkpt lat="45.90301" lon="5.39657">
        <ele>585.6</ele>
        <time>2023-05-27T08:51:19Z</time>
      </trkpt>
      <trkpt lat="45.903" lon="5.3965">
        <ele>585.2</ele>
        <time>2023-05-27T08:51:20Z</time>
      </trkpt>
      <trkpt lat="45.90302" lon="5.39643">
        <ele>584.8</ele>
        <time>2023-05-27T08:51:21Z</time>
      </trkpt>
      <trkpt lat="45.90305" lon="5.39636">
        <ele>584.2</ele>
        <time>2023-05-27T08:51:22Z</time>
      </trkpt>
      <trkpt lat="45.90308" lon="5.39629">
        <ele>583.2</ele>
        <time>2023-05-27T08:51:23Z</time>
      </trkpt>
      <trkpt lat="45.9031" lon="5.39622">
        <ele>583</ele>
        <time>2023-05-27T08:51:24Z</time>
      </trkpt>
      <trkpt lat="45.90312" lon="5.39617">
        <ele>582.4</ele>
        <time>2023-05-27T08:51:25Z</time>
      </trkpt>
      <trkpt lat="45.90315" lon="5.39611">
        <ele>581.8</ele>
        <time>2023-05-27T08:51:26Z</time>
      </trkpt>
      <trkpt lat="45.90318" lon="5.39605">
        <ele>581.2</ele>
        <time>2023-05-27T08:51:27Z</time>
      </trkpt>
      <trkpt lat="45.9032" lon="5.396">
        <ele>581</ele>
        <time>2023-05-27T08:51:28Z</time>
      </trkpt>
      <trkpt lat="45.90322" lon="5.39596">
        <ele>580.4</ele>
        <time>2023-05-27T08:51:29Z</time>
      </trkpt>
      <trkpt lat="45.90325" lon="5.3959">
        <ele>580.4</ele>
        <time>2023-05-27T08:51:30Z</time>
      </trkpt>
      <trkpt lat="45.90328" lon="5.39584">
        <ele>580.2</ele>
        <time>2023-05-27T08:51:31Z</time>
      </trkpt>
      <trkpt lat="45.9033" lon="5.39578">
        <ele>579.8</ele>
        <time>2023-05-27T08:51:32Z</time>
      </trkpt>
      <trkpt lat="45.90331" lon="5.39571">
        <ele>579.8</ele>
        <time>2023-05-27T08:51:33Z</time>
      </trkpt>
      <trkpt lat="45.90331" lon="5.39565">
        <ele>579.8</ele>
        <time>2023-05-27T08:51:34Z</time>
      </trkpt>
      <trkpt lat="45.90329" lon="5.39561">
        <ele>579.8</ele>
        <time>2023-05-27T08:51:35Z</time>
      </trkpt>
      <trkpt lat="45.90325" lon="5.39559">
        <ele>579.6</ele>
        <time>2023-05-27T08:51:36Z</time>
      </trkpt>
      <trkpt lat="45.90316" lon="5.39555">
        <ele>579.4</ele>
        <time>2023-05-27T08:51:38Z</time>
      </trkpt>
      <trkpt lat="45.9031" lon="5.39552">
        <ele>579.2</ele>
        <time>2023-05-27T08:51:39Z</time>
      </trkpt>
      <trkpt lat="45.90305" lon="5.39549">
        <ele>579.2</ele>
        <time>2023-05-27T08:51:40Z</time>
      </trkpt>
      <trkpt lat="45.90299" lon="5.39544">
        <ele>579.2</ele>
        <time>2023-05-27T08:51:41Z</time>
      </trkpt>
      <trkpt lat="45.90294" lon="5.3954">
        <ele>579.2</ele>
        <time>2023-05-27T08:51:42Z</time>
      </trkpt>
      <trkpt lat="45.90287" lon="5.39539">
        <ele>579.2</ele>
        <time>2023-05-27T08:51:43Z</time>
      </trkpt>
      <trkpt lat="45.90279" lon="5.39536">
        <ele>578.8</ele>
        <time>2023-05-27T08:51:44Z</time>
      </trkpt>
      <trkpt lat="45.90272" lon="5.39536">
        <ele>578.8</ele>
        <time>2023-05-27T08:51:45Z</time>
      </trkpt>
      <trkpt lat="45.90264" lon="5.39534">
        <ele>578.6</ele>
        <time>2023-05-27T08:51:46Z</time>
      </trkpt>
      <trkpt lat="45.90256" lon="5.39535">
        <ele>578.4</ele>
        <time>2023-05-27T08:51:47Z</time>
      </trkpt>
      <trkpt lat="45.90249" lon="5.39537">
        <ele>578.2</ele>
        <time>2023-05-27T08:51:48Z</time>
      </trkpt>
      <trkpt lat="45.90239" lon="5.3954">
        <ele>577.8</ele>
        <time>2023-05-27T08:51:49Z</time>
      </trkpt>
      <trkpt lat="45.90229" lon="5.39544">
        <ele>577.4</ele>
        <time>2023-05-27T08:51:50Z</time>
      </trkpt>
      <trkpt lat="45.9022" lon="5.39547">
        <ele>577.2</ele>
        <time>2023-05-27T08:51:51Z</time>
      </trkpt>
      <trkpt lat="45.9021" lon="5.3955">
        <ele>577</ele>
        <time>2023-05-27T08:51:52Z</time>
      </trkpt>
      <trkpt lat="45.90201" lon="5.39554">
        <ele>576.4</ele>
        <time>2023-05-27T08:51:53Z</time>
      </trkpt>
      <trkpt lat="45.90193" lon="5.39558">
        <ele>576.2</ele>
        <time>2023-05-27T08:51:54Z</time>
      </trkpt>
      <trkpt lat="45.90184" lon="5.39563">
        <ele>575.8</ele>
        <time>2023-05-27T08:51:55Z</time>
      </trkpt>
      <trkpt lat="45.90173" lon="5.3957">
        <ele>575.6</ele>
        <time>2023-05-27T08:51:56Z</time>
      </trkpt>
      <trkpt lat="45.90163" lon="5.39575">
        <ele>574.8</ele>
        <time>2023-05-27T08:51:57Z</time>
      </trkpt>
      <trkpt lat="45.90152" lon="5.3958">
        <ele>574</ele>
        <time>2023-05-27T08:51:58Z</time>
      </trkpt>
      <trkpt lat="45.90141" lon="5.39584">
        <ele>573.8</ele>
        <time>2023-05-27T08:51:59Z</time>
      </trkpt>
      <trkpt lat="45.90129" lon="5.39588">
        <ele>573.2</ele>
        <time>2023-05-27T08:52:00Z</time>
      </trkpt>
      <trkpt lat="45.90118" lon="5.39591">
        <ele>572.8</ele>
        <time>2023-05-27T08:52:01Z</time>
      </trkpt>
      <trkpt lat="45.90106" lon="5.39592">
        <ele>572.4</ele>
        <time>2023-05-27T08:52:02Z</time>
      </trkpt>
      <trkpt lat="45.90095" lon="5.39593">
        <ele>572</ele>
        <time>2023-05-27T08:52:03Z</time>
      </trkpt>
      <trkpt lat="45.90082" lon="5.39591">
        <ele>571</ele>
        <time>2023-05-27T08:52:04Z</time>
      </trkpt>
      <trkpt lat="45.9007" lon="5.39591">
        <ele>569.8</ele>
        <time>2023-05-27T08:52:05Z</time>
      </trkpt>
      <trkpt lat="45.90062" lon="5.39593">
        <ele>569.6</ele>
        <time>2023-05-27T08:52:06Z</time>
      </trkpt>
      <trkpt lat="45.90048" lon="5.396">
        <ele>568.6</ele>
        <time>2023-05-27T08:52:07Z</time>
      </trkpt>
      <trkpt lat="45.90038" lon="5.39608">
        <ele>568.2</ele>
        <time>2023-05-27T08:52:08Z</time>
      </trkpt>
      <trkpt lat="45.90028" lon="5.39617">
        <ele>567</ele>
        <time>2023-05-27T08:52:09Z</time>
      </trkpt>
      <trkpt lat="45.9002" lon="5.39626">
        <ele>566.2</ele>
        <time>2023-05-27T08:52:10Z</time>
      </trkpt>
      <trkpt lat="45.90011" lon="5.39636">
        <ele>565.8</ele>
        <time>2023-05-27T08:52:11Z</time>
      </trkpt>
      <trkpt lat="45.89999" lon="5.39647">
        <ele>565.2</ele>
        <time>2023-05-27T08:52:12Z</time>
      </trkpt>
      <trkpt lat="45.8999" lon="5.39656">
        <ele>565</ele>
        <time>2023-05-27T08:52:13Z</time>
      </trkpt>
      <trkpt lat="45.89979" lon="5.39664">
        <ele>564.6</ele>
        <time>2023-05-27T08:52:14Z</time>
      </trkpt>
      <trkpt lat="45.89968" lon="5.39672">
        <ele>564</ele>
        <time>2023-05-27T08:52:15Z</time>
      </trkpt>
      <trkpt lat="45.89957" lon="5.39677">
        <ele>563</ele>
        <time>2023-05-27T08:52:16Z</time>
      </trkpt>
      <trkpt lat="45.89945" lon="5.3968">
        <ele>561.8</ele>
        <time>2023-05-27T08:52:17Z</time>
      </trkpt>
      <trkpt lat="45.89933" lon="5.39681">
        <ele>561.4</ele>
        <time>2023-05-27T08:52:18Z</time>
      </trkpt>
      <trkpt lat="45.89921" lon="5.39681">
        <ele>560.4</ele>
        <time>2023-05-27T08:52:19Z</time>
      </trkpt>
      <trkpt lat="45.89913" lon="5.39683">
        <ele>560</ele>
        <time>2023-05-27T08:52:20Z</time>
      </trkpt>
      <trkpt lat="45.89902" lon="5.39686">
        <ele>559.4</ele>
        <time>2023-05-27T08:52:21Z</time>
      </trkpt>
      <trkpt lat="45.89892" lon="5.39692">
        <ele>558.8</ele>
        <time>2023-05-27T08:52:22Z</time>
      </trkpt>
      <trkpt lat="45.89884" lon="5.39696">
        <ele>558</ele>
        <time>2023-05-27T08:52:23Z</time>
      </trkpt>
      <trkpt lat="45.89876" lon="5.39698">
        <ele>556.6</ele>
        <time>2023-05-27T08:52:24Z</time>
      </trkpt>
      <trkpt lat="45.8987" lon="5.39699">
        <ele>555.6</ele>
        <time>2023-05-27T08:52:25Z</time>
      </trkpt>
      <trkpt lat="45.89862" lon="5.397">
        <ele>554.6</ele>
        <time>2023-05-27T08:52:26Z</time>
      </trkpt>
      <trkpt lat="45.89857" lon="5.39701">
        <ele>554.2</ele>
        <time>2023-05-27T08:52:27Z</time>
      </trkpt>
      <trkpt lat="45.89852" lon="5.39702">
        <ele>553.8</ele>
        <time>2023-05-27T08:52:28Z</time>
      </trkpt>
      <trkpt lat="45.89847" lon="5.39703">
        <ele>553.6</ele>
        <time>2023-05-27T08:52:29Z</time>
      </trkpt>
      <trkpt lat="45.89843" lon="5.39704">
        <ele>552.8</ele>
        <time>2023-05-27T08:52:30Z</time>
      </trkpt>
      <trkpt lat="45.89838" lon="5.39705">
        <ele>551.8</ele>
        <time>2023-05-27T08:52:31Z</time>
      </trkpt>
      <trkpt lat="45.89834" lon="5.39705">
        <ele>551.4</ele>
        <time>2023-05-27T08:52:32Z</time>
      </trkpt>
      <trkpt lat="45.8983" lon="5.39706">
        <ele>551</ele>
        <time>2023-05-27T08:52:33Z</time>
      </trkpt>
      <trkpt lat="45.89827" lon="5.39706">
        <ele>550.6</ele>
        <time>2023-05-27T08:52:34Z</time>
      </trkpt>
      <trkpt lat="45.89824" lon="5.39707">
        <ele>550.2</ele>
        <time>2023-05-27T08:52:35Z</time>
      </trkpt>
      <trkpt lat="45.8982" lon="5.39708">
        <ele>550</ele>
        <time>2023-05-27T08:52:36Z</time>
      </trkpt>
      <trkpt lat="45.89817" lon="5.39709">
        <ele>549.8</ele>
        <time>2023-05-27T08:52:37Z</time>
      </trkpt>
      <trkpt lat="45.89813" lon="5.39711">
        <ele>549.6</ele>
        <time>2023-05-27T08:52:38Z</time>
      </trkpt>
      <trkpt lat="45.8981" lon="5.39713">
        <ele>549.6</ele>
        <time>2023-05-27T08:52:39Z</time>
      </trkpt>
      <trkpt lat="45.89807" lon="5.39714">
        <ele>549.4</ele>
        <time>2023-05-27T08:52:40Z</time>
      </trkpt>
      <trkpt lat="45.89803" lon="5.39715">
        <ele>549.2</ele>
        <time>2023-05-27T08:52:41Z</time>
      </trkpt>
      <trkpt lat="45.898" lon="5.39718">
        <ele>549</ele>
        <time>2023-05-27T08:52:42Z</time>
      </trkpt>
      <trkpt lat="45.89797" lon="5.3972">
        <ele>548.8</ele>
        <time>2023-05-27T08:52:43Z</time>
      </trkpt>
      <trkpt lat="45.89795" lon="5.39722">
        <ele>548.6</ele>
        <time>2023-05-27T08:52:44Z</time>
      </trkpt>
      <trkpt lat="45.89791" lon="5.39723">
        <ele>548.4</ele>
        <time>2023-05-27T08:52:45Z</time>
      </trkpt>
      <trkpt lat="45.89788" lon="5.39724">
        <ele>548.4</ele>
        <time>2023-05-27T08:52:46Z</time>
      </trkpt>
      <trkpt lat="45.89784" lon="5.39726">
        <ele>548.4</ele>
        <time>2023-05-27T08:52:47Z</time>
      </trkpt>
      <trkpt lat="45.89781" lon="5.39728">
        <ele>548.4</ele>
        <time>2023-05-27T08:52:48Z</time>
      </trkpt>
      <trkpt lat="45.89778" lon="5.3973">
        <ele>548.4</ele>
        <time>2023-05-27T08:52:49Z</time>
      </trkpt>
      <trkpt lat="45.89774" lon="5.39731">
        <ele>548.4</ele>
        <time>2023-05-27T08:52:50Z</time>
      </trkpt>
      <trkpt lat="45.8977" lon="5.39732">
        <ele>548.6</ele>
        <time>2023-05-27T08:52:51Z</time>
      </trkpt>
      <trkpt lat="45.89766" lon="5.39733">
        <ele>548.6</ele>
        <time>2023-05-27T08:52:52Z</time>
      </trkpt>
      <trkpt lat="45.89763" lon="5.39734">
        <ele>548.6</ele>
        <time>2023-05-27T08:52:53Z</time>
      </trkpt>
      <trkpt lat="45.8976" lon="5.39735">
        <ele>549</ele>
        <time>2023-05-27T08:52:54Z</time>
      </trkpt>
      <trkpt lat="45.89756" lon="5.39735">
        <ele>549.2</ele>
        <time>2023-05-27T08:52:55Z</time>
      </trkpt>
      <trkpt lat="45.89753" lon="5.39736">
        <ele>549.4</ele>
        <time>2023-05-27T08:52:56Z</time>
      </trkpt>
      <trkpt lat="45.89749" lon="5.39737">
        <ele>549.4</ele>
        <time>2023-05-27T08:52:57Z</time>
      </trkpt>
      <trkpt lat="45.89745" lon="5.39737">
        <ele>549.6</ele>
        <time>2023-05-27T08:52:58Z</time>
      </trkpt>
      <trkpt lat="45.89742" lon="5.39737">
        <ele>549.8</ele>
        <time>2023-05-27T08:52:59Z</time>
      </trkpt>
      <trkpt lat="45.89739" lon="5.39738">
        <ele>550</ele>
        <time>2023-05-27T08:53:00Z</time>
      </trkpt>
      <trkpt lat="45.89734" lon="5.39739">
        <ele>550</ele>
        <time>2023-05-27T08:53:01Z</time>
      </trkpt>
      <trkpt lat="45.89732" lon="5.39739">
        <ele>550.2</ele>
        <time>2023-05-27T08:53:02Z</time>
      </trkpt>
      <trkpt lat="45.89728" lon="5.3974">
        <ele>550.6</ele>
        <time>2023-05-27T08:53:03Z</time>
      </trkpt>
      <trkpt lat="45.89725" lon="5.3974">
        <ele>550.6</ele>
        <time>2023-05-27T08:53:04Z</time>
      </trkpt>
      <trkpt lat="45.89721" lon="5.39741">
        <ele>551</ele>
        <time>2023-05-27T08:53:05Z</time>
      </trkpt>
      <trkpt lat="45.89718" lon="5.39741">
        <ele>551.2</ele>
        <time>2023-05-27T08:53:06Z</time>
      </trkpt>
      <trkpt lat="45.89715" lon="5.39742">
        <ele>551.4</ele>
        <time>2023-05-27T08:53:07Z</time>
      </trkpt>
      <trkpt lat="45.89711" lon="5.39743">
        <ele>551.6</ele>
        <time>2023-05-27T08:53:08Z</time>
      </trkpt>
      <trkpt lat="45.89706" lon="5.39744">
        <ele>551.8</ele>
        <time>2023-05-27T08:53:09Z</time>
      </trkpt>
      <trkpt lat="45.89703" lon="5.39745">
        <ele>551.8</ele>
        <time>2023-05-27T08:53:10Z</time>
      </trkpt>
      <trkpt lat="45.89699" lon="5.39745">
        <ele>552</ele>
        <time>2023-05-27T08:53:11Z</time>
      </trkpt>
      <trkpt lat="45.89694" lon="5.39746">
        <ele>552</ele>
        <time>2023-05-27T08:53:12Z</time>
      </trkpt>
      <trkpt lat="45.8969" lon="5.39747">
        <ele>552.2</ele>
        <time>2023-05-27T08:53:13Z</time>
      </trkpt>
      <trkpt lat="45.89686" lon="5.39747">
        <ele>552.2</ele>
        <time>2023-05-27T08:53:14Z</time>
      </trkpt>
      <trkpt lat="45.89681" lon="5.39746">
        <ele>552.6</ele>
        <time>2023-05-27T08:53:15Z</time>
      </trkpt>
      <trkpt lat="45.89677" lon="5.39745">
        <ele>552.8</ele>
        <time>2023-05-27T08:53:16Z</time>
      </trkpt>
      <trkpt lat="45.89674" lon="5.39744">
        <ele>553</ele>
        <time>2023-05-27T08:53:17Z</time>
      </trkpt>
      <trkpt lat="45.8967" lon="5.39745">
        <ele>553</ele>
        <time>2023-05-27T08:53:18Z</time>
      </trkpt>
      <trkpt lat="45.89666" lon="5.39746">
        <ele>553.2</ele>
        <time>2023-05-27T08:53:19Z</time>
      </trkpt>
      <trkpt lat="45.89662" lon="5.39747">
        <ele>553.6</ele>
        <time>2023-05-27T08:53:20Z</time>
      </trkpt>
      <trkpt lat="45.89659" lon="5.39747">
        <ele>553.8</ele>
        <time>2023-05-27T08:53:21Z</time>
      </trkpt>
      <trkpt lat="45.89656" lon="5.39746">
        <ele>554</ele>
        <time>2023-05-27T08:53:22Z</time>
      </trkpt>
      <trkpt lat="45.89653" lon="5.39747">
        <ele>554.2</ele>
        <time>2023-05-27T08:53:23Z</time>
      </trkpt>
      <trkpt lat="45.89648" lon="5.3975">
        <ele>554.4</ele>
        <time>2023-05-27T08:53:24Z</time>
      </trkpt>
      <trkpt lat="45.89645" lon="5.39751">
        <ele>554.4</ele>
        <time>2023-05-27T08:53:25Z</time>
      </trkpt>
      <trkpt lat="45.89642" lon="5.39751">
        <ele>554.6</ele>
        <time>2023-05-27T08:53:26Z</time>
      </trkpt>
      <trkpt lat="45.89639" lon="5.39752">
        <ele>554.8</ele>
        <time>2023-05-27T08:53:27Z</time>
      </trkpt>
      <trkpt lat="45.89636" lon="5.39753">
        <ele>554.8</ele>
        <time>2023-05-27T08:53:28Z</time>
      </trkpt>
      <trkpt lat="45.89633" lon="5.39754">
        <ele>555</ele>
        <time>2023-05-27T08:53:29Z</time>
      </trkpt>
      <trkpt lat="45.8963" lon="5.39754">
        <ele>555</ele>
        <time>2023-05-27T08:53:30Z</time>
      </trkpt>
      <trkpt lat="45.89627" lon="5.39755">
        <ele>555.6</ele>
        <time>2023-05-27T08:53:31Z</time>
      </trkpt>
      <trkpt lat="45.89624" lon="5.39756">
        <ele>555.8</ele>
        <time>2023-05-27T08:53:32Z</time>
      </trkpt>
      <trkpt lat="45.89622" lon="5.39756">
        <ele>556</ele>
        <time>2023-05-27T08:53:33Z</time>
      </trkpt>
      <trkpt lat="45.89619" lon="5.39757">
        <ele>556.4</ele>
        <time>2023-05-27T08:53:34Z</time>
      </trkpt>
      <trkpt lat="45.89615" lon="5.39758">
        <ele>556.6</ele>
        <time>2023-05-27T08:53:35Z</time>
      </trkpt>
      <trkpt lat="45.89612" lon="5.3976">
        <ele>557</ele>
        <time>2023-05-27T08:53:36Z</time>
      </trkpt>
      <trkpt lat="45.89607" lon="5.39761">
        <ele>557.6</ele>
        <time>2023-05-27T08:53:38Z</time>
      </trkpt>
      <trkpt lat="45.89603" lon="5.39762">
        <ele>557.6</ele>
        <time>2023-05-27T08:53:39Z</time>
      </trkpt>
      <trkpt lat="45.89597" lon="5.39763">
        <ele>557.8</ele>
        <time>2023-05-27T08:53:41Z</time>
      </trkpt>
      <trkpt lat="45.89594" lon="5.39764">
        <ele>557.8</ele>
        <time>2023-05-27T08:53:42Z</time>
      </trkpt>
      <trkpt lat="45.89591" lon="5.39765">
        <ele>558</ele>
        <time>2023-05-27T08:53:43Z</time>
      </trkpt>
      <trkpt lat="45.89589" lon="5.39766">
        <ele>558.2</ele>
        <time>2023-05-27T08:53:44Z</time>
      </trkpt>
      <trkpt lat="45.89586" lon="5.39765">
        <ele>558.2</ele>
        <time>2023-05-27T08:53:45Z</time>
      </trkpt>
      <trkpt lat="45.89584" lon="5.39765">
        <ele>558.4</ele>
        <time>2023-05-27T08:53:46Z</time>
      </trkpt>
      <trkpt lat="45.89581" lon="5.39765">
        <ele>558.6</ele>
        <time>2023-05-27T08:53:47Z</time>
      </trkpt>
      <trkpt lat="45.89579" lon="5.39766">
        <ele>558.8</ele>
        <time>2023-05-27T08:53:48Z</time>
      </trkpt>
      <trkpt lat="45.89576" lon="5.39767">
        <ele>559</ele>
        <time>2023-05-27T08:53:49Z</time>
      </trkpt>
      <trkpt lat="45.89572" lon="5.39768">
        <ele>559.6</ele>
        <time>2023-05-27T08:53:50Z</time>
      </trkpt>
      <trkpt lat="45.89568" lon="5.39769">
        <ele>559.8</ele>
        <time>2023-05-27T08:53:51Z</time>
      </trkpt>
      <trkpt lat="45.89565" lon="5.3977">
        <ele>560.4</ele>
        <time>2023-05-27T08:53:52Z</time>
      </trkpt>
      <trkpt lat="45.8956" lon="5.39771">
        <ele>560.8</ele>
        <time>2023-05-27T08:53:53Z</time>
      </trkpt>
      <trkpt lat="45.89556" lon="5.39772">
        <ele>561.2</ele>
        <time>2023-05-27T08:53:54Z</time>
      </trkpt>
      <trkpt lat="45.89551" lon="5.39773">
        <ele>561.4</ele>
        <time>2023-05-27T08:53:55Z</time>
      </trkpt>
      <trkpt lat="45.89547" lon="5.39773">
        <ele>561.4</ele>
        <time>2023-05-27T08:53:56Z</time>
      </trkpt>
      <trkpt lat="45.89544" lon="5.39772">
        <ele>561.4</ele>
        <time>2023-05-27T08:53:57Z</time>
      </trkpt>
      <trkpt lat="45.89539" lon="5.39772">
        <ele>561.6</ele>
        <time>2023-05-27T08:53:58Z</time>
      </trkpt>
      <trkpt lat="45.89533" lon="5.39771">
        <ele>562</ele>
        <time>2023-05-27T08:53:59Z</time>
      </trkpt>
      <trkpt lat="45.8953" lon="5.39769">
        <ele>562.2</ele>
        <time>2023-05-27T08:54:00Z</time>
      </trkpt>
      <trkpt lat="45.89527" lon="5.39767">
        <ele>562.4</ele>
        <time>2023-05-27T08:54:01Z</time>
      </trkpt>
      <trkpt lat="45.89522" lon="5.39768">
        <ele>562.6</ele>
        <time>2023-05-27T08:54:02Z</time>
      </trkpt>
      <trkpt lat="45.89519" lon="5.39769">
        <ele>562.8</ele>
        <time>2023-05-27T08:54:03Z</time>
      </trkpt>
      <trkpt lat="45.89516" lon="5.39769">
        <ele>562.8</ele>
        <time>2023-05-27T08:54:04Z</time>
      </trkpt>
      <trkpt lat="45.89514" lon="5.39769">
        <ele>562.8</ele>
        <time>2023-05-27T08:54:05Z</time>
      </trkpt>
      <trkpt lat="45.89512" lon="5.39769">
        <ele>563.4</ele>
        <time>2023-05-27T08:54:06Z</time>
      </trkpt>
      <trkpt lat="45.8951" lon="5.3977">
        <ele>563.4</ele>
        <time>2023-05-27T08:54:07Z</time>
      </trkpt>
      <trkpt lat="45.89507" lon="5.3977">
        <ele>563.6</ele>
        <time>2023-05-27T08:54:08Z</time>
      </trkpt>
      <trkpt lat="45.89505" lon="5.39773">
        <ele>563.8</ele>
        <time>2023-05-27T08:54:09Z</time>
      </trkpt>
      <trkpt lat="45.89503" lon="5.39774">
        <ele>564.2</ele>
        <time>2023-05-27T08:54:10Z</time>
      </trkpt>
      <trkpt lat="45.89502" lon="5.39779">
        <ele>564.6</ele>
        <time>2023-05-27T08:54:12Z</time>
      </trkpt>
      <trkpt lat="45.89502" lon="5.39783">
        <ele>565</ele>
        <time>2023-05-27T08:54:13Z</time>
      </trkpt>
      <trkpt lat="45.89502" lon="5.39787">
        <ele>565</ele>
        <time>2023-05-27T08:54:14Z</time>
      </trkpt>
      <trkpt lat="45.89502" lon="5.39791">
        <ele>565.2</ele>
        <time>2023-05-27T08:54:15Z</time>
      </trkpt>
      <trkpt lat="45.89502" lon="5.39796">
        <ele>565.6</ele>
        <time>2023-05-27T08:54:16Z</time>
      </trkpt>
      <trkpt lat="45.89502" lon="5.398">
        <ele>565.8</ele>
        <time>2023-05-27T08:54:17Z</time>
      </trkpt>
      <trkpt lat="45.89502" lon="5.39805">
        <ele>566</ele>
        <time>2023-05-27T08:54:18Z</time>
      </trkpt>
      <trkpt lat="45.89502" lon="5.39809">
        <ele>566.2</ele>
        <time>2023-05-27T08:54:19Z</time>
      </trkpt>
      <trkpt lat="45.89503" lon="5.39812">
        <ele>566.4</ele>
        <time>2023-05-27T08:54:20Z</time>
      </trkpt>
      <trkpt lat="45.89502" lon="5.39816">
        <ele>566.4</ele>
        <time>2023-05-27T08:54:21Z</time>
      </trkpt>
      <trkpt lat="45.89503" lon="5.39821">
        <ele>566.6</ele>
        <time>2023-05-27T08:54:22Z</time>
      </trkpt>
      <trkpt lat="45.89502" lon="5.39826">
        <ele>566.8</ele>
        <time>2023-05-27T08:54:23Z</time>
      </trkpt>
      <trkpt lat="45.89503" lon="5.39831">
        <ele>566.8</ele>
        <time>2023-05-27T08:54:24Z</time>
      </trkpt>
      <trkpt lat="45.89503" lon="5.39835">
        <ele>567.2</ele>
        <time>2023-05-27T08:54:25Z</time>
      </trkpt>
      <trkpt lat="45.89503" lon="5.39841">
        <ele>567.2</ele>
        <time>2023-05-27T08:54:26Z</time>
      </trkpt>
      <trkpt lat="45.89502" lon="5.39845">
        <ele>567.8</ele>
        <time>2023-05-27T08:54:27Z</time>
      </trkpt>
      <trkpt lat="45.89502" lon="5.3985">
        <ele>567.8</ele>
        <time>2023-05-27T08:54:28Z</time>
      </trkpt>
      <trkpt lat="45.89501" lon="5.39856">
        <ele>568.2</ele>
        <time>2023-05-27T08:54:29Z</time>
      </trkpt>
      <trkpt lat="45.89501" lon="5.39861">
        <ele>568.4</ele>
        <time>2023-05-27T08:54:30Z</time>
      </trkpt>
      <trkpt lat="45.895" lon="5.39865">
        <ele>568.8</ele>
        <time>2023-05-27T08:54:31Z</time>
      </trkpt>
      <trkpt lat="45.89499" lon="5.39869">
        <ele>569.2</ele>
        <time>2023-05-27T08:54:32Z</time>
      </trkpt>
      <trkpt lat="45.89499" lon="5.39873">
        <ele>569.4</ele>
        <time>2023-05-27T08:54:33Z</time>
      </trkpt>
      <trkpt lat="45.89498" lon="5.39879">
        <ele>569.8</ele>
        <time>2023-05-27T08:54:34Z</time>
      </trkpt>
      <trkpt lat="45.89496" lon="5.39884">
        <ele>570.2</ele>
        <time>2023-05-27T08:54:35Z</time>
      </trkpt>
      <trkpt lat="45.89497" lon="5.3989">
        <ele>570.2</ele>
        <time>2023-05-27T08:54:36Z</time>
      </trkpt>
      <trkpt lat="45.89495" lon="5.39894">
        <ele>570.4</ele>
        <time>2023-05-27T08:54:37Z</time>
      </trkpt>
      <trkpt lat="45.89494" lon="5.39898">
        <ele>570.4</ele>
        <time>2023-05-27T08:54:38Z</time>
      </trkpt>
      <trkpt lat="45.89491" lon="5.39902">
        <ele>570.6</ele>
        <time>2023-05-27T08:54:39Z</time>
      </trkpt>
      <trkpt lat="45.89488" lon="5.39905">
        <ele>570.6</ele>
        <time>2023-05-27T08:54:40Z</time>
      </trkpt>
      <trkpt lat="45.89486" lon="5.39908">
        <ele>570.8</ele>
        <time>2023-05-27T08:54:41Z</time>
      </trkpt>
      <trkpt lat="45.89482" lon="5.39911">
        <ele>571</ele>
        <time>2023-05-27T08:54:42Z</time>
      </trkpt>
      <trkpt lat="45.8948" lon="5.39912">
        <ele>571.2</ele>
        <time>2023-05-27T08:54:43Z</time>
      </trkpt>
      <trkpt lat="45.89478" lon="5.39915">
        <ele>571.6</ele>
        <time>2023-05-27T08:54:44Z</time>
      </trkpt>
      <trkpt lat="45.89475" lon="5.39917">
        <ele>571.8</ele>
        <time>2023-05-27T08:54:45Z</time>
      </trkpt>
      <trkpt lat="45.89473" lon="5.39918">
        <ele>572.2</ele>
        <time>2023-05-27T08:54:46Z</time>
      </trkpt>
      <trkpt lat="45.8947" lon="5.3992">
        <ele>572.2</ele>
        <time>2023-05-27T08:54:47Z</time>
      </trkpt>
      <trkpt lat="45.89467" lon="5.39924">
        <ele>572.4</ele>
        <time>2023-05-27T08:54:48Z</time>
      </trkpt>
      <trkpt lat="45.89463" lon="5.39928">
        <ele>572.6</ele>
        <time>2023-05-27T08:54:49Z</time>
      </trkpt>
      <trkpt lat="45.8946" lon="5.3993">
        <ele>572.8</ele>
        <time>2023-05-27T08:54:50Z</time>
      </trkpt>
      <trkpt lat="45.89457" lon="5.39934">
        <ele>573</ele>
        <time>2023-05-27T08:54:51Z</time>
      </trkpt>
      <trkpt lat="45.89454" lon="5.39938">
        <ele>573.2</ele>
        <time>2023-05-27T08:54:52Z</time>
      </trkpt>
      <trkpt lat="45.89451" lon="5.39941">
        <ele>573.4</ele>
        <time>2023-05-27T08:54:53Z</time>
      </trkpt>
      <trkpt lat="45.89449" lon="5.39944">
        <ele>573.6</ele>
        <time>2023-05-27T08:54:54Z</time>
      </trkpt>
      <trkpt lat="45.89447" lon="5.39945">
        <ele>574.2</ele>
        <time>2023-05-27T08:54:55Z</time>
      </trkpt>
      <trkpt lat="45.89444" lon="5.39946">
        <ele>574.4</ele>
        <time>2023-05-27T08:54:56Z</time>
      </trkpt>
      <trkpt lat="45.89442" lon="5.39948">
        <ele>575</ele>
        <time>2023-05-27T08:54:57Z</time>
      </trkpt>
      <trkpt lat="45.89439" lon="5.3995">
        <ele>575.4</ele>
        <time>2023-05-27T08:54:58Z</time>
      </trkpt>
      <trkpt lat="45.89437" lon="5.39951">
        <ele>575.6</ele>
        <time>2023-05-27T08:54:59Z</time>
      </trkpt>
      <trkpt lat="45.89435" lon="5.39954">
        <ele>576.2</ele>
        <time>2023-05-27T08:55:00Z</time>
      </trkpt>
      <trkpt lat="45.89432" lon="5.39956">
        <ele>576.4</ele>
        <time>2023-05-27T08:55:01Z</time>
      </trkpt>
      <trkpt lat="45.8943" lon="5.39959">
        <ele>577</ele>
        <time>2023-05-27T08:55:02Z</time>
      </trkpt>
      <trkpt lat="45.89428" lon="5.39962">
        <ele>577</ele>
        <time>2023-05-27T08:55:03Z</time>
      </trkpt>
      <trkpt lat="45.89425" lon="5.39965">
        <ele>577.4</ele>
        <time>2023-05-27T08:55:04Z</time>
      </trkpt>
      <trkpt lat="45.89419" lon="5.39969">
        <ele>577.6</ele>
        <time>2023-05-27T08:55:05Z</time>
      </trkpt>
      <trkpt lat="45.89414" lon="5.39975">
        <ele>577.6</ele>
        <time>2023-05-27T08:55:06Z</time>
      </trkpt>
      <trkpt lat="45.89411" lon="5.39979">
        <ele>577.8</ele>
        <time>2023-05-27T08:55:07Z</time>
      </trkpt>
      <trkpt lat="45.89408" lon="5.39983">
        <ele>577.8</ele>
        <time>2023-05-27T08:55:08Z</time>
      </trkpt>
      <trkpt lat="45.89406" lon="5.39988">
        <ele>577.8</ele>
        <time>2023-05-27T08:55:09Z</time>
      </trkpt>
      <trkpt lat="45.89403" lon="5.39993">
        <ele>577.8</ele>
        <time>2023-05-27T08:55:10Z</time>
      </trkpt>
      <trkpt lat="45.894" lon="5.39997">
        <ele>577.8</ele>
        <time>2023-05-27T08:55:11Z</time>
      </trkpt>
      <trkpt lat="45.89397" lon="5.4">
        <ele>577.8</ele>
        <time>2023-05-27T08:55:12Z</time>
      </trkpt>
      <trkpt lat="45.89394" lon="5.40003">
        <ele>577.8</ele>
        <time>2023-05-27T08:55:13Z</time>
      </trkpt>
      <trkpt lat="45.89393" lon="5.40007">
        <ele>578</ele>
        <time>2023-05-27T08:55:14Z</time>
      </trkpt>
      <trkpt lat="45.89392" lon="5.40013">
        <ele>578</ele>
        <time>2023-05-27T08:55:15Z</time>
      </trkpt>
      <trkpt lat="45.89392" lon="5.40018">
        <ele>578.2</ele>
        <time>2023-05-27T08:55:16Z</time>
      </trkpt>
      <trkpt lat="45.8939" lon="5.40024">
        <ele>578.2</ele>
        <time>2023-05-27T08:55:17Z</time>
      </trkpt>
      <trkpt lat="45.89389" lon="5.40029">
        <ele>578.2</ele>
        <time>2023-05-27T08:55:18Z</time>
      </trkpt>
      <trkpt lat="45.89388" lon="5.40034">
        <ele>578.2</ele>
        <time>2023-05-27T08:55:19Z</time>
      </trkpt>
      <trkpt lat="45.89386" lon="5.40037">
        <ele>578.2</ele>
        <time>2023-05-27T08:55:20Z</time>
      </trkpt>
      <trkpt lat="45.89385" lon="5.40039">
        <ele>578.4</ele>
        <time>2023-05-27T08:55:21Z</time>
      </trkpt>
      <trkpt lat="45.89383" lon="5.40041">
        <ele>578.4</ele>
        <time>2023-05-27T08:55:22Z</time>
      </trkpt>
      <trkpt lat="45.89381" lon="5.40043">
        <ele>578.8</ele>
        <time>2023-05-27T08:55:23Z</time>
      </trkpt>
      <trkpt lat="45.89378" lon="5.40045">
        <ele>578.8</ele>
        <time>2023-05-27T08:55:24Z</time>
      </trkpt>
      <trkpt lat="45.89375" lon="5.40046">
        <ele>579</ele>
        <time>2023-05-27T08:55:25Z</time>
      </trkpt>
      <trkpt lat="45.89372" lon="5.40048">
        <ele>579.2</ele>
        <time>2023-05-27T08:55:26Z</time>
      </trkpt>
      <trkpt lat="45.89369" lon="5.4005">
        <ele>579.6</ele>
        <time>2023-05-27T08:55:27Z</time>
      </trkpt>
      <trkpt lat="45.89366" lon="5.40052">
        <ele>579.8</ele>
        <time>2023-05-27T08:55:28Z</time>
      </trkpt>
      <trkpt lat="45.89362" lon="5.40054">
        <ele>579.8</ele>
        <time>2023-05-27T08:55:29Z</time>
      </trkpt>
      <trkpt lat="45.89359" lon="5.40055">
        <ele>580</ele>
        <time>2023-05-27T08:55:30Z</time>
      </trkpt>
      <trkpt lat="45.89356" lon="5.40056">
        <ele>580.2</ele>
        <time>2023-05-27T08:55:31Z</time>
      </trkpt>
      <trkpt lat="45.89353" lon="5.40056">
        <ele>580.4</ele>
        <time>2023-05-27T08:55:32Z</time>
      </trkpt>
      <trkpt lat="45.89349" lon="5.40057">
        <ele>580.6</ele>
        <time>2023-05-27T08:55:33Z</time>
      </trkpt>
      <trkpt lat="45.89344" lon="5.40058">
        <ele>580.6</ele>
        <time>2023-05-27T08:55:34Z</time>
      </trkpt>
      <trkpt lat="45.8934" lon="5.4006">
        <ele>580.8</ele>
        <time>2023-05-27T08:55:35Z</time>
      </trkpt>
      <trkpt lat="45.89336" lon="5.40061">
        <ele>581</ele>
        <time>2023-05-27T08:55:36Z</time>
      </trkpt>
      <trkpt lat="45.89333" lon="5.40061">
        <ele>581.2</ele>
        <time>2023-05-27T08:55:37Z</time>
      </trkpt>
      <trkpt lat="45.8933" lon="5.40062">
        <ele>581.6</ele>
        <time>2023-05-27T08:55:38Z</time>
      </trkpt>
      <trkpt lat="45.89326" lon="5.40062">
        <ele>581.6</ele>
        <time>2023-05-27T08:55:39Z</time>
      </trkpt>
      <trkpt lat="45.89323" lon="5.40063">
        <ele>582</ele>
        <time>2023-05-27T08:55:40Z</time>
      </trkpt>
      <trkpt lat="45.8932" lon="5.40064">
        <ele>582.2</ele>
        <time>2023-05-27T08:55:41Z</time>
      </trkpt>
      <trkpt lat="45.89316" lon="5.40066">
        <ele>582.4</ele>
        <time>2023-05-27T08:55:42Z</time>
      </trkpt>
      <trkpt lat="45.89313" lon="5.40067">
        <ele>582.6</ele>
        <time>2023-05-27T08:55:43Z</time>
      </trkpt>
      <trkpt lat="45.8931" lon="5.40069">
        <ele>582.8</ele>
        <time>2023-05-27T08:55:44Z</time>
      </trkpt>
      <trkpt lat="45.89307" lon="5.4007">
        <ele>583</ele>
        <time>2023-05-27T08:55:45Z</time>
      </trkpt>
      <trkpt lat="45.89304" lon="5.40071">
        <ele>583.2</ele>
        <time>2023-05-27T08:55:46Z</time>
      </trkpt>
      <trkpt lat="45.89301" lon="5.40072">
        <ele>583.8</ele>
        <time>2023-05-27T08:55:47Z</time>
      </trkpt>
      <trkpt lat="45.89298" lon="5.40072">
        <ele>584</ele>
        <time>2023-05-27T08:55:48Z</time>
      </trkpt>
      <trkpt lat="45.89294" lon="5.40073">
        <ele>584.4</ele>
        <time>2023-05-27T08:55:49Z</time>
      </trkpt>
      <trkpt lat="45.89289" lon="5.40072">
        <ele>584.6</ele>
        <time>2023-05-27T08:55:50Z</time>
      </trkpt>
      <trkpt lat="45.89286" lon="5.40073">
        <ele>585</ele>
        <time>2023-05-27T08:55:51Z</time>
      </trkpt>
      <trkpt lat="45.89282" lon="5.40075">
        <ele>585.6</ele>
        <time>2023-05-27T08:55:52Z</time>
      </trkpt>
      <trkpt lat="45.89278" lon="5.40076">
        <ele>585.8</ele>
        <time>2023-05-27T08:55:53Z</time>
      </trkpt>
      <trkpt lat="45.89275" lon="5.40078">
        <ele>586.2</ele>
        <time>2023-05-27T08:55:54Z</time>
      </trkpt>
      <trkpt lat="45.89272" lon="5.40079">
        <ele>586.2</ele>
        <time>2023-05-27T08:55:55Z</time>
      </trkpt>
      <trkpt lat="45.89269" lon="5.4008">
        <ele>586.6</ele>
        <time>2023-05-27T08:55:56Z</time>
      </trkpt>
      <trkpt lat="45.89267" lon="5.40079">
        <ele>586.8</ele>
        <time>2023-05-27T08:55:57Z</time>
      </trkpt>
      <trkpt lat="45.89263" lon="5.40079">
        <ele>587</ele>
        <time>2023-05-27T08:55:58Z</time>
      </trkpt>
      <trkpt lat="45.8926" lon="5.4008">
        <ele>587.4</ele>
        <time>2023-05-27T08:55:59Z</time>
      </trkpt>
      <trkpt lat="45.89257" lon="5.40081">
        <ele>587.6</ele>
        <time>2023-05-27T08:56:00Z</time>
      </trkpt>
      <trkpt lat="45.89253" lon="5.40081">
        <ele>588</ele>
        <time>2023-05-27T08:56:01Z</time>
      </trkpt>
      <trkpt lat="45.89251" lon="5.4008">
        <ele>588.2</ele>
        <time>2023-05-27T08:56:02Z</time>
      </trkpt>
      <trkpt lat="45.89249" lon="5.4008">
        <ele>588.6</ele>
        <time>2023-05-27T08:56:03Z</time>
      </trkpt>
      <trkpt lat="45.89246" lon="5.40079">
        <ele>588.8</ele>
        <time>2023-05-27T08:56:04Z</time>
      </trkpt>
      <trkpt lat="45.89243" lon="5.40078">
        <ele>589.2</ele>
        <time>2023-05-27T08:56:05Z</time>
      </trkpt>
      <trkpt lat="45.8924" lon="5.40078">
        <ele>589.6</ele>
        <time>2023-05-27T08:56:06Z</time>
      </trkpt>
      <trkpt lat="45.89237" lon="5.40077">
        <ele>589.8</ele>
        <time>2023-05-27T08:56:07Z</time>
      </trkpt>
      <trkpt lat="45.89233" lon="5.40076">
        <ele>590.2</ele>
        <time>2023-05-27T08:56:08Z</time>
      </trkpt>
      <trkpt lat="45.89231" lon="5.40076">
        <ele>590.4</ele>
        <time>2023-05-27T08:56:09Z</time>
      </trkpt>
      <trkpt lat="45.89228" lon="5.40075">
        <ele>590.8</ele>
        <time>2023-05-27T08:56:10Z</time>
      </trkpt>
      <trkpt lat="45.89225" lon="5.40073">
        <ele>591</ele>
        <time>2023-05-27T08:56:11Z</time>
      </trkpt>
      <trkpt lat="45.89222" lon="5.40073">
        <ele>591</ele>
        <time>2023-05-27T08:56:12Z</time>
      </trkpt>
      <trkpt lat="45.89219" lon="5.40071">
        <ele>591.4</ele>
        <time>2023-05-27T08:56:13Z</time>
      </trkpt>
      <trkpt lat="45.89216" lon="5.4007">
        <ele>591.6</ele>
        <time>2023-05-27T08:56:14Z</time>
      </trkpt>
      <trkpt lat="45.89213" lon="5.40068">
        <ele>592</ele>
        <time>2023-05-27T08:56:15Z</time>
      </trkpt>
      <trkpt lat="45.8921" lon="5.40067">
        <ele>592.2</ele>
        <time>2023-05-27T08:56:16Z</time>
      </trkpt>
      <trkpt lat="45.89207" lon="5.40065">
        <ele>592.4</ele>
        <time>2023-05-27T08:56:17Z</time>
      </trkpt>
      <trkpt lat="45.89204" lon="5.40063">
        <ele>592.6</ele>
        <time>2023-05-27T08:56:18Z</time>
      </trkpt>
      <trkpt lat="45.89202" lon="5.40061">
        <ele>593.2</ele>
        <time>2023-05-27T08:56:19Z</time>
      </trkpt>
      <trkpt lat="45.892" lon="5.40059">
        <ele>593.6</ele>
        <time>2023-05-27T08:56:20Z</time>
      </trkpt>
      <trkpt lat="45.89197" lon="5.40057">
        <ele>593.8</ele>
        <time>2023-05-27T08:56:21Z</time>
      </trkpt>
      <trkpt lat="45.89192" lon="5.40055">
        <ele>594.2</ele>
        <time>2023-05-27T08:56:22Z</time>
      </trkpt>
      <trkpt lat="45.89188" lon="5.40053">
        <ele>594.2</ele>
        <time>2023-05-27T08:56:23Z</time>
      </trkpt>
      <trkpt lat="45.89184" lon="5.40051">
        <ele>594.8</ele>
        <time>2023-05-27T08:56:24Z</time>
      </trkpt>
      <trkpt lat="45.89181" lon="5.40048">
        <ele>595.2</ele>
        <time>2023-05-27T08:56:25Z</time>
      </trkpt>
      <trkpt lat="45.89178" lon="5.40045">
        <ele>595.8</ele>
        <time>2023-05-27T08:56:26Z</time>
      </trkpt>
      <trkpt lat="45.89174" lon="5.40043">
        <ele>596.4</ele>
        <time>2023-05-27T08:56:27Z</time>
      </trkpt>
      <trkpt lat="45.8917" lon="5.40041">
        <ele>596.6</ele>
        <time>2023-05-27T08:56:28Z</time>
      </trkpt>
      <trkpt lat="45.89167" lon="5.40039">
        <ele>597</ele>
        <time>2023-05-27T08:56:29Z</time>
      </trkpt>
      <trkpt lat="45.89163" lon="5.40037">
        <ele>597</ele>
        <time>2023-05-27T08:56:30Z</time>
      </trkpt>
      <trkpt lat="45.8916" lon="5.40034">
        <ele>597.4</ele>
        <time>2023-05-27T08:56:31Z</time>
      </trkpt>
      <trkpt lat="45.89157" lon="5.40031">
        <ele>597.6</ele>
        <time>2023-05-27T08:56:32Z</time>
      </trkpt>
      <trkpt lat="45.89152" lon="5.40029">
        <ele>597.8</ele>
        <time>2023-05-27T08:56:33Z</time>
      </trkpt>
      <trkpt lat="45.89148" lon="5.40026">
        <ele>598</ele>
        <time>2023-05-27T08:56:34Z</time>
      </trkpt>
      <trkpt lat="45.89144" lon="5.40023">
        <ele>598.2</ele>
        <time>2023-05-27T08:56:35Z</time>
      </trkpt>
      <trkpt lat="45.8914" lon="5.40021">
        <ele>598.4</ele>
        <time>2023-05-27T08:56:36Z</time>
      </trkpt>
      <trkpt lat="45.89136" lon="5.40019">
        <ele>598.6</ele>
        <time>2023-05-27T08:56:37Z</time>
      </trkpt>
      <trkpt lat="45.89133" lon="5.40017">
        <ele>598.8</ele>
        <time>2023-05-27T08:56:38Z</time>
      </trkpt>
      <trkpt lat="45.8913" lon="5.40014">
        <ele>598.8</ele>
        <time>2023-05-27T08:56:39Z</time>
      </trkpt>
      <trkpt lat="45.89127" lon="5.40012">
        <ele>599</ele>
        <time>2023-05-27T08:56:40Z</time>
      </trkpt>
      <trkpt lat="45.89124" lon="5.40009">
        <ele>599.2</ele>
        <time>2023-05-27T08:56:41Z</time>
      </trkpt>
      <trkpt lat="45.89123" lon="5.40006">
        <ele>599.2</ele>
        <time>2023-05-27T08:56:42Z</time>
      </trkpt>
      <trkpt lat="45.89121" lon="5.40003">
        <ele>599.4</ele>
        <time>2023-05-27T08:56:43Z</time>
      </trkpt>
      <trkpt lat="45.89119" lon="5.40001">
        <ele>599.4</ele>
        <time>2023-05-27T08:56:44Z</time>
      </trkpt>
      <trkpt lat="45.89116" lon="5.39999">
        <ele>599.8</ele>
        <time>2023-05-27T08:56:45Z</time>
      </trkpt>
      <trkpt lat="45.89113" lon="5.39997">
        <ele>599.8</ele>
        <time>2023-05-27T08:56:46Z</time>
      </trkpt>
      <trkpt lat="45.8911" lon="5.39994">
        <ele>599.8</ele>
        <time>2023-05-27T08:56:47Z</time>
      </trkpt>
      <trkpt lat="45.89107" lon="5.39991">
        <ele>600</ele>
        <time>2023-05-27T08:56:48Z</time>
      </trkpt>
      <trkpt lat="45.89105" lon="5.39988">
        <ele>600</ele>
        <time>2023-05-27T08:56:49Z</time>
      </trkpt>
      <trkpt lat="45.89102" lon="5.39984">
        <ele>600.2</ele>
        <time>2023-05-27T08:56:50Z</time>
      </trkpt>
      <trkpt lat="45.89099" lon="5.39981">
        <ele>600.4</ele>
        <time>2023-05-27T08:56:51Z</time>
      </trkpt>
      <trkpt lat="45.89096" lon="5.39978">
        <ele>600.6</ele>
        <time>2023-05-27T08:56:52Z</time>
      </trkpt>
      <trkpt lat="45.89093" lon="5.39976">
        <ele>600.8</ele>
        <time>2023-05-27T08:56:53Z</time>
      </trkpt>
      <trkpt lat="45.8909" lon="5.39974">
        <ele>601</ele>
        <time>2023-05-27T08:56:54Z</time>
      </trkpt>
      <trkpt lat="45.89088" lon="5.39971">
        <ele>601.2</ele>
        <time>2023-05-27T08:56:55Z</time>
      </trkpt>
      <trkpt lat="45.89086" lon="5.39968">
        <ele>601.4</ele>
        <time>2023-05-27T08:56:56Z</time>
      </trkpt>
      <trkpt lat="45.89083" lon="5.39965">
        <ele>602.2</ele>
        <time>2023-05-27T08:56:57Z</time>
      </trkpt>
      <trkpt lat="45.8908" lon="5.39962">
        <ele>602.4</ele>
        <time>2023-05-27T08:56:58Z</time>
      </trkpt>
      <trkpt lat="45.89077" lon="5.3996">
        <ele>603</ele>
        <time>2023-05-27T08:56:59Z</time>
      </trkpt>
      <trkpt lat="45.89074" lon="5.39958">
        <ele>603.2</ele>
        <time>2023-05-27T08:57:00Z</time>
      </trkpt>
      <trkpt lat="45.89071" lon="5.39955">
        <ele>603.6</ele>
        <time>2023-05-27T08:57:01Z</time>
      </trkpt>
      <trkpt lat="45.89068" lon="5.39953">
        <ele>604</ele>
        <time>2023-05-27T08:57:02Z</time>
      </trkpt>
      <trkpt lat="45.89065" lon="5.39951">
        <ele>604</ele>
        <time>2023-05-27T08:57:03Z</time>
      </trkpt>
      <trkpt lat="45.89063" lon="5.3995">
        <ele>604.2</ele>
        <time>2023-05-27T08:57:04Z</time>
      </trkpt>
      <trkpt lat="45.8906" lon="5.39948">
        <ele>604.4</ele>
        <time>2023-05-27T08:57:05Z</time>
      </trkpt>
      <trkpt lat="45.89057" lon="5.39947">
        <ele>604.8</ele>
        <time>2023-05-27T08:57:06Z</time>
      </trkpt>
      <trkpt lat="45.89054" lon="5.39946">
        <ele>604.8</ele>
        <time>2023-05-27T08:57:07Z</time>
      </trkpt>
      <trkpt lat="45.8905" lon="5.39945">
        <ele>605</ele>
        <time>2023-05-27T08:57:08Z</time>
      </trkpt>
      <trkpt lat="45.89048" lon="5.39944">
        <ele>605.4</ele>
        <time>2023-05-27T08:57:09Z</time>
      </trkpt>
      <trkpt lat="45.89045" lon="5.39943">
        <ele>605.8</ele>
        <time>2023-05-27T08:57:10Z</time>
      </trkpt>
      <trkpt lat="45.89042" lon="5.39943">
        <ele>606.2</ele>
        <time>2023-05-27T08:57:11Z</time>
      </trkpt>
      <trkpt lat="45.89039" lon="5.39942">
        <ele>606.2</ele>
        <time>2023-05-27T08:57:12Z</time>
      </trkpt>
      <trkpt lat="45.89036" lon="5.3994">
        <ele>606.6</ele>
        <time>2023-05-27T08:57:13Z</time>
      </trkpt>
      <trkpt lat="45.89034" lon="5.39939">
        <ele>606.6</ele>
        <time>2023-05-27T08:57:14Z</time>
      </trkpt>
      <trkpt lat="45.8903" lon="5.39936">
        <ele>607.2</ele>
        <time>2023-05-27T08:57:15Z</time>
      </trkpt>
      <trkpt lat="45.89027" lon="5.39935">
        <ele>607.6</ele>
        <time>2023-05-27T08:57:16Z</time>
      </trkpt>
      <trkpt lat="45.89024" lon="5.39934">
        <ele>607.8</ele>
        <time>2023-05-27T08:57:17Z</time>
      </trkpt>
      <trkpt lat="45.89021" lon="5.39932">
        <ele>608.2</ele>
        <time>2023-05-27T08:57:18Z</time>
      </trkpt>
      <trkpt lat="45.89017" lon="5.3993">
        <ele>608.4</ele>
        <time>2023-05-27T08:57:19Z</time>
      </trkpt>
      <trkpt lat="45.89014" lon="5.39929">
        <ele>608.6</ele>
        <time>2023-05-27T08:57:20Z</time>
      </trkpt>
      <trkpt lat="45.89011" lon="5.39928">
        <ele>608.8</ele>
        <time>2023-05-27T08:57:21Z</time>
      </trkpt>
      <trkpt lat="45.89009" lon="5.39926">
        <ele>609</ele>
        <time>2023-05-27T08:57:22Z</time>
      </trkpt>
      <trkpt lat="45.89006" lon="5.39925">
        <ele>609.2</ele>
        <time>2023-05-27T08:57:23Z</time>
      </trkpt>
      <trkpt lat="45.89002" lon="5.39924">
        <ele>609.2</ele>
        <time>2023-05-27T08:57:24Z</time>
      </trkpt>
      <trkpt lat="45.88999" lon="5.39924">
        <ele>609.4</ele>
        <time>2023-05-27T08:57:25Z</time>
      </trkpt>
      <trkpt lat="45.88994" lon="5.39924">
        <ele>609.6</ele>
        <time>2023-05-27T08:57:26Z</time>
      </trkpt>
      <trkpt lat="45.88991" lon="5.39924">
        <ele>609.8</ele>
        <time>2023-05-27T08:57:27Z</time>
      </trkpt>
      <trkpt lat="45.88988" lon="5.39925">
        <ele>610</ele>
        <time>2023-05-27T08:57:28Z</time>
      </trkpt>
      <trkpt lat="45.88985" lon="5.39927">
        <ele>610.2</ele>
        <time>2023-05-27T08:57:29Z</time>
      </trkpt>
      <trkpt lat="45.88981" lon="5.39929">
        <ele>610.4</ele>
        <time>2023-05-27T08:57:30Z</time>
      </trkpt>
      <trkpt lat="45.88978" lon="5.39931">
        <ele>610.4</ele>
        <time>2023-05-27T08:57:31Z</time>
      </trkpt>
      <trkpt lat="45.88976" lon="5.39933">
        <ele>610.6</ele>
        <time>2023-05-27T08:57:32Z</time>
      </trkpt>
      <trkpt lat="45.88972" lon="5.39936">
        <ele>610.6</ele>
        <time>2023-05-27T08:57:33Z</time>
      </trkpt>
      <trkpt lat="45.88969" lon="5.39938">
        <ele>610.6</ele>
        <time>2023-05-27T08:57:34Z</time>
      </trkpt>
      <trkpt lat="45.88967" lon="5.39941">
        <ele>610.6</ele>
        <time>2023-05-27T08:57:35Z</time>
      </trkpt>
      <trkpt lat="45.88965" lon="5.39944">
        <ele>610.8</ele>
        <time>2023-05-27T08:57:36Z</time>
      </trkpt>
      <trkpt lat="45.88962" lon="5.39947">
        <ele>610.8</ele>
        <time>2023-05-27T08:57:37Z</time>
      </trkpt>
      <trkpt lat="45.8896" lon="5.3995">
        <ele>610.8</ele>
        <time>2023-05-27T08:57:38Z</time>
      </trkpt>
      <trkpt lat="45.88957" lon="5.39952">
        <ele>610.8</ele>
        <time>2023-05-27T08:57:39Z</time>
      </trkpt>
      <trkpt lat="45.88953" lon="5.39954">
        <ele>610.8</ele>
        <time>2023-05-27T08:57:40Z</time>
      </trkpt>
      <trkpt lat="45.88948" lon="5.39957">
        <ele>611</ele>
        <time>2023-05-27T08:57:41Z</time>
      </trkpt>
      <trkpt lat="45.88943" lon="5.3996">
        <ele>611</ele>
        <time>2023-05-27T08:57:42Z</time>
      </trkpt>
      <trkpt lat="45.88938" lon="5.39962">
        <ele>611</ele>
        <time>2023-05-27T08:57:43Z</time>
      </trkpt>
      <trkpt lat="45.88932" lon="5.39964">
        <ele>611</ele>
        <time>2023-05-27T08:57:44Z</time>
      </trkpt>
      <trkpt lat="45.88926" lon="5.39967">
        <ele>611</ele>
        <time>2023-05-27T08:57:45Z</time>
      </trkpt>
      <trkpt lat="45.88919" lon="5.39971">
        <ele>610.6</ele>
        <time>2023-05-27T08:57:46Z</time>
      </trkpt>
      <trkpt lat="45.88914" lon="5.39977">
        <ele>610.6</ele>
        <time>2023-05-27T08:57:47Z</time>
      </trkpt>
      <trkpt lat="45.88908" lon="5.39984">
        <ele>610.2</ele>
        <time>2023-05-27T08:57:48Z</time>
      </trkpt>
      <trkpt lat="45.88905" lon="5.39992">
        <ele>610</ele>
        <time>2023-05-27T08:57:49Z</time>
      </trkpt>
      <trkpt lat="45.88901" lon="5.4">
        <ele>609.8</ele>
        <time>2023-05-27T08:57:50Z</time>
      </trkpt>
      <trkpt lat="45.88898" lon="5.40009">
        <ele>609.4</ele>
        <time>2023-05-27T08:57:51Z</time>
      </trkpt>
      <trkpt lat="45.88894" lon="5.40019">
        <ele>609.2</ele>
        <time>2023-05-27T08:57:52Z</time>
      </trkpt>
      <trkpt lat="45.8889" lon="5.40028">
        <ele>609</ele>
        <time>2023-05-27T08:57:53Z</time>
      </trkpt>
      <trkpt lat="45.88886" lon="5.40038">
        <ele>608.8</ele>
        <time>2023-05-27T08:57:54Z</time>
      </trkpt>
      <trkpt lat="45.88881" lon="5.40047">
        <ele>608.8</ele>
        <time>2023-05-27T08:57:55Z</time>
      </trkpt>
      <trkpt lat="45.88876" lon="5.40056">
        <ele>608.8</ele>
        <time>2023-05-27T08:57:56Z</time>
      </trkpt>
      <trkpt lat="45.88871" lon="5.40064">
        <ele>608.6</ele>
        <time>2023-05-27T08:57:57Z</time>
      </trkpt>
      <trkpt lat="45.88866" lon="5.40072">
        <ele>608.6</ele>
        <time>2023-05-27T08:57:58Z</time>
      </trkpt>
      <trkpt lat="45.8886" lon="5.4008">
        <ele>608.4</ele>
        <time>2023-05-27T08:57:59Z</time>
      </trkpt>
      <trkpt lat="45.88855" lon="5.40088">
        <ele>608</ele>
        <time>2023-05-27T08:58:00Z</time>
      </trkpt>
      <trkpt lat="45.88849" lon="5.40096">
        <ele>608</ele>
        <time>2023-05-27T08:58:01Z</time>
      </trkpt>
      <trkpt lat="45.88843" lon="5.40103">
        <ele>607.8</ele>
        <time>2023-05-27T08:58:02Z</time>
      </trkpt>
      <trkpt lat="45.88838" lon="5.40112">
        <ele>607.6</ele>
        <time>2023-05-27T08:58:03Z</time>
      </trkpt>
      <trkpt lat="45.88832" lon="5.4012">
        <ele>607.6</ele>
        <time>2023-05-27T08:58:04Z</time>
      </trkpt>
      <trkpt lat="45.88826" lon="5.40129">
        <ele>607.6</ele>
        <time>2023-05-27T08:58:05Z</time>
      </trkpt>
      <trkpt lat="45.8882" lon="5.40136">
        <ele>607.6</ele>
        <time>2023-05-27T08:58:06Z</time>
      </trkpt>
      <trkpt lat="45.88813" lon="5.40142">
        <ele>607.2</ele>
        <time>2023-05-27T08:58:07Z</time>
      </trkpt>
      <trkpt lat="45.88805" lon="5.40148">
        <ele>607</ele>
        <time>2023-05-27T08:58:08Z</time>
      </trkpt>
      <trkpt lat="45.88797" lon="5.40153">
        <ele>606.8</ele>
        <time>2023-05-27T08:58:09Z</time>
      </trkpt>
      <trkpt lat="45.88789" lon="5.40158">
        <ele>606.8</ele>
        <time>2023-05-27T08:58:10Z</time>
      </trkpt>
      <trkpt lat="45.8878" lon="5.40162">
        <ele>606.6</ele>
        <time>2023-05-27T08:58:11Z</time>
      </trkpt>
      <trkpt lat="45.88771" lon="5.40165">
        <ele>606.2</ele>
        <time>2023-05-27T08:58:12Z</time>
      </trkpt>
      <trkpt lat="45.88761" lon="5.40167">
        <ele>605.8</ele>
        <time>2023-05-27T08:58:13Z</time>
      </trkpt>
      <trkpt lat="45.88752" lon="5.40168">
        <ele>605.4</ele>
        <time>2023-05-27T08:58:14Z</time>
      </trkpt>
      <trkpt lat="45.88742" lon="5.40169">
        <ele>605</ele>
        <time>2023-05-27T08:58:15Z</time>
      </trkpt>
      <trkpt lat="45.88732" lon="5.4017">
        <ele>604.6</ele>
        <time>2023-05-27T08:58:16Z</time>
      </trkpt>
      <trkpt lat="45.88722" lon="5.40171">
        <ele>604.4</ele>
        <time>2023-05-27T08:58:17Z</time>
      </trkpt>
      <trkpt lat="45.88712" lon="5.40174">
        <ele>604.2</ele>
        <time>2023-05-27T08:58:18Z</time>
      </trkpt>
      <trkpt lat="45.88704" lon="5.40181">
        <ele>604</ele>
        <time>2023-05-27T08:58:19Z</time>
      </trkpt>
      <trkpt lat="45.88698" lon="5.40191">
        <ele>603.8</ele>
        <time>2023-05-27T08:58:20Z</time>
      </trkpt>
      <trkpt lat="45.88695" lon="5.40202">
        <ele>603.4</ele>
        <time>2023-05-27T08:58:21Z</time>
      </trkpt>
      <trkpt lat="45.88695" lon="5.40215">
        <ele>603.2</ele>
        <time>2023-05-27T08:58:22Z</time>
      </trkpt>
      <trkpt lat="45.88696" lon="5.40226">
        <ele>602.4</ele>
        <time>2023-05-27T08:58:23Z</time>
      </trkpt>
      <trkpt lat="45.88698" lon="5.40236">
        <ele>602.2</ele>
        <time>2023-05-27T08:58:24Z</time>
      </trkpt>
      <trkpt lat="45.88701" lon="5.40246">
        <ele>601.8</ele>
        <time>2023-05-27T08:58:25Z</time>
      </trkpt>
      <trkpt lat="45.88704" lon="5.40257">
        <ele>601.4</ele>
        <time>2023-05-27T08:58:26Z</time>
      </trkpt>
      <trkpt lat="45.88707" lon="5.40267">
        <ele>601.2</ele>
        <time>2023-05-27T08:58:27Z</time>
      </trkpt>
      <trkpt lat="45.88711" lon="5.40276">
        <ele>601</ele>
        <time>2023-05-27T08:58:28Z</time>
      </trkpt>
      <trkpt lat="45.88713" lon="5.40287">
        <ele>600.8</ele>
        <time>2023-05-27T08:58:29Z</time>
      </trkpt>
      <trkpt lat="45.88712" lon="5.40298">
        <ele>600.8</ele>
        <time>2023-05-27T08:58:30Z</time>
      </trkpt>
      <trkpt lat="45.8871" lon="5.40309">
        <ele>600.6</ele>
        <time>2023-05-27T08:58:31Z</time>
      </trkpt>
      <trkpt lat="45.88707" lon="5.40318">
        <ele>600.2</ele>
        <time>2023-05-27T08:58:32Z</time>
      </trkpt>
      <trkpt lat="45.88702" lon="5.40326">
        <ele>600.2</ele>
        <time>2023-05-27T08:58:33Z</time>
      </trkpt>
      <trkpt lat="45.88697" lon="5.40334">
        <ele>600</ele>
        <time>2023-05-27T08:58:34Z</time>
      </trkpt>
      <trkpt lat="45.8869" lon="5.40341">
        <ele>599.6</ele>
        <time>2023-05-27T08:58:35Z</time>
      </trkpt>
      <trkpt lat="45.88682" lon="5.40345">
        <ele>599.4</ele>
        <time>2023-05-27T08:58:36Z</time>
      </trkpt>
      <trkpt lat="45.88674" lon="5.40349">
        <ele>598.8</ele>
        <time>2023-05-27T08:58:37Z</time>
      </trkpt>
      <trkpt lat="45.88666" lon="5.40353">
        <ele>598.6</ele>
        <time>2023-05-27T08:58:38Z</time>
      </trkpt>
      <trkpt lat="45.88649" lon="5.40362">
        <ele>597.8</ele>
        <time>2023-05-27T08:58:40Z</time>
      </trkpt>
      <trkpt lat="45.88641" lon="5.40368">
        <ele>597.6</ele>
        <time>2023-05-27T08:58:41Z</time>
      </trkpt>
      <trkpt lat="45.88632" lon="5.40373">
        <ele>597.2</ele>
        <time>2023-05-27T08:58:42Z</time>
      </trkpt>
      <trkpt lat="45.88615" lon="5.4038">
        <ele>596.8</ele>
        <time>2023-05-27T08:58:44Z</time>
      </trkpt>
      <trkpt lat="45.88598" lon="5.40383">
        <ele>596.6</ele>
        <time>2023-05-27T08:58:46Z</time>
      </trkpt>
      <trkpt lat="45.88589" lon="5.40385">
        <ele>595.8</ele>
        <time>2023-05-27T08:58:47Z</time>
      </trkpt>
      <trkpt lat="45.8858" lon="5.40386">
        <ele>595.6</ele>
        <time>2023-05-27T08:58:48Z</time>
      </trkpt>
      <trkpt lat="45.88571" lon="5.40389">
        <ele>595</ele>
        <time>2023-05-27T08:58:49Z</time>
      </trkpt>
      <trkpt lat="45.88562" lon="5.40393">
        <ele>594.8</ele>
        <time>2023-05-27T08:58:50Z</time>
      </trkpt>
      <trkpt lat="45.88556" lon="5.404">
        <ele>594.4</ele>
        <time>2023-05-27T08:58:51Z</time>
      </trkpt>
      <trkpt lat="45.88551" lon="5.4041">
        <ele>594.2</ele>
        <time>2023-05-27T08:58:52Z</time>
      </trkpt>
      <trkpt lat="45.8855" lon="5.40421">
        <ele>593.8</ele>
        <time>2023-05-27T08:58:53Z</time>
      </trkpt>
      <trkpt lat="45.88551" lon="5.40431">
        <ele>593.2</ele>
        <time>2023-05-27T08:58:54Z</time>
      </trkpt>
      <trkpt lat="45.88553" lon="5.4044">
        <ele>592.8</ele>
        <time>2023-05-27T08:58:55Z</time>
      </trkpt>
      <trkpt lat="45.88556" lon="5.40449">
        <ele>592.4</ele>
        <time>2023-05-27T08:58:56Z</time>
      </trkpt>
      <trkpt lat="45.88559" lon="5.40458">
        <ele>592.4</ele>
        <time>2023-05-27T08:58:57Z</time>
      </trkpt>
      <trkpt lat="45.88562" lon="5.40468">
        <ele>592</ele>
        <time>2023-05-27T08:58:58Z</time>
      </trkpt>
      <trkpt lat="45.88564" lon="5.40477">
        <ele>592</ele>
        <time>2023-05-27T08:58:59Z</time>
      </trkpt>
      <trkpt lat="45.88567" lon="5.40486">
        <ele>591.8</ele>
        <time>2023-05-27T08:59:00Z</time>
      </trkpt>
      <trkpt lat="45.8857" lon="5.40497">
        <ele>591.8</ele>
        <time>2023-05-27T08:59:01Z</time>
      </trkpt>
      <trkpt lat="45.88573" lon="5.40504">
        <ele>591.8</ele>
        <time>2023-05-27T08:59:02Z</time>
      </trkpt>
      <trkpt lat="45.88575" lon="5.40512">
        <ele>591.8</ele>
        <time>2023-05-27T08:59:03Z</time>
      </trkpt>
      <trkpt lat="45.88578" lon="5.4052">
        <ele>591.8</ele>
        <time>2023-05-27T08:59:04Z</time>
      </trkpt>
      <trkpt lat="45.8858" lon="5.40528">
        <ele>591.8</ele>
        <time>2023-05-27T08:59:05Z</time>
      </trkpt>
      <trkpt lat="45.88583" lon="5.40535">
        <ele>592</ele>
        <time>2023-05-27T08:59:06Z</time>
      </trkpt>
      <trkpt lat="45.88586" lon="5.40541">
        <ele>592.2</ele>
        <time>2023-05-27T08:59:07Z</time>
      </trkpt>
      <trkpt lat="45.88591" lon="5.40545">
        <ele>592.2</ele>
        <time>2023-05-27T08:59:08Z</time>
      </trkpt>
      <trkpt lat="45.88596" lon="5.40547">
        <ele>592.2</ele>
        <time>2023-05-27T08:59:09Z</time>
      </trkpt>
      <trkpt lat="45.88601" lon="5.40546">
        <ele>592.2</ele>
        <time>2023-05-27T08:59:10Z</time>
      </trkpt>
      <trkpt lat="45.88606" lon="5.40541">
        <ele>592.2</ele>
        <time>2023-05-27T08:59:11Z</time>
      </trkpt>
      <trkpt lat="45.88609" lon="5.40536">
        <ele>592.2</ele>
        <time>2023-05-27T08:59:12Z</time>
      </trkpt>
      <trkpt lat="45.88611" lon="5.4053">
        <ele>592.2</ele>
        <time>2023-05-27T08:59:13Z</time>
      </trkpt>
      <trkpt lat="45.88614" lon="5.40525">
        <ele>592.2</ele>
        <time>2023-05-27T08:59:14Z</time>
      </trkpt>
      <trkpt lat="45.88617" lon="5.40521">
        <ele>592.2</ele>
        <time>2023-05-27T08:59:15Z</time>
      </trkpt>
      <trkpt lat="45.88619" lon="5.40516">
        <ele>592.2</ele>
        <time>2023-05-27T08:59:16Z</time>
      </trkpt>
      <trkpt lat="45.88622" lon="5.40512">
        <ele>592.2</ele>
        <time>2023-05-27T08:59:17Z</time>
      </trkpt>
      <trkpt lat="45.88625" lon="5.40509">
        <ele>592.2</ele>
        <time>2023-05-27T08:59:18Z</time>
      </trkpt>
      <trkpt lat="45.88629" lon="5.40507">
        <ele>592.2</ele>
        <time>2023-05-27T08:59:19Z</time>
      </trkpt>
      <trkpt lat="45.88632" lon="5.40505">
        <ele>592.2</ele>
        <time>2023-05-27T08:59:20Z</time>
      </trkpt>
      <trkpt lat="45.88636" lon="5.40504">
        <ele>592.2</ele>
        <time>2023-05-27T08:59:21Z</time>
      </trkpt>
      <trkpt lat="45.8864" lon="5.40504">
        <ele>592.2</ele>
        <time>2023-05-27T08:59:22Z</time>
      </trkpt>
      <trkpt lat="45.88643" lon="5.40503">
        <ele>592.2</ele>
        <time>2023-05-27T08:59:23Z</time>
      </trkpt>
      <trkpt lat="45.88646" lon="5.40503">
        <ele>592.2</ele>
        <time>2023-05-27T08:59:24Z</time>
      </trkpt>
      <trkpt lat="45.88649" lon="5.40504">
        <ele>592.4</ele>
        <time>2023-05-27T08:59:25Z</time>
      </trkpt>
      <trkpt lat="45.88653" lon="5.40506">
        <ele>592.4</ele>
        <time>2023-05-27T08:59:26Z</time>
      </trkpt>
      <trkpt lat="45.88656" lon="5.40507">
        <ele>592.6</ele>
        <time>2023-05-27T08:59:27Z</time>
      </trkpt>
      <trkpt lat="45.88659" lon="5.40509">
        <ele>592.8</ele>
        <time>2023-05-27T08:59:28Z</time>
      </trkpt>
      <trkpt lat="45.88662" lon="5.4051">
        <ele>592.8</ele>
        <time>2023-05-27T08:59:29Z</time>
      </trkpt>
      <trkpt lat="45.88665" lon="5.40512">
        <ele>592.8</ele>
        <time>2023-05-27T08:59:30Z</time>
      </trkpt>
      <trkpt lat="45.88668" lon="5.40512">
        <ele>593</ele>
        <time>2023-05-27T08:59:31Z</time>
      </trkpt>
      <trkpt lat="45.88672" lon="5.40513">
        <ele>593.2</ele>
        <time>2023-05-27T08:59:32Z</time>
      </trkpt>
      <trkpt lat="45.88675" lon="5.40513">
        <ele>593.2</ele>
        <time>2023-05-27T08:59:33Z</time>
      </trkpt>
      <trkpt lat="45.88678" lon="5.40513">
        <ele>593.4</ele>
        <time>2023-05-27T08:59:34Z</time>
      </trkpt>
      <trkpt lat="45.88681" lon="5.40515">
        <ele>593.6</ele>
        <time>2023-05-27T08:59:35Z</time>
      </trkpt>
      <trkpt lat="45.88684" lon="5.40517">
        <ele>593.6</ele>
        <time>2023-05-27T08:59:36Z</time>
      </trkpt>
      <trkpt lat="45.88688" lon="5.4052">
        <ele>593.8</ele>
        <time>2023-05-27T08:59:37Z</time>
      </trkpt>
      <trkpt lat="45.88691" lon="5.40523">
        <ele>594.2</ele>
        <time>2023-05-27T08:59:38Z</time>
      </trkpt>
      <trkpt lat="45.88694" lon="5.40525">
        <ele>594.2</ele>
        <time>2023-05-27T08:59:39Z</time>
      </trkpt>
      <trkpt lat="45.88697" lon="5.40528">
        <ele>594.4</ele>
        <time>2023-05-27T08:59:40Z</time>
      </trkpt>
      <trkpt lat="45.887" lon="5.40531">
        <ele>594.6</ele>
        <time>2023-05-27T08:59:41Z</time>
      </trkpt>
      <trkpt lat="45.88703" lon="5.40534">
        <ele>594.8</ele>
        <time>2023-05-27T08:59:42Z</time>
      </trkpt>
      <trkpt lat="45.88706" lon="5.40537">
        <ele>595</ele>
        <time>2023-05-27T08:59:43Z</time>
      </trkpt>
      <trkpt lat="45.88709" lon="5.4054">
        <ele>595.2</ele>
        <time>2023-05-27T08:59:44Z</time>
      </trkpt>
      <trkpt lat="45.88711" lon="5.40544">
        <ele>595.4</ele>
        <time>2023-05-27T08:59:45Z</time>
      </trkpt>
      <trkpt lat="45.88714" lon="5.40547">
        <ele>595.4</ele>
        <time>2023-05-27T08:59:46Z</time>
      </trkpt>
      <trkpt lat="45.88716" lon="5.40551">
        <ele>595.6</ele>
        <time>2023-05-27T08:59:47Z</time>
      </trkpt>
      <trkpt lat="45.88718" lon="5.40557">
        <ele>595.6</ele>
        <time>2023-05-27T08:59:48Z</time>
      </trkpt>
      <trkpt lat="45.8872" lon="5.40562">
        <ele>595.8</ele>
        <time>2023-05-27T08:59:49Z</time>
      </trkpt>
      <trkpt lat="45.88722" lon="5.40566">
        <ele>595.8</ele>
        <time>2023-05-27T08:59:50Z</time>
      </trkpt>
      <trkpt lat="45.88723" lon="5.40571">
        <ele>596</ele>
        <time>2023-05-27T08:59:51Z</time>
      </trkpt>
      <trkpt lat="45.88724" lon="5.40576">
        <ele>596</ele>
        <time>2023-05-27T08:59:52Z</time>
      </trkpt>
      <trkpt lat="45.88724" lon="5.4058">
        <ele>596</ele>
        <time>2023-05-27T08:59:53Z</time>
      </trkpt>
      <trkpt lat="45.88725" lon="5.40585">
        <ele>596</ele>
        <time>2023-05-27T08:59:54Z</time>
      </trkpt>
      <trkpt lat="45.88725" lon="5.4059">
        <ele>596.2</ele>
        <time>2023-05-27T08:59:55Z</time>
      </trkpt>
      <trkpt lat="45.88725" lon="5.40595">
        <ele>596.4</ele>
        <time>2023-05-27T08:59:56Z</time>
      </trkpt>
      <trkpt lat="45.88725" lon="5.406">
        <ele>596.6</ele>
        <time>2023-05-27T08:59:57Z</time>
      </trkpt>
      <trkpt lat="45.88725" lon="5.40605">
        <ele>596.6</ele>
        <time>2023-05-27T08:59:58Z</time>
      </trkpt>
      <trkpt lat="45.88724" lon="5.40609">
        <ele>596.6</ele>
        <time>2023-05-27T08:59:59Z</time>
      </trkpt>
      <trkpt lat="45.88722" lon="5.40613">
        <ele>596.6</ele>
        <time>2023-05-27T09:00:00Z</time>
      </trkpt>
      <trkpt lat="45.8872" lon="5.40617">
        <ele>596.8</ele>
        <time>2023-05-27T09:00:01Z</time>
      </trkpt>
      <trkpt lat="45.88719" lon="5.40619">
        <ele>596.8</ele>
        <time>2023-05-27T09:00:02Z</time>
      </trkpt>
      <trkpt lat="45.88716" lon="5.40622">
        <ele>597</ele>
        <time>2023-05-27T09:00:03Z</time>
      </trkpt>
      <trkpt lat="45.88714" lon="5.40625">
        <ele>597.2</ele>
        <time>2023-05-27T09:00:04Z</time>
      </trkpt>
      <trkpt lat="45.88711" lon="5.40629">
        <ele>597.4</ele>
        <time>2023-05-27T09:00:05Z</time>
      </trkpt>
      <trkpt lat="45.88709" lon="5.40632">
        <ele>597.6</ele>
        <time>2023-05-27T09:00:06Z</time>
      </trkpt>
      <trkpt lat="45.88707" lon="5.40635">
        <ele>597.6</ele>
        <time>2023-05-27T09:00:07Z</time>
      </trkpt>
      <trkpt lat="45.88705" lon="5.40637">
        <ele>597.6</ele>
        <time>2023-05-27T09:00:08Z</time>
      </trkpt>
      <trkpt lat="45.88703" lon="5.40641">
        <ele>597.8</ele>
        <time>2023-05-27T09:00:09Z</time>
      </trkpt>
      <trkpt lat="45.88701" lon="5.40646">
        <ele>597.8</ele>
        <time>2023-05-27T09:00:10Z</time>
      </trkpt>
      <trkpt lat="45.88701" lon="5.40652">
        <ele>597.8</ele>
        <time>2023-05-27T09:00:11Z</time>
      </trkpt>
      <trkpt lat="45.88701" lon="5.40657">
        <ele>597.8</ele>
        <time>2023-05-27T09:00:12Z</time>
      </trkpt>
      <trkpt lat="45.88702" lon="5.40663">
        <ele>598</ele>
        <time>2023-05-27T09:00:13Z</time>
      </trkpt>
      <trkpt lat="45.88703" lon="5.40669">
        <ele>598</ele>
        <time>2023-05-27T09:00:14Z</time>
      </trkpt>
      <trkpt lat="45.88704" lon="5.40675">
        <ele>598</ele>
        <time>2023-05-27T09:00:15Z</time>
      </trkpt>
      <trkpt lat="45.88706" lon="5.4068">
        <ele>598</ele>
        <time>2023-05-27T09:00:16Z</time>
      </trkpt>
      <trkpt lat="45.88708" lon="5.40686">
        <ele>598</ele>
        <time>2023-05-27T09:00:17Z</time>
      </trkpt>
      <trkpt lat="45.8871" lon="5.40691">
        <ele>598</ele>
        <time>2023-05-27T09:00:18Z</time>
      </trkpt>
      <trkpt lat="45.88711" lon="5.40696">
        <ele>598.2</ele>
        <time>2023-05-27T09:00:19Z</time>
      </trkpt>
      <trkpt lat="45.88713" lon="5.40702">
        <ele>598.4</ele>
        <time>2023-05-27T09:00:20Z</time>
      </trkpt>
      <trkpt lat="45.88714" lon="5.40707">
        <ele>598.4</ele>
        <time>2023-05-27T09:00:21Z</time>
      </trkpt>
      <trkpt lat="45.88715" lon="5.40712">
        <ele>598.6</ele>
        <time>2023-05-27T09:00:22Z</time>
      </trkpt>
      <trkpt lat="45.88715" lon="5.40717">
        <ele>598.6</ele>
        <time>2023-05-27T09:00:23Z</time>
      </trkpt>
      <trkpt lat="45.88716" lon="5.40723">
        <ele>598.8</ele>
        <time>2023-05-27T09:00:24Z</time>
      </trkpt>
      <trkpt lat="45.88716" lon="5.40729">
        <ele>598.8</ele>
        <time>2023-05-27T09:00:25Z</time>
      </trkpt>
      <trkpt lat="45.88715" lon="5.40735">
        <ele>599.2</ele>
        <time>2023-05-27T09:00:26Z</time>
      </trkpt>
      <trkpt lat="45.88714" lon="5.40741">
        <ele>599.4</ele>
        <time>2023-05-27T09:00:27Z</time>
      </trkpt>
      <trkpt lat="45.88714" lon="5.40749">
        <ele>599.6</ele>
        <time>2023-05-27T09:00:28Z</time>
      </trkpt>
      <trkpt lat="45.88713" lon="5.40756">
        <ele>599.6</ele>
        <time>2023-05-27T09:00:29Z</time>
      </trkpt>
      <trkpt lat="45.88711" lon="5.40763">
        <ele>599.6</ele>
        <time>2023-05-27T09:00:30Z</time>
      </trkpt>
      <trkpt lat="45.88708" lon="5.40769">
        <ele>599.8</ele>
        <time>2023-05-27T09:00:31Z</time>
      </trkpt>
      <trkpt lat="45.88703" lon="5.40774">
        <ele>599.8</ele>
        <time>2023-05-27T09:00:32Z</time>
      </trkpt>
      <trkpt lat="45.88699" lon="5.40777">
        <ele>599.8</ele>
        <time>2023-05-27T09:00:33Z</time>
      </trkpt>
      <trkpt lat="45.88694" lon="5.40778">
        <ele>600</ele>
        <time>2023-05-27T09:00:34Z</time>
      </trkpt>
      <trkpt lat="45.8869" lon="5.40778">
        <ele>600.2</ele>
        <time>2023-05-27T09:00:35Z</time>
      </trkpt>
      <trkpt lat="45.88686" lon="5.40778">
        <ele>600.2</ele>
        <time>2023-05-27T09:00:36Z</time>
      </trkpt>
      <trkpt lat="45.88682" lon="5.40778">
        <ele>600.4</ele>
        <time>2023-05-27T09:00:37Z</time>
      </trkpt>
      <trkpt lat="45.88678" lon="5.40778">
        <ele>600.4</ele>
        <time>2023-05-27T09:00:38Z</time>
      </trkpt>
      <trkpt lat="45.88675" lon="5.40778">
        <ele>600.4</ele>
        <time>2023-05-27T09:00:39Z</time>
      </trkpt>
      <trkpt lat="45.88672" lon="5.40778">
        <ele>600.6</ele>
        <time>2023-05-27T09:00:40Z</time>
      </trkpt>
      <trkpt lat="45.88668" lon="5.40777">
        <ele>600.8</ele>
        <time>2023-05-27T09:00:41Z</time>
      </trkpt>
      <trkpt lat="45.88665" lon="5.40777">
        <ele>600.8</ele>
        <time>2023-05-27T09:00:42Z</time>
      </trkpt>
      <trkpt lat="45.88662" lon="5.40777">
        <ele>601</ele>
        <time>2023-05-27T09:00:43Z</time>
      </trkpt>
      <trkpt lat="45.88659" lon="5.40777">
        <ele>601.2</ele>
        <time>2023-05-27T09:00:44Z</time>
      </trkpt>
      <trkpt lat="45.88656" lon="5.40777">
        <ele>601.2</ele>
        <time>2023-05-27T09:00:45Z</time>
      </trkpt>
      <trkpt lat="45.88653" lon="5.40777">
        <ele>601.4</ele>
        <time>2023-05-27T09:00:46Z</time>
      </trkpt>
      <trkpt lat="45.8865" lon="5.40777">
        <ele>601.6</ele>
        <time>2023-05-27T09:00:47Z</time>
      </trkpt>
      <trkpt lat="45.88648" lon="5.40777">
        <ele>602</ele>
        <time>2023-05-27T09:00:48Z</time>
      </trkpt>
      <trkpt lat="45.88645" lon="5.40777">
        <ele>602</ele>
        <time>2023-05-27T09:00:49Z</time>
      </trkpt>
      <trkpt lat="45.88642" lon="5.40778">
        <ele>602.2</ele>
        <time>2023-05-27T09:00:50Z</time>
      </trkpt>
      <trkpt lat="45.8864" lon="5.40778">
        <ele>602.4</ele>
        <time>2023-05-27T09:00:51Z</time>
      </trkpt>
      <trkpt lat="45.88637" lon="5.40779">
        <ele>603</ele>
        <time>2023-05-27T09:00:52Z</time>
      </trkpt>
      <trkpt lat="45.88635" lon="5.40779">
        <ele>603.2</ele>
        <time>2023-05-27T09:00:53Z</time>
      </trkpt>
      <trkpt lat="45.88633" lon="5.40778">
        <ele>603.4</ele>
        <time>2023-05-27T09:00:54Z</time>
      </trkpt>
      <trkpt lat="45.88631" lon="5.40779">
        <ele>603.8</ele>
        <time>2023-05-27T09:00:55Z</time>
      </trkpt>
      <trkpt lat="45.88628" lon="5.40779">
        <ele>604</ele>
        <time>2023-05-27T09:00:56Z</time>
      </trkpt>
      <trkpt lat="45.88625" lon="5.40779">
        <ele>604.6</ele>
        <time>2023-05-27T09:00:57Z</time>
      </trkpt>
      <trkpt lat="45.88623" lon="5.40779">
        <ele>604.8</ele>
        <time>2023-05-27T09:00:58Z</time>
      </trkpt>
      <trkpt lat="45.8862" lon="5.40778">
        <ele>605.2</ele>
        <time>2023-05-27T09:00:59Z</time>
      </trkpt>
      <trkpt lat="45.88617" lon="5.40778">
        <ele>605.4</ele>
        <time>2023-05-27T09:01:00Z</time>
      </trkpt>
      <trkpt lat="45.88614" lon="5.40778">
        <ele>606</ele>
        <time>2023-05-27T09:01:01Z</time>
      </trkpt>
      <trkpt lat="45.88611" lon="5.40779">
        <ele>606.4</ele>
        <time>2023-05-27T09:01:02Z</time>
      </trkpt>
      <trkpt lat="45.88608" lon="5.40779">
        <ele>606.4</ele>
        <time>2023-05-27T09:01:03Z</time>
      </trkpt>
      <trkpt lat="45.88605" lon="5.4078">
        <ele>606.8</ele>
        <time>2023-05-27T09:01:04Z</time>
      </trkpt>
      <trkpt lat="45.88602" lon="5.4078">
        <ele>607</ele>
        <time>2023-05-27T09:01:05Z</time>
      </trkpt>
      <trkpt lat="45.88599" lon="5.40781">
        <ele>607.4</ele>
        <time>2023-05-27T09:01:06Z</time>
      </trkpt>
      <trkpt lat="45.88596" lon="5.40781">
        <ele>607.6</ele>
        <time>2023-05-27T09:01:07Z</time>
      </trkpt>
      <trkpt lat="45.88594" lon="5.40782">
        <ele>607.8</ele>
        <time>2023-05-27T09:01:08Z</time>
      </trkpt>
      <trkpt lat="45.88591" lon="5.40783">
        <ele>608</ele>
        <time>2023-05-27T09:01:09Z</time>
      </trkpt>
      <trkpt lat="45.88588" lon="5.40785">
        <ele>608.2</ele>
        <time>2023-05-27T09:01:10Z</time>
      </trkpt>
      <trkpt lat="45.88585" lon="5.40788">
        <ele>608.4</ele>
        <time>2023-05-27T09:01:11Z</time>
      </trkpt>
      <trkpt lat="45.88582" lon="5.40789">
        <ele>608.6</ele>
        <time>2023-05-27T09:01:12Z</time>
      </trkpt>
      <trkpt lat="45.8858" lon="5.40791">
        <ele>608.8</ele>
        <time>2023-05-27T09:01:13Z</time>
      </trkpt>
      <trkpt lat="45.88577" lon="5.40793">
        <ele>608.8</ele>
        <time>2023-05-27T09:01:14Z</time>
      </trkpt>
      <trkpt lat="45.88575" lon="5.40796">
        <ele>609.2</ele>
        <time>2023-05-27T09:01:15Z</time>
      </trkpt>
      <trkpt lat="45.88573" lon="5.40799">
        <ele>609.4</ele>
        <time>2023-05-27T09:01:16Z</time>
      </trkpt>
      <trkpt lat="45.8857" lon="5.40802">
        <ele>609.4</ele>
        <time>2023-05-27T09:01:17Z</time>
      </trkpt>
      <trkpt lat="45.88568" lon="5.40805">
        <ele>609.6</ele>
        <time>2023-05-27T09:01:18Z</time>
      </trkpt>
      <trkpt lat="45.88565" lon="5.40808">
        <ele>609.6</ele>
        <time>2023-05-27T09:01:19Z</time>
      </trkpt>
      <trkpt lat="45.88563" lon="5.40811">
        <ele>610</ele>
        <time>2023-05-27T09:01:20Z</time>
      </trkpt>
      <trkpt lat="45.88561" lon="5.40815">
        <ele>610</ele>
        <time>2023-05-27T09:01:21Z</time>
      </trkpt>
      <trkpt lat="45.88559" lon="5.40818">
        <ele>610.2</ele>
        <time>2023-05-27T09:01:22Z</time>
      </trkpt>
      <trkpt lat="45.88557" lon="5.40821">
        <ele>610.4</ele>
        <time>2023-05-27T09:01:23Z</time>
      </trkpt>
      <trkpt lat="45.88555" lon="5.40825">
        <ele>610.6</ele>
        <time>2023-05-27T09:01:24Z</time>
      </trkpt>
      <trkpt lat="45.88552" lon="5.40828">
        <ele>610.8</ele>
        <time>2023-05-27T09:01:25Z</time>
      </trkpt>
      <trkpt lat="45.8855" lon="5.40831">
        <ele>611</ele>
        <time>2023-05-27T09:01:26Z</time>
      </trkpt>
      <trkpt lat="45.88548" lon="5.40834">
        <ele>611.4</ele>
        <time>2023-05-27T09:01:27Z</time>
      </trkpt>
      <trkpt lat="45.88545" lon="5.40837">
        <ele>611.4</ele>
        <time>2023-05-27T09:01:28Z</time>
      </trkpt>
      <trkpt lat="45.88543" lon="5.40839">
        <ele>611.8</ele>
        <time>2023-05-27T09:01:29Z</time>
      </trkpt>
      <trkpt lat="45.88541" lon="5.40842">
        <ele>612</ele>
        <time>2023-05-27T09:01:30Z</time>
      </trkpt>
      <trkpt lat="45.88538" lon="5.40845">
        <ele>612.2</ele>
        <time>2023-05-27T09:01:31Z</time>
      </trkpt>
      <trkpt lat="45.88536" lon="5.40848">
        <ele>612.6</ele>
        <time>2023-05-27T09:01:32Z</time>
      </trkpt>
      <trkpt lat="45.88533" lon="5.40851">
        <ele>612.8</ele>
        <time>2023-05-27T09:01:33Z</time>
      </trkpt>
      <trkpt lat="45.88531" lon="5.40853">
        <ele>612.8</ele>
        <time>2023-05-27T09:01:34Z</time>
      </trkpt>
      <trkpt lat="45.88528" lon="5.40855">
        <ele>613</ele>
        <time>2023-05-27T09:01:35Z</time>
      </trkpt>
      <trkpt lat="45.88525" lon="5.40857">
        <ele>613.2</ele>
        <time>2023-05-27T09:01:36Z</time>
      </trkpt>
      <trkpt lat="45.88522" lon="5.40859">
        <ele>613.2</ele>
        <time>2023-05-27T09:01:37Z</time>
      </trkpt>
      <trkpt lat="45.88519" lon="5.4086">
        <ele>613.4</ele>
        <time>2023-05-27T09:01:38Z</time>
      </trkpt>
      <trkpt lat="45.88516" lon="5.40861">
        <ele>613.6</ele>
        <time>2023-05-27T09:01:39Z</time>
      </trkpt>
      <trkpt lat="45.88513" lon="5.40861">
        <ele>613.8</ele>
        <time>2023-05-27T09:01:40Z</time>
      </trkpt>
      <trkpt lat="45.88509" lon="5.40861">
        <ele>614</ele>
        <time>2023-05-27T09:01:41Z</time>
      </trkpt>
      <trkpt lat="45.88506" lon="5.40862">
        <ele>614.2</ele>
        <time>2023-05-27T09:01:42Z</time>
      </trkpt>
      <trkpt lat="45.88503" lon="5.40862">
        <ele>614.4</ele>
        <time>2023-05-27T09:01:43Z</time>
      </trkpt>
      <trkpt lat="45.885" lon="5.40862">
        <ele>614.8</ele>
        <time>2023-05-27T09:01:44Z</time>
      </trkpt>
      <trkpt lat="45.88497" lon="5.40862">
        <ele>615</ele>
        <time>2023-05-27T09:01:45Z</time>
      </trkpt>
      <trkpt lat="45.88494" lon="5.40862">
        <ele>615.2</ele>
        <time>2023-05-27T09:01:46Z</time>
      </trkpt>
      <trkpt lat="45.88491" lon="5.40862">
        <ele>615.2</ele>
        <time>2023-05-27T09:01:47Z</time>
      </trkpt>
      <trkpt lat="45.88488" lon="5.40863">
        <ele>615.4</ele>
        <time>2023-05-27T09:01:48Z</time>
      </trkpt>
      <trkpt lat="45.88485" lon="5.40863">
        <ele>615.4</ele>
        <time>2023-05-27T09:01:49Z</time>
      </trkpt>
      <trkpt lat="45.88482" lon="5.40864">
        <ele>615.6</ele>
        <time>2023-05-27T09:01:50Z</time>
      </trkpt>
      <trkpt lat="45.88479" lon="5.40865">
        <ele>615.8</ele>
        <time>2023-05-27T09:01:51Z</time>
      </trkpt>
      <trkpt lat="45.88476" lon="5.40866">
        <ele>616</ele>
        <time>2023-05-27T09:01:52Z</time>
      </trkpt>
      <trkpt lat="45.88473" lon="5.40868">
        <ele>616.2</ele>
        <time>2023-05-27T09:01:53Z</time>
      </trkpt>
      <trkpt lat="45.8847" lon="5.4087">
        <ele>616.2</ele>
        <time>2023-05-27T09:01:54Z</time>
      </trkpt>
      <trkpt lat="45.88467" lon="5.40871">
        <ele>616.4</ele>
        <time>2023-05-27T09:01:55Z</time>
      </trkpt>
      <trkpt lat="45.88465" lon="5.40873">
        <ele>616.4</ele>
        <time>2023-05-27T09:01:56Z</time>
      </trkpt>
      <trkpt lat="45.88462" lon="5.40875">
        <ele>617</ele>
        <time>2023-05-27T09:01:57Z</time>
      </trkpt>
      <trkpt lat="45.8846" lon="5.40877">
        <ele>617.6</ele>
        <time>2023-05-27T09:01:58Z</time>
      </trkpt>
      <trkpt lat="45.88457" lon="5.40879">
        <ele>617.8</ele>
        <time>2023-05-27T09:01:59Z</time>
      </trkpt>
      <trkpt lat="45.88455" lon="5.40881">
        <ele>618.2</ele>
        <time>2023-05-27T09:02:00Z</time>
      </trkpt>
      <trkpt lat="45.88452" lon="5.40882">
        <ele>618.6</ele>
        <time>2023-05-27T09:02:01Z</time>
      </trkpt>
      <trkpt lat="45.88449" lon="5.40884">
        <ele>619</ele>
        <time>2023-05-27T09:02:02Z</time>
      </trkpt>
      <trkpt lat="45.88446" lon="5.40885">
        <ele>619.2</ele>
        <time>2023-05-27T09:02:03Z</time>
      </trkpt>
      <trkpt lat="45.88442" lon="5.40885">
        <ele>620</ele>
        <time>2023-05-27T09:02:04Z</time>
      </trkpt>
      <trkpt lat="45.88439" lon="5.40885">
        <ele>620.4</ele>
        <time>2023-05-27T09:02:05Z</time>
      </trkpt>
      <trkpt lat="45.88436" lon="5.40885">
        <ele>620.6</ele>
        <time>2023-05-27T09:02:06Z</time>
      </trkpt>
      <trkpt lat="45.88434" lon="5.40885">
        <ele>621</ele>
        <time>2023-05-27T09:02:07Z</time>
      </trkpt>
      <trkpt lat="45.88431" lon="5.40884">
        <ele>621.2</ele>
        <time>2023-05-27T09:02:08Z</time>
      </trkpt>
      <trkpt lat="45.88428" lon="5.40883">
        <ele>621.4</ele>
        <time>2023-05-27T09:02:09Z</time>
      </trkpt>
      <trkpt lat="45.88425" lon="5.40882">
        <ele>621.6</ele>
        <time>2023-05-27T09:02:10Z</time>
      </trkpt>
      <trkpt lat="45.88422" lon="5.4088">
        <ele>622.2</ele>
        <time>2023-05-27T09:02:11Z</time>
      </trkpt>
      <trkpt lat="45.8842" lon="5.40879">
        <ele>622.4</ele>
        <time>2023-05-27T09:02:12Z</time>
      </trkpt>
      <trkpt lat="45.88416" lon="5.40877">
        <ele>623.2</ele>
        <time>2023-05-27T09:02:13Z</time>
      </trkpt>
      <trkpt lat="45.88413" lon="5.40876">
        <ele>623.6</ele>
        <time>2023-05-27T09:02:14Z</time>
      </trkpt>
      <trkpt lat="45.88411" lon="5.40874">
        <ele>624.2</ele>
        <time>2023-05-27T09:02:15Z</time>
      </trkpt>
      <trkpt lat="45.88408" lon="5.40872">
        <ele>624.6</ele>
        <time>2023-05-27T09:02:16Z</time>
      </trkpt>
      <trkpt lat="45.88406" lon="5.40869">
        <ele>624.8</ele>
        <time>2023-05-27T09:02:17Z</time>
      </trkpt>
      <trkpt lat="45.88404" lon="5.40867">
        <ele>625.2</ele>
        <time>2023-05-27T09:02:18Z</time>
      </trkpt>
      <trkpt lat="45.88403" lon="5.40865">
        <ele>625.6</ele>
        <time>2023-05-27T09:02:19Z</time>
      </trkpt>
      <trkpt lat="45.88401" lon="5.40863">
        <ele>626</ele>
        <time>2023-05-27T09:02:20Z</time>
      </trkpt>
      <trkpt lat="45.88398" lon="5.40862">
        <ele>626.4</ele>
        <time>2023-05-27T09:02:21Z</time>
      </trkpt>
      <trkpt lat="45.88395" lon="5.4086">
        <ele>626.6</ele>
        <time>2023-05-27T09:02:22Z</time>
      </trkpt>
      <trkpt lat="45.88392" lon="5.40859">
        <ele>626.8</ele>
        <time>2023-05-27T09:02:23Z</time>
      </trkpt>
      <trkpt lat="45.88388" lon="5.40857">
        <ele>627</ele>
        <time>2023-05-27T09:02:24Z</time>
      </trkpt>
      <trkpt lat="45.88385" lon="5.40856">
        <ele>627.4</ele>
        <time>2023-05-27T09:02:25Z</time>
      </trkpt>
      <trkpt lat="45.88382" lon="5.40856">
        <ele>627.6</ele>
        <time>2023-05-27T09:02:26Z</time>
      </trkpt>
      <trkpt lat="45.88379" lon="5.40856">
        <ele>628</ele>
        <time>2023-05-27T09:02:27Z</time>
      </trkpt>
      <trkpt lat="45.88376" lon="5.40855">
        <ele>629</ele>
        <time>2023-05-27T09:02:28Z</time>
      </trkpt>
      <trkpt lat="45.88372" lon="5.40853">
        <ele>629.2</ele>
        <time>2023-05-27T09:02:29Z</time>
      </trkpt>
      <trkpt lat="45.88369" lon="5.40851">
        <ele>629.8</ele>
        <time>2023-05-27T09:02:30Z</time>
      </trkpt>
      <trkpt lat="45.88366" lon="5.40849">
        <ele>630</ele>
        <time>2023-05-27T09:02:31Z</time>
      </trkpt>
      <trkpt lat="45.88363" lon="5.40847">
        <ele>630.6</ele>
        <time>2023-05-27T09:02:32Z</time>
      </trkpt>
      <trkpt lat="45.88359" lon="5.40844">
        <ele>630.8</ele>
        <time>2023-05-27T09:02:33Z</time>
      </trkpt>
      <trkpt lat="45.88357" lon="5.4084">
        <ele>631.4</ele>
        <time>2023-05-27T09:02:34Z</time>
      </trkpt>
      <trkpt lat="45.88354" lon="5.40836">
        <ele>631.6</ele>
        <time>2023-05-27T09:02:35Z</time>
      </trkpt>
      <trkpt lat="45.88353" lon="5.40831">
        <ele>631.8</ele>
        <time>2023-05-27T09:02:36Z</time>
      </trkpt>
      <trkpt lat="45.88351" lon="5.40826">
        <ele>632.2</ele>
        <time>2023-05-27T09:02:37Z</time>
      </trkpt>
      <trkpt lat="45.8835" lon="5.40822">
        <ele>632.4</ele>
        <time>2023-05-27T09:02:38Z</time>
      </trkpt>
      <trkpt lat="45.88348" lon="5.40817">
        <ele>632.8</ele>
        <time>2023-05-27T09:02:39Z</time>
      </trkpt>
      <trkpt lat="45.88347" lon="5.40813">
        <ele>633</ele>
        <time>2023-05-27T09:02:40Z</time>
      </trkpt>
      <trkpt lat="45.88346" lon="5.40809">
        <ele>633.6</ele>
        <time>2023-05-27T09:02:41Z</time>
      </trkpt>
      <trkpt lat="45.88345" lon="5.40804">
        <ele>633.6</ele>
        <time>2023-05-27T09:02:42Z</time>
      </trkpt>
      <trkpt lat="45.88344" lon="5.40799">
        <ele>633.8</ele>
        <time>2023-05-27T09:02:43Z</time>
      </trkpt>
      <trkpt lat="45.88342" lon="5.40794">
        <ele>633.8</ele>
        <time>2023-05-27T09:02:44Z</time>
      </trkpt>
      <trkpt lat="45.88341" lon="5.4079">
        <ele>634</ele>
        <time>2023-05-27T09:02:45Z</time>
      </trkpt>
      <trkpt lat="45.88339" lon="5.40786">
        <ele>634</ele>
        <time>2023-05-27T09:02:46Z</time>
      </trkpt>
      <trkpt lat="45.88337" lon="5.40782">
        <ele>634</ele>
        <time>2023-05-27T09:02:47Z</time>
      </trkpt>
      <trkpt lat="45.88335" lon="5.40778">
        <ele>634</ele>
        <time>2023-05-27T09:02:48Z</time>
      </trkpt>
      <trkpt lat="45.88333" lon="5.40774">
        <ele>634</ele>
        <time>2023-05-27T09:02:49Z</time>
      </trkpt>
      <trkpt lat="45.88331" lon="5.40771">
        <ele>634</ele>
        <time>2023-05-27T09:02:50Z</time>
      </trkpt>
      <trkpt lat="45.88329" lon="5.40768">
        <ele>634</ele>
        <time>2023-05-27T09:02:51Z</time>
      </trkpt>
      <trkpt lat="45.88327" lon="5.40764">
        <ele>634</ele>
        <time>2023-05-27T09:02:52Z</time>
      </trkpt>
      <trkpt lat="45.88325" lon="5.40761">
        <ele>634.2</ele>
        <time>2023-05-27T09:02:53Z</time>
      </trkpt>
      <trkpt lat="45.88323" lon="5.40757">
        <ele>634</ele>
        <time>2023-05-27T09:02:54Z</time>
      </trkpt>
      <trkpt lat="45.88321" lon="5.40753">
        <ele>634.2</ele>
        <time>2023-05-27T09:02:55Z</time>
      </trkpt>
      <trkpt lat="45.88319" lon="5.4075">
        <ele>634.4</ele>
        <time>2023-05-27T09:02:56Z</time>
      </trkpt>
      <trkpt lat="45.88317" lon="5.40746">
        <ele>634.6</ele>
        <time>2023-05-27T09:02:57Z</time>
      </trkpt>
      <trkpt lat="45.88315" lon="5.40743">
        <ele>634.8</ele>
        <time>2023-05-27T09:02:58Z</time>
      </trkpt>
      <trkpt lat="45.88313" lon="5.4074">
        <ele>635</ele>
        <time>2023-05-27T09:02:59Z</time>
      </trkpt>
      <trkpt lat="45.8831" lon="5.40737">
        <ele>635.2</ele>
        <time>2023-05-27T09:03:00Z</time>
      </trkpt>
      <trkpt lat="45.88308" lon="5.40734">
        <ele>635.4</ele>
        <time>2023-05-27T09:03:01Z</time>
      </trkpt>
      <trkpt lat="45.88306" lon="5.40731">
        <ele>635.6</ele>
        <time>2023-05-27T09:03:02Z</time>
      </trkpt>
      <trkpt lat="45.88303" lon="5.40729">
        <ele>635.8</ele>
        <time>2023-05-27T09:03:03Z</time>
      </trkpt>
      <trkpt lat="45.883" lon="5.40726">
        <ele>636</ele>
        <time>2023-05-27T09:03:04Z</time>
      </trkpt>
      <trkpt lat="45.88297" lon="5.40724">
        <ele>636.2</ele>
        <time>2023-05-27T09:03:05Z</time>
      </trkpt>
      <trkpt lat="45.88294" lon="5.40722">
        <ele>636.4</ele>
        <time>2023-05-27T09:03:06Z</time>
      </trkpt>
      <trkpt lat="45.88291" lon="5.4072">
        <ele>636.6</ele>
        <time>2023-05-27T09:03:07Z</time>
      </trkpt>
      <trkpt lat="45.88288" lon="5.40718">
        <ele>636.6</ele>
        <time>2023-05-27T09:03:08Z</time>
      </trkpt>
      <trkpt lat="45.88285" lon="5.40717">
        <ele>636.8</ele>
        <time>2023-05-27T09:03:09Z</time>
      </trkpt>
      <trkpt lat="45.88282" lon="5.40715">
        <ele>636.8</ele>
        <time>2023-05-27T09:03:10Z</time>
      </trkpt>
      <trkpt lat="45.88279" lon="5.40714">
        <ele>637</ele>
        <time>2023-05-27T09:03:11Z</time>
      </trkpt>
      <trkpt lat="45.88276" lon="5.40712">
        <ele>637.2</ele>
        <time>2023-05-27T09:03:12Z</time>
      </trkpt>
      <trkpt lat="45.88273" lon="5.40711">
        <ele>637.4</ele>
        <time>2023-05-27T09:03:13Z</time>
      </trkpt>
      <trkpt lat="45.8827" lon="5.4071">
        <ele>637.6</ele>
        <time>2023-05-27T09:03:14Z</time>
      </trkpt>
      <trkpt lat="45.88267" lon="5.40709">
        <ele>637.6</ele>
        <time>2023-05-27T09:03:15Z</time>
      </trkpt>
      <trkpt lat="45.88264" lon="5.40708">
        <ele>637.8</ele>
        <time>2023-05-27T09:03:16Z</time>
      </trkpt>
      <trkpt lat="45.8826" lon="5.40707">
        <ele>637.8</ele>
        <time>2023-05-27T09:03:17Z</time>
      </trkpt>
      <trkpt lat="45.88257" lon="5.40707">
        <ele>637.8</ele>
        <time>2023-05-27T09:03:18Z</time>
      </trkpt>
      <trkpt lat="45.88253" lon="5.40706">
        <ele>638.2</ele>
        <time>2023-05-27T09:03:19Z</time>
      </trkpt>
      <trkpt lat="45.8825" lon="5.40706">
        <ele>638.2</ele>
        <time>2023-05-27T09:03:20Z</time>
      </trkpt>
      <trkpt lat="45.88247" lon="5.40705">
        <ele>638.4</ele>
        <time>2023-05-27T09:03:21Z</time>
      </trkpt>
      <trkpt lat="45.88244" lon="5.40704">
        <ele>638.4</ele>
        <time>2023-05-27T09:03:22Z</time>
      </trkpt>
      <trkpt lat="45.88241" lon="5.40703">
        <ele>638.6</ele>
        <time>2023-05-27T09:03:23Z</time>
      </trkpt>
      <trkpt lat="45.88238" lon="5.40701">
        <ele>638.8</ele>
        <time>2023-05-27T09:03:24Z</time>
      </trkpt>
      <trkpt lat="45.88235" lon="5.40699">
        <ele>639</ele>
        <time>2023-05-27T09:03:25Z</time>
      </trkpt>
      <trkpt lat="45.88232" lon="5.40697">
        <ele>639</ele>
        <time>2023-05-27T09:03:26Z</time>
      </trkpt>
      <trkpt lat="45.88229" lon="5.40696">
        <ele>639</ele>
        <time>2023-05-27T09:03:27Z</time>
      </trkpt>
      <trkpt lat="45.88227" lon="5.40694">
        <ele>639.4</ele>
        <time>2023-05-27T09:03:28Z</time>
      </trkpt>
      <trkpt lat="45.88224" lon="5.40692">
        <ele>639.4</ele>
        <time>2023-05-27T09:03:29Z</time>
      </trkpt>
      <trkpt lat="45.88221" lon="5.40689">
        <ele>640</ele>
        <time>2023-05-27T09:03:30Z</time>
      </trkpt>
      <trkpt lat="45.88218" lon="5.40687">
        <ele>640.4</ele>
        <time>2023-05-27T09:03:31Z</time>
      </trkpt>
      <trkpt lat="45.88215" lon="5.40685">
        <ele>640.8</ele>
        <time>2023-05-27T09:03:32Z</time>
      </trkpt>
      <trkpt lat="45.88213" lon="5.40683">
        <ele>641.2</ele>
        <time>2023-05-27T09:03:33Z</time>
      </trkpt>
      <trkpt lat="45.8821" lon="5.4068">
        <ele>641.4</ele>
        <time>2023-05-27T09:03:34Z</time>
      </trkpt>
      <trkpt lat="45.88207" lon="5.40678">
        <ele>641.6</ele>
        <time>2023-05-27T09:03:35Z</time>
      </trkpt>
      <trkpt lat="45.88205" lon="5.40675">
        <ele>642</ele>
        <time>2023-05-27T09:03:36Z</time>
      </trkpt>
      <trkpt lat="45.88202" lon="5.40672">
        <ele>642.2</ele>
        <time>2023-05-27T09:03:37Z</time>
      </trkpt>
      <trkpt lat="45.882" lon="5.4067">
        <ele>642.2</ele>
        <time>2023-05-27T09:03:38Z</time>
      </trkpt>
      <trkpt lat="45.88197" lon="5.40667">
        <ele>642.2</ele>
        <time>2023-05-27T09:03:39Z</time>
      </trkpt>
      <trkpt lat="45.88195" lon="5.40664">
        <ele>642.6</ele>
        <time>2023-05-27T09:03:40Z</time>
      </trkpt>
      <trkpt lat="45.88193" lon="5.40661">
        <ele>642.6</ele>
        <time>2023-05-27T09:03:41Z</time>
      </trkpt>
      <trkpt lat="45.88191" lon="5.40658">
        <ele>642.8</ele>
        <time>2023-05-27T09:03:42Z</time>
      </trkpt>
      <trkpt lat="45.88189" lon="5.40656">
        <ele>643</ele>
        <time>2023-05-27T09:03:43Z</time>
      </trkpt>
      <trkpt lat="45.88186" lon="5.40653">
        <ele>643.6</ele>
        <time>2023-05-27T09:03:44Z</time>
      </trkpt>
      <trkpt lat="45.88184" lon="5.4065">
        <ele>643.8</ele>
        <time>2023-05-27T09:03:45Z</time>
      </trkpt>
      <trkpt lat="45.88181" lon="5.40647">
        <ele>644</ele>
        <time>2023-05-27T09:03:46Z</time>
      </trkpt>
      <trkpt lat="45.88179" lon="5.40645">
        <ele>644.4</ele>
        <time>2023-05-27T09:03:47Z</time>
      </trkpt>
      <trkpt lat="45.88176" lon="5.40643">
        <ele>644.6</ele>
        <time>2023-05-27T09:03:48Z</time>
      </trkpt>
      <trkpt lat="45.88174" lon="5.4064">
        <ele>644.8</ele>
        <time>2023-05-27T09:03:49Z</time>
      </trkpt>
      <trkpt lat="45.88171" lon="5.40637">
        <ele>645</ele>
        <time>2023-05-27T09:03:50Z</time>
      </trkpt>
      <trkpt lat="45.88169" lon="5.40635">
        <ele>645.2</ele>
        <time>2023-05-27T09:03:51Z</time>
      </trkpt>
      <trkpt lat="45.88166" lon="5.40632">
        <ele>645.2</ele>
        <time>2023-05-27T09:03:52Z</time>
      </trkpt>
      <trkpt lat="45.88163" lon="5.4063">
        <ele>645.6</ele>
        <time>2023-05-27T09:03:53Z</time>
      </trkpt>
      <trkpt lat="45.88161" lon="5.40628">
        <ele>646</ele>
        <time>2023-05-27T09:03:54Z</time>
      </trkpt>
      <trkpt lat="45.88158" lon="5.40625">
        <ele>646.2</ele>
        <time>2023-05-27T09:03:55Z</time>
      </trkpt>
      <trkpt lat="45.88156" lon="5.40623">
        <ele>646.6</ele>
        <time>2023-05-27T09:03:56Z</time>
      </trkpt>
      <trkpt lat="45.88153" lon="5.40621">
        <ele>646.8</ele>
        <time>2023-05-27T09:03:57Z</time>
      </trkpt>
      <trkpt lat="45.88151" lon="5.40619">
        <ele>647</ele>
        <time>2023-05-27T09:03:58Z</time>
      </trkpt>
      <trkpt lat="45.88148" lon="5.40617">
        <ele>647.2</ele>
        <time>2023-05-27T09:03:59Z</time>
      </trkpt>
      <trkpt lat="45.88145" lon="5.40615">
        <ele>647.4</ele>
        <time>2023-05-27T09:04:00Z</time>
      </trkpt>
      <trkpt lat="45.88142" lon="5.40613">
        <ele>647.4</ele>
        <time>2023-05-27T09:04:01Z</time>
      </trkpt>
      <trkpt lat="45.88139" lon="5.40611">
        <ele>647.6</ele>
        <time>2023-05-27T09:04:02Z</time>
      </trkpt>
      <trkpt lat="45.88136" lon="5.40609">
        <ele>647.8</ele>
        <time>2023-05-27T09:04:03Z</time>
      </trkpt>
      <trkpt lat="45.88134" lon="5.40608">
        <ele>648</ele>
        <time>2023-05-27T09:04:04Z</time>
      </trkpt>
      <trkpt lat="45.88131" lon="5.40607">
        <ele>648.4</ele>
        <time>2023-05-27T09:04:05Z</time>
      </trkpt>
      <trkpt lat="45.88128" lon="5.40605">
        <ele>648.6</ele>
        <time>2023-05-27T09:04:06Z</time>
      </trkpt>
      <trkpt lat="45.88126" lon="5.40604">
        <ele>649.2</ele>
        <time>2023-05-27T09:04:07Z</time>
      </trkpt>
      <trkpt lat="45.88123" lon="5.40604">
        <ele>649.4</ele>
        <time>2023-05-27T09:04:08Z</time>
      </trkpt>
      <trkpt lat="45.8812" lon="5.40603">
        <ele>649.8</ele>
        <time>2023-05-27T09:04:09Z</time>
      </trkpt>
      <trkpt lat="45.88117" lon="5.40603">
        <ele>650.4</ele>
        <time>2023-05-27T09:04:10Z</time>
      </trkpt>
      <trkpt lat="45.88114" lon="5.40602">
        <ele>650.6</ele>
        <time>2023-05-27T09:04:11Z</time>
      </trkpt>
      <trkpt lat="45.88112" lon="5.40602">
        <ele>651.2</ele>
        <time>2023-05-27T09:04:12Z</time>
      </trkpt>
      <trkpt lat="45.88109" lon="5.40602">
        <ele>651.4</ele>
        <time>2023-05-27T09:04:13Z</time>
      </trkpt>
      <trkpt lat="45.88105" lon="5.40603">
        <ele>651.8</ele>
        <time>2023-05-27T09:04:14Z</time>
      </trkpt>
      <trkpt lat="45.88102" lon="5.40603">
        <ele>652.2</ele>
        <time>2023-05-27T09:04:15Z</time>
      </trkpt>
      <trkpt lat="45.88098" lon="5.40604">
        <ele>652.6</ele>
        <time>2023-05-27T09:04:16Z</time>
      </trkpt>
      <trkpt lat="45.88095" lon="5.40604">
        <ele>653</ele>
        <time>2023-05-27T09:04:17Z</time>
      </trkpt>
      <trkpt lat="45.88091" lon="5.40604">
        <ele>653.2</ele>
        <time>2023-05-27T09:04:18Z</time>
      </trkpt>
      <trkpt lat="45.88088" lon="5.40604">
        <ele>653.6</ele>
        <time>2023-05-27T09:04:19Z</time>
      </trkpt>
      <trkpt lat="45.88085" lon="5.40604">
        <ele>653.8</ele>
        <time>2023-05-27T09:04:20Z</time>
      </trkpt>
      <trkpt lat="45.88082" lon="5.40604">
        <ele>654.4</ele>
        <time>2023-05-27T09:04:21Z</time>
      </trkpt>
      <trkpt lat="45.88078" lon="5.40605">
        <ele>654.8</ele>
        <time>2023-05-27T09:04:22Z</time>
      </trkpt>
      <trkpt lat="45.88075" lon="5.40605">
        <ele>655</ele>
        <time>2023-05-27T09:04:23Z</time>
      </trkpt>
      <trkpt lat="45.88071" lon="5.40604">
        <ele>655.6</ele>
        <time>2023-05-27T09:04:24Z</time>
      </trkpt>
      <trkpt lat="45.88068" lon="5.40603">
        <ele>655.8</ele>
        <time>2023-05-27T09:04:25Z</time>
      </trkpt>
      <trkpt lat="45.88065" lon="5.40602">
        <ele>656.4</ele>
        <time>2023-05-27T09:04:26Z</time>
      </trkpt>
      <trkpt lat="45.88062" lon="5.406">
        <ele>656.4</ele>
        <time>2023-05-27T09:04:27Z</time>
      </trkpt>
      <trkpt lat="45.88059" lon="5.40598">
        <ele>656.6</ele>
        <time>2023-05-27T09:04:28Z</time>
      </trkpt>
      <trkpt lat="45.88056" lon="5.40596">
        <ele>656.8</ele>
        <time>2023-05-27T09:04:29Z</time>
      </trkpt>
      <trkpt lat="45.88053" lon="5.40593">
        <ele>657</ele>
        <time>2023-05-27T09:04:30Z</time>
      </trkpt>
      <trkpt lat="45.8805" lon="5.40591">
        <ele>657.2</ele>
        <time>2023-05-27T09:04:31Z</time>
      </trkpt>
      <trkpt lat="45.88048" lon="5.40588">
        <ele>657.4</ele>
        <time>2023-05-27T09:04:32Z</time>
      </trkpt>
      <trkpt lat="45.88046" lon="5.40586">
        <ele>657.6</ele>
        <time>2023-05-27T09:04:33Z</time>
      </trkpt>
      <trkpt lat="45.88043" lon="5.40583">
        <ele>657.6</ele>
        <time>2023-05-27T09:04:34Z</time>
      </trkpt>
      <trkpt lat="45.88041" lon="5.4058">
        <ele>657.8</ele>
        <time>2023-05-27T09:04:35Z</time>
      </trkpt>
      <trkpt lat="45.88038" lon="5.40578">
        <ele>657.8</ele>
        <time>2023-05-27T09:04:36Z</time>
      </trkpt>
      <trkpt lat="45.88035" lon="5.40576">
        <ele>658</ele>
        <time>2023-05-27T09:04:37Z</time>
      </trkpt>
      <trkpt lat="45.88033" lon="5.40574">
        <ele>658.2</ele>
        <time>2023-05-27T09:04:38Z</time>
      </trkpt>
      <trkpt lat="45.8803" lon="5.40572">
        <ele>658.2</ele>
        <time>2023-05-27T09:04:39Z</time>
      </trkpt>
      <trkpt lat="45.88027" lon="5.40571">
        <ele>658.4</ele>
        <time>2023-05-27T09:04:40Z</time>
      </trkpt>
      <trkpt lat="45.88024" lon="5.40569">
        <ele>658.6</ele>
        <time>2023-05-27T09:04:41Z</time>
      </trkpt>
      <trkpt lat="45.88021" lon="5.40568">
        <ele>658.8</ele>
        <time>2023-05-27T09:04:42Z</time>
      </trkpt>
      <trkpt lat="45.88017" lon="5.40567">
        <ele>659</ele>
        <time>2023-05-27T09:04:43Z</time>
      </trkpt>
      <trkpt lat="45.88015" lon="5.40567">
        <ele>659</ele>
        <time>2023-05-27T09:04:44Z</time>
      </trkpt>
      <trkpt lat="45.88012" lon="5.40566">
        <ele>659.2</ele>
        <time>2023-05-27T09:04:45Z</time>
      </trkpt>
      <trkpt lat="45.8801" lon="5.40566">
        <ele>659.4</ele>
        <time>2023-05-27T09:04:46Z</time>
      </trkpt>
      <trkpt lat="45.88007" lon="5.40566">
        <ele>659.6</ele>
        <time>2023-05-27T09:04:47Z</time>
      </trkpt>
      <trkpt lat="45.88004" lon="5.40566">
        <ele>659.6</ele>
        <time>2023-05-27T09:04:48Z</time>
      </trkpt>
      <trkpt lat="45.88001" lon="5.40567">
        <ele>659.8</ele>
        <time>2023-05-27T09:04:49Z</time>
      </trkpt>
      <trkpt lat="45.87998" lon="5.40567">
        <ele>660</ele>
        <time>2023-05-27T09:04:50Z</time>
      </trkpt>
      <trkpt lat="45.87995" lon="5.40568">
        <ele>660.2</ele>
        <time>2023-05-27T09:04:51Z</time>
      </trkpt>
      <trkpt lat="45.87992" lon="5.40569">
        <ele>660.4</ele>
        <time>2023-05-27T09:04:52Z</time>
      </trkpt>
      <trkpt lat="45.8799" lon="5.40571">
        <ele>660.6</ele>
        <time>2023-05-27T09:04:53Z</time>
      </trkpt>
      <trkpt lat="45.87987" lon="5.40572">
        <ele>660.8</ele>
        <time>2023-05-27T09:04:54Z</time>
      </trkpt>
      <trkpt lat="45.87983" lon="5.40573">
        <ele>661</ele>
        <time>2023-05-27T09:04:55Z</time>
      </trkpt>
      <trkpt lat="45.87981" lon="5.40574">
        <ele>661</ele>
        <time>2023-05-27T09:04:56Z</time>
      </trkpt>
      <trkpt lat="45.87978" lon="5.40576">
        <ele>661.2</ele>
        <time>2023-05-27T09:04:57Z</time>
      </trkpt>
      <trkpt lat="45.87975" lon="5.40577">
        <ele>661.4</ele>
        <time>2023-05-27T09:04:58Z</time>
      </trkpt>
      <trkpt lat="45.87971" lon="5.40579">
        <ele>661.6</ele>
        <time>2023-05-27T09:04:59Z</time>
      </trkpt>
      <trkpt lat="45.87968" lon="5.4058">
        <ele>661.6</ele>
        <time>2023-05-27T09:05:00Z</time>
      </trkpt>
      <trkpt lat="45.87966" lon="5.40581">
        <ele>661.8</ele>
        <time>2023-05-27T09:05:01Z</time>
      </trkpt>
      <trkpt lat="45.87963" lon="5.40583">
        <ele>662</ele>
        <time>2023-05-27T09:05:02Z</time>
      </trkpt>
      <trkpt lat="45.8796" lon="5.40584">
        <ele>662.2</ele>
        <time>2023-05-27T09:05:03Z</time>
      </trkpt>
      <trkpt lat="45.87958" lon="5.40586">
        <ele>662.4</ele>
        <time>2023-05-27T09:05:04Z</time>
      </trkpt>
      <trkpt lat="45.87956" lon="5.40587">
        <ele>662.6</ele>
        <time>2023-05-27T09:05:05Z</time>
      </trkpt>
      <trkpt lat="45.87954" lon="5.40587">
        <ele>662.8</ele>
        <time>2023-05-27T09:05:06Z</time>
      </trkpt>
      <trkpt lat="45.87953" lon="5.40588">
        <ele>663</ele>
        <time>2023-05-27T09:05:07Z</time>
      </trkpt>
      <trkpt lat="45.87952" lon="5.40588">
        <ele>663.2</ele>
        <time>2023-05-27T09:05:08Z</time>
      </trkpt>
      <trkpt lat="45.87952" lon="5.40588">
        <ele>663.2</ele>
        <time>2023-05-27T09:05:09Z</time>
      </trkpt>
      <trkpt lat="45.87952" lon="5.40588">
        <ele>663.2</ele>
        <time>2023-05-27T09:05:10Z</time>
      </trkpt>
      <trkpt lat="45.87952" lon="5.40588">
        <ele>663.4</ele>
        <time>2023-05-27T09:05:11Z</time>
      </trkpt>
      <trkpt lat="45.87952" lon="5.40588">
        <ele>663.4</ele>
        <time>2023-05-27T09:05:12Z</time>
      </trkpt>
      <trkpt lat="45.87952" lon="5.40588">
        <ele>663.4</ele>
        <time>2023-05-27T09:05:13Z</time>
      </trkpt>
      <trkpt lat="45.87952" lon="5.40588">
        <ele>663.4</ele>
        <time>2023-05-27T09:05:14Z</time>
      </trkpt>
      <trkpt lat="45.87952" lon="5.40588">
        <ele>663.4</ele>
        <time>2023-05-27T09:05:15Z</time>
      </trkpt>
      <trkpt lat="45.87952" lon="5.40588">
        <ele>663.4</ele>
        <time>2023-05-27T09:05:16Z</time>
      </trkpt>
      <trkpt lat="45.87952" lon="5.40588">
        <ele>663.4</ele>
        <time>2023-05-27T09:05:17Z</time>
      </trkpt>
      <trkpt lat="45.87952" lon="5.40588">
        <ele>663.2</ele>
        <time>2023-05-27T09:05:18Z</time>
      </trkpt>
      <trkpt lat="45.87952" lon="5.40588">
        <ele>663.2</ele>
        <time>2023-05-27T09:05:19Z</time>
      </trkpt>
      <trkpt lat="45.87952" lon="5.40588">
        <ele>663.2</ele>
        <time>2023-05-27T09:05:20Z</time>
      </trkpt>
      <trkpt lat="45.87952" lon="5.40588">
        <ele>663</ele>
        <time>2023-05-27T09:05:21Z</time>
      </trkpt>
      <trkpt lat="45.87952" lon="5.40588">
        <ele>663</ele>
        <time>2023-05-27T09:05:22Z</time>
      </trkpt>
      <trkpt lat="45.87952" lon="5.40588">
        <ele>663</ele>
        <time>2023-05-27T09:05:23Z</time>
      </trkpt>
      <trkpt lat="45.87952" lon="5.40588">
        <ele>663</ele>
        <time>2023-05-27T09:05:24Z</time>
      </trkpt>
      <trkpt lat="45.87952" lon="5.40588">
        <ele>662.8</ele>
        <time>2023-05-27T09:05:25Z</time>
      </trkpt>
      <trkpt lat="45.87952" lon="5.40588">
        <ele>662.8</ele>
        <time>2023-05-27T09:05:26Z</time>
      </trkpt>
      <trkpt lat="45.87952" lon="5.40588">
        <ele>662.8</ele>
        <time>2023-05-27T09:05:27Z</time>
      </trkpt>
      <trkpt lat="45.87952" lon="5.40588">
        <ele>662.6</ele>
        <time>2023-05-27T09:05:28Z</time>
      </trkpt>
      <trkpt lat="45.87952" lon="5.40588">
        <ele>662.6</ele>
        <time>2023-05-27T09:05:29Z</time>
      </trkpt>
      <trkpt lat="45.87952" lon="5.40588">
        <ele>662.6</ele>
        <time>2023-05-27T09:05:30Z</time>
      </trkpt>
      <trkpt lat="45.87952" lon="5.40588">
        <ele>662.4</ele>
        <time>2023-05-27T09:05:31Z</time>
      </trkpt>
      <trkpt lat="45.87952" lon="5.40588">
        <ele>662.4</ele>
        <time>2023-05-27T09:05:32Z</time>
      </trkpt>
      <trkpt lat="45.87952" lon="5.40588">
        <ele>662.2</ele>
        <time>2023-05-27T09:05:33Z</time>
      </trkpt>
      <trkpt lat="45.87952" lon="5.40588">
        <ele>662.2</ele>
        <time>2023-05-27T09:05:34Z</time>
      </trkpt>
      <trkpt lat="45.87952" lon="5.40588">
        <ele>662.2</ele>
        <time>2023-05-27T09:05:35Z</time>
      </trkpt>
      <trkpt lat="45.87952" lon="5.40588">
        <ele>662</ele>
        <time>2023-05-27T09:05:36Z</time>
      </trkpt>
      <trkpt lat="45.87952" lon="5.40588">
        <ele>661.8</ele>
        <time>2023-05-27T09:05:37Z</time>
      </trkpt>
      <trkpt lat="45.87952" lon="5.40588">
        <ele>661.8</ele>
        <time>2023-05-27T09:05:38Z</time>
      </trkpt>
      <trkpt lat="45.87952" lon="5.40588">
        <ele>661.6</ele>
        <time>2023-05-27T09:05:39Z</time>
      </trkpt>
      <trkpt lat="45.87952" lon="5.40588">
        <ele>661.6</ele>
        <time>2023-05-27T09:05:40Z</time>
      </trkpt>
      <trkpt lat="45.87952" lon="5.40588">
        <ele>661.6</ele>
        <time>2023-05-27T09:05:41Z</time>
      </trkpt>
      <trkpt lat="45.87952" lon="5.40588">
        <ele>661.4</ele>
        <time>2023-05-27T09:05:42Z</time>
      </trkpt>
      <trkpt lat="45.87952" lon="5.40588">
        <ele>661.4</ele>
        <time>2023-05-27T09:05:43Z</time>
      </trkpt>
      <trkpt lat="45.87952" lon="5.40588">
        <ele>661.2</ele>
        <time>2023-05-27T09:05:44Z</time>
      </trkpt>
      <trkpt lat="45.87952" lon="5.40588">
        <ele>661.2</ele>
        <time>2023-05-27T09:05:45Z</time>
      </trkpt>
      <trkpt lat="45.87952" lon="5.40588">
        <ele>661</ele>
        <time>2023-05-27T09:05:46Z</time>
      </trkpt>
      <trkpt lat="45.87952" lon="5.40588">
        <ele>660.8</ele>
        <time>2023-05-27T09:05:47Z</time>
      </trkpt>
      <trkpt lat="45.87952" lon="5.40588">
        <ele>660.6</ele>
        <time>2023-05-27T09:05:48Z</time>
      </trkpt>
      <trkpt lat="45.87952" lon="5.40588">
        <ele>660.4</ele>
        <time>2023-05-27T09:05:49Z</time>
      </trkpt>
      <trkpt lat="45.87952" lon="5.40588">
        <ele>660.4</ele>
        <time>2023-05-27T09:05:50Z</time>
      </trkpt>
      <trkpt lat="45.87952" lon="5.40588">
        <ele>660.2</ele>
        <time>2023-05-27T09:05:51Z</time>
      </trkpt>
      <trkpt lat="45.87952" lon="5.40588">
        <ele>660.2</ele>
        <time>2023-05-27T09:05:52Z</time>
      </trkpt>
      <trkpt lat="45.87952" lon="5.40588">
        <ele>660.4</ele>
        <time>2023-05-27T09:05:53Z</time>
      </trkpt>
      <trkpt lat="45.87952" lon="5.40588">
        <ele>660.4</ele>
        <time>2023-05-27T09:05:54Z</time>
      </trkpt>
      <trkpt lat="45.87952" lon="5.40588">
        <ele>660.4</ele>
        <time>2023-05-27T09:05:55Z</time>
      </trkpt>
      <trkpt lat="45.87952" lon="5.40588">
        <ele>660.6</ele>
        <time>2023-05-27T09:05:56Z</time>
      </trkpt>
      <trkpt lat="45.87952" lon="5.40588">
        <ele>660.6</ele>
        <time>2023-05-27T09:05:57Z</time>
      </trkpt>
      <trkpt lat="45.87952" lon="5.40588">
        <ele>660.6</ele>
        <time>2023-05-27T09:05:58Z</time>
      </trkpt>
      <trkpt lat="45.87952" lon="5.40588">
        <ele>660.6</ele>
        <time>2023-05-27T09:05:59Z</time>
      </trkpt>
      <trkpt lat="45.87952" lon="5.40588">
        <ele>660.6</ele>
        <time>2023-05-27T09:06:00Z</time>
      </trkpt>
      <trkpt lat="45.87952" lon="5.40588">
        <ele>660.6</ele>
        <time>2023-05-27T09:06:01Z</time>
      </trkpt>
      <trkpt lat="45.87952" lon="5.40588">
        <ele>660.8</ele>
        <time>2023-05-27T09:06:02Z</time>
      </trkpt>
      <trkpt lat="45.87952" lon="5.40588">
        <ele>660.8</ele>
        <time>2023-05-27T09:06:03Z</time>
      </trkpt>
      <trkpt lat="45.87952" lon="5.40588">
        <ele>660.8</ele>
        <time>2023-05-27T09:06:04Z</time>
      </trkpt>
      <trkpt lat="45.87952" lon="5.40588">
        <ele>661</ele>
        <time>2023-05-27T09:06:05Z</time>
      </trkpt>
      <trkpt lat="45.87952" lon="5.40588">
        <ele>661</ele>
        <time>2023-05-27T09:06:06Z</time>
      </trkpt>
      <trkpt lat="45.87952" lon="5.40588">
        <ele>661</ele>
        <time>2023-05-27T09:06:07Z</time>
      </trkpt>
      <trkpt lat="45.87952" lon="5.40588">
        <ele>661</ele>
        <time>2023-05-27T09:06:08Z</time>
      </trkpt>
      <trkpt lat="45.87952" lon="5.40588">
        <ele>661</ele>
        <time>2023-05-27T09:06:09Z</time>
      </trkpt>
      <trkpt lat="45.87952" lon="5.40588">
        <ele>661.2</ele>
        <time>2023-05-27T09:06:10Z</time>
      </trkpt>
      <trkpt lat="45.87952" lon="5.40588">
        <ele>661.2</ele>
        <time>2023-05-27T09:06:11Z</time>
      </trkpt>
      <trkpt lat="45.87952" lon="5.40588">
        <ele>661.2</ele>
        <time>2023-05-27T09:06:12Z</time>
      </trkpt>
      <trkpt lat="45.87952" lon="5.40588">
        <ele>661.4</ele>
        <time>2023-05-27T09:06:13Z</time>
      </trkpt>
      <trkpt lat="45.87952" lon="5.40588">
        <ele>661.4</ele>
        <time>2023-05-27T09:06:14Z</time>
      </trkpt>
      <trkpt lat="45.87952" lon="5.40588">
        <ele>661.6</ele>
        <time>2023-05-27T09:06:15Z</time>
      </trkpt>
      <trkpt lat="45.87952" lon="5.40588">
        <ele>661.8</ele>
        <time>2023-05-27T09:06:16Z</time>
      </trkpt>
      <trkpt lat="45.87952" lon="5.40588">
        <ele>661.8</ele>
        <time>2023-05-27T09:06:17Z</time>
      </trkpt>
      <trkpt lat="45.87952" lon="5.40588">
        <ele>662</ele>
        <time>2023-05-27T09:06:18Z</time>
      </trkpt>
      <trkpt lat="45.87952" lon="5.40588">
        <ele>662</ele>
        <time>2023-05-27T09:06:19Z</time>
      </trkpt>
      <trkpt lat="45.87952" lon="5.40588">
        <ele>662.2</ele>
        <time>2023-05-27T09:06:20Z</time>
      </trkpt>
      <trkpt lat="45.87952" lon="5.40588">
        <ele>662.2</ele>
        <time>2023-05-27T09:06:21Z</time>
      </trkpt>
      <trkpt lat="45.87952" lon="5.40588">
        <ele>662.2</ele>
        <time>2023-05-27T09:06:22Z</time>
      </trkpt>
      <trkpt lat="45.87952" lon="5.40588">
        <ele>662.2</ele>
        <time>2023-05-27T09:06:23Z</time>
      </trkpt>
      <trkpt lat="45.87952" lon="5.40588">
        <ele>662.2</ele>
        <time>2023-05-27T09:06:24Z</time>
      </trkpt>
      <trkpt lat="45.87952" lon="5.40588">
        <ele>662.2</ele>
        <time>2023-05-27T09:06:25Z</time>
      </trkpt>
      <trkpt lat="45.87952" lon="5.40588">
        <ele>662.2</ele>
        <time>2023-05-27T09:06:26Z</time>
      </trkpt>
      <trkpt lat="45.87952" lon="5.40588">
        <ele>662.4</ele>
        <time>2023-05-27T09:06:27Z</time>
      </trkpt>
      <trkpt lat="45.87952" lon="5.40588">
        <ele>662.4</ele>
        <time>2023-05-27T09:06:28Z</time>
      </trkpt>
      <trkpt lat="45.87952" lon="5.40588">
        <ele>662.4</ele>
        <time>2023-05-27T09:06:29Z</time>
      </trkpt>
      <trkpt lat="45.87952" lon="5.40588">
        <ele>662.4</ele>
        <time>2023-05-27T09:06:30Z</time>
      </trkpt>
      <trkpt lat="45.87952" lon="5.40588">
        <ele>662.4</ele>
        <time>2023-05-27T09:06:31Z</time>
      </trkpt>
      <trkpt lat="45.87952" lon="5.40588">
        <ele>662.4</ele>
        <time>2023-05-27T09:06:32Z</time>
      </trkpt>
      <trkpt lat="45.87952" lon="5.40588">
        <ele>662.4</ele>
        <time>2023-05-27T09:06:33Z</time>
      </trkpt>
      <trkpt lat="45.87952" lon="5.40588">
        <ele>662.4</ele>
        <time>2023-05-27T09:06:34Z</time>
      </trkpt>
      <trkpt lat="45.87952" lon="5.40588">
        <ele>662.4</ele>
        <time>2023-05-27T09:06:35Z</time>
      </trkpt>
      <trkpt lat="45.87952" lon="5.40588">
        <ele>662.4</ele>
        <time>2023-05-27T09:06:36Z</time>
      </trkpt>
      <trkpt lat="45.87952" lon="5.40588">
        <ele>662.4</ele>
        <time>2023-05-27T09:06:37Z</time>
      </trkpt>
      <trkpt lat="45.87952" lon="5.40588">
        <ele>662.4</ele>
        <time>2023-05-27T09:06:38Z</time>
      </trkpt>
      <trkpt lat="45.87952" lon="5.40588">
        <ele>662.4</ele>
        <time>2023-05-27T09:06:39Z</time>
      </trkpt>
      <trkpt lat="45.87952" lon="5.40588">
        <ele>662.4</ele>
        <time>2023-05-27T09:06:40Z</time>
      </trkpt>
      <trkpt lat="45.87951" lon="5.40589">
        <ele>662.2</ele>
        <time>2023-05-27T09:06:41Z</time>
      </trkpt>
      <trkpt lat="45.87949" lon="5.40591">
        <ele>662.2</ele>
        <time>2023-05-27T09:06:42Z</time>
      </trkpt>
      <trkpt lat="45.87948" lon="5.40593">
        <ele>662</ele>
        <time>2023-05-27T09:06:43Z</time>
      </trkpt>
      <trkpt lat="45.87946" lon="5.40594">
        <ele>662</ele>
        <time>2023-05-27T09:06:44Z</time>
      </trkpt>
      <trkpt lat="45.87944" lon="5.40596">
        <ele>661.8</ele>
        <time>2023-05-27T09:06:45Z</time>
      </trkpt>
      <trkpt lat="45.87941" lon="5.406">
        <ele>661.8</ele>
        <time>2023-05-27T09:06:46Z</time>
      </trkpt>
      <trkpt lat="45.87938" lon="5.40603">
        <ele>661.8</ele>
        <time>2023-05-27T09:06:47Z</time>
      </trkpt>
      <trkpt lat="45.87934" lon="5.40607">
        <ele>661.6</ele>
        <time>2023-05-27T09:06:48Z</time>
      </trkpt>
      <trkpt lat="45.87932" lon="5.40611">
        <ele>661.6</ele>
        <time>2023-05-27T09:06:49Z</time>
      </trkpt>
      <trkpt lat="45.87928" lon="5.40616">
        <ele>661.6</ele>
        <time>2023-05-27T09:06:50Z</time>
      </trkpt>
      <trkpt lat="45.87924" lon="5.40622">
        <ele>661.6</ele>
        <time>2023-05-27T09:06:51Z</time>
      </trkpt>
      <trkpt lat="45.87919" lon="5.40628">
        <ele>661.8</ele>
        <time>2023-05-27T09:06:52Z</time>
      </trkpt>
      <trkpt lat="45.87916" lon="5.40633">
        <ele>661.8</ele>
        <time>2023-05-27T09:06:53Z</time>
      </trkpt>
      <trkpt lat="45.87911" lon="5.40639">
        <ele>662.2</ele>
        <time>2023-05-27T09:06:54Z</time>
      </trkpt>
      <trkpt lat="45.87904" lon="5.40647">
        <ele>662.4</ele>
        <time>2023-05-27T09:06:55Z</time>
      </trkpt>
      <trkpt lat="45.87899" lon="5.40653">
        <ele>662.4</ele>
        <time>2023-05-27T09:06:56Z</time>
      </trkpt>
      <trkpt lat="45.87892" lon="5.40661">
        <ele>662.6</ele>
        <time>2023-05-27T09:06:57Z</time>
      </trkpt>
      <trkpt lat="45.87884" lon="5.40667">
        <ele>662.8</ele>
        <time>2023-05-27T09:06:58Z</time>
      </trkpt>
      <trkpt lat="45.87874" lon="5.40674">
        <ele>662.8</ele>
        <time>2023-05-27T09:06:59Z</time>
      </trkpt>
      <trkpt lat="45.87866" lon="5.40676">
        <ele>663</ele>
        <time>2023-05-27T09:07:00Z</time>
      </trkpt>
      <trkpt lat="45.87856" lon="5.40677">
        <ele>663.4</ele>
        <time>2023-05-27T09:07:01Z</time>
      </trkpt>
      <trkpt lat="45.87845" lon="5.40678">
        <ele>663.6</ele>
        <time>2023-05-27T09:07:02Z</time>
      </trkpt>
      <trkpt lat="45.87834" lon="5.4068">
        <ele>663.8</ele>
        <time>2023-05-27T09:07:03Z</time>
      </trkpt>
      <trkpt lat="45.87823" lon="5.40684">
        <ele>664</ele>
        <time>2023-05-27T09:07:04Z</time>
      </trkpt>
      <trkpt lat="45.87812" lon="5.40688">
        <ele>664</ele>
        <time>2023-05-27T09:07:05Z</time>
      </trkpt>
      <trkpt lat="45.878" lon="5.40696">
        <ele>664.2</ele>
        <time>2023-05-27T09:07:06Z</time>
      </trkpt>
      <trkpt lat="45.87791" lon="5.40701">
        <ele>664.2</ele>
        <time>2023-05-27T09:07:07Z</time>
      </trkpt>
      <trkpt lat="45.87782" lon="5.40709">
        <ele>664.2</ele>
        <time>2023-05-27T09:07:08Z</time>
      </trkpt>
      <trkpt lat="45.87772" lon="5.40717">
        <ele>664.2</ele>
        <time>2023-05-27T09:07:09Z</time>
      </trkpt>
      <trkpt lat="45.87762" lon="5.40729">
        <ele>664.2</ele>
        <time>2023-05-27T09:07:10Z</time>
      </trkpt>
      <trkpt lat="45.87755" lon="5.40741">
        <ele>664.2</ele>
        <time>2023-05-27T09:07:11Z</time>
      </trkpt>
      <trkpt lat="45.87749" lon="5.40754">
        <ele>664</ele>
        <time>2023-05-27T09:07:12Z</time>
      </trkpt>
      <trkpt lat="45.87744" lon="5.40765">
        <ele>663.8</ele>
        <time>2023-05-27T09:07:13Z</time>
      </trkpt>
      <trkpt lat="45.87739" lon="5.40783">
        <ele>663.6</ele>
        <time>2023-05-27T09:07:14Z</time>
      </trkpt>
      <trkpt lat="45.87737" lon="5.40799">
        <ele>663.6</ele>
        <time>2023-05-27T09:07:15Z</time>
      </trkpt>
      <trkpt lat="45.87737" lon="5.40814">
        <ele>663.4</ele>
        <time>2023-05-27T09:07:16Z</time>
      </trkpt>
      <trkpt lat="45.87738" lon="5.40827">
        <ele>663.4</ele>
        <time>2023-05-27T09:07:17Z</time>
      </trkpt>
      <trkpt lat="45.87741" lon="5.40847">
        <ele>663.4</ele>
        <time>2023-05-27T09:07:18Z</time>
      </trkpt>
      <trkpt lat="45.87744" lon="5.40864">
        <ele>663</ele>
        <time>2023-05-27T09:07:19Z</time>
      </trkpt>
      <trkpt lat="45.87745" lon="5.40882">
        <ele>662.8</ele>
        <time>2023-05-27T09:07:21Z</time>
      </trkpt>
      <trkpt lat="45.87746" lon="5.409">
        <ele>662.4</ele>
        <time>2023-05-27T09:07:22Z</time>
      </trkpt>
      <trkpt lat="45.87746" lon="5.40918">
        <ele>662</ele>
        <time>2023-05-27T09:07:23Z</time>
      </trkpt>
      <trkpt lat="45.87745" lon="5.40936">
        <ele>661.6</ele>
        <time>2023-05-27T09:07:24Z</time>
      </trkpt>
      <trkpt lat="45.87742" lon="5.40953">
        <ele>661</ele>
        <time>2023-05-27T09:07:25Z</time>
      </trkpt>
      <trkpt lat="45.87739" lon="5.4097">
        <ele>660.6</ele>
        <time>2023-05-27T09:07:26Z</time>
      </trkpt>
      <trkpt lat="45.87734" lon="5.40988">
        <ele>660.2</ele>
        <time>2023-05-27T09:07:27Z</time>
      </trkpt>
      <trkpt lat="45.8773" lon="5.41005">
        <ele>659.8</ele>
        <time>2023-05-27T09:07:28Z</time>
      </trkpt>
      <trkpt lat="45.87725" lon="5.41023">
        <ele>659.4</ele>
        <time>2023-05-27T09:07:29Z</time>
      </trkpt>
      <trkpt lat="45.8772" lon="5.4104">
        <ele>658.4</ele>
        <time>2023-05-27T09:07:30Z</time>
      </trkpt>
      <trkpt lat="45.87716" lon="5.41058">
        <ele>657.4</ele>
        <time>2023-05-27T09:07:31Z</time>
      </trkpt>
      <trkpt lat="45.87711" lon="5.41076">
        <ele>656</ele>
        <time>2023-05-27T09:07:32Z</time>
      </trkpt>
      <trkpt lat="45.87707" lon="5.41094">
        <ele>655.4</ele>
        <time>2023-05-27T09:07:33Z</time>
      </trkpt>
      <trkpt lat="45.87702" lon="5.41111">
        <ele>654.8</ele>
        <time>2023-05-27T09:07:34Z</time>
      </trkpt>
      <trkpt lat="45.87698" lon="5.41127">
        <ele>654.2</ele>
        <time>2023-05-27T09:07:35Z</time>
      </trkpt>
      <trkpt lat="45.87696" lon="5.41145">
        <ele>653.4</ele>
        <time>2023-05-27T09:07:36Z</time>
      </trkpt>
      <trkpt lat="45.87696" lon="5.41163">
        <ele>652.2</ele>
        <time>2023-05-27T09:07:37Z</time>
      </trkpt>
      <trkpt lat="45.87697" lon="5.41177">
        <ele>651.6</ele>
        <time>2023-05-27T09:07:38Z</time>
      </trkpt>
      <trkpt lat="45.87699" lon="5.41198">
        <ele>650.4</ele>
        <time>2023-05-27T09:07:39Z</time>
      </trkpt>
      <trkpt lat="45.87701" lon="5.41216">
        <ele>649.8</ele>
        <time>2023-05-27T09:07:40Z</time>
      </trkpt>
      <trkpt lat="45.87703" lon="5.41234">
        <ele>649</ele>
        <time>2023-05-27T09:07:41Z</time>
      </trkpt>
      <trkpt lat="45.87704" lon="5.41251">
        <ele>648.6</ele>
        <time>2023-05-27T09:07:42Z</time>
      </trkpt>
      <trkpt lat="45.87705" lon="5.41264">
        <ele>647.2</ele>
        <time>2023-05-27T09:07:43Z</time>
      </trkpt>
      <trkpt lat="45.87706" lon="5.41285">
        <ele>646</ele>
        <time>2023-05-27T09:07:44Z</time>
      </trkpt>
      <trkpt lat="45.87707" lon="5.41302">
        <ele>645.2</ele>
        <time>2023-05-27T09:07:45Z</time>
      </trkpt>
      <trkpt lat="45.87706" lon="5.4132">
        <ele>644</ele>
        <time>2023-05-27T09:07:46Z</time>
      </trkpt>
      <trkpt lat="45.87705" lon="5.41337">
        <ele>643.4</ele>
        <time>2023-05-27T09:07:47Z</time>
      </trkpt>
      <trkpt lat="45.87704" lon="5.41354">
        <ele>642.2</ele>
        <time>2023-05-27T09:07:48Z</time>
      </trkpt>
      <trkpt lat="45.87702" lon="5.4137">
        <ele>641.2</ele>
        <time>2023-05-27T09:07:49Z</time>
      </trkpt>
      <trkpt lat="45.877" lon="5.41384">
        <ele>640</ele>
        <time>2023-05-27T09:07:50Z</time>
      </trkpt>
      <trkpt lat="45.87698" lon="5.41398">
        <ele>639.4</ele>
        <time>2023-05-27T09:07:51Z</time>
      </trkpt>
      <trkpt lat="45.87696" lon="5.41412">
        <ele>639.2</ele>
        <time>2023-05-27T09:07:52Z</time>
      </trkpt>
      <trkpt lat="45.87694" lon="5.41426">
        <ele>637.8</ele>
        <time>2023-05-27T09:07:53Z</time>
      </trkpt>
      <trkpt lat="45.87692" lon="5.41439">
        <ele>637.2</ele>
        <time>2023-05-27T09:07:54Z</time>
      </trkpt>
      <trkpt lat="45.87689" lon="5.41453">
        <ele>635.8</ele>
        <time>2023-05-27T09:07:55Z</time>
      </trkpt>
      <trkpt lat="45.87686" lon="5.41467">
        <ele>635.4</ele>
        <time>2023-05-27T09:07:56Z</time>
      </trkpt>
      <trkpt lat="45.87684" lon="5.41481">
        <ele>633.2</ele>
        <time>2023-05-27T09:07:57Z</time>
      </trkpt>
      <trkpt lat="45.87682" lon="5.41494">
        <ele>632.6</ele>
        <time>2023-05-27T09:07:58Z</time>
      </trkpt>
      <trkpt lat="45.8768" lon="5.41508">
        <ele>631.6</ele>
        <time>2023-05-27T09:07:59Z</time>
      </trkpt>
      <trkpt lat="45.87677" lon="5.41521">
        <ele>630.6</ele>
        <time>2023-05-27T09:08:00Z</time>
      </trkpt>
      <trkpt lat="45.87675" lon="5.4153">
        <ele>630</ele>
        <time>2023-05-27T09:08:01Z</time>
      </trkpt>
      <trkpt lat="45.87672" lon="5.41541">
        <ele>629</ele>
        <time>2023-05-27T09:08:02Z</time>
      </trkpt>
      <trkpt lat="45.8767" lon="5.41552">
        <ele>628.2</ele>
        <time>2023-05-27T09:08:03Z</time>
      </trkpt>
      <trkpt lat="45.87669" lon="5.41559">
        <ele>627.2</ele>
        <time>2023-05-27T09:08:04Z</time>
      </trkpt>
      <trkpt lat="45.87667" lon="5.41565">
        <ele>626.8</ele>
        <time>2023-05-27T09:08:05Z</time>
      </trkpt>
      <trkpt lat="45.87666" lon="5.41568">
        <ele>625.6</ele>
        <time>2023-05-27T09:08:06Z</time>
      </trkpt>
      <trkpt lat="45.87664" lon="5.41571">
        <ele>624.6</ele>
        <time>2023-05-27T09:08:07Z</time>
      </trkpt>
      <trkpt lat="45.87662" lon="5.41575">
        <ele>623.8</ele>
        <time>2023-05-27T09:08:08Z</time>
      </trkpt>
      <trkpt lat="45.87662" lon="5.41578">
        <ele>622.6</ele>
        <time>2023-05-27T09:08:09Z</time>
      </trkpt>
      <trkpt lat="45.87661" lon="5.41581">
        <ele>621.6</ele>
        <time>2023-05-27T09:08:10Z</time>
      </trkpt>
      <trkpt lat="45.87661" lon="5.41584">
        <ele>620.4</ele>
        <time>2023-05-27T09:08:11Z</time>
      </trkpt>
      <trkpt lat="45.8766" lon="5.41587">
        <ele>620</ele>
        <time>2023-05-27T09:08:12Z</time>
      </trkpt>
      <trkpt lat="45.87659" lon="5.41591">
        <ele>618.4</ele>
        <time>2023-05-27T09:08:13Z</time>
      </trkpt>
      <trkpt lat="45.87658" lon="5.41595">
        <ele>617.2</ele>
        <time>2023-05-27T09:08:14Z</time>
      </trkpt>
      <trkpt lat="45.87658" lon="5.41599">
        <ele>616.4</ele>
        <time>2023-05-27T09:08:15Z</time>
      </trkpt>
      <trkpt lat="45.87657" lon="5.41604">
        <ele>615.2</ele>
        <time>2023-05-27T09:08:16Z</time>
      </trkpt>
      <trkpt lat="45.87656" lon="5.4161">
        <ele>614.6</ele>
        <time>2023-05-27T09:08:17Z</time>
      </trkpt>
      <trkpt lat="45.87655" lon="5.41617">
        <ele>613.4</ele>
        <time>2023-05-27T09:08:18Z</time>
      </trkpt>
      <trkpt lat="45.87656" lon="5.41624">
        <ele>613</ele>
        <time>2023-05-27T09:08:19Z</time>
      </trkpt>
      <trkpt lat="45.87656" lon="5.41632">
        <ele>612</ele>
        <time>2023-05-27T09:08:20Z</time>
      </trkpt>
      <trkpt lat="45.87657" lon="5.41639">
        <ele>611.4</ele>
        <time>2023-05-27T09:08:21Z</time>
      </trkpt>
      <trkpt lat="45.87658" lon="5.4165">
        <ele>610.6</ele>
        <time>2023-05-27T09:08:22Z</time>
      </trkpt>
      <trkpt lat="45.87658" lon="5.4166">
        <ele>609.4</ele>
        <time>2023-05-27T09:08:23Z</time>
      </trkpt>
      <trkpt lat="45.87657" lon="5.41671">
        <ele>609</ele>
        <time>2023-05-27T09:08:24Z</time>
      </trkpt>
      <trkpt lat="45.87657" lon="5.4168">
        <ele>607.8</ele>
        <time>2023-05-27T09:08:25Z</time>
      </trkpt>
      <trkpt lat="45.87655" lon="5.41691">
        <ele>607.2</ele>
        <time>2023-05-27T09:08:26Z</time>
      </trkpt>
      <trkpt lat="45.87655" lon="5.41703">
        <ele>606.6</ele>
        <time>2023-05-27T09:08:27Z</time>
      </trkpt>
      <trkpt lat="45.87654" lon="5.41716">
        <ele>606.2</ele>
        <time>2023-05-27T09:08:28Z</time>
      </trkpt>
      <trkpt lat="45.87655" lon="5.4173">
        <ele>605.6</ele>
        <time>2023-05-27T09:08:29Z</time>
      </trkpt>
      <trkpt lat="45.87657" lon="5.41743">
        <ele>604.8</ele>
        <time>2023-05-27T09:08:30Z</time>
      </trkpt>
      <trkpt lat="45.87658" lon="5.41757">
        <ele>604.8</ele>
        <time>2023-05-27T09:08:31Z</time>
      </trkpt>
      <trkpt lat="45.8766" lon="5.41771">
        <ele>604.2</ele>
        <time>2023-05-27T09:08:32Z</time>
      </trkpt>
      <trkpt lat="45.87662" lon="5.41785">
        <ele>603.8</ele>
        <time>2023-05-27T09:08:33Z</time>
      </trkpt>
      <trkpt lat="45.87664" lon="5.41799">
        <ele>602.6</ele>
        <time>2023-05-27T09:08:34Z</time>
      </trkpt>
      <trkpt lat="45.87666" lon="5.41813">
        <ele>602.2</ele>
        <time>2023-05-27T09:08:35Z</time>
      </trkpt>
      <trkpt lat="45.87667" lon="5.41828">
        <ele>601.6</ele>
        <time>2023-05-27T09:08:36Z</time>
      </trkpt>
      <trkpt lat="45.87669" lon="5.41842">
        <ele>601.2</ele>
        <time>2023-05-27T09:08:37Z</time>
      </trkpt>
      <trkpt lat="45.8767" lon="5.41854">
        <ele>601</ele>
        <time>2023-05-27T09:08:38Z</time>
      </trkpt>
      <trkpt lat="45.87671" lon="5.41866">
        <ele>600.4</ele>
        <time>2023-05-27T09:08:39Z</time>
      </trkpt>
      <trkpt lat="45.87671" lon="5.41876">
        <ele>600.2</ele>
        <time>2023-05-27T09:08:40Z</time>
      </trkpt>
      <trkpt lat="45.87672" lon="5.41887">
        <ele>598.8</ele>
        <time>2023-05-27T09:08:41Z</time>
      </trkpt>
      <trkpt lat="45.87672" lon="5.41898">
        <ele>598.4</ele>
        <time>2023-05-27T09:08:42Z</time>
      </trkpt>
      <trkpt lat="45.87674" lon="5.4191">
        <ele>597.8</ele>
        <time>2023-05-27T09:08:43Z</time>
      </trkpt>
      <trkpt lat="45.87675" lon="5.41918">
        <ele>597</ele>
        <time>2023-05-27T09:08:44Z</time>
      </trkpt>
      <trkpt lat="45.87676" lon="5.41929">
        <ele>596.6</ele>
        <time>2023-05-27T09:08:45Z</time>
      </trkpt>
      <trkpt lat="45.87677" lon="5.41938">
        <ele>595.6</ele>
        <time>2023-05-27T09:08:46Z</time>
      </trkpt>
      <trkpt lat="45.87678" lon="5.41948">
        <ele>595.2</ele>
        <time>2023-05-27T09:08:47Z</time>
      </trkpt>
      <trkpt lat="45.87679" lon="5.41957">
        <ele>594.2</ele>
        <time>2023-05-27T09:08:48Z</time>
      </trkpt>
      <trkpt lat="45.87681" lon="5.41967">
        <ele>594</ele>
        <time>2023-05-27T09:08:49Z</time>
      </trkpt>
      <trkpt lat="45.87682" lon="5.41976">
        <ele>593.4</ele>
        <time>2023-05-27T09:08:50Z</time>
      </trkpt>
      <trkpt lat="45.87685" lon="5.41986">
        <ele>593.2</ele>
        <time>2023-05-27T09:08:51Z</time>
      </trkpt>
      <trkpt lat="45.87687" lon="5.41993">
        <ele>593</ele>
        <time>2023-05-27T09:08:52Z</time>
      </trkpt>
      <trkpt lat="45.87689" lon="5.41999">
        <ele>592.8</ele>
        <time>2023-05-27T09:08:53Z</time>
      </trkpt>
      <trkpt lat="45.87691" lon="5.42006">
        <ele>592.6</ele>
        <time>2023-05-27T09:08:54Z</time>
      </trkpt>
      <trkpt lat="45.87692" lon="5.42012">
        <ele>592</ele>
        <time>2023-05-27T09:08:55Z</time>
      </trkpt>
      <trkpt lat="45.87694" lon="5.42018">
        <ele>591.6</ele>
        <time>2023-05-27T09:08:56Z</time>
      </trkpt>
      <trkpt lat="45.87696" lon="5.42025">
        <ele>590.8</ele>
        <time>2023-05-27T09:08:57Z</time>
      </trkpt>
      <trkpt lat="45.87697" lon="5.42031">
        <ele>590.6</ele>
        <time>2023-05-27T09:08:58Z</time>
      </trkpt>
      <trkpt lat="45.87699" lon="5.42039">
        <ele>590</ele>
        <time>2023-05-27T09:08:59Z</time>
      </trkpt>
      <trkpt lat="45.87701" lon="5.42046">
        <ele>589.4</ele>
        <time>2023-05-27T09:09:00Z</time>
      </trkpt>
      <trkpt lat="45.87703" lon="5.42054">
        <ele>589.2</ele>
        <time>2023-05-27T09:09:01Z</time>
      </trkpt>
      <trkpt lat="45.87705" lon="5.42064">
        <ele>588.6</ele>
        <time>2023-05-27T09:09:02Z</time>
      </trkpt>
      <trkpt lat="45.87706" lon="5.42072">
        <ele>588.4</ele>
        <time>2023-05-27T09:09:03Z</time>
      </trkpt>
      <trkpt lat="45.87707" lon="5.42077">
        <ele>587.8</ele>
        <time>2023-05-27T09:09:04Z</time>
      </trkpt>
      <trkpt lat="45.87708" lon="5.42084">
        <ele>587.6</ele>
        <time>2023-05-27T09:09:05Z</time>
      </trkpt>
      <trkpt lat="45.87708" lon="5.42089">
        <ele>587.2</ele>
        <time>2023-05-27T09:09:06Z</time>
      </trkpt>
      <trkpt lat="45.87709" lon="5.42097">
        <ele>587</ele>
        <time>2023-05-27T09:09:07Z</time>
      </trkpt>
      <trkpt lat="45.87709" lon="5.42105">
        <ele>586.8</ele>
        <time>2023-05-27T09:09:08Z</time>
      </trkpt>
      <trkpt lat="45.8771" lon="5.42114">
        <ele>586.2</ele>
        <time>2023-05-27T09:09:09Z</time>
      </trkpt>
      <trkpt lat="45.8771" lon="5.42125">
        <ele>586</ele>
        <time>2023-05-27T09:09:10Z</time>
      </trkpt>
      <trkpt lat="45.8771" lon="5.42136">
        <ele>585.6</ele>
        <time>2023-05-27T09:09:11Z</time>
      </trkpt>
      <trkpt lat="45.87709" lon="5.42149">
        <ele>585.4</ele>
        <time>2023-05-27T09:09:12Z</time>
      </trkpt>
      <trkpt lat="45.87708" lon="5.42158">
        <ele>584.8</ele>
        <time>2023-05-27T09:09:13Z</time>
      </trkpt>
      <trkpt lat="45.87705" lon="5.4217">
        <ele>584.2</ele>
        <time>2023-05-27T09:09:14Z</time>
      </trkpt>
      <trkpt lat="45.87702" lon="5.4218">
        <ele>584</ele>
        <time>2023-05-27T09:09:15Z</time>
      </trkpt>
      <trkpt lat="45.87695" lon="5.42191">
        <ele>583.6</ele>
        <time>2023-05-27T09:09:16Z</time>
      </trkpt>
      <trkpt lat="45.87689" lon="5.42196">
        <ele>583.2</ele>
        <time>2023-05-27T09:09:17Z</time>
      </trkpt>
      <trkpt lat="45.87682" lon="5.42203">
        <ele>583</ele>
        <time>2023-05-27T09:09:18Z</time>
      </trkpt>
      <trkpt lat="45.87674" lon="5.42209">
        <ele>582.6</ele>
        <time>2023-05-27T09:09:19Z</time>
      </trkpt>
      <trkpt lat="45.87665" lon="5.42215">
        <ele>582</ele>
        <time>2023-05-27T09:09:20Z</time>
      </trkpt>
      <trkpt lat="45.87656" lon="5.42222">
        <ele>581.2</ele>
        <time>2023-05-27T09:09:21Z</time>
      </trkpt>
      <trkpt lat="45.87647" lon="5.42226">
        <ele>580.6</ele>
        <time>2023-05-27T09:09:22Z</time>
      </trkpt>
      <trkpt lat="45.8764" lon="5.42228">
        <ele>579.6</ele>
        <time>2023-05-27T09:09:23Z</time>
      </trkpt>
      <trkpt lat="45.87631" lon="5.42231">
        <ele>579.4</ele>
        <time>2023-05-27T09:09:24Z</time>
      </trkpt>
      <trkpt lat="45.87619" lon="5.42234">
        <ele>579</ele>
        <time>2023-05-27T09:09:25Z</time>
      </trkpt>
      <trkpt lat="45.87611" lon="5.42236">
        <ele>579</ele>
        <time>2023-05-27T09:09:26Z</time>
      </trkpt>
      <trkpt lat="45.87602" lon="5.42238">
        <ele>578.4</ele>
        <time>2023-05-27T09:09:27Z</time>
      </trkpt>
      <trkpt lat="45.87591" lon="5.42241">
        <ele>577.6</ele>
        <time>2023-05-27T09:09:28Z</time>
      </trkpt>
      <trkpt lat="45.87581" lon="5.42242">
        <ele>577.4</ele>
        <time>2023-05-27T09:09:29Z</time>
      </trkpt>
      <trkpt lat="45.8757" lon="5.42243">
        <ele>577.2</ele>
        <time>2023-05-27T09:09:30Z</time>
      </trkpt>
      <trkpt lat="45.87559" lon="5.42242">
        <ele>577</ele>
        <time>2023-05-27T09:09:31Z</time>
      </trkpt>
      <trkpt lat="45.87545" lon="5.42241">
        <ele>576.8</ele>
        <time>2023-05-27T09:09:32Z</time>
      </trkpt>
      <trkpt lat="45.87536" lon="5.42241">
        <ele>576.8</ele>
        <time>2023-05-27T09:09:33Z</time>
      </trkpt>
      <trkpt lat="45.87524" lon="5.42241">
        <ele>576.4</ele>
        <time>2023-05-27T09:09:34Z</time>
      </trkpt>
      <trkpt lat="45.8751" lon="5.4224">
        <ele>576.2</ele>
        <time>2023-05-27T09:09:35Z</time>
      </trkpt>
      <trkpt lat="45.87497" lon="5.42239">
        <ele>575.6</ele>
        <time>2023-05-27T09:09:36Z</time>
      </trkpt>
      <trkpt lat="45.87484" lon="5.42239">
        <ele>575.2</ele>
        <time>2023-05-27T09:09:37Z</time>
      </trkpt>
      <trkpt lat="45.87474" lon="5.42238">
        <ele>574.8</ele>
        <time>2023-05-27T09:09:38Z</time>
      </trkpt>
      <trkpt lat="45.87462" lon="5.42236">
        <ele>573.8</ele>
        <time>2023-05-27T09:09:39Z</time>
      </trkpt>
      <trkpt lat="45.87447" lon="5.42234">
        <ele>573.6</ele>
        <time>2023-05-27T09:09:40Z</time>
      </trkpt>
      <trkpt lat="45.87434" lon="5.42231">
        <ele>573.2</ele>
        <time>2023-05-27T09:09:41Z</time>
      </trkpt>
      <trkpt lat="45.87423" lon="5.42228">
        <ele>572.8</ele>
        <time>2023-05-27T09:09:42Z</time>
      </trkpt>
      <trkpt lat="45.87413" lon="5.42226">
        <ele>571.8</ele>
        <time>2023-05-27T09:09:43Z</time>
      </trkpt>
      <trkpt lat="45.87401" lon="5.42222">
        <ele>570.8</ele>
        <time>2023-05-27T09:09:44Z</time>
      </trkpt>
      <trkpt lat="45.87391" lon="5.42218">
        <ele>570.6</ele>
        <time>2023-05-27T09:09:45Z</time>
      </trkpt>
      <trkpt lat="45.87382" lon="5.42214">
        <ele>569.2</ele>
        <time>2023-05-27T09:09:46Z</time>
      </trkpt>
      <trkpt lat="45.87375" lon="5.42212">
        <ele>569</ele>
        <time>2023-05-27T09:09:47Z</time>
      </trkpt>
      <trkpt lat="45.87366" lon="5.4221">
        <ele>568.2</ele>
        <time>2023-05-27T09:09:48Z</time>
      </trkpt>
      <trkpt lat="45.87354" lon="5.42211">
        <ele>567.8</ele>
        <time>2023-05-27T09:09:49Z</time>
      </trkpt>
      <trkpt lat="45.87344" lon="5.42214">
        <ele>567.2</ele>
        <time>2023-05-27T09:09:50Z</time>
      </trkpt>
      <trkpt lat="45.87335" lon="5.42221">
        <ele>566</ele>
        <time>2023-05-27T09:09:51Z</time>
      </trkpt>
      <trkpt lat="45.87327" lon="5.42227">
        <ele>565.4</ele>
        <time>2023-05-27T09:09:52Z</time>
      </trkpt>
      <trkpt lat="45.87319" lon="5.42235">
        <ele>564.2</ele>
        <time>2023-05-27T09:09:53Z</time>
      </trkpt>
      <trkpt lat="45.87308" lon="5.42242">
        <ele>563.6</ele>
        <time>2023-05-27T09:09:54Z</time>
      </trkpt>
      <trkpt lat="45.873" lon="5.42247">
        <ele>562.4</ele>
        <time>2023-05-27T09:09:55Z</time>
      </trkpt>
      <trkpt lat="45.87293" lon="5.42249">
        <ele>562</ele>
        <time>2023-05-27T09:09:56Z</time>
      </trkpt>
      <trkpt lat="45.87283" lon="5.42251">
        <ele>561</ele>
        <time>2023-05-27T09:09:57Z</time>
      </trkpt>
      <trkpt lat="45.87274" lon="5.42253">
        <ele>560.2</ele>
        <time>2023-05-27T09:09:58Z</time>
      </trkpt>
      <trkpt lat="45.87262" lon="5.42255">
        <ele>559.4</ele>
        <time>2023-05-27T09:09:59Z</time>
      </trkpt>
      <trkpt lat="45.87255" lon="5.42256">
        <ele>558.2</ele>
        <time>2023-05-27T09:10:00Z</time>
      </trkpt>
      <trkpt lat="45.87246" lon="5.42258">
        <ele>557.8</ele>
        <time>2023-05-27T09:10:01Z</time>
      </trkpt>
      <trkpt lat="45.87238" lon="5.4226">
        <ele>557.2</ele>
        <time>2023-05-27T09:10:02Z</time>
      </trkpt>
      <trkpt lat="45.8723" lon="5.42263">
        <ele>556.6</ele>
        <time>2023-05-27T09:10:03Z</time>
      </trkpt>
      <trkpt lat="45.87221" lon="5.42268">
        <ele>555.4</ele>
        <time>2023-05-27T09:10:04Z</time>
      </trkpt>
      <trkpt lat="45.87213" lon="5.42274">
        <ele>554.4</ele>
        <time>2023-05-27T09:10:05Z</time>
      </trkpt>
      <trkpt lat="45.87206" lon="5.4228">
        <ele>554</ele>
        <time>2023-05-27T09:10:06Z</time>
      </trkpt>
      <trkpt lat="45.87198" lon="5.42287">
        <ele>553.2</ele>
        <time>2023-05-27T09:10:07Z</time>
      </trkpt>
      <trkpt lat="45.87189" lon="5.42294">
        <ele>552.6</ele>
        <time>2023-05-27T09:10:08Z</time>
      </trkpt>
      <trkpt lat="45.8718" lon="5.42301">
        <ele>551.4</ele>
        <time>2023-05-27T09:10:09Z</time>
      </trkpt>
      <trkpt lat="45.87171" lon="5.42307">
        <ele>551</ele>
        <time>2023-05-27T09:10:10Z</time>
      </trkpt>
      <trkpt lat="45.87161" lon="5.42313">
        <ele>550</ele>
        <time>2023-05-27T09:10:11Z</time>
      </trkpt>
      <trkpt lat="45.87151" lon="5.42319">
        <ele>549</ele>
        <time>2023-05-27T09:10:12Z</time>
      </trkpt>
      <trkpt lat="45.8714" lon="5.42324">
        <ele>548.6</ele>
        <time>2023-05-27T09:10:13Z</time>
      </trkpt>
      <trkpt lat="45.8713" lon="5.42327">
        <ele>548</ele>
        <time>2023-05-27T09:10:14Z</time>
      </trkpt>
      <trkpt lat="45.87119" lon="5.4233">
        <ele>547.6</ele>
        <time>2023-05-27T09:10:15Z</time>
      </trkpt>
      <trkpt lat="45.87107" lon="5.42331">
        <ele>546.6</ele>
        <time>2023-05-27T09:10:16Z</time>
      </trkpt>
      <trkpt lat="45.87096" lon="5.4233">
        <ele>546.2</ele>
        <time>2023-05-27T09:10:17Z</time>
      </trkpt>
      <trkpt lat="45.87085" lon="5.42327">
        <ele>544.6</ele>
        <time>2023-05-27T09:10:18Z</time>
      </trkpt>
      <trkpt lat="45.87075" lon="5.42323">
        <ele>544.2</ele>
        <time>2023-05-27T09:10:19Z</time>
      </trkpt>
      <trkpt lat="45.87066" lon="5.42316">
        <ele>543</ele>
        <time>2023-05-27T09:10:20Z</time>
      </trkpt>
      <trkpt lat="45.87057" lon="5.42307">
        <ele>541.8</ele>
        <time>2023-05-27T09:10:21Z</time>
      </trkpt>
      <trkpt lat="45.87052" lon="5.42295">
        <ele>541.2</ele>
        <time>2023-05-27T09:10:22Z</time>
      </trkpt>
      <trkpt lat="45.8705" lon="5.42281">
        <ele>540</ele>
        <time>2023-05-27T09:10:23Z</time>
      </trkpt>
      <trkpt lat="45.8705" lon="5.42266">
        <ele>539.4</ele>
        <time>2023-05-27T09:10:24Z</time>
      </trkpt>
      <trkpt lat="45.87051" lon="5.42251">
        <ele>538.4</ele>
        <time>2023-05-27T09:10:25Z</time>
      </trkpt>
      <trkpt lat="45.87056" lon="5.42237">
        <ele>538</ele>
        <time>2023-05-27T09:10:26Z</time>
      </trkpt>
      <trkpt lat="45.87064" lon="5.42225">
        <ele>537</ele>
        <time>2023-05-27T09:10:27Z</time>
      </trkpt>
      <trkpt lat="45.87074" lon="5.42215">
        <ele>535.8</ele>
        <time>2023-05-27T09:10:28Z</time>
      </trkpt>
      <trkpt lat="45.87084" lon="5.42205">
        <ele>535.4</ele>
        <time>2023-05-27T09:10:29Z</time>
      </trkpt>
      <trkpt lat="45.87094" lon="5.42196">
        <ele>534.6</ele>
        <time>2023-05-27T09:10:30Z</time>
      </trkpt>
      <trkpt lat="45.87105" lon="5.42187">
        <ele>534.2</ele>
        <time>2023-05-27T09:10:31Z</time>
      </trkpt>
      <trkpt lat="45.87117" lon="5.4218">
        <ele>533.2</ele>
        <time>2023-05-27T09:10:32Z</time>
      </trkpt>
      <trkpt lat="45.87128" lon="5.42173">
        <ele>532.6</ele>
        <time>2023-05-27T09:10:33Z</time>
      </trkpt>
      <trkpt lat="45.8714" lon="5.42167">
        <ele>531.2</ele>
        <time>2023-05-27T09:10:34Z</time>
      </trkpt>
      <trkpt lat="45.87152" lon="5.4216">
        <ele>530.4</ele>
        <time>2023-05-27T09:10:35Z</time>
      </trkpt>
      <trkpt lat="45.87164" lon="5.42154">
        <ele>530.2</ele>
        <time>2023-05-27T09:10:36Z</time>
      </trkpt>
      <trkpt lat="45.87176" lon="5.42147">
        <ele>529.2</ele>
        <time>2023-05-27T09:10:37Z</time>
      </trkpt>
      <trkpt lat="45.87189" lon="5.4214">
        <ele>529</ele>
        <time>2023-05-27T09:10:38Z</time>
      </trkpt>
      <trkpt lat="45.87201" lon="5.42135">
        <ele>528</ele>
        <time>2023-05-27T09:10:39Z</time>
      </trkpt>
      <trkpt lat="45.87213" lon="5.42131">
        <ele>527.6</ele>
        <time>2023-05-27T09:10:40Z</time>
      </trkpt>
      <trkpt lat="45.87225" lon="5.42126">
        <ele>526.6</ele>
        <time>2023-05-27T09:10:41Z</time>
      </trkpt>
      <trkpt lat="45.87237" lon="5.42121">
        <ele>525.6</ele>
        <time>2023-05-27T09:10:42Z</time>
      </trkpt>
      <trkpt lat="45.87259" lon="5.42108">
        <ele>523.4</ele>
        <time>2023-05-27T09:10:44Z</time>
      </trkpt>
      <trkpt lat="45.87268" lon="5.421">
        <ele>523</ele>
        <time>2023-05-27T09:10:45Z</time>
      </trkpt>
      <trkpt lat="45.87274" lon="5.42091">
        <ele>522.4</ele>
        <time>2023-05-27T09:10:46Z</time>
      </trkpt>
      <trkpt lat="45.8728" lon="5.42079">
        <ele>521.8</ele>
        <time>2023-05-27T09:10:47Z</time>
      </trkpt>
      <trkpt lat="45.87281" lon="5.42063">
        <ele>520.8</ele>
        <time>2023-05-27T09:10:48Z</time>
      </trkpt>
      <trkpt lat="45.87279" lon="5.42047">
        <ele>520.2</ele>
        <time>2023-05-27T09:10:49Z</time>
      </trkpt>
      <trkpt lat="45.87277" lon="5.42032">
        <ele>519.8</ele>
        <time>2023-05-27T09:10:50Z</time>
      </trkpt>
      <trkpt lat="45.87274" lon="5.42016">
        <ele>518.4</ele>
        <time>2023-05-27T09:10:51Z</time>
      </trkpt>
      <trkpt lat="45.87272" lon="5.42001">
        <ele>518</ele>
        <time>2023-05-27T09:10:52Z</time>
      </trkpt>
      <trkpt lat="45.8727" lon="5.41983">
        <ele>517.4</ele>
        <time>2023-05-27T09:10:53Z</time>
      </trkpt>
      <trkpt lat="45.87268" lon="5.41966">
        <ele>517.2</ele>
        <time>2023-05-27T09:10:54Z</time>
      </trkpt>
      <trkpt lat="45.87266" lon="5.41949">
        <ele>516.2</ele>
        <time>2023-05-27T09:10:55Z</time>
      </trkpt>
      <trkpt lat="45.8726" lon="5.41934">
        <ele>515.2</ele>
        <time>2023-05-27T09:10:56Z</time>
      </trkpt>
      <trkpt lat="45.87253" lon="5.41917">
        <ele>514.8</ele>
        <time>2023-05-27T09:10:57Z</time>
      </trkpt>
      <trkpt lat="45.87246" lon="5.41908">
        <ele>513</ele>
        <time>2023-05-27T09:10:58Z</time>
      </trkpt>
      <trkpt lat="45.87237" lon="5.41897">
        <ele>512.2</ele>
        <time>2023-05-27T09:10:59Z</time>
      </trkpt>
      <trkpt lat="45.87228" lon="5.41886">
        <ele>510.8</ele>
        <time>2023-05-27T09:11:00Z</time>
      </trkpt>
      <trkpt lat="45.8722" lon="5.41876">
        <ele>510.2</ele>
        <time>2023-05-27T09:11:01Z</time>
      </trkpt>
      <trkpt lat="45.87211" lon="5.41867">
        <ele>509</ele>
        <time>2023-05-27T09:11:02Z</time>
      </trkpt>
      <trkpt lat="45.872" lon="5.41856">
        <ele>507.8</ele>
        <time>2023-05-27T09:11:03Z</time>
      </trkpt>
      <trkpt lat="45.87194" lon="5.41847">
        <ele>507</ele>
        <time>2023-05-27T09:11:04Z</time>
      </trkpt>
      <trkpt lat="45.87186" lon="5.41834">
        <ele>505.8</ele>
        <time>2023-05-27T09:11:05Z</time>
      </trkpt>
      <trkpt lat="45.87179" lon="5.4182">
        <ele>505.2</ele>
        <time>2023-05-27T09:11:06Z</time>
      </trkpt>
      <trkpt lat="45.87174" lon="5.41805">
        <ele>503.6</ele>
        <time>2023-05-27T09:11:07Z</time>
      </trkpt>
      <trkpt lat="45.8717" lon="5.41789">
        <ele>503.2</ele>
        <time>2023-05-27T09:11:08Z</time>
      </trkpt>
      <trkpt lat="45.87167" lon="5.41772">
        <ele>501.6</ele>
        <time>2023-05-27T09:11:09Z</time>
      </trkpt>
      <trkpt lat="45.87164" lon="5.41755">
        <ele>499.8</ele>
        <time>2023-05-27T09:11:10Z</time>
      </trkpt>
      <trkpt lat="45.87161" lon="5.41738">
        <ele>499.4</ele>
        <time>2023-05-27T09:11:11Z</time>
      </trkpt>
      <trkpt lat="45.87157" lon="5.41721">
        <ele>498.4</ele>
        <time>2023-05-27T09:11:12Z</time>
      </trkpt>
      <trkpt lat="45.87154" lon="5.41704">
        <ele>498</ele>
        <time>2023-05-27T09:11:13Z</time>
      </trkpt>
      <trkpt lat="45.8715" lon="5.41683">
        <ele>497</ele>
        <time>2023-05-27T09:11:14Z</time>
      </trkpt>
      <trkpt lat="45.87146" lon="5.41666">
        <ele>496.4</ele>
        <time>2023-05-27T09:11:15Z</time>
      </trkpt>
      <trkpt lat="45.87142" lon="5.41649">
        <ele>494.8</ele>
        <time>2023-05-27T09:11:16Z</time>
      </trkpt>
      <trkpt lat="45.87138" lon="5.41633">
        <ele>494</ele>
        <time>2023-05-27T09:11:17Z</time>
      </trkpt>
      <trkpt lat="45.87132" lon="5.41617">
        <ele>492.6</ele>
        <time>2023-05-27T09:11:18Z</time>
      </trkpt>
      <trkpt lat="45.87126" lon="5.41603">
        <ele>490.6</ele>
        <time>2023-05-27T09:11:19Z</time>
      </trkpt>
      <trkpt lat="45.87119" lon="5.41588">
        <ele>489.8</ele>
        <time>2023-05-27T09:11:20Z</time>
      </trkpt>
      <trkpt lat="45.87112" lon="5.41574">
        <ele>489</ele>
        <time>2023-05-27T09:11:21Z</time>
      </trkpt>
      <trkpt lat="45.87105" lon="5.41559">
        <ele>488.2</ele>
        <time>2023-05-27T09:11:22Z</time>
      </trkpt>
      <trkpt lat="45.87098" lon="5.41544">
        <ele>487.2</ele>
        <time>2023-05-27T09:11:23Z</time>
      </trkpt>
      <trkpt lat="45.87091" lon="5.41529">
        <ele>486.2</ele>
        <time>2023-05-27T09:11:24Z</time>
      </trkpt>
      <trkpt lat="45.87086" lon="5.41517">
        <ele>484.6</ele>
        <time>2023-05-27T09:11:25Z</time>
      </trkpt>
      <trkpt lat="45.87077" lon="5.41499">
        <ele>483</ele>
        <time>2023-05-27T09:11:26Z</time>
      </trkpt>
      <trkpt lat="45.8707" lon="5.41485">
        <ele>482.6</ele>
        <time>2023-05-27T09:11:27Z</time>
      </trkpt>
      <trkpt lat="45.87062" lon="5.41471">
        <ele>481.6</ele>
        <time>2023-05-27T09:11:28Z</time>
      </trkpt>
      <trkpt lat="45.87055" lon="5.41456">
        <ele>481.4</ele>
        <time>2023-05-27T09:11:29Z</time>
      </trkpt>
      <trkpt lat="45.8705" lon="5.41444">
        <ele>480.4</ele>
        <time>2023-05-27T09:11:30Z</time>
      </trkpt>
      <trkpt lat="45.87044" lon="5.41425">
        <ele>479.8</ele>
        <time>2023-05-27T09:11:31Z</time>
      </trkpt>
      <trkpt lat="45.87039" lon="5.4141">
        <ele>478</ele>
        <time>2023-05-27T09:11:32Z</time>
      </trkpt>
      <trkpt lat="45.87037" lon="5.41397">
        <ele>477</ele>
        <time>2023-05-27T09:11:33Z</time>
      </trkpt>
      <trkpt lat="45.87034" lon="5.41376">
        <ele>476</ele>
        <time>2023-05-27T09:11:34Z</time>
      </trkpt>
      <trkpt lat="45.87034" lon="5.41362">
        <ele>474.4</ele>
        <time>2023-05-27T09:11:35Z</time>
      </trkpt>
      <trkpt lat="45.87034" lon="5.41343">
        <ele>473.8</ele>
        <time>2023-05-27T09:11:36Z</time>
      </trkpt>
      <trkpt lat="45.87038" lon="5.41328">
        <ele>473.2</ele>
        <time>2023-05-27T09:11:37Z</time>
      </trkpt>
      <trkpt lat="45.87042" lon="5.41312">
        <ele>472.8</ele>
        <time>2023-05-27T09:11:38Z</time>
      </trkpt>
      <trkpt lat="45.87047" lon="5.41299">
        <ele>471.6</ele>
        <time>2023-05-27T09:11:39Z</time>
      </trkpt>
      <trkpt lat="45.87055" lon="5.41279">
        <ele>470.6</ele>
        <time>2023-05-27T09:11:40Z</time>
      </trkpt>
      <trkpt lat="45.87061" lon="5.41262">
        <ele>470.2</ele>
        <time>2023-05-27T09:11:41Z</time>
      </trkpt>
      <trkpt lat="45.87067" lon="5.41245">
        <ele>468.8</ele>
        <time>2023-05-27T09:11:42Z</time>
      </trkpt>
      <trkpt lat="45.87073" lon="5.41229">
        <ele>468</ele>
        <time>2023-05-27T09:11:43Z</time>
      </trkpt>
      <trkpt lat="45.87078" lon="5.41215">
        <ele>467</ele>
        <time>2023-05-27T09:11:44Z</time>
      </trkpt>
      <trkpt lat="45.87084" lon="5.41197">
        <ele>466.6</ele>
        <time>2023-05-27T09:11:45Z</time>
      </trkpt>
      <trkpt lat="45.87091" lon="5.4118">
        <ele>465.6</ele>
        <time>2023-05-27T09:11:46Z</time>
      </trkpt>
      <trkpt lat="45.87098" lon="5.41159">
        <ele>464</ele>
        <time>2023-05-27T09:11:47Z</time>
      </trkpt>
      <trkpt lat="45.87103" lon="5.41145">
        <ele>463.4</ele>
        <time>2023-05-27T09:11:48Z</time>
      </trkpt>
      <trkpt lat="45.87109" lon="5.41128">
        <ele>462.6</ele>
        <time>2023-05-27T09:11:49Z</time>
      </trkpt>
      <trkpt lat="45.87116" lon="5.41106">
        <ele>462</ele>
        <time>2023-05-27T09:11:50Z</time>
      </trkpt>
      <trkpt lat="45.87121" lon="5.41091">
        <ele>461</ele>
        <time>2023-05-27T09:11:51Z</time>
      </trkpt>
      <trkpt lat="45.87129" lon="5.4107">
        <ele>460.2</ele>
        <time>2023-05-27T09:11:52Z</time>
      </trkpt>
      <trkpt lat="45.87134" lon="5.41056">
        <ele>458.8</ele>
        <time>2023-05-27T09:11:53Z</time>
      </trkpt>
      <trkpt lat="45.8714" lon="5.41039">
        <ele>457.8</ele>
        <time>2023-05-27T09:11:54Z</time>
      </trkpt>
      <trkpt lat="45.87148" lon="5.4102">
        <ele>457.4</ele>
        <time>2023-05-27T09:11:55Z</time>
      </trkpt>
      <trkpt lat="45.87154" lon="5.41007">
        <ele>456.2</ele>
        <time>2023-05-27T09:11:56Z</time>
      </trkpt>
      <trkpt lat="45.8716" lon="5.40991">
        <ele>455.2</ele>
        <time>2023-05-27T09:11:57Z</time>
      </trkpt>
      <trkpt lat="45.87166" lon="5.40976">
        <ele>454.2</ele>
        <time>2023-05-27T09:11:58Z</time>
      </trkpt>
      <trkpt lat="45.87172" lon="5.4096">
        <ele>453.4</ele>
        <time>2023-05-27T09:11:59Z</time>
      </trkpt>
      <trkpt lat="45.87178" lon="5.40946">
        <ele>452.2</ele>
        <time>2023-05-27T09:12:00Z</time>
      </trkpt>
      <trkpt lat="45.87182" lon="5.40931">
        <ele>451.2</ele>
        <time>2023-05-27T09:12:01Z</time>
      </trkpt>
      <trkpt lat="45.87188" lon="5.40914">
        <ele>449.4</ele>
        <time>2023-05-27T09:12:02Z</time>
      </trkpt>
      <trkpt lat="45.87192" lon="5.40902">
        <ele>447.6</ele>
        <time>2023-05-27T09:12:03Z</time>
      </trkpt>
      <trkpt lat="45.87202" lon="5.40873">
        <ele>445.6</ele>
        <time>2023-05-27T09:12:05Z</time>
      </trkpt>
      <trkpt lat="45.87207" lon="5.40857">
        <ele>445</ele>
        <time>2023-05-27T09:12:06Z</time>
      </trkpt>
      <trkpt lat="45.87212" lon="5.40842">
        <ele>443.2</ele>
        <time>2023-05-27T09:12:07Z</time>
      </trkpt>
      <trkpt lat="45.87216" lon="5.40828">
        <ele>442.6</ele>
        <time>2023-05-27T09:12:08Z</time>
      </trkpt>
      <trkpt lat="45.8722" lon="5.40813">
        <ele>441.6</ele>
        <time>2023-05-27T09:12:09Z</time>
      </trkpt>
      <trkpt lat="45.87224" lon="5.40799">
        <ele>440.8</ele>
        <time>2023-05-27T09:12:10Z</time>
      </trkpt>
      <trkpt lat="45.87231" lon="5.40781">
        <ele>440.2</ele>
        <time>2023-05-27T09:12:11Z</time>
      </trkpt>
      <trkpt lat="45.87235" lon="5.4077">
        <ele>439.4</ele>
        <time>2023-05-27T09:12:12Z</time>
      </trkpt>
      <trkpt lat="45.8724" lon="5.40755">
        <ele>439</ele>
        <time>2023-05-27T09:12:13Z</time>
      </trkpt>
      <trkpt lat="45.87246" lon="5.4074">
        <ele>438</ele>
        <time>2023-05-27T09:12:14Z</time>
      </trkpt>
      <trkpt lat="45.87251" lon="5.40726">
        <ele>437.6</ele>
        <time>2023-05-27T09:12:15Z</time>
      </trkpt>
      <trkpt lat="45.87255" lon="5.4071">
        <ele>436.4</ele>
        <time>2023-05-27T09:12:16Z</time>
      </trkpt>
      <trkpt lat="45.87259" lon="5.40695">
        <ele>435.4</ele>
        <time>2023-05-27T09:12:17Z</time>
      </trkpt>
      <trkpt lat="45.87262" lon="5.40679">
        <ele>434.8</ele>
        <time>2023-05-27T09:12:18Z</time>
      </trkpt>
      <trkpt lat="45.87264" lon="5.40663">
        <ele>433.2</ele>
        <time>2023-05-27T09:12:19Z</time>
      </trkpt>
      <trkpt lat="45.87266" lon="5.40647">
        <ele>432.6</ele>
        <time>2023-05-27T09:12:20Z</time>
      </trkpt>
      <trkpt lat="45.87267" lon="5.40631">
        <ele>431.4</ele>
        <time>2023-05-27T09:12:21Z</time>
      </trkpt>
      <trkpt lat="45.87267" lon="5.40616">
        <ele>430.8</ele>
        <time>2023-05-27T09:12:22Z</time>
      </trkpt>
      <trkpt lat="45.87265" lon="5.40603">
        <ele>429.6</ele>
        <time>2023-05-27T09:12:23Z</time>
      </trkpt>
      <trkpt lat="45.87263" lon="5.40591">
        <ele>428.2</ele>
        <time>2023-05-27T09:12:24Z</time>
      </trkpt>
      <trkpt lat="45.87259" lon="5.40582">
        <ele>427.8</ele>
        <time>2023-05-27T09:12:25Z</time>
      </trkpt>
      <trkpt lat="45.87256" lon="5.40575">
        <ele>426.8</ele>
        <time>2023-05-27T09:12:26Z</time>
      </trkpt>
      <trkpt lat="45.87252" lon="5.40572">
        <ele>426.4</ele>
        <time>2023-05-27T09:12:27Z</time>
      </trkpt>
      <trkpt lat="45.87249" lon="5.4057">
        <ele>425</ele>
        <time>2023-05-27T09:12:28Z</time>
      </trkpt>
      <trkpt lat="45.87243" lon="5.40569">
        <ele>422.8</ele>
        <time>2023-05-27T09:12:30Z</time>
      </trkpt>
      <trkpt lat="45.87239" lon="5.40571">
        <ele>421.6</ele>
        <time>2023-05-27T09:12:31Z</time>
      </trkpt>
      <trkpt lat="45.87235" lon="5.40575">
        <ele>420.8</ele>
        <time>2023-05-27T09:12:32Z</time>
      </trkpt>
      <trkpt lat="45.87232" lon="5.4058">
        <ele>419.8</ele>
        <time>2023-05-27T09:12:33Z</time>
      </trkpt>
      <trkpt lat="45.87229" lon="5.40585">
        <ele>419.4</ele>
        <time>2023-05-27T09:12:34Z</time>
      </trkpt>
      <trkpt lat="45.87224" lon="5.40591">
        <ele>418.2</ele>
        <time>2023-05-27T09:12:35Z</time>
      </trkpt>
      <trkpt lat="45.8722" lon="5.40596">
        <ele>418</ele>
        <time>2023-05-27T09:12:36Z</time>
      </trkpt>
      <trkpt lat="45.87217" lon="5.40601">
        <ele>416.4</ele>
        <time>2023-05-27T09:12:37Z</time>
      </trkpt>
      <trkpt lat="45.87212" lon="5.40608">
        <ele>414.8</ele>
        <time>2023-05-27T09:12:38Z</time>
      </trkpt>
      <trkpt lat="45.87202" lon="5.4062">
        <ele>413.2</ele>
        <time>2023-05-27T09:12:40Z</time>
      </trkpt>
      <trkpt lat="45.87198" lon="5.40625">
        <ele>412.8</ele>
        <time>2023-05-27T09:12:41Z</time>
      </trkpt>
      <trkpt lat="45.87192" lon="5.40632">
        <ele>411.6</ele>
        <time>2023-05-27T09:12:42Z</time>
      </trkpt>
      <trkpt lat="45.87185" lon="5.40641">
        <ele>411</ele>
        <time>2023-05-27T09:12:43Z</time>
      </trkpt>
      <trkpt lat="45.87178" lon="5.40648">
        <ele>409.6</ele>
        <time>2023-05-27T09:12:44Z</time>
      </trkpt>
      <trkpt lat="45.87172" lon="5.40657">
        <ele>408.4</ele>
        <time>2023-05-27T09:12:45Z</time>
      </trkpt>
      <trkpt lat="45.87167" lon="5.40663">
        <ele>407.8</ele>
        <time>2023-05-27T09:12:46Z</time>
      </trkpt>
      <trkpt lat="45.8716" lon="5.40672">
        <ele>406.4</ele>
        <time>2023-05-27T09:12:47Z</time>
      </trkpt>
      <trkpt lat="45.87152" lon="5.40682">
        <ele>406.2</ele>
        <time>2023-05-27T09:12:48Z</time>
      </trkpt>
      <trkpt lat="45.87144" lon="5.40693">
        <ele>405.2</ele>
        <time>2023-05-27T09:12:49Z</time>
      </trkpt>
      <trkpt lat="45.87136" lon="5.40703">
        <ele>404.8</ele>
        <time>2023-05-27T09:12:50Z</time>
      </trkpt>
      <trkpt lat="45.8713" lon="5.4071">
        <ele>404.2</ele>
        <time>2023-05-27T09:12:51Z</time>
      </trkpt>
      <trkpt lat="45.87121" lon="5.40721">
        <ele>403</ele>
        <time>2023-05-27T09:12:52Z</time>
      </trkpt>
      <trkpt lat="45.87113" lon="5.4073">
        <ele>402.6</ele>
        <time>2023-05-27T09:12:53Z</time>
      </trkpt>
      <trkpt lat="45.87105" lon="5.40739">
        <ele>401.6</ele>
        <time>2023-05-27T09:12:54Z</time>
      </trkpt>
      <trkpt lat="45.8709" lon="5.40756">
        <ele>400</ele>
        <time>2023-05-27T09:12:56Z</time>
      </trkpt>
      <trkpt lat="45.87081" lon="5.40765">
        <ele>399.8</ele>
        <time>2023-05-27T09:12:57Z</time>
      </trkpt>
      <trkpt lat="45.87071" lon="5.40776">
        <ele>399.4</ele>
        <time>2023-05-27T09:12:58Z</time>
      </trkpt>
      <trkpt lat="45.87062" lon="5.40785">
        <ele>398.4</ele>
        <time>2023-05-27T09:12:59Z</time>
      </trkpt>
      <trkpt lat="45.87055" lon="5.40792">
        <ele>398</ele>
        <time>2023-05-27T09:13:00Z</time>
      </trkpt>
      <trkpt lat="45.87046" lon="5.40801">
        <ele>397</ele>
        <time>2023-05-27T09:13:01Z</time>
      </trkpt>
      <trkpt lat="45.87037" lon="5.4081">
        <ele>396.6</ele>
        <time>2023-05-27T09:13:02Z</time>
      </trkpt>
      <trkpt lat="45.87028" lon="5.40819">
        <ele>395.8</ele>
        <time>2023-05-27T09:13:03Z</time>
      </trkpt>
      <trkpt lat="45.87018" lon="5.40828">
        <ele>395.4</ele>
        <time>2023-05-27T09:13:04Z</time>
      </trkpt>
      <trkpt lat="45.87009" lon="5.40837">
        <ele>394.6</ele>
        <time>2023-05-27T09:13:05Z</time>
      </trkpt>
      <trkpt lat="45.87001" lon="5.40848">
        <ele>394</ele>
        <time>2023-05-27T09:13:06Z</time>
      </trkpt>
      <trkpt lat="45.86986" lon="5.40872">
        <ele>392.8</ele>
        <time>2023-05-27T09:13:08Z</time>
      </trkpt>
      <trkpt lat="45.8698" lon="5.40882">
        <ele>392.4</ele>
        <time>2023-05-27T09:13:09Z</time>
      </trkpt>
      <trkpt lat="45.86975" lon="5.40889">
        <ele>391.6</ele>
        <time>2023-05-27T09:13:10Z</time>
      </trkpt>
      <trkpt lat="45.86968" lon="5.40898">
        <ele>391.2</ele>
        <time>2023-05-27T09:13:11Z</time>
      </trkpt>
      <trkpt lat="45.86961" lon="5.40905">
        <ele>390.4</ele>
        <time>2023-05-27T09:13:12Z</time>
      </trkpt>
      <trkpt lat="45.86953" lon="5.40911">
        <ele>389.8</ele>
        <time>2023-05-27T09:13:13Z</time>
      </trkpt>
      <trkpt lat="45.86947" lon="5.40914">
        <ele>389</ele>
        <time>2023-05-27T09:13:14Z</time>
      </trkpt>
      <trkpt lat="45.8694" lon="5.40916">
        <ele>388.2</ele>
        <time>2023-05-27T09:13:15Z</time>
      </trkpt>
      <trkpt lat="45.86933" lon="5.40917">
        <ele>387.6</ele>
        <time>2023-05-27T09:13:16Z</time>
      </trkpt>
      <trkpt lat="45.86927" lon="5.40917">
        <ele>386.4</ele>
        <time>2023-05-27T09:13:17Z</time>
      </trkpt>
      <trkpt lat="45.86922" lon="5.40919">
        <ele>386</ele>
        <time>2023-05-27T09:13:18Z</time>
      </trkpt>
      <trkpt lat="45.86917" lon="5.40921">
        <ele>385.6</ele>
        <time>2023-05-27T09:13:19Z</time>
      </trkpt>
      <trkpt lat="45.86912" lon="5.40926">
        <ele>385.2</ele>
        <time>2023-05-27T09:13:20Z</time>
      </trkpt>
      <trkpt lat="45.86907" lon="5.40932">
        <ele>384.4</ele>
        <time>2023-05-27T09:13:21Z</time>
      </trkpt>
      <trkpt lat="45.86901" lon="5.40939">
        <ele>383.8</ele>
        <time>2023-05-27T09:13:22Z</time>
      </trkpt>
      <trkpt lat="45.86897" lon="5.40945">
        <ele>383.4</ele>
        <time>2023-05-27T09:13:23Z</time>
      </trkpt>
      <trkpt lat="45.86892" lon="5.40952">
        <ele>382.2</ele>
        <time>2023-05-27T09:13:24Z</time>
      </trkpt>
      <trkpt lat="45.86887" lon="5.4096">
        <ele>381.6</ele>
        <time>2023-05-27T09:13:25Z</time>
      </trkpt>
      <trkpt lat="45.86881" lon="5.4097">
        <ele>380.8</ele>
        <time>2023-05-27T09:13:26Z</time>
      </trkpt>
      <trkpt lat="45.86877" lon="5.40978">
        <ele>380.4</ele>
        <time>2023-05-27T09:13:27Z</time>
      </trkpt>
      <trkpt lat="45.86871" lon="5.40987">
        <ele>379.8</ele>
        <time>2023-05-27T09:13:28Z</time>
      </trkpt>
      <trkpt lat="45.86866" lon="5.40993">
        <ele>378.6</ele>
        <time>2023-05-27T09:13:29Z</time>
      </trkpt>
      <trkpt lat="45.86859" lon="5.40999">
        <ele>378.4</ele>
        <time>2023-05-27T09:13:30Z</time>
      </trkpt>
      <trkpt lat="45.86851" lon="5.41006">
        <ele>377.2</ele>
        <time>2023-05-27T09:13:31Z</time>
      </trkpt>
      <trkpt lat="45.86843" lon="5.41011">
        <ele>376.8</ele>
        <time>2023-05-27T09:13:32Z</time>
      </trkpt>
      <trkpt lat="45.86834" lon="5.41015">
        <ele>376.4</ele>
        <time>2023-05-27T09:13:33Z</time>
      </trkpt>
      <trkpt lat="45.86825" lon="5.41019">
        <ele>376.2</ele>
        <time>2023-05-27T09:13:34Z</time>
      </trkpt>
      <trkpt lat="45.86816" lon="5.41023">
        <ele>375.4</ele>
        <time>2023-05-27T09:13:35Z</time>
      </trkpt>
      <trkpt lat="45.86806" lon="5.41027">
        <ele>374.6</ele>
        <time>2023-05-27T09:13:36Z</time>
      </trkpt>
      <trkpt lat="45.86797" lon="5.41029">
        <ele>374.4</ele>
        <time>2023-05-27T09:13:37Z</time>
      </trkpt>
      <trkpt lat="45.86788" lon="5.4103">
        <ele>373.6</ele>
        <time>2023-05-27T09:13:38Z</time>
      </trkpt>
      <trkpt lat="45.8678" lon="5.4103">
        <ele>373.4</ele>
        <time>2023-05-27T09:13:39Z</time>
      </trkpt>
      <trkpt lat="45.86772" lon="5.4103">
        <ele>373</ele>
        <time>2023-05-27T09:13:40Z</time>
      </trkpt>
      <trkpt lat="45.86764" lon="5.4103">
        <ele>372.6</ele>
        <time>2023-05-27T09:13:41Z</time>
      </trkpt>
      <trkpt lat="45.86756" lon="5.41029">
        <ele>372</ele>
        <time>2023-05-27T09:13:42Z</time>
      </trkpt>
      <trkpt lat="45.86748" lon="5.41028">
        <ele>371.6</ele>
        <time>2023-05-27T09:13:43Z</time>
      </trkpt>
      <trkpt lat="45.8674" lon="5.41026">
        <ele>371.4</ele>
        <time>2023-05-27T09:13:44Z</time>
      </trkpt>
      <trkpt lat="45.86732" lon="5.41025">
        <ele>370.6</ele>
        <time>2023-05-27T09:13:45Z</time>
      </trkpt>
      <trkpt lat="45.86724" lon="5.41024">
        <ele>370.4</ele>
        <time>2023-05-27T09:13:46Z</time>
      </trkpt>
      <trkpt lat="45.86716" lon="5.41023">
        <ele>369.8</ele>
        <time>2023-05-27T09:13:47Z</time>
      </trkpt>
      <trkpt lat="45.86708" lon="5.41023">
        <ele>369.6</ele>
        <time>2023-05-27T09:13:48Z</time>
      </trkpt>
      <trkpt lat="45.86701" lon="5.41022">
        <ele>368.6</ele>
        <time>2023-05-27T09:13:49Z</time>
      </trkpt>
      <trkpt lat="45.86693" lon="5.4102">
        <ele>367.6</ele>
        <time>2023-05-27T09:13:50Z</time>
      </trkpt>
      <trkpt lat="45.86686" lon="5.41019">
        <ele>367.2</ele>
        <time>2023-05-27T09:13:51Z</time>
      </trkpt>
      <trkpt lat="45.86678" lon="5.41018">
        <ele>366.4</ele>
        <time>2023-05-27T09:13:52Z</time>
      </trkpt>
      <trkpt lat="45.8667" lon="5.41019">
        <ele>365.2</ele>
        <time>2023-05-27T09:13:53Z</time>
      </trkpt>
      <trkpt lat="45.86662" lon="5.41021">
        <ele>364</ele>
        <time>2023-05-27T09:13:54Z</time>
      </trkpt>
      <trkpt lat="45.86654" lon="5.41026">
        <ele>363.4</ele>
        <time>2023-05-27T09:13:55Z</time>
      </trkpt>
      <trkpt lat="45.86647" lon="5.41033">
        <ele>362.2</ele>
        <time>2023-05-27T09:13:56Z</time>
      </trkpt>
      <trkpt lat="45.86643" lon="5.4104">
        <ele>361.4</ele>
        <time>2023-05-27T09:13:57Z</time>
      </trkpt>
      <trkpt lat="45.8664" lon="5.4105">
        <ele>361</ele>
        <time>2023-05-27T09:13:58Z</time>
      </trkpt>
      <trkpt lat="45.86638" lon="5.41061">
        <ele>359.8</ele>
        <time>2023-05-27T09:13:59Z</time>
      </trkpt>
      <trkpt lat="45.86636" lon="5.41073">
        <ele>359.2</ele>
        <time>2023-05-27T09:14:00Z</time>
      </trkpt>
      <trkpt lat="45.86633" lon="5.41085">
        <ele>357.8</ele>
        <time>2023-05-27T09:14:01Z</time>
      </trkpt>
      <trkpt lat="45.86629" lon="5.41096">
        <ele>357.4</ele>
        <time>2023-05-27T09:14:02Z</time>
      </trkpt>
      <trkpt lat="45.86624" lon="5.41107">
        <ele>356.6</ele>
        <time>2023-05-27T09:14:03Z</time>
      </trkpt>
      <trkpt lat="45.86617" lon="5.41116">
        <ele>355.8</ele>
        <time>2023-05-27T09:14:04Z</time>
      </trkpt>
      <trkpt lat="45.86608" lon="5.41125">
        <ele>355.4</ele>
        <time>2023-05-27T09:14:05Z</time>
      </trkpt>
      <trkpt lat="45.86601" lon="5.41129">
        <ele>354.6</ele>
        <time>2023-05-27T09:14:06Z</time>
      </trkpt>
      <trkpt lat="45.86593" lon="5.41133">
        <ele>354.2</ele>
        <time>2023-05-27T09:14:07Z</time>
      </trkpt>
      <trkpt lat="45.86585" lon="5.41136">
        <ele>352.6</ele>
        <time>2023-05-27T09:14:08Z</time>
      </trkpt>
      <trkpt lat="45.86576" lon="5.41138">
        <ele>352.2</ele>
        <time>2023-05-27T09:14:09Z</time>
      </trkpt>
      <trkpt lat="45.8657" lon="5.41138">
        <ele>351.4</ele>
        <time>2023-05-27T09:14:10Z</time>
      </trkpt>
      <trkpt lat="45.86561" lon="5.41139">
        <ele>351</ele>
        <time>2023-05-27T09:14:11Z</time>
      </trkpt>
      <trkpt lat="45.86553" lon="5.4114">
        <ele>350.8</ele>
        <time>2023-05-27T09:14:12Z</time>
      </trkpt>
      <trkpt lat="45.86544" lon="5.41141">
        <ele>350</ele>
        <time>2023-05-27T09:14:13Z</time>
      </trkpt>
      <trkpt lat="45.86533" lon="5.41141">
        <ele>349.6</ele>
        <time>2023-05-27T09:14:14Z</time>
      </trkpt>
      <trkpt lat="45.86524" lon="5.4114">
        <ele>348.4</ele>
        <time>2023-05-27T09:14:15Z</time>
      </trkpt>
      <trkpt lat="45.86514" lon="5.4114">
        <ele>348</ele>
        <time>2023-05-27T09:14:16Z</time>
      </trkpt>
      <trkpt lat="45.86507" lon="5.4114">
        <ele>347.2</ele>
        <time>2023-05-27T09:14:17Z</time>
      </trkpt>
      <trkpt lat="45.86497" lon="5.41141">
        <ele>346.8</ele>
        <time>2023-05-27T09:14:18Z</time>
      </trkpt>
      <trkpt lat="45.86485" lon="5.41142">
        <ele>346.6</ele>
        <time>2023-05-27T09:14:19Z</time>
      </trkpt>
      <trkpt lat="45.86476" lon="5.41144">
        <ele>345.8</ele>
        <time>2023-05-27T09:14:20Z</time>
      </trkpt>
      <trkpt lat="45.86468" lon="5.41147">
        <ele>345.4</ele>
        <time>2023-05-27T09:14:21Z</time>
      </trkpt>
      <trkpt lat="45.8646" lon="5.41153">
        <ele>344.4</ele>
        <time>2023-05-27T09:14:22Z</time>
      </trkpt>
      <trkpt lat="45.8645" lon="5.41161">
        <ele>344.2</ele>
        <time>2023-05-27T09:14:23Z</time>
      </trkpt>
      <trkpt lat="45.86443" lon="5.41169">
        <ele>343.8</ele>
        <time>2023-05-27T09:14:24Z</time>
      </trkpt>
      <trkpt lat="45.86436" lon="5.41177">
        <ele>343.6</ele>
        <time>2023-05-27T09:14:25Z</time>
      </trkpt>
      <trkpt lat="45.8643" lon="5.41182">
        <ele>343.4</ele>
        <time>2023-05-27T09:14:26Z</time>
      </trkpt>
      <trkpt lat="45.86423" lon="5.41186">
        <ele>342.6</ele>
        <time>2023-05-27T09:14:27Z</time>
      </trkpt>
      <trkpt lat="45.86413" lon="5.41187">
        <ele>342.2</ele>
        <time>2023-05-27T09:14:28Z</time>
      </trkpt>
      <trkpt lat="45.86406" lon="5.41184">
        <ele>341.4</ele>
        <time>2023-05-27T09:14:29Z</time>
      </trkpt>
      <trkpt lat="45.86398" lon="5.41178">
        <ele>341.2</ele>
        <time>2023-05-27T09:14:30Z</time>
      </trkpt>
      <trkpt lat="45.86393" lon="5.41171">
        <ele>340.2</ele>
        <time>2023-05-27T09:14:31Z</time>
      </trkpt>
      <trkpt lat="45.86389" lon="5.41161">
        <ele>339.4</ele>
        <time>2023-05-27T09:14:32Z</time>
      </trkpt>
      <trkpt lat="45.86385" lon="5.4115">
        <ele>338.8</ele>
        <time>2023-05-27T09:14:33Z</time>
      </trkpt>
      <trkpt lat="45.8638" lon="5.41136">
        <ele>338.2</ele>
        <time>2023-05-27T09:14:34Z</time>
      </trkpt>
      <trkpt lat="45.86374" lon="5.41128">
        <ele>338</ele>
        <time>2023-05-27T09:14:35Z</time>
      </trkpt>
      <trkpt lat="45.86368" lon="5.41123">
        <ele>337</ele>
        <time>2023-05-27T09:14:36Z</time>
      </trkpt>
      <trkpt lat="45.8636" lon="5.41119">
        <ele>336.6</ele>
        <time>2023-05-27T09:14:37Z</time>
      </trkpt>
      <trkpt lat="45.86349" lon="5.41114">
        <ele>335.8</ele>
        <time>2023-05-27T09:14:38Z</time>
      </trkpt>
      <trkpt lat="45.8634" lon="5.41112">
        <ele>335.6</ele>
        <time>2023-05-27T09:14:39Z</time>
      </trkpt>
      <trkpt lat="45.86331" lon="5.41109">
        <ele>335.2</ele>
        <time>2023-05-27T09:14:40Z</time>
      </trkpt>
      <trkpt lat="45.86324" lon="5.41108">
        <ele>334.6</ele>
        <time>2023-05-27T09:14:41Z</time>
      </trkpt>
      <trkpt lat="45.86314" lon="5.41104">
        <ele>334</ele>
        <time>2023-05-27T09:14:42Z</time>
      </trkpt>
      <trkpt lat="45.86308" lon="5.41099">
        <ele>333.2</ele>
        <time>2023-05-27T09:14:43Z</time>
      </trkpt>
      <trkpt lat="45.86302" lon="5.41093">
        <ele>332.8</ele>
        <time>2023-05-27T09:14:44Z</time>
      </trkpt>
      <trkpt lat="45.86298" lon="5.41088">
        <ele>331.6</ele>
        <time>2023-05-27T09:14:45Z</time>
      </trkpt>
      <trkpt lat="45.86295" lon="5.41083">
        <ele>331.4</ele>
        <time>2023-05-27T09:14:46Z</time>
      </trkpt>
      <trkpt lat="45.8629" lon="5.41077">
        <ele>331</ele>
        <time>2023-05-27T09:14:47Z</time>
      </trkpt>
      <trkpt lat="45.86287" lon="5.41073">
        <ele>329.2</ele>
        <time>2023-05-27T09:14:48Z</time>
      </trkpt>
      <trkpt lat="45.86282" lon="5.41068">
        <ele>328.6</ele>
        <time>2023-05-27T09:14:49Z</time>
      </trkpt>
      <trkpt lat="45.86279" lon="5.41065">
        <ele>328</ele>
        <time>2023-05-27T09:14:50Z</time>
      </trkpt>
      <trkpt lat="45.86274" lon="5.41062">
        <ele>327.8</ele>
        <time>2023-05-27T09:14:51Z</time>
      </trkpt>
      <trkpt lat="45.86268" lon="5.41059">
        <ele>327</ele>
        <time>2023-05-27T09:14:52Z</time>
      </trkpt>
      <trkpt lat="45.8626" lon="5.41056">
        <ele>326.6</ele>
        <time>2023-05-27T09:14:53Z</time>
      </trkpt>
      <trkpt lat="45.86253" lon="5.41054">
        <ele>325.8</ele>
        <time>2023-05-27T09:14:54Z</time>
      </trkpt>
      <trkpt lat="45.86247" lon="5.41055">
        <ele>325.2</ele>
        <time>2023-05-27T09:14:55Z</time>
      </trkpt>
      <trkpt lat="45.86238" lon="5.41056">
        <ele>324.8</ele>
        <time>2023-05-27T09:14:56Z</time>
      </trkpt>
      <trkpt lat="45.8623" lon="5.41057">
        <ele>324.2</ele>
        <time>2023-05-27T09:14:57Z</time>
      </trkpt>
      <trkpt lat="45.86223" lon="5.41059">
        <ele>323.6</ele>
        <time>2023-05-27T09:14:58Z</time>
      </trkpt>
      <trkpt lat="45.86214" lon="5.41061">
        <ele>322.6</ele>
        <time>2023-05-27T09:14:59Z</time>
      </trkpt>
      <trkpt lat="45.86205" lon="5.41065">
        <ele>322.2</ele>
        <time>2023-05-27T09:15:00Z</time>
      </trkpt>
      <trkpt lat="45.86197" lon="5.4107">
        <ele>321.6</ele>
        <time>2023-05-27T09:15:01Z</time>
      </trkpt>
      <trkpt lat="45.86188" lon="5.41075">
        <ele>320.2</ele>
        <time>2023-05-27T09:15:02Z</time>
      </trkpt>
      <trkpt lat="45.8618" lon="5.41079">
        <ele>319.6</ele>
        <time>2023-05-27T09:15:03Z</time>
      </trkpt>
      <trkpt lat="45.86174" lon="5.41082">
        <ele>318.2</ele>
        <time>2023-05-27T09:15:04Z</time>
      </trkpt>
      <trkpt lat="45.86166" lon="5.41084">
        <ele>317.6</ele>
        <time>2023-05-27T09:15:05Z</time>
      </trkpt>
      <trkpt lat="45.86157" lon="5.41085">
        <ele>316.6</ele>
        <time>2023-05-27T09:15:06Z</time>
      </trkpt>
      <trkpt lat="45.86148" lon="5.41086">
        <ele>316</ele>
        <time>2023-05-27T09:15:07Z</time>
      </trkpt>
      <trkpt lat="45.86139" lon="5.41086">
        <ele>315.2</ele>
        <time>2023-05-27T09:15:08Z</time>
      </trkpt>
      <trkpt lat="45.8612" lon="5.41084">
        <ele>314.4</ele>
        <time>2023-05-27T09:15:10Z</time>
      </trkpt>
      <trkpt lat="45.86111" lon="5.41083">
        <ele>313.6</ele>
        <time>2023-05-27T09:15:11Z</time>
      </trkpt>
      <trkpt lat="45.861" lon="5.41081">
        <ele>313</ele>
        <time>2023-05-27T09:15:12Z</time>
      </trkpt>
      <trkpt lat="45.86091" lon="5.41078">
        <ele>312.2</ele>
        <time>2023-05-27T09:15:13Z</time>
      </trkpt>
      <trkpt lat="45.86083" lon="5.41074">
        <ele>312</ele>
        <time>2023-05-27T09:15:14Z</time>
      </trkpt>
      <trkpt lat="45.86075" lon="5.41069">
        <ele>311</ele>
        <time>2023-05-27T09:15:15Z</time>
      </trkpt>
      <trkpt lat="45.86068" lon="5.41063">
        <ele>309.6</ele>
        <time>2023-05-27T09:15:16Z</time>
      </trkpt>
      <trkpt lat="45.86063" lon="5.41057">
        <ele>309</ele>
        <time>2023-05-27T09:15:17Z</time>
      </trkpt>
      <trkpt lat="45.8606" lon="5.41053">
        <ele>308.4</ele>
        <time>2023-05-27T09:15:18Z</time>
      </trkpt>
      <trkpt lat="45.86057" lon="5.41047">
        <ele>308.2</ele>
        <time>2023-05-27T09:15:19Z</time>
      </trkpt>
      <trkpt lat="45.86055" lon="5.41044">
        <ele>307.6</ele>
        <time>2023-05-27T09:15:20Z</time>
      </trkpt>
      <trkpt lat="45.86052" lon="5.4104">
        <ele>307.4</ele>
        <time>2023-05-27T09:15:21Z</time>
      </trkpt>
      <trkpt lat="45.86049" lon="5.41037">
        <ele>307</ele>
        <time>2023-05-27T09:15:22Z</time>
      </trkpt>
      <trkpt lat="45.86047" lon="5.41035">
        <ele>306.2</ele>
        <time>2023-05-27T09:15:23Z</time>
      </trkpt>
      <trkpt lat="45.86045" lon="5.41033">
        <ele>305.6</ele>
        <time>2023-05-27T09:15:24Z</time>
      </trkpt>
      <trkpt lat="45.86043" lon="5.4103">
        <ele>304.8</ele>
        <time>2023-05-27T09:15:25Z</time>
      </trkpt>
      <trkpt lat="45.86039" lon="5.41027">
        <ele>304.2</ele>
        <time>2023-05-27T09:15:26Z</time>
      </trkpt>
      <trkpt lat="45.86036" lon="5.41023">
        <ele>303.6</ele>
        <time>2023-05-27T09:15:27Z</time>
      </trkpt>
      <trkpt lat="45.86033" lon="5.41019">
        <ele>303.2</ele>
        <time>2023-05-27T09:15:28Z</time>
      </trkpt>
      <trkpt lat="45.86029" lon="5.41013">
        <ele>302.6</ele>
        <time>2023-05-27T09:15:29Z</time>
      </trkpt>
      <trkpt lat="45.86025" lon="5.41006">
        <ele>302.2</ele>
        <time>2023-05-27T09:15:30Z</time>
      </trkpt>
      <trkpt lat="45.86018" lon="5.40999">
        <ele>302</ele>
        <time>2023-05-27T09:15:31Z</time>
      </trkpt>
      <trkpt lat="45.86013" lon="5.40993">
        <ele>301.8</ele>
        <time>2023-05-27T09:15:32Z</time>
      </trkpt>
      <trkpt lat="45.86007" lon="5.40988">
        <ele>301.6</ele>
        <time>2023-05-27T09:15:33Z</time>
      </trkpt>
      <trkpt lat="45.86001" lon="5.40983">
        <ele>300.8</ele>
        <time>2023-05-27T09:15:34Z</time>
      </trkpt>
      <trkpt lat="45.85993" lon="5.4098">
        <ele>300.6</ele>
        <time>2023-05-27T09:15:35Z</time>
      </trkpt>
      <trkpt lat="45.85985" lon="5.4098">
        <ele>299.8</ele>
        <time>2023-05-27T09:15:36Z</time>
      </trkpt>
      <trkpt lat="45.85977" lon="5.40981">
        <ele>299.4</ele>
        <time>2023-05-27T09:15:37Z</time>
      </trkpt>
      <trkpt lat="45.85971" lon="5.40983">
        <ele>299</ele>
        <time>2023-05-27T09:15:38Z</time>
      </trkpt>
      <trkpt lat="45.85964" lon="5.40986">
        <ele>298.4</ele>
        <time>2023-05-27T09:15:39Z</time>
      </trkpt>
      <trkpt lat="45.85956" lon="5.4099">
        <ele>298</ele>
        <time>2023-05-27T09:15:40Z</time>
      </trkpt>
      <trkpt lat="45.8595" lon="5.40992">
        <ele>297.4</ele>
        <time>2023-05-27T09:15:41Z</time>
      </trkpt>
      <trkpt lat="45.85945" lon="5.40992">
        <ele>297.4</ele>
        <time>2023-05-27T09:15:42Z</time>
      </trkpt>
      <trkpt lat="45.8594" lon="5.40989">
        <ele>297.2</ele>
        <time>2023-05-27T09:15:43Z</time>
      </trkpt>
      <trkpt lat="45.85934" lon="5.40982">
        <ele>297</ele>
        <time>2023-05-27T09:15:44Z</time>
      </trkpt>
      <trkpt lat="45.8593" lon="5.40975">
        <ele>296.4</ele>
        <time>2023-05-27T09:15:45Z</time>
      </trkpt>
      <trkpt lat="45.85926" lon="5.40966">
        <ele>296</ele>
        <time>2023-05-27T09:15:46Z</time>
      </trkpt>
      <trkpt lat="45.85925" lon="5.4096">
        <ele>295.4</ele>
        <time>2023-05-27T09:15:47Z</time>
      </trkpt>
      <trkpt lat="45.85926" lon="5.40952">
        <ele>294.6</ele>
        <time>2023-05-27T09:15:48Z</time>
      </trkpt>
      <trkpt lat="45.85931" lon="5.40945">
        <ele>294.2</ele>
        <time>2023-05-27T09:15:49Z</time>
      </trkpt>
      <trkpt lat="45.85937" lon="5.40941">
        <ele>293.4</ele>
        <time>2023-05-27T09:15:50Z</time>
      </trkpt>
      <trkpt lat="45.85944" lon="5.40941">
        <ele>293.2</ele>
        <time>2023-05-27T09:15:51Z</time>
      </trkpt>
      <trkpt lat="45.85952" lon="5.40943">
        <ele>292.6</ele>
        <time>2023-05-27T09:15:52Z</time>
      </trkpt>
      <trkpt lat="45.8596" lon="5.40943">
        <ele>291.8</ele>
        <time>2023-05-27T09:15:53Z</time>
      </trkpt>
      <trkpt lat="45.85968" lon="5.40942">
        <ele>291.6</ele>
        <time>2023-05-27T09:15:54Z</time>
      </trkpt>
      <trkpt lat="45.85975" lon="5.4094">
        <ele>291.4</ele>
        <time>2023-05-27T09:15:55Z</time>
      </trkpt>
      <trkpt lat="45.85982" lon="5.40937">
        <ele>290.8</ele>
        <time>2023-05-27T09:15:56Z</time>
      </trkpt>
      <trkpt lat="45.85988" lon="5.40934">
        <ele>289.8</ele>
        <time>2023-05-27T09:15:57Z</time>
      </trkpt>
      <trkpt lat="45.85992" lon="5.40931">
        <ele>289.6</ele>
        <time>2023-05-27T09:15:58Z</time>
      </trkpt>
      <trkpt lat="45.85997" lon="5.40926">
        <ele>289</ele>
        <time>2023-05-27T09:15:59Z</time>
      </trkpt>
      <trkpt lat="45.85998" lon="5.40922">
        <ele>288.4</ele>
        <time>2023-05-27T09:16:00Z</time>
      </trkpt>
      <trkpt lat="45.85994" lon="5.40917">
        <ele>288.2</ele>
        <time>2023-05-27T09:16:01Z</time>
      </trkpt>
      <trkpt lat="45.85988" lon="5.40911">
        <ele>287.8</ele>
        <time>2023-05-27T09:16:02Z</time>
      </trkpt>
      <trkpt lat="45.85981" lon="5.40905">
        <ele>287.2</ele>
        <time>2023-05-27T09:16:03Z</time>
      </trkpt>
      <trkpt lat="45.85974" lon="5.40898">
        <ele>286.4</ele>
        <time>2023-05-27T09:16:04Z</time>
      </trkpt>
      <trkpt lat="45.85966" lon="5.40891">
        <ele>286.2</ele>
        <time>2023-05-27T09:16:05Z</time>
      </trkpt>
      <trkpt lat="45.85957" lon="5.40885">
        <ele>285.6</ele>
        <time>2023-05-27T09:16:06Z</time>
      </trkpt>
      <trkpt lat="45.85948" lon="5.4088">
        <ele>284.6</ele>
        <time>2023-05-27T09:16:07Z</time>
      </trkpt>
      <trkpt lat="45.85938" lon="5.40876">
        <ele>284.2</ele>
        <time>2023-05-27T09:16:08Z</time>
      </trkpt>
      <trkpt lat="45.85927" lon="5.40874">
        <ele>283.4</ele>
        <time>2023-05-27T09:16:09Z</time>
      </trkpt>
      <trkpt lat="45.85917" lon="5.40874">
        <ele>282.8</ele>
        <time>2023-05-27T09:16:10Z</time>
      </trkpt>
      <trkpt lat="45.85909" lon="5.40875">
        <ele>282</ele>
        <time>2023-05-27T09:16:11Z</time>
      </trkpt>
      <trkpt lat="45.85899" lon="5.40877">
        <ele>281.4</ele>
        <time>2023-05-27T09:16:12Z</time>
      </trkpt>
      <trkpt lat="45.85889" lon="5.4088">
        <ele>280</ele>
        <time>2023-05-27T09:16:13Z</time>
      </trkpt>
      <trkpt lat="45.85879" lon="5.40885">
        <ele>278.6</ele>
        <time>2023-05-27T09:16:14Z</time>
      </trkpt>
      <trkpt lat="45.85869" lon="5.40889">
        <ele>278</ele>
        <time>2023-05-27T09:16:15Z</time>
      </trkpt>
      <trkpt lat="45.8586" lon="5.40894">
        <ele>277.2</ele>
        <time>2023-05-27T09:16:16Z</time>
      </trkpt>
      <trkpt lat="45.85841" lon="5.40905">
        <ele>275.6</ele>
        <time>2023-05-27T09:16:18Z</time>
      </trkpt>
      <trkpt lat="45.85824" lon="5.40918">
        <ele>274.2</ele>
        <time>2023-05-27T09:16:20Z</time>
      </trkpt>
      <trkpt lat="45.85816" lon="5.40926">
        <ele>273</ele>
        <time>2023-05-27T09:16:21Z</time>
      </trkpt>
      <trkpt lat="45.85809" lon="5.40936">
        <ele>272.6</ele>
        <time>2023-05-27T09:16:22Z</time>
      </trkpt>
      <trkpt lat="45.85802" lon="5.40946">
        <ele>271.8</ele>
        <time>2023-05-27T09:16:23Z</time>
      </trkpt>
      <trkpt lat="45.85796" lon="5.40957">
        <ele>271.4</ele>
        <time>2023-05-27T09:16:24Z</time>
      </trkpt>
      <trkpt lat="45.85792" lon="5.4097">
        <ele>270.4</ele>
        <time>2023-05-27T09:16:25Z</time>
      </trkpt>
      <trkpt lat="45.85788" lon="5.40982">
        <ele>269.8</ele>
        <time>2023-05-27T09:16:26Z</time>
      </trkpt>
      <trkpt lat="45.85783" lon="5.40994">
        <ele>268.6</ele>
        <time>2023-05-27T09:16:27Z</time>
      </trkpt>
      <trkpt lat="45.85776" lon="5.41006">
        <ele>267.2</ele>
        <time>2023-05-27T09:16:28Z</time>
      </trkpt>
      <trkpt lat="45.85768" lon="5.41016">
        <ele>266.8</ele>
        <time>2023-05-27T09:16:29Z</time>
      </trkpt>
      <trkpt lat="45.8576" lon="5.41026">
        <ele>265.6</ele>
        <time>2023-05-27T09:16:30Z</time>
      </trkpt>
      <trkpt lat="45.85751" lon="5.41036">
        <ele>265.2</ele>
        <time>2023-05-27T09:16:31Z</time>
      </trkpt>
      <trkpt lat="45.85741" lon="5.41045">
        <ele>263.4</ele>
        <time>2023-05-27T09:16:32Z</time>
      </trkpt>
      <trkpt lat="45.85722" lon="5.41062">
        <ele>261.2</ele>
        <time>2023-05-27T09:16:34Z</time>
      </trkpt>
      <trkpt lat="45.85713" lon="5.41069">
        <ele>260.4</ele>
        <time>2023-05-27T09:16:35Z</time>
      </trkpt>
      <trkpt lat="45.85705" lon="5.41077">
        <ele>260</ele>
        <time>2023-05-27T09:16:36Z</time>
      </trkpt>
      <trkpt lat="45.85697" lon="5.41086">
        <ele>258.6</ele>
        <time>2023-05-27T09:16:37Z</time>
      </trkpt>
      <trkpt lat="45.8569" lon="5.41097">
        <ele>258.2</ele>
        <time>2023-05-27T09:16:38Z</time>
      </trkpt>
      <trkpt lat="45.85683" lon="5.41109">
        <ele>257.4</ele>
        <time>2023-05-27T09:16:39Z</time>
      </trkpt>
      <trkpt lat="45.85676" lon="5.4112">
        <ele>257</ele>
        <time>2023-05-27T09:16:40Z</time>
      </trkpt>
      <trkpt lat="45.8567" lon="5.41128">
        <ele>255.6</ele>
        <time>2023-05-27T09:16:41Z</time>
      </trkpt>
      <trkpt lat="45.85663" lon="5.41139">
        <ele>255</ele>
        <time>2023-05-27T09:16:42Z</time>
      </trkpt>
      <trkpt lat="45.85656" lon="5.4115">
        <ele>253.6</ele>
        <time>2023-05-27T09:16:43Z</time>
      </trkpt>
      <trkpt lat="45.85648" lon="5.41161">
        <ele>252</ele>
        <time>2023-05-27T09:16:44Z</time>
      </trkpt>
      <trkpt lat="45.85635" lon="5.41184">
        <ele>250.8</ele>
        <time>2023-05-27T09:16:46Z</time>
      </trkpt>
      <trkpt lat="45.8563" lon="5.41195">
        <ele>250.4</ele>
        <time>2023-05-27T09:16:47Z</time>
      </trkpt>
      <trkpt lat="45.85625" lon="5.4121">
        <ele>249.6</ele>
        <time>2023-05-27T09:16:48Z</time>
      </trkpt>
      <trkpt lat="45.85622" lon="5.41219">
        <ele>249.2</ele>
        <time>2023-05-27T09:16:49Z</time>
      </trkpt>
      <trkpt lat="45.8562" lon="5.41229">
        <ele>248.4</ele>
        <time>2023-05-27T09:16:50Z</time>
      </trkpt>
      <trkpt lat="45.85617" lon="5.41237">
        <ele>247.4</ele>
        <time>2023-05-27T09:16:51Z</time>
      </trkpt>
      <trkpt lat="45.85611" lon="5.41243">
        <ele>245.4</ele>
        <time>2023-05-27T09:16:53Z</time>
      </trkpt>
      <trkpt lat="45.85607" lon="5.41231">
        <ele>243.6</ele>
        <time>2023-05-27T09:16:55Z</time>
      </trkpt>
      <trkpt lat="45.8561" lon="5.41223">
        <ele>243</ele>
        <time>2023-05-27T09:16:56Z</time>
      </trkpt>
      <trkpt lat="45.85613" lon="5.41213">
        <ele>242.4</ele>
        <time>2023-05-27T09:16:57Z</time>
      </trkpt>
      <trkpt lat="45.85616" lon="5.41202">
        <ele>241</ele>
        <time>2023-05-27T09:16:58Z</time>
      </trkpt>
      <trkpt lat="45.8562" lon="5.4119">
        <ele>240.4</ele>
        <time>2023-05-27T09:16:59Z</time>
      </trkpt>
      <trkpt lat="45.85624" lon="5.41178">
        <ele>239.4</ele>
        <time>2023-05-27T09:17:00Z</time>
      </trkpt>
      <trkpt lat="45.85628" lon="5.41165">
        <ele>239</ele>
        <time>2023-05-27T09:17:01Z</time>
      </trkpt>
      <trkpt lat="45.8563" lon="5.41152">
        <ele>238.6</ele>
        <time>2023-05-27T09:17:02Z</time>
      </trkpt>
      <trkpt lat="45.85632" lon="5.41139">
        <ele>238</ele>
        <time>2023-05-27T09:17:03Z</time>
      </trkpt>
      <trkpt lat="45.85632" lon="5.41126">
        <ele>237</ele>
        <time>2023-05-27T09:17:04Z</time>
      </trkpt>
      <trkpt lat="45.8563" lon="5.41114">
        <ele>236.2</ele>
        <time>2023-05-27T09:17:05Z</time>
      </trkpt>
      <trkpt lat="45.85628" lon="5.41103">
        <ele>236</ele>
        <time>2023-05-27T09:17:06Z</time>
      </trkpt>
      <trkpt lat="45.85624" lon="5.41093">
        <ele>235.6</ele>
        <time>2023-05-27T09:17:07Z</time>
      </trkpt>
      <trkpt lat="45.85619" lon="5.41085">
        <ele>235.2</ele>
        <time>2023-05-27T09:17:08Z</time>
      </trkpt>
      <trkpt lat="45.85614" lon="5.41078">
        <ele>234.6</ele>
        <time>2023-05-27T09:17:09Z</time>
      </trkpt>
      <trkpt lat="45.85608" lon="5.41072">
        <ele>234.2</ele>
        <time>2023-05-27T09:17:10Z</time>
      </trkpt>
      <trkpt lat="45.85601" lon="5.41067">
        <ele>232.8</ele>
        <time>2023-05-27T09:17:11Z</time>
      </trkpt>
      <trkpt lat="45.85594" lon="5.41062">
        <ele>231.8</ele>
        <time>2023-05-27T09:17:12Z</time>
      </trkpt>
      <trkpt lat="45.85588" lon="5.41056">
        <ele>231.4</ele>
        <time>2023-05-27T09:17:13Z</time>
      </trkpt>
      <trkpt lat="45.8558" lon="5.4105">
        <ele>229.8</ele>
        <time>2023-05-27T09:17:14Z</time>
      </trkpt>
      <trkpt lat="45.85573" lon="5.41044">
        <ele>229.4</ele>
        <time>2023-05-27T09:17:15Z</time>
      </trkpt>
      <trkpt lat="45.85566" lon="5.41038">
        <ele>228.6</ele>
        <time>2023-05-27T09:17:16Z</time>
      </trkpt>
      <trkpt lat="45.85558" lon="5.41031">
        <ele>228.2</ele>
        <time>2023-05-27T09:17:17Z</time>
      </trkpt>
      <trkpt lat="45.85549" lon="5.41024">
        <ele>227.4</ele>
        <time>2023-05-27T09:17:18Z</time>
      </trkpt>
      <trkpt lat="45.85541" lon="5.41018">
        <ele>226</ele>
        <time>2023-05-27T09:17:19Z</time>
      </trkpt>
      <trkpt lat="45.85535" lon="5.41013">
        <ele>225.2</ele>
        <time>2023-05-27T09:17:20Z</time>
      </trkpt>
      <trkpt lat="45.85528" lon="5.41007">
        <ele>224.2</ele>
        <time>2023-05-27T09:17:21Z</time>
      </trkpt>
      <trkpt lat="45.85521" lon="5.41001">
        <ele>223.8</ele>
        <time>2023-05-27T09:17:22Z</time>
      </trkpt>
      <trkpt lat="45.85513" lon="5.40993">
        <ele>222.8</ele>
        <time>2023-05-27T09:17:23Z</time>
      </trkpt>
      <trkpt lat="45.85508" lon="5.40988">
        <ele>222.4</ele>
        <time>2023-05-27T09:17:24Z</time>
      </trkpt>
      <trkpt lat="45.85502" lon="5.40982">
        <ele>222</ele>
        <time>2023-05-27T09:17:25Z</time>
      </trkpt>
      <trkpt lat="45.85496" lon="5.40975">
        <ele>221.2</ele>
        <time>2023-05-27T09:17:26Z</time>
      </trkpt>
      <trkpt lat="45.8549" lon="5.40967">
        <ele>220.8</ele>
        <time>2023-05-27T09:17:27Z</time>
      </trkpt>
      <trkpt lat="45.85484" lon="5.40958">
        <ele>219.8</ele>
        <time>2023-05-27T09:17:28Z</time>
      </trkpt>
      <trkpt lat="45.8548" lon="5.40951">
        <ele>219.4</ele>
        <time>2023-05-27T09:17:29Z</time>
      </trkpt>
      <trkpt lat="45.85478" lon="5.40947">
        <ele>218.6</ele>
        <time>2023-05-27T09:17:30Z</time>
      </trkpt>
      <trkpt lat="45.85475" lon="5.40943">
        <ele>218.4</ele>
        <time>2023-05-27T09:17:31Z</time>
      </trkpt>
      <trkpt lat="45.85474" lon="5.40941">
        <ele>218</ele>
        <time>2023-05-27T09:17:32Z</time>
      </trkpt>
      <trkpt lat="45.85473" lon="5.40939">
        <ele>217.2</ele>
        <time>2023-05-27T09:17:33Z</time>
      </trkpt>
      <trkpt lat="45.85473" lon="5.40937">
        <ele>216.8</ele>
        <time>2023-05-27T09:17:34Z</time>
      </trkpt>
      <trkpt lat="45.85472" lon="5.40935">
        <ele>216.6</ele>
        <time>2023-05-27T09:17:35Z</time>
      </trkpt>
      <trkpt lat="45.85472" lon="5.40934">
        <ele>216.4</ele>
        <time>2023-05-27T09:17:36Z</time>
      </trkpt>
      <trkpt lat="45.85471" lon="5.40933">
        <ele>216</ele>
        <time>2023-05-27T09:17:37Z</time>
      </trkpt>
      <trkpt lat="45.85471" lon="5.40931">
        <ele>215.8</ele>
        <time>2023-05-27T09:17:38Z</time>
      </trkpt>
      <trkpt lat="45.85471" lon="5.4093">
        <ele>215.4</ele>
        <time>2023-05-27T09:17:39Z</time>
      </trkpt>
      <trkpt lat="45.85471" lon="5.40928">
        <ele>215.2</ele>
        <time>2023-05-27T09:17:40Z</time>
      </trkpt>
      <trkpt lat="45.85471" lon="5.40925">
        <ele>215</ele>
        <time>2023-05-27T09:17:41Z</time>
      </trkpt>
      <trkpt lat="45.85472" lon="5.40922">
        <ele>214.4</ele>
        <time>2023-05-27T09:17:42Z</time>
      </trkpt>
      <trkpt lat="45.85471" lon="5.40919">
        <ele>214</ele>
        <time>2023-05-27T09:17:43Z</time>
      </trkpt>
      <trkpt lat="45.85469" lon="5.40915">
        <ele>213.6</ele>
        <time>2023-05-27T09:17:44Z</time>
      </trkpt>
      <trkpt lat="45.85468" lon="5.40911">
        <ele>213.4</ele>
        <time>2023-05-27T09:17:45Z</time>
      </trkpt>
      <trkpt lat="45.85467" lon="5.40908">
        <ele>213</ele>
        <time>2023-05-27T09:17:46Z</time>
      </trkpt>
      <trkpt lat="45.85465" lon="5.40905">
        <ele>212.2</ele>
        <time>2023-05-27T09:17:47Z</time>
      </trkpt>
      <trkpt lat="45.85463" lon="5.40902">
        <ele>212</ele>
        <time>2023-05-27T09:17:48Z</time>
      </trkpt>
      <trkpt lat="45.85461" lon="5.40898">
        <ele>211.8</ele>
        <time>2023-05-27T09:17:49Z</time>
      </trkpt>
      <trkpt lat="45.85458" lon="5.40891">
        <ele>211.6</ele>
        <time>2023-05-27T09:17:51Z</time>
      </trkpt>
      <trkpt lat="45.85457" lon="5.40887">
        <ele>211.4</ele>
        <time>2023-05-27T09:17:52Z</time>
      </trkpt>
      <trkpt lat="45.85456" lon="5.40885">
        <ele>211.4</ele>
        <time>2023-05-27T09:17:53Z</time>
      </trkpt>
      <trkpt lat="45.85454" lon="5.40881">
        <ele>211.2</ele>
        <time>2023-05-27T09:17:54Z</time>
      </trkpt>
      <trkpt lat="45.85452" lon="5.40878">
        <ele>211.2</ele>
        <time>2023-05-27T09:17:55Z</time>
      </trkpt>
      <trkpt lat="45.85451" lon="5.40874">
        <ele>211</ele>
        <time>2023-05-27T09:17:56Z</time>
      </trkpt>
      <trkpt lat="45.8545" lon="5.4087">
        <ele>211</ele>
        <time>2023-05-27T09:17:57Z</time>
      </trkpt>
      <trkpt lat="45.85448" lon="5.40866">
        <ele>211</ele>
        <time>2023-05-27T09:17:58Z</time>
      </trkpt>
      <trkpt lat="45.85446" lon="5.40861">
        <ele>211.2</ele>
        <time>2023-05-27T09:17:59Z</time>
      </trkpt>
      <trkpt lat="45.85445" lon="5.40856">
        <ele>211.2</ele>
        <time>2023-05-27T09:18:00Z</time>
      </trkpt>
      <trkpt lat="45.85442" lon="5.40851">
        <ele>211.2</ele>
        <time>2023-05-27T09:18:01Z</time>
      </trkpt>
      <trkpt lat="45.85439" lon="5.40846">
        <ele>211.4</ele>
        <time>2023-05-27T09:18:02Z</time>
      </trkpt>
      <trkpt lat="45.85438" lon="5.40842">
        <ele>211.4</ele>
        <time>2023-05-27T09:18:03Z</time>
      </trkpt>
      <trkpt lat="45.85436" lon="5.40837">
        <ele>211.4</ele>
        <time>2023-05-27T09:18:04Z</time>
      </trkpt>
      <trkpt lat="45.85434" lon="5.40832">
        <ele>211.4</ele>
        <time>2023-05-27T09:18:05Z</time>
      </trkpt>
      <trkpt lat="45.85432" lon="5.40826">
        <ele>211.4</ele>
        <time>2023-05-27T09:18:06Z</time>
      </trkpt>
      <trkpt lat="45.85427" lon="5.40816">
        <ele>211.6</ele>
        <time>2023-05-27T09:18:08Z</time>
      </trkpt>
      <trkpt lat="45.85425" lon="5.4081">
        <ele>211.6</ele>
        <time>2023-05-27T09:18:09Z</time>
      </trkpt>
      <trkpt lat="45.8542" lon="5.40799">
        <ele>211.6</ele>
        <time>2023-05-27T09:18:11Z</time>
      </trkpt>
      <trkpt lat="45.85415" lon="5.40787">
        <ele>211.6</ele>
        <time>2023-05-27T09:18:13Z</time>
      </trkpt>
      <trkpt lat="45.8541" lon="5.40775">
        <ele>211.6</ele>
        <time>2023-05-27T09:18:15Z</time>
      </trkpt>
      <trkpt lat="45.85407" lon="5.40768">
        <ele>211.8</ele>
        <time>2023-05-27T09:18:16Z</time>
      </trkpt>
      <trkpt lat="45.85404" lon="5.40762">
        <ele>211.8</ele>
        <time>2023-05-27T09:18:17Z</time>
      </trkpt>
      <trkpt lat="45.85401" lon="5.40755">
        <ele>211.8</ele>
        <time>2023-05-27T09:18:18Z</time>
      </trkpt>
      <trkpt lat="45.85398" lon="5.40748">
        <ele>211.8</ele>
        <time>2023-05-27T09:18:19Z</time>
      </trkpt>
      <trkpt lat="45.85395" lon="5.40742">
        <ele>211.8</ele>
        <time>2023-05-27T09:18:20Z</time>
      </trkpt>
      <trkpt lat="45.85391" lon="5.40734">
        <ele>211.8</ele>
        <time>2023-05-27T09:18:21Z</time>
      </trkpt>
      <trkpt lat="45.85388" lon="5.40729">
        <ele>211.8</ele>
        <time>2023-05-27T09:18:22Z</time>
      </trkpt>
      <trkpt lat="45.85385" lon="5.40723">
        <ele>211.8</ele>
        <time>2023-05-27T09:18:23Z</time>
      </trkpt>
      <trkpt lat="45.85381" lon="5.40716">
        <ele>211.8</ele>
        <time>2023-05-27T09:18:24Z</time>
      </trkpt>
      <trkpt lat="45.85378" lon="5.40709">
        <ele>211.8</ele>
        <time>2023-05-27T09:18:25Z</time>
      </trkpt>
      <trkpt lat="45.85375" lon="5.40703">
        <ele>211.6</ele>
        <time>2023-05-27T09:18:26Z</time>
      </trkpt>
      <trkpt lat="45.85371" lon="5.40696">
        <ele>211.6</ele>
        <time>2023-05-27T09:18:27Z</time>
      </trkpt>
      <trkpt lat="45.85367" lon="5.4069">
        <ele>211.4</ele>
        <time>2023-05-27T09:18:28Z</time>
      </trkpt>
      <trkpt lat="45.85364" lon="5.40683">
        <ele>211.4</ele>
        <time>2023-05-27T09:18:29Z</time>
      </trkpt>
      <trkpt lat="45.8536" lon="5.40677">
        <ele>211.2</ele>
        <time>2023-05-27T09:18:30Z</time>
      </trkpt>
      <trkpt lat="45.85357" lon="5.4067">
        <ele>211</ele>
        <time>2023-05-27T09:18:31Z</time>
      </trkpt>
      <trkpt lat="45.85354" lon="5.40663">
        <ele>211</ele>
        <time>2023-05-27T09:18:32Z</time>
      </trkpt>
      <trkpt lat="45.85351" lon="5.40656">
        <ele>211</ele>
        <time>2023-05-27T09:18:33Z</time>
      </trkpt>
      <trkpt lat="45.85348" lon="5.40649">
        <ele>210.8</ele>
        <time>2023-05-27T09:18:34Z</time>
      </trkpt>
      <trkpt lat="45.85345" lon="5.40642">
        <ele>210.6</ele>
        <time>2023-05-27T09:18:35Z</time>
      </trkpt>
      <trkpt lat="45.85343" lon="5.40635">
        <ele>210.4</ele>
        <time>2023-05-27T09:18:36Z</time>
      </trkpt>
      <trkpt lat="45.8534" lon="5.40629">
        <ele>210.2</ele>
        <time>2023-05-27T09:18:37Z</time>
      </trkpt>
      <trkpt lat="45.85337" lon="5.40624">
        <ele>209.8</ele>
        <time>2023-05-27T09:18:38Z</time>
      </trkpt>
      <trkpt lat="45.85335" lon="5.40617">
        <ele>209.6</ele>
        <time>2023-05-27T09:18:39Z</time>
      </trkpt>
      <trkpt lat="45.85332" lon="5.40611">
        <ele>209.4</ele>
        <time>2023-05-27T09:18:40Z</time>
      </trkpt>
      <trkpt lat="45.8533" lon="5.40605">
        <ele>209.4</ele>
        <time>2023-05-27T09:18:41Z</time>
      </trkpt>
      <trkpt lat="45.85328" lon="5.40599">
        <ele>209.2</ele>
        <time>2023-05-27T09:18:42Z</time>
      </trkpt>
      <trkpt lat="45.85325" lon="5.40593">
        <ele>209.2</ele>
        <time>2023-05-27T09:18:43Z</time>
      </trkpt>
      <trkpt lat="45.85323" lon="5.40587">
        <ele>209.2</ele>
        <time>2023-05-27T09:18:44Z</time>
      </trkpt>
      <trkpt lat="45.8532" lon="5.40581">
        <ele>209</ele>
        <time>2023-05-27T09:18:45Z</time>
      </trkpt>
      <trkpt lat="45.85318" lon="5.40575">
        <ele>208.8</ele>
        <time>2023-05-27T09:18:46Z</time>
      </trkpt>
      <trkpt lat="45.85315" lon="5.40569">
        <ele>208.6</ele>
        <time>2023-05-27T09:18:47Z</time>
      </trkpt>
      <trkpt lat="45.85313" lon="5.40563">
        <ele>208.6</ele>
        <time>2023-05-27T09:18:48Z</time>
      </trkpt>
      <trkpt lat="45.8531" lon="5.40557">
        <ele>208.4</ele>
        <time>2023-05-27T09:18:49Z</time>
      </trkpt>
      <trkpt lat="45.85307" lon="5.40551">
        <ele>208.2</ele>
        <time>2023-05-27T09:18:50Z</time>
      </trkpt>
      <trkpt lat="45.85305" lon="5.40545">
        <ele>208.2</ele>
        <time>2023-05-27T09:18:51Z</time>
      </trkpt>
      <trkpt lat="45.85303" lon="5.40539">
        <ele>208.2</ele>
        <time>2023-05-27T09:18:52Z</time>
      </trkpt>
      <trkpt lat="45.853" lon="5.40533">
        <ele>208.2</ele>
        <time>2023-05-27T09:18:53Z</time>
      </trkpt>
      <trkpt lat="45.85298" lon="5.40527">
        <ele>208</ele>
        <time>2023-05-27T09:18:54Z</time>
      </trkpt>
      <trkpt lat="45.85297" lon="5.40522">
        <ele>207.8</ele>
        <time>2023-05-27T09:18:55Z</time>
      </trkpt>
      <trkpt lat="45.85295" lon="5.40519">
        <ele>207.8</ele>
        <time>2023-05-27T09:18:56Z</time>
      </trkpt>
      <trkpt lat="45.85294" lon="5.40518">
        <ele>207.8</ele>
        <time>2023-05-27T09:18:57Z</time>
      </trkpt>
      <trkpt lat="45.85293" lon="5.40518">
        <ele>207.6</ele>
        <time>2023-05-27T09:18:58Z</time>
      </trkpt>
      <trkpt lat="45.85293" lon="5.40518">
        <ele>207.4</ele>
        <time>2023-05-27T09:18:59Z</time>
      </trkpt>
      <trkpt lat="45.85293" lon="5.40518">
        <ele>207.4</ele>
        <time>2023-05-27T09:19:00Z</time>
      </trkpt>
      <trkpt lat="45.85293" lon="5.40518">
        <ele>207.2</ele>
        <time>2023-05-27T09:19:01Z</time>
      </trkpt>
      <trkpt lat="45.85293" lon="5.40518">
        <ele>207</ele>
        <time>2023-05-27T09:19:02Z</time>
      </trkpt>
      <trkpt lat="45.85293" lon="5.40518">
        <ele>206.8</ele>
        <time>2023-05-27T09:19:03Z</time>
      </trkpt>
      <trkpt lat="45.85293" lon="5.40518">
        <ele>206.8</ele>
        <time>2023-05-27T09:19:04Z</time>
      </trkpt>
      <trkpt lat="45.85293" lon="5.40518">
        <ele>206.4</ele>
        <time>2023-05-27T09:19:05Z</time>
      </trkpt>
      <trkpt lat="45.85292" lon="5.40519">
        <ele>206.4</ele>
        <time>2023-05-27T09:19:06Z</time>
      </trkpt>
      <trkpt lat="45.8529" lon="5.4052">
        <ele>206.2</ele>
        <time>2023-05-27T09:19:07Z</time>
      </trkpt>
      <trkpt lat="45.85288" lon="5.40521">
        <ele>206</ele>
        <time>2023-05-27T09:19:08Z</time>
      </trkpt>
      <trkpt lat="45.85286" lon="5.40521">
        <ele>206</ele>
        <time>2023-05-27T09:19:09Z</time>
      </trkpt>
      <trkpt lat="45.85283" lon="5.40522">
        <ele>205.8</ele>
        <time>2023-05-27T09:19:10Z</time>
      </trkpt>
      <trkpt lat="45.85281" lon="5.40522">
        <ele>205.8</ele>
        <time>2023-05-27T09:19:11Z</time>
      </trkpt>
      <trkpt lat="45.85278" lon="5.40523">
        <ele>205.8</ele>
        <time>2023-05-27T09:19:12Z</time>
      </trkpt>
      <trkpt lat="45.85275" lon="5.40525">
        <ele>205.8</ele>
        <time>2023-05-27T09:19:13Z</time>
      </trkpt>
      <trkpt lat="45.85272" lon="5.40528">
        <ele>205.6</ele>
        <time>2023-05-27T09:19:14Z</time>
      </trkpt>
      <trkpt lat="45.85266" lon="5.40535">
        <ele>205.6</ele>
        <time>2023-05-27T09:19:16Z</time>
      </trkpt>
      <trkpt lat="45.85263" lon="5.40539">
        <ele>205.4</ele>
        <time>2023-05-27T09:19:17Z</time>
      </trkpt>
      <trkpt lat="45.85256" lon="5.40547">
        <ele>205.4</ele>
        <time>2023-05-27T09:19:19Z</time>
      </trkpt>
      <trkpt lat="45.85252" lon="5.40551">
        <ele>205.4</ele>
        <time>2023-05-27T09:19:20Z</time>
      </trkpt>
      <trkpt lat="45.85248" lon="5.40555">
        <ele>205.4</ele>
        <time>2023-05-27T09:19:21Z</time>
      </trkpt>
      <trkpt lat="45.85244" lon="5.40559">
        <ele>205.6</ele>
        <time>2023-05-27T09:19:22Z</time>
      </trkpt>
      <trkpt lat="45.85236" lon="5.40568">
        <ele>205.8</ele>
        <time>2023-05-27T09:19:24Z</time>
      </trkpt>
      <trkpt lat="45.85233" lon="5.40571">
        <ele>205.8</ele>
        <time>2023-05-27T09:19:25Z</time>
      </trkpt>
      <trkpt lat="45.85229" lon="5.40575">
        <ele>206</ele>
        <time>2023-05-27T09:19:26Z</time>
      </trkpt>
      <trkpt lat="45.85224" lon="5.40577">
        <ele>206</ele>
        <time>2023-05-27T09:19:27Z</time>
      </trkpt>
      <trkpt lat="45.8522" lon="5.40581">
        <ele>206.2</ele>
        <time>2023-05-27T09:19:28Z</time>
      </trkpt>
      <trkpt lat="45.85216" lon="5.40584">
        <ele>206.4</ele>
        <time>2023-05-27T09:19:29Z</time>
      </trkpt>
      <trkpt lat="45.85212" lon="5.40587">
        <ele>206.4</ele>
        <time>2023-05-27T09:19:30Z</time>
      </trkpt>
      <trkpt lat="45.85209" lon="5.4059">
        <ele>206.6</ele>
        <time>2023-05-27T09:19:31Z</time>
      </trkpt>
      <trkpt lat="45.85205" lon="5.40593">
        <ele>206.8</ele>
        <time>2023-05-27T09:19:32Z</time>
      </trkpt>
      <trkpt lat="45.85202" lon="5.40597">
        <ele>207.4</ele>
        <time>2023-05-27T09:19:33Z</time>
      </trkpt>
      <trkpt lat="45.85198" lon="5.40601">
        <ele>207.6</ele>
        <time>2023-05-27T09:19:34Z</time>
      </trkpt>
      <trkpt lat="45.85194" lon="5.40605">
        <ele>208.2</ele>
        <time>2023-05-27T09:19:35Z</time>
      </trkpt>
      <trkpt lat="45.85191" lon="5.40609">
        <ele>208.6</ele>
        <time>2023-05-27T09:19:36Z</time>
      </trkpt>
      <trkpt lat="45.85188" lon="5.40613">
        <ele>209</ele>
        <time>2023-05-27T09:19:37Z</time>
      </trkpt>
      <trkpt lat="45.85184" lon="5.40616">
        <ele>209.4</ele>
        <time>2023-05-27T09:19:38Z</time>
      </trkpt>
      <trkpt lat="45.85179" lon="5.40619">
        <ele>209.6</ele>
        <time>2023-05-27T09:19:39Z</time>
      </trkpt>
      <trkpt lat="45.85175" lon="5.40622">
        <ele>210</ele>
        <time>2023-05-27T09:19:40Z</time>
      </trkpt>
      <trkpt lat="45.85171" lon="5.40626">
        <ele>210.2</ele>
        <time>2023-05-27T09:19:41Z</time>
      </trkpt>
      <trkpt lat="45.85166" lon="5.4063">
        <ele>210.6</ele>
        <time>2023-05-27T09:19:42Z</time>
      </trkpt>
      <trkpt lat="45.85162" lon="5.40633">
        <ele>210.6</ele>
        <time>2023-05-27T09:19:43Z</time>
      </trkpt>
      <trkpt lat="45.85158" lon="5.40636">
        <ele>210.8</ele>
        <time>2023-05-27T09:19:44Z</time>
      </trkpt>
      <trkpt lat="45.85154" lon="5.4064">
        <ele>211</ele>
        <time>2023-05-27T09:19:45Z</time>
      </trkpt>
      <trkpt lat="45.8515" lon="5.40644">
        <ele>211.2</ele>
        <time>2023-05-27T09:19:46Z</time>
      </trkpt>
      <trkpt lat="45.85146" lon="5.40647">
        <ele>211.4</ele>
        <time>2023-05-27T09:19:47Z</time>
      </trkpt>
      <trkpt lat="45.85142" lon="5.4065">
        <ele>211.6</ele>
        <time>2023-05-27T09:19:48Z</time>
      </trkpt>
      <trkpt lat="45.85137" lon="5.40654">
        <ele>211.8</ele>
        <time>2023-05-27T09:19:49Z</time>
      </trkpt>
      <trkpt lat="45.85133" lon="5.40658">
        <ele>211.8</ele>
        <time>2023-05-27T09:19:50Z</time>
      </trkpt>
      <trkpt lat="45.85128" lon="5.40662">
        <ele>212</ele>
        <time>2023-05-27T09:19:51Z</time>
      </trkpt>
      <trkpt lat="45.85124" lon="5.40666">
        <ele>212</ele>
        <time>2023-05-27T09:19:52Z</time>
      </trkpt>
      <trkpt lat="45.85119" lon="5.40671">
        <ele>212</ele>
        <time>2023-05-27T09:19:53Z</time>
      </trkpt>
      <trkpt lat="45.85115" lon="5.40677">
        <ele>212.2</ele>
        <time>2023-05-27T09:19:54Z</time>
      </trkpt>
      <trkpt lat="45.8511" lon="5.40682">
        <ele>212.2</ele>
        <time>2023-05-27T09:19:55Z</time>
      </trkpt>
      <trkpt lat="45.85106" lon="5.40687">
        <ele>212.4</ele>
        <time>2023-05-27T09:19:56Z</time>
      </trkpt>
      <trkpt lat="45.85101" lon="5.40693">
        <ele>212.4</ele>
        <time>2023-05-27T09:19:57Z</time>
      </trkpt>
      <trkpt lat="45.85097" lon="5.40699">
        <ele>212.4</ele>
        <time>2023-05-27T09:19:58Z</time>
      </trkpt>
      <trkpt lat="45.85092" lon="5.40705">
        <ele>212.4</ele>
        <time>2023-05-27T09:19:59Z</time>
      </trkpt>
      <trkpt lat="45.85087" lon="5.40711">
        <ele>212.4</ele>
        <time>2023-05-27T09:20:00Z</time>
      </trkpt>
      <trkpt lat="45.85083" lon="5.40717">
        <ele>212.6</ele>
        <time>2023-05-27T09:20:01Z</time>
      </trkpt>
      <trkpt lat="45.85078" lon="5.40724">
        <ele>212.6</ele>
        <time>2023-05-27T09:20:02Z</time>
      </trkpt>
      <trkpt lat="45.85074" lon="5.4073">
        <ele>212.6</ele>
        <time>2023-05-27T09:20:03Z</time>
      </trkpt>
      <trkpt lat="45.85069" lon="5.40737">
        <ele>212.6</ele>
        <time>2023-05-27T09:20:04Z</time>
      </trkpt>
      <trkpt lat="45.85064" lon="5.40743">
        <ele>212.4</ele>
        <time>2023-05-27T09:20:05Z</time>
      </trkpt>
      <trkpt lat="45.8506" lon="5.4075">
        <ele>212.4</ele>
        <time>2023-05-27T09:20:06Z</time>
      </trkpt>
      <trkpt lat="45.85055" lon="5.40757">
        <ele>212.4</ele>
        <time>2023-05-27T09:20:07Z</time>
      </trkpt>
      <trkpt lat="45.8505" lon="5.40765">
        <ele>212.4</ele>
        <time>2023-05-27T09:20:08Z</time>
      </trkpt>
      <trkpt lat="45.85045" lon="5.40772">
        <ele>212.4</ele>
        <time>2023-05-27T09:20:09Z</time>
      </trkpt>
      <trkpt lat="45.85041" lon="5.40779">
        <ele>212.4</ele>
        <time>2023-05-27T09:20:10Z</time>
      </trkpt>
      <trkpt lat="45.85036" lon="5.40786">
        <ele>212.4</ele>
        <time>2023-05-27T09:20:11Z</time>
      </trkpt>
      <trkpt lat="45.85031" lon="5.40793">
        <ele>212.4</ele>
        <time>2023-05-27T09:20:12Z</time>
      </trkpt>
      <trkpt lat="45.85027" lon="5.40801">
        <ele>212.4</ele>
        <time>2023-05-27T09:20:13Z</time>
      </trkpt>
      <trkpt lat="45.85022" lon="5.40808">
        <ele>212.4</ele>
        <time>2023-05-27T09:20:14Z</time>
      </trkpt>
      <trkpt lat="45.85018" lon="5.40815">
        <ele>212.2</ele>
        <time>2023-05-27T09:20:15Z</time>
      </trkpt>
      <trkpt lat="45.85013" lon="5.40822">
        <ele>212.2</ele>
        <time>2023-05-27T09:20:16Z</time>
      </trkpt>
      <trkpt lat="45.85008" lon="5.40829">
        <ele>212.2</ele>
        <time>2023-05-27T09:20:17Z</time>
      </trkpt>
      <trkpt lat="45.85004" lon="5.40837">
        <ele>212.2</ele>
        <time>2023-05-27T09:20:18Z</time>
      </trkpt>
      <trkpt lat="45.84998" lon="5.40845">
        <ele>212.2</ele>
        <time>2023-05-27T09:20:19Z</time>
      </trkpt>
      <trkpt lat="45.84995" lon="5.4085">
        <ele>212</ele>
        <time>2023-05-27T09:20:20Z</time>
      </trkpt>
      <trkpt lat="45.84989" lon="5.40858">
        <ele>212</ele>
        <time>2023-05-27T09:20:21Z</time>
      </trkpt>
      <trkpt lat="45.84985" lon="5.40865">
        <ele>212</ele>
        <time>2023-05-27T09:20:22Z</time>
      </trkpt>
      <trkpt lat="45.84981" lon="5.40872">
        <ele>212</ele>
        <time>2023-05-27T09:20:23Z</time>
      </trkpt>
      <trkpt lat="45.84976" lon="5.4088">
        <ele>212</ele>
        <time>2023-05-27T09:20:24Z</time>
      </trkpt>
      <trkpt lat="45.84973" lon="5.40886">
        <ele>212</ele>
        <time>2023-05-27T09:20:25Z</time>
      </trkpt>
      <trkpt lat="45.84968" lon="5.40893">
        <ele>212</ele>
        <time>2023-05-27T09:20:26Z</time>
      </trkpt>
      <trkpt lat="45.84963" lon="5.40902">
        <ele>211.8</ele>
        <time>2023-05-27T09:20:27Z</time>
      </trkpt>
      <trkpt lat="45.84958" lon="5.4091">
        <ele>212</ele>
        <time>2023-05-27T09:20:28Z</time>
      </trkpt>
      <trkpt lat="45.84954" lon="5.40917">
        <ele>212</ele>
        <time>2023-05-27T09:20:29Z</time>
      </trkpt>
      <trkpt lat="45.84951" lon="5.40923">
        <ele>212</ele>
        <time>2023-05-27T09:20:30Z</time>
      </trkpt>
      <trkpt lat="45.84946" lon="5.40931">
        <ele>211.8</ele>
        <time>2023-05-27T09:20:31Z</time>
      </trkpt>
      <trkpt lat="45.84942" lon="5.4094">
        <ele>211.8</ele>
        <time>2023-05-27T09:20:32Z</time>
      </trkpt>
      <trkpt lat="45.84938" lon="5.40948">
        <ele>211.8</ele>
        <time>2023-05-27T09:20:33Z</time>
      </trkpt>
      <trkpt lat="45.84935" lon="5.40954">
        <ele>211.8</ele>
        <time>2023-05-27T09:20:34Z</time>
      </trkpt>
      <trkpt lat="45.84931" lon="5.40962">
        <ele>212</ele>
        <time>2023-05-27T09:20:35Z</time>
      </trkpt>
      <trkpt lat="45.84927" lon="5.40972">
        <ele>212</ele>
        <time>2023-05-27T09:20:36Z</time>
      </trkpt>
      <trkpt lat="45.84924" lon="5.40978">
        <ele>212</ele>
        <time>2023-05-27T09:20:37Z</time>
      </trkpt>
      <trkpt lat="45.84919" lon="5.40987">
        <ele>212.2</ele>
        <time>2023-05-27T09:20:38Z</time>
      </trkpt>
      <trkpt lat="45.84915" lon="5.40995">
        <ele>212.2</ele>
        <time>2023-05-27T09:20:39Z</time>
      </trkpt>
      <trkpt lat="45.84911" lon="5.41001">
        <ele>212.4</ele>
        <time>2023-05-27T09:20:40Z</time>
      </trkpt>
      <trkpt lat="45.84906" lon="5.41011">
        <ele>212.4</ele>
        <time>2023-05-27T09:20:41Z</time>
      </trkpt>
      <trkpt lat="45.84902" lon="5.41019">
        <ele>212.4</ele>
        <time>2023-05-27T09:20:42Z</time>
      </trkpt>
      <trkpt lat="45.84898" lon="5.41027">
        <ele>212.6</ele>
        <time>2023-05-27T09:20:43Z</time>
      </trkpt>
      <trkpt lat="45.84894" lon="5.41034">
        <ele>212.6</ele>
        <time>2023-05-27T09:20:44Z</time>
      </trkpt>
      <trkpt lat="45.8489" lon="5.41042">
        <ele>212.6</ele>
        <time>2023-05-27T09:20:45Z</time>
      </trkpt>
      <trkpt lat="45.84886" lon="5.41049">
        <ele>212.6</ele>
        <time>2023-05-27T09:20:46Z</time>
      </trkpt>
      <trkpt lat="45.84877" lon="5.41065">
        <ele>212.8</ele>
        <time>2023-05-27T09:20:48Z</time>
      </trkpt>
      <trkpt lat="45.84874" lon="5.41071">
        <ele>212.8</ele>
        <time>2023-05-27T09:20:49Z</time>
      </trkpt>
      <trkpt lat="45.8487" lon="5.41079">
        <ele>212.8</ele>
        <time>2023-05-27T09:20:50Z</time>
      </trkpt>
      <trkpt lat="45.84865" lon="5.41087">
        <ele>212.8</ele>
        <time>2023-05-27T09:20:51Z</time>
      </trkpt>
      <trkpt lat="45.84861" lon="5.41095">
        <ele>212.8</ele>
        <time>2023-05-27T09:20:52Z</time>
      </trkpt>
      <trkpt lat="45.84857" lon="5.41103">
        <ele>212.8</ele>
        <time>2023-05-27T09:20:53Z</time>
      </trkpt>
      <trkpt lat="45.84847" lon="5.41121">
        <ele>212.8</ele>
        <time>2023-05-27T09:20:55Z</time>
      </trkpt>
      <trkpt lat="45.84844" lon="5.41128">
        <ele>213</ele>
        <time>2023-05-27T09:20:56Z</time>
      </trkpt>
      <trkpt lat="45.84839" lon="5.41138">
        <ele>213</ele>
        <time>2023-05-27T09:20:57Z</time>
      </trkpt>
      <trkpt lat="45.84835" lon="5.41145">
        <ele>213</ele>
        <time>2023-05-27T09:20:58Z</time>
      </trkpt>
      <trkpt lat="45.8483" lon="5.41155">
        <ele>213.2</ele>
        <time>2023-05-27T09:20:59Z</time>
      </trkpt>
      <trkpt lat="45.84826" lon="5.41163">
        <ele>213.2</ele>
        <time>2023-05-27T09:21:00Z</time>
      </trkpt>
      <trkpt lat="45.84821" lon="5.41171">
        <ele>213.4</ele>
        <time>2023-05-27T09:21:01Z</time>
      </trkpt>
      <trkpt lat="45.84816" lon="5.41179">
        <ele>213.4</ele>
        <time>2023-05-27T09:21:02Z</time>
      </trkpt>
      <trkpt lat="45.84812" lon="5.41185">
        <ele>213.4</ele>
        <time>2023-05-27T09:21:03Z</time>
      </trkpt>
      <trkpt lat="45.84808" lon="5.41193">
        <ele>213.4</ele>
        <time>2023-05-27T09:21:04Z</time>
      </trkpt>
      <trkpt lat="45.84803" lon="5.41201">
        <ele>213.4</ele>
        <time>2023-05-27T09:21:05Z</time>
      </trkpt>
      <trkpt lat="45.84789" lon="5.41224">
        <ele>213.6</ele>
        <time>2023-05-27T09:21:08Z</time>
      </trkpt>
      <trkpt lat="45.84779" lon="5.4124">
        <ele>213.4</ele>
        <time>2023-05-27T09:21:10Z</time>
      </trkpt>
      <trkpt lat="45.84775" lon="5.41248">
        <ele>213.4</ele>
        <time>2023-05-27T09:21:11Z</time>
      </trkpt>
      <trkpt lat="45.8477" lon="5.41256">
        <ele>213.4</ele>
        <time>2023-05-27T09:21:12Z</time>
      </trkpt>
      <trkpt lat="45.84765" lon="5.41263">
        <ele>213.4</ele>
        <time>2023-05-27T09:21:13Z</time>
      </trkpt>
      <trkpt lat="45.84761" lon="5.41271">
        <ele>213.4</ele>
        <time>2023-05-27T09:21:14Z</time>
      </trkpt>
      <trkpt lat="45.84756" lon="5.41279">
        <ele>213.6</ele>
        <time>2023-05-27T09:21:15Z</time>
      </trkpt>
      <trkpt lat="45.84746" lon="5.41293">
        <ele>213.6</ele>
        <time>2023-05-27T09:21:17Z</time>
      </trkpt>
      <trkpt lat="45.84741" lon="5.41301">
        <ele>213.6</ele>
        <time>2023-05-27T09:21:18Z</time>
      </trkpt>
      <trkpt lat="45.84737" lon="5.41308">
        <ele>213.6</ele>
        <time>2023-05-27T09:21:19Z</time>
      </trkpt>
      <trkpt lat="45.84732" lon="5.41315">
        <ele>213.8</ele>
        <time>2023-05-27T09:21:20Z</time>
      </trkpt>
      <trkpt lat="45.84727" lon="5.41323">
        <ele>213.8</ele>
        <time>2023-05-27T09:21:21Z</time>
      </trkpt>
      <trkpt lat="45.84722" lon="5.4133">
        <ele>213.8</ele>
        <time>2023-05-27T09:21:22Z</time>
      </trkpt>
      <trkpt lat="45.84716" lon="5.41336">
        <ele>213.8</ele>
        <time>2023-05-27T09:21:23Z</time>
      </trkpt>
      <trkpt lat="45.84711" lon="5.41343">
        <ele>214</ele>
        <time>2023-05-27T09:21:24Z</time>
      </trkpt>
      <trkpt lat="45.84705" lon="5.4135">
        <ele>214</ele>
        <time>2023-05-27T09:21:25Z</time>
      </trkpt>
      <trkpt lat="45.847" lon="5.41357">
        <ele>213.8</ele>
        <time>2023-05-27T09:21:26Z</time>
      </trkpt>
      <trkpt lat="45.84695" lon="5.41363">
        <ele>213.8</ele>
        <time>2023-05-27T09:21:27Z</time>
      </trkpt>
      <trkpt lat="45.84689" lon="5.4137">
        <ele>213.8</ele>
        <time>2023-05-27T09:21:28Z</time>
      </trkpt>
      <trkpt lat="45.84684" lon="5.41376">
        <ele>213.8</ele>
        <time>2023-05-27T09:21:29Z</time>
      </trkpt>
      <trkpt lat="45.84672" lon="5.41388">
        <ele>213.8</ele>
        <time>2023-05-27T09:21:31Z</time>
      </trkpt>
      <trkpt lat="45.84667" lon="5.41394">
        <ele>213.8</ele>
        <time>2023-05-27T09:21:32Z</time>
      </trkpt>
      <trkpt lat="45.84661" lon="5.414">
        <ele>213.8</ele>
        <time>2023-05-27T09:21:33Z</time>
      </trkpt>
      <trkpt lat="45.84654" lon="5.41407">
        <ele>213.8</ele>
        <time>2023-05-27T09:21:34Z</time>
      </trkpt>
      <trkpt lat="45.84649" lon="5.41412">
        <ele>213.8</ele>
        <time>2023-05-27T09:21:35Z</time>
      </trkpt>
      <trkpt lat="45.84642" lon="5.41419">
        <ele>214</ele>
        <time>2023-05-27T09:21:36Z</time>
      </trkpt>
      <trkpt lat="45.84637" lon="5.41424">
        <ele>214</ele>
        <time>2023-05-27T09:21:37Z</time>
      </trkpt>
      <trkpt lat="45.84631" lon="5.41429">
        <ele>214.2</ele>
        <time>2023-05-27T09:21:38Z</time>
      </trkpt>
      <trkpt lat="45.84626" lon="5.41434">
        <ele>214.2</ele>
        <time>2023-05-27T09:21:39Z</time>
      </trkpt>
      <trkpt lat="45.8462" lon="5.41439">
        <ele>214.2</ele>
        <time>2023-05-27T09:21:40Z</time>
      </trkpt>
      <trkpt lat="45.84614" lon="5.41444">
        <ele>214.2</ele>
        <time>2023-05-27T09:21:41Z</time>
      </trkpt>
      <trkpt lat="45.84608" lon="5.41448">
        <ele>214.2</ele>
        <time>2023-05-27T09:21:42Z</time>
      </trkpt>
      <trkpt lat="45.84602" lon="5.41453">
        <ele>214.2</ele>
        <time>2023-05-27T09:21:43Z</time>
      </trkpt>
      <trkpt lat="45.84596" lon="5.41458">
        <ele>214.2</ele>
        <time>2023-05-27T09:21:44Z</time>
      </trkpt>
      <trkpt lat="45.8459" lon="5.41463">
        <ele>214.4</ele>
        <time>2023-05-27T09:21:45Z</time>
      </trkpt>
      <trkpt lat="45.84583" lon="5.41468">
        <ele>214.4</ele>
        <time>2023-05-27T09:21:46Z</time>
      </trkpt>
      <trkpt lat="45.84571" lon="5.41477">
        <ele>214.6</ele>
        <time>2023-05-27T09:21:48Z</time>
      </trkpt>
      <trkpt lat="45.84564" lon="5.41481">
        <ele>214.6</ele>
        <time>2023-05-27T09:21:49Z</time>
      </trkpt>
      <trkpt lat="45.84551" lon="5.4149">
        <ele>214.6</ele>
        <time>2023-05-27T09:21:51Z</time>
      </trkpt>
      <trkpt lat="45.84545" lon="5.41494">
        <ele>214.8</ele>
        <time>2023-05-27T09:21:52Z</time>
      </trkpt>
      <trkpt lat="45.84539" lon="5.41498">
        <ele>214.8</ele>
        <time>2023-05-27T09:21:53Z</time>
      </trkpt>
      <trkpt lat="45.84531" lon="5.41503">
        <ele>214.8</ele>
        <time>2023-05-27T09:21:54Z</time>
      </trkpt>
      <trkpt lat="45.84524" lon="5.41506">
        <ele>214.8</ele>
        <time>2023-05-27T09:21:55Z</time>
      </trkpt>
      <trkpt lat="45.84517" lon="5.4151">
        <ele>215</ele>
        <time>2023-05-27T09:21:56Z</time>
      </trkpt>
      <trkpt lat="45.84512" lon="5.41513">
        <ele>215.2</ele>
        <time>2023-05-27T09:21:57Z</time>
      </trkpt>
      <trkpt lat="45.84503" lon="5.41516">
        <ele>215.2</ele>
        <time>2023-05-27T09:21:58Z</time>
      </trkpt>
      <trkpt lat="45.84496" lon="5.41519">
        <ele>215.4</ele>
        <time>2023-05-27T09:21:59Z</time>
      </trkpt>
      <trkpt lat="45.8449" lon="5.41522">
        <ele>215.4</ele>
        <time>2023-05-27T09:22:00Z</time>
      </trkpt>
      <trkpt lat="45.84484" lon="5.41523">
        <ele>215.6</ele>
        <time>2023-05-27T09:22:01Z</time>
      </trkpt>
      <trkpt lat="45.84477" lon="5.41526">
        <ele>215.6</ele>
        <time>2023-05-27T09:22:02Z</time>
      </trkpt>
      <trkpt lat="45.84469" lon="5.41529">
        <ele>215.8</ele>
        <time>2023-05-27T09:22:03Z</time>
      </trkpt>
      <trkpt lat="45.84464" lon="5.41532">
        <ele>215.8</ele>
        <time>2023-05-27T09:22:04Z</time>
      </trkpt>
      <trkpt lat="45.84457" lon="5.41534">
        <ele>215.8</ele>
        <time>2023-05-27T09:22:05Z</time>
      </trkpt>
      <trkpt lat="45.8445" lon="5.41537">
        <ele>216</ele>
        <time>2023-05-27T09:22:06Z</time>
      </trkpt>
      <trkpt lat="45.84443" lon="5.41539">
        <ele>216</ele>
        <time>2023-05-27T09:22:07Z</time>
      </trkpt>
      <trkpt lat="45.84436" lon="5.41542">
        <ele>216</ele>
        <time>2023-05-27T09:22:08Z</time>
      </trkpt>
      <trkpt lat="45.84429" lon="5.41545">
        <ele>216</ele>
        <time>2023-05-27T09:22:09Z</time>
      </trkpt>
      <trkpt lat="45.84422" lon="5.41548">
        <ele>216</ele>
        <time>2023-05-27T09:22:10Z</time>
      </trkpt>
      <trkpt lat="45.84415" lon="5.4155">
        <ele>216</ele>
        <time>2023-05-27T09:22:11Z</time>
      </trkpt>
      <trkpt lat="45.84408" lon="5.41552">
        <ele>216</ele>
        <time>2023-05-27T09:22:12Z</time>
      </trkpt>
      <trkpt lat="45.84399" lon="5.41555">
        <ele>216</ele>
        <time>2023-05-27T09:22:13Z</time>
      </trkpt>
      <trkpt lat="45.84394" lon="5.41557">
        <ele>216</ele>
        <time>2023-05-27T09:22:14Z</time>
      </trkpt>
      <trkpt lat="45.84385" lon="5.41559">
        <ele>216</ele>
        <time>2023-05-27T09:22:15Z</time>
      </trkpt>
      <trkpt lat="45.84379" lon="5.41561">
        <ele>216</ele>
        <time>2023-05-27T09:22:16Z</time>
      </trkpt>
      <trkpt lat="45.84372" lon="5.41562">
        <ele>216</ele>
        <time>2023-05-27T09:22:17Z</time>
      </trkpt>
      <trkpt lat="45.84363" lon="5.41564">
        <ele>216</ele>
        <time>2023-05-27T09:22:18Z</time>
      </trkpt>
      <trkpt lat="45.84355" lon="5.41565">
        <ele>216</ele>
        <time>2023-05-27T09:22:19Z</time>
      </trkpt>
      <trkpt lat="45.84349" lon="5.41566">
        <ele>215.8</ele>
        <time>2023-05-27T09:22:20Z</time>
      </trkpt>
      <trkpt lat="45.84342" lon="5.41568">
        <ele>215.8</ele>
        <time>2023-05-27T09:22:21Z</time>
      </trkpt>
      <trkpt lat="45.84333" lon="5.4157">
        <ele>215.8</ele>
        <time>2023-05-27T09:22:22Z</time>
      </trkpt>
      <trkpt lat="45.84327" lon="5.41571">
        <ele>215.8</ele>
        <time>2023-05-27T09:22:23Z</time>
      </trkpt>
      <trkpt lat="45.84318" lon="5.41573">
        <ele>215.8</ele>
        <time>2023-05-27T09:22:24Z</time>
      </trkpt>
      <trkpt lat="45.84311" lon="5.41575">
        <ele>215.8</ele>
        <time>2023-05-27T09:22:25Z</time>
      </trkpt>
      <trkpt lat="45.84305" lon="5.41577">
        <ele>215.8</ele>
        <time>2023-05-27T09:22:26Z</time>
      </trkpt>
      <trkpt lat="45.84298" lon="5.41579">
        <ele>215.8</ele>
        <time>2023-05-27T09:22:27Z</time>
      </trkpt>
      <trkpt lat="45.84289" lon="5.41582">
        <ele>215.8</ele>
        <time>2023-05-27T09:22:28Z</time>
      </trkpt>
      <trkpt lat="45.84283" lon="5.41583">
        <ele>216</ele>
        <time>2023-05-27T09:22:29Z</time>
      </trkpt>
      <trkpt lat="45.84275" lon="5.41586">
        <ele>216</ele>
        <time>2023-05-27T09:22:30Z</time>
      </trkpt>
      <trkpt lat="45.84268" lon="5.41588">
        <ele>216</ele>
        <time>2023-05-27T09:22:31Z</time>
      </trkpt>
      <trkpt lat="45.84261" lon="5.4159">
        <ele>216</ele>
        <time>2023-05-27T09:22:32Z</time>
      </trkpt>
      <trkpt lat="45.84252" lon="5.41594">
        <ele>216</ele>
        <time>2023-05-27T09:22:33Z</time>
      </trkpt>
      <trkpt lat="45.84244" lon="5.41597">
        <ele>216</ele>
        <time>2023-05-27T09:22:34Z</time>
      </trkpt>
      <trkpt lat="45.84239" lon="5.41599">
        <ele>216.2</ele>
        <time>2023-05-27T09:22:35Z</time>
      </trkpt>
      <trkpt lat="45.84231" lon="5.41602">
        <ele>216.2</ele>
        <time>2023-05-27T09:22:36Z</time>
      </trkpt>
      <trkpt lat="45.84224" lon="5.41604">
        <ele>216.4</ele>
        <time>2023-05-27T09:22:37Z</time>
      </trkpt>
      <trkpt lat="45.84217" lon="5.41607">
        <ele>216.4</ele>
        <time>2023-05-27T09:22:38Z</time>
      </trkpt>
      <trkpt lat="45.8421" lon="5.41609">
        <ele>216.6</ele>
        <time>2023-05-27T09:22:39Z</time>
      </trkpt>
      <trkpt lat="45.84203" lon="5.41611">
        <ele>216.6</ele>
        <time>2023-05-27T09:22:40Z</time>
      </trkpt>
      <trkpt lat="45.84196" lon="5.41613">
        <ele>216.6</ele>
        <time>2023-05-27T09:22:41Z</time>
      </trkpt>
      <trkpt lat="45.84189" lon="5.41614">
        <ele>216.6</ele>
        <time>2023-05-27T09:22:42Z</time>
      </trkpt>
      <trkpt lat="45.84182" lon="5.41615">
        <ele>216.6</ele>
        <time>2023-05-27T09:22:43Z</time>
      </trkpt>
      <trkpt lat="45.84174" lon="5.41615">
        <ele>216.6</ele>
        <time>2023-05-27T09:22:44Z</time>
      </trkpt>
      <trkpt lat="45.84167" lon="5.41616">
        <ele>216.6</ele>
        <time>2023-05-27T09:22:45Z</time>
      </trkpt>
      <trkpt lat="45.8416" lon="5.41617">
        <ele>216.4</ele>
        <time>2023-05-27T09:22:46Z</time>
      </trkpt>
      <trkpt lat="45.84153" lon="5.41618">
        <ele>216.4</ele>
        <time>2023-05-27T09:22:47Z</time>
      </trkpt>
      <trkpt lat="45.84145" lon="5.41618">
        <ele>216.4</ele>
        <time>2023-05-27T09:22:48Z</time>
      </trkpt>
      <trkpt lat="45.84138" lon="5.41619">
        <ele>216.4</ele>
        <time>2023-05-27T09:22:49Z</time>
      </trkpt>
      <trkpt lat="45.84131" lon="5.4162">
        <ele>216.4</ele>
        <time>2023-05-27T09:22:50Z</time>
      </trkpt>
      <trkpt lat="45.84124" lon="5.4162">
        <ele>216.4</ele>
        <time>2023-05-27T09:22:51Z</time>
      </trkpt>
      <trkpt lat="45.84116" lon="5.4162">
        <ele>216.4</ele>
        <time>2023-05-27T09:22:52Z</time>
      </trkpt>
      <trkpt lat="45.84109" lon="5.41621">
        <ele>216.4</ele>
        <time>2023-05-27T09:22:53Z</time>
      </trkpt>
      <trkpt lat="45.84101" lon="5.41621">
        <ele>216.6</ele>
        <time>2023-05-27T09:22:54Z</time>
      </trkpt>
      <trkpt lat="45.84094" lon="5.41621">
        <ele>216.4</ele>
        <time>2023-05-27T09:22:55Z</time>
      </trkpt>
      <trkpt lat="45.84087" lon="5.41621">
        <ele>216.4</ele>
        <time>2023-05-27T09:22:56Z</time>
      </trkpt>
      <trkpt lat="45.8408" lon="5.41622">
        <ele>216.4</ele>
        <time>2023-05-27T09:22:57Z</time>
      </trkpt>
      <trkpt lat="45.84073" lon="5.41622">
        <ele>216.4</ele>
        <time>2023-05-27T09:22:58Z</time>
      </trkpt>
      <trkpt lat="45.84065" lon="5.41622">
        <ele>216.4</ele>
        <time>2023-05-27T09:22:59Z</time>
      </trkpt>
      <trkpt lat="45.84058" lon="5.41623">
        <ele>216.4</ele>
        <time>2023-05-27T09:23:00Z</time>
      </trkpt>
      <trkpt lat="45.84051" lon="5.41624">
        <ele>216.4</ele>
        <time>2023-05-27T09:23:01Z</time>
      </trkpt>
      <trkpt lat="45.84044" lon="5.41626">
        <ele>216.4</ele>
        <time>2023-05-27T09:23:02Z</time>
      </trkpt>
      <trkpt lat="45.84037" lon="5.41627">
        <ele>216.4</ele>
        <time>2023-05-27T09:23:03Z</time>
      </trkpt>
      <trkpt lat="45.8403" lon="5.41629">
        <ele>216.2</ele>
        <time>2023-05-27T09:23:04Z</time>
      </trkpt>
      <trkpt lat="45.84023" lon="5.41632">
        <ele>216.2</ele>
        <time>2023-05-27T09:23:05Z</time>
      </trkpt>
      <trkpt lat="45.84016" lon="5.41635">
        <ele>216</ele>
        <time>2023-05-27T09:23:06Z</time>
      </trkpt>
      <trkpt lat="45.84009" lon="5.41638">
        <ele>215.8</ele>
        <time>2023-05-27T09:23:07Z</time>
      </trkpt>
      <trkpt lat="45.84003" lon="5.41642">
        <ele>215.8</ele>
        <time>2023-05-27T09:23:08Z</time>
      </trkpt>
      <trkpt lat="45.83997" lon="5.41646">
        <ele>215.8</ele>
        <time>2023-05-27T09:23:09Z</time>
      </trkpt>
      <trkpt lat="45.8399" lon="5.4165">
        <ele>215.6</ele>
        <time>2023-05-27T09:23:10Z</time>
      </trkpt>
      <trkpt lat="45.83984" lon="5.41655">
        <ele>215.6</ele>
        <time>2023-05-27T09:23:11Z</time>
      </trkpt>
      <trkpt lat="45.83978" lon="5.4166">
        <ele>215.6</ele>
        <time>2023-05-27T09:23:12Z</time>
      </trkpt>
      <trkpt lat="45.83972" lon="5.41665">
        <ele>215.4</ele>
        <time>2023-05-27T09:23:13Z</time>
      </trkpt>
      <trkpt lat="45.83966" lon="5.4167">
        <ele>215.4</ele>
        <time>2023-05-27T09:23:14Z</time>
      </trkpt>
      <trkpt lat="45.8396" lon="5.41675">
        <ele>215.2</ele>
        <time>2023-05-27T09:23:15Z</time>
      </trkpt>
      <trkpt lat="45.83954" lon="5.41681">
        <ele>215.2</ele>
        <time>2023-05-27T09:23:16Z</time>
      </trkpt>
      <trkpt lat="45.83948" lon="5.41688">
        <ele>215</ele>
        <time>2023-05-27T09:23:17Z</time>
      </trkpt>
      <trkpt lat="45.83942" lon="5.41694">
        <ele>215</ele>
        <time>2023-05-27T09:23:18Z</time>
      </trkpt>
      <trkpt lat="45.83936" lon="5.41701">
        <ele>214.8</ele>
        <time>2023-05-27T09:23:19Z</time>
      </trkpt>
      <trkpt lat="45.8393" lon="5.41708">
        <ele>214.6</ele>
        <time>2023-05-27T09:23:20Z</time>
      </trkpt>
      <trkpt lat="45.83925" lon="5.41715">
        <ele>214.4</ele>
        <time>2023-05-27T09:23:21Z</time>
      </trkpt>
      <trkpt lat="45.83919" lon="5.41722">
        <ele>214.4</ele>
        <time>2023-05-27T09:23:22Z</time>
      </trkpt>
      <trkpt lat="45.83914" lon="5.4173">
        <ele>214.2</ele>
        <time>2023-05-27T09:23:23Z</time>
      </trkpt>
      <trkpt lat="45.83908" lon="5.41737">
        <ele>214.2</ele>
        <time>2023-05-27T09:23:24Z</time>
      </trkpt>
      <trkpt lat="45.83903" lon="5.41744">
        <ele>214.2</ele>
        <time>2023-05-27T09:23:25Z</time>
      </trkpt>
      <trkpt lat="45.83897" lon="5.41751">
        <ele>214</ele>
        <time>2023-05-27T09:23:26Z</time>
      </trkpt>
      <trkpt lat="45.83892" lon="5.41758">
        <ele>214</ele>
        <time>2023-05-27T09:23:27Z</time>
      </trkpt>
      <trkpt lat="45.83886" lon="5.41766">
        <ele>214</ele>
        <time>2023-05-27T09:23:28Z</time>
      </trkpt>
      <trkpt lat="45.83881" lon="5.41773">
        <ele>214</ele>
        <time>2023-05-27T09:23:29Z</time>
      </trkpt>
      <trkpt lat="45.83875" lon="5.4178">
        <ele>214</ele>
        <time>2023-05-27T09:23:30Z</time>
      </trkpt>
      <trkpt lat="45.8387" lon="5.41787">
        <ele>214.2</ele>
        <time>2023-05-27T09:23:31Z</time>
      </trkpt>
      <trkpt lat="45.83864" lon="5.41794">
        <ele>214.2</ele>
        <time>2023-05-27T09:23:32Z</time>
      </trkpt>
      <trkpt lat="45.83859" lon="5.41801">
        <ele>214.2</ele>
        <time>2023-05-27T09:23:33Z</time>
      </trkpt>
      <trkpt lat="45.83854" lon="5.41808">
        <ele>214.4</ele>
        <time>2023-05-27T09:23:34Z</time>
      </trkpt>
      <trkpt lat="45.83848" lon="5.41814">
        <ele>214.2</ele>
        <time>2023-05-27T09:23:35Z</time>
      </trkpt>
      <trkpt lat="45.83843" lon="5.41822">
        <ele>214.2</ele>
        <time>2023-05-27T09:23:36Z</time>
      </trkpt>
      <trkpt lat="45.83838" lon="5.41829">
        <ele>214.2</ele>
        <time>2023-05-27T09:23:37Z</time>
      </trkpt>
      <trkpt lat="45.83832" lon="5.41836">
        <ele>214.4</ele>
        <time>2023-05-27T09:23:38Z</time>
      </trkpt>
      <trkpt lat="45.83827" lon="5.41843">
        <ele>214.4</ele>
        <time>2023-05-27T09:23:39Z</time>
      </trkpt>
      <trkpt lat="45.83822" lon="5.4185">
        <ele>214.4</ele>
        <time>2023-05-27T09:23:40Z</time>
      </trkpt>
      <trkpt lat="45.83816" lon="5.41858">
        <ele>214.4</ele>
        <time>2023-05-27T09:23:41Z</time>
      </trkpt>
      <trkpt lat="45.83811" lon="5.41865">
        <ele>214.4</ele>
        <time>2023-05-27T09:23:42Z</time>
      </trkpt>
      <trkpt lat="45.83807" lon="5.41873">
        <ele>214.2</ele>
        <time>2023-05-27T09:23:43Z</time>
      </trkpt>
      <trkpt lat="45.83802" lon="5.41882">
        <ele>214</ele>
        <time>2023-05-27T09:23:44Z</time>
      </trkpt>
      <trkpt lat="45.83798" lon="5.41891">
        <ele>214</ele>
        <time>2023-05-27T09:23:45Z</time>
      </trkpt>
      <trkpt lat="45.83792" lon="5.4191">
        <ele>213.8</ele>
        <time>2023-05-27T09:23:47Z</time>
      </trkpt>
      <trkpt lat="45.83789" lon="5.4192">
        <ele>213.8</ele>
        <time>2023-05-27T09:23:48Z</time>
      </trkpt>
      <trkpt lat="45.83785" lon="5.41931">
        <ele>213.8</ele>
        <time>2023-05-27T09:23:49Z</time>
      </trkpt>
      <trkpt lat="45.83782" lon="5.41941">
        <ele>213.8</ele>
        <time>2023-05-27T09:23:50Z</time>
      </trkpt>
      <trkpt lat="45.83779" lon="5.41952">
        <ele>213.8</ele>
        <time>2023-05-27T09:23:51Z</time>
      </trkpt>
      <trkpt lat="45.83776" lon="5.41964">
        <ele>213.6</ele>
        <time>2023-05-27T09:23:52Z</time>
      </trkpt>
      <trkpt lat="45.83773" lon="5.41976">
        <ele>213.6</ele>
        <time>2023-05-27T09:23:53Z</time>
      </trkpt>
      <trkpt lat="45.8377" lon="5.41988">
        <ele>213.4</ele>
        <time>2023-05-27T09:23:54Z</time>
      </trkpt>
      <trkpt lat="45.83766" lon="5.42">
        <ele>213.4</ele>
        <time>2023-05-27T09:23:55Z</time>
      </trkpt>
      <trkpt lat="45.83763" lon="5.42012">
        <ele>213.2</ele>
        <time>2023-05-27T09:23:56Z</time>
      </trkpt>
      <trkpt lat="45.83759" lon="5.42024">
        <ele>213</ele>
        <time>2023-05-27T09:23:57Z</time>
      </trkpt>
      <trkpt lat="45.83755" lon="5.42036">
        <ele>212.8</ele>
        <time>2023-05-27T09:23:58Z</time>
      </trkpt>
      <trkpt lat="45.83752" lon="5.42047">
        <ele>212.6</ele>
        <time>2023-05-27T09:23:59Z</time>
      </trkpt>
      <trkpt lat="45.83748" lon="5.42058">
        <ele>212.6</ele>
        <time>2023-05-27T09:24:00Z</time>
      </trkpt>
      <trkpt lat="45.83745" lon="5.42069">
        <ele>212.4</ele>
        <time>2023-05-27T09:24:01Z</time>
      </trkpt>
      <trkpt lat="45.83741" lon="5.4208">
        <ele>212.2</ele>
        <time>2023-05-27T09:24:02Z</time>
      </trkpt>
      <trkpt lat="45.83738" lon="5.4209">
        <ele>212</ele>
        <time>2023-05-27T09:24:03Z</time>
      </trkpt>
      <trkpt lat="45.83734" lon="5.42101">
        <ele>212</ele>
        <time>2023-05-27T09:24:04Z</time>
      </trkpt>
      <trkpt lat="45.8373" lon="5.42111">
        <ele>212</ele>
        <time>2023-05-27T09:24:05Z</time>
      </trkpt>
      <trkpt lat="45.83726" lon="5.42122">
        <ele>211.8</ele>
        <time>2023-05-27T09:24:06Z</time>
      </trkpt>
      <trkpt lat="45.83723" lon="5.42132">
        <ele>211.8</ele>
        <time>2023-05-27T09:24:07Z</time>
      </trkpt>
      <trkpt lat="45.83719" lon="5.42143">
        <ele>211.8</ele>
        <time>2023-05-27T09:24:08Z</time>
      </trkpt>
      <trkpt lat="45.83716" lon="5.42153">
        <ele>211.8</ele>
        <time>2023-05-27T09:24:09Z</time>
      </trkpt>
      <trkpt lat="45.83712" lon="5.42163">
        <ele>211.8</ele>
        <time>2023-05-27T09:24:10Z</time>
      </trkpt>
      <trkpt lat="45.83709" lon="5.42173">
        <ele>211.8</ele>
        <time>2023-05-27T09:24:11Z</time>
      </trkpt>
      <trkpt lat="45.83705" lon="5.42183">
        <ele>211.8</ele>
        <time>2023-05-27T09:24:12Z</time>
      </trkpt>
      <trkpt lat="45.83702" lon="5.42193">
        <ele>211.8</ele>
        <time>2023-05-27T09:24:13Z</time>
      </trkpt>
      <trkpt lat="45.83698" lon="5.42203">
        <ele>211.8</ele>
        <time>2023-05-27T09:24:14Z</time>
      </trkpt>
      <trkpt lat="45.83695" lon="5.42213">
        <ele>211.8</ele>
        <time>2023-05-27T09:24:15Z</time>
      </trkpt>
      <trkpt lat="45.83692" lon="5.42223">
        <ele>211.8</ele>
        <time>2023-05-27T09:24:16Z</time>
      </trkpt>
      <trkpt lat="45.83689" lon="5.42233">
        <ele>211.8</ele>
        <time>2023-05-27T09:24:17Z</time>
      </trkpt>
      <trkpt lat="45.83685" lon="5.42243">
        <ele>212</ele>
        <time>2023-05-27T09:24:18Z</time>
      </trkpt>
      <trkpt lat="45.83682" lon="5.42253">
        <ele>212</ele>
        <time>2023-05-27T09:24:19Z</time>
      </trkpt>
      <trkpt lat="45.83678" lon="5.42263">
        <ele>211.8</ele>
        <time>2023-05-27T09:24:20Z</time>
      </trkpt>
      <trkpt lat="45.83675" lon="5.42274">
        <ele>211.8</ele>
        <time>2023-05-27T09:24:21Z</time>
      </trkpt>
      <trkpt lat="45.83672" lon="5.42284">
        <ele>211.8</ele>
        <time>2023-05-27T09:24:22Z</time>
      </trkpt>
      <trkpt lat="45.83669" lon="5.42294">
        <ele>211.6</ele>
        <time>2023-05-27T09:24:23Z</time>
      </trkpt>
      <trkpt lat="45.83665" lon="5.42304">
        <ele>211.6</ele>
        <time>2023-05-27T09:24:24Z</time>
      </trkpt>
      <trkpt lat="45.83662" lon="5.42314">
        <ele>211.6</ele>
        <time>2023-05-27T09:24:25Z</time>
      </trkpt>
      <trkpt lat="45.83659" lon="5.42324">
        <ele>211.4</ele>
        <time>2023-05-27T09:24:26Z</time>
      </trkpt>
      <trkpt lat="45.83656" lon="5.42334">
        <ele>211.4</ele>
        <time>2023-05-27T09:24:27Z</time>
      </trkpt>
      <trkpt lat="45.83652" lon="5.42344">
        <ele>211.4</ele>
        <time>2023-05-27T09:24:28Z</time>
      </trkpt>
      <trkpt lat="45.83649" lon="5.42354">
        <ele>211.2</ele>
        <time>2023-05-27T09:24:29Z</time>
      </trkpt>
      <trkpt lat="45.83645" lon="5.42364">
        <ele>211.2</ele>
        <time>2023-05-27T09:24:30Z</time>
      </trkpt>
      <trkpt lat="45.83642" lon="5.42374">
        <ele>211.2</ele>
        <time>2023-05-27T09:24:31Z</time>
      </trkpt>
      <trkpt lat="45.83638" lon="5.42384">
        <ele>211.2</ele>
        <time>2023-05-27T09:24:32Z</time>
      </trkpt>
      <trkpt lat="45.83635" lon="5.42395">
        <ele>211.2</ele>
        <time>2023-05-27T09:24:33Z</time>
      </trkpt>
      <trkpt lat="45.83631" lon="5.42405">
        <ele>211</ele>
        <time>2023-05-27T09:24:34Z</time>
      </trkpt>
      <trkpt lat="45.83628" lon="5.42415">
        <ele>211</ele>
        <time>2023-05-27T09:24:35Z</time>
      </trkpt>
      <trkpt lat="45.83624" lon="5.42425">
        <ele>210.8</ele>
        <time>2023-05-27T09:24:36Z</time>
      </trkpt>
      <trkpt lat="45.8362" lon="5.42436">
        <ele>210.8</ele>
        <time>2023-05-27T09:24:37Z</time>
      </trkpt>
      <trkpt lat="45.83617" lon="5.42446">
        <ele>210.8</ele>
        <time>2023-05-27T09:24:38Z</time>
      </trkpt>
      <trkpt lat="45.83613" lon="5.42456">
        <ele>210.8</ele>
        <time>2023-05-27T09:24:39Z</time>
      </trkpt>
      <trkpt lat="45.8361" lon="5.42466">
        <ele>210.6</ele>
        <time>2023-05-27T09:24:40Z</time>
      </trkpt>
      <trkpt lat="45.83606" lon="5.42476">
        <ele>210.6</ele>
        <time>2023-05-27T09:24:41Z</time>
      </trkpt>
      <trkpt lat="45.83603" lon="5.42485">
        <ele>210.6</ele>
        <time>2023-05-27T09:24:42Z</time>
      </trkpt>
      <trkpt lat="45.83598" lon="5.42497">
        <ele>210.6</ele>
        <time>2023-05-27T09:24:43Z</time>
      </trkpt>
      <trkpt lat="45.83596" lon="5.42505">
        <ele>210.8</ele>
        <time>2023-05-27T09:24:44Z</time>
      </trkpt>
      <trkpt lat="45.83592" lon="5.42515">
        <ele>211</ele>
        <time>2023-05-27T09:24:45Z</time>
      </trkpt>
      <trkpt lat="45.83588" lon="5.42524">
        <ele>211</ele>
        <time>2023-05-27T09:24:46Z</time>
      </trkpt>
      <trkpt lat="45.83584" lon="5.42533">
        <ele>211</ele>
        <time>2023-05-27T09:24:47Z</time>
      </trkpt>
      <trkpt lat="45.83579" lon="5.42542">
        <ele>211.2</ele>
        <time>2023-05-27T09:24:48Z</time>
      </trkpt>
      <trkpt lat="45.83575" lon="5.42551">
        <ele>211.2</ele>
        <time>2023-05-27T09:24:49Z</time>
      </trkpt>
      <trkpt lat="45.8357" lon="5.4256">
        <ele>211.2</ele>
        <time>2023-05-27T09:24:50Z</time>
      </trkpt>
      <trkpt lat="45.83566" lon="5.42569">
        <ele>211.2</ele>
        <time>2023-05-27T09:24:51Z</time>
      </trkpt>
      <trkpt lat="45.83561" lon="5.42577">
        <ele>211.4</ele>
        <time>2023-05-27T09:24:52Z</time>
      </trkpt>
      <trkpt lat="45.83557" lon="5.42586">
        <ele>211.4</ele>
        <time>2023-05-27T09:24:53Z</time>
      </trkpt>
      <trkpt lat="45.83552" lon="5.42595">
        <ele>211.4</ele>
        <time>2023-05-27T09:24:54Z</time>
      </trkpt>
      <trkpt lat="45.83548" lon="5.42603">
        <ele>211.6</ele>
        <time>2023-05-27T09:24:55Z</time>
      </trkpt>
      <trkpt lat="45.83543" lon="5.42612">
        <ele>211.6</ele>
        <time>2023-05-27T09:24:56Z</time>
      </trkpt>
      <trkpt lat="45.83538" lon="5.4262">
        <ele>211.8</ele>
        <time>2023-05-27T09:24:57Z</time>
      </trkpt>
      <trkpt lat="45.83532" lon="5.4263">
        <ele>211.8</ele>
        <time>2023-05-27T09:24:58Z</time>
      </trkpt>
      <trkpt lat="45.83528" lon="5.42636">
        <ele>211.8</ele>
        <time>2023-05-27T09:24:59Z</time>
      </trkpt>
      <trkpt lat="45.83523" lon="5.42644">
        <ele>211.8</ele>
        <time>2023-05-27T09:25:00Z</time>
      </trkpt>
      <trkpt lat="45.83518" lon="5.42653">
        <ele>212</ele>
        <time>2023-05-27T09:25:01Z</time>
      </trkpt>
      <trkpt lat="45.83512" lon="5.42662">
        <ele>212</ele>
        <time>2023-05-27T09:25:02Z</time>
      </trkpt>
      <trkpt lat="45.83508" lon="5.42668">
        <ele>212</ele>
        <time>2023-05-27T09:25:03Z</time>
      </trkpt>
      <trkpt lat="45.83502" lon="5.42676">
        <ele>212.2</ele>
        <time>2023-05-27T09:25:04Z</time>
      </trkpt>
      <trkpt lat="45.83497" lon="5.42684">
        <ele>212.2</ele>
        <time>2023-05-27T09:25:05Z</time>
      </trkpt>
      <trkpt lat="45.83492" lon="5.42692">
        <ele>212.2</ele>
        <time>2023-05-27T09:25:06Z</time>
      </trkpt>
      <trkpt lat="45.83485" lon="5.42702">
        <ele>212.2</ele>
        <time>2023-05-27T09:25:07Z</time>
      </trkpt>
      <trkpt lat="45.83481" lon="5.42708">
        <ele>212.2</ele>
        <time>2023-05-27T09:25:08Z</time>
      </trkpt>
      <trkpt lat="45.83475" lon="5.42716">
        <ele>212.2</ele>
        <time>2023-05-27T09:25:09Z</time>
      </trkpt>
      <trkpt lat="45.8347" lon="5.42724">
        <ele>212.2</ele>
        <time>2023-05-27T09:25:10Z</time>
      </trkpt>
      <trkpt lat="45.83464" lon="5.42731">
        <ele>212</ele>
        <time>2023-05-27T09:25:11Z</time>
      </trkpt>
      <trkpt lat="45.83457" lon="5.4274">
        <ele>212</ele>
        <time>2023-05-27T09:25:12Z</time>
      </trkpt>
      <trkpt lat="45.83453" lon="5.42746">
        <ele>212</ele>
        <time>2023-05-27T09:25:13Z</time>
      </trkpt>
      <trkpt lat="45.83447" lon="5.42753">
        <ele>212</ele>
        <time>2023-05-27T09:25:14Z</time>
      </trkpt>
      <trkpt lat="45.83441" lon="5.4276">
        <ele>212</ele>
        <time>2023-05-27T09:25:15Z</time>
      </trkpt>
      <trkpt lat="45.83435" lon="5.42767">
        <ele>212</ele>
        <time>2023-05-27T09:25:16Z</time>
      </trkpt>
      <trkpt lat="45.83428" lon="5.42775">
        <ele>212</ele>
        <time>2023-05-27T09:25:17Z</time>
      </trkpt>
      <trkpt lat="45.83424" lon="5.42779">
        <ele>212</ele>
        <time>2023-05-27T09:25:18Z</time>
      </trkpt>
      <trkpt lat="45.83418" lon="5.42785">
        <ele>212</ele>
        <time>2023-05-27T09:25:19Z</time>
      </trkpt>
      <trkpt lat="45.83412" lon="5.4279">
        <ele>212.2</ele>
        <time>2023-05-27T09:25:20Z</time>
      </trkpt>
      <trkpt lat="45.83405" lon="5.42797">
        <ele>212</ele>
        <time>2023-05-27T09:25:21Z</time>
      </trkpt>
      <trkpt lat="45.834" lon="5.42804">
        <ele>212</ele>
        <time>2023-05-27T09:25:22Z</time>
      </trkpt>
      <trkpt lat="45.83394" lon="5.4281">
        <ele>212</ele>
        <time>2023-05-27T09:25:23Z</time>
      </trkpt>
      <trkpt lat="45.83389" lon="5.42817">
        <ele>212</ele>
        <time>2023-05-27T09:25:24Z</time>
      </trkpt>
      <trkpt lat="45.83383" lon="5.42823">
        <ele>212</ele>
        <time>2023-05-27T09:25:25Z</time>
      </trkpt>
      <trkpt lat="45.83377" lon="5.42829">
        <ele>212</ele>
        <time>2023-05-27T09:25:26Z</time>
      </trkpt>
      <trkpt lat="45.83371" lon="5.42836">
        <ele>212</ele>
        <time>2023-05-27T09:25:27Z</time>
      </trkpt>
      <trkpt lat="45.83365" lon="5.42842">
        <ele>212</ele>
        <time>2023-05-27T09:25:28Z</time>
      </trkpt>
      <trkpt lat="45.83359" lon="5.42849">
        <ele>212</ele>
        <time>2023-05-27T09:25:29Z</time>
      </trkpt>
      <trkpt lat="45.83353" lon="5.42855">
        <ele>212</ele>
        <time>2023-05-27T09:25:30Z</time>
      </trkpt>
      <trkpt lat="45.83347" lon="5.42862">
        <ele>211.8</ele>
        <time>2023-05-27T09:25:31Z</time>
      </trkpt>
      <trkpt lat="45.83341" lon="5.42869">
        <ele>211.8</ele>
        <time>2023-05-27T09:25:32Z</time>
      </trkpt>
      <trkpt lat="45.83335" lon="5.42875">
        <ele>211.6</ele>
        <time>2023-05-27T09:25:33Z</time>
      </trkpt>
      <trkpt lat="45.83329" lon="5.42882">
        <ele>211.6</ele>
        <time>2023-05-27T09:25:34Z</time>
      </trkpt>
      <trkpt lat="45.83323" lon="5.42888">
        <ele>211.4</ele>
        <time>2023-05-27T09:25:35Z</time>
      </trkpt>
      <trkpt lat="45.83317" lon="5.42895">
        <ele>211.4</ele>
        <time>2023-05-27T09:25:36Z</time>
      </trkpt>
      <trkpt lat="45.83311" lon="5.42902">
        <ele>211.4</ele>
        <time>2023-05-27T09:25:37Z</time>
      </trkpt>
      <trkpt lat="45.83305" lon="5.42909">
        <ele>211.2</ele>
        <time>2023-05-27T09:25:38Z</time>
      </trkpt>
      <trkpt lat="45.83299" lon="5.42915">
        <ele>211.2</ele>
        <time>2023-05-27T09:25:39Z</time>
      </trkpt>
      <trkpt lat="45.83291" lon="5.42923">
        <ele>211.2</ele>
        <time>2023-05-27T09:25:40Z</time>
      </trkpt>
      <trkpt lat="45.83287" lon="5.42928">
        <ele>211.2</ele>
        <time>2023-05-27T09:25:41Z</time>
      </trkpt>
      <trkpt lat="45.8328" lon="5.42935">
        <ele>211</ele>
        <time>2023-05-27T09:25:42Z</time>
      </trkpt>
      <trkpt lat="45.83275" lon="5.42942">
        <ele>211</ele>
        <time>2023-05-27T09:25:43Z</time>
      </trkpt>
      <trkpt lat="45.83269" lon="5.42948">
        <ele>210.8</ele>
        <time>2023-05-27T09:25:44Z</time>
      </trkpt>
      <trkpt lat="45.83263" lon="5.42955">
        <ele>210.8</ele>
        <time>2023-05-27T09:25:45Z</time>
      </trkpt>
      <trkpt lat="45.83257" lon="5.42962">
        <ele>210.8</ele>
        <time>2023-05-27T09:25:46Z</time>
      </trkpt>
      <trkpt lat="45.83251" lon="5.42968">
        <ele>210.8</ele>
        <time>2023-05-27T09:25:47Z</time>
      </trkpt>
      <trkpt lat="45.83245" lon="5.42975">
        <ele>210.8</ele>
        <time>2023-05-27T09:25:48Z</time>
      </trkpt>
      <trkpt lat="45.83239" lon="5.42981">
        <ele>210.8</ele>
        <time>2023-05-27T09:25:49Z</time>
      </trkpt>
      <trkpt lat="45.83233" lon="5.42988">
        <ele>210.8</ele>
        <time>2023-05-27T09:25:50Z</time>
      </trkpt>
      <trkpt lat="45.83227" lon="5.42994">
        <ele>210.8</ele>
        <time>2023-05-27T09:25:51Z</time>
      </trkpt>
      <trkpt lat="45.83222" lon="5.43001">
        <ele>211</ele>
        <time>2023-05-27T09:25:52Z</time>
      </trkpt>
      <trkpt lat="45.83215" lon="5.43007">
        <ele>211</ele>
        <time>2023-05-27T09:25:53Z</time>
      </trkpt>
      <trkpt lat="45.83209" lon="5.43014">
        <ele>211.2</ele>
        <time>2023-05-27T09:25:54Z</time>
      </trkpt>
      <trkpt lat="45.83203" lon="5.43021">
        <ele>211</ele>
        <time>2023-05-27T09:25:55Z</time>
      </trkpt>
      <trkpt lat="45.83197" lon="5.43028">
        <ele>211.2</ele>
        <time>2023-05-27T09:25:56Z</time>
      </trkpt>
      <trkpt lat="45.83191" lon="5.43035">
        <ele>211.2</ele>
        <time>2023-05-27T09:25:57Z</time>
      </trkpt>
      <trkpt lat="45.83185" lon="5.43042">
        <ele>211.4</ele>
        <time>2023-05-27T09:25:58Z</time>
      </trkpt>
      <trkpt lat="45.83178" lon="5.43049">
        <ele>211.4</ele>
        <time>2023-05-27T09:25:59Z</time>
      </trkpt>
      <trkpt lat="45.83172" lon="5.43056">
        <ele>211.4</ele>
        <time>2023-05-27T09:26:00Z</time>
      </trkpt>
      <trkpt lat="45.83164" lon="5.43065">
        <ele>211.4</ele>
        <time>2023-05-27T09:26:01Z</time>
      </trkpt>
      <trkpt lat="45.8316" lon="5.4307">
        <ele>211.4</ele>
        <time>2023-05-27T09:26:02Z</time>
      </trkpt>
      <trkpt lat="45.83153" lon="5.43077">
        <ele>211.4</ele>
        <time>2023-05-27T09:26:03Z</time>
      </trkpt>
      <trkpt lat="45.83147" lon="5.43084">
        <ele>211.4</ele>
        <time>2023-05-27T09:26:04Z</time>
      </trkpt>
      <trkpt lat="45.83141" lon="5.43091">
        <ele>211.4</ele>
        <time>2023-05-27T09:26:05Z</time>
      </trkpt>
      <trkpt lat="45.83135" lon="5.43098">
        <ele>211.4</ele>
        <time>2023-05-27T09:26:06Z</time>
      </trkpt>
      <trkpt lat="45.83128" lon="5.43106">
        <ele>211.4</ele>
        <time>2023-05-27T09:26:07Z</time>
      </trkpt>
      <trkpt lat="45.83122" lon="5.43113">
        <ele>211.4</ele>
        <time>2023-05-27T09:26:08Z</time>
      </trkpt>
      <trkpt lat="45.83116" lon="5.4312">
        <ele>211.4</ele>
        <time>2023-05-27T09:26:09Z</time>
      </trkpt>
      <trkpt lat="45.8311" lon="5.43127">
        <ele>211.4</ele>
        <time>2023-05-27T09:26:10Z</time>
      </trkpt>
      <trkpt lat="45.83103" lon="5.43135">
        <ele>211.6</ele>
        <time>2023-05-27T09:26:11Z</time>
      </trkpt>
      <trkpt lat="45.83097" lon="5.43143">
        <ele>211.6</ele>
        <time>2023-05-27T09:26:12Z</time>
      </trkpt>
      <trkpt lat="45.83091" lon="5.4315">
        <ele>211.6</ele>
        <time>2023-05-27T09:26:13Z</time>
      </trkpt>
      <trkpt lat="45.83084" lon="5.43157">
        <ele>211.6</ele>
        <time>2023-05-27T09:26:14Z</time>
      </trkpt>
      <trkpt lat="45.83078" lon="5.43165">
        <ele>211.6</ele>
        <time>2023-05-27T09:26:15Z</time>
      </trkpt>
      <trkpt lat="45.83072" lon="5.43172">
        <ele>211.6</ele>
        <time>2023-05-27T09:26:16Z</time>
      </trkpt>
      <trkpt lat="45.83066" lon="5.43179">
        <ele>211.6</ele>
        <time>2023-05-27T09:26:17Z</time>
      </trkpt>
      <trkpt lat="45.83059" lon="5.43186">
        <ele>211.6</ele>
        <time>2023-05-27T09:26:18Z</time>
      </trkpt>
      <trkpt lat="45.83053" lon="5.43193">
        <ele>211.6</ele>
        <time>2023-05-27T09:26:19Z</time>
      </trkpt>
      <trkpt lat="45.83047" lon="5.432">
        <ele>211.8</ele>
        <time>2023-05-27T09:26:20Z</time>
      </trkpt>
      <trkpt lat="45.8304" lon="5.43206">
        <ele>211.6</ele>
        <time>2023-05-27T09:26:21Z</time>
      </trkpt>
      <trkpt lat="45.83033" lon="5.43213">
        <ele>211.6</ele>
        <time>2023-05-27T09:26:22Z</time>
      </trkpt>
      <trkpt lat="45.83027" lon="5.43219">
        <ele>211.6</ele>
        <time>2023-05-27T09:26:23Z</time>
      </trkpt>
      <trkpt lat="45.8302" lon="5.43225">
        <ele>211.6</ele>
        <time>2023-05-27T09:26:24Z</time>
      </trkpt>
      <trkpt lat="45.83013" lon="5.43231">
        <ele>211.6</ele>
        <time>2023-05-27T09:26:25Z</time>
      </trkpt>
      <trkpt lat="45.83006" lon="5.43236">
        <ele>211.6</ele>
        <time>2023-05-27T09:26:26Z</time>
      </trkpt>
      <trkpt lat="45.82999" lon="5.43241">
        <ele>211.6</ele>
        <time>2023-05-27T09:26:27Z</time>
      </trkpt>
      <trkpt lat="45.82992" lon="5.43246">
        <ele>211.6</ele>
        <time>2023-05-27T09:26:28Z</time>
      </trkpt>
      <trkpt lat="45.82985" lon="5.4325">
        <ele>211.6</ele>
        <time>2023-05-27T09:26:29Z</time>
      </trkpt>
      <trkpt lat="45.82978" lon="5.43254">
        <ele>211.6</ele>
        <time>2023-05-27T09:26:30Z</time>
      </trkpt>
      <trkpt lat="45.82971" lon="5.43258">
        <ele>211.6</ele>
        <time>2023-05-27T09:26:31Z</time>
      </trkpt>
      <trkpt lat="45.82964" lon="5.43262">
        <ele>211.4</ele>
        <time>2023-05-27T09:26:32Z</time>
      </trkpt>
      <trkpt lat="45.82957" lon="5.43266">
        <ele>211.4</ele>
        <time>2023-05-27T09:26:33Z</time>
      </trkpt>
      <trkpt lat="45.8295" lon="5.4327">
        <ele>211.4</ele>
        <time>2023-05-27T09:26:34Z</time>
      </trkpt>
      <trkpt lat="45.82943" lon="5.43274">
        <ele>211.4</ele>
        <time>2023-05-27T09:26:35Z</time>
      </trkpt>
      <trkpt lat="45.82935" lon="5.43278">
        <ele>211.4</ele>
        <time>2023-05-27T09:26:36Z</time>
      </trkpt>
      <trkpt lat="45.82928" lon="5.43282">
        <ele>211.6</ele>
        <time>2023-05-27T09:26:37Z</time>
      </trkpt>
      <trkpt lat="45.82921" lon="5.43286">
        <ele>211.6</ele>
        <time>2023-05-27T09:26:38Z</time>
      </trkpt>
      <trkpt lat="45.82914" lon="5.4329">
        <ele>211.6</ele>
        <time>2023-05-27T09:26:39Z</time>
      </trkpt>
      <trkpt lat="45.82907" lon="5.43294">
        <ele>211.6</ele>
        <time>2023-05-27T09:26:40Z</time>
      </trkpt>
      <trkpt lat="45.829" lon="5.43298">
        <ele>211.4</ele>
        <time>2023-05-27T09:26:41Z</time>
      </trkpt>
      <trkpt lat="45.82893" lon="5.43302">
        <ele>211.4</ele>
        <time>2023-05-27T09:26:42Z</time>
      </trkpt>
      <trkpt lat="45.82885" lon="5.43307">
        <ele>211.4</ele>
        <time>2023-05-27T09:26:43Z</time>
      </trkpt>
      <trkpt lat="45.82878" lon="5.43311">
        <ele>211.4</ele>
        <time>2023-05-27T09:26:44Z</time>
      </trkpt>
      <trkpt lat="45.82871" lon="5.43315">
        <ele>211.4</ele>
        <time>2023-05-27T09:26:45Z</time>
      </trkpt>
      <trkpt lat="45.82862" lon="5.4332">
        <ele>211.4</ele>
        <time>2023-05-27T09:26:46Z</time>
      </trkpt>
      <trkpt lat="45.82856" lon="5.43323">
        <ele>211.4</ele>
        <time>2023-05-27T09:26:47Z</time>
      </trkpt>
      <trkpt lat="45.82848" lon="5.43327">
        <ele>211.4</ele>
        <time>2023-05-27T09:26:48Z</time>
      </trkpt>
      <trkpt lat="45.82842" lon="5.4333">
        <ele>211.4</ele>
        <time>2023-05-27T09:26:49Z</time>
      </trkpt>
      <trkpt lat="45.82833" lon="5.43334">
        <ele>211.4</ele>
        <time>2023-05-27T09:26:50Z</time>
      </trkpt>
      <trkpt lat="45.82827" lon="5.43337">
        <ele>211.4</ele>
        <time>2023-05-27T09:26:51Z</time>
      </trkpt>
      <trkpt lat="45.82819" lon="5.43341">
        <ele>211.4</ele>
        <time>2023-05-27T09:26:52Z</time>
      </trkpt>
      <trkpt lat="45.82812" lon="5.43345">
        <ele>211.4</ele>
        <time>2023-05-27T09:26:53Z</time>
      </trkpt>
      <trkpt lat="45.82804" lon="5.43349">
        <ele>211.4</ele>
        <time>2023-05-27T09:26:54Z</time>
      </trkpt>
      <trkpt lat="45.82796" lon="5.43353">
        <ele>211.4</ele>
        <time>2023-05-27T09:26:55Z</time>
      </trkpt>
      <trkpt lat="45.82789" lon="5.43357">
        <ele>211.4</ele>
        <time>2023-05-27T09:26:56Z</time>
      </trkpt>
      <trkpt lat="45.82781" lon="5.43361">
        <ele>211.4</ele>
        <time>2023-05-27T09:26:57Z</time>
      </trkpt>
      <trkpt lat="45.82773" lon="5.43364">
        <ele>211.4</ele>
        <time>2023-05-27T09:26:58Z</time>
      </trkpt>
      <trkpt lat="45.82765" lon="5.43368">
        <ele>211.4</ele>
        <time>2023-05-27T09:26:59Z</time>
      </trkpt>
      <trkpt lat="45.82758" lon="5.43372">
        <ele>211.4</ele>
        <time>2023-05-27T09:27:00Z</time>
      </trkpt>
      <trkpt lat="45.8275" lon="5.43375">
        <ele>211.4</ele>
        <time>2023-05-27T09:27:01Z</time>
      </trkpt>
      <trkpt lat="45.82742" lon="5.43379">
        <ele>211.4</ele>
        <time>2023-05-27T09:27:02Z</time>
      </trkpt>
      <trkpt lat="45.82735" lon="5.43382">
        <ele>211.4</ele>
        <time>2023-05-27T09:27:03Z</time>
      </trkpt>
      <trkpt lat="45.82726" lon="5.43384">
        <ele>211.4</ele>
        <time>2023-05-27T09:27:04Z</time>
      </trkpt>
      <trkpt lat="45.82718" lon="5.43385">
        <ele>211.4</ele>
        <time>2023-05-27T09:27:05Z</time>
      </trkpt>
      <trkpt lat="45.8271" lon="5.43384">
        <ele>211.4</ele>
        <time>2023-05-27T09:27:06Z</time>
      </trkpt>
      <trkpt lat="45.82702" lon="5.43383">
        <ele>211.4</ele>
        <time>2023-05-27T09:27:07Z</time>
      </trkpt>
      <trkpt lat="45.82694" lon="5.43379">
        <ele>211.2</ele>
        <time>2023-05-27T09:27:08Z</time>
      </trkpt>
      <trkpt lat="45.82687" lon="5.43375">
        <ele>211.2</ele>
        <time>2023-05-27T09:27:09Z</time>
      </trkpt>
      <trkpt lat="45.82679" lon="5.43369">
        <ele>211.2</ele>
        <time>2023-05-27T09:27:10Z</time>
      </trkpt>
      <trkpt lat="45.82672" lon="5.43363">
        <ele>211.2</ele>
        <time>2023-05-27T09:27:11Z</time>
      </trkpt>
      <trkpt lat="45.82666" lon="5.43356">
        <ele>211.2</ele>
        <time>2023-05-27T09:27:12Z</time>
      </trkpt>
      <trkpt lat="45.82659" lon="5.43349">
        <ele>211.2</ele>
        <time>2023-05-27T09:27:13Z</time>
      </trkpt>
      <trkpt lat="45.82653" lon="5.43341">
        <ele>211.2</ele>
        <time>2023-05-27T09:27:14Z</time>
      </trkpt>
      <trkpt lat="45.82647" lon="5.43332">
        <ele>211.2</ele>
        <time>2023-05-27T09:27:15Z</time>
      </trkpt>
      <trkpt lat="45.82642" lon="5.43323">
        <ele>211.2</ele>
        <time>2023-05-27T09:27:16Z</time>
      </trkpt>
      <trkpt lat="45.82637" lon="5.43313">
        <ele>211.2</ele>
        <time>2023-05-27T09:27:17Z</time>
      </trkpt>
      <trkpt lat="45.82633" lon="5.43303">
        <ele>211.2</ele>
        <time>2023-05-27T09:27:18Z</time>
      </trkpt>
      <trkpt lat="45.82629" lon="5.43292">
        <ele>211.4</ele>
        <time>2023-05-27T09:27:19Z</time>
      </trkpt>
      <trkpt lat="45.82626" lon="5.43281">
        <ele>211.4</ele>
        <time>2023-05-27T09:27:20Z</time>
      </trkpt>
      <trkpt lat="45.82624" lon="5.43269">
        <ele>211.4</ele>
        <time>2023-05-27T09:27:21Z</time>
      </trkpt>
      <trkpt lat="45.82623" lon="5.43257">
        <ele>211.4</ele>
        <time>2023-05-27T09:27:22Z</time>
      </trkpt>
      <trkpt lat="45.82622" lon="5.43245">
        <ele>211.6</ele>
        <time>2023-05-27T09:27:23Z</time>
      </trkpt>
      <trkpt lat="45.82621" lon="5.43233">
        <ele>211.6</ele>
        <time>2023-05-27T09:27:24Z</time>
      </trkpt>
      <trkpt lat="45.82621" lon="5.43221">
        <ele>211.6</ele>
        <time>2023-05-27T09:27:25Z</time>
      </trkpt>
      <trkpt lat="45.8262" lon="5.43208">
        <ele>211.6</ele>
        <time>2023-05-27T09:27:26Z</time>
      </trkpt>
      <trkpt lat="45.8262" lon="5.43196">
        <ele>211.8</ele>
        <time>2023-05-27T09:27:27Z</time>
      </trkpt>
      <trkpt lat="45.82619" lon="5.43184">
        <ele>211.8</ele>
        <time>2023-05-27T09:27:28Z</time>
      </trkpt>
      <trkpt lat="45.82619" lon="5.43172">
        <ele>212</ele>
        <time>2023-05-27T09:27:29Z</time>
      </trkpt>
      <trkpt lat="45.82618" lon="5.43159">
        <ele>212</ele>
        <time>2023-05-27T09:27:30Z</time>
      </trkpt>
      <trkpt lat="45.82618" lon="5.43147">
        <ele>212.2</ele>
        <time>2023-05-27T09:27:31Z</time>
      </trkpt>
      <trkpt lat="45.82618" lon="5.43136">
        <ele>212.2</ele>
        <time>2023-05-27T09:27:32Z</time>
      </trkpt>
      <trkpt lat="45.82618" lon="5.43122">
        <ele>212.4</ele>
        <time>2023-05-27T09:27:33Z</time>
      </trkpt>
      <trkpt lat="45.82618" lon="5.43113">
        <ele>212.4</ele>
        <time>2023-05-27T09:27:34Z</time>
      </trkpt>
      <trkpt lat="45.82618" lon="5.43103">
        <ele>212.4</ele>
        <time>2023-05-27T09:27:35Z</time>
      </trkpt>
      <trkpt lat="45.82618" lon="5.43092">
        <ele>212.4</ele>
        <time>2023-05-27T09:27:36Z</time>
      </trkpt>
      <trkpt lat="45.82617" lon="5.43082">
        <ele>212.4</ele>
        <time>2023-05-27T09:27:37Z</time>
      </trkpt>
      <trkpt lat="45.82617" lon="5.43072">
        <ele>212.6</ele>
        <time>2023-05-27T09:27:38Z</time>
      </trkpt>
      <trkpt lat="45.82616" lon="5.43062">
        <ele>212.6</ele>
        <time>2023-05-27T09:27:39Z</time>
      </trkpt>
      <trkpt lat="45.82616" lon="5.43052">
        <ele>212.6</ele>
        <time>2023-05-27T09:27:40Z</time>
      </trkpt>
      <trkpt lat="45.82616" lon="5.43043">
        <ele>212.6</ele>
        <time>2023-05-27T09:27:41Z</time>
      </trkpt>
      <trkpt lat="45.82616" lon="5.43033">
        <ele>212.8</ele>
        <time>2023-05-27T09:27:42Z</time>
      </trkpt>
      <trkpt lat="45.82616" lon="5.43023">
        <ele>212.8</ele>
        <time>2023-05-27T09:27:43Z</time>
      </trkpt>
      <trkpt lat="45.82616" lon="5.43013">
        <ele>212.8</ele>
        <time>2023-05-27T09:27:44Z</time>
      </trkpt>
      <trkpt lat="45.82615" lon="5.43002">
        <ele>212.8</ele>
        <time>2023-05-27T09:27:45Z</time>
      </trkpt>
      <trkpt lat="45.82615" lon="5.42992">
        <ele>212.8</ele>
        <time>2023-05-27T09:27:46Z</time>
      </trkpt>
      <trkpt lat="45.82615" lon="5.42982">
        <ele>212.8</ele>
        <time>2023-05-27T09:27:47Z</time>
      </trkpt>
      <trkpt lat="45.82615" lon="5.42971">
        <ele>212.8</ele>
        <time>2023-05-27T09:27:48Z</time>
      </trkpt>
      <trkpt lat="45.82615" lon="5.4296">
        <ele>213</ele>
        <time>2023-05-27T09:27:49Z</time>
      </trkpt>
      <trkpt lat="45.82614" lon="5.4295">
        <ele>213</ele>
        <time>2023-05-27T09:27:50Z</time>
      </trkpt>
      <trkpt lat="45.82614" lon="5.42939">
        <ele>213</ele>
        <time>2023-05-27T09:27:51Z</time>
      </trkpt>
      <trkpt lat="45.82614" lon="5.42928">
        <ele>213.2</ele>
        <time>2023-05-27T09:27:52Z</time>
      </trkpt>
      <trkpt lat="45.82613" lon="5.42917">
        <ele>213.4</ele>
        <time>2023-05-27T09:27:53Z</time>
      </trkpt>
      <trkpt lat="45.82613" lon="5.42907">
        <ele>213.4</ele>
        <time>2023-05-27T09:27:54Z</time>
      </trkpt>
      <trkpt lat="45.82613" lon="5.42895">
        <ele>213.4</ele>
        <time>2023-05-27T09:27:55Z</time>
      </trkpt>
      <trkpt lat="45.82612" lon="5.42885">
        <ele>213.4</ele>
        <time>2023-05-27T09:27:56Z</time>
      </trkpt>
      <trkpt lat="45.82612" lon="5.42874">
        <ele>213.4</ele>
        <time>2023-05-27T09:27:57Z</time>
      </trkpt>
      <trkpt lat="45.82612" lon="5.42863">
        <ele>213.2</ele>
        <time>2023-05-27T09:27:58Z</time>
      </trkpt>
      <trkpt lat="45.82611" lon="5.42852">
        <ele>213.2</ele>
        <time>2023-05-27T09:27:59Z</time>
      </trkpt>
      <trkpt lat="45.82611" lon="5.42841">
        <ele>213</ele>
        <time>2023-05-27T09:28:00Z</time>
      </trkpt>
      <trkpt lat="45.82611" lon="5.4283">
        <ele>212.8</ele>
        <time>2023-05-27T09:28:01Z</time>
      </trkpt>
      <trkpt lat="45.8261" lon="5.42819">
        <ele>212.8</ele>
        <time>2023-05-27T09:28:02Z</time>
      </trkpt>
      <trkpt lat="45.8261" lon="5.42808">
        <ele>212.6</ele>
        <time>2023-05-27T09:28:03Z</time>
      </trkpt>
      <trkpt lat="45.82609" lon="5.42795">
        <ele>212.6</ele>
        <time>2023-05-27T09:28:04Z</time>
      </trkpt>
      <trkpt lat="45.82609" lon="5.42786">
        <ele>212.4</ele>
        <time>2023-05-27T09:28:05Z</time>
      </trkpt>
      <trkpt lat="45.82609" lon="5.42775">
        <ele>212.4</ele>
        <time>2023-05-27T09:28:06Z</time>
      </trkpt>
      <trkpt lat="45.82608" lon="5.42763">
        <ele>212.4</ele>
        <time>2023-05-27T09:28:07Z</time>
      </trkpt>
      <trkpt lat="45.82608" lon="5.42752">
        <ele>212.2</ele>
        <time>2023-05-27T09:28:08Z</time>
      </trkpt>
      <trkpt lat="45.82607" lon="5.42739">
        <ele>212.2</ele>
        <time>2023-05-27T09:28:09Z</time>
      </trkpt>
      <trkpt lat="45.82606" lon="5.4273">
        <ele>212.2</ele>
        <time>2023-05-27T09:28:10Z</time>
      </trkpt>
      <trkpt lat="45.82606" lon="5.4272">
        <ele>212</ele>
        <time>2023-05-27T09:28:11Z</time>
      </trkpt>
      <trkpt lat="45.82605" lon="5.4271">
        <ele>211.8</ele>
        <time>2023-05-27T09:28:12Z</time>
      </trkpt>
      <trkpt lat="45.82605" lon="5.42699">
        <ele>211.6</ele>
        <time>2023-05-27T09:28:13Z</time>
      </trkpt>
      <trkpt lat="45.82605" lon="5.42687">
        <ele>211.6</ele>
        <time>2023-05-27T09:28:14Z</time>
      </trkpt>
      <trkpt lat="45.82604" lon="5.42679">
        <ele>211.4</ele>
        <time>2023-05-27T09:28:15Z</time>
      </trkpt>
      <trkpt lat="45.82604" lon="5.42669">
        <ele>211.4</ele>
        <time>2023-05-27T09:28:16Z</time>
      </trkpt>
      <trkpt lat="45.82604" lon="5.42659">
        <ele>211.4</ele>
        <time>2023-05-27T09:28:17Z</time>
      </trkpt>
      <trkpt lat="45.82604" lon="5.4265">
        <ele>211.2</ele>
        <time>2023-05-27T09:28:18Z</time>
      </trkpt>
      <trkpt lat="45.82605" lon="5.42639">
        <ele>211.2</ele>
        <time>2023-05-27T09:28:19Z</time>
      </trkpt>
      <trkpt lat="45.82605" lon="5.42631">
        <ele>211</ele>
        <time>2023-05-27T09:28:20Z</time>
      </trkpt>
      <trkpt lat="45.82605" lon="5.42622">
        <ele>211</ele>
        <time>2023-05-27T09:28:21Z</time>
      </trkpt>
      <trkpt lat="45.82606" lon="5.42612">
        <ele>211</ele>
        <time>2023-05-27T09:28:22Z</time>
      </trkpt>
      <trkpt lat="45.82606" lon="5.42603">
        <ele>211</ele>
        <time>2023-05-27T09:28:23Z</time>
      </trkpt>
      <trkpt lat="45.82606" lon="5.42592">
        <ele>210.8</ele>
        <time>2023-05-27T09:28:24Z</time>
      </trkpt>
      <trkpt lat="45.82606" lon="5.42582">
        <ele>210.8</ele>
        <time>2023-05-27T09:28:25Z</time>
      </trkpt>
      <trkpt lat="45.82603" lon="5.42572">
        <ele>210.8</ele>
        <time>2023-05-27T09:28:26Z</time>
      </trkpt>
      <trkpt lat="45.82599" lon="5.42563">
        <ele>210.8</ele>
        <time>2023-05-27T09:28:27Z</time>
      </trkpt>
      <trkpt lat="45.82596" lon="5.42553">
        <ele>210.8</ele>
        <time>2023-05-27T09:28:28Z</time>
      </trkpt>
      <trkpt lat="45.82594" lon="5.42544">
        <ele>210.8</ele>
        <time>2023-05-27T09:28:29Z</time>
      </trkpt>
      <trkpt lat="45.82594" lon="5.42534">
        <ele>210.8</ele>
        <time>2023-05-27T09:28:30Z</time>
      </trkpt>
      <trkpt lat="45.82594" lon="5.42524">
        <ele>210.8</ele>
        <time>2023-05-27T09:28:31Z</time>
      </trkpt>
      <trkpt lat="45.82595" lon="5.42514">
        <ele>210.8</ele>
        <time>2023-05-27T09:28:32Z</time>
      </trkpt>
      <trkpt lat="45.82596" lon="5.42504">
        <ele>210.8</ele>
        <time>2023-05-27T09:28:33Z</time>
      </trkpt>
      <trkpt lat="45.82598" lon="5.42494">
        <ele>210.8</ele>
        <time>2023-05-27T09:28:34Z</time>
      </trkpt>
      <trkpt lat="45.82599" lon="5.42485">
        <ele>211</ele>
        <time>2023-05-27T09:28:35Z</time>
      </trkpt>
      <trkpt lat="45.826" lon="5.42475">
        <ele>211.2</ele>
        <time>2023-05-27T09:28:36Z</time>
      </trkpt>
      <trkpt lat="45.826" lon="5.42466">
        <ele>211.2</ele>
        <time>2023-05-27T09:28:37Z</time>
      </trkpt>
      <trkpt lat="45.82601" lon="5.42457">
        <ele>211.4</ele>
        <time>2023-05-27T09:28:38Z</time>
      </trkpt>
      <trkpt lat="45.82601" lon="5.42449">
        <ele>211.4</ele>
        <time>2023-05-27T09:28:39Z</time>
      </trkpt>
      <trkpt lat="45.82602" lon="5.42441">
        <ele>211.6</ele>
        <time>2023-05-27T09:28:40Z</time>
      </trkpt>
      <trkpt lat="45.82604" lon="5.42433">
        <ele>211.8</ele>
        <time>2023-05-27T09:28:41Z</time>
      </trkpt>
      <trkpt lat="45.82607" lon="5.42427">
        <ele>212</ele>
        <time>2023-05-27T09:28:42Z</time>
      </trkpt>
      <trkpt lat="45.82611" lon="5.42422">
        <ele>212.2</ele>
        <time>2023-05-27T09:28:43Z</time>
      </trkpt>
      <trkpt lat="45.82614" lon="5.42415">
        <ele>212.2</ele>
        <time>2023-05-27T09:28:44Z</time>
      </trkpt>
      <trkpt lat="45.82616" lon="5.42407">
        <ele>212.4</ele>
        <time>2023-05-27T09:28:45Z</time>
      </trkpt>
      <trkpt lat="45.82617" lon="5.42399">
        <ele>212.6</ele>
        <time>2023-05-27T09:28:46Z</time>
      </trkpt>
      <trkpt lat="45.82618" lon="5.4239">
        <ele>213.2</ele>
        <time>2023-05-27T09:28:47Z</time>
      </trkpt>
      <trkpt lat="45.82619" lon="5.42381">
        <ele>213.4</ele>
        <time>2023-05-27T09:28:48Z</time>
      </trkpt>
      <trkpt lat="45.8262" lon="5.42372">
        <ele>213.6</ele>
        <time>2023-05-27T09:28:49Z</time>
      </trkpt>
      <trkpt lat="45.82621" lon="5.42354">
        <ele>214</ele>
        <time>2023-05-27T09:28:51Z</time>
      </trkpt>
      <trkpt lat="45.82621" lon="5.42345">
        <ele>214.2</ele>
        <time>2023-05-27T09:28:52Z</time>
      </trkpt>
      <trkpt lat="45.82621" lon="5.42336">
        <ele>214.2</ele>
        <time>2023-05-27T09:28:53Z</time>
      </trkpt>
      <trkpt lat="45.82621" lon="5.42326">
        <ele>214.4</ele>
        <time>2023-05-27T09:28:54Z</time>
      </trkpt>
      <trkpt lat="45.8262" lon="5.42317">
        <ele>214.4</ele>
        <time>2023-05-27T09:28:55Z</time>
      </trkpt>
      <trkpt lat="45.82619" lon="5.42299">
        <ele>214.4</ele>
        <time>2023-05-27T09:28:57Z</time>
      </trkpt>
      <trkpt lat="45.82618" lon="5.4229">
        <ele>214.6</ele>
        <time>2023-05-27T09:28:58Z</time>
      </trkpt>
      <trkpt lat="45.82617" lon="5.42282">
        <ele>214.6</ele>
        <time>2023-05-27T09:28:59Z</time>
      </trkpt>
      <trkpt lat="45.82616" lon="5.42273">
        <ele>214.6</ele>
        <time>2023-05-27T09:29:00Z</time>
      </trkpt>
      <trkpt lat="45.82614" lon="5.42264">
        <ele>214.6</ele>
        <time>2023-05-27T09:29:01Z</time>
      </trkpt>
      <trkpt lat="45.82612" lon="5.42256">
        <ele>214.6</ele>
        <time>2023-05-27T09:29:02Z</time>
      </trkpt>
      <trkpt lat="45.8261" lon="5.42248">
        <ele>214.6</ele>
        <time>2023-05-27T09:29:03Z</time>
      </trkpt>
      <trkpt lat="45.82607" lon="5.4224">
        <ele>214.6</ele>
        <time>2023-05-27T09:29:04Z</time>
      </trkpt>
      <trkpt lat="45.82604" lon="5.42232">
        <ele>214.6</ele>
        <time>2023-05-27T09:29:05Z</time>
      </trkpt>
      <trkpt lat="45.82601" lon="5.42225">
        <ele>214.6</ele>
        <time>2023-05-27T09:29:06Z</time>
      </trkpt>
      <trkpt lat="45.82598" lon="5.42218">
        <ele>214.6</ele>
        <time>2023-05-27T09:29:07Z</time>
      </trkpt>
      <trkpt lat="45.82596" lon="5.4221">
        <ele>214.6</ele>
        <time>2023-05-27T09:29:08Z</time>
      </trkpt>
      <trkpt lat="45.82595" lon="5.42201">
        <ele>214.6</ele>
        <time>2023-05-27T09:29:09Z</time>
      </trkpt>
      <trkpt lat="45.82592" lon="5.42184">
        <ele>214.6</ele>
        <time>2023-05-27T09:29:11Z</time>
      </trkpt>
      <trkpt lat="45.82591" lon="5.42174">
        <ele>214.6</ele>
        <time>2023-05-27T09:29:12Z</time>
      </trkpt>
      <trkpt lat="45.82589" lon="5.42165">
        <ele>214.6</ele>
        <time>2023-05-27T09:29:13Z</time>
      </trkpt>
      <trkpt lat="45.82588" lon="5.42156">
        <ele>214.6</ele>
        <time>2023-05-27T09:29:14Z</time>
      </trkpt>
      <trkpt lat="45.82586" lon="5.42147">
        <ele>214.4</ele>
        <time>2023-05-27T09:29:15Z</time>
      </trkpt>
      <trkpt lat="45.82585" lon="5.42137">
        <ele>214.4</ele>
        <time>2023-05-27T09:29:16Z</time>
      </trkpt>
      <trkpt lat="45.82583" lon="5.42128">
        <ele>214.2</ele>
        <time>2023-05-27T09:29:17Z</time>
      </trkpt>
      <trkpt lat="45.82582" lon="5.42119">
        <ele>214.2</ele>
        <time>2023-05-27T09:29:18Z</time>
      </trkpt>
      <trkpt lat="45.8258" lon="5.42109">
        <ele>214</ele>
        <time>2023-05-27T09:29:19Z</time>
      </trkpt>
      <trkpt lat="45.82579" lon="5.421">
        <ele>214</ele>
        <time>2023-05-27T09:29:20Z</time>
      </trkpt>
      <trkpt lat="45.82578" lon="5.42091">
        <ele>213.8</ele>
        <time>2023-05-27T09:29:21Z</time>
      </trkpt>
      <trkpt lat="45.82575" lon="5.42072">
        <ele>214</ele>
        <time>2023-05-27T09:29:23Z</time>
      </trkpt>
      <trkpt lat="45.82574" lon="5.42062">
        <ele>214</ele>
        <time>2023-05-27T09:29:24Z</time>
      </trkpt>
      <trkpt lat="45.82574" lon="5.42051">
        <ele>214</ele>
        <time>2023-05-27T09:29:25Z</time>
      </trkpt>
      <trkpt lat="45.82574" lon="5.4204">
        <ele>214</ele>
        <time>2023-05-27T09:29:26Z</time>
      </trkpt>
      <trkpt lat="45.82574" lon="5.42029">
        <ele>214.2</ele>
        <time>2023-05-27T09:29:27Z</time>
      </trkpt>
      <trkpt lat="45.82573" lon="5.42018">
        <ele>214.2</ele>
        <time>2023-05-27T09:29:28Z</time>
      </trkpt>
      <trkpt lat="45.82572" lon="5.41996">
        <ele>214.2</ele>
        <time>2023-05-27T09:29:30Z</time>
      </trkpt>
      <trkpt lat="45.82572" lon="5.41985">
        <ele>214.4</ele>
        <time>2023-05-27T09:29:31Z</time>
      </trkpt>
      <trkpt lat="45.82571" lon="5.41974">
        <ele>214.4</ele>
        <time>2023-05-27T09:29:32Z</time>
      </trkpt>
      <trkpt lat="45.82571" lon="5.41963">
        <ele>214.4</ele>
        <time>2023-05-27T09:29:33Z</time>
      </trkpt>
      <trkpt lat="45.82571" lon="5.41951">
        <ele>214.6</ele>
        <time>2023-05-27T09:29:34Z</time>
      </trkpt>
      <trkpt lat="45.8257" lon="5.4193">
        <ele>214.6</ele>
        <time>2023-05-27T09:29:36Z</time>
      </trkpt>
      <trkpt lat="45.8257" lon="5.41919">
        <ele>214.6</ele>
        <time>2023-05-27T09:29:37Z</time>
      </trkpt>
      <trkpt lat="45.8257" lon="5.41909">
        <ele>214.6</ele>
        <time>2023-05-27T09:29:38Z</time>
      </trkpt>
      <trkpt lat="45.82569" lon="5.41898">
        <ele>214.6</ele>
        <time>2023-05-27T09:29:39Z</time>
      </trkpt>
      <trkpt lat="45.82569" lon="5.41888">
        <ele>214.6</ele>
        <time>2023-05-27T09:29:40Z</time>
      </trkpt>
      <trkpt lat="45.82569" lon="5.41869">
        <ele>214.8</ele>
        <time>2023-05-27T09:29:42Z</time>
      </trkpt>
      <trkpt lat="45.82569" lon="5.41859">
        <ele>214.6</ele>
        <time>2023-05-27T09:29:43Z</time>
      </trkpt>
      <trkpt lat="45.8257" lon="5.4184">
        <ele>214.6</ele>
        <time>2023-05-27T09:29:45Z</time>
      </trkpt>
      <trkpt lat="45.82571" lon="5.41832">
        <ele>214.6</ele>
        <time>2023-05-27T09:29:46Z</time>
      </trkpt>
      <trkpt lat="45.82573" lon="5.41823">
        <ele>214.4</ele>
        <time>2023-05-27T09:29:47Z</time>
      </trkpt>
      <trkpt lat="45.82579" lon="5.41807">
        <ele>214.6</ele>
        <time>2023-05-27T09:29:49Z</time>
      </trkpt>
      <trkpt lat="45.8258" lon="5.41798">
        <ele>214.6</ele>
        <time>2023-05-27T09:29:50Z</time>
      </trkpt>
      <trkpt lat="45.8258" lon="5.41789">
        <ele>214.6</ele>
        <time>2023-05-27T09:29:51Z</time>
      </trkpt>
      <trkpt lat="45.82578" lon="5.41781">
        <ele>214.8</ele>
        <time>2023-05-27T09:29:52Z</time>
      </trkpt>
      <trkpt lat="45.82574" lon="5.41773">
        <ele>214.8</ele>
        <time>2023-05-27T09:29:53Z</time>
      </trkpt>
      <trkpt lat="45.82569" lon="5.41767">
        <ele>214.8</ele>
        <time>2023-05-27T09:29:54Z</time>
      </trkpt>
      <trkpt lat="45.82563" lon="5.41761">
        <ele>215</ele>
        <time>2023-05-27T09:29:55Z</time>
      </trkpt>
      <trkpt lat="45.82558" lon="5.41755">
        <ele>215</ele>
        <time>2023-05-27T09:29:56Z</time>
      </trkpt>
      <trkpt lat="45.82553" lon="5.41749">
        <ele>215</ele>
        <time>2023-05-27T09:29:57Z</time>
      </trkpt>
      <trkpt lat="45.82548" lon="5.41742">
        <ele>215</ele>
        <time>2023-05-27T09:29:58Z</time>
      </trkpt>
      <trkpt lat="45.82543" lon="5.41735">
        <ele>215</ele>
        <time>2023-05-27T09:29:59Z</time>
      </trkpt>
      <trkpt lat="45.82538" lon="5.4173">
        <ele>215</ele>
        <time>2023-05-27T09:30:00Z</time>
      </trkpt>
      <trkpt lat="45.82532" lon="5.41725">
        <ele>214.8</ele>
        <time>2023-05-27T09:30:01Z</time>
      </trkpt>
      <trkpt lat="45.82526" lon="5.4172">
        <ele>214.8</ele>
        <time>2023-05-27T09:30:02Z</time>
      </trkpt>
      <trkpt lat="45.82521" lon="5.41716">
        <ele>214.8</ele>
        <time>2023-05-27T09:30:03Z</time>
      </trkpt>
      <trkpt lat="45.82515" lon="5.41712">
        <ele>214.8</ele>
        <time>2023-05-27T09:30:04Z</time>
      </trkpt>
      <trkpt lat="45.8251" lon="5.41709">
        <ele>214.8</ele>
        <time>2023-05-27T09:30:05Z</time>
      </trkpt>
      <trkpt lat="45.82505" lon="5.41705">
        <ele>214.8</ele>
        <time>2023-05-27T09:30:06Z</time>
      </trkpt>
      <trkpt lat="45.825" lon="5.41701">
        <ele>214.6</ele>
        <time>2023-05-27T09:30:07Z</time>
      </trkpt>
      <trkpt lat="45.82495" lon="5.41697">
        <ele>214.6</ele>
        <time>2023-05-27T09:30:08Z</time>
      </trkpt>
      <trkpt lat="45.8249" lon="5.41694">
        <ele>214.6</ele>
        <time>2023-05-27T09:30:09Z</time>
      </trkpt>
      <trkpt lat="45.82484" lon="5.4169">
        <ele>214.8</ele>
        <time>2023-05-27T09:30:10Z</time>
      </trkpt>
      <trkpt lat="45.82479" lon="5.41687">
        <ele>214.8</ele>
        <time>2023-05-27T09:30:11Z</time>
      </trkpt>
      <trkpt lat="45.82473" lon="5.41684">
        <ele>214.8</ele>
        <time>2023-05-27T09:30:12Z</time>
      </trkpt>
      <trkpt lat="45.82468" lon="5.41681">
        <ele>214.8</ele>
        <time>2023-05-27T09:30:13Z</time>
      </trkpt>
      <trkpt lat="45.82462" lon="5.41677">
        <ele>214.8</ele>
        <time>2023-05-27T09:30:14Z</time>
      </trkpt>
      <trkpt lat="45.82458" lon="5.41673">
        <ele>215</ele>
        <time>2023-05-27T09:30:15Z</time>
      </trkpt>
      <trkpt lat="45.82453" lon="5.41669">
        <ele>215.2</ele>
        <time>2023-05-27T09:30:16Z</time>
      </trkpt>
      <trkpt lat="45.82448" lon="5.41664">
        <ele>215.2</ele>
        <time>2023-05-27T09:30:17Z</time>
      </trkpt>
      <trkpt lat="45.82444" lon="5.41659">
        <ele>215.2</ele>
        <time>2023-05-27T09:30:18Z</time>
      </trkpt>
      <trkpt lat="45.82441" lon="5.41653">
        <ele>215.4</ele>
        <time>2023-05-27T09:30:19Z</time>
      </trkpt>
      <trkpt lat="45.82438" lon="5.41647">
        <ele>215.4</ele>
        <time>2023-05-27T09:30:20Z</time>
      </trkpt>
      <trkpt lat="45.82435" lon="5.41641">
        <ele>215.4</ele>
        <time>2023-05-27T09:30:21Z</time>
      </trkpt>
      <trkpt lat="45.82432" lon="5.41635">
        <ele>215.4</ele>
        <time>2023-05-27T09:30:22Z</time>
      </trkpt>
      <trkpt lat="45.8243" lon="5.41628">
        <ele>215.6</ele>
        <time>2023-05-27T09:30:23Z</time>
      </trkpt>
      <trkpt lat="45.82428" lon="5.41621">
        <ele>215.6</ele>
        <time>2023-05-27T09:30:24Z</time>
      </trkpt>
      <trkpt lat="45.82427" lon="5.41614">
        <ele>215.6</ele>
        <time>2023-05-27T09:30:25Z</time>
      </trkpt>
      <trkpt lat="45.82426" lon="5.41606">
        <ele>215.8</ele>
        <time>2023-05-27T09:30:26Z</time>
      </trkpt>
      <trkpt lat="45.82425" lon="5.41599">
        <ele>215.8</ele>
        <time>2023-05-27T09:30:27Z</time>
      </trkpt>
      <trkpt lat="45.82425" lon="5.41592">
        <ele>215.8</ele>
        <time>2023-05-27T09:30:28Z</time>
      </trkpt>
      <trkpt lat="45.82424" lon="5.41585">
        <ele>215.8</ele>
        <time>2023-05-27T09:30:29Z</time>
      </trkpt>
      <trkpt lat="45.82424" lon="5.41577">
        <ele>215.8</ele>
        <time>2023-05-27T09:30:30Z</time>
      </trkpt>
      <trkpt lat="45.82423" lon="5.4157">
        <ele>216</ele>
        <time>2023-05-27T09:30:31Z</time>
      </trkpt>
      <trkpt lat="45.82423" lon="5.41562">
        <ele>216</ele>
        <time>2023-05-27T09:30:32Z</time>
      </trkpt>
      <trkpt lat="45.82422" lon="5.41555">
        <ele>216</ele>
        <time>2023-05-27T09:30:33Z</time>
      </trkpt>
      <trkpt lat="45.82422" lon="5.41548">
        <ele>216.2</ele>
        <time>2023-05-27T09:30:34Z</time>
      </trkpt>
      <trkpt lat="45.82421" lon="5.41541">
        <ele>216.2</ele>
        <time>2023-05-27T09:30:35Z</time>
      </trkpt>
      <trkpt lat="45.82421" lon="5.41534">
        <ele>216.4</ele>
        <time>2023-05-27T09:30:36Z</time>
      </trkpt>
      <trkpt lat="45.8242" lon="5.41527">
        <ele>216.6</ele>
        <time>2023-05-27T09:30:37Z</time>
      </trkpt>
      <trkpt lat="45.8242" lon="5.4152">
        <ele>217</ele>
        <time>2023-05-27T09:30:38Z</time>
      </trkpt>
      <trkpt lat="45.8242" lon="5.41514">
        <ele>217.2</ele>
        <time>2023-05-27T09:30:39Z</time>
      </trkpt>
      <trkpt lat="45.82419" lon="5.41507">
        <ele>217.4</ele>
        <time>2023-05-27T09:30:40Z</time>
      </trkpt>
      <trkpt lat="45.82418" lon="5.41501">
        <ele>217.4</ele>
        <time>2023-05-27T09:30:41Z</time>
      </trkpt>
      <trkpt lat="45.82417" lon="5.41494">
        <ele>218</ele>
        <time>2023-05-27T09:30:42Z</time>
      </trkpt>
      <trkpt lat="45.82417" lon="5.41487">
        <ele>218.2</ele>
        <time>2023-05-27T09:30:43Z</time>
      </trkpt>
      <trkpt lat="45.82416" lon="5.4148">
        <ele>218.4</ele>
        <time>2023-05-27T09:30:44Z</time>
      </trkpt>
      <trkpt lat="45.82416" lon="5.41473">
        <ele>219</ele>
        <time>2023-05-27T09:30:45Z</time>
      </trkpt>
      <trkpt lat="45.82415" lon="5.41466">
        <ele>219.2</ele>
        <time>2023-05-27T09:30:46Z</time>
      </trkpt>
      <trkpt lat="45.82415" lon="5.41459">
        <ele>219.4</ele>
        <time>2023-05-27T09:30:47Z</time>
      </trkpt>
      <trkpt lat="45.82414" lon="5.41451">
        <ele>219.6</ele>
        <time>2023-05-27T09:30:48Z</time>
      </trkpt>
      <trkpt lat="45.82413" lon="5.41445">
        <ele>220</ele>
        <time>2023-05-27T09:30:49Z</time>
      </trkpt>
      <trkpt lat="45.82413" lon="5.41438">
        <ele>220.2</ele>
        <time>2023-05-27T09:30:50Z</time>
      </trkpt>
      <trkpt lat="45.82412" lon="5.41431">
        <ele>220.2</ele>
        <time>2023-05-27T09:30:51Z</time>
      </trkpt>
      <trkpt lat="45.82412" lon="5.41424">
        <ele>220.4</ele>
        <time>2023-05-27T09:30:52Z</time>
      </trkpt>
      <trkpt lat="45.82412" lon="5.41416">
        <ele>220.4</ele>
        <time>2023-05-27T09:30:53Z</time>
      </trkpt>
      <trkpt lat="45.82411" lon="5.4141">
        <ele>221</ele>
        <time>2023-05-27T09:30:54Z</time>
      </trkpt>
      <trkpt lat="45.82411" lon="5.41402">
        <ele>221</ele>
        <time>2023-05-27T09:30:55Z</time>
      </trkpt>
      <trkpt lat="45.8241" lon="5.41395">
        <ele>221.2</ele>
        <time>2023-05-27T09:30:56Z</time>
      </trkpt>
      <trkpt lat="45.8241" lon="5.41387">
        <ele>221.6</ele>
        <time>2023-05-27T09:30:57Z</time>
      </trkpt>
      <trkpt lat="45.82409" lon="5.41379">
        <ele>221.6</ele>
        <time>2023-05-27T09:30:58Z</time>
      </trkpt>
      <trkpt lat="45.82409" lon="5.41371">
        <ele>221.8</ele>
        <time>2023-05-27T09:30:59Z</time>
      </trkpt>
      <trkpt lat="45.82409" lon="5.41363">
        <ele>222.2</ele>
        <time>2023-05-27T09:31:00Z</time>
      </trkpt>
      <trkpt lat="45.82409" lon="5.41355">
        <ele>222.4</ele>
        <time>2023-05-27T09:31:01Z</time>
      </trkpt>
      <trkpt lat="45.82409" lon="5.41347">
        <ele>222.6</ele>
        <time>2023-05-27T09:31:02Z</time>
      </trkpt>
      <trkpt lat="45.82408" lon="5.41339">
        <ele>222.8</ele>
        <time>2023-05-27T09:31:03Z</time>
      </trkpt>
      <trkpt lat="45.82408" lon="5.41331">
        <ele>223</ele>
        <time>2023-05-27T09:31:04Z</time>
      </trkpt>
      <trkpt lat="45.82407" lon="5.41323">
        <ele>223.2</ele>
        <time>2023-05-27T09:31:05Z</time>
      </trkpt>
      <trkpt lat="45.82406" lon="5.41315">
        <ele>223.4</ele>
        <time>2023-05-27T09:31:06Z</time>
      </trkpt>
      <trkpt lat="45.82405" lon="5.41308">
        <ele>223.2</ele>
        <time>2023-05-27T09:31:07Z</time>
      </trkpt>
      <trkpt lat="45.82403" lon="5.413">
        <ele>223.4</ele>
        <time>2023-05-27T09:31:08Z</time>
      </trkpt>
      <trkpt lat="45.82401" lon="5.41292">
        <ele>223.4</ele>
        <time>2023-05-27T09:31:09Z</time>
      </trkpt>
      <trkpt lat="45.82399" lon="5.41284">
        <ele>223.4</ele>
        <time>2023-05-27T09:31:10Z</time>
      </trkpt>
      <trkpt lat="45.82396" lon="5.41277">
        <ele>223.4</ele>
        <time>2023-05-27T09:31:11Z</time>
      </trkpt>
      <trkpt lat="45.82393" lon="5.41269">
        <ele>223.6</ele>
        <time>2023-05-27T09:31:12Z</time>
      </trkpt>
      <trkpt lat="45.82389" lon="5.41262">
        <ele>223.4</ele>
        <time>2023-05-27T09:31:13Z</time>
      </trkpt>
      <trkpt lat="45.82386" lon="5.41254">
        <ele>223.4</ele>
        <time>2023-05-27T09:31:14Z</time>
      </trkpt>
      <trkpt lat="45.82383" lon="5.41247">
        <ele>223.8</ele>
        <time>2023-05-27T09:31:15Z</time>
      </trkpt>
      <trkpt lat="45.8238" lon="5.41239">
        <ele>223.8</ele>
        <time>2023-05-27T09:31:16Z</time>
      </trkpt>
      <trkpt lat="45.82374" lon="5.41223">
        <ele>223.8</ele>
        <time>2023-05-27T09:31:18Z</time>
      </trkpt>
      <trkpt lat="45.82371" lon="5.41216">
        <ele>223.8</ele>
        <time>2023-05-27T09:31:19Z</time>
      </trkpt>
      <trkpt lat="45.82368" lon="5.41208">
        <ele>224</ele>
        <time>2023-05-27T09:31:20Z</time>
      </trkpt>
      <trkpt lat="45.82366" lon="5.41201">
        <ele>224</ele>
        <time>2023-05-27T09:31:21Z</time>
      </trkpt>
      <trkpt lat="45.82363" lon="5.41194">
        <ele>224</ele>
        <time>2023-05-27T09:31:22Z</time>
      </trkpt>
      <trkpt lat="45.82361" lon="5.41186">
        <ele>224.2</ele>
        <time>2023-05-27T09:31:23Z</time>
      </trkpt>
      <trkpt lat="45.82358" lon="5.41178">
        <ele>224.4</ele>
        <time>2023-05-27T09:31:24Z</time>
      </trkpt>
      <trkpt lat="45.82355" lon="5.4117">
        <ele>224.4</ele>
        <time>2023-05-27T09:31:25Z</time>
      </trkpt>
      <trkpt lat="45.82352" lon="5.41161">
        <ele>224.4</ele>
        <time>2023-05-27T09:31:26Z</time>
      </trkpt>
      <trkpt lat="45.82348" lon="5.41153">
        <ele>224.4</ele>
        <time>2023-05-27T09:31:27Z</time>
      </trkpt>
      <trkpt lat="45.82345" lon="5.41144">
        <ele>224.2</ele>
        <time>2023-05-27T09:31:28Z</time>
      </trkpt>
      <trkpt lat="45.82342" lon="5.41136">
        <ele>224.4</ele>
        <time>2023-05-27T09:31:29Z</time>
      </trkpt>
      <trkpt lat="45.8234" lon="5.41128">
        <ele>224.4</ele>
        <time>2023-05-27T09:31:30Z</time>
      </trkpt>
      <trkpt lat="45.82333" lon="5.41112">
        <ele>224.8</ele>
        <time>2023-05-27T09:31:32Z</time>
      </trkpt>
      <trkpt lat="45.82331" lon="5.41104">
        <ele>225</ele>
        <time>2023-05-27T09:31:33Z</time>
      </trkpt>
      <trkpt lat="45.82328" lon="5.41096">
        <ele>225.4</ele>
        <time>2023-05-27T09:31:34Z</time>
      </trkpt>
      <trkpt lat="45.82325" lon="5.41087">
        <ele>225.6</ele>
        <time>2023-05-27T09:31:35Z</time>
      </trkpt>
      <trkpt lat="45.82322" lon="5.41079">
        <ele>226</ele>
        <time>2023-05-27T09:31:36Z</time>
      </trkpt>
      <trkpt lat="45.82319" lon="5.41071">
        <ele>226</ele>
        <time>2023-05-27T09:31:37Z</time>
      </trkpt>
      <trkpt lat="45.82316" lon="5.41063">
        <ele>226.4</ele>
        <time>2023-05-27T09:31:38Z</time>
      </trkpt>
      <trkpt lat="45.82313" lon="5.41054">
        <ele>226.4</ele>
        <time>2023-05-27T09:31:39Z</time>
      </trkpt>
      <trkpt lat="45.82311" lon="5.41045">
        <ele>226.6</ele>
        <time>2023-05-27T09:31:40Z</time>
      </trkpt>
      <trkpt lat="45.82308" lon="5.41036">
        <ele>226.6</ele>
        <time>2023-05-27T09:31:41Z</time>
      </trkpt>
      <trkpt lat="45.82304" lon="5.41027">
        <ele>226.8</ele>
        <time>2023-05-27T09:31:42Z</time>
      </trkpt>
      <trkpt lat="45.82301" lon="5.41018">
        <ele>227</ele>
        <time>2023-05-27T09:31:43Z</time>
      </trkpt>
      <trkpt lat="45.82297" lon="5.41009">
        <ele>227</ele>
        <time>2023-05-27T09:31:44Z</time>
      </trkpt>
      <trkpt lat="45.82294" lon="5.41">
        <ele>227</ele>
        <time>2023-05-27T09:31:45Z</time>
      </trkpt>
      <trkpt lat="45.82291" lon="5.4099">
        <ele>227</ele>
        <time>2023-05-27T09:31:46Z</time>
      </trkpt>
      <trkpt lat="45.82287" lon="5.40981">
        <ele>227</ele>
        <time>2023-05-27T09:31:47Z</time>
      </trkpt>
      <trkpt lat="45.82284" lon="5.40971">
        <ele>227</ele>
        <time>2023-05-27T09:31:48Z</time>
      </trkpt>
      <trkpt lat="45.8228" lon="5.40961">
        <ele>227</ele>
        <time>2023-05-27T09:31:49Z</time>
      </trkpt>
      <trkpt lat="45.82273" lon="5.40941">
        <ele>226.8</ele>
        <time>2023-05-27T09:31:51Z</time>
      </trkpt>
      <trkpt lat="45.8227" lon="5.40931">
        <ele>226.8</ele>
        <time>2023-05-27T09:31:52Z</time>
      </trkpt>
      <trkpt lat="45.82267" lon="5.40921">
        <ele>226.8</ele>
        <time>2023-05-27T09:31:53Z</time>
      </trkpt>
      <trkpt lat="45.82263" lon="5.40911">
        <ele>226.6</ele>
        <time>2023-05-27T09:31:54Z</time>
      </trkpt>
      <trkpt lat="45.82259" lon="5.40901">
        <ele>226.6</ele>
        <time>2023-05-27T09:31:55Z</time>
      </trkpt>
      <trkpt lat="45.82256" lon="5.4089">
        <ele>226.2</ele>
        <time>2023-05-27T09:31:56Z</time>
      </trkpt>
      <trkpt lat="45.82252" lon="5.4088">
        <ele>226</ele>
        <time>2023-05-27T09:31:57Z</time>
      </trkpt>
      <trkpt lat="45.82248" lon="5.4087">
        <ele>225.8</ele>
        <time>2023-05-27T09:31:58Z</time>
      </trkpt>
      <trkpt lat="45.82245" lon="5.4086">
        <ele>225.8</ele>
        <time>2023-05-27T09:31:59Z</time>
      </trkpt>
      <trkpt lat="45.82237" lon="5.40837">
        <ele>225.6</ele>
        <time>2023-05-27T09:32:01Z</time>
      </trkpt>
      <trkpt lat="45.82234" lon="5.40829">
        <ele>225.6</ele>
        <time>2023-05-27T09:32:02Z</time>
      </trkpt>
      <trkpt lat="45.8223" lon="5.40819">
        <ele>225.4</ele>
        <time>2023-05-27T09:32:03Z</time>
      </trkpt>
      <trkpt lat="45.82227" lon="5.40809">
        <ele>225.4</ele>
        <time>2023-05-27T09:32:04Z</time>
      </trkpt>
      <trkpt lat="45.82224" lon="5.40799">
        <ele>225.4</ele>
        <time>2023-05-27T09:32:05Z</time>
      </trkpt>
      <trkpt lat="45.82221" lon="5.40789">
        <ele>225.4</ele>
        <time>2023-05-27T09:32:06Z</time>
      </trkpt>
      <trkpt lat="45.82217" lon="5.40779">
        <ele>225.4</ele>
        <time>2023-05-27T09:32:07Z</time>
      </trkpt>
      <trkpt lat="45.82214" lon="5.4077">
        <ele>225.4</ele>
        <time>2023-05-27T09:32:08Z</time>
      </trkpt>
      <trkpt lat="45.82211" lon="5.4076">
        <ele>225.4</ele>
        <time>2023-05-27T09:32:09Z</time>
      </trkpt>
      <trkpt lat="45.82208" lon="5.40751">
        <ele>225.4</ele>
        <time>2023-05-27T09:32:10Z</time>
      </trkpt>
      <trkpt lat="45.82206" lon="5.40741">
        <ele>225.4</ele>
        <time>2023-05-27T09:32:11Z</time>
      </trkpt>
      <trkpt lat="45.82205" lon="5.40731">
        <ele>225.6</ele>
        <time>2023-05-27T09:32:12Z</time>
      </trkpt>
      <trkpt lat="45.82205" lon="5.40721">
        <ele>225.8</ele>
        <time>2023-05-27T09:32:13Z</time>
      </trkpt>
      <trkpt lat="45.82207" lon="5.40712">
        <ele>225.8</ele>
        <time>2023-05-27T09:32:14Z</time>
      </trkpt>
      <trkpt lat="45.82209" lon="5.40704">
        <ele>225.8</ele>
        <time>2023-05-27T09:32:15Z</time>
      </trkpt>
      <trkpt lat="45.82215" lon="5.40689">
        <ele>226</ele>
        <time>2023-05-27T09:32:17Z</time>
      </trkpt>
      <trkpt lat="45.82218" lon="5.40683">
        <ele>226</ele>
        <time>2023-05-27T09:32:18Z</time>
      </trkpt>
      <trkpt lat="45.8222" lon="5.40667">
        <ele>227</ele>
        <time>2023-05-27T09:32:20Z</time>
      </trkpt>
      <trkpt lat="45.82217" lon="5.40661">
        <ele>227.2</ele>
        <time>2023-05-27T09:32:21Z</time>
      </trkpt>
      <trkpt lat="45.82212" lon="5.40657">
        <ele>227.4</ele>
        <time>2023-05-27T09:32:22Z</time>
      </trkpt>
      <trkpt lat="45.82207" lon="5.40655">
        <ele>227.6</ele>
        <time>2023-05-27T09:32:23Z</time>
      </trkpt>
      <trkpt lat="45.82202" lon="5.40655">
        <ele>228</ele>
        <time>2023-05-27T09:32:24Z</time>
      </trkpt>
      <trkpt lat="45.82196" lon="5.40656">
        <ele>228</ele>
        <time>2023-05-27T09:32:25Z</time>
      </trkpt>
      <trkpt lat="45.8219" lon="5.40655">
        <ele>228.2</ele>
        <time>2023-05-27T09:32:26Z</time>
      </trkpt>
      <trkpt lat="45.82184" lon="5.40654">
        <ele>228.2</ele>
        <time>2023-05-27T09:32:27Z</time>
      </trkpt>
      <trkpt lat="45.82178" lon="5.40652">
        <ele>228.2</ele>
        <time>2023-05-27T09:32:28Z</time>
      </trkpt>
      <trkpt lat="45.82172" lon="5.40648">
        <ele>228.2</ele>
        <time>2023-05-27T09:32:29Z</time>
      </trkpt>
      <trkpt lat="45.82168" lon="5.40642">
        <ele>228.2</ele>
        <time>2023-05-27T09:32:30Z</time>
      </trkpt>
      <trkpt lat="45.82164" lon="5.40634">
        <ele>228.2</ele>
        <time>2023-05-27T09:32:31Z</time>
      </trkpt>
      <trkpt lat="45.82161" lon="5.40625">
        <ele>228.2</ele>
        <time>2023-05-27T09:32:32Z</time>
      </trkpt>
      <trkpt lat="45.82158" lon="5.40617">
        <ele>228.2</ele>
        <time>2023-05-27T09:32:33Z</time>
      </trkpt>
      <trkpt lat="45.82155" lon="5.40608">
        <ele>228.2</ele>
        <time>2023-05-27T09:32:34Z</time>
      </trkpt>
      <trkpt lat="45.82152" lon="5.406">
        <ele>228.2</ele>
        <time>2023-05-27T09:32:35Z</time>
      </trkpt>
      <trkpt lat="45.82149" lon="5.40591">
        <ele>228.2</ele>
        <time>2023-05-27T09:32:36Z</time>
      </trkpt>
      <trkpt lat="45.82145" lon="5.40582">
        <ele>228.2</ele>
        <time>2023-05-27T09:32:37Z</time>
      </trkpt>
      <trkpt lat="45.82142" lon="5.40574">
        <ele>228.2</ele>
        <time>2023-05-27T09:32:38Z</time>
      </trkpt>
      <trkpt lat="45.82138" lon="5.40565">
        <ele>228.2</ele>
        <time>2023-05-27T09:32:39Z</time>
      </trkpt>
      <trkpt lat="45.82135" lon="5.40556">
        <ele>228.2</ele>
        <time>2023-05-27T09:32:40Z</time>
      </trkpt>
      <trkpt lat="45.82131" lon="5.40548">
        <ele>228.2</ele>
        <time>2023-05-27T09:32:41Z</time>
      </trkpt>
      <trkpt lat="45.82126" lon="5.4054">
        <ele>228.4</ele>
        <time>2023-05-27T09:32:42Z</time>
      </trkpt>
      <trkpt lat="45.82121" lon="5.40532">
        <ele>228.4</ele>
        <time>2023-05-27T09:32:43Z</time>
      </trkpt>
      <trkpt lat="45.82116" lon="5.40525">
        <ele>228.4</ele>
        <time>2023-05-27T09:32:44Z</time>
      </trkpt>
      <trkpt lat="45.82111" lon="5.40517">
        <ele>228.4</ele>
        <time>2023-05-27T09:32:45Z</time>
      </trkpt>
      <trkpt lat="45.82101" lon="5.40503">
        <ele>228.4</ele>
        <time>2023-05-27T09:32:47Z</time>
      </trkpt>
      <trkpt lat="45.82096" lon="5.40496">
        <ele>228.4</ele>
        <time>2023-05-27T09:32:48Z</time>
      </trkpt>
      <trkpt lat="45.8209" lon="5.40489">
        <ele>228.4</ele>
        <time>2023-05-27T09:32:49Z</time>
      </trkpt>
      <trkpt lat="45.82084" lon="5.40482">
        <ele>228.4</ele>
        <time>2023-05-27T09:32:50Z</time>
      </trkpt>
      <trkpt lat="45.82073" lon="5.40469">
        <ele>228.4</ele>
        <time>2023-05-27T09:32:52Z</time>
      </trkpt>
      <trkpt lat="45.82067" lon="5.40463">
        <ele>228.4</ele>
        <time>2023-05-27T09:32:53Z</time>
      </trkpt>
      <trkpt lat="45.82061" lon="5.40457">
        <ele>228.4</ele>
        <time>2023-05-27T09:32:54Z</time>
      </trkpt>
      <trkpt lat="45.82055" lon="5.40451">
        <ele>228.4</ele>
        <time>2023-05-27T09:32:55Z</time>
      </trkpt>
      <trkpt lat="45.82048" lon="5.40444">
        <ele>228.2</ele>
        <time>2023-05-27T09:32:56Z</time>
      </trkpt>
      <trkpt lat="45.82042" lon="5.40437">
        <ele>228.2</ele>
        <time>2023-05-27T09:32:57Z</time>
      </trkpt>
      <trkpt lat="45.82036" lon="5.40431">
        <ele>228.2</ele>
        <time>2023-05-27T09:32:58Z</time>
      </trkpt>
      <trkpt lat="45.82024" lon="5.40417">
        <ele>228.2</ele>
        <time>2023-05-27T09:33:00Z</time>
      </trkpt>
      <trkpt lat="45.82019" lon="5.40409">
        <ele>228</ele>
        <time>2023-05-27T09:33:01Z</time>
      </trkpt>
      <trkpt lat="45.82013" lon="5.40401">
        <ele>228</ele>
        <time>2023-05-27T09:33:02Z</time>
      </trkpt>
      <trkpt lat="45.82008" lon="5.40393">
        <ele>228</ele>
        <time>2023-05-27T09:33:03Z</time>
      </trkpt>
      <trkpt lat="45.82003" lon="5.40386">
        <ele>228</ele>
        <time>2023-05-27T09:33:04Z</time>
      </trkpt>
      <trkpt lat="45.81997" lon="5.40378">
        <ele>228</ele>
        <time>2023-05-27T09:33:05Z</time>
      </trkpt>
      <trkpt lat="45.81992" lon="5.4037">
        <ele>228</ele>
        <time>2023-05-27T09:33:06Z</time>
      </trkpt>
      <trkpt lat="45.81987" lon="5.40363">
        <ele>228</ele>
        <time>2023-05-27T09:33:07Z</time>
      </trkpt>
      <trkpt lat="45.81982" lon="5.40356">
        <ele>228</ele>
        <time>2023-05-27T09:33:08Z</time>
      </trkpt>
      <trkpt lat="45.81978" lon="5.4035">
        <ele>228</ele>
        <time>2023-05-27T09:33:09Z</time>
      </trkpt>
      <trkpt lat="45.81975" lon="5.40344">
        <ele>228</ele>
        <time>2023-05-27T09:33:10Z</time>
      </trkpt>
      <trkpt lat="45.81973" lon="5.40341">
        <ele>228</ele>
        <time>2023-05-27T09:33:11Z</time>
      </trkpt>
      <trkpt lat="45.81972" lon="5.40339">
        <ele>228</ele>
        <time>2023-05-27T09:33:12Z</time>
      </trkpt>
      <trkpt lat="45.81972" lon="5.40338">
        <ele>228.2</ele>
        <time>2023-05-27T09:33:13Z</time>
      </trkpt>
      <trkpt lat="45.81972" lon="5.40338">
        <ele>228.4</ele>
        <time>2023-05-27T09:33:14Z</time>
      </trkpt>
      <trkpt lat="45.81972" lon="5.40338">
        <ele>228.4</ele>
        <time>2023-05-27T09:33:15Z</time>
      </trkpt>
      <trkpt lat="45.81972" lon="5.40338">
        <ele>228.6</ele>
        <time>2023-05-27T09:33:16Z</time>
      </trkpt>
      <trkpt lat="45.81972" lon="5.40338">
        <ele>228.6</ele>
        <time>2023-05-27T09:33:17Z</time>
      </trkpt>
      <trkpt lat="45.81972" lon="5.40338">
        <ele>228.8</ele>
        <time>2023-05-27T09:33:18Z</time>
      </trkpt>
      <trkpt lat="45.81972" lon="5.40338">
        <ele>228.8</ele>
        <time>2023-05-27T09:33:19Z</time>
      </trkpt>
      <trkpt lat="45.81972" lon="5.40338">
        <ele>228.8</ele>
        <time>2023-05-27T09:33:21Z</time>
      </trkpt>
      <trkpt lat="45.81972" lon="5.40338">
        <ele>229</ele>
        <time>2023-05-27T09:33:22Z</time>
      </trkpt>
      <trkpt lat="45.81972" lon="5.40338">
        <ele>229</ele>
        <time>2023-05-27T09:33:23Z</time>
      </trkpt>
      <trkpt lat="45.81971" lon="5.40338">
        <ele>229</ele>
        <time>2023-05-27T09:33:24Z</time>
      </trkpt>
      <trkpt lat="45.81971" lon="5.40338">
        <ele>229.2</ele>
        <time>2023-05-27T09:33:25Z</time>
      </trkpt>
      <trkpt lat="45.8197" lon="5.40337">
        <ele>229.2</ele>
        <time>2023-05-27T09:33:26Z</time>
      </trkpt>
      <trkpt lat="45.81969" lon="5.40336">
        <ele>229.2</ele>
        <time>2023-05-27T09:33:27Z</time>
      </trkpt>
      <trkpt lat="45.81963" lon="5.40333">
        <ele>229.2</ele>
        <time>2023-05-27T09:33:29Z</time>
      </trkpt>
      <trkpt lat="45.8196" lon="5.40332">
        <ele>229.2</ele>
        <time>2023-05-27T09:33:30Z</time>
      </trkpt>
      <trkpt lat="45.81956" lon="5.40331">
        <ele>229.2</ele>
        <time>2023-05-27T09:33:31Z</time>
      </trkpt>
      <trkpt lat="45.81953" lon="5.40331">
        <ele>229.2</ele>
        <time>2023-05-27T09:33:32Z</time>
      </trkpt>
      <trkpt lat="45.8195" lon="5.4033">
        <ele>229.4</ele>
        <time>2023-05-27T09:33:33Z</time>
      </trkpt>
      <trkpt lat="45.81946" lon="5.4033">
        <ele>229.4</ele>
        <time>2023-05-27T09:33:34Z</time>
      </trkpt>
      <trkpt lat="45.81941" lon="5.40328">
        <ele>229.4</ele>
        <time>2023-05-27T09:33:35Z</time>
      </trkpt>
      <trkpt lat="45.81936" lon="5.40327">
        <ele>229.4</ele>
        <time>2023-05-27T09:33:36Z</time>
      </trkpt>
      <trkpt lat="45.8193" lon="5.40326">
        <ele>229.4</ele>
        <time>2023-05-27T09:33:37Z</time>
      </trkpt>
      <trkpt lat="45.81919" lon="5.40324">
        <ele>229.4</ele>
        <time>2023-05-27T09:33:39Z</time>
      </trkpt>
      <trkpt lat="45.81913" lon="5.40322">
        <ele>229.4</ele>
        <time>2023-05-27T09:33:40Z</time>
      </trkpt>
      <trkpt lat="45.81908" lon="5.40321">
        <ele>229.6</ele>
        <time>2023-05-27T09:33:41Z</time>
      </trkpt>
      <trkpt lat="45.81903" lon="5.40321">
        <ele>229.6</ele>
        <time>2023-05-27T09:33:42Z</time>
      </trkpt>
      <trkpt lat="45.81898" lon="5.4032">
        <ele>229.6</ele>
        <time>2023-05-27T09:33:43Z</time>
      </trkpt>
      <trkpt lat="45.81892" lon="5.40319">
        <ele>229.6</ele>
        <time>2023-05-27T09:33:44Z</time>
      </trkpt>
      <trkpt lat="45.81885" lon="5.40318">
        <ele>229.6</ele>
        <time>2023-05-27T09:33:45Z</time>
      </trkpt>
      <trkpt lat="45.81879" lon="5.40316">
        <ele>229.6</ele>
        <time>2023-05-27T09:33:46Z</time>
      </trkpt>
      <trkpt lat="45.81871" lon="5.40314">
        <ele>229.8</ele>
        <time>2023-05-27T09:33:47Z</time>
      </trkpt>
      <trkpt lat="45.81867" lon="5.40313">
        <ele>229.8</ele>
        <time>2023-05-27T09:33:48Z</time>
      </trkpt>
      <trkpt lat="45.81854" lon="5.40311">
        <ele>229.8</ele>
        <time>2023-05-27T09:33:50Z</time>
      </trkpt>
      <trkpt lat="45.81847" lon="5.40309">
        <ele>229.8</ele>
        <time>2023-05-27T09:33:51Z</time>
      </trkpt>
      <trkpt lat="45.81841" lon="5.40309">
        <ele>229.8</ele>
        <time>2023-05-27T09:33:52Z</time>
      </trkpt>
      <trkpt lat="45.81834" lon="5.40309">
        <ele>229.8</ele>
        <time>2023-05-27T09:33:53Z</time>
      </trkpt>
      <trkpt lat="45.81828" lon="5.40309">
        <ele>229.8</ele>
        <time>2023-05-27T09:33:54Z</time>
      </trkpt>
      <trkpt lat="45.81822" lon="5.4031">
        <ele>229.8</ele>
        <time>2023-05-27T09:33:55Z</time>
      </trkpt>
      <trkpt lat="45.81815" lon="5.40311">
        <ele>229.8</ele>
        <time>2023-05-27T09:33:56Z</time>
      </trkpt>
      <trkpt lat="45.81809" lon="5.40314">
        <ele>229.6</ele>
        <time>2023-05-27T09:33:57Z</time>
      </trkpt>
      <trkpt lat="45.81798" lon="5.4032">
        <ele>229.4</ele>
        <time>2023-05-27T09:33:59Z</time>
      </trkpt>
      <trkpt lat="45.81792" lon="5.40323">
        <ele>229.4</ele>
        <time>2023-05-27T09:34:00Z</time>
      </trkpt>
      <trkpt lat="45.81786" lon="5.40326">
        <ele>229.4</ele>
        <time>2023-05-27T09:34:01Z</time>
      </trkpt>
      <trkpt lat="45.8178" lon="5.40325">
        <ele>229.4</ele>
        <time>2023-05-27T09:34:02Z</time>
      </trkpt>
      <trkpt lat="45.81775" lon="5.40321">
        <ele>229.2</ele>
        <time>2023-05-27T09:34:03Z</time>
      </trkpt>
      <trkpt lat="45.81773" lon="5.40316">
        <ele>229.2</ele>
        <time>2023-05-27T09:34:04Z</time>
      </trkpt>
      <trkpt lat="45.81771" lon="5.40307">
        <ele>229</ele>
        <time>2023-05-27T09:34:05Z</time>
      </trkpt>
      <trkpt lat="45.81769" lon="5.403">
        <ele>229</ele>
        <time>2023-05-27T09:34:06Z</time>
      </trkpt>
      <trkpt lat="45.81767" lon="5.40292">
        <ele>228.8</ele>
        <time>2023-05-27T09:34:07Z</time>
      </trkpt>
      <trkpt lat="45.81765" lon="5.40284">
        <ele>228.6</ele>
        <time>2023-05-27T09:34:08Z</time>
      </trkpt>
      <trkpt lat="45.81763" lon="5.40277">
        <ele>228.6</ele>
        <time>2023-05-27T09:34:09Z</time>
      </trkpt>
      <trkpt lat="45.81761" lon="5.4027">
        <ele>228.4</ele>
        <time>2023-05-27T09:34:10Z</time>
      </trkpt>
      <trkpt lat="45.81758" lon="5.40262">
        <ele>228.2</ele>
        <time>2023-05-27T09:34:11Z</time>
      </trkpt>
      <trkpt lat="45.81756" lon="5.40255">
        <ele>228.2</ele>
        <time>2023-05-27T09:34:12Z</time>
      </trkpt>
      <trkpt lat="45.81753" lon="5.40248">
        <ele>228.2</ele>
        <time>2023-05-27T09:34:13Z</time>
      </trkpt>
      <trkpt lat="45.81751" lon="5.4024">
        <ele>228</ele>
        <time>2023-05-27T09:34:14Z</time>
      </trkpt>
      <trkpt lat="45.81748" lon="5.40233">
        <ele>228</ele>
        <time>2023-05-27T09:34:15Z</time>
      </trkpt>
      <trkpt lat="45.81747" lon="5.40225">
        <ele>228</ele>
        <time>2023-05-27T09:34:16Z</time>
      </trkpt>
      <trkpt lat="45.81745" lon="5.40217">
        <ele>228</ele>
        <time>2023-05-27T09:34:17Z</time>
      </trkpt>
      <trkpt lat="45.81743" lon="5.40209">
        <ele>228</ele>
        <time>2023-05-27T09:34:18Z</time>
      </trkpt>
      <trkpt lat="45.81742" lon="5.40201">
        <ele>228</ele>
        <time>2023-05-27T09:34:19Z</time>
      </trkpt>
      <trkpt lat="45.81741" lon="5.40193">
        <ele>227.8</ele>
        <time>2023-05-27T09:34:20Z</time>
      </trkpt>
      <trkpt lat="45.8174" lon="5.40185">
        <ele>227.8</ele>
        <time>2023-05-27T09:34:21Z</time>
      </trkpt>
      <trkpt lat="45.81739" lon="5.40176">
        <ele>227.8</ele>
        <time>2023-05-27T09:34:22Z</time>
      </trkpt>
      <trkpt lat="45.81738" lon="5.40168">
        <ele>227.8</ele>
        <time>2023-05-27T09:34:23Z</time>
      </trkpt>
      <trkpt lat="45.81738" lon="5.40159">
        <ele>227.8</ele>
        <time>2023-05-27T09:34:24Z</time>
      </trkpt>
      <trkpt lat="45.81737" lon="5.40149">
        <ele>227.8</ele>
        <time>2023-05-27T09:34:25Z</time>
      </trkpt>
      <trkpt lat="45.81736" lon="5.4014">
        <ele>227.8</ele>
        <time>2023-05-27T09:34:26Z</time>
      </trkpt>
      <trkpt lat="45.81735" lon="5.40131">
        <ele>227.8</ele>
        <time>2023-05-27T09:34:27Z</time>
      </trkpt>
      <trkpt lat="45.81734" lon="5.40122">
        <ele>228</ele>
        <time>2023-05-27T09:34:28Z</time>
      </trkpt>
      <trkpt lat="45.81733" lon="5.40113">
        <ele>228</ele>
        <time>2023-05-27T09:34:29Z</time>
      </trkpt>
      <trkpt lat="45.81731" lon="5.40095">
        <ele>228.2</ele>
        <time>2023-05-27T09:34:31Z</time>
      </trkpt>
      <trkpt lat="45.81731" lon="5.40087">
        <ele>228.4</ele>
        <time>2023-05-27T09:34:32Z</time>
      </trkpt>
      <trkpt lat="45.81732" lon="5.40078">
        <ele>228.6</ele>
        <time>2023-05-27T09:34:33Z</time>
      </trkpt>
      <trkpt lat="45.81734" lon="5.4007">
        <ele>228.6</ele>
        <time>2023-05-27T09:34:34Z</time>
      </trkpt>
      <trkpt lat="45.81738" lon="5.40062">
        <ele>228.8</ele>
        <time>2023-05-27T09:34:35Z</time>
      </trkpt>
      <trkpt lat="45.81742" lon="5.40055">
        <ele>229</ele>
        <time>2023-05-27T09:34:36Z</time>
      </trkpt>
      <trkpt lat="45.81746" lon="5.40049">
        <ele>229.4</ele>
        <time>2023-05-27T09:34:37Z</time>
      </trkpt>
      <trkpt lat="45.8175" lon="5.40043">
        <ele>229.6</ele>
        <time>2023-05-27T09:34:38Z</time>
      </trkpt>
      <trkpt lat="45.81755" lon="5.40037">
        <ele>229.8</ele>
        <time>2023-05-27T09:34:39Z</time>
      </trkpt>
      <trkpt lat="45.81759" lon="5.40032">
        <ele>230.2</ele>
        <time>2023-05-27T09:34:40Z</time>
      </trkpt>
      <trkpt lat="45.81763" lon="5.40026">
        <ele>230.4</ele>
        <time>2023-05-27T09:34:41Z</time>
      </trkpt>
      <trkpt lat="45.81767" lon="5.40021">
        <ele>230.8</ele>
        <time>2023-05-27T09:34:42Z</time>
      </trkpt>
      <trkpt lat="45.81771" lon="5.40015">
        <ele>231</ele>
        <time>2023-05-27T09:34:43Z</time>
      </trkpt>
      <trkpt lat="45.81774" lon="5.4001">
        <ele>231.2</ele>
        <time>2023-05-27T09:34:44Z</time>
      </trkpt>
      <trkpt lat="45.81778" lon="5.40004">
        <ele>231.4</ele>
        <time>2023-05-27T09:34:45Z</time>
      </trkpt>
      <trkpt lat="45.81782" lon="5.39999">
        <ele>231.8</ele>
        <time>2023-05-27T09:34:46Z</time>
      </trkpt>
      <trkpt lat="45.81786" lon="5.39993">
        <ele>232.2</ele>
        <time>2023-05-27T09:34:47Z</time>
      </trkpt>
      <trkpt lat="45.81789" lon="5.39988">
        <ele>232.4</ele>
        <time>2023-05-27T09:34:48Z</time>
      </trkpt>
      <trkpt lat="45.81793" lon="5.39982">
        <ele>232.8</ele>
        <time>2023-05-27T09:34:49Z</time>
      </trkpt>
      <trkpt lat="45.81796" lon="5.39977">
        <ele>232.8</ele>
        <time>2023-05-27T09:34:50Z</time>
      </trkpt>
      <trkpt lat="45.818" lon="5.39972">
        <ele>233.2</ele>
        <time>2023-05-27T09:34:51Z</time>
      </trkpt>
      <trkpt lat="45.81804" lon="5.39966">
        <ele>233.6</ele>
        <time>2023-05-27T09:34:52Z</time>
      </trkpt>
      <trkpt lat="45.81807" lon="5.39962">
        <ele>233.8</ele>
        <time>2023-05-27T09:34:53Z</time>
      </trkpt>
      <trkpt lat="45.81811" lon="5.39957">
        <ele>234.2</ele>
        <time>2023-05-27T09:34:54Z</time>
      </trkpt>
      <trkpt lat="45.81816" lon="5.39952">
        <ele>234.4</ele>
        <time>2023-05-27T09:34:55Z</time>
      </trkpt>
      <trkpt lat="45.8182" lon="5.39948">
        <ele>234.8</ele>
        <time>2023-05-27T09:34:56Z</time>
      </trkpt>
      <trkpt lat="45.81824" lon="5.39944">
        <ele>235</ele>
        <time>2023-05-27T09:34:57Z</time>
      </trkpt>
      <trkpt lat="45.81829" lon="5.39939">
        <ele>235</ele>
        <time>2023-05-27T09:34:58Z</time>
      </trkpt>
      <trkpt lat="45.81833" lon="5.39935">
        <ele>235.2</ele>
        <time>2023-05-27T09:34:59Z</time>
      </trkpt>
      <trkpt lat="45.81837" lon="5.3993">
        <ele>235.6</ele>
        <time>2023-05-27T09:35:00Z</time>
      </trkpt>
      <trkpt lat="45.81841" lon="5.39926">
        <ele>236</ele>
        <time>2023-05-27T09:35:01Z</time>
      </trkpt>
      <trkpt lat="45.81845" lon="5.39922">
        <ele>236</ele>
        <time>2023-05-27T09:35:02Z</time>
      </trkpt>
      <trkpt lat="45.81849" lon="5.39918">
        <ele>236.4</ele>
        <time>2023-05-27T09:35:03Z</time>
      </trkpt>
      <trkpt lat="45.81854" lon="5.39913">
        <ele>236.6</ele>
        <time>2023-05-27T09:35:04Z</time>
      </trkpt>
      <trkpt lat="45.81858" lon="5.39909">
        <ele>236.8</ele>
        <time>2023-05-27T09:35:05Z</time>
      </trkpt>
      <trkpt lat="45.81861" lon="5.39905">
        <ele>236.8</ele>
        <time>2023-05-27T09:35:06Z</time>
      </trkpt>
      <trkpt lat="45.81865" lon="5.399">
        <ele>237</ele>
        <time>2023-05-27T09:35:07Z</time>
      </trkpt>
      <trkpt lat="45.81869" lon="5.39896">
        <ele>237</ele>
        <time>2023-05-27T09:35:08Z</time>
      </trkpt>
      <trkpt lat="45.81873" lon="5.39892">
        <ele>237</ele>
        <time>2023-05-27T09:35:09Z</time>
      </trkpt>
      <trkpt lat="45.81877" lon="5.39887">
        <ele>237</ele>
        <time>2023-05-27T09:35:10Z</time>
      </trkpt>
      <trkpt lat="45.81881" lon="5.39883">
        <ele>237.2</ele>
        <time>2023-05-27T09:35:11Z</time>
      </trkpt>
      <trkpt lat="45.81886" lon="5.39878">
        <ele>237.6</ele>
        <time>2023-05-27T09:35:12Z</time>
      </trkpt>
      <trkpt lat="45.81891" lon="5.39873">
        <ele>237.8</ele>
        <time>2023-05-27T09:35:13Z</time>
      </trkpt>
      <trkpt lat="45.81895" lon="5.39869">
        <ele>238</ele>
        <time>2023-05-27T09:35:14Z</time>
      </trkpt>
      <trkpt lat="45.819" lon="5.39864">
        <ele>238.2</ele>
        <time>2023-05-27T09:35:15Z</time>
      </trkpt>
      <trkpt lat="45.81904" lon="5.3986">
        <ele>238.6</ele>
        <time>2023-05-27T09:35:16Z</time>
      </trkpt>
      <trkpt lat="45.81909" lon="5.39856">
        <ele>238.8</ele>
        <time>2023-05-27T09:35:17Z</time>
      </trkpt>
      <trkpt lat="45.81914" lon="5.39852">
        <ele>239</ele>
        <time>2023-05-27T09:35:18Z</time>
      </trkpt>
      <trkpt lat="45.81919" lon="5.39848">
        <ele>239.4</ele>
        <time>2023-05-27T09:35:19Z</time>
      </trkpt>
      <trkpt lat="45.81924" lon="5.39843">
        <ele>239.4</ele>
        <time>2023-05-27T09:35:20Z</time>
      </trkpt>
      <trkpt lat="45.81929" lon="5.39839">
        <ele>239.4</ele>
        <time>2023-05-27T09:35:21Z</time>
      </trkpt>
      <trkpt lat="45.81934" lon="5.39835">
        <ele>239.6</ele>
        <time>2023-05-27T09:35:22Z</time>
      </trkpt>
      <trkpt lat="45.81939" lon="5.3983">
        <ele>239.6</ele>
        <time>2023-05-27T09:35:23Z</time>
      </trkpt>
      <trkpt lat="45.81943" lon="5.39826">
        <ele>240</ele>
        <time>2023-05-27T09:35:24Z</time>
      </trkpt>
      <trkpt lat="45.81948" lon="5.39821">
        <ele>240</ele>
        <time>2023-05-27T09:35:25Z</time>
      </trkpt>
      <trkpt lat="45.81953" lon="5.39816">
        <ele>240.2</ele>
        <time>2023-05-27T09:35:26Z</time>
      </trkpt>
      <trkpt lat="45.81957" lon="5.39811">
        <ele>240.2</ele>
        <time>2023-05-27T09:35:27Z</time>
      </trkpt>
      <trkpt lat="45.81962" lon="5.39805">
        <ele>240.2</ele>
        <time>2023-05-27T09:35:28Z</time>
      </trkpt>
      <trkpt lat="45.81967" lon="5.398">
        <ele>240.4</ele>
        <time>2023-05-27T09:35:29Z</time>
      </trkpt>
      <trkpt lat="45.81971" lon="5.39795">
        <ele>240.6</ele>
        <time>2023-05-27T09:35:30Z</time>
      </trkpt>
      <trkpt lat="45.81975" lon="5.3979">
        <ele>240.8</ele>
        <time>2023-05-27T09:35:31Z</time>
      </trkpt>
      <trkpt lat="45.8198" lon="5.39785">
        <ele>241</ele>
        <time>2023-05-27T09:35:32Z</time>
      </trkpt>
      <trkpt lat="45.81985" lon="5.3978">
        <ele>241.2</ele>
        <time>2023-05-27T09:35:33Z</time>
      </trkpt>
      <trkpt lat="45.81989" lon="5.39775">
        <ele>241.4</ele>
        <time>2023-05-27T09:35:34Z</time>
      </trkpt>
      <trkpt lat="45.81994" lon="5.39769">
        <ele>241.4</ele>
        <time>2023-05-27T09:35:35Z</time>
      </trkpt>
      <trkpt lat="45.81998" lon="5.39764">
        <ele>241.4</ele>
        <time>2023-05-27T09:35:36Z</time>
      </trkpt>
      <trkpt lat="45.82002" lon="5.3976">
        <ele>241.6</ele>
        <time>2023-05-27T09:35:37Z</time>
      </trkpt>
      <trkpt lat="45.82007" lon="5.39755">
        <ele>241.8</ele>
        <time>2023-05-27T09:35:38Z</time>
      </trkpt>
      <trkpt lat="45.82012" lon="5.39749">
        <ele>242</ele>
        <time>2023-05-27T09:35:39Z</time>
      </trkpt>
      <trkpt lat="45.82016" lon="5.39745">
        <ele>242.4</ele>
        <time>2023-05-27T09:35:40Z</time>
      </trkpt>
      <trkpt lat="45.8202" lon="5.3974">
        <ele>242.4</ele>
        <time>2023-05-27T09:35:41Z</time>
      </trkpt>
      <trkpt lat="45.82024" lon="5.39735">
        <ele>242.6</ele>
        <time>2023-05-27T09:35:42Z</time>
      </trkpt>
      <trkpt lat="45.82029" lon="5.3973">
        <ele>242.8</ele>
        <time>2023-05-27T09:35:43Z</time>
      </trkpt>
      <trkpt lat="45.82033" lon="5.39726">
        <ele>243</ele>
        <time>2023-05-27T09:35:44Z</time>
      </trkpt>
      <trkpt lat="45.82037" lon="5.39721">
        <ele>243</ele>
        <time>2023-05-27T09:35:45Z</time>
      </trkpt>
      <trkpt lat="45.82042" lon="5.39717">
        <ele>243.2</ele>
        <time>2023-05-27T09:35:46Z</time>
      </trkpt>
      <trkpt lat="45.82046" lon="5.39712">
        <ele>243.4</ele>
        <time>2023-05-27T09:35:47Z</time>
      </trkpt>
      <trkpt lat="45.82051" lon="5.39708">
        <ele>243.4</ele>
        <time>2023-05-27T09:35:48Z</time>
      </trkpt>
      <trkpt lat="45.82055" lon="5.39703">
        <ele>243.6</ele>
        <time>2023-05-27T09:35:49Z</time>
      </trkpt>
      <trkpt lat="45.82059" lon="5.39699">
        <ele>243.8</ele>
        <time>2023-05-27T09:35:50Z</time>
      </trkpt>
      <trkpt lat="45.82063" lon="5.39695">
        <ele>244</ele>
        <time>2023-05-27T09:35:51Z</time>
      </trkpt>
      <trkpt lat="45.82068" lon="5.39689">
        <ele>244</ele>
        <time>2023-05-27T09:35:52Z</time>
      </trkpt>
      <trkpt lat="45.82071" lon="5.39685">
        <ele>244.2</ele>
        <time>2023-05-27T09:35:53Z</time>
      </trkpt>
      <trkpt lat="45.82076" lon="5.39681">
        <ele>244.2</ele>
        <time>2023-05-27T09:35:54Z</time>
      </trkpt>
      <trkpt lat="45.8208" lon="5.39676">
        <ele>244.2</ele>
        <time>2023-05-27T09:35:55Z</time>
      </trkpt>
      <trkpt lat="45.82084" lon="5.39672">
        <ele>244.4</ele>
        <time>2023-05-27T09:35:56Z</time>
      </trkpt>
      <trkpt lat="45.82088" lon="5.39667">
        <ele>244.4</ele>
        <time>2023-05-27T09:35:57Z</time>
      </trkpt>
      <trkpt lat="45.82092" lon="5.39663">
        <ele>244.6</ele>
        <time>2023-05-27T09:35:58Z</time>
      </trkpt>
      <trkpt lat="45.82097" lon="5.39658">
        <ele>244.8</ele>
        <time>2023-05-27T09:35:59Z</time>
      </trkpt>
      <trkpt lat="45.82099" lon="5.39654">
        <ele>244.8</ele>
        <time>2023-05-27T09:36:00Z</time>
      </trkpt>
      <trkpt lat="45.82103" lon="5.39649">
        <ele>245</ele>
        <time>2023-05-27T09:36:01Z</time>
      </trkpt>
      <trkpt lat="45.82107" lon="5.39645">
        <ele>245.2</ele>
        <time>2023-05-27T09:36:02Z</time>
      </trkpt>
      <trkpt lat="45.82111" lon="5.39641">
        <ele>245.4</ele>
        <time>2023-05-27T09:36:03Z</time>
      </trkpt>
      <trkpt lat="45.82115" lon="5.39636">
        <ele>245.4</ele>
        <time>2023-05-27T09:36:04Z</time>
      </trkpt>
      <trkpt lat="45.82119" lon="5.39632">
        <ele>245.6</ele>
        <time>2023-05-27T09:36:05Z</time>
      </trkpt>
      <trkpt lat="45.82123" lon="5.39627">
        <ele>245.8</ele>
        <time>2023-05-27T09:36:06Z</time>
      </trkpt>
      <trkpt lat="45.82127" lon="5.39623">
        <ele>246.2</ele>
        <time>2023-05-27T09:36:07Z</time>
      </trkpt>
      <trkpt lat="45.8213" lon="5.39618">
        <ele>246.4</ele>
        <time>2023-05-27T09:36:08Z</time>
      </trkpt>
      <trkpt lat="45.82134" lon="5.39613">
        <ele>246.8</ele>
        <time>2023-05-27T09:36:09Z</time>
      </trkpt>
      <trkpt lat="45.82138" lon="5.39609">
        <ele>247.2</ele>
        <time>2023-05-27T09:36:10Z</time>
      </trkpt>
      <trkpt lat="45.82141" lon="5.39605">
        <ele>247.4</ele>
        <time>2023-05-27T09:36:11Z</time>
      </trkpt>
      <trkpt lat="45.82145" lon="5.396">
        <ele>247.6</ele>
        <time>2023-05-27T09:36:12Z</time>
      </trkpt>
      <trkpt lat="45.82149" lon="5.39596">
        <ele>247.8</ele>
        <time>2023-05-27T09:36:13Z</time>
      </trkpt>
      <trkpt lat="45.82153" lon="5.39591">
        <ele>248</ele>
        <time>2023-05-27T09:36:14Z</time>
      </trkpt>
      <trkpt lat="45.82156" lon="5.39587">
        <ele>248.2</ele>
        <time>2023-05-27T09:36:15Z</time>
      </trkpt>
      <trkpt lat="45.8216" lon="5.39583">
        <ele>248.6</ele>
        <time>2023-05-27T09:36:16Z</time>
      </trkpt>
      <trkpt lat="45.82164" lon="5.39578">
        <ele>248.8</ele>
        <time>2023-05-27T09:36:17Z</time>
      </trkpt>
      <trkpt lat="45.82168" lon="5.39571">
        <ele>249</ele>
        <time>2023-05-27T09:36:18Z</time>
      </trkpt>
      <trkpt lat="45.82171" lon="5.39567">
        <ele>249.4</ele>
        <time>2023-05-27T09:36:19Z</time>
      </trkpt>
      <trkpt lat="45.82174" lon="5.39562">
        <ele>249.6</ele>
        <time>2023-05-27T09:36:20Z</time>
      </trkpt>
      <trkpt lat="45.82178" lon="5.39557">
        <ele>249.8</ele>
        <time>2023-05-27T09:36:21Z</time>
      </trkpt>
      <trkpt lat="45.82181" lon="5.39552">
        <ele>250</ele>
        <time>2023-05-27T09:36:22Z</time>
      </trkpt>
      <trkpt lat="45.82185" lon="5.39547">
        <ele>250.4</ele>
        <time>2023-05-27T09:36:23Z</time>
      </trkpt>
      <trkpt lat="45.82188" lon="5.39541">
        <ele>250.8</ele>
        <time>2023-05-27T09:36:24Z</time>
      </trkpt>
      <trkpt lat="45.82191" lon="5.39536">
        <ele>250.8</ele>
        <time>2023-05-27T09:36:25Z</time>
      </trkpt>
      <trkpt lat="45.82194" lon="5.39531">
        <ele>251</ele>
        <time>2023-05-27T09:36:26Z</time>
      </trkpt>
      <trkpt lat="45.82198" lon="5.39526">
        <ele>251.2</ele>
        <time>2023-05-27T09:36:27Z</time>
      </trkpt>
      <trkpt lat="45.82202" lon="5.39519">
        <ele>251.4</ele>
        <time>2023-05-27T09:36:28Z</time>
      </trkpt>
      <trkpt lat="45.82204" lon="5.39515">
        <ele>251.6</ele>
        <time>2023-05-27T09:36:29Z</time>
      </trkpt>
      <trkpt lat="45.82207" lon="5.39509">
        <ele>251.8</ele>
        <time>2023-05-27T09:36:30Z</time>
      </trkpt>
      <trkpt lat="45.82211" lon="5.39504">
        <ele>251.8</ele>
        <time>2023-05-27T09:36:31Z</time>
      </trkpt>
      <trkpt lat="45.82215" lon="5.39498">
        <ele>252</ele>
        <time>2023-05-27T09:36:32Z</time>
      </trkpt>
      <trkpt lat="45.82218" lon="5.39493">
        <ele>252.2</ele>
        <time>2023-05-27T09:36:33Z</time>
      </trkpt>
      <trkpt lat="45.82222" lon="5.39486">
        <ele>252.2</ele>
        <time>2023-05-27T09:36:34Z</time>
      </trkpt>
      <trkpt lat="45.82225" lon="5.39481">
        <ele>252.6</ele>
        <time>2023-05-27T09:36:35Z</time>
      </trkpt>
      <trkpt lat="45.82229" lon="5.39476">
        <ele>252.8</ele>
        <time>2023-05-27T09:36:36Z</time>
      </trkpt>
      <trkpt lat="45.82233" lon="5.39469">
        <ele>253</ele>
        <time>2023-05-27T09:36:37Z</time>
      </trkpt>
      <trkpt lat="45.82236" lon="5.39464">
        <ele>253.2</ele>
        <time>2023-05-27T09:36:38Z</time>
      </trkpt>
      <trkpt lat="45.8224" lon="5.39458">
        <ele>253.4</ele>
        <time>2023-05-27T09:36:39Z</time>
      </trkpt>
      <trkpt lat="45.82243" lon="5.39453">
        <ele>253.6</ele>
        <time>2023-05-27T09:36:40Z</time>
      </trkpt>
      <trkpt lat="45.82247" lon="5.39447">
        <ele>253.6</ele>
        <time>2023-05-27T09:36:41Z</time>
      </trkpt>
      <trkpt lat="45.82251" lon="5.39442">
        <ele>253.8</ele>
        <time>2023-05-27T09:36:42Z</time>
      </trkpt>
      <trkpt lat="45.82255" lon="5.39437">
        <ele>253.8</ele>
        <time>2023-05-27T09:36:43Z</time>
      </trkpt>
      <trkpt lat="45.82258" lon="5.39432">
        <ele>253.8</ele>
        <time>2023-05-27T09:36:44Z</time>
      </trkpt>
      <trkpt lat="45.82262" lon="5.39428">
        <ele>253.8</ele>
        <time>2023-05-27T09:36:45Z</time>
      </trkpt>
      <trkpt lat="45.82266" lon="5.39423">
        <ele>254</ele>
        <time>2023-05-27T09:36:46Z</time>
      </trkpt>
      <trkpt lat="45.82271" lon="5.39419">
        <ele>254</ele>
        <time>2023-05-27T09:36:47Z</time>
      </trkpt>
      <trkpt lat="45.82276" lon="5.39414">
        <ele>254</ele>
        <time>2023-05-27T09:36:48Z</time>
      </trkpt>
      <trkpt lat="45.8228" lon="5.39411">
        <ele>254</ele>
        <time>2023-05-27T09:36:49Z</time>
      </trkpt>
      <trkpt lat="45.82284" lon="5.39407">
        <ele>254</ele>
        <time>2023-05-27T09:36:50Z</time>
      </trkpt>
      <trkpt lat="45.82289" lon="5.39403">
        <ele>254</ele>
        <time>2023-05-27T09:36:51Z</time>
      </trkpt>
      <trkpt lat="45.82293" lon="5.394">
        <ele>254.2</ele>
        <time>2023-05-27T09:36:52Z</time>
      </trkpt>
      <trkpt lat="45.82298" lon="5.39395">
        <ele>254.2</ele>
        <time>2023-05-27T09:36:53Z</time>
      </trkpt>
      <trkpt lat="45.82302" lon="5.39392">
        <ele>254.2</ele>
        <time>2023-05-27T09:36:54Z</time>
      </trkpt>
      <trkpt lat="45.82307" lon="5.39388">
        <ele>254.2</ele>
        <time>2023-05-27T09:36:55Z</time>
      </trkpt>
      <trkpt lat="45.82312" lon="5.39385">
        <ele>254.4</ele>
        <time>2023-05-27T09:36:56Z</time>
      </trkpt>
      <trkpt lat="45.82317" lon="5.39382">
        <ele>254.4</ele>
        <time>2023-05-27T09:36:57Z</time>
      </trkpt>
      <trkpt lat="45.82322" lon="5.39379">
        <ele>254.6</ele>
        <time>2023-05-27T09:36:58Z</time>
      </trkpt>
      <trkpt lat="45.82327" lon="5.39377">
        <ele>254.6</ele>
        <time>2023-05-27T09:36:59Z</time>
      </trkpt>
      <trkpt lat="45.82332" lon="5.39374">
        <ele>254.6</ele>
        <time>2023-05-27T09:37:00Z</time>
      </trkpt>
      <trkpt lat="45.82337" lon="5.39372">
        <ele>254.6</ele>
        <time>2023-05-27T09:37:01Z</time>
      </trkpt>
      <trkpt lat="45.82343" lon="5.39369">
        <ele>254.6</ele>
        <time>2023-05-27T09:37:02Z</time>
      </trkpt>
      <trkpt lat="45.82348" lon="5.39368">
        <ele>254.6</ele>
        <time>2023-05-27T09:37:03Z</time>
      </trkpt>
      <trkpt lat="45.82353" lon="5.39366">
        <ele>255</ele>
        <time>2023-05-27T09:37:04Z</time>
      </trkpt>
      <trkpt lat="45.82357" lon="5.39364">
        <ele>255</ele>
        <time>2023-05-27T09:37:05Z</time>
      </trkpt>
      <trkpt lat="45.82363" lon="5.39363">
        <ele>255</ele>
        <time>2023-05-27T09:37:06Z</time>
      </trkpt>
      <trkpt lat="45.82368" lon="5.39362">
        <ele>255</ele>
        <time>2023-05-27T09:37:07Z</time>
      </trkpt>
      <trkpt lat="45.82372" lon="5.3936">
        <ele>255.4</ele>
        <time>2023-05-27T09:37:08Z</time>
      </trkpt>
      <trkpt lat="45.82377" lon="5.39358">
        <ele>255.4</ele>
        <time>2023-05-27T09:37:09Z</time>
      </trkpt>
      <trkpt lat="45.82382" lon="5.39357">
        <ele>255.4</ele>
        <time>2023-05-27T09:37:10Z</time>
      </trkpt>
      <trkpt lat="45.82387" lon="5.39355">
        <ele>255.4</ele>
        <time>2023-05-27T09:37:11Z</time>
      </trkpt>
      <trkpt lat="45.82392" lon="5.39354">
        <ele>255.6</ele>
        <time>2023-05-27T09:37:12Z</time>
      </trkpt>
      <trkpt lat="45.82396" lon="5.39352">
        <ele>255.8</ele>
        <time>2023-05-27T09:37:13Z</time>
      </trkpt>
      <trkpt lat="45.82399" lon="5.39351">
        <ele>256.2</ele>
        <time>2023-05-27T09:37:14Z</time>
      </trkpt>
      <trkpt lat="45.824" lon="5.3935">
        <ele>256.2</ele>
        <time>2023-05-27T09:37:15Z</time>
      </trkpt>
      <trkpt lat="45.82401" lon="5.39348">
        <ele>256.4</ele>
        <time>2023-05-27T09:37:16Z</time>
      </trkpt>
      <trkpt lat="45.82402" lon="5.39347">
        <ele>256.6</ele>
        <time>2023-05-27T09:37:17Z</time>
      </trkpt>
      <trkpt lat="45.82402" lon="5.39346">
        <ele>256.8</ele>
        <time>2023-05-27T09:37:18Z</time>
      </trkpt>
      <trkpt lat="45.82402" lon="5.39343">
        <ele>256.8</ele>
        <time>2023-05-27T09:37:19Z</time>
      </trkpt>
      <trkpt lat="45.82401" lon="5.39341">
        <ele>257</ele>
        <time>2023-05-27T09:37:20Z</time>
      </trkpt>
      <trkpt lat="45.82399" lon="5.39338">
        <ele>257</ele>
        <time>2023-05-27T09:37:21Z</time>
      </trkpt>
      <trkpt lat="45.82396" lon="5.39335">
        <ele>257</ele>
        <time>2023-05-27T09:37:22Z</time>
      </trkpt>
      <trkpt lat="45.82393" lon="5.39332">
        <ele>257</ele>
        <time>2023-05-27T09:37:23Z</time>
      </trkpt>
      <trkpt lat="45.8239" lon="5.39328">
        <ele>257</ele>
        <time>2023-05-27T09:37:24Z</time>
      </trkpt>
      <trkpt lat="45.82386" lon="5.39324">
        <ele>256.8</ele>
        <time>2023-05-27T09:37:25Z</time>
      </trkpt>
      <trkpt lat="45.82382" lon="5.39319">
        <ele>256.4</ele>
        <time>2023-05-27T09:37:26Z</time>
      </trkpt>
      <trkpt lat="45.82378" lon="5.39313">
        <ele>256.4</ele>
        <time>2023-05-27T09:37:27Z</time>
      </trkpt>
      <trkpt lat="45.82374" lon="5.39308">
        <ele>256.2</ele>
        <time>2023-05-27T09:37:28Z</time>
      </trkpt>
      <trkpt lat="45.82371" lon="5.39303">
        <ele>256</ele>
        <time>2023-05-27T09:37:29Z</time>
      </trkpt>
      <trkpt lat="45.82367" lon="5.39297">
        <ele>256</ele>
        <time>2023-05-27T09:37:30Z</time>
      </trkpt>
      <trkpt lat="45.82363" lon="5.39292">
        <ele>255.8</ele>
        <time>2023-05-27T09:37:31Z</time>
      </trkpt>
      <trkpt lat="45.82359" lon="5.39287">
        <ele>255.6</ele>
        <time>2023-05-27T09:37:32Z</time>
      </trkpt>
      <trkpt lat="45.82355" lon="5.39282">
        <ele>255.4</ele>
        <time>2023-05-27T09:37:33Z</time>
      </trkpt>
      <trkpt lat="45.8235" lon="5.39276">
        <ele>255.2</ele>
        <time>2023-05-27T09:37:34Z</time>
      </trkpt>
      <trkpt lat="45.82346" lon="5.3927">
        <ele>255.2</ele>
        <time>2023-05-27T09:37:35Z</time>
      </trkpt>
      <trkpt lat="45.82342" lon="5.39264">
        <ele>255</ele>
        <time>2023-05-27T09:37:36Z</time>
      </trkpt>
      <trkpt lat="45.82338" lon="5.39258">
        <ele>255</ele>
        <time>2023-05-27T09:37:37Z</time>
      </trkpt>
      <trkpt lat="45.82333" lon="5.39251">
        <ele>255</ele>
        <time>2023-05-27T09:37:38Z</time>
      </trkpt>
      <trkpt lat="45.82329" lon="5.39245">
        <ele>255</ele>
        <time>2023-05-27T09:37:39Z</time>
      </trkpt>
      <trkpt lat="45.82325" lon="5.39238">
        <ele>255</ele>
        <time>2023-05-27T09:37:40Z</time>
      </trkpt>
      <trkpt lat="45.8232" lon="5.39232">
        <ele>255</ele>
        <time>2023-05-27T09:37:41Z</time>
      </trkpt>
      <trkpt lat="45.82316" lon="5.39225">
        <ele>254.8</ele>
        <time>2023-05-27T09:37:42Z</time>
      </trkpt>
      <trkpt lat="45.82311" lon="5.39218">
        <ele>254.8</ele>
        <time>2023-05-27T09:37:43Z</time>
      </trkpt>
      <trkpt lat="45.82307" lon="5.39211">
        <ele>254.8</ele>
        <time>2023-05-27T09:37:44Z</time>
      </trkpt>
      <trkpt lat="45.82302" lon="5.39204">
        <ele>254.8</ele>
        <time>2023-05-27T09:37:45Z</time>
      </trkpt>
      <trkpt lat="45.82298" lon="5.39196">
        <ele>254.8</ele>
        <time>2023-05-27T09:37:46Z</time>
      </trkpt>
      <trkpt lat="45.82294" lon="5.39188">
        <ele>254.8</ele>
        <time>2023-05-27T09:37:47Z</time>
      </trkpt>
      <trkpt lat="45.82289" lon="5.3918">
        <ele>254.6</ele>
        <time>2023-05-27T09:37:48Z</time>
      </trkpt>
      <trkpt lat="45.82285" lon="5.39172">
        <ele>254.6</ele>
        <time>2023-05-27T09:37:49Z</time>
      </trkpt>
      <trkpt lat="45.82281" lon="5.39164">
        <ele>254.6</ele>
        <time>2023-05-27T09:37:50Z</time>
      </trkpt>
      <trkpt lat="45.82276" lon="5.39156">
        <ele>254.6</ele>
        <time>2023-05-27T09:37:51Z</time>
      </trkpt>
      <trkpt lat="45.8227" lon="5.39145">
        <ele>254.6</ele>
        <time>2023-05-27T09:37:52Z</time>
      </trkpt>
      <trkpt lat="45.82267" lon="5.39138">
        <ele>254.4</ele>
        <time>2023-05-27T09:37:53Z</time>
      </trkpt>
      <trkpt lat="45.82262" lon="5.39128">
        <ele>254.2</ele>
        <time>2023-05-27T09:37:54Z</time>
      </trkpt>
      <trkpt lat="45.82257" lon="5.39119">
        <ele>254</ele>
        <time>2023-05-27T09:37:55Z</time>
      </trkpt>
      <trkpt lat="45.82252" lon="5.3911">
        <ele>253.8</ele>
        <time>2023-05-27T09:37:56Z</time>
      </trkpt>
      <trkpt lat="45.82248" lon="5.391">
        <ele>253.8</ele>
        <time>2023-05-27T09:37:57Z</time>
      </trkpt>
      <trkpt lat="45.82243" lon="5.39091">
        <ele>253.6</ele>
        <time>2023-05-27T09:37:58Z</time>
      </trkpt>
      <trkpt lat="45.82239" lon="5.39082">
        <ele>253.6</ele>
        <time>2023-05-27T09:37:59Z</time>
      </trkpt>
      <trkpt lat="45.82233" lon="5.39071">
        <ele>253.6</ele>
        <time>2023-05-27T09:38:00Z</time>
      </trkpt>
      <trkpt lat="45.82229" lon="5.39063">
        <ele>253.6</ele>
        <time>2023-05-27T09:38:01Z</time>
      </trkpt>
      <trkpt lat="45.82224" lon="5.39054">
        <ele>253.4</ele>
        <time>2023-05-27T09:38:02Z</time>
      </trkpt>
      <trkpt lat="45.82219" lon="5.39044">
        <ele>253.4</ele>
        <time>2023-05-27T09:38:03Z</time>
      </trkpt>
      <trkpt lat="45.82214" lon="5.39035">
        <ele>253.2</ele>
        <time>2023-05-27T09:38:04Z</time>
      </trkpt>
      <trkpt lat="45.82208" lon="5.39026">
        <ele>253.2</ele>
        <time>2023-05-27T09:38:05Z</time>
      </trkpt>
      <trkpt lat="45.82202" lon="5.39017">
        <ele>253.2</ele>
        <time>2023-05-27T09:38:06Z</time>
      </trkpt>
      <trkpt lat="45.82196" lon="5.39009">
        <ele>253</ele>
        <time>2023-05-27T09:38:07Z</time>
      </trkpt>
      <trkpt lat="45.82189" lon="5.39001">
        <ele>252.8</ele>
        <time>2023-05-27T09:38:08Z</time>
      </trkpt>
      <trkpt lat="45.82183" lon="5.38992">
        <ele>252.6</ele>
        <time>2023-05-27T09:38:09Z</time>
      </trkpt>
      <trkpt lat="45.82177" lon="5.38984">
        <ele>252.2</ele>
        <time>2023-05-27T09:38:10Z</time>
      </trkpt>
      <trkpt lat="45.82171" lon="5.38976">
        <ele>252</ele>
        <time>2023-05-27T09:38:11Z</time>
      </trkpt>
      <trkpt lat="45.82166" lon="5.38968">
        <ele>251.8</ele>
        <time>2023-05-27T09:38:12Z</time>
      </trkpt>
      <trkpt lat="45.8216" lon="5.3896">
        <ele>251.6</ele>
        <time>2023-05-27T09:38:13Z</time>
      </trkpt>
      <trkpt lat="45.82155" lon="5.38953">
        <ele>251.4</ele>
        <time>2023-05-27T09:38:14Z</time>
      </trkpt>
      <trkpt lat="45.8215" lon="5.38945">
        <ele>251.4</ele>
        <time>2023-05-27T09:38:15Z</time>
      </trkpt>
      <trkpt lat="45.82145" lon="5.38937">
        <ele>251.4</ele>
        <time>2023-05-27T09:38:16Z</time>
      </trkpt>
      <trkpt lat="45.82141" lon="5.38929">
        <ele>251.2</ele>
        <time>2023-05-27T09:38:17Z</time>
      </trkpt>
      <trkpt lat="45.82136" lon="5.38921">
        <ele>251.2</ele>
        <time>2023-05-27T09:38:18Z</time>
      </trkpt>
      <trkpt lat="45.82132" lon="5.38913">
        <ele>251</ele>
        <time>2023-05-27T09:38:19Z</time>
      </trkpt>
      <trkpt lat="45.82128" lon="5.38905">
        <ele>251</ele>
        <time>2023-05-27T09:38:20Z</time>
      </trkpt>
      <trkpt lat="45.82122" lon="5.38897">
        <ele>250.8</ele>
        <time>2023-05-27T09:38:21Z</time>
      </trkpt>
      <trkpt lat="45.82119" lon="5.38891">
        <ele>250.8</ele>
        <time>2023-05-27T09:38:22Z</time>
      </trkpt>
      <trkpt lat="45.82115" lon="5.38883">
        <ele>250.6</ele>
        <time>2023-05-27T09:38:23Z</time>
      </trkpt>
      <trkpt lat="45.8211" lon="5.38876">
        <ele>250.6</ele>
        <time>2023-05-27T09:38:24Z</time>
      </trkpt>
      <trkpt lat="45.82106" lon="5.3887">
        <ele>250.6</ele>
        <time>2023-05-27T09:38:25Z</time>
      </trkpt>
      <trkpt lat="45.82102" lon="5.38863">
        <ele>250.6</ele>
        <time>2023-05-27T09:38:26Z</time>
      </trkpt>
      <trkpt lat="45.82097" lon="5.38856">
        <ele>250.6</ele>
        <time>2023-05-27T09:38:27Z</time>
      </trkpt>
      <trkpt lat="45.82094" lon="5.38851">
        <ele>250.4</ele>
        <time>2023-05-27T09:38:28Z</time>
      </trkpt>
      <trkpt lat="45.8209" lon="5.38846">
        <ele>250.4</ele>
        <time>2023-05-27T09:38:29Z</time>
      </trkpt>
      <trkpt lat="45.82087" lon="5.38841">
        <ele>250.4</ele>
        <time>2023-05-27T09:38:30Z</time>
      </trkpt>
      <trkpt lat="45.82084" lon="5.38837">
        <ele>250.4</ele>
        <time>2023-05-27T09:38:31Z</time>
      </trkpt>
      <trkpt lat="45.82083" lon="5.38834">
        <ele>250.2</ele>
        <time>2023-05-27T09:38:32Z</time>
      </trkpt>
      <trkpt lat="45.82081" lon="5.38832">
        <ele>250.2</ele>
        <time>2023-05-27T09:38:33Z</time>
      </trkpt>
      <trkpt lat="45.8208" lon="5.38831">
        <ele>250.2</ele>
        <time>2023-05-27T09:38:34Z</time>
      </trkpt>
      <trkpt lat="45.82079" lon="5.38831">
        <ele>250.2</ele>
        <time>2023-05-27T09:38:35Z</time>
      </trkpt>
      <trkpt lat="45.82077" lon="5.38832">
        <ele>250</ele>
        <time>2023-05-27T09:38:36Z</time>
      </trkpt>
      <trkpt lat="45.82075" lon="5.38833">
        <ele>250</ele>
        <time>2023-05-27T09:38:37Z</time>
      </trkpt>
      <trkpt lat="45.82073" lon="5.38834">
        <ele>250</ele>
        <time>2023-05-27T09:38:38Z</time>
      </trkpt>
      <trkpt lat="45.8207" lon="5.38836">
        <ele>250</ele>
        <time>2023-05-27T09:38:39Z</time>
      </trkpt>
      <trkpt lat="45.82066" lon="5.38838">
        <ele>250</ele>
        <time>2023-05-27T09:38:40Z</time>
      </trkpt>
      <trkpt lat="45.82062" lon="5.38839">
        <ele>250</ele>
        <time>2023-05-27T09:38:41Z</time>
      </trkpt>
      <trkpt lat="45.82059" lon="5.3884">
        <ele>249.8</ele>
        <time>2023-05-27T09:38:42Z</time>
      </trkpt>
      <trkpt lat="45.82057" lon="5.38839">
        <ele>249.6</ele>
        <time>2023-05-27T09:38:43Z</time>
      </trkpt>
      <trkpt lat="45.82055" lon="5.38838">
        <ele>249.4</ele>
        <time>2023-05-27T09:38:44Z</time>
      </trkpt>
      <trkpt lat="45.82052" lon="5.38835">
        <ele>249.2</ele>
        <time>2023-05-27T09:38:45Z</time>
      </trkpt>
      <trkpt lat="45.82049" lon="5.38831">
        <ele>249</ele>
        <time>2023-05-27T09:38:46Z</time>
      </trkpt>
      <trkpt lat="45.82047" lon="5.38827">
        <ele>248.8</ele>
        <time>2023-05-27T09:38:47Z</time>
      </trkpt>
      <trkpt lat="45.82045" lon="5.38822">
        <ele>248.8</ele>
        <time>2023-05-27T09:38:48Z</time>
      </trkpt>
      <trkpt lat="45.82042" lon="5.38815">
        <ele>248.6</ele>
        <time>2023-05-27T09:38:49Z</time>
      </trkpt>
      <trkpt lat="45.8204" lon="5.3881">
        <ele>248.6</ele>
        <time>2023-05-27T09:38:50Z</time>
      </trkpt>
      <trkpt lat="45.82037" lon="5.38804">
        <ele>248.4</ele>
        <time>2023-05-27T09:38:51Z</time>
      </trkpt>
      <trkpt lat="45.82034" lon="5.38799">
        <ele>248.4</ele>
        <time>2023-05-27T09:38:52Z</time>
      </trkpt>
      <trkpt lat="45.82031" lon="5.38793">
        <ele>248.4</ele>
        <time>2023-05-27T09:38:53Z</time>
      </trkpt>
      <trkpt lat="45.82028" lon="5.38785">
        <ele>248.4</ele>
        <time>2023-05-27T09:38:54Z</time>
      </trkpt>
      <trkpt lat="45.82025" lon="5.38779">
        <ele>248.4</ele>
        <time>2023-05-27T09:38:55Z</time>
      </trkpt>
      <trkpt lat="45.82022" lon="5.38772">
        <ele>248.2</ele>
        <time>2023-05-27T09:38:56Z</time>
      </trkpt>
      <trkpt lat="45.82019" lon="5.38765">
        <ele>248.2</ele>
        <time>2023-05-27T09:38:57Z</time>
      </trkpt>
      <trkpt lat="45.82016" lon="5.38757">
        <ele>248.2</ele>
        <time>2023-05-27T09:38:58Z</time>
      </trkpt>
      <trkpt lat="45.82012" lon="5.38749">
        <ele>248.4</ele>
        <time>2023-05-27T09:38:59Z</time>
      </trkpt>
      <trkpt lat="45.82009" lon="5.38742">
        <ele>248.4</ele>
        <time>2023-05-27T09:39:00Z</time>
      </trkpt>
      <trkpt lat="45.82005" lon="5.38734">
        <ele>248.4</ele>
        <time>2023-05-27T09:39:01Z</time>
      </trkpt>
      <trkpt lat="45.82002" lon="5.38728">
        <ele>248.6</ele>
        <time>2023-05-27T09:39:02Z</time>
      </trkpt>
      <trkpt lat="45.81999" lon="5.38719">
        <ele>248.8</ele>
        <time>2023-05-27T09:39:03Z</time>
      </trkpt>
      <trkpt lat="45.81996" lon="5.38711">
        <ele>248.8</ele>
        <time>2023-05-27T09:39:04Z</time>
      </trkpt>
      <trkpt lat="45.81992" lon="5.38702">
        <ele>248.8</ele>
        <time>2023-05-27T09:39:05Z</time>
      </trkpt>
      <trkpt lat="45.81988" lon="5.38691">
        <ele>248.8</ele>
        <time>2023-05-27T09:39:06Z</time>
      </trkpt>
      <trkpt lat="45.81986" lon="5.38684">
        <ele>249</ele>
        <time>2023-05-27T09:39:07Z</time>
      </trkpt>
      <trkpt lat="45.81983" lon="5.38675">
        <ele>249</ele>
        <time>2023-05-27T09:39:08Z</time>
      </trkpt>
      <trkpt lat="45.8198" lon="5.38665">
        <ele>249.2</ele>
        <time>2023-05-27T09:39:09Z</time>
      </trkpt>
      <trkpt lat="45.81977" lon="5.38654">
        <ele>249.2</ele>
        <time>2023-05-27T09:39:10Z</time>
      </trkpt>
      <trkpt lat="45.81975" lon="5.38647">
        <ele>249.2</ele>
        <time>2023-05-27T09:39:11Z</time>
      </trkpt>
      <trkpt lat="45.81973" lon="5.38637">
        <ele>249.4</ele>
        <time>2023-05-27T09:39:12Z</time>
      </trkpt>
      <trkpt lat="45.81971" lon="5.38627">
        <ele>249.4</ele>
        <time>2023-05-27T09:39:13Z</time>
      </trkpt>
      <trkpt lat="45.81968" lon="5.38617">
        <ele>249.8</ele>
        <time>2023-05-27T09:39:14Z</time>
      </trkpt>
      <trkpt lat="45.81966" lon="5.38607">
        <ele>249.8</ele>
        <time>2023-05-27T09:39:15Z</time>
      </trkpt>
      <trkpt lat="45.81964" lon="5.38596">
        <ele>250</ele>
        <time>2023-05-27T09:39:16Z</time>
      </trkpt>
      <trkpt lat="45.81962" lon="5.38586">
        <ele>250.2</ele>
        <time>2023-05-27T09:39:17Z</time>
      </trkpt>
      <trkpt lat="45.81959" lon="5.38576">
        <ele>250.2</ele>
        <time>2023-05-27T09:39:18Z</time>
      </trkpt>
      <trkpt lat="45.81957" lon="5.38565">
        <ele>250.2</ele>
        <time>2023-05-27T09:39:19Z</time>
      </trkpt>
      <trkpt lat="45.81955" lon="5.38555">
        <ele>250.6</ele>
        <time>2023-05-27T09:39:20Z</time>
      </trkpt>
      <trkpt lat="45.81953" lon="5.38545">
        <ele>250.6</ele>
        <time>2023-05-27T09:39:21Z</time>
      </trkpt>
      <trkpt lat="45.8195" lon="5.38535">
        <ele>250.8</ele>
        <time>2023-05-27T09:39:22Z</time>
      </trkpt>
      <trkpt lat="45.81948" lon="5.38524">
        <ele>250.8</ele>
        <time>2023-05-27T09:39:23Z</time>
      </trkpt>
      <trkpt lat="45.81945" lon="5.38512">
        <ele>250.8</ele>
        <time>2023-05-27T09:39:24Z</time>
      </trkpt>
      <trkpt lat="45.81943" lon="5.38502">
        <ele>251</ele>
        <time>2023-05-27T09:39:25Z</time>
      </trkpt>
      <trkpt lat="45.81941" lon="5.38494">
        <ele>251.2</ele>
        <time>2023-05-27T09:39:26Z</time>
      </trkpt>
      <trkpt lat="45.81938" lon="5.38484">
        <ele>251.2</ele>
        <time>2023-05-27T09:39:27Z</time>
      </trkpt>
      <trkpt lat="45.81935" lon="5.38474">
        <ele>251.4</ele>
        <time>2023-05-27T09:39:28Z</time>
      </trkpt>
      <trkpt lat="45.81931" lon="5.38465">
        <ele>251.4</ele>
        <time>2023-05-27T09:39:29Z</time>
      </trkpt>
      <trkpt lat="45.81927" lon="5.38454">
        <ele>251.6</ele>
        <time>2023-05-27T09:39:30Z</time>
      </trkpt>
      <trkpt lat="45.81924" lon="5.38447">
        <ele>251.8</ele>
        <time>2023-05-27T09:39:31Z</time>
      </trkpt>
      <trkpt lat="45.8192" lon="5.38438">
        <ele>252</ele>
        <time>2023-05-27T09:39:32Z</time>
      </trkpt>
      <trkpt lat="45.81916" lon="5.3843">
        <ele>252.2</ele>
        <time>2023-05-27T09:39:33Z</time>
      </trkpt>
      <trkpt lat="45.81911" lon="5.3842">
        <ele>252.4</ele>
        <time>2023-05-27T09:39:34Z</time>
      </trkpt>
      <trkpt lat="45.81907" lon="5.38412">
        <ele>252.8</ele>
        <time>2023-05-27T09:39:35Z</time>
      </trkpt>
      <trkpt lat="45.81904" lon="5.38406">
        <ele>253</ele>
        <time>2023-05-27T09:39:36Z</time>
      </trkpt>
      <trkpt lat="45.81899" lon="5.38398">
        <ele>253.4</ele>
        <time>2023-05-27T09:39:37Z</time>
      </trkpt>
      <trkpt lat="45.81894" lon="5.38388">
        <ele>253.8</ele>
        <time>2023-05-27T09:39:38Z</time>
      </trkpt>
      <trkpt lat="45.8189" lon="5.38382">
        <ele>254</ele>
        <time>2023-05-27T09:39:39Z</time>
      </trkpt>
      <trkpt lat="45.81884" lon="5.38373">
        <ele>254.4</ele>
        <time>2023-05-27T09:39:40Z</time>
      </trkpt>
      <trkpt lat="45.8188" lon="5.38365">
        <ele>254.6</ele>
        <time>2023-05-27T09:39:41Z</time>
      </trkpt>
      <trkpt lat="45.81876" lon="5.38359">
        <ele>254.8</ele>
        <time>2023-05-27T09:39:42Z</time>
      </trkpt>
      <trkpt lat="45.8187" lon="5.3835">
        <ele>254.8</ele>
        <time>2023-05-27T09:39:43Z</time>
      </trkpt>
      <trkpt lat="45.81866" lon="5.38344">
        <ele>255</ele>
        <time>2023-05-27T09:39:44Z</time>
      </trkpt>
      <trkpt lat="45.8186" lon="5.38334">
        <ele>255</ele>
        <time>2023-05-27T09:39:45Z</time>
      </trkpt>
      <trkpt lat="45.81855" lon="5.38327">
        <ele>255.2</ele>
        <time>2023-05-27T09:39:46Z</time>
      </trkpt>
      <trkpt lat="45.81851" lon="5.3832">
        <ele>255.4</ele>
        <time>2023-05-27T09:39:47Z</time>
      </trkpt>
      <trkpt lat="45.81845" lon="5.3831">
        <ele>255.6</ele>
        <time>2023-05-27T09:39:48Z</time>
      </trkpt>
      <trkpt lat="45.81841" lon="5.38304">
        <ele>255.6</ele>
        <time>2023-05-27T09:39:49Z</time>
      </trkpt>
      <trkpt lat="45.81835" lon="5.38294">
        <ele>255.6</ele>
        <time>2023-05-27T09:39:50Z</time>
      </trkpt>
      <trkpt lat="45.8183" lon="5.38287">
        <ele>255.8</ele>
        <time>2023-05-27T09:39:51Z</time>
      </trkpt>
      <trkpt lat="45.81825" lon="5.38278">
        <ele>255.8</ele>
        <time>2023-05-27T09:39:52Z</time>
      </trkpt>
      <trkpt lat="45.8182" lon="5.3827">
        <ele>255.8</ele>
        <time>2023-05-27T09:39:53Z</time>
      </trkpt>
      <trkpt lat="45.81815" lon="5.3826">
        <ele>255.8</ele>
        <time>2023-05-27T09:39:54Z</time>
      </trkpt>
      <trkpt lat="45.81811" lon="5.38251">
        <ele>255.8</ele>
        <time>2023-05-27T09:39:55Z</time>
      </trkpt>
      <trkpt lat="45.81806" lon="5.38241">
        <ele>255.6</ele>
        <time>2023-05-27T09:39:56Z</time>
      </trkpt>
      <trkpt lat="45.81801" lon="5.38232">
        <ele>255.6</ele>
        <time>2023-05-27T09:39:57Z</time>
      </trkpt>
      <trkpt lat="45.81796" lon="5.38222">
        <ele>255.4</ele>
        <time>2023-05-27T09:39:58Z</time>
      </trkpt>
      <trkpt lat="45.81791" lon="5.38213">
        <ele>255.4</ele>
        <time>2023-05-27T09:39:59Z</time>
      </trkpt>
      <trkpt lat="45.81785" lon="5.38202">
        <ele>255.2</ele>
        <time>2023-05-27T09:40:00Z</time>
      </trkpt>
      <trkpt lat="45.81781" lon="5.38194">
        <ele>255.2</ele>
        <time>2023-05-27T09:40:01Z</time>
      </trkpt>
      <trkpt lat="45.81777" lon="5.38184">
        <ele>255.2</ele>
        <time>2023-05-27T09:40:02Z</time>
      </trkpt>
      <trkpt lat="45.81772" lon="5.38174">
        <ele>255</ele>
        <time>2023-05-27T09:40:03Z</time>
      </trkpt>
      <trkpt lat="45.81767" lon="5.38165">
        <ele>255</ele>
        <time>2023-05-27T09:40:04Z</time>
      </trkpt>
      <trkpt lat="45.81762" lon="5.38155">
        <ele>254.8</ele>
        <time>2023-05-27T09:40:05Z</time>
      </trkpt>
      <trkpt lat="45.81757" lon="5.38146">
        <ele>254.8</ele>
        <time>2023-05-27T09:40:06Z</time>
      </trkpt>
      <trkpt lat="45.81753" lon="5.38136">
        <ele>254.6</ele>
        <time>2023-05-27T09:40:07Z</time>
      </trkpt>
      <trkpt lat="45.81748" lon="5.38126">
        <ele>254.6</ele>
        <time>2023-05-27T09:40:08Z</time>
      </trkpt>
      <trkpt lat="45.81742" lon="5.38115">
        <ele>254.6</ele>
        <time>2023-05-27T09:40:09Z</time>
      </trkpt>
      <trkpt lat="45.81738" lon="5.38107">
        <ele>254.4</ele>
        <time>2023-05-27T09:40:10Z</time>
      </trkpt>
      <trkpt lat="45.81733" lon="5.38097">
        <ele>254.4</ele>
        <time>2023-05-27T09:40:11Z</time>
      </trkpt>
      <trkpt lat="45.81728" lon="5.38087">
        <ele>254.2</ele>
        <time>2023-05-27T09:40:12Z</time>
      </trkpt>
      <trkpt lat="45.81723" lon="5.38077">
        <ele>254.2</ele>
        <time>2023-05-27T09:40:13Z</time>
      </trkpt>
      <trkpt lat="45.81717" lon="5.38067">
        <ele>254.2</ele>
        <time>2023-05-27T09:40:14Z</time>
      </trkpt>
      <trkpt lat="45.81712" lon="5.38057">
        <ele>254</ele>
        <time>2023-05-27T09:40:15Z</time>
      </trkpt>
      <trkpt lat="45.81707" lon="5.38047">
        <ele>254</ele>
        <time>2023-05-27T09:40:16Z</time>
      </trkpt>
      <trkpt lat="45.81701" lon="5.38036">
        <ele>254</ele>
        <time>2023-05-27T09:40:17Z</time>
      </trkpt>
      <trkpt lat="45.81696" lon="5.38026">
        <ele>253.8</ele>
        <time>2023-05-27T09:40:18Z</time>
      </trkpt>
      <trkpt lat="45.81691" lon="5.38016">
        <ele>253.8</ele>
        <time>2023-05-27T09:40:19Z</time>
      </trkpt>
      <trkpt lat="45.81686" lon="5.38006">
        <ele>253.8</ele>
        <time>2023-05-27T09:40:20Z</time>
      </trkpt>
      <trkpt lat="45.81681" lon="5.37995">
        <ele>254</ele>
        <time>2023-05-27T09:40:21Z</time>
      </trkpt>
      <trkpt lat="45.81675" lon="5.37985">
        <ele>253.8</ele>
        <time>2023-05-27T09:40:22Z</time>
      </trkpt>
      <trkpt lat="45.8167" lon="5.37975">
        <ele>253.8</ele>
        <time>2023-05-27T09:40:23Z</time>
      </trkpt>
      <trkpt lat="45.81665" lon="5.37965">
        <ele>253.8</ele>
        <time>2023-05-27T09:40:24Z</time>
      </trkpt>
      <trkpt lat="45.8166" lon="5.37955">
        <ele>253.8</ele>
        <time>2023-05-27T09:40:25Z</time>
      </trkpt>
      <trkpt lat="45.81655" lon="5.37945">
        <ele>253.8</ele>
        <time>2023-05-27T09:40:26Z</time>
      </trkpt>
      <trkpt lat="45.8165" lon="5.37936">
        <ele>253.6</ele>
        <time>2023-05-27T09:40:27Z</time>
      </trkpt>
      <trkpt lat="45.81645" lon="5.37926">
        <ele>253.6</ele>
        <time>2023-05-27T09:40:28Z</time>
      </trkpt>
      <trkpt lat="45.8164" lon="5.37917">
        <ele>253.6</ele>
        <time>2023-05-27T09:40:29Z</time>
      </trkpt>
      <trkpt lat="45.81634" lon="5.37906">
        <ele>253.6</ele>
        <time>2023-05-27T09:40:30Z</time>
      </trkpt>
      <trkpt lat="45.8163" lon="5.37898">
        <ele>253.6</ele>
        <time>2023-05-27T09:40:31Z</time>
      </trkpt>
      <trkpt lat="45.81625" lon="5.3789">
        <ele>253.6</ele>
        <time>2023-05-27T09:40:32Z</time>
      </trkpt>
      <trkpt lat="45.8162" lon="5.37881">
        <ele>253.6</ele>
        <time>2023-05-27T09:40:33Z</time>
      </trkpt>
      <trkpt lat="45.81614" lon="5.37872">
        <ele>253.6</ele>
        <time>2023-05-27T09:40:34Z</time>
      </trkpt>
      <trkpt lat="45.81609" lon="5.37864">
        <ele>253.6</ele>
        <time>2023-05-27T09:40:35Z</time>
      </trkpt>
      <trkpt lat="45.81603" lon="5.37855">
        <ele>253.6</ele>
        <time>2023-05-27T09:40:36Z</time>
      </trkpt>
      <trkpt lat="45.81598" lon="5.37848">
        <ele>253.6</ele>
        <time>2023-05-27T09:40:37Z</time>
      </trkpt>
      <trkpt lat="45.81592" lon="5.3784">
        <ele>253.4</ele>
        <time>2023-05-27T09:40:38Z</time>
      </trkpt>
      <trkpt lat="45.81586" lon="5.37833">
        <ele>253.4</ele>
        <time>2023-05-27T09:40:39Z</time>
      </trkpt>
      <trkpt lat="45.8158" lon="5.37825">
        <ele>253.4</ele>
        <time>2023-05-27T09:40:40Z</time>
      </trkpt>
      <trkpt lat="45.81574" lon="5.37818">
        <ele>253.4</ele>
        <time>2023-05-27T09:40:41Z</time>
      </trkpt>
      <trkpt lat="45.81568" lon="5.37811">
        <ele>253.4</ele>
        <time>2023-05-27T09:40:42Z</time>
      </trkpt>
      <trkpt lat="45.81563" lon="5.37804">
        <ele>253.4</ele>
        <time>2023-05-27T09:40:43Z</time>
      </trkpt>
      <trkpt lat="45.81557" lon="5.37797">
        <ele>253.4</ele>
        <time>2023-05-27T09:40:44Z</time>
      </trkpt>
      <trkpt lat="45.81552" lon="5.3779">
        <ele>253.4</ele>
        <time>2023-05-27T09:40:45Z</time>
      </trkpt>
      <trkpt lat="45.81546" lon="5.37784">
        <ele>253.4</ele>
        <time>2023-05-27T09:40:46Z</time>
      </trkpt>
      <trkpt lat="45.8154" lon="5.37777">
        <ele>253.4</ele>
        <time>2023-05-27T09:40:47Z</time>
      </trkpt>
      <trkpt lat="45.81534" lon="5.37771">
        <ele>253.6</ele>
        <time>2023-05-27T09:40:48Z</time>
      </trkpt>
      <trkpt lat="45.81527" lon="5.37762">
        <ele>253.6</ele>
        <time>2023-05-27T09:40:49Z</time>
      </trkpt>
      <trkpt lat="45.81521" lon="5.37756">
        <ele>253.6</ele>
        <time>2023-05-27T09:40:50Z</time>
      </trkpt>
      <trkpt lat="45.81517" lon="5.37751">
        <ele>253.8</ele>
        <time>2023-05-27T09:40:51Z</time>
      </trkpt>
      <trkpt lat="45.81511" lon="5.37746">
        <ele>254</ele>
        <time>2023-05-27T09:40:52Z</time>
      </trkpt>
      <trkpt lat="45.81505" lon="5.3774">
        <ele>254.2</ele>
        <time>2023-05-27T09:40:53Z</time>
      </trkpt>
      <trkpt lat="45.815" lon="5.37733">
        <ele>254.2</ele>
        <time>2023-05-27T09:40:54Z</time>
      </trkpt>
      <trkpt lat="45.81494" lon="5.37726">
        <ele>254.8</ele>
        <time>2023-05-27T09:40:55Z</time>
      </trkpt>
      <trkpt lat="45.81489" lon="5.37719">
        <ele>255.2</ele>
        <time>2023-05-27T09:40:56Z</time>
      </trkpt>
      <trkpt lat="45.81482" lon="5.37711">
        <ele>255.2</ele>
        <time>2023-05-27T09:40:57Z</time>
      </trkpt>
      <trkpt lat="45.81478" lon="5.37705">
        <ele>255.6</ele>
        <time>2023-05-27T09:40:58Z</time>
      </trkpt>
      <trkpt lat="45.81471" lon="5.37697">
        <ele>255.8</ele>
        <time>2023-05-27T09:40:59Z</time>
      </trkpt>
      <trkpt lat="45.81467" lon="5.37691">
        <ele>255.8</ele>
        <time>2023-05-27T09:41:00Z</time>
      </trkpt>
      <trkpt lat="45.81462" lon="5.37684">
        <ele>256</ele>
        <time>2023-05-27T09:41:01Z</time>
      </trkpt>
      <trkpt lat="45.81456" lon="5.37676">
        <ele>256.2</ele>
        <time>2023-05-27T09:41:02Z</time>
      </trkpt>
      <trkpt lat="45.81451" lon="5.37669">
        <ele>256.2</ele>
        <time>2023-05-27T09:41:03Z</time>
      </trkpt>
      <trkpt lat="45.81445" lon="5.37662">
        <ele>256.4</ele>
        <time>2023-05-27T09:41:04Z</time>
      </trkpt>
      <trkpt lat="45.8144" lon="5.37655">
        <ele>256.4</ele>
        <time>2023-05-27T09:41:05Z</time>
      </trkpt>
      <trkpt lat="45.81434" lon="5.37648">
        <ele>256.4</ele>
        <time>2023-05-27T09:41:06Z</time>
      </trkpt>
      <trkpt lat="45.81428" lon="5.3764">
        <ele>256.4</ele>
        <time>2023-05-27T09:41:07Z</time>
      </trkpt>
      <trkpt lat="45.81423" lon="5.37633">
        <ele>256.4</ele>
        <time>2023-05-27T09:41:08Z</time>
      </trkpt>
      <trkpt lat="45.81417" lon="5.37625">
        <ele>256.6</ele>
        <time>2023-05-27T09:41:09Z</time>
      </trkpt>
      <trkpt lat="45.81411" lon="5.37618">
        <ele>256.6</ele>
        <time>2023-05-27T09:41:10Z</time>
      </trkpt>
      <trkpt lat="45.81405" lon="5.3761">
        <ele>256.6</ele>
        <time>2023-05-27T09:41:11Z</time>
      </trkpt>
      <trkpt lat="45.81399" lon="5.37603">
        <ele>256.8</ele>
        <time>2023-05-27T09:41:12Z</time>
      </trkpt>
      <trkpt lat="45.81393" lon="5.37595">
        <ele>256.8</ele>
        <time>2023-05-27T09:41:13Z</time>
      </trkpt>
      <trkpt lat="45.81387" lon="5.37587">
        <ele>256.8</ele>
        <time>2023-05-27T09:41:14Z</time>
      </trkpt>
      <trkpt lat="45.8138" lon="5.37579">
        <ele>256.8</ele>
        <time>2023-05-27T09:41:15Z</time>
      </trkpt>
      <trkpt lat="45.81374" lon="5.37571">
        <ele>256.8</ele>
        <time>2023-05-27T09:41:16Z</time>
      </trkpt>
      <trkpt lat="45.81368" lon="5.37563">
        <ele>256.8</ele>
        <time>2023-05-27T09:41:17Z</time>
      </trkpt>
      <trkpt lat="45.81361" lon="5.37555">
        <ele>256.8</ele>
        <time>2023-05-27T09:41:18Z</time>
      </trkpt>
      <trkpt lat="45.81355" lon="5.37547">
        <ele>256.8</ele>
        <time>2023-05-27T09:41:19Z</time>
      </trkpt>
      <trkpt lat="45.81348" lon="5.37538">
        <ele>256.8</ele>
        <time>2023-05-27T09:41:20Z</time>
      </trkpt>
      <trkpt lat="45.81342" lon="5.3753">
        <ele>256.8</ele>
        <time>2023-05-27T09:41:21Z</time>
      </trkpt>
      <trkpt lat="45.81336" lon="5.37522">
        <ele>256.8</ele>
        <time>2023-05-27T09:41:22Z</time>
      </trkpt>
      <trkpt lat="45.8133" lon="5.37514">
        <ele>256.8</ele>
        <time>2023-05-27T09:41:23Z</time>
      </trkpt>
      <trkpt lat="45.81324" lon="5.37506">
        <ele>256.8</ele>
        <time>2023-05-27T09:41:24Z</time>
      </trkpt>
      <trkpt lat="45.81319" lon="5.37497">
        <ele>256.8</ele>
        <time>2023-05-27T09:41:25Z</time>
      </trkpt>
      <trkpt lat="45.81313" lon="5.37488">
        <ele>256.8</ele>
        <time>2023-05-27T09:41:26Z</time>
      </trkpt>
      <trkpt lat="45.81308" lon="5.37479">
        <ele>257</ele>
        <time>2023-05-27T09:41:27Z</time>
      </trkpt>
      <trkpt lat="45.81303" lon="5.37469">
        <ele>257</ele>
        <time>2023-05-27T09:41:28Z</time>
      </trkpt>
      <trkpt lat="45.81299" lon="5.3746">
        <ele>257</ele>
        <time>2023-05-27T09:41:29Z</time>
      </trkpt>
      <trkpt lat="45.81295" lon="5.3745">
        <ele>257</ele>
        <time>2023-05-27T09:41:30Z</time>
      </trkpt>
      <trkpt lat="45.8129" lon="5.37441">
        <ele>257</ele>
        <time>2023-05-27T09:41:31Z</time>
      </trkpt>
      <trkpt lat="45.81286" lon="5.37431">
        <ele>257</ele>
        <time>2023-05-27T09:41:32Z</time>
      </trkpt>
      <trkpt lat="45.81282" lon="5.37422">
        <ele>257</ele>
        <time>2023-05-27T09:41:33Z</time>
      </trkpt>
      <trkpt lat="45.81279" lon="5.37412">
        <ele>257</ele>
        <time>2023-05-27T09:41:34Z</time>
      </trkpt>
      <trkpt lat="45.81275" lon="5.37402">
        <ele>257</ele>
        <time>2023-05-27T09:41:35Z</time>
      </trkpt>
      <trkpt lat="45.81272" lon="5.37392">
        <ele>257</ele>
        <time>2023-05-27T09:41:36Z</time>
      </trkpt>
      <trkpt lat="45.81268" lon="5.37383">
        <ele>257</ele>
        <time>2023-05-27T09:41:37Z</time>
      </trkpt>
      <trkpt lat="45.81264" lon="5.37374">
        <ele>257</ele>
        <time>2023-05-27T09:41:38Z</time>
      </trkpt>
      <trkpt lat="45.8126" lon="5.37364">
        <ele>257</ele>
        <time>2023-05-27T09:41:39Z</time>
      </trkpt>
      <trkpt lat="45.81257" lon="5.37355">
        <ele>257</ele>
        <time>2023-05-27T09:41:40Z</time>
      </trkpt>
      <trkpt lat="45.81255" lon="5.37345">
        <ele>256.8</ele>
        <time>2023-05-27T09:41:41Z</time>
      </trkpt>
      <trkpt lat="45.81252" lon="5.37336">
        <ele>256.8</ele>
        <time>2023-05-27T09:41:42Z</time>
      </trkpt>
      <trkpt lat="45.81248" lon="5.37327">
        <ele>256.8</ele>
        <time>2023-05-27T09:41:43Z</time>
      </trkpt>
      <trkpt lat="45.81243" lon="5.3732">
        <ele>256.8</ele>
        <time>2023-05-27T09:41:44Z</time>
      </trkpt>
      <trkpt lat="45.8123" lon="5.37308">
        <ele>256.8</ele>
        <time>2023-05-27T09:41:46Z</time>
      </trkpt>
      <trkpt lat="45.81216" lon="5.37293">
        <ele>256.8</ele>
        <time>2023-05-27T09:41:48Z</time>
      </trkpt>
      <trkpt lat="45.81204" lon="5.3728">
        <ele>257</ele>
        <time>2023-05-27T09:41:50Z</time>
      </trkpt>
      <trkpt lat="45.81196" lon="5.37271">
        <ele>257.4</ele>
        <time>2023-05-27T09:41:51Z</time>
      </trkpt>
      <trkpt lat="45.81191" lon="5.37265">
        <ele>257.4</ele>
        <time>2023-05-27T09:41:52Z</time>
      </trkpt>
      <trkpt lat="45.81183" lon="5.37257">
        <ele>257.4</ele>
        <time>2023-05-27T09:41:53Z</time>
      </trkpt>
      <trkpt lat="45.81178" lon="5.37251">
        <ele>257.4</ele>
        <time>2023-05-27T09:41:54Z</time>
      </trkpt>
      <trkpt lat="45.81164" lon="5.37236">
        <ele>257.4</ele>
        <time>2023-05-27T09:41:56Z</time>
      </trkpt>
      <trkpt lat="45.81159" lon="5.3723">
        <ele>257.4</ele>
        <time>2023-05-27T09:41:57Z</time>
      </trkpt>
      <trkpt lat="45.81153" lon="5.37224">
        <ele>257.4</ele>
        <time>2023-05-27T09:41:58Z</time>
      </trkpt>
      <trkpt lat="45.81147" lon="5.37217">
        <ele>257.4</ele>
        <time>2023-05-27T09:41:59Z</time>
      </trkpt>
      <trkpt lat="45.81133" lon="5.37202">
        <ele>257.4</ele>
        <time>2023-05-27T09:42:01Z</time>
      </trkpt>
      <trkpt lat="45.81127" lon="5.37195">
        <ele>257.4</ele>
        <time>2023-05-27T09:42:02Z</time>
      </trkpt>
      <trkpt lat="45.81121" lon="5.37189">
        <ele>257.2</ele>
        <time>2023-05-27T09:42:03Z</time>
      </trkpt>
      <trkpt lat="45.81117" lon="5.37184">
        <ele>257.2</ele>
        <time>2023-05-27T09:42:04Z</time>
      </trkpt>
      <trkpt lat="45.81106" lon="5.3717">
        <ele>257</ele>
        <time>2023-05-27T09:42:06Z</time>
      </trkpt>
      <trkpt lat="45.81099" lon="5.37163">
        <ele>256.8</ele>
        <time>2023-05-27T09:42:07Z</time>
      </trkpt>
      <trkpt lat="45.81089" lon="5.37152">
        <ele>256.8</ele>
        <time>2023-05-27T09:42:09Z</time>
      </trkpt>
      <trkpt lat="45.81083" lon="5.37146">
        <ele>256.8</ele>
        <time>2023-05-27T09:42:10Z</time>
      </trkpt>
      <trkpt lat="45.81078" lon="5.3714">
        <ele>256.8</ele>
        <time>2023-05-27T09:42:11Z</time>
      </trkpt>
      <trkpt lat="45.81067" lon="5.37128">
        <ele>256.8</ele>
        <time>2023-05-27T09:42:13Z</time>
      </trkpt>
      <trkpt lat="45.81062" lon="5.37123">
        <ele>257</ele>
        <time>2023-05-27T09:42:14Z</time>
      </trkpt>
      <trkpt lat="45.81052" lon="5.37112">
        <ele>257</ele>
        <time>2023-05-27T09:42:16Z</time>
      </trkpt>
      <trkpt lat="45.81047" lon="5.37107">
        <ele>257</ele>
        <time>2023-05-27T09:42:17Z</time>
      </trkpt>
      <trkpt lat="45.81043" lon="5.37102">
        <ele>257.2</ele>
        <time>2023-05-27T09:42:18Z</time>
      </trkpt>
      <trkpt lat="45.8104" lon="5.37096">
        <ele>257.2</ele>
        <time>2023-05-27T09:42:19Z</time>
      </trkpt>
      <trkpt lat="45.81037" lon="5.37088">
        <ele>257.2</ele>
        <time>2023-05-27T09:42:20Z</time>
      </trkpt>
      <trkpt lat="45.81034" lon="5.37073">
        <ele>257.4</ele>
        <time>2023-05-27T09:42:22Z</time>
      </trkpt>
      <trkpt lat="45.81033" lon="5.37066">
        <ele>257.4</ele>
        <time>2023-05-27T09:42:23Z</time>
      </trkpt>
      <trkpt lat="45.81032" lon="5.37058">
        <ele>257.4</ele>
        <time>2023-05-27T09:42:24Z</time>
      </trkpt>
      <trkpt lat="45.81027" lon="5.37041">
        <ele>257.6</ele>
        <time>2023-05-27T09:42:26Z</time>
      </trkpt>
      <trkpt lat="45.81023" lon="5.37033">
        <ele>257.6</ele>
        <time>2023-05-27T09:42:27Z</time>
      </trkpt>
      <trkpt lat="45.81019" lon="5.37026">
        <ele>257.6</ele>
        <time>2023-05-27T09:42:28Z</time>
      </trkpt>
      <trkpt lat="45.81008" lon="5.37012">
        <ele>257.8</ele>
        <time>2023-05-27T09:42:30Z</time>
      </trkpt>
      <trkpt lat="45.81003" lon="5.3701">
        <ele>257.8</ele>
        <time>2023-05-27T09:42:31Z</time>
      </trkpt>
      <trkpt lat="45.8099" lon="5.37006">
        <ele>258</ele>
        <time>2023-05-27T09:42:33Z</time>
      </trkpt>
      <trkpt lat="45.80983" lon="5.37004">
        <ele>258</ele>
        <time>2023-05-27T09:42:34Z</time>
      </trkpt>
      <trkpt lat="45.80976" lon="5.37003">
        <ele>258</ele>
        <time>2023-05-27T09:42:35Z</time>
      </trkpt>
      <trkpt lat="45.80962" lon="5.36998">
        <ele>258.4</ele>
        <time>2023-05-27T09:42:37Z</time>
      </trkpt>
      <trkpt lat="45.80956" lon="5.36996">
        <ele>258.6</ele>
        <time>2023-05-27T09:42:38Z</time>
      </trkpt>
      <trkpt lat="45.8095" lon="5.36993">
        <ele>258.8</ele>
        <time>2023-05-27T09:42:39Z</time>
      </trkpt>
      <trkpt lat="45.80943" lon="5.3699">
        <ele>259</ele>
        <time>2023-05-27T09:42:40Z</time>
      </trkpt>
      <trkpt lat="45.80937" lon="5.36986">
        <ele>259.2</ele>
        <time>2023-05-27T09:42:41Z</time>
      </trkpt>
      <trkpt lat="45.8093" lon="5.36983">
        <ele>259.2</ele>
        <time>2023-05-27T09:42:42Z</time>
      </trkpt>
      <trkpt lat="45.80923" lon="5.36979">
        <ele>259.4</ele>
        <time>2023-05-27T09:42:43Z</time>
      </trkpt>
      <trkpt lat="45.80909" lon="5.3697">
        <ele>259.4</ele>
        <time>2023-05-27T09:42:45Z</time>
      </trkpt>
      <trkpt lat="45.80903" lon="5.36964">
        <ele>259.6</ele>
        <time>2023-05-27T09:42:46Z</time>
      </trkpt>
      <trkpt lat="45.80899" lon="5.36956">
        <ele>259.6</ele>
        <time>2023-05-27T09:42:47Z</time>
      </trkpt>
      <trkpt lat="45.80895" lon="5.36947">
        <ele>259.8</ele>
        <time>2023-05-27T09:42:48Z</time>
      </trkpt>
      <trkpt lat="45.80893" lon="5.36937">
        <ele>260</ele>
        <time>2023-05-27T09:42:49Z</time>
      </trkpt>
      <trkpt lat="45.80889" lon="5.36918">
        <ele>260.2</ele>
        <time>2023-05-27T09:42:51Z</time>
      </trkpt>
      <trkpt lat="45.80887" lon="5.36908">
        <ele>260.4</ele>
        <time>2023-05-27T09:42:52Z</time>
      </trkpt>
      <trkpt lat="45.80885" lon="5.36899">
        <ele>260.4</ele>
        <time>2023-05-27T09:42:53Z</time>
      </trkpt>
      <trkpt lat="45.80884" lon="5.36888">
        <ele>260.6</ele>
        <time>2023-05-27T09:42:54Z</time>
      </trkpt>
      <trkpt lat="45.80883" lon="5.36878">
        <ele>260.6</ele>
        <time>2023-05-27T09:42:55Z</time>
      </trkpt>
      <trkpt lat="45.80881" lon="5.36866">
        <ele>260.8</ele>
        <time>2023-05-27T09:42:56Z</time>
      </trkpt>
      <trkpt lat="45.8088" lon="5.36857">
        <ele>261</ele>
        <time>2023-05-27T09:42:57Z</time>
      </trkpt>
      <trkpt lat="45.80878" lon="5.36847">
        <ele>261.2</ele>
        <time>2023-05-27T09:42:58Z</time>
      </trkpt>
      <trkpt lat="45.80876" lon="5.36835">
        <ele>261.4</ele>
        <time>2023-05-27T09:42:59Z</time>
      </trkpt>
      <trkpt lat="45.80875" lon="5.36827">
        <ele>261.4</ele>
        <time>2023-05-27T09:43:00Z</time>
      </trkpt>
      <trkpt lat="45.80872" lon="5.36817">
        <ele>261.6</ele>
        <time>2023-05-27T09:43:01Z</time>
      </trkpt>
      <trkpt lat="45.8087" lon="5.36807">
        <ele>261.6</ele>
        <time>2023-05-27T09:43:02Z</time>
      </trkpt>
      <trkpt lat="45.80866" lon="5.36798">
        <ele>261.8</ele>
        <time>2023-05-27T09:43:03Z</time>
      </trkpt>
      <trkpt lat="45.80862" lon="5.3679">
        <ele>261.8</ele>
        <time>2023-05-27T09:43:04Z</time>
      </trkpt>
      <trkpt lat="45.80857" lon="5.36783">
        <ele>261.8</ele>
        <time>2023-05-27T09:43:05Z</time>
      </trkpt>
      <trkpt lat="45.80852" lon="5.36776">
        <ele>262</ele>
        <time>2023-05-27T09:43:06Z</time>
      </trkpt>
      <trkpt lat="45.80846" lon="5.3677">
        <ele>262</ele>
        <time>2023-05-27T09:43:07Z</time>
      </trkpt>
      <trkpt lat="45.80835" lon="5.36757">
        <ele>262</ele>
        <time>2023-05-27T09:43:09Z</time>
      </trkpt>
      <trkpt lat="45.80829" lon="5.36751">
        <ele>262</ele>
        <time>2023-05-27T09:43:10Z</time>
      </trkpt>
      <trkpt lat="45.80823" lon="5.36745">
        <ele>262</ele>
        <time>2023-05-27T09:43:11Z</time>
      </trkpt>
      <trkpt lat="45.80818" lon="5.36739">
        <ele>262</ele>
        <time>2023-05-27T09:43:12Z</time>
      </trkpt>
      <trkpt lat="45.80812" lon="5.36732">
        <ele>262</ele>
        <time>2023-05-27T09:43:13Z</time>
      </trkpt>
      <trkpt lat="45.80801" lon="5.3672">
        <ele>262.2</ele>
        <time>2023-05-27T09:43:15Z</time>
      </trkpt>
      <trkpt lat="45.80795" lon="5.36715">
        <ele>262.2</ele>
        <time>2023-05-27T09:43:16Z</time>
      </trkpt>
      <trkpt lat="45.8079" lon="5.36711">
        <ele>262.2</ele>
        <time>2023-05-27T09:43:17Z</time>
      </trkpt>
      <trkpt lat="45.80784" lon="5.36707">
        <ele>262.2</ele>
        <time>2023-05-27T09:43:18Z</time>
      </trkpt>
      <trkpt lat="45.80778" lon="5.36704">
        <ele>262.2</ele>
        <time>2023-05-27T09:43:19Z</time>
      </trkpt>
      <trkpt lat="45.80764" lon="5.36698">
        <ele>262.2</ele>
        <time>2023-05-27T09:43:21Z</time>
      </trkpt>
      <trkpt lat="45.80758" lon="5.36695">
        <ele>262.2</ele>
        <time>2023-05-27T09:43:22Z</time>
      </trkpt>
      <trkpt lat="45.80751" lon="5.36692">
        <ele>262.2</ele>
        <time>2023-05-27T09:43:23Z</time>
      </trkpt>
      <trkpt lat="45.80738" lon="5.36686">
        <ele>262.2</ele>
        <time>2023-05-27T09:43:25Z</time>
      </trkpt>
      <trkpt lat="45.8073" lon="5.36683">
        <ele>262.2</ele>
        <time>2023-05-27T09:43:26Z</time>
      </trkpt>
      <trkpt lat="45.80723" lon="5.3668">
        <ele>262.2</ele>
        <time>2023-05-27T09:43:27Z</time>
      </trkpt>
      <trkpt lat="45.80717" lon="5.36676">
        <ele>262.4</ele>
        <time>2023-05-27T09:43:28Z</time>
      </trkpt>
      <trkpt lat="45.8071" lon="5.36672">
        <ele>262.6</ele>
        <time>2023-05-27T09:43:29Z</time>
      </trkpt>
      <trkpt lat="45.80703" lon="5.36667">
        <ele>262.6</ele>
        <time>2023-05-27T09:43:30Z</time>
      </trkpt>
      <trkpt lat="45.80697" lon="5.36662">
        <ele>262.6</ele>
        <time>2023-05-27T09:43:31Z</time>
      </trkpt>
      <trkpt lat="45.8069" lon="5.36657">
        <ele>262.6</ele>
        <time>2023-05-27T09:43:32Z</time>
      </trkpt>
      <trkpt lat="45.80684" lon="5.36652">
        <ele>262.8</ele>
        <time>2023-05-27T09:43:33Z</time>
      </trkpt>
      <trkpt lat="45.80677" lon="5.36646">
        <ele>263</ele>
        <time>2023-05-27T09:43:34Z</time>
      </trkpt>
      <trkpt lat="45.8067" lon="5.36641">
        <ele>263</ele>
        <time>2023-05-27T09:43:35Z</time>
      </trkpt>
      <trkpt lat="45.80657" lon="5.36631">
        <ele>263.2</ele>
        <time>2023-05-27T09:43:37Z</time>
      </trkpt>
      <trkpt lat="45.80651" lon="5.36626">
        <ele>263.2</ele>
        <time>2023-05-27T09:43:38Z</time>
      </trkpt>
      <trkpt lat="45.80644" lon="5.36621">
        <ele>263.4</ele>
        <time>2023-05-27T09:43:39Z</time>
      </trkpt>
      <trkpt lat="45.80637" lon="5.36616">
        <ele>263.4</ele>
        <time>2023-05-27T09:43:40Z</time>
      </trkpt>
      <trkpt lat="45.8063" lon="5.36612">
        <ele>263.6</ele>
        <time>2023-05-27T09:43:41Z</time>
      </trkpt>
      <trkpt lat="45.80616" lon="5.36605">
        <ele>263.6</ele>
        <time>2023-05-27T09:43:43Z</time>
      </trkpt>
      <trkpt lat="45.80609" lon="5.36601">
        <ele>263.6</ele>
        <time>2023-05-27T09:43:44Z</time>
      </trkpt>
      <trkpt lat="45.80602" lon="5.36598">
        <ele>263.6</ele>
        <time>2023-05-27T09:43:45Z</time>
      </trkpt>
      <trkpt lat="45.80595" lon="5.36595">
        <ele>263.6</ele>
        <time>2023-05-27T09:43:46Z</time>
      </trkpt>
      <trkpt lat="45.80581" lon="5.3659">
        <ele>263.6</ele>
        <time>2023-05-27T09:43:48Z</time>
      </trkpt>
      <trkpt lat="45.80574" lon="5.36588">
        <ele>263.6</ele>
        <time>2023-05-27T09:43:49Z</time>
      </trkpt>
      <trkpt lat="45.80566" lon="5.36585">
        <ele>263.6</ele>
        <time>2023-05-27T09:43:50Z</time>
      </trkpt>
      <trkpt lat="45.80559" lon="5.36583">
        <ele>263.6</ele>
        <time>2023-05-27T09:43:51Z</time>
      </trkpt>
      <trkpt lat="45.80552" lon="5.36581">
        <ele>263.6</ele>
        <time>2023-05-27T09:43:52Z</time>
      </trkpt>
      <trkpt lat="45.80545" lon="5.36578">
        <ele>263.6</ele>
        <time>2023-05-27T09:43:53Z</time>
      </trkpt>
      <trkpt lat="45.80531" lon="5.36572">
        <ele>263.6</ele>
        <time>2023-05-27T09:43:55Z</time>
      </trkpt>
      <trkpt lat="45.80523" lon="5.36569">
        <ele>263.6</ele>
        <time>2023-05-27T09:43:56Z</time>
      </trkpt>
      <trkpt lat="45.80516" lon="5.36567">
        <ele>263.6</ele>
        <time>2023-05-27T09:43:57Z</time>
      </trkpt>
      <trkpt lat="45.80508" lon="5.36564">
        <ele>263.6</ele>
        <time>2023-05-27T09:43:58Z</time>
      </trkpt>
      <trkpt lat="45.805" lon="5.36561">
        <ele>263.6</ele>
        <time>2023-05-27T09:43:59Z</time>
      </trkpt>
      <trkpt lat="45.80493" lon="5.36557">
        <ele>263.6</ele>
        <time>2023-05-27T09:44:00Z</time>
      </trkpt>
      <trkpt lat="45.80478" lon="5.36548">
        <ele>263.8</ele>
        <time>2023-05-27T09:44:02Z</time>
      </trkpt>
      <trkpt lat="45.80471" lon="5.36542">
        <ele>263.8</ele>
        <time>2023-05-27T09:44:03Z</time>
      </trkpt>
      <trkpt lat="45.80464" lon="5.36536">
        <ele>264</ele>
        <time>2023-05-27T09:44:04Z</time>
      </trkpt>
      <trkpt lat="45.80458" lon="5.36529">
        <ele>264</ele>
        <time>2023-05-27T09:44:05Z</time>
      </trkpt>
      <trkpt lat="45.80452" lon="5.36522">
        <ele>264</ele>
        <time>2023-05-27T09:44:06Z</time>
      </trkpt>
      <trkpt lat="45.80445" lon="5.36515">
        <ele>264.2</ele>
        <time>2023-05-27T09:44:07Z</time>
      </trkpt>
      <trkpt lat="45.8044" lon="5.36507">
        <ele>264.4</ele>
        <time>2023-05-27T09:44:08Z</time>
      </trkpt>
      <trkpt lat="45.80434" lon="5.365">
        <ele>264.4</ele>
        <time>2023-05-27T09:44:09Z</time>
      </trkpt>
      <trkpt lat="45.80428" lon="5.36492">
        <ele>264.4</ele>
        <time>2023-05-27T09:44:10Z</time>
      </trkpt>
      <trkpt lat="45.80422" lon="5.36484">
        <ele>264.6</ele>
        <time>2023-05-27T09:44:11Z</time>
      </trkpt>
      <trkpt lat="45.80416" lon="5.36477">
        <ele>264.8</ele>
        <time>2023-05-27T09:44:12Z</time>
      </trkpt>
      <trkpt lat="45.80404" lon="5.36463">
        <ele>265</ele>
        <time>2023-05-27T09:44:14Z</time>
      </trkpt>
      <trkpt lat="45.80398" lon="5.36455">
        <ele>265.4</ele>
        <time>2023-05-27T09:44:15Z</time>
      </trkpt>
      <trkpt lat="45.80392" lon="5.36448">
        <ele>265.6</ele>
        <time>2023-05-27T09:44:16Z</time>
      </trkpt>
      <trkpt lat="45.80386" lon="5.36441">
        <ele>265.8</ele>
        <time>2023-05-27T09:44:17Z</time>
      </trkpt>
      <trkpt lat="45.80381" lon="5.36433">
        <ele>266</ele>
        <time>2023-05-27T09:44:18Z</time>
      </trkpt>
      <trkpt lat="45.80369" lon="5.36419">
        <ele>266.8</ele>
        <time>2023-05-27T09:44:20Z</time>
      </trkpt>
      <trkpt lat="45.80364" lon="5.36412">
        <ele>267</ele>
        <time>2023-05-27T09:44:21Z</time>
      </trkpt>
      <trkpt lat="45.80358" lon="5.36405">
        <ele>267.2</ele>
        <time>2023-05-27T09:44:22Z</time>
      </trkpt>
      <trkpt lat="45.80353" lon="5.36398">
        <ele>267.4</ele>
        <time>2023-05-27T09:44:23Z</time>
      </trkpt>
      <trkpt lat="45.80347" lon="5.36392">
        <ele>267.6</ele>
        <time>2023-05-27T09:44:24Z</time>
      </trkpt>
      <trkpt lat="45.80341" lon="5.36386">
        <ele>268</ele>
        <time>2023-05-27T09:44:25Z</time>
      </trkpt>
      <trkpt lat="45.80335" lon="5.36379">
        <ele>268</ele>
        <time>2023-05-27T09:44:26Z</time>
      </trkpt>
      <trkpt lat="45.80329" lon="5.36372">
        <ele>268.4</ele>
        <time>2023-05-27T09:44:27Z</time>
      </trkpt>
      <trkpt lat="45.80323" lon="5.36365">
        <ele>268.6</ele>
        <time>2023-05-27T09:44:28Z</time>
      </trkpt>
      <trkpt lat="45.80317" lon="5.36358">
        <ele>269.2</ele>
        <time>2023-05-27T09:44:29Z</time>
      </trkpt>
      <trkpt lat="45.8031" lon="5.3635">
        <ele>269.4</ele>
        <time>2023-05-27T09:44:30Z</time>
      </trkpt>
      <trkpt lat="45.80298" lon="5.36335">
        <ele>269.6</ele>
        <time>2023-05-27T09:44:32Z</time>
      </trkpt>
      <trkpt lat="45.80292" lon="5.36328">
        <ele>269.6</ele>
        <time>2023-05-27T09:44:33Z</time>
      </trkpt>
      <trkpt lat="45.80286" lon="5.36321">
        <ele>269.6</ele>
        <time>2023-05-27T09:44:34Z</time>
      </trkpt>
      <trkpt lat="45.8028" lon="5.36314">
        <ele>269.8</ele>
        <time>2023-05-27T09:44:35Z</time>
      </trkpt>
      <trkpt lat="45.80274" lon="5.36306">
        <ele>269.8</ele>
        <time>2023-05-27T09:44:36Z</time>
      </trkpt>
      <trkpt lat="45.80262" lon="5.36291">
        <ele>269.8</ele>
        <time>2023-05-27T09:44:38Z</time>
      </trkpt>
      <trkpt lat="45.80256" lon="5.36284">
        <ele>270.2</ele>
        <time>2023-05-27T09:44:39Z</time>
      </trkpt>
      <trkpt lat="45.80251" lon="5.36277">
        <ele>270.2</ele>
        <time>2023-05-27T09:44:40Z</time>
      </trkpt>
      <trkpt lat="45.80245" lon="5.36269">
        <ele>270.4</ele>
        <time>2023-05-27T09:44:41Z</time>
      </trkpt>
      <trkpt lat="45.80239" lon="5.36262">
        <ele>270.6</ele>
        <time>2023-05-27T09:44:42Z</time>
      </trkpt>
      <trkpt lat="45.80227" lon="5.36247">
        <ele>270.8</ele>
        <time>2023-05-27T09:44:44Z</time>
      </trkpt>
      <trkpt lat="45.80221" lon="5.3624">
        <ele>271</ele>
        <time>2023-05-27T09:44:45Z</time>
      </trkpt>
      <trkpt lat="45.80214" lon="5.36233">
        <ele>271</ele>
        <time>2023-05-27T09:44:46Z</time>
      </trkpt>
      <trkpt lat="45.80208" lon="5.36225">
        <ele>271</ele>
        <time>2023-05-27T09:44:47Z</time>
      </trkpt>
      <trkpt lat="45.80202" lon="5.36218">
        <ele>271.2</ele>
        <time>2023-05-27T09:44:48Z</time>
      </trkpt>
      <trkpt lat="45.80196" lon="5.36211">
        <ele>271.2</ele>
        <time>2023-05-27T09:44:49Z</time>
      </trkpt>
      <trkpt lat="45.8019" lon="5.36203">
        <ele>271.4</ele>
        <time>2023-05-27T09:44:50Z</time>
      </trkpt>
      <trkpt lat="45.80184" lon="5.36196">
        <ele>271.4</ele>
        <time>2023-05-27T09:44:51Z</time>
      </trkpt>
      <trkpt lat="45.80178" lon="5.36189">
        <ele>271.4</ele>
        <time>2023-05-27T09:44:52Z</time>
      </trkpt>
      <trkpt lat="45.80172" lon="5.36182">
        <ele>271.4</ele>
        <time>2023-05-27T09:44:53Z</time>
      </trkpt>
      <trkpt lat="45.80165" lon="5.36174">
        <ele>271.4</ele>
        <time>2023-05-27T09:44:54Z</time>
      </trkpt>
      <trkpt lat="45.80154" lon="5.36159">
        <ele>271.6</ele>
        <time>2023-05-27T09:44:56Z</time>
      </trkpt>
      <trkpt lat="45.80148" lon="5.36152">
        <ele>271.6</ele>
        <time>2023-05-27T09:44:57Z</time>
      </trkpt>
      <trkpt lat="45.80142" lon="5.36145">
        <ele>271.6</ele>
        <time>2023-05-27T09:44:58Z</time>
      </trkpt>
      <trkpt lat="45.80136" lon="5.36137">
        <ele>271.8</ele>
        <time>2023-05-27T09:44:59Z</time>
      </trkpt>
      <trkpt lat="45.8013" lon="5.3613">
        <ele>271.8</ele>
        <time>2023-05-27T09:45:00Z</time>
      </trkpt>
      <trkpt lat="45.80118" lon="5.36116">
        <ele>272</ele>
        <time>2023-05-27T09:45:02Z</time>
      </trkpt>
      <trkpt lat="45.80112" lon="5.36108">
        <ele>271.8</ele>
        <time>2023-05-27T09:45:03Z</time>
      </trkpt>
      <trkpt lat="45.80106" lon="5.36101">
        <ele>272</ele>
        <time>2023-05-27T09:45:04Z</time>
      </trkpt>
      <trkpt lat="45.801" lon="5.36094">
        <ele>272</ele>
        <time>2023-05-27T09:45:05Z</time>
      </trkpt>
      <trkpt lat="45.80094" lon="5.36087">
        <ele>272.2</ele>
        <time>2023-05-27T09:45:06Z</time>
      </trkpt>
      <trkpt lat="45.80082" lon="5.36074">
        <ele>272.2</ele>
        <time>2023-05-27T09:45:08Z</time>
      </trkpt>
      <trkpt lat="45.80076" lon="5.36067">
        <ele>272.2</ele>
        <time>2023-05-27T09:45:09Z</time>
      </trkpt>
      <trkpt lat="45.8007" lon="5.3606">
        <ele>272.2</ele>
        <time>2023-05-27T09:45:10Z</time>
      </trkpt>
      <trkpt lat="45.80064" lon="5.36052">
        <ele>272.2</ele>
        <time>2023-05-27T09:45:11Z</time>
      </trkpt>
      <trkpt lat="45.80058" lon="5.36045">
        <ele>272.2</ele>
        <time>2023-05-27T09:45:12Z</time>
      </trkpt>
      <trkpt lat="45.80051" lon="5.36037">
        <ele>272.2</ele>
        <time>2023-05-27T09:45:13Z</time>
      </trkpt>
      <trkpt lat="45.80039" lon="5.36023">
        <ele>272.2</ele>
        <time>2023-05-27T09:45:15Z</time>
      </trkpt>
      <trkpt lat="45.80033" lon="5.36015">
        <ele>272</ele>
        <time>2023-05-27T09:45:16Z</time>
      </trkpt>
      <trkpt lat="45.80027" lon="5.36008">
        <ele>272</ele>
        <time>2023-05-27T09:45:17Z</time>
      </trkpt>
      <trkpt lat="45.80021" lon="5.36001">
        <ele>271.8</ele>
        <time>2023-05-27T09:45:18Z</time>
      </trkpt>
      <trkpt lat="45.80015" lon="5.35994">
        <ele>271.8</ele>
        <time>2023-05-27T09:45:19Z</time>
      </trkpt>
      <trkpt lat="45.80003" lon="5.35979">
        <ele>271.6</ele>
        <time>2023-05-27T09:45:21Z</time>
      </trkpt>
      <trkpt lat="45.79997" lon="5.35972">
        <ele>271.4</ele>
        <time>2023-05-27T09:45:22Z</time>
      </trkpt>
      <trkpt lat="45.79991" lon="5.35965">
        <ele>271.4</ele>
        <time>2023-05-27T09:45:23Z</time>
      </trkpt>
      <trkpt lat="45.79985" lon="5.35958">
        <ele>271.2</ele>
        <time>2023-05-27T09:45:24Z</time>
      </trkpt>
      <trkpt lat="45.79979" lon="5.35952">
        <ele>271.2</ele>
        <time>2023-05-27T09:45:25Z</time>
      </trkpt>
      <trkpt lat="45.79974" lon="5.35946">
        <ele>271</ele>
        <time>2023-05-27T09:45:26Z</time>
      </trkpt>
      <trkpt lat="45.79968" lon="5.35939">
        <ele>271</ele>
        <time>2023-05-27T09:45:27Z</time>
      </trkpt>
      <trkpt lat="45.79962" lon="5.35933">
        <ele>270.8</ele>
        <time>2023-05-27T09:45:28Z</time>
      </trkpt>
      <trkpt lat="45.79956" lon="5.35927">
        <ele>270.4</ele>
        <time>2023-05-27T09:45:29Z</time>
      </trkpt>
      <trkpt lat="45.79949" lon="5.35921">
        <ele>270</ele>
        <time>2023-05-27T09:45:30Z</time>
      </trkpt>
      <trkpt lat="45.79943" lon="5.35915">
        <ele>269.6</ele>
        <time>2023-05-27T09:45:31Z</time>
      </trkpt>
      <trkpt lat="45.79936" lon="5.3591">
        <ele>269.6</ele>
        <time>2023-05-27T09:45:32Z</time>
      </trkpt>
      <trkpt lat="45.7993" lon="5.35904">
        <ele>269.4</ele>
        <time>2023-05-27T09:45:33Z</time>
      </trkpt>
      <trkpt lat="45.79923" lon="5.35898">
        <ele>269</ele>
        <time>2023-05-27T09:45:34Z</time>
      </trkpt>
      <trkpt lat="45.79917" lon="5.35891">
        <ele>269</ele>
        <time>2023-05-27T09:45:35Z</time>
      </trkpt>
      <trkpt lat="45.7991" lon="5.35885">
        <ele>268.8</ele>
        <time>2023-05-27T09:45:36Z</time>
      </trkpt>
      <trkpt lat="45.79904" lon="5.35879">
        <ele>268.8</ele>
        <time>2023-05-27T09:45:37Z</time>
      </trkpt>
      <trkpt lat="45.79897" lon="5.35873">
        <ele>268.4</ele>
        <time>2023-05-27T09:45:38Z</time>
      </trkpt>
      <trkpt lat="45.79885" lon="5.3586">
        <ele>268.2</ele>
        <time>2023-05-27T09:45:40Z</time>
      </trkpt>
      <trkpt lat="45.79878" lon="5.35854">
        <ele>268</ele>
        <time>2023-05-27T09:45:41Z</time>
      </trkpt>
      <trkpt lat="45.79871" lon="5.35848">
        <ele>267.8</ele>
        <time>2023-05-27T09:45:42Z</time>
      </trkpt>
      <trkpt lat="45.79865" lon="5.35842">
        <ele>267.6</ele>
        <time>2023-05-27T09:45:43Z</time>
      </trkpt>
      <trkpt lat="45.79858" lon="5.35835">
        <ele>267.4</ele>
        <time>2023-05-27T09:45:44Z</time>
      </trkpt>
      <trkpt lat="45.79845" lon="5.35822">
        <ele>266.8</ele>
        <time>2023-05-27T09:45:46Z</time>
      </trkpt>
      <trkpt lat="45.79838" lon="5.35816">
        <ele>266.6</ele>
        <time>2023-05-27T09:45:47Z</time>
      </trkpt>
      <trkpt lat="45.79831" lon="5.35809">
        <ele>266.2</ele>
        <time>2023-05-27T09:45:48Z</time>
      </trkpt>
      <trkpt lat="45.79825" lon="5.35803">
        <ele>266</ele>
        <time>2023-05-27T09:45:49Z</time>
      </trkpt>
      <trkpt lat="45.79818" lon="5.35796">
        <ele>265.6</ele>
        <time>2023-05-27T09:45:50Z</time>
      </trkpt>
      <trkpt lat="45.79805" lon="5.35784">
        <ele>265.2</ele>
        <time>2023-05-27T09:45:52Z</time>
      </trkpt>
      <trkpt lat="45.79798" lon="5.35777">
        <ele>265</ele>
        <time>2023-05-27T09:45:53Z</time>
      </trkpt>
      <trkpt lat="45.79792" lon="5.35771">
        <ele>265</ele>
        <time>2023-05-27T09:45:54Z</time>
      </trkpt>
      <trkpt lat="45.79785" lon="5.35765">
        <ele>264.8</ele>
        <time>2023-05-27T09:45:55Z</time>
      </trkpt>
      <trkpt lat="45.79779" lon="5.35759">
        <ele>264.8</ele>
        <time>2023-05-27T09:45:56Z</time>
      </trkpt>
      <trkpt lat="45.79765" lon="5.35748">
        <ele>264.6</ele>
        <time>2023-05-27T09:45:58Z</time>
      </trkpt>
      <trkpt lat="45.79759" lon="5.35742">
        <ele>264.6</ele>
        <time>2023-05-27T09:45:59Z</time>
      </trkpt>
      <trkpt lat="45.79752" lon="5.35737">
        <ele>264.4</ele>
        <time>2023-05-27T09:46:00Z</time>
      </trkpt>
      <trkpt lat="45.79746" lon="5.35731">
        <ele>264.4</ele>
        <time>2023-05-27T09:46:01Z</time>
      </trkpt>
      <trkpt lat="45.79739" lon="5.35726">
        <ele>264.2</ele>
        <time>2023-05-27T09:46:02Z</time>
      </trkpt>
      <trkpt lat="45.79726" lon="5.35716">
        <ele>264.2</ele>
        <time>2023-05-27T09:46:04Z</time>
      </trkpt>
      <trkpt lat="45.79719" lon="5.35711">
        <ele>264.2</ele>
        <time>2023-05-27T09:46:05Z</time>
      </trkpt>
      <trkpt lat="45.79713" lon="5.35706">
        <ele>263.8</ele>
        <time>2023-05-27T09:46:06Z</time>
      </trkpt>
      <trkpt lat="45.79706" lon="5.35701">
        <ele>263.8</ele>
        <time>2023-05-27T09:46:07Z</time>
      </trkpt>
      <trkpt lat="45.797" lon="5.35696">
        <ele>263.6</ele>
        <time>2023-05-27T09:46:08Z</time>
      </trkpt>
      <trkpt lat="45.79687" lon="5.35686">
        <ele>263.6</ele>
        <time>2023-05-27T09:46:10Z</time>
      </trkpt>
      <trkpt lat="45.7968" lon="5.35681">
        <ele>263.6</ele>
        <time>2023-05-27T09:46:11Z</time>
      </trkpt>
      <trkpt lat="45.79674" lon="5.35676">
        <ele>263.6</ele>
        <time>2023-05-27T09:46:12Z</time>
      </trkpt>
      <trkpt lat="45.79667" lon="5.35671">
        <ele>263.6</ele>
        <time>2023-05-27T09:46:13Z</time>
      </trkpt>
      <trkpt lat="45.79661" lon="5.35666">
        <ele>263.6</ele>
        <time>2023-05-27T09:46:14Z</time>
      </trkpt>
      <trkpt lat="45.79648" lon="5.35657">
        <ele>263.6</ele>
        <time>2023-05-27T09:46:16Z</time>
      </trkpt>
      <trkpt lat="45.79641" lon="5.35652">
        <ele>263.6</ele>
        <time>2023-05-27T09:46:17Z</time>
      </trkpt>
      <trkpt lat="45.79635" lon="5.35648">
        <ele>263.6</ele>
        <time>2023-05-27T09:46:18Z</time>
      </trkpt>
      <trkpt lat="45.79629" lon="5.35643">
        <ele>263.6</ele>
        <time>2023-05-27T09:46:19Z</time>
      </trkpt>
      <trkpt lat="45.79623" lon="5.35639">
        <ele>263.6</ele>
        <time>2023-05-27T09:46:20Z</time>
      </trkpt>
      <trkpt lat="45.79611" lon="5.3563">
        <ele>263.8</ele>
        <time>2023-05-27T09:46:22Z</time>
      </trkpt>
      <trkpt lat="45.79605" lon="5.35626">
        <ele>263.8</ele>
        <time>2023-05-27T09:46:23Z</time>
      </trkpt>
      <trkpt lat="45.79599" lon="5.35621">
        <ele>264</ele>
        <time>2023-05-27T09:46:24Z</time>
      </trkpt>
      <trkpt lat="45.79593" lon="5.35616">
        <ele>264.2</ele>
        <time>2023-05-27T09:46:25Z</time>
      </trkpt>
      <trkpt lat="45.79587" lon="5.35612">
        <ele>264.2</ele>
        <time>2023-05-27T09:46:26Z</time>
      </trkpt>
      <trkpt lat="45.79582" lon="5.35608">
        <ele>264.4</ele>
        <time>2023-05-27T09:46:27Z</time>
      </trkpt>
      <trkpt lat="45.7957" lon="5.35599">
        <ele>264.6</ele>
        <time>2023-05-27T09:46:29Z</time>
      </trkpt>
      <trkpt lat="45.79565" lon="5.35594">
        <ele>264.6</ele>
        <time>2023-05-27T09:46:30Z</time>
      </trkpt>
      <trkpt lat="45.7956" lon="5.35588">
        <ele>264.6</ele>
        <time>2023-05-27T09:46:31Z</time>
      </trkpt>
      <trkpt lat="45.79556" lon="5.35583">
        <ele>264.8</ele>
        <time>2023-05-27T09:46:32Z</time>
      </trkpt>
      <trkpt lat="45.79551" lon="5.35578">
        <ele>264.8</ele>
        <time>2023-05-27T09:46:33Z</time>
      </trkpt>
      <trkpt lat="45.79546" lon="5.35573">
        <ele>264.8</ele>
        <time>2023-05-27T09:46:34Z</time>
      </trkpt>
      <trkpt lat="45.7954" lon="5.35569">
        <ele>264.8</ele>
        <time>2023-05-27T09:46:35Z</time>
      </trkpt>
      <trkpt lat="45.79535" lon="5.35567">
        <ele>265</ele>
        <time>2023-05-27T09:46:36Z</time>
      </trkpt>
      <trkpt lat="45.79529" lon="5.35567">
        <ele>265</ele>
        <time>2023-05-27T09:46:37Z</time>
      </trkpt>
      <trkpt lat="45.79523" lon="5.35568">
        <ele>265.4</ele>
        <time>2023-05-27T09:46:38Z</time>
      </trkpt>
      <trkpt lat="45.79517" lon="5.3557">
        <ele>265.8</ele>
        <time>2023-05-27T09:46:39Z</time>
      </trkpt>
      <trkpt lat="45.79511" lon="5.35574">
        <ele>265.8</ele>
        <time>2023-05-27T09:46:40Z</time>
      </trkpt>
      <trkpt lat="45.79505" lon="5.35578">
        <ele>266.2</ele>
        <time>2023-05-27T09:46:41Z</time>
      </trkpt>
      <trkpt lat="45.79499" lon="5.35582">
        <ele>266.2</ele>
        <time>2023-05-27T09:46:42Z</time>
      </trkpt>
      <trkpt lat="45.79492" lon="5.35587">
        <ele>266.4</ele>
        <time>2023-05-27T09:46:43Z</time>
      </trkpt>
      <trkpt lat="45.79486" lon="5.35592">
        <ele>266.4</ele>
        <time>2023-05-27T09:46:44Z</time>
      </trkpt>
      <trkpt lat="45.7948" lon="5.35597">
        <ele>266.8</ele>
        <time>2023-05-27T09:46:45Z</time>
      </trkpt>
      <trkpt lat="45.79468" lon="5.35607">
        <ele>267</ele>
        <time>2023-05-27T09:46:47Z</time>
      </trkpt>
      <trkpt lat="45.79462" lon="5.35612">
        <ele>267</ele>
        <time>2023-05-27T09:46:48Z</time>
      </trkpt>
      <trkpt lat="45.79456" lon="5.35617">
        <ele>267</ele>
        <time>2023-05-27T09:46:49Z</time>
      </trkpt>
      <trkpt lat="45.7945" lon="5.35621">
        <ele>267.2</ele>
        <time>2023-05-27T09:46:50Z</time>
      </trkpt>
      <trkpt lat="45.79443" lon="5.35625">
        <ele>267.2</ele>
        <time>2023-05-27T09:46:51Z</time>
      </trkpt>
      <trkpt lat="45.79437" lon="5.35627">
        <ele>267.2</ele>
        <time>2023-05-27T09:46:52Z</time>
      </trkpt>
      <trkpt lat="45.7943" lon="5.35629">
        <ele>267.2</ele>
        <time>2023-05-27T09:46:53Z</time>
      </trkpt>
      <trkpt lat="45.79424" lon="5.3563">
        <ele>267.2</ele>
        <time>2023-05-27T09:46:54Z</time>
      </trkpt>
      <trkpt lat="45.79417" lon="5.35629">
        <ele>267.2</ele>
        <time>2023-05-27T09:46:55Z</time>
      </trkpt>
      <trkpt lat="45.79411" lon="5.35628">
        <ele>267.2</ele>
        <time>2023-05-27T09:46:56Z</time>
      </trkpt>
      <trkpt lat="45.79404" lon="5.35626">
        <ele>267.4</ele>
        <time>2023-05-27T09:46:57Z</time>
      </trkpt>
      <trkpt lat="45.79392" lon="5.35622">
        <ele>267.6</ele>
        <time>2023-05-27T09:46:59Z</time>
      </trkpt>
      <trkpt lat="45.79387" lon="5.3562">
        <ele>267.8</ele>
        <time>2023-05-27T09:47:00Z</time>
      </trkpt>
      <trkpt lat="45.79382" lon="5.35617">
        <ele>267.8</ele>
        <time>2023-05-27T09:47:01Z</time>
      </trkpt>
      <trkpt lat="45.79376" lon="5.35616">
        <ele>267.8</ele>
        <time>2023-05-27T09:47:02Z</time>
      </trkpt>
      <trkpt lat="45.79371" lon="5.35614">
        <ele>268</ele>
        <time>2023-05-27T09:47:03Z</time>
      </trkpt>
      <trkpt lat="45.79361" lon="5.35609">
        <ele>268</ele>
        <time>2023-05-27T09:47:05Z</time>
      </trkpt>
      <trkpt lat="45.79356" lon="5.35607">
        <ele>268.4</ele>
        <time>2023-05-27T09:47:06Z</time>
      </trkpt>
      <trkpt lat="45.79351" lon="5.35605">
        <ele>268.4</ele>
        <time>2023-05-27T09:47:07Z</time>
      </trkpt>
      <trkpt lat="45.79346" lon="5.35603">
        <ele>268.6</ele>
        <time>2023-05-27T09:47:08Z</time>
      </trkpt>
      <trkpt lat="45.79341" lon="5.35601">
        <ele>268.6</ele>
        <time>2023-05-27T09:47:09Z</time>
      </trkpt>
      <trkpt lat="45.79331" lon="5.35596">
        <ele>269</ele>
        <time>2023-05-27T09:47:11Z</time>
      </trkpt>
      <trkpt lat="45.79326" lon="5.35595">
        <ele>269</ele>
        <time>2023-05-27T09:47:12Z</time>
      </trkpt>
      <trkpt lat="45.79321" lon="5.35592">
        <ele>269</ele>
        <time>2023-05-27T09:47:13Z</time>
      </trkpt>
      <trkpt lat="45.79316" lon="5.3559">
        <ele>269.4</ele>
        <time>2023-05-27T09:47:14Z</time>
      </trkpt>
      <trkpt lat="45.79312" lon="5.35588">
        <ele>269.8</ele>
        <time>2023-05-27T09:47:15Z</time>
      </trkpt>
      <trkpt lat="45.79307" lon="5.35586">
        <ele>270.4</ele>
        <time>2023-05-27T09:47:16Z</time>
      </trkpt>
      <trkpt lat="45.79302" lon="5.35584">
        <ele>270.8</ele>
        <time>2023-05-27T09:47:17Z</time>
      </trkpt>
      <trkpt lat="45.79297" lon="5.35582">
        <ele>271.2</ele>
        <time>2023-05-27T09:47:18Z</time>
      </trkpt>
      <trkpt lat="45.79293" lon="5.35581">
        <ele>271.4</ele>
        <time>2023-05-27T09:47:19Z</time>
      </trkpt>
      <trkpt lat="45.79288" lon="5.35579">
        <ele>271.6</ele>
        <time>2023-05-27T09:47:20Z</time>
      </trkpt>
      <trkpt lat="45.79284" lon="5.35578">
        <ele>271.8</ele>
        <time>2023-05-27T09:47:21Z</time>
      </trkpt>
      <trkpt lat="45.79276" lon="5.35575">
        <ele>272</ele>
        <time>2023-05-27T09:47:23Z</time>
      </trkpt>
      <trkpt lat="45.79272" lon="5.35574">
        <ele>272.2</ele>
        <time>2023-05-27T09:47:24Z</time>
      </trkpt>
      <trkpt lat="45.79268" lon="5.35573">
        <ele>272.6</ele>
        <time>2023-05-27T09:47:25Z</time>
      </trkpt>
      <trkpt lat="45.79264" lon="5.35571">
        <ele>272.8</ele>
        <time>2023-05-27T09:47:26Z</time>
      </trkpt>
      <trkpt lat="45.7926" lon="5.35569">
        <ele>273.2</ele>
        <time>2023-05-27T09:47:27Z</time>
      </trkpt>
      <trkpt lat="45.79252" lon="5.35566">
        <ele>274.2</ele>
        <time>2023-05-27T09:47:29Z</time>
      </trkpt>
      <trkpt lat="45.79248" lon="5.35564">
        <ele>274.6</ele>
        <time>2023-05-27T09:47:30Z</time>
      </trkpt>
      <trkpt lat="45.79244" lon="5.35563">
        <ele>275</ele>
        <time>2023-05-27T09:47:31Z</time>
      </trkpt>
      <trkpt lat="45.7924" lon="5.35561">
        <ele>275.6</ele>
        <time>2023-05-27T09:47:32Z</time>
      </trkpt>
      <trkpt lat="45.79235" lon="5.3556">
        <ele>275.8</ele>
        <time>2023-05-27T09:47:33Z</time>
      </trkpt>
      <trkpt lat="45.79227" lon="5.35557">
        <ele>276.2</ele>
        <time>2023-05-27T09:47:35Z</time>
      </trkpt>
      <trkpt lat="45.79223" lon="5.35555">
        <ele>276.6</ele>
        <time>2023-05-27T09:47:36Z</time>
      </trkpt>
      <trkpt lat="45.79219" lon="5.35554">
        <ele>276.8</ele>
        <time>2023-05-27T09:47:37Z</time>
      </trkpt>
      <trkpt lat="45.79215" lon="5.35552">
        <ele>277</ele>
        <time>2023-05-27T09:47:38Z</time>
      </trkpt>
      <trkpt lat="45.79211" lon="5.35551">
        <ele>277.6</ele>
        <time>2023-05-27T09:47:39Z</time>
      </trkpt>
      <trkpt lat="45.79208" lon="5.35549">
        <ele>278</ele>
        <time>2023-05-27T09:47:40Z</time>
      </trkpt>
      <trkpt lat="45.79201" lon="5.35546">
        <ele>279</ele>
        <time>2023-05-27T09:47:42Z</time>
      </trkpt>
      <trkpt lat="45.79198" lon="5.35545">
        <ele>279.4</ele>
        <time>2023-05-27T09:47:43Z</time>
      </trkpt>
      <trkpt lat="45.79194" lon="5.35543">
        <ele>279.6</ele>
        <time>2023-05-27T09:47:44Z</time>
      </trkpt>
      <trkpt lat="45.79191" lon="5.35542">
        <ele>279.8</ele>
        <time>2023-05-27T09:47:45Z</time>
      </trkpt>
      <trkpt lat="45.79187" lon="5.35541">
        <ele>280.4</ele>
        <time>2023-05-27T09:47:46Z</time>
      </trkpt>
      <trkpt lat="45.79183" lon="5.3554">
        <ele>280.6</ele>
        <time>2023-05-27T09:47:47Z</time>
      </trkpt>
      <trkpt lat="45.7918" lon="5.35539">
        <ele>281</ele>
        <time>2023-05-27T09:47:48Z</time>
      </trkpt>
      <trkpt lat="45.79177" lon="5.35538">
        <ele>281.2</ele>
        <time>2023-05-27T09:47:49Z</time>
      </trkpt>
      <trkpt lat="45.79174" lon="5.35537">
        <ele>281.4</ele>
        <time>2023-05-27T09:47:50Z</time>
      </trkpt>
      <trkpt lat="45.7917" lon="5.35536">
        <ele>281.6</ele>
        <time>2023-05-27T09:47:51Z</time>
      </trkpt>
      <trkpt lat="45.79167" lon="5.35536">
        <ele>281.8</ele>
        <time>2023-05-27T09:47:52Z</time>
      </trkpt>
      <trkpt lat="45.79163" lon="5.35536">
        <ele>283</ele>
        <time>2023-05-27T09:47:53Z</time>
      </trkpt>
      <trkpt lat="45.7916" lon="5.35535">
        <ele>283.4</ele>
        <time>2023-05-27T09:47:54Z</time>
      </trkpt>
      <trkpt lat="45.79156" lon="5.35535">
        <ele>283.8</ele>
        <time>2023-05-27T09:47:55Z</time>
      </trkpt>
      <trkpt lat="45.79152" lon="5.35534">
        <ele>284</ele>
        <time>2023-05-27T09:47:56Z</time>
      </trkpt>
      <trkpt lat="45.79148" lon="5.35534">
        <ele>284.2</ele>
        <time>2023-05-27T09:47:57Z</time>
      </trkpt>
      <trkpt lat="45.79145" lon="5.35533">
        <ele>284.4</ele>
        <time>2023-05-27T09:47:58Z</time>
      </trkpt>
      <trkpt lat="45.79137" lon="5.35533">
        <ele>285</ele>
        <time>2023-05-27T09:48:00Z</time>
      </trkpt>
      <trkpt lat="45.79134" lon="5.35533">
        <ele>285.4</ele>
        <time>2023-05-27T09:48:01Z</time>
      </trkpt>
      <trkpt lat="45.7913" lon="5.35532">
        <ele>285.8</ele>
        <time>2023-05-27T09:48:02Z</time>
      </trkpt>
      <trkpt lat="45.79127" lon="5.35532">
        <ele>285.8</ele>
        <time>2023-05-27T09:48:03Z</time>
      </trkpt>
      <trkpt lat="45.79123" lon="5.35532">
        <ele>286.2</ele>
        <time>2023-05-27T09:48:04Z</time>
      </trkpt>
      <trkpt lat="45.79116" lon="5.35532">
        <ele>286.4</ele>
        <time>2023-05-27T09:48:06Z</time>
      </trkpt>
      <trkpt lat="45.79112" lon="5.35532">
        <ele>286.6</ele>
        <time>2023-05-27T09:48:07Z</time>
      </trkpt>
      <trkpt lat="45.79109" lon="5.35532">
        <ele>286.8</ele>
        <time>2023-05-27T09:48:08Z</time>
      </trkpt>
      <trkpt lat="45.79106" lon="5.35531">
        <ele>287.2</ele>
        <time>2023-05-27T09:48:09Z</time>
      </trkpt>
      <trkpt lat="45.79102" lon="5.35531">
        <ele>287.4</ele>
        <time>2023-05-27T09:48:10Z</time>
      </trkpt>
      <trkpt lat="45.79098" lon="5.35531">
        <ele>287.8</ele>
        <time>2023-05-27T09:48:11Z</time>
      </trkpt>
      <trkpt lat="45.79095" lon="5.35531">
        <ele>287.8</ele>
        <time>2023-05-27T09:48:12Z</time>
      </trkpt>
      <trkpt lat="45.79092" lon="5.35531">
        <ele>288.2</ele>
        <time>2023-05-27T09:48:13Z</time>
      </trkpt>
      <trkpt lat="45.79088" lon="5.35531">
        <ele>288.2</ele>
        <time>2023-05-27T09:48:14Z</time>
      </trkpt>
      <trkpt lat="45.79084" lon="5.35531">
        <ele>288.8</ele>
        <time>2023-05-27T09:48:15Z</time>
      </trkpt>
      <trkpt lat="45.7908" lon="5.35531">
        <ele>289.2</ele>
        <time>2023-05-27T09:48:16Z</time>
      </trkpt>
      <trkpt lat="45.79074" lon="5.35531">
        <ele>289.6</ele>
        <time>2023-05-27T09:48:18Z</time>
      </trkpt>
      <trkpt lat="45.79071" lon="5.3553">
        <ele>289.8</ele>
        <time>2023-05-27T09:48:19Z</time>
      </trkpt>
      <trkpt lat="45.79067" lon="5.3553">
        <ele>290.2</ele>
        <time>2023-05-27T09:48:20Z</time>
      </trkpt>
      <trkpt lat="45.79063" lon="5.3553">
        <ele>290.4</ele>
        <time>2023-05-27T09:48:21Z</time>
      </trkpt>
      <trkpt lat="45.7906" lon="5.3553">
        <ele>290.6</ele>
        <time>2023-05-27T09:48:22Z</time>
      </trkpt>
      <trkpt lat="45.79053" lon="5.35529">
        <ele>290.8</ele>
        <time>2023-05-27T09:48:24Z</time>
      </trkpt>
      <trkpt lat="45.7905" lon="5.35529">
        <ele>290.8</ele>
        <time>2023-05-27T09:48:25Z</time>
      </trkpt>
      <trkpt lat="45.79047" lon="5.35529">
        <ele>290.8</ele>
        <time>2023-05-27T09:48:26Z</time>
      </trkpt>
      <trkpt lat="45.79044" lon="5.35529">
        <ele>291</ele>
        <time>2023-05-27T09:48:27Z</time>
      </trkpt>
      <trkpt lat="45.79039" lon="5.35528">
        <ele>291</ele>
        <time>2023-05-27T09:48:28Z</time>
      </trkpt>
      <trkpt lat="45.79032" lon="5.35527">
        <ele>291</ele>
        <time>2023-05-27T09:48:30Z</time>
      </trkpt>
      <trkpt lat="45.79029" lon="5.35527">
        <ele>291.2</ele>
        <time>2023-05-27T09:48:31Z</time>
      </trkpt>
      <trkpt lat="45.79026" lon="5.35528">
        <ele>291.2</ele>
        <time>2023-05-27T09:48:32Z</time>
      </trkpt>
      <trkpt lat="45.79023" lon="5.35528">
        <ele>291.2</ele>
        <time>2023-05-27T09:48:33Z</time>
      </trkpt>
      <trkpt lat="45.79019" lon="5.35529">
        <ele>291.2</ele>
        <time>2023-05-27T09:48:34Z</time>
      </trkpt>
      <trkpt lat="45.79017" lon="5.35529">
        <ele>291.2</ele>
        <time>2023-05-27T09:48:35Z</time>
      </trkpt>
      <trkpt lat="45.79013" lon="5.3553">
        <ele>291.2</ele>
        <time>2023-05-27T09:48:36Z</time>
      </trkpt>
      <trkpt lat="45.7901" lon="5.3553">
        <ele>291.4</ele>
        <time>2023-05-27T09:48:37Z</time>
      </trkpt>
      <trkpt lat="45.79006" lon="5.3553">
        <ele>291.8</ele>
        <time>2023-05-27T09:48:38Z</time>
      </trkpt>
      <trkpt lat="45.79002" lon="5.3553">
        <ele>292</ele>
        <time>2023-05-27T09:48:39Z</time>
      </trkpt>
      <trkpt lat="45.78998" lon="5.35531">
        <ele>292</ele>
        <time>2023-05-27T09:48:40Z</time>
      </trkpt>
      <trkpt lat="45.78994" lon="5.35533">
        <ele>292.2</ele>
        <time>2023-05-27T09:48:41Z</time>
      </trkpt>
      <trkpt lat="45.78991" lon="5.35534">
        <ele>292.2</ele>
        <time>2023-05-27T09:48:42Z</time>
      </trkpt>
      <trkpt lat="45.78987" lon="5.35535">
        <ele>292.4</ele>
        <time>2023-05-27T09:48:43Z</time>
      </trkpt>
      <trkpt lat="45.78984" lon="5.35537">
        <ele>292.4</ele>
        <time>2023-05-27T09:48:44Z</time>
      </trkpt>
      <trkpt lat="45.78981" lon="5.35538">
        <ele>292.4</ele>
        <time>2023-05-27T09:48:45Z</time>
      </trkpt>
      <trkpt lat="45.78979" lon="5.35539">
        <ele>292.6</ele>
        <time>2023-05-27T09:48:46Z</time>
      </trkpt>
      <trkpt lat="45.78975" lon="5.35541">
        <ele>292.6</ele>
        <time>2023-05-27T09:48:47Z</time>
      </trkpt>
      <trkpt lat="45.78972" lon="5.35543">
        <ele>292.8</ele>
        <time>2023-05-27T09:48:48Z</time>
      </trkpt>
      <trkpt lat="45.78968" lon="5.35544">
        <ele>292.8</ele>
        <time>2023-05-27T09:48:49Z</time>
      </trkpt>
      <trkpt lat="45.78966" lon="5.35545">
        <ele>293</ele>
        <time>2023-05-27T09:48:50Z</time>
      </trkpt>
      <trkpt lat="45.78963" lon="5.35546">
        <ele>293.2</ele>
        <time>2023-05-27T09:48:51Z</time>
      </trkpt>
      <trkpt lat="45.7896" lon="5.35548">
        <ele>293.4</ele>
        <time>2023-05-27T09:48:52Z</time>
      </trkpt>
      <trkpt lat="45.78957" lon="5.35549">
        <ele>293.6</ele>
        <time>2023-05-27T09:48:53Z</time>
      </trkpt>
      <trkpt lat="45.78954" lon="5.35551">
        <ele>293.8</ele>
        <time>2023-05-27T09:48:54Z</time>
      </trkpt>
      <trkpt lat="45.7895" lon="5.35554">
        <ele>294</ele>
        <time>2023-05-27T09:48:55Z</time>
      </trkpt>
      <trkpt lat="45.78946" lon="5.35556">
        <ele>294</ele>
        <time>2023-05-27T09:48:56Z</time>
      </trkpt>
      <trkpt lat="45.78942" lon="5.35557">
        <ele>294.4</ele>
        <time>2023-05-27T09:48:57Z</time>
      </trkpt>
      <trkpt lat="45.78936" lon="5.3556">
        <ele>294.4</ele>
        <time>2023-05-27T09:48:58Z</time>
      </trkpt>
      <trkpt lat="45.78932" lon="5.35562">
        <ele>294.6</ele>
        <time>2023-05-27T09:48:59Z</time>
      </trkpt>
      <trkpt lat="45.78928" lon="5.35564">
        <ele>294.8</ele>
        <time>2023-05-27T09:49:00Z</time>
      </trkpt>
      <trkpt lat="45.78924" lon="5.35568">
        <ele>294.8</ele>
        <time>2023-05-27T09:49:01Z</time>
      </trkpt>
      <trkpt lat="45.78921" lon="5.35569">
        <ele>295</ele>
        <time>2023-05-27T09:49:02Z</time>
      </trkpt>
      <trkpt lat="45.78917" lon="5.3557">
        <ele>295</ele>
        <time>2023-05-27T09:49:03Z</time>
      </trkpt>
      <trkpt lat="45.78914" lon="5.35572">
        <ele>295.2</ele>
        <time>2023-05-27T09:49:04Z</time>
      </trkpt>
      <trkpt lat="45.78905" lon="5.35577">
        <ele>295.6</ele>
        <time>2023-05-27T09:49:06Z</time>
      </trkpt>
      <trkpt lat="45.78899" lon="5.3558">
        <ele>295.8</ele>
        <time>2023-05-27T09:49:07Z</time>
      </trkpt>
      <trkpt lat="45.78894" lon="5.35583">
        <ele>296.2</ele>
        <time>2023-05-27T09:49:08Z</time>
      </trkpt>
      <trkpt lat="45.7889" lon="5.35588">
        <ele>296.4</ele>
        <time>2023-05-27T09:49:09Z</time>
      </trkpt>
      <trkpt lat="45.78887" lon="5.35591">
        <ele>296.4</ele>
        <time>2023-05-27T09:49:10Z</time>
      </trkpt>
      <trkpt lat="45.78883" lon="5.35594">
        <ele>296.6</ele>
        <time>2023-05-27T09:49:11Z</time>
      </trkpt>
      <trkpt lat="45.78877" lon="5.35595">
        <ele>296.8</ele>
        <time>2023-05-27T09:49:12Z</time>
      </trkpt>
      <trkpt lat="45.78873" lon="5.35597">
        <ele>297</ele>
        <time>2023-05-27T09:49:13Z</time>
      </trkpt>
      <trkpt lat="45.78869" lon="5.35599">
        <ele>297</ele>
        <time>2023-05-27T09:49:14Z</time>
      </trkpt>
      <trkpt lat="45.78863" lon="5.35601">
        <ele>297</ele>
        <time>2023-05-27T09:49:15Z</time>
      </trkpt>
      <trkpt lat="45.78859" lon="5.35601">
        <ele>297.2</ele>
        <time>2023-05-27T09:49:16Z</time>
      </trkpt>
      <trkpt lat="45.78852" lon="5.35604">
        <ele>297.2</ele>
        <time>2023-05-27T09:49:18Z</time>
      </trkpt>
      <trkpt lat="45.78845" lon="5.35609">
        <ele>297.4</ele>
        <time>2023-05-27T09:49:19Z</time>
      </trkpt>
      <trkpt lat="45.78841" lon="5.35614">
        <ele>297.4</ele>
        <time>2023-05-27T09:49:20Z</time>
      </trkpt>
      <trkpt lat="45.78838" lon="5.35618">
        <ele>297.4</ele>
        <time>2023-05-27T09:49:21Z</time>
      </trkpt>
      <trkpt lat="45.78834" lon="5.35622">
        <ele>297.6</ele>
        <time>2023-05-27T09:49:22Z</time>
      </trkpt>
      <trkpt lat="45.78828" lon="5.35629">
        <ele>297.8</ele>
        <time>2023-05-27T09:49:24Z</time>
      </trkpt>
      <trkpt lat="45.78825" lon="5.35633">
        <ele>297.8</ele>
        <time>2023-05-27T09:49:25Z</time>
      </trkpt>
      <trkpt lat="45.78822" lon="5.35637">
        <ele>298</ele>
        <time>2023-05-27T09:49:26Z</time>
      </trkpt>
      <trkpt lat="45.78819" lon="5.3564">
        <ele>298</ele>
        <time>2023-05-27T09:49:27Z</time>
      </trkpt>
      <trkpt lat="45.78817" lon="5.35644">
        <ele>298</ele>
        <time>2023-05-27T09:49:28Z</time>
      </trkpt>
      <trkpt lat="45.78811" lon="5.35653">
        <ele>298.2</ele>
        <time>2023-05-27T09:49:30Z</time>
      </trkpt>
      <trkpt lat="45.78807" lon="5.35657">
        <ele>298.4</ele>
        <time>2023-05-27T09:49:31Z</time>
      </trkpt>
      <trkpt lat="45.78804" lon="5.3566">
        <ele>298.6</ele>
        <time>2023-05-27T09:49:32Z</time>
      </trkpt>
      <trkpt lat="45.78802" lon="5.35663">
        <ele>298.8</ele>
        <time>2023-05-27T09:49:33Z</time>
      </trkpt>
      <trkpt lat="45.78799" lon="5.35667">
        <ele>299.2</ele>
        <time>2023-05-27T09:49:34Z</time>
      </trkpt>
      <trkpt lat="45.78793" lon="5.35673">
        <ele>299.6</ele>
        <time>2023-05-27T09:49:36Z</time>
      </trkpt>
      <trkpt lat="45.78789" lon="5.35677">
        <ele>299.4</ele>
        <time>2023-05-27T09:49:37Z</time>
      </trkpt>
      <trkpt lat="45.78786" lon="5.3568">
        <ele>299.6</ele>
        <time>2023-05-27T09:49:38Z</time>
      </trkpt>
      <trkpt lat="45.78783" lon="5.35682">
        <ele>299.6</ele>
        <time>2023-05-27T09:49:39Z</time>
      </trkpt>
      <trkpt lat="45.78779" lon="5.35684">
        <ele>299.8</ele>
        <time>2023-05-27T09:49:40Z</time>
      </trkpt>
      <trkpt lat="45.78776" lon="5.35686">
        <ele>299.8</ele>
        <time>2023-05-27T09:49:41Z</time>
      </trkpt>
      <trkpt lat="45.78772" lon="5.35688">
        <ele>299.8</ele>
        <time>2023-05-27T09:49:42Z</time>
      </trkpt>
      <trkpt lat="45.78768" lon="5.3569">
        <ele>300</ele>
        <time>2023-05-27T09:49:43Z</time>
      </trkpt>
      <trkpt lat="45.78764" lon="5.35693">
        <ele>300</ele>
        <time>2023-05-27T09:49:44Z</time>
      </trkpt>
      <trkpt lat="45.7876" lon="5.35695">
        <ele>300.2</ele>
        <time>2023-05-27T09:49:45Z</time>
      </trkpt>
      <trkpt lat="45.78755" lon="5.35697">
        <ele>300.4</ele>
        <time>2023-05-27T09:49:46Z</time>
      </trkpt>
      <trkpt lat="45.78752" lon="5.35699">
        <ele>300.4</ele>
        <time>2023-05-27T09:49:47Z</time>
      </trkpt>
      <trkpt lat="45.78744" lon="5.35704">
        <ele>300.6</ele>
        <time>2023-05-27T09:49:49Z</time>
      </trkpt>
      <trkpt lat="45.78741" lon="5.35705">
        <ele>300.8</ele>
        <time>2023-05-27T09:49:50Z</time>
      </trkpt>
      <trkpt lat="45.78737" lon="5.35707">
        <ele>300.8</ele>
        <time>2023-05-27T09:49:51Z</time>
      </trkpt>
      <trkpt lat="45.78733" lon="5.35709">
        <ele>301</ele>
        <time>2023-05-27T09:49:52Z</time>
      </trkpt>
      <trkpt lat="45.78729" lon="5.35712">
        <ele>301</ele>
        <time>2023-05-27T09:49:53Z</time>
      </trkpt>
      <trkpt lat="45.78725" lon="5.35714">
        <ele>301.2</ele>
        <time>2023-05-27T09:49:54Z</time>
      </trkpt>
      <trkpt lat="45.78721" lon="5.35716">
        <ele>301.2</ele>
        <time>2023-05-27T09:49:55Z</time>
      </trkpt>
      <trkpt lat="45.78717" lon="5.35719">
        <ele>301.2</ele>
        <time>2023-05-27T09:49:56Z</time>
      </trkpt>
      <trkpt lat="45.78713" lon="5.35721">
        <ele>301.4</ele>
        <time>2023-05-27T09:49:57Z</time>
      </trkpt>
      <trkpt lat="45.78708" lon="5.35723">
        <ele>301.4</ele>
        <time>2023-05-27T09:49:58Z</time>
      </trkpt>
      <trkpt lat="45.78705" lon="5.35725">
        <ele>301.4</ele>
        <time>2023-05-27T09:49:59Z</time>
      </trkpt>
      <trkpt lat="45.78695" lon="5.3573">
        <ele>301.6</ele>
        <time>2023-05-27T09:50:01Z</time>
      </trkpt>
      <trkpt lat="45.7869" lon="5.35732">
        <ele>301.6</ele>
        <time>2023-05-27T09:50:02Z</time>
      </trkpt>
      <trkpt lat="45.78684" lon="5.35735">
        <ele>301.6</ele>
        <time>2023-05-27T09:50:03Z</time>
      </trkpt>
      <trkpt lat="45.7868" lon="5.35738">
        <ele>301.6</ele>
        <time>2023-05-27T09:50:04Z</time>
      </trkpt>
      <trkpt lat="45.78676" lon="5.35739">
        <ele>301.6</ele>
        <time>2023-05-27T09:50:05Z</time>
      </trkpt>
      <trkpt lat="45.78667" lon="5.35745">
        <ele>301.8</ele>
        <time>2023-05-27T09:50:07Z</time>
      </trkpt>
      <trkpt lat="45.78662" lon="5.35748">
        <ele>301.8</ele>
        <time>2023-05-27T09:50:08Z</time>
      </trkpt>
      <trkpt lat="45.78658" lon="5.3575">
        <ele>302</ele>
        <time>2023-05-27T09:50:09Z</time>
      </trkpt>
      <trkpt lat="45.78653" lon="5.35752">
        <ele>302</ele>
        <time>2023-05-27T09:50:10Z</time>
      </trkpt>
      <trkpt lat="45.7865" lon="5.35754">
        <ele>302</ele>
        <time>2023-05-27T09:50:11Z</time>
      </trkpt>
      <trkpt lat="45.7864" lon="5.35759">
        <ele>302</ele>
        <time>2023-05-27T09:50:13Z</time>
      </trkpt>
      <trkpt lat="45.78635" lon="5.35762">
        <ele>302.2</ele>
        <time>2023-05-27T09:50:14Z</time>
      </trkpt>
      <trkpt lat="45.78629" lon="5.35764">
        <ele>302.4</ele>
        <time>2023-05-27T09:50:15Z</time>
      </trkpt>
      <trkpt lat="45.78625" lon="5.35766">
        <ele>302.4</ele>
        <time>2023-05-27T09:50:16Z</time>
      </trkpt>
      <trkpt lat="45.7862" lon="5.35767">
        <ele>302.6</ele>
        <time>2023-05-27T09:50:17Z</time>
      </trkpt>
      <trkpt lat="45.78609" lon="5.3577">
        <ele>302.8</ele>
        <time>2023-05-27T09:50:19Z</time>
      </trkpt>
      <trkpt lat="45.78604" lon="5.3577">
        <ele>303</ele>
        <time>2023-05-27T09:50:20Z</time>
      </trkpt>
      <trkpt lat="45.786" lon="5.3577">
        <ele>303</ele>
        <time>2023-05-27T09:50:21Z</time>
      </trkpt>
      <trkpt lat="45.78595" lon="5.35771">
        <ele>303.2</ele>
        <time>2023-05-27T09:50:22Z</time>
      </trkpt>
      <trkpt lat="45.78589" lon="5.3577">
        <ele>303.4</ele>
        <time>2023-05-27T09:50:23Z</time>
      </trkpt>
      <trkpt lat="45.78583" lon="5.35769">
        <ele>303.6</ele>
        <time>2023-05-27T09:50:24Z</time>
      </trkpt>
      <trkpt lat="45.78578" lon="5.35768">
        <ele>303.6</ele>
        <time>2023-05-27T09:50:25Z</time>
      </trkpt>
      <trkpt lat="45.78573" lon="5.35766">
        <ele>303.6</ele>
        <time>2023-05-27T09:50:26Z</time>
      </trkpt>
      <trkpt lat="45.78566" lon="5.35764">
        <ele>303.8</ele>
        <time>2023-05-27T09:50:27Z</time>
      </trkpt>
      <trkpt lat="45.78561" lon="5.35762">
        <ele>304</ele>
        <time>2023-05-27T09:50:28Z</time>
      </trkpt>
      <trkpt lat="45.78555" lon="5.35759">
        <ele>304.2</ele>
        <time>2023-05-27T09:50:29Z</time>
      </trkpt>
      <trkpt lat="45.78545" lon="5.35754">
        <ele>304.6</ele>
        <time>2023-05-27T09:50:31Z</time>
      </trkpt>
      <trkpt lat="45.7854" lon="5.35751">
        <ele>305</ele>
        <time>2023-05-27T09:50:32Z</time>
      </trkpt>
      <trkpt lat="45.78534" lon="5.35748">
        <ele>305.2</ele>
        <time>2023-05-27T09:50:33Z</time>
      </trkpt>
      <trkpt lat="45.7853" lon="5.35746">
        <ele>305.6</ele>
        <time>2023-05-27T09:50:34Z</time>
      </trkpt>
      <trkpt lat="45.78525" lon="5.35742">
        <ele>305.6</ele>
        <time>2023-05-27T09:50:35Z</time>
      </trkpt>
      <trkpt lat="45.78516" lon="5.35737">
        <ele>306.2</ele>
        <time>2023-05-27T09:50:37Z</time>
      </trkpt>
      <trkpt lat="45.78511" lon="5.35734">
        <ele>306.2</ele>
        <time>2023-05-27T09:50:38Z</time>
      </trkpt>
      <trkpt lat="45.78506" lon="5.35731">
        <ele>306.4</ele>
        <time>2023-05-27T09:50:39Z</time>
      </trkpt>
      <trkpt lat="45.78501" lon="5.35729">
        <ele>306.4</ele>
        <time>2023-05-27T09:50:40Z</time>
      </trkpt>
      <trkpt lat="45.78496" lon="5.35726">
        <ele>306.6</ele>
        <time>2023-05-27T09:50:41Z</time>
      </trkpt>
      <trkpt lat="45.78485" lon="5.3572">
        <ele>307</ele>
        <time>2023-05-27T09:50:43Z</time>
      </trkpt>
      <trkpt lat="45.78481" lon="5.35718">
        <ele>307</ele>
        <time>2023-05-27T09:50:44Z</time>
      </trkpt>
      <trkpt lat="45.78476" lon="5.35715">
        <ele>307.2</ele>
        <time>2023-05-27T09:50:45Z</time>
      </trkpt>
      <trkpt lat="45.78472" lon="5.35712">
        <ele>307.4</ele>
        <time>2023-05-27T09:50:46Z</time>
      </trkpt>
      <trkpt lat="45.78467" lon="5.3571">
        <ele>307.8</ele>
        <time>2023-05-27T09:50:47Z</time>
      </trkpt>
      <trkpt lat="45.78458" lon="5.35704">
        <ele>308.4</ele>
        <time>2023-05-27T09:50:49Z</time>
      </trkpt>
      <trkpt lat="45.78453" lon="5.35701">
        <ele>308.6</ele>
        <time>2023-05-27T09:50:50Z</time>
      </trkpt>
      <trkpt lat="45.78447" lon="5.35698">
        <ele>308.6</ele>
        <time>2023-05-27T09:50:51Z</time>
      </trkpt>
      <trkpt lat="45.78442" lon="5.35695">
        <ele>309.4</ele>
        <time>2023-05-27T09:50:52Z</time>
      </trkpt>
      <trkpt lat="45.78437" lon="5.35692">
        <ele>309.6</ele>
        <time>2023-05-27T09:50:53Z</time>
      </trkpt>
      <trkpt lat="45.78426" lon="5.35686">
        <ele>310.4</ele>
        <time>2023-05-27T09:50:55Z</time>
      </trkpt>
      <trkpt lat="45.78421" lon="5.35683">
        <ele>310.6</ele>
        <time>2023-05-27T09:50:56Z</time>
      </trkpt>
      <trkpt lat="45.78416" lon="5.35681">
        <ele>311.4</ele>
        <time>2023-05-27T09:50:57Z</time>
      </trkpt>
      <trkpt lat="45.78411" lon="5.35678">
        <ele>311.6</ele>
        <time>2023-05-27T09:50:58Z</time>
      </trkpt>
      <trkpt lat="45.78406" lon="5.35675">
        <ele>312</ele>
        <time>2023-05-27T09:50:59Z</time>
      </trkpt>
      <trkpt lat="45.784" lon="5.35672">
        <ele>312.2</ele>
        <time>2023-05-27T09:51:00Z</time>
      </trkpt>
      <trkpt lat="45.78394" lon="5.35668">
        <ele>312.6</ele>
        <time>2023-05-27T09:51:01Z</time>
      </trkpt>
      <trkpt lat="45.7839" lon="5.35666">
        <ele>313</ele>
        <time>2023-05-27T09:51:02Z</time>
      </trkpt>
      <trkpt lat="45.78385" lon="5.35663">
        <ele>313.2</ele>
        <time>2023-05-27T09:51:03Z</time>
      </trkpt>
      <trkpt lat="45.78379" lon="5.3566">
        <ele>313.4</ele>
        <time>2023-05-27T09:51:04Z</time>
      </trkpt>
      <trkpt lat="45.78374" lon="5.35658">
        <ele>313.6</ele>
        <time>2023-05-27T09:51:05Z</time>
      </trkpt>
      <trkpt lat="45.7837" lon="5.35655">
        <ele>314</ele>
        <time>2023-05-27T09:51:06Z</time>
      </trkpt>
      <trkpt lat="45.78364" lon="5.35652">
        <ele>314.2</ele>
        <time>2023-05-27T09:51:07Z</time>
      </trkpt>
      <trkpt lat="45.78359" lon="5.35649">
        <ele>314.4</ele>
        <time>2023-05-27T09:51:08Z</time>
      </trkpt>
      <trkpt lat="45.78355" lon="5.35647">
        <ele>314.6</ele>
        <time>2023-05-27T09:51:09Z</time>
      </trkpt>
      <trkpt lat="45.7835" lon="5.35644">
        <ele>315</ele>
        <time>2023-05-27T09:51:10Z</time>
      </trkpt>
      <trkpt lat="45.78345" lon="5.35641">
        <ele>315.4</ele>
        <time>2023-05-27T09:51:11Z</time>
      </trkpt>
      <trkpt lat="45.78336" lon="5.35634">
        <ele>316</ele>
        <time>2023-05-27T09:51:13Z</time>
      </trkpt>
      <trkpt lat="45.78331" lon="5.3563">
        <ele>316</ele>
        <time>2023-05-27T09:51:14Z</time>
      </trkpt>
      <trkpt lat="45.78326" lon="5.35625">
        <ele>316.2</ele>
        <time>2023-05-27T09:51:15Z</time>
      </trkpt>
      <trkpt lat="45.78323" lon="5.35621">
        <ele>316.2</ele>
        <time>2023-05-27T09:51:16Z</time>
      </trkpt>
      <trkpt lat="45.78319" lon="5.35617">
        <ele>316.4</ele>
        <time>2023-05-27T09:51:17Z</time>
      </trkpt>
      <trkpt lat="45.78311" lon="5.35606">
        <ele>316.8</ele>
        <time>2023-05-27T09:51:19Z</time>
      </trkpt>
      <trkpt lat="45.78307" lon="5.35599">
        <ele>316.8</ele>
        <time>2023-05-27T09:51:20Z</time>
      </trkpt>
      <trkpt lat="45.78304" lon="5.35593">
        <ele>317</ele>
        <time>2023-05-27T09:51:21Z</time>
      </trkpt>
      <trkpt lat="45.78301" lon="5.35586">
        <ele>317</ele>
        <time>2023-05-27T09:51:22Z</time>
      </trkpt>
      <trkpt lat="45.78297" lon="5.3558">
        <ele>317</ele>
        <time>2023-05-27T09:51:23Z</time>
      </trkpt>
      <trkpt lat="45.78291" lon="5.35566">
        <ele>317.2</ele>
        <time>2023-05-27T09:51:25Z</time>
      </trkpt>
      <trkpt lat="45.78289" lon="5.35559">
        <ele>317.2</ele>
        <time>2023-05-27T09:51:26Z</time>
      </trkpt>
      <trkpt lat="45.78286" lon="5.35551">
        <ele>317.4</ele>
        <time>2023-05-27T09:51:27Z</time>
      </trkpt>
      <trkpt lat="45.78284" lon="5.35544">
        <ele>317.4</ele>
        <time>2023-05-27T09:51:28Z</time>
      </trkpt>
      <trkpt lat="45.78281" lon="5.35537">
        <ele>317.4</ele>
        <time>2023-05-27T09:51:29Z</time>
      </trkpt>
      <trkpt lat="45.78279" lon="5.3553">
        <ele>317.4</ele>
        <time>2023-05-27T09:51:30Z</time>
      </trkpt>
      <trkpt lat="45.78274" lon="5.35516">
        <ele>317.4</ele>
        <time>2023-05-27T09:51:32Z</time>
      </trkpt>
      <trkpt lat="45.78271" lon="5.35508">
        <ele>317.6</ele>
        <time>2023-05-27T09:51:33Z</time>
      </trkpt>
      <trkpt lat="45.78268" lon="5.35501">
        <ele>317.6</ele>
        <time>2023-05-27T09:51:34Z</time>
      </trkpt>
      <trkpt lat="45.78264" lon="5.35493">
        <ele>317.6</ele>
        <time>2023-05-27T09:51:35Z</time>
      </trkpt>
      <trkpt lat="45.7826" lon="5.35486">
        <ele>317.8</ele>
        <time>2023-05-27T09:51:36Z</time>
      </trkpt>
      <trkpt lat="45.78253" lon="5.35473">
        <ele>317.8</ele>
        <time>2023-05-27T09:51:38Z</time>
      </trkpt>
      <trkpt lat="45.7825" lon="5.35467">
        <ele>317.8</ele>
        <time>2023-05-27T09:51:39Z</time>
      </trkpt>
      <trkpt lat="45.78245" lon="5.35459">
        <ele>318</ele>
        <time>2023-05-27T09:51:40Z</time>
      </trkpt>
      <trkpt lat="45.78241" lon="5.35454">
        <ele>318</ele>
        <time>2023-05-27T09:51:41Z</time>
      </trkpt>
      <trkpt lat="45.78237" lon="5.35446">
        <ele>318</ele>
        <time>2023-05-27T09:51:42Z</time>
      </trkpt>
      <trkpt lat="45.78229" lon="5.35434">
        <ele>318.2</ele>
        <time>2023-05-27T09:51:44Z</time>
      </trkpt>
      <trkpt lat="45.78225" lon="5.35427">
        <ele>318.4</ele>
        <time>2023-05-27T09:51:45Z</time>
      </trkpt>
      <trkpt lat="45.78221" lon="5.35421">
        <ele>318.6</ele>
        <time>2023-05-27T09:51:46Z</time>
      </trkpt>
      <trkpt lat="45.78217" lon="5.35415">
        <ele>318.6</ele>
        <time>2023-05-27T09:51:47Z</time>
      </trkpt>
      <trkpt lat="45.78213" lon="5.35408">
        <ele>318.8</ele>
        <time>2023-05-27T09:51:48Z</time>
      </trkpt>
      <trkpt lat="45.78205" lon="5.35395">
        <ele>319</ele>
        <time>2023-05-27T09:51:50Z</time>
      </trkpt>
      <trkpt lat="45.78201" lon="5.35388">
        <ele>319</ele>
        <time>2023-05-27T09:51:51Z</time>
      </trkpt>
      <trkpt lat="45.78197" lon="5.35382">
        <ele>319.4</ele>
        <time>2023-05-27T09:51:52Z</time>
      </trkpt>
      <trkpt lat="45.78193" lon="5.35375">
        <ele>319.4</ele>
        <time>2023-05-27T09:51:53Z</time>
      </trkpt>
      <trkpt lat="45.78189" lon="5.35368">
        <ele>319.4</ele>
        <time>2023-05-27T09:51:54Z</time>
      </trkpt>
      <trkpt lat="45.78181" lon="5.35354">
        <ele>319.6</ele>
        <time>2023-05-27T09:51:56Z</time>
      </trkpt>
      <trkpt lat="45.78178" lon="5.35346">
        <ele>319.6</ele>
        <time>2023-05-27T09:51:57Z</time>
      </trkpt>
      <trkpt lat="45.78174" lon="5.35339">
        <ele>319.6</ele>
        <time>2023-05-27T09:51:58Z</time>
      </trkpt>
      <trkpt lat="45.78172" lon="5.3533">
        <ele>319.8</ele>
        <time>2023-05-27T09:51:59Z</time>
      </trkpt>
      <trkpt lat="45.78169" lon="5.35322">
        <ele>319.8</ele>
        <time>2023-05-27T09:52:00Z</time>
      </trkpt>
      <trkpt lat="45.78164" lon="5.35305">
        <ele>320</ele>
        <time>2023-05-27T09:52:02Z</time>
      </trkpt>
      <trkpt lat="45.78162" lon="5.35296">
        <ele>320.2</ele>
        <time>2023-05-27T09:52:03Z</time>
      </trkpt>
      <trkpt lat="45.78161" lon="5.35288">
        <ele>320</ele>
        <time>2023-05-27T09:52:04Z</time>
      </trkpt>
      <trkpt lat="45.78159" lon="5.35279">
        <ele>320</ele>
        <time>2023-05-27T09:52:05Z</time>
      </trkpt>
      <trkpt lat="45.78158" lon="5.35271">
        <ele>320</ele>
        <time>2023-05-27T09:52:06Z</time>
      </trkpt>
      <trkpt lat="45.78155" lon="5.35253">
        <ele>320</ele>
        <time>2023-05-27T09:52:08Z</time>
      </trkpt>
      <trkpt lat="45.78153" lon="5.35245">
        <ele>319.8</ele>
        <time>2023-05-27T09:52:09Z</time>
      </trkpt>
      <trkpt lat="45.78151" lon="5.35236">
        <ele>319.8</ele>
        <time>2023-05-27T09:52:10Z</time>
      </trkpt>
      <trkpt lat="45.78147" lon="5.35226">
        <ele>319.8</ele>
        <time>2023-05-27T09:52:11Z</time>
      </trkpt>
      <trkpt lat="45.78145" lon="5.35219">
        <ele>319.8</ele>
        <time>2023-05-27T09:52:12Z</time>
      </trkpt>
      <trkpt lat="45.78138" lon="5.35203">
        <ele>319.8</ele>
        <time>2023-05-27T09:52:14Z</time>
      </trkpt>
      <trkpt lat="45.78134" lon="5.35195">
        <ele>319.8</ele>
        <time>2023-05-27T09:52:15Z</time>
      </trkpt>
      <trkpt lat="45.78131" lon="5.35188">
        <ele>319.8</ele>
        <time>2023-05-27T09:52:16Z</time>
      </trkpt>
      <trkpt lat="45.78127" lon="5.35181">
        <ele>319.8</ele>
        <time>2023-05-27T09:52:17Z</time>
      </trkpt>
      <trkpt lat="45.78123" lon="5.35173">
        <ele>320</ele>
        <time>2023-05-27T09:52:18Z</time>
      </trkpt>
      <trkpt lat="45.78116" lon="5.35159">
        <ele>320.2</ele>
        <time>2023-05-27T09:52:20Z</time>
      </trkpt>
      <trkpt lat="45.78113" lon="5.35152">
        <ele>320.2</ele>
        <time>2023-05-27T09:52:21Z</time>
      </trkpt>
      <trkpt lat="45.7811" lon="5.35145">
        <ele>320.2</ele>
        <time>2023-05-27T09:52:22Z</time>
      </trkpt>
      <trkpt lat="45.78106" lon="5.35138">
        <ele>320.2</ele>
        <time>2023-05-27T09:52:23Z</time>
      </trkpt>
      <trkpt lat="45.78103" lon="5.35131">
        <ele>320.4</ele>
        <time>2023-05-27T09:52:24Z</time>
      </trkpt>
      <trkpt lat="45.78096" lon="5.35118">
        <ele>320.4</ele>
        <time>2023-05-27T09:52:26Z</time>
      </trkpt>
      <trkpt lat="45.78093" lon="5.35112">
        <ele>320.6</ele>
        <time>2023-05-27T09:52:27Z</time>
      </trkpt>
      <trkpt lat="45.78089" lon="5.35106">
        <ele>320.6</ele>
        <time>2023-05-27T09:52:28Z</time>
      </trkpt>
      <trkpt lat="45.78086" lon="5.351">
        <ele>320.6</ele>
        <time>2023-05-27T09:52:29Z</time>
      </trkpt>
      <trkpt lat="45.78083" lon="5.35095">
        <ele>320.6</ele>
        <time>2023-05-27T09:52:30Z</time>
      </trkpt>
      <trkpt lat="45.78079" lon="5.3509">
        <ele>320.6</ele>
        <time>2023-05-27T09:52:31Z</time>
      </trkpt>
      <trkpt lat="45.78075" lon="5.35085">
        <ele>320.6</ele>
        <time>2023-05-27T09:52:32Z</time>
      </trkpt>
      <trkpt lat="45.78072" lon="5.3508">
        <ele>320.8</ele>
        <time>2023-05-27T09:52:33Z</time>
      </trkpt>
      <trkpt lat="45.78068" lon="5.35075">
        <ele>321</ele>
        <time>2023-05-27T09:52:34Z</time>
      </trkpt>
      <trkpt lat="45.78063" lon="5.3507">
        <ele>321</ele>
        <time>2023-05-27T09:52:35Z</time>
      </trkpt>
      <trkpt lat="45.78059" lon="5.35065">
        <ele>321.2</ele>
        <time>2023-05-27T09:52:36Z</time>
      </trkpt>
      <trkpt lat="45.78054" lon="5.3506">
        <ele>321.2</ele>
        <time>2023-05-27T09:52:37Z</time>
      </trkpt>
      <trkpt lat="45.7805" lon="5.35055">
        <ele>321.4</ele>
        <time>2023-05-27T09:52:38Z</time>
      </trkpt>
      <trkpt lat="45.78045" lon="5.3505">
        <ele>321.4</ele>
        <time>2023-05-27T09:52:39Z</time>
      </trkpt>
      <trkpt lat="45.78041" lon="5.35045">
        <ele>321.6</ele>
        <time>2023-05-27T09:52:40Z</time>
      </trkpt>
      <trkpt lat="45.78036" lon="5.35039">
        <ele>321.6</ele>
        <time>2023-05-27T09:52:41Z</time>
      </trkpt>
      <trkpt lat="45.78032" lon="5.35034">
        <ele>321.6</ele>
        <time>2023-05-27T09:52:42Z</time>
      </trkpt>
      <trkpt lat="45.78027" lon="5.35028">
        <ele>321.8</ele>
        <time>2023-05-27T09:52:43Z</time>
      </trkpt>
      <trkpt lat="45.78023" lon="5.35023">
        <ele>322</ele>
        <time>2023-05-27T09:52:44Z</time>
      </trkpt>
      <trkpt lat="45.78018" lon="5.35018">
        <ele>322</ele>
        <time>2023-05-27T09:52:45Z</time>
      </trkpt>
      <trkpt lat="45.78013" lon="5.35012">
        <ele>322</ele>
        <time>2023-05-27T09:52:46Z</time>
      </trkpt>
      <trkpt lat="45.78008" lon="5.35006">
        <ele>322.2</ele>
        <time>2023-05-27T09:52:47Z</time>
      </trkpt>
      <trkpt lat="45.78002" lon="5.35">
        <ele>322.2</ele>
        <time>2023-05-27T09:52:48Z</time>
      </trkpt>
      <trkpt lat="45.77992" lon="5.34988">
        <ele>322.4</ele>
        <time>2023-05-27T09:52:50Z</time>
      </trkpt>
      <trkpt lat="45.77986" lon="5.34982">
        <ele>322.4</ele>
        <time>2023-05-27T09:52:51Z</time>
      </trkpt>
      <trkpt lat="45.7798" lon="5.34975">
        <ele>322.4</ele>
        <time>2023-05-27T09:52:52Z</time>
      </trkpt>
      <trkpt lat="45.77975" lon="5.34969">
        <ele>322.4</ele>
        <time>2023-05-27T09:52:53Z</time>
      </trkpt>
      <trkpt lat="45.77969" lon="5.34962">
        <ele>322.4</ele>
        <time>2023-05-27T09:52:54Z</time>
      </trkpt>
      <trkpt lat="45.77957" lon="5.3495">
        <ele>322.4</ele>
        <time>2023-05-27T09:52:56Z</time>
      </trkpt>
      <trkpt lat="45.77951" lon="5.34944">
        <ele>322.6</ele>
        <time>2023-05-27T09:52:57Z</time>
      </trkpt>
      <trkpt lat="45.77945" lon="5.34938">
        <ele>322.6</ele>
        <time>2023-05-27T09:52:58Z</time>
      </trkpt>
      <trkpt lat="45.77938" lon="5.34932">
        <ele>322.6</ele>
        <time>2023-05-27T09:52:59Z</time>
      </trkpt>
      <trkpt lat="45.77931" lon="5.34927">
        <ele>322.6</ele>
        <time>2023-05-27T09:53:00Z</time>
      </trkpt>
      <trkpt lat="45.77923" lon="5.34921">
        <ele>322.4</ele>
        <time>2023-05-27T09:53:01Z</time>
      </trkpt>
      <trkpt lat="45.77917" lon="5.34918">
        <ele>322.4</ele>
        <time>2023-05-27T09:53:02Z</time>
      </trkpt>
      <trkpt lat="45.77907" lon="5.34913">
        <ele>322.4</ele>
        <time>2023-05-27T09:53:03Z</time>
      </trkpt>
      <trkpt lat="45.77901" lon="5.34911">
        <ele>322.2</ele>
        <time>2023-05-27T09:53:04Z</time>
      </trkpt>
      <trkpt lat="45.77892" lon="5.34908">
        <ele>322.2</ele>
        <time>2023-05-27T09:53:05Z</time>
      </trkpt>
      <trkpt lat="45.77884" lon="5.34906">
        <ele>322.2</ele>
        <time>2023-05-27T09:53:06Z</time>
      </trkpt>
      <trkpt lat="45.77867" lon="5.34902">
        <ele>322.2</ele>
        <time>2023-05-27T09:53:08Z</time>
      </trkpt>
      <trkpt lat="45.77858" lon="5.349">
        <ele>322</ele>
        <time>2023-05-27T09:53:09Z</time>
      </trkpt>
      <trkpt lat="45.7785" lon="5.34899">
        <ele>322</ele>
        <time>2023-05-27T09:53:10Z</time>
      </trkpt>
      <trkpt lat="45.77841" lon="5.349">
        <ele>322</ele>
        <time>2023-05-27T09:53:11Z</time>
      </trkpt>
      <trkpt lat="45.77833" lon="5.34902">
        <ele>321.8</ele>
        <time>2023-05-27T09:53:12Z</time>
      </trkpt>
      <trkpt lat="45.77817" lon="5.34908">
        <ele>321.8</ele>
        <time>2023-05-27T09:53:14Z</time>
      </trkpt>
      <trkpt lat="45.7781" lon="5.34912">
        <ele>321.8</ele>
        <time>2023-05-27T09:53:15Z</time>
      </trkpt>
      <trkpt lat="45.77803" lon="5.34916">
        <ele>321.8</ele>
        <time>2023-05-27T09:53:16Z</time>
      </trkpt>
      <trkpt lat="45.77796" lon="5.3492">
        <ele>321.8</ele>
        <time>2023-05-27T09:53:17Z</time>
      </trkpt>
      <trkpt lat="45.77789" lon="5.34924">
        <ele>322</ele>
        <time>2023-05-27T09:53:18Z</time>
      </trkpt>
      <trkpt lat="45.77776" lon="5.34932">
        <ele>322</ele>
        <time>2023-05-27T09:53:20Z</time>
      </trkpt>
      <trkpt lat="45.7777" lon="5.34934">
        <ele>322</ele>
        <time>2023-05-27T09:53:21Z</time>
      </trkpt>
      <trkpt lat="45.77763" lon="5.34936">
        <ele>322.2</ele>
        <time>2023-05-27T09:53:22Z</time>
      </trkpt>
      <trkpt lat="45.77757" lon="5.34936">
        <ele>322.2</ele>
        <time>2023-05-27T09:53:23Z</time>
      </trkpt>
      <trkpt lat="45.77751" lon="5.34936">
        <ele>322.2</ele>
        <time>2023-05-27T09:53:24Z</time>
      </trkpt>
      <trkpt lat="45.77738" lon="5.34932">
        <ele>322.2</ele>
        <time>2023-05-27T09:53:26Z</time>
      </trkpt>
      <trkpt lat="45.77732" lon="5.34929">
        <ele>322.4</ele>
        <time>2023-05-27T09:53:27Z</time>
      </trkpt>
      <trkpt lat="45.77726" lon="5.34923">
        <ele>322.4</ele>
        <time>2023-05-27T09:53:28Z</time>
      </trkpt>
      <trkpt lat="45.7772" lon="5.34917">
        <ele>322.4</ele>
        <time>2023-05-27T09:53:29Z</time>
      </trkpt>
      <trkpt lat="45.77715" lon="5.34911">
        <ele>322.6</ele>
        <time>2023-05-27T09:53:30Z</time>
      </trkpt>
      <trkpt lat="45.77704" lon="5.34898">
        <ele>322.6</ele>
        <time>2023-05-27T09:53:32Z</time>
      </trkpt>
      <trkpt lat="45.77699" lon="5.34891">
        <ele>322.6</ele>
        <time>2023-05-27T09:53:33Z</time>
      </trkpt>
      <trkpt lat="45.77693" lon="5.34884">
        <ele>322.6</ele>
        <time>2023-05-27T09:53:34Z</time>
      </trkpt>
      <trkpt lat="45.77688" lon="5.34877">
        <ele>322.6</ele>
        <time>2023-05-27T09:53:35Z</time>
      </trkpt>
      <trkpt lat="45.77683" lon="5.34871">
        <ele>322.8</ele>
        <time>2023-05-27T09:53:36Z</time>
      </trkpt>
      <trkpt lat="45.77672" lon="5.34857">
        <ele>322.8</ele>
        <time>2023-05-27T09:53:38Z</time>
      </trkpt>
      <trkpt lat="45.77667" lon="5.34851">
        <ele>322.8</ele>
        <time>2023-05-27T09:53:39Z</time>
      </trkpt>
      <trkpt lat="45.77662" lon="5.34844">
        <ele>322.8</ele>
        <time>2023-05-27T09:53:40Z</time>
      </trkpt>
      <trkpt lat="45.77655" lon="5.34836">
        <ele>322.8</ele>
        <time>2023-05-27T09:53:41Z</time>
      </trkpt>
      <trkpt lat="45.77651" lon="5.34831">
        <ele>322.8</ele>
        <time>2023-05-27T09:53:42Z</time>
      </trkpt>
      <trkpt lat="45.7764" lon="5.34819">
        <ele>322.8</ele>
        <time>2023-05-27T09:53:44Z</time>
      </trkpt>
      <trkpt lat="45.77634" lon="5.34814">
        <ele>322.8</ele>
        <time>2023-05-27T09:53:45Z</time>
      </trkpt>
      <trkpt lat="45.77628" lon="5.34809">
        <ele>322.8</ele>
        <time>2023-05-27T09:53:46Z</time>
      </trkpt>
      <trkpt lat="45.77621" lon="5.34805">
        <ele>322.8</ele>
        <time>2023-05-27T09:53:47Z</time>
      </trkpt>
      <trkpt lat="45.77615" lon="5.34801">
        <ele>322.8</ele>
        <time>2023-05-27T09:53:48Z</time>
      </trkpt>
      <trkpt lat="45.77602" lon="5.34794">
        <ele>323.2</ele>
        <time>2023-05-27T09:53:50Z</time>
      </trkpt>
      <trkpt lat="45.77595" lon="5.34792">
        <ele>323.2</ele>
        <time>2023-05-27T09:53:51Z</time>
      </trkpt>
      <trkpt lat="45.77589" lon="5.34789">
        <ele>323.2</ele>
        <time>2023-05-27T09:53:52Z</time>
      </trkpt>
      <trkpt lat="45.77583" lon="5.34787">
        <ele>323.2</ele>
        <time>2023-05-27T09:53:53Z</time>
      </trkpt>
      <trkpt lat="45.77576" lon="5.34784">
        <ele>323</ele>
        <time>2023-05-27T09:53:54Z</time>
      </trkpt>
      <trkpt lat="45.77564" lon="5.34779">
        <ele>323.2</ele>
        <time>2023-05-27T09:53:56Z</time>
      </trkpt>
      <trkpt lat="45.77558" lon="5.34776">
        <ele>323.4</ele>
        <time>2023-05-27T09:53:57Z</time>
      </trkpt>
      <trkpt lat="45.77552" lon="5.34773">
        <ele>323.4</ele>
        <time>2023-05-27T09:53:58Z</time>
      </trkpt>
      <trkpt lat="45.77546" lon="5.34771">
        <ele>323.4</ele>
        <time>2023-05-27T09:53:59Z</time>
      </trkpt>
      <trkpt lat="45.7754" lon="5.34768">
        <ele>323.4</ele>
        <time>2023-05-27T09:54:00Z</time>
      </trkpt>
      <trkpt lat="45.77528" lon="5.34763">
        <ele>323.2</ele>
        <time>2023-05-27T09:54:02Z</time>
      </trkpt>
      <trkpt lat="45.77522" lon="5.34761">
        <ele>323</ele>
        <time>2023-05-27T09:54:03Z</time>
      </trkpt>
      <trkpt lat="45.77517" lon="5.34758">
        <ele>323</ele>
        <time>2023-05-27T09:54:04Z</time>
      </trkpt>
      <trkpt lat="45.77506" lon="5.34753">
        <ele>323.2</ele>
        <time>2023-05-27T09:54:06Z</time>
      </trkpt>
      <trkpt lat="45.775" lon="5.34751">
        <ele>323.2</ele>
        <time>2023-05-27T09:54:07Z</time>
      </trkpt>
      <trkpt lat="45.77494" lon="5.34749">
        <ele>323.2</ele>
        <time>2023-05-27T09:54:08Z</time>
      </trkpt>
      <trkpt lat="45.77488" lon="5.34746">
        <ele>323.2</ele>
        <time>2023-05-27T09:54:09Z</time>
      </trkpt>
      <trkpt lat="45.77483" lon="5.34743">
        <ele>323</ele>
        <time>2023-05-27T09:54:10Z</time>
      </trkpt>
      <trkpt lat="45.77477" lon="5.34739">
        <ele>323.2</ele>
        <time>2023-05-27T09:54:11Z</time>
      </trkpt>
      <trkpt lat="45.77472" lon="5.34734">
        <ele>323.2</ele>
        <time>2023-05-27T09:54:12Z</time>
      </trkpt>
      <trkpt lat="45.77467" lon="5.34729">
        <ele>323.2</ele>
        <time>2023-05-27T09:54:13Z</time>
      </trkpt>
      <trkpt lat="45.77457" lon="5.34717">
        <ele>323.2</ele>
        <time>2023-05-27T09:54:15Z</time>
      </trkpt>
      <trkpt lat="45.77453" lon="5.3471">
        <ele>323.2</ele>
        <time>2023-05-27T09:54:16Z</time>
      </trkpt>
      <trkpt lat="45.77449" lon="5.34704">
        <ele>323.2</ele>
        <time>2023-05-27T09:54:17Z</time>
      </trkpt>
      <trkpt lat="45.77445" lon="5.34697">
        <ele>323.2</ele>
        <time>2023-05-27T09:54:18Z</time>
      </trkpt>
      <trkpt lat="45.77437" lon="5.34684">
        <ele>323</ele>
        <time>2023-05-27T09:54:20Z</time>
      </trkpt>
      <trkpt lat="45.77433" lon="5.34678">
        <ele>323.4</ele>
        <time>2023-05-27T09:54:21Z</time>
      </trkpt>
      <trkpt lat="45.77429" lon="5.34671">
        <ele>323.8</ele>
        <time>2023-05-27T09:54:22Z</time>
      </trkpt>
      <trkpt lat="45.77425" lon="5.34665">
        <ele>323.8</ele>
        <time>2023-05-27T09:54:23Z</time>
      </trkpt>
      <trkpt lat="45.77422" lon="5.34659">
        <ele>323.6</ele>
        <time>2023-05-27T09:54:24Z</time>
      </trkpt>
      <trkpt lat="45.77415" lon="5.34646">
        <ele>323.8</ele>
        <time>2023-05-27T09:54:26Z</time>
      </trkpt>
      <trkpt lat="45.77411" lon="5.3464">
        <ele>323.8</ele>
        <time>2023-05-27T09:54:27Z</time>
      </trkpt>
      <trkpt lat="45.77408" lon="5.34634">
        <ele>323.8</ele>
        <time>2023-05-27T09:54:28Z</time>
      </trkpt>
      <trkpt lat="45.77404" lon="5.34628">
        <ele>324</ele>
        <time>2023-05-27T09:54:29Z</time>
      </trkpt>
      <trkpt lat="45.77401" lon="5.34622">
        <ele>324</ele>
        <time>2023-05-27T09:54:30Z</time>
      </trkpt>
      <trkpt lat="45.77393" lon="5.3461">
        <ele>324.2</ele>
        <time>2023-05-27T09:54:32Z</time>
      </trkpt>
      <trkpt lat="45.77389" lon="5.34602">
        <ele>324.4</ele>
        <time>2023-05-27T09:54:33Z</time>
      </trkpt>
      <trkpt lat="45.77386" lon="5.34598">
        <ele>324.4</ele>
        <time>2023-05-27T09:54:34Z</time>
      </trkpt>
      <trkpt lat="45.77383" lon="5.34592">
        <ele>324.6</ele>
        <time>2023-05-27T09:54:35Z</time>
      </trkpt>
      <trkpt lat="45.77379" lon="5.34586">
        <ele>324.6</ele>
        <time>2023-05-27T09:54:36Z</time>
      </trkpt>
      <trkpt lat="45.77372" lon="5.34573">
        <ele>324.8</ele>
        <time>2023-05-27T09:54:38Z</time>
      </trkpt>
      <trkpt lat="45.77369" lon="5.34568">
        <ele>324.8</ele>
        <time>2023-05-27T09:54:39Z</time>
      </trkpt>
      <trkpt lat="45.77366" lon="5.34562">
        <ele>325</ele>
        <time>2023-05-27T09:54:40Z</time>
      </trkpt>
      <trkpt lat="45.77363" lon="5.34557">
        <ele>325</ele>
        <time>2023-05-27T09:54:41Z</time>
      </trkpt>
      <trkpt lat="45.7736" lon="5.34551">
        <ele>325.2</ele>
        <time>2023-05-27T09:54:42Z</time>
      </trkpt>
      <trkpt lat="45.77357" lon="5.34546">
        <ele>325.4</ele>
        <time>2023-05-27T09:54:43Z</time>
      </trkpt>
      <trkpt lat="45.77354" lon="5.34541">
        <ele>325.6</ele>
        <time>2023-05-27T09:54:44Z</time>
      </trkpt>
      <trkpt lat="45.77351" lon="5.34537">
        <ele>325.8</ele>
        <time>2023-05-27T09:54:45Z</time>
      </trkpt>
      <trkpt lat="45.77347" lon="5.34532">
        <ele>326</ele>
        <time>2023-05-27T09:54:46Z</time>
      </trkpt>
      <trkpt lat="45.77344" lon="5.34527">
        <ele>326.2</ele>
        <time>2023-05-27T09:54:47Z</time>
      </trkpt>
      <trkpt lat="45.77341" lon="5.34522">
        <ele>326.4</ele>
        <time>2023-05-27T09:54:48Z</time>
      </trkpt>
      <trkpt lat="45.77334" lon="5.34511">
        <ele>326.6</ele>
        <time>2023-05-27T09:54:50Z</time>
      </trkpt>
      <trkpt lat="45.7733" lon="5.34506">
        <ele>326.8</ele>
        <time>2023-05-27T09:54:51Z</time>
      </trkpt>
      <trkpt lat="45.77327" lon="5.34501">
        <ele>327</ele>
        <time>2023-05-27T09:54:52Z</time>
      </trkpt>
      <trkpt lat="45.77324" lon="5.34495">
        <ele>327.2</ele>
        <time>2023-05-27T09:54:53Z</time>
      </trkpt>
      <trkpt lat="45.77321" lon="5.34489">
        <ele>327.4</ele>
        <time>2023-05-27T09:54:54Z</time>
      </trkpt>
      <trkpt lat="45.77318" lon="5.34483">
        <ele>327.4</ele>
        <time>2023-05-27T09:54:55Z</time>
      </trkpt>
      <trkpt lat="45.77314" lon="5.34478">
        <ele>327.6</ele>
        <time>2023-05-27T09:54:56Z</time>
      </trkpt>
      <trkpt lat="45.77311" lon="5.34472">
        <ele>327.8</ele>
        <time>2023-05-27T09:54:57Z</time>
      </trkpt>
      <trkpt lat="45.77308" lon="5.34466">
        <ele>328</ele>
        <time>2023-05-27T09:54:58Z</time>
      </trkpt>
      <trkpt lat="45.77304" lon="5.3446">
        <ele>328.2</ele>
        <time>2023-05-27T09:54:59Z</time>
      </trkpt>
      <trkpt lat="45.77301" lon="5.34455">
        <ele>328.2</ele>
        <time>2023-05-27T09:55:00Z</time>
      </trkpt>
      <trkpt lat="45.77293" lon="5.34443">
        <ele>328.6</ele>
        <time>2023-05-27T09:55:02Z</time>
      </trkpt>
      <trkpt lat="45.7729" lon="5.34437">
        <ele>328.8</ele>
        <time>2023-05-27T09:55:03Z</time>
      </trkpt>
      <trkpt lat="45.77286" lon="5.34431">
        <ele>329</ele>
        <time>2023-05-27T09:55:04Z</time>
      </trkpt>
      <trkpt lat="45.77282" lon="5.34424">
        <ele>329.2</ele>
        <time>2023-05-27T09:55:05Z</time>
      </trkpt>
      <trkpt lat="45.77278" lon="5.34418">
        <ele>329.6</ele>
        <time>2023-05-27T09:55:06Z</time>
      </trkpt>
      <trkpt lat="45.77274" lon="5.34411">
        <ele>329.6</ele>
        <time>2023-05-27T09:55:07Z</time>
      </trkpt>
      <trkpt lat="45.7727" lon="5.34404">
        <ele>329.8</ele>
        <time>2023-05-27T09:55:08Z</time>
      </trkpt>
      <trkpt lat="45.77266" lon="5.34398">
        <ele>330</ele>
        <time>2023-05-27T09:55:09Z</time>
      </trkpt>
      <trkpt lat="45.77262" lon="5.34391">
        <ele>330.2</ele>
        <time>2023-05-27T09:55:10Z</time>
      </trkpt>
      <trkpt lat="45.77258" lon="5.34384">
        <ele>330.4</ele>
        <time>2023-05-27T09:55:11Z</time>
      </trkpt>
      <trkpt lat="45.77254" lon="5.34377">
        <ele>330.8</ele>
        <time>2023-05-27T09:55:12Z</time>
      </trkpt>
      <trkpt lat="45.77245" lon="5.34363">
        <ele>331.2</ele>
        <time>2023-05-27T09:55:14Z</time>
      </trkpt>
      <trkpt lat="45.77241" lon="5.34355">
        <ele>331.4</ele>
        <time>2023-05-27T09:55:15Z</time>
      </trkpt>
      <trkpt lat="45.77236" lon="5.34348">
        <ele>331.6</ele>
        <time>2023-05-27T09:55:16Z</time>
      </trkpt>
      <trkpt lat="45.77231" lon="5.3434">
        <ele>332.2</ele>
        <time>2023-05-27T09:55:17Z</time>
      </trkpt>
      <trkpt lat="45.77227" lon="5.34333">
        <ele>332.4</ele>
        <time>2023-05-27T09:55:18Z</time>
      </trkpt>
      <trkpt lat="45.77217" lon="5.34317">
        <ele>332.8</ele>
        <time>2023-05-27T09:55:20Z</time>
      </trkpt>
      <trkpt lat="45.77213" lon="5.34309">
        <ele>333</ele>
        <time>2023-05-27T09:55:21Z</time>
      </trkpt>
      <trkpt lat="45.77208" lon="5.34301">
        <ele>333</ele>
        <time>2023-05-27T09:55:22Z</time>
      </trkpt>
      <trkpt lat="45.77203" lon="5.34293">
        <ele>333.2</ele>
        <time>2023-05-27T09:55:23Z</time>
      </trkpt>
      <trkpt lat="45.77198" lon="5.34285">
        <ele>333.2</ele>
        <time>2023-05-27T09:55:24Z</time>
      </trkpt>
      <trkpt lat="45.77188" lon="5.34269">
        <ele>333.2</ele>
        <time>2023-05-27T09:55:26Z</time>
      </trkpt>
      <trkpt lat="45.77184" lon="5.34261">
        <ele>333.2</ele>
        <time>2023-05-27T09:55:27Z</time>
      </trkpt>
      <trkpt lat="45.77179" lon="5.34252">
        <ele>333.2</ele>
        <time>2023-05-27T09:55:28Z</time>
      </trkpt>
      <trkpt lat="45.77173" lon="5.34244">
        <ele>333.2</ele>
        <time>2023-05-27T09:55:29Z</time>
      </trkpt>
      <trkpt lat="45.77168" lon="5.34236">
        <ele>333.2</ele>
        <time>2023-05-27T09:55:30Z</time>
      </trkpt>
      <trkpt lat="45.77158" lon="5.3422">
        <ele>333.2</ele>
        <time>2023-05-27T09:55:32Z</time>
      </trkpt>
      <trkpt lat="45.77153" lon="5.34211">
        <ele>333.2</ele>
        <time>2023-05-27T09:55:33Z</time>
      </trkpt>
      <trkpt lat="45.77148" lon="5.34203">
        <ele>333.2</ele>
        <time>2023-05-27T09:55:34Z</time>
      </trkpt>
      <trkpt lat="45.77143" lon="5.34195">
        <ele>333.2</ele>
        <time>2023-05-27T09:55:35Z</time>
      </trkpt>
      <trkpt lat="45.77138" lon="5.34186">
        <ele>333.2</ele>
        <time>2023-05-27T09:55:36Z</time>
      </trkpt>
      <trkpt lat="45.77128" lon="5.34169">
        <ele>333.2</ele>
        <time>2023-05-27T09:55:38Z</time>
      </trkpt>
      <trkpt lat="45.77122" lon="5.34161">
        <ele>333.2</ele>
        <time>2023-05-27T09:55:39Z</time>
      </trkpt>
      <trkpt lat="45.77117" lon="5.34153">
        <ele>333.2</ele>
        <time>2023-05-27T09:55:40Z</time>
      </trkpt>
      <trkpt lat="45.77112" lon="5.34144">
        <ele>333.2</ele>
        <time>2023-05-27T09:55:41Z</time>
      </trkpt>
      <trkpt lat="45.77107" lon="5.34135">
        <ele>333.2</ele>
        <time>2023-05-27T09:55:42Z</time>
      </trkpt>
      <trkpt lat="45.77091" lon="5.34109">
        <ele>333.2</ele>
        <time>2023-05-27T09:55:44Z</time>
      </trkpt>
      <trkpt lat="45.77086" lon="5.341">
        <ele>333.2</ele>
        <time>2023-05-27T09:55:45Z</time>
      </trkpt>
      <trkpt lat="45.77086" lon="5.341">
        <ele>333.2</ele>
        <time>2023-05-27T09:55:46Z</time>
      </trkpt>
      <trkpt lat="45.77075" lon="5.34083">
        <ele>333.4</ele>
        <time>2023-05-27T09:55:47Z</time>
      </trkpt>
      <trkpt lat="45.7707" lon="5.34074">
        <ele>333.4</ele>
        <time>2023-05-27T09:55:48Z</time>
      </trkpt>
      <trkpt lat="45.77065" lon="5.34065">
        <ele>333.6</ele>
        <time>2023-05-27T09:55:50Z</time>
      </trkpt>
      <trkpt lat="45.77054" lon="5.34047">
        <ele>333.8</ele>
        <time>2023-05-27T09:55:51Z</time>
      </trkpt>
      <trkpt lat="45.77049" lon="5.34038">
        <ele>334</ele>
        <time>2023-05-27T09:55:52Z</time>
      </trkpt>
      <trkpt lat="45.77043" lon="5.3403">
        <ele>334</ele>
        <time>2023-05-27T09:55:53Z</time>
      </trkpt>
      <trkpt lat="45.77043" lon="5.3403">
        <ele>333.8</ele>
        <time>2023-05-27T09:55:54Z</time>
      </trkpt>
      <trkpt lat="45.77027" lon="5.34003">
        <ele>334.2</ele>
        <time>2023-05-27T09:55:56Z</time>
      </trkpt>
      <trkpt lat="45.77021" lon="5.33994">
        <ele>334.2</ele>
        <time>2023-05-27T09:55:57Z</time>
      </trkpt>
      <trkpt lat="45.77016" lon="5.33985">
        <ele>334.2</ele>
        <time>2023-05-27T09:55:58Z</time>
      </trkpt>
      <trkpt lat="45.7701" lon="5.33975">
        <ele>334.4</ele>
        <time>2023-05-27T09:55:59Z</time>
      </trkpt>
      <trkpt lat="45.7701" lon="5.33975">
        <ele>334.6</ele>
        <time>2023-05-27T09:56:00Z</time>
      </trkpt>
      <trkpt lat="45.76994" lon="5.33948">
        <ele>334.6</ele>
        <time>2023-05-27T09:56:02Z</time>
      </trkpt>
      <trkpt lat="45.76988" lon="5.33939">
        <ele>334.6</ele>
        <time>2023-05-27T09:56:03Z</time>
      </trkpt>
      <trkpt lat="45.76988" lon="5.33939">
        <ele>334.6</ele>
        <time>2023-05-27T09:56:04Z</time>
      </trkpt>
      <trkpt lat="45.76977" lon="5.33922">
        <ele>334.8</ele>
        <time>2023-05-27T09:56:05Z</time>
      </trkpt>
      <trkpt lat="45.76977" lon="5.33922">
        <ele>335</ele>
        <time>2023-05-27T09:56:06Z</time>
      </trkpt>
      <trkpt lat="45.76961" lon="5.33895">
        <ele>335.2</ele>
        <time>2023-05-27T09:56:08Z</time>
      </trkpt>
      <trkpt lat="45.76956" lon="5.33887">
        <ele>335.2</ele>
        <time>2023-05-27T09:56:09Z</time>
      </trkpt>
      <trkpt lat="45.76951" lon="5.33878">
        <ele>335.2</ele>
        <time>2023-05-27T09:56:10Z</time>
      </trkpt>
      <trkpt lat="45.76945" lon="5.33869">
        <ele>335.2</ele>
        <time>2023-05-27T09:56:11Z</time>
      </trkpt>
      <trkpt lat="45.76945" lon="5.33869">
        <ele>335.2</ele>
        <time>2023-05-27T09:56:12Z</time>
      </trkpt>
      <trkpt lat="45.7693" lon="5.33844">
        <ele>335.2</ele>
        <time>2023-05-27T09:56:14Z</time>
      </trkpt>
      <trkpt lat="45.7693" lon="5.33844">
        <ele>335.4</ele>
        <time>2023-05-27T09:56:15Z</time>
      </trkpt>
      <trkpt lat="45.76925" lon="5.33835">
        <ele>335.6</ele>
        <time>2023-05-27T09:56:16Z</time>
      </trkpt>
      <trkpt lat="45.76914" lon="5.33818">
        <ele>335.8</ele>
        <time>2023-05-27T09:56:17Z</time>
      </trkpt>
      <trkpt lat="45.76909" lon="5.33808">
        <ele>336</ele>
        <time>2023-05-27T09:56:18Z</time>
      </trkpt>
      <trkpt lat="45.76898" lon="5.3379">
        <ele>336.2</ele>
        <time>2023-05-27T09:56:20Z</time>
      </trkpt>
      <trkpt lat="45.76892" lon="5.33781">
        <ele>336.2</ele>
        <time>2023-05-27T09:56:21Z</time>
      </trkpt>
      <trkpt lat="45.76887" lon="5.33772">
        <ele>336.2</ele>
        <time>2023-05-27T09:56:22Z</time>
      </trkpt>
      <trkpt lat="45.76887" lon="5.33772">
        <ele>336.4</ele>
        <time>2023-05-27T09:56:23Z</time>
      </trkpt>
      <trkpt lat="45.76876" lon="5.33753">
        <ele>336.4</ele>
        <time>2023-05-27T09:56:24Z</time>
      </trkpt>
      <trkpt lat="45.76865" lon="5.33735">
        <ele>336.4</ele>
        <time>2023-05-27T09:56:26Z</time>
      </trkpt>
      <trkpt lat="45.76859" lon="5.33726">
        <ele>336</ele>
        <time>2023-05-27T09:56:27Z</time>
      </trkpt>
      <trkpt lat="45.76854" lon="5.33717">
        <ele>335.8</ele>
        <time>2023-05-27T09:56:28Z</time>
      </trkpt>
      <trkpt lat="45.76848" lon="5.33708">
        <ele>335.8</ele>
        <time>2023-05-27T09:56:29Z</time>
      </trkpt>
      <trkpt lat="45.76843" lon="5.33699">
        <ele>335.6</ele>
        <time>2023-05-27T09:56:30Z</time>
      </trkpt>
      <trkpt lat="45.76837" lon="5.3369">
        <ele>335.6</ele>
        <time>2023-05-27T09:56:32Z</time>
      </trkpt>
      <trkpt lat="45.76826" lon="5.33672">
        <ele>335.4</ele>
        <time>2023-05-27T09:56:33Z</time>
      </trkpt>
      <trkpt lat="45.76821" lon="5.33663">
        <ele>335.4</ele>
        <time>2023-05-27T09:56:34Z</time>
      </trkpt>
      <trkpt lat="45.76815" lon="5.33653">
        <ele>335.2</ele>
        <time>2023-05-27T09:56:35Z</time>
      </trkpt>
      <trkpt lat="45.76809" lon="5.33644">
        <ele>335.2</ele>
        <time>2023-05-27T09:56:36Z</time>
      </trkpt>
      <trkpt lat="45.76798" lon="5.33626">
        <ele>335.2</ele>
        <time>2023-05-27T09:56:38Z</time>
      </trkpt>
      <trkpt lat="45.76792" lon="5.33617">
        <ele>335.2</ele>
        <time>2023-05-27T09:56:39Z</time>
      </trkpt>
      <trkpt lat="45.76786" lon="5.33607">
        <ele>335.2</ele>
        <time>2023-05-27T09:56:40Z</time>
      </trkpt>
      <trkpt lat="45.76786" lon="5.33607">
        <ele>335.4</ele>
        <time>2023-05-27T09:56:41Z</time>
      </trkpt>
      <trkpt lat="45.76775" lon="5.33588">
        <ele>335.4</ele>
        <time>2023-05-27T09:56:42Z</time>
      </trkpt>
      <trkpt lat="45.76763" lon="5.3357">
        <ele>335</ele>
        <time>2023-05-27T09:56:44Z</time>
      </trkpt>
      <trkpt lat="45.76757" lon="5.3356">
        <ele>334.8</ele>
        <time>2023-05-27T09:56:45Z</time>
      </trkpt>
      <trkpt lat="45.76751" lon="5.33551">
        <ele>334.6</ele>
        <time>2023-05-27T09:56:46Z</time>
      </trkpt>
      <trkpt lat="45.76751" lon="5.33551">
        <ele>334.4</ele>
        <time>2023-05-27T09:56:47Z</time>
      </trkpt>
      <trkpt lat="45.7674" lon="5.33531">
        <ele>334.4</ele>
        <time>2023-05-27T09:56:48Z</time>
      </trkpt>
      <trkpt lat="45.76728" lon="5.33513">
        <ele>334.2</ele>
        <time>2023-05-27T09:56:50Z</time>
      </trkpt>
      <trkpt lat="45.76723" lon="5.33503">
        <ele>334</ele>
        <time>2023-05-27T09:56:51Z</time>
      </trkpt>
      <trkpt lat="45.76717" lon="5.33494">
        <ele>333.8</ele>
        <time>2023-05-27T09:56:52Z</time>
      </trkpt>
      <trkpt lat="45.76711" lon="5.33484">
        <ele>333.6</ele>
        <time>2023-05-27T09:56:53Z</time>
      </trkpt>
      <trkpt lat="45.76705" lon="5.33475">
        <ele>333.6</ele>
        <time>2023-05-27T09:56:54Z</time>
      </trkpt>
      <trkpt lat="45.76705" lon="5.33475">
        <ele>333.4</ele>
        <time>2023-05-27T09:56:55Z</time>
      </trkpt>
      <trkpt lat="45.76693" lon="5.33456">
        <ele>333.2</ele>
        <time>2023-05-27T09:56:56Z</time>
      </trkpt>
      <trkpt lat="45.76687" lon="5.33446">
        <ele>333</ele>
        <time>2023-05-27T09:56:57Z</time>
      </trkpt>
      <trkpt lat="45.7668" lon="5.33437">
        <ele>332.6</ele>
        <time>2023-05-27T09:56:58Z</time>
      </trkpt>
      <trkpt lat="45.7668" lon="5.33437">
        <ele>332.4</ele>
        <time>2023-05-27T09:56:59Z</time>
      </trkpt>
      <trkpt lat="45.76666" lon="5.33421">
        <ele>332.2</ele>
        <time>2023-05-27T09:57:00Z</time>
      </trkpt>
      <trkpt lat="45.76659" lon="5.33415">
        <ele>331.8</ele>
        <time>2023-05-27T09:57:01Z</time>
      </trkpt>
      <trkpt lat="45.76651" lon="5.3341">
        <ele>331.6</ele>
        <time>2023-05-27T09:57:02Z</time>
      </trkpt>
      <trkpt lat="45.76643" lon="5.33404">
        <ele>331</ele>
        <time>2023-05-27T09:57:03Z</time>
      </trkpt>
      <trkpt lat="45.76634" lon="5.33399">
        <ele>330.8</ele>
        <time>2023-05-27T09:57:04Z</time>
      </trkpt>
      <trkpt lat="45.76626" lon="5.33394">
        <ele>330.4</ele>
        <time>2023-05-27T09:57:05Z</time>
      </trkpt>
      <trkpt lat="45.76618" lon="5.33388">
        <ele>330.4</ele>
        <time>2023-05-27T09:57:06Z</time>
      </trkpt>
      <trkpt lat="45.76601" lon="5.33376">
        <ele>330</ele>
        <time>2023-05-27T09:57:08Z</time>
      </trkpt>
      <trkpt lat="45.76601" lon="5.33376">
        <ele>329.8</ele>
        <time>2023-05-27T09:57:09Z</time>
      </trkpt>
      <trkpt lat="45.76585" lon="5.33362">
        <ele>329.6</ele>
        <time>2023-05-27T09:57:10Z</time>
      </trkpt>
      <trkpt lat="45.76578" lon="5.33354">
        <ele>329.6</ele>
        <time>2023-05-27T09:57:11Z</time>
      </trkpt>
      <trkpt lat="45.76578" lon="5.33354">
        <ele>329.4</ele>
        <time>2023-05-27T09:57:12Z</time>
      </trkpt>
      <trkpt lat="45.76564" lon="5.33336">
        <ele>329.2</ele>
        <time>2023-05-27T09:57:13Z</time>
      </trkpt>
      <trkpt lat="45.76558" lon="5.33327">
        <ele>328.8</ele>
        <time>2023-05-27T09:57:14Z</time>
      </trkpt>
      <trkpt lat="45.76558" lon="5.33327">
        <ele>328.8</ele>
        <time>2023-05-27T09:57:15Z</time>
      </trkpt>
      <trkpt lat="45.76546" lon="5.33309">
        <ele>328.4</ele>
        <time>2023-05-27T09:57:16Z</time>
      </trkpt>
      <trkpt lat="45.7654" lon="5.33299">
        <ele>328.2</ele>
        <time>2023-05-27T09:57:17Z</time>
      </trkpt>
      <trkpt lat="45.7654" lon="5.33299">
        <ele>328</ele>
        <time>2023-05-27T09:57:18Z</time>
      </trkpt>
      <trkpt lat="45.76521" lon="5.33272">
        <ele>327.8</ele>
        <time>2023-05-27T09:57:20Z</time>
      </trkpt>
      <trkpt lat="45.76521" lon="5.33272">
        <ele>327.4</ele>
        <time>2023-05-27T09:57:21Z</time>
      </trkpt>
      <trkpt lat="45.76509" lon="5.33253">
        <ele>327.4</ele>
        <time>2023-05-27T09:57:22Z</time>
      </trkpt>
      <trkpt lat="45.76502" lon="5.33243">
        <ele>327.4</ele>
        <time>2023-05-27T09:57:23Z</time>
      </trkpt>
      <trkpt lat="45.76496" lon="5.33234">
        <ele>327.2</ele>
        <time>2023-05-27T09:57:24Z</time>
      </trkpt>
      <trkpt lat="45.76484" lon="5.33216">
        <ele>326.8</ele>
        <time>2023-05-27T09:57:26Z</time>
      </trkpt>
      <trkpt lat="45.76477" lon="5.33207">
        <ele>326.6</ele>
        <time>2023-05-27T09:57:27Z</time>
      </trkpt>
      <trkpt lat="45.76471" lon="5.33199">
        <ele>326.4</ele>
        <time>2023-05-27T09:57:28Z</time>
      </trkpt>
      <trkpt lat="45.76464" lon="5.3319">
        <ele>326.4</ele>
        <time>2023-05-27T09:57:29Z</time>
      </trkpt>
      <trkpt lat="45.76457" lon="5.33183">
        <ele>326</ele>
        <time>2023-05-27T09:57:30Z</time>
      </trkpt>
      <trkpt lat="45.76449" lon="5.33176">
        <ele>326.2</ele>
        <time>2023-05-27T09:57:31Z</time>
      </trkpt>
      <trkpt lat="45.76441" lon="5.3317">
        <ele>326</ele>
        <time>2023-05-27T09:57:32Z</time>
      </trkpt>
      <trkpt lat="45.76432" lon="5.33164">
        <ele>326</ele>
        <time>2023-05-27T09:57:33Z</time>
      </trkpt>
      <trkpt lat="45.76424" lon="5.33159">
        <ele>325.8</ele>
        <time>2023-05-27T09:57:34Z</time>
      </trkpt>
      <trkpt lat="45.76415" lon="5.33155">
        <ele>325.8</ele>
        <time>2023-05-27T09:57:35Z</time>
      </trkpt>
      <trkpt lat="45.76407" lon="5.3315">
        <ele>325.8</ele>
        <time>2023-05-27T09:57:36Z</time>
      </trkpt>
      <trkpt lat="45.76389" lon="5.33142">
        <ele>325.6</ele>
        <time>2023-05-27T09:57:38Z</time>
      </trkpt>
      <trkpt lat="45.7638" lon="5.33138">
        <ele>325.4</ele>
        <time>2023-05-27T09:57:39Z</time>
      </trkpt>
      <trkpt lat="45.76371" lon="5.33133">
        <ele>325</ele>
        <time>2023-05-27T09:57:40Z</time>
      </trkpt>
      <trkpt lat="45.76362" lon="5.33129">
        <ele>324.8</ele>
        <time>2023-05-27T09:57:41Z</time>
      </trkpt>
      <trkpt lat="45.76353" lon="5.33124">
        <ele>324.4</ele>
        <time>2023-05-27T09:57:42Z</time>
      </trkpt>
      <trkpt lat="45.76343" lon="5.33119">
        <ele>324.4</ele>
        <time>2023-05-27T09:57:43Z</time>
      </trkpt>
      <trkpt lat="45.76334" lon="5.33114">
        <ele>324.2</ele>
        <time>2023-05-27T09:57:44Z</time>
      </trkpt>
      <trkpt lat="45.76324" lon="5.33109">
        <ele>324</ele>
        <time>2023-05-27T09:57:45Z</time>
      </trkpt>
      <trkpt lat="45.76324" lon="5.33109">
        <ele>323.8</ele>
        <time>2023-05-27T09:57:46Z</time>
      </trkpt>
      <trkpt lat="45.76304" lon="5.33097">
        <ele>323.4</ele>
        <time>2023-05-27T09:57:47Z</time>
      </trkpt>
      <trkpt lat="45.76295" lon="5.3309">
        <ele>323.2</ele>
        <time>2023-05-27T09:57:48Z</time>
      </trkpt>
      <trkpt lat="45.76286" lon="5.3308">
        <ele>323</ele>
        <time>2023-05-27T09:57:49Z</time>
      </trkpt>
      <trkpt lat="45.76277" lon="5.3307">
        <ele>323</ele>
        <time>2023-05-27T09:57:50Z</time>
      </trkpt>
      <trkpt lat="45.76269" lon="5.3306">
        <ele>322.6</ele>
        <time>2023-05-27T09:57:51Z</time>
      </trkpt>
      <trkpt lat="45.7626" lon="5.33049">
        <ele>322.2</ele>
        <time>2023-05-27T09:57:52Z</time>
      </trkpt>
      <trkpt lat="45.76251" lon="5.33039">
        <ele>321.8</ele>
        <time>2023-05-27T09:57:53Z</time>
      </trkpt>
      <trkpt lat="45.76242" lon="5.33028">
        <ele>321.4</ele>
        <time>2023-05-27T09:57:54Z</time>
      </trkpt>
      <trkpt lat="45.76234" lon="5.33018">
        <ele>321.2</ele>
        <time>2023-05-27T09:57:55Z</time>
      </trkpt>
      <trkpt lat="45.76225" lon="5.33007">
        <ele>321</ele>
        <time>2023-05-27T09:57:56Z</time>
      </trkpt>
      <trkpt lat="45.76216" lon="5.32996">
        <ele>321</ele>
        <time>2023-05-27T09:57:57Z</time>
      </trkpt>
      <trkpt lat="45.76207" lon="5.32986">
        <ele>320.6</ele>
        <time>2023-05-27T09:57:58Z</time>
      </trkpt>
      <trkpt lat="45.76198" lon="5.32976">
        <ele>320.4</ele>
        <time>2023-05-27T09:57:59Z</time>
      </trkpt>
      <trkpt lat="45.76188" lon="5.32966">
        <ele>320.2</ele>
        <time>2023-05-27T09:58:00Z</time>
      </trkpt>
      <trkpt lat="45.76177" lon="5.32958">
        <ele>320</ele>
        <time>2023-05-27T09:58:01Z</time>
      </trkpt>
      <trkpt lat="45.76167" lon="5.32951">
        <ele>319.6</ele>
        <time>2023-05-27T09:58:02Z</time>
      </trkpt>
      <trkpt lat="45.76156" lon="5.32944">
        <ele>319</ele>
        <time>2023-05-27T09:58:03Z</time>
      </trkpt>
      <trkpt lat="45.76144" lon="5.3294">
        <ele>318.8</ele>
        <time>2023-05-27T09:58:04Z</time>
      </trkpt>
      <trkpt lat="45.76144" lon="5.3294">
        <ele>318.4</ele>
        <time>2023-05-27T09:58:05Z</time>
      </trkpt>
      <trkpt lat="45.76121" lon="5.32934">
        <ele>318.2</ele>
        <time>2023-05-27T09:58:06Z</time>
      </trkpt>
      <trkpt lat="45.76096" lon="5.3293">
        <ele>317.8</ele>
        <time>2023-05-27T09:58:08Z</time>
      </trkpt>
      <trkpt lat="45.76084" lon="5.3293">
        <ele>317.4</ele>
        <time>2023-05-27T09:58:09Z</time>
      </trkpt>
      <trkpt lat="45.76072" lon="5.32929">
        <ele>317</ele>
        <time>2023-05-27T09:58:10Z</time>
      </trkpt>
      <trkpt lat="45.7606" lon="5.32929">
        <ele>317</ele>
        <time>2023-05-27T09:58:11Z</time>
      </trkpt>
      <trkpt lat="45.76047" lon="5.32928">
        <ele>316.6</ele>
        <time>2023-05-27T09:58:12Z</time>
      </trkpt>
      <trkpt lat="45.76022" lon="5.32927">
        <ele>316.2</ele>
        <time>2023-05-27T09:58:14Z</time>
      </trkpt>
      <trkpt lat="45.76009" lon="5.32926">
        <ele>316</ele>
        <time>2023-05-27T09:58:15Z</time>
      </trkpt>
      <trkpt lat="45.75997" lon="5.32926">
        <ele>315</ele>
        <time>2023-05-27T09:58:16Z</time>
      </trkpt>
      <trkpt lat="45.75984" lon="5.32925">
        <ele>314.6</ele>
        <time>2023-05-27T09:58:17Z</time>
      </trkpt>
      <trkpt lat="45.75984" lon="5.32925">
        <ele>314</ele>
        <time>2023-05-27T09:58:18Z</time>
      </trkpt>
      <trkpt lat="45.75959" lon="5.32924">
        <ele>313.6</ele>
        <time>2023-05-27T09:58:19Z</time>
      </trkpt>
      <trkpt lat="45.75946" lon="5.32923">
        <ele>313.4</ele>
        <time>2023-05-27T09:58:20Z</time>
      </trkpt>
      <trkpt lat="45.75934" lon="5.32923">
        <ele>312.8</ele>
        <time>2023-05-27T09:58:21Z</time>
      </trkpt>
      <trkpt lat="45.75921" lon="5.32922">
        <ele>312.6</ele>
        <time>2023-05-27T09:58:22Z</time>
      </trkpt>
      <trkpt lat="45.75909" lon="5.32922">
        <ele>312</ele>
        <time>2023-05-27T09:58:23Z</time>
      </trkpt>
      <trkpt lat="45.75896" lon="5.32921">
        <ele>311.8</ele>
        <time>2023-05-27T09:58:24Z</time>
      </trkpt>
      <trkpt lat="45.75871" lon="5.3292">
        <ele>310.6</ele>
        <time>2023-05-27T09:58:26Z</time>
      </trkpt>
      <trkpt lat="45.75859" lon="5.3292">
        <ele>310.2</ele>
        <time>2023-05-27T09:58:27Z</time>
      </trkpt>
      <trkpt lat="45.75847" lon="5.3292">
        <ele>310</ele>
        <time>2023-05-27T09:58:28Z</time>
      </trkpt>
      <trkpt lat="45.75834" lon="5.3292">
        <ele>309.6</ele>
        <time>2023-05-27T09:58:29Z</time>
      </trkpt>
      <trkpt lat="45.75822" lon="5.32919">
        <ele>309.2</ele>
        <time>2023-05-27T09:58:30Z</time>
      </trkpt>
      <trkpt lat="45.758" lon="5.32918">
        <ele>308</ele>
        <time>2023-05-27T09:58:32Z</time>
      </trkpt>
      <trkpt lat="45.75789" lon="5.32918">
        <ele>307.6</ele>
        <time>2023-05-27T09:58:33Z</time>
      </trkpt>
      <trkpt lat="45.75778" lon="5.32918">
        <ele>307.4</ele>
        <time>2023-05-27T09:58:34Z</time>
      </trkpt>
      <trkpt lat="45.75768" lon="5.32917">
        <ele>306.8</ele>
        <time>2023-05-27T09:58:35Z</time>
      </trkpt>
      <trkpt lat="45.75758" lon="5.32917">
        <ele>306.6</ele>
        <time>2023-05-27T09:58:36Z</time>
      </trkpt>
      <trkpt lat="45.75737" lon="5.32915">
        <ele>305.6</ele>
        <time>2023-05-27T09:58:38Z</time>
      </trkpt>
      <trkpt lat="45.75727" lon="5.32915">
        <ele>305.2</ele>
        <time>2023-05-27T09:58:39Z</time>
      </trkpt>
      <trkpt lat="45.75717" lon="5.32914">
        <ele>305</ele>
        <time>2023-05-27T09:58:40Z</time>
      </trkpt>
      <trkpt lat="45.75707" lon="5.32914">
        <ele>304.4</ele>
        <time>2023-05-27T09:58:41Z</time>
      </trkpt>
      <trkpt lat="45.75698" lon="5.32913">
        <ele>303.8</ele>
        <time>2023-05-27T09:58:42Z</time>
      </trkpt>
      <trkpt lat="45.75678" lon="5.32912">
        <ele>303.2</ele>
        <time>2023-05-27T09:58:44Z</time>
      </trkpt>
      <trkpt lat="45.75669" lon="5.32912">
        <ele>302.6</ele>
        <time>2023-05-27T09:58:45Z</time>
      </trkpt>
      <trkpt lat="45.75659" lon="5.32912">
        <ele>301.8</ele>
        <time>2023-05-27T09:58:46Z</time>
      </trkpt>
      <trkpt lat="45.7565" lon="5.32914">
        <ele>301.6</ele>
        <time>2023-05-27T09:58:47Z</time>
      </trkpt>
      <trkpt lat="45.75641" lon="5.32915">
        <ele>301.2</ele>
        <time>2023-05-27T09:58:48Z</time>
      </trkpt>
      <trkpt lat="45.75632" lon="5.32918">
        <ele>301</ele>
        <time>2023-05-27T09:58:49Z</time>
      </trkpt>
      <trkpt lat="45.75623" lon="5.3292">
        <ele>300.8</ele>
        <time>2023-05-27T09:58:50Z</time>
      </trkpt>
      <trkpt lat="45.75614" lon="5.32923">
        <ele>300.6</ele>
        <time>2023-05-27T09:58:51Z</time>
      </trkpt>
      <trkpt lat="45.75605" lon="5.32925">
        <ele>300.6</ele>
        <time>2023-05-27T09:58:52Z</time>
      </trkpt>
      <trkpt lat="45.75596" lon="5.32928">
        <ele>300.6</ele>
        <time>2023-05-27T09:58:53Z</time>
      </trkpt>
      <trkpt lat="45.75588" lon="5.3293">
        <ele>300.2</ele>
        <time>2023-05-27T09:58:54Z</time>
      </trkpt>
      <trkpt lat="45.75571" lon="5.32934">
        <ele>299.2</ele>
        <time>2023-05-27T09:58:56Z</time>
      </trkpt>
      <trkpt lat="45.75562" lon="5.32936">
        <ele>299.2</ele>
        <time>2023-05-27T09:58:57Z</time>
      </trkpt>
      <trkpt lat="45.75554" lon="5.32939">
        <ele>299</ele>
        <time>2023-05-27T09:58:58Z</time>
      </trkpt>
      <trkpt lat="45.75545" lon="5.32943">
        <ele>298.8</ele>
        <time>2023-05-27T09:58:59Z</time>
      </trkpt>
      <trkpt lat="45.75537" lon="5.32946">
        <ele>298.4</ele>
        <time>2023-05-27T09:59:00Z</time>
      </trkpt>
      <trkpt lat="45.75521" lon="5.32951">
        <ele>298.2</ele>
        <time>2023-05-27T09:59:02Z</time>
      </trkpt>
      <trkpt lat="45.75513" lon="5.32953">
        <ele>298</ele>
        <time>2023-05-27T09:59:03Z</time>
      </trkpt>
      <trkpt lat="45.75505" lon="5.32956">
        <ele>298</ele>
        <time>2023-05-27T09:59:04Z</time>
      </trkpt>
      <trkpt lat="45.75496" lon="5.32959">
        <ele>297.6</ele>
        <time>2023-05-27T09:59:05Z</time>
      </trkpt>
      <trkpt lat="45.75488" lon="5.32961">
        <ele>297.6</ele>
        <time>2023-05-27T09:59:06Z</time>
      </trkpt>
      <trkpt lat="45.7548" lon="5.32964">
        <ele>297.2</ele>
        <time>2023-05-27T09:59:07Z</time>
      </trkpt>
      <trkpt lat="45.75472" lon="5.32966">
        <ele>297.2</ele>
        <time>2023-05-27T09:59:08Z</time>
      </trkpt>
      <trkpt lat="45.75464" lon="5.32968">
        <ele>297</ele>
        <time>2023-05-27T09:59:09Z</time>
      </trkpt>
      <trkpt lat="45.75456" lon="5.32971">
        <ele>297</ele>
        <time>2023-05-27T09:59:10Z</time>
      </trkpt>
      <trkpt lat="45.75448" lon="5.32973">
        <ele>297</ele>
        <time>2023-05-27T09:59:11Z</time>
      </trkpt>
      <trkpt lat="45.75433" lon="5.32978">
        <ele>297</ele>
        <time>2023-05-27T09:59:13Z</time>
      </trkpt>
      <trkpt lat="45.75426" lon="5.32981">
        <ele>297</ele>
        <time>2023-05-27T09:59:14Z</time>
      </trkpt>
      <trkpt lat="45.75419" lon="5.32983">
        <ele>297</ele>
        <time>2023-05-27T09:59:15Z</time>
      </trkpt>
      <trkpt lat="45.75411" lon="5.32987">
        <ele>297</ele>
        <time>2023-05-27T09:59:16Z</time>
      </trkpt>
      <trkpt lat="45.75403" lon="5.3299">
        <ele>297</ele>
        <time>2023-05-27T09:59:17Z</time>
      </trkpt>
      <trkpt lat="45.75389" lon="5.32997">
        <ele>297.2</ele>
        <time>2023-05-27T09:59:19Z</time>
      </trkpt>
      <trkpt lat="45.75382" lon="5.32999">
        <ele>297.6</ele>
        <time>2023-05-27T09:59:20Z</time>
      </trkpt>
      <trkpt lat="45.75374" lon="5.33001">
        <ele>297.2</ele>
        <time>2023-05-27T09:59:21Z</time>
      </trkpt>
      <trkpt lat="45.75367" lon="5.33001">
        <ele>297.2</ele>
        <time>2023-05-27T09:59:22Z</time>
      </trkpt>
      <trkpt lat="45.7536" lon="5.33001">
        <ele>297.4</ele>
        <time>2023-05-27T09:59:23Z</time>
      </trkpt>
      <trkpt lat="45.75346" lon="5.33001">
        <ele>297.2</ele>
        <time>2023-05-27T09:59:25Z</time>
      </trkpt>
      <trkpt lat="45.75339" lon="5.33001">
        <ele>297.2</ele>
        <time>2023-05-27T09:59:26Z</time>
      </trkpt>
      <trkpt lat="45.75332" lon="5.33002">
        <ele>297.2</ele>
        <time>2023-05-27T09:59:27Z</time>
      </trkpt>
      <trkpt lat="45.75325" lon="5.33002">
        <ele>297.2</ele>
        <time>2023-05-27T09:59:28Z</time>
      </trkpt>
      <trkpt lat="45.75318" lon="5.33003">
        <ele>297.2</ele>
        <time>2023-05-27T09:59:29Z</time>
      </trkpt>
      <trkpt lat="45.75304" lon="5.33003">
        <ele>297.2</ele>
        <time>2023-05-27T09:59:31Z</time>
      </trkpt>
      <trkpt lat="45.75298" lon="5.33003">
        <ele>297</ele>
        <time>2023-05-27T09:59:32Z</time>
      </trkpt>
      <trkpt lat="45.7529" lon="5.33002">
        <ele>297</ele>
        <time>2023-05-27T09:59:33Z</time>
      </trkpt>
      <trkpt lat="45.75285" lon="5.33002">
        <ele>297</ele>
        <time>2023-05-27T09:59:34Z</time>
      </trkpt>
      <trkpt lat="45.75276" lon="5.33002">
        <ele>296.8</ele>
        <time>2023-05-27T09:59:35Z</time>
      </trkpt>
      <trkpt lat="45.75261" lon="5.33">
        <ele>296.8</ele>
        <time>2023-05-27T09:59:37Z</time>
      </trkpt>
      <trkpt lat="45.75254" lon="5.32998">
        <ele>296.8</ele>
        <time>2023-05-27T09:59:38Z</time>
      </trkpt>
      <trkpt lat="45.75247" lon="5.32995">
        <ele>296.8</ele>
        <time>2023-05-27T09:59:39Z</time>
      </trkpt>
      <trkpt lat="45.7524" lon="5.32992">
        <ele>296.8</ele>
        <time>2023-05-27T09:59:40Z</time>
      </trkpt>
      <trkpt lat="45.75226" lon="5.32984">
        <ele>296.8</ele>
        <time>2023-05-27T09:59:42Z</time>
      </trkpt>
      <trkpt lat="45.75218" lon="5.3298">
        <ele>296.8</ele>
        <time>2023-05-27T09:59:43Z</time>
      </trkpt>
      <trkpt lat="45.75211" lon="5.32977">
        <ele>296.8</ele>
        <time>2023-05-27T09:59:44Z</time>
      </trkpt>
      <trkpt lat="45.75204" lon="5.32974">
        <ele>296.6</ele>
        <time>2023-05-27T09:59:45Z</time>
      </trkpt>
      <trkpt lat="45.75196" lon="5.32971">
        <ele>296.6</ele>
        <time>2023-05-27T09:59:46Z</time>
      </trkpt>
      <trkpt lat="45.75182" lon="5.32965">
        <ele>296.6</ele>
        <time>2023-05-27T09:59:48Z</time>
      </trkpt>
      <trkpt lat="45.75175" lon="5.32961">
        <ele>296.4</ele>
        <time>2023-05-27T09:59:49Z</time>
      </trkpt>
      <trkpt lat="45.75168" lon="5.32958">
        <ele>296.4</ele>
        <time>2023-05-27T09:59:50Z</time>
      </trkpt>
      <trkpt lat="45.75161" lon="5.32955">
        <ele>296.2</ele>
        <time>2023-05-27T09:59:51Z</time>
      </trkpt>
      <trkpt lat="45.75155" lon="5.32952">
        <ele>296</ele>
        <time>2023-05-27T09:59:52Z</time>
      </trkpt>
      <trkpt lat="45.7514" lon="5.32946">
        <ele>296</ele>
        <time>2023-05-27T09:59:54Z</time>
      </trkpt>
      <trkpt lat="45.75133" lon="5.32942">
        <ele>295.8</ele>
        <time>2023-05-27T09:59:55Z</time>
      </trkpt>
      <trkpt lat="45.75126" lon="5.32939">
        <ele>295.8</ele>
        <time>2023-05-27T09:59:56Z</time>
      </trkpt>
      <trkpt lat="45.75119" lon="5.32936">
        <ele>295.8</ele>
        <time>2023-05-27T09:59:57Z</time>
      </trkpt>
      <trkpt lat="45.75111" lon="5.32933">
        <ele>295.8</ele>
        <time>2023-05-27T09:59:58Z</time>
      </trkpt>
      <trkpt lat="45.75097" lon="5.32927">
        <ele>295.8</ele>
        <time>2023-05-27T10:00:00Z</time>
      </trkpt>
      <trkpt lat="45.7509" lon="5.32925">
        <ele>295.8</ele>
        <time>2023-05-27T10:00:01Z</time>
      </trkpt>
      <trkpt lat="45.75084" lon="5.32924">
        <ele>295.8</ele>
        <time>2023-05-27T10:00:02Z</time>
      </trkpt>
      <trkpt lat="45.75076" lon="5.32923">
        <ele>295.8</ele>
        <time>2023-05-27T10:00:03Z</time>
      </trkpt>
      <trkpt lat="45.75069" lon="5.32922">
        <ele>295.8</ele>
        <time>2023-05-27T10:00:04Z</time>
      </trkpt>
      <trkpt lat="45.75063" lon="5.32922">
        <ele>295.8</ele>
        <time>2023-05-27T10:00:05Z</time>
      </trkpt>
      <trkpt lat="45.75056" lon="5.32923">
        <ele>295.8</ele>
        <time>2023-05-27T10:00:06Z</time>
      </trkpt>
      <trkpt lat="45.7505" lon="5.32924">
        <ele>295.8</ele>
        <time>2023-05-27T10:00:07Z</time>
      </trkpt>
      <trkpt lat="45.75044" lon="5.32925">
        <ele>295.8</ele>
        <time>2023-05-27T10:00:08Z</time>
      </trkpt>
      <trkpt lat="45.75038" lon="5.32925">
        <ele>295.8</ele>
        <time>2023-05-27T10:00:09Z</time>
      </trkpt>
      <trkpt lat="45.75031" lon="5.32923">
        <ele>295.8</ele>
        <time>2023-05-27T10:00:10Z</time>
      </trkpt>
      <trkpt lat="45.75025" lon="5.32921">
        <ele>295.8</ele>
        <time>2023-05-27T10:00:11Z</time>
      </trkpt>
      <trkpt lat="45.7502" lon="5.32919">
        <ele>295.8</ele>
        <time>2023-05-27T10:00:12Z</time>
      </trkpt>
      <trkpt lat="45.75012" lon="5.32916">
        <ele>295.8</ele>
        <time>2023-05-27T10:00:13Z</time>
      </trkpt>
      <trkpt lat="45.75005" lon="5.32912">
        <ele>295.8</ele>
        <time>2023-05-27T10:00:14Z</time>
      </trkpt>
      <trkpt lat="45.74999" lon="5.32907">
        <ele>295.8</ele>
        <time>2023-05-27T10:00:15Z</time>
      </trkpt>
      <trkpt lat="45.74992" lon="5.32902">
        <ele>295.6</ele>
        <time>2023-05-27T10:00:16Z</time>
      </trkpt>
      <trkpt lat="45.74987" lon="5.32899">
        <ele>295.6</ele>
        <time>2023-05-27T10:00:17Z</time>
      </trkpt>
      <trkpt lat="45.74978" lon="5.32895">
        <ele>295.4</ele>
        <time>2023-05-27T10:00:18Z</time>
      </trkpt>
      <trkpt lat="45.7497" lon="5.32891">
        <ele>295.4</ele>
        <time>2023-05-27T10:00:19Z</time>
      </trkpt>
      <trkpt lat="45.74964" lon="5.32888">
        <ele>295.4</ele>
        <time>2023-05-27T10:00:20Z</time>
      </trkpt>
      <trkpt lat="45.74956" lon="5.32884">
        <ele>295.4</ele>
        <time>2023-05-27T10:00:21Z</time>
      </trkpt>
      <trkpt lat="45.74947" lon="5.32879">
        <ele>295.4</ele>
        <time>2023-05-27T10:00:22Z</time>
      </trkpt>
      <trkpt lat="45.7494" lon="5.32877">
        <ele>295.2</ele>
        <time>2023-05-27T10:00:23Z</time>
      </trkpt>
      <trkpt lat="45.74933" lon="5.32874">
        <ele>295.2</ele>
        <time>2023-05-27T10:00:24Z</time>
      </trkpt>
      <trkpt lat="45.74933" lon="5.32874">
        <ele>295.2</ele>
        <time>2023-05-27T10:00:25Z</time>
      </trkpt>
      <trkpt lat="45.7492" lon="5.32867">
        <ele>295.2</ele>
        <time>2023-05-27T10:00:26Z</time>
      </trkpt>
      <trkpt lat="45.74914" lon="5.32862">
        <ele>295.2</ele>
        <time>2023-05-27T10:00:27Z</time>
      </trkpt>
      <trkpt lat="45.74908" lon="5.32857">
        <ele>295.2</ele>
        <time>2023-05-27T10:00:28Z</time>
      </trkpt>
      <trkpt lat="45.74903" lon="5.32851">
        <ele>295.2</ele>
        <time>2023-05-27T10:00:29Z</time>
      </trkpt>
      <trkpt lat="45.74897" lon="5.32845">
        <ele>295.2</ele>
        <time>2023-05-27T10:00:30Z</time>
      </trkpt>
      <trkpt lat="45.74893" lon="5.3284">
        <ele>295.2</ele>
        <time>2023-05-27T10:00:31Z</time>
      </trkpt>
      <trkpt lat="45.74887" lon="5.32832">
        <ele>295.2</ele>
        <time>2023-05-27T10:00:32Z</time>
      </trkpt>
      <trkpt lat="45.74883" lon="5.32823">
        <ele>295.2</ele>
        <time>2023-05-27T10:00:33Z</time>
      </trkpt>
      <trkpt lat="45.7488" lon="5.32815">
        <ele>295.2</ele>
        <time>2023-05-27T10:00:34Z</time>
      </trkpt>
      <trkpt lat="45.74878" lon="5.32808">
        <ele>295.2</ele>
        <time>2023-05-27T10:00:35Z</time>
      </trkpt>
      <trkpt lat="45.74875" lon="5.32798">
        <ele>295.2</ele>
        <time>2023-05-27T10:00:36Z</time>
      </trkpt>
      <trkpt lat="45.74872" lon="5.32789">
        <ele>295.4</ele>
        <time>2023-05-27T10:00:37Z</time>
      </trkpt>
      <trkpt lat="45.74868" lon="5.32781">
        <ele>295.4</ele>
        <time>2023-05-27T10:00:38Z</time>
      </trkpt>
      <trkpt lat="45.74866" lon="5.32775">
        <ele>295.4</ele>
        <time>2023-05-27T10:00:39Z</time>
      </trkpt>
      <trkpt lat="45.74862" lon="5.32765">
        <ele>295.4</ele>
        <time>2023-05-27T10:00:40Z</time>
      </trkpt>
      <trkpt lat="45.74859" lon="5.32757">
        <ele>295.4</ele>
        <time>2023-05-27T10:00:41Z</time>
      </trkpt>
      <trkpt lat="45.74856" lon="5.32749">
        <ele>295.4</ele>
        <time>2023-05-27T10:00:42Z</time>
      </trkpt>
      <trkpt lat="45.74853" lon="5.32741">
        <ele>295.6</ele>
        <time>2023-05-27T10:00:43Z</time>
      </trkpt>
      <trkpt lat="45.7485" lon="5.32733">
        <ele>295.6</ele>
        <time>2023-05-27T10:00:44Z</time>
      </trkpt>
      <trkpt lat="45.74847" lon="5.32725">
        <ele>295.6</ele>
        <time>2023-05-27T10:00:45Z</time>
      </trkpt>
      <trkpt lat="45.74845" lon="5.32717">
        <ele>295.6</ele>
        <time>2023-05-27T10:00:46Z</time>
      </trkpt>
      <trkpt lat="45.74842" lon="5.32709">
        <ele>295.6</ele>
        <time>2023-05-27T10:00:47Z</time>
      </trkpt>
      <trkpt lat="45.74839" lon="5.32701">
        <ele>295.4</ele>
        <time>2023-05-27T10:00:48Z</time>
      </trkpt>
      <trkpt lat="45.74836" lon="5.32692">
        <ele>295.4</ele>
        <time>2023-05-27T10:00:49Z</time>
      </trkpt>
      <trkpt lat="45.74834" lon="5.32685">
        <ele>295.4</ele>
        <time>2023-05-27T10:00:50Z</time>
      </trkpt>
      <trkpt lat="45.7483" lon="5.32675">
        <ele>295.4</ele>
        <time>2023-05-27T10:00:51Z</time>
      </trkpt>
      <trkpt lat="45.74827" lon="5.32667">
        <ele>295.4</ele>
        <time>2023-05-27T10:00:52Z</time>
      </trkpt>
      <trkpt lat="45.74824" lon="5.32659">
        <ele>295.4</ele>
        <time>2023-05-27T10:00:53Z</time>
      </trkpt>
      <trkpt lat="45.74822" lon="5.32653">
        <ele>295.2</ele>
        <time>2023-05-27T10:00:54Z</time>
      </trkpt>
      <trkpt lat="45.74818" lon="5.32643">
        <ele>295.2</ele>
        <time>2023-05-27T10:00:55Z</time>
      </trkpt>
      <trkpt lat="45.74815" lon="5.32635">
        <ele>295.2</ele>
        <time>2023-05-27T10:00:56Z</time>
      </trkpt>
      <trkpt lat="45.74812" lon="5.32627">
        <ele>295.2</ele>
        <time>2023-05-27T10:00:57Z</time>
      </trkpt>
      <trkpt lat="45.74809" lon="5.3262">
        <ele>295.2</ele>
        <time>2023-05-27T10:00:58Z</time>
      </trkpt>
      <trkpt lat="45.74806" lon="5.32612">
        <ele>295.4</ele>
        <time>2023-05-27T10:00:59Z</time>
      </trkpt>
      <trkpt lat="45.74803" lon="5.32605">
        <ele>295.6</ele>
        <time>2023-05-27T10:01:00Z</time>
      </trkpt>
      <trkpt lat="45.748" lon="5.32599">
        <ele>295.6</ele>
        <time>2023-05-27T10:01:01Z</time>
      </trkpt>
      <trkpt lat="45.74796" lon="5.32592">
        <ele>295.8</ele>
        <time>2023-05-27T10:01:02Z</time>
      </trkpt>
      <trkpt lat="45.74793" lon="5.32588">
        <ele>295.8</ele>
        <time>2023-05-27T10:01:03Z</time>
      </trkpt>
      <trkpt lat="45.74788" lon="5.32582">
        <ele>295.8</ele>
        <time>2023-05-27T10:01:04Z</time>
      </trkpt>
      <trkpt lat="45.74784" lon="5.32578">
        <ele>295.8</ele>
        <time>2023-05-27T10:01:05Z</time>
      </trkpt>
      <trkpt lat="45.74779" lon="5.32574">
        <ele>296.2</ele>
        <time>2023-05-27T10:01:06Z</time>
      </trkpt>
      <trkpt lat="45.74773" lon="5.3257">
        <ele>296.4</ele>
        <time>2023-05-27T10:01:07Z</time>
      </trkpt>
      <trkpt lat="45.74767" lon="5.32567">
        <ele>296.4</ele>
        <time>2023-05-27T10:01:08Z</time>
      </trkpt>
      <trkpt lat="45.74762" lon="5.32565">
        <ele>296.4</ele>
        <time>2023-05-27T10:01:09Z</time>
      </trkpt>
      <trkpt lat="45.74754" lon="5.32563">
        <ele>296.6</ele>
        <time>2023-05-27T10:01:10Z</time>
      </trkpt>
      <trkpt lat="45.74748" lon="5.32561">
        <ele>296.6</ele>
        <time>2023-05-27T10:01:11Z</time>
      </trkpt>
      <trkpt lat="45.74742" lon="5.3256">
        <ele>296.8</ele>
        <time>2023-05-27T10:01:12Z</time>
      </trkpt>
      <trkpt lat="45.74736" lon="5.32558">
        <ele>296.8</ele>
        <time>2023-05-27T10:01:13Z</time>
      </trkpt>
      <trkpt lat="45.74729" lon="5.32557">
        <ele>296.8</ele>
        <time>2023-05-27T10:01:14Z</time>
      </trkpt>
      <trkpt lat="45.74723" lon="5.32555">
        <ele>297</ele>
        <time>2023-05-27T10:01:15Z</time>
      </trkpt>
      <trkpt lat="45.74717" lon="5.32554">
        <ele>297</ele>
        <time>2023-05-27T10:01:16Z</time>
      </trkpt>
      <trkpt lat="45.74712" lon="5.32553">
        <ele>297.2</ele>
        <time>2023-05-27T10:01:17Z</time>
      </trkpt>
      <trkpt lat="45.74704" lon="5.32551">
        <ele>297.4</ele>
        <time>2023-05-27T10:01:18Z</time>
      </trkpt>
      <trkpt lat="45.74698" lon="5.3255">
        <ele>297.4</ele>
        <time>2023-05-27T10:01:19Z</time>
      </trkpt>
      <trkpt lat="45.74691" lon="5.32548">
        <ele>297.6</ele>
        <time>2023-05-27T10:01:20Z</time>
      </trkpt>
      <trkpt lat="45.74685" lon="5.32547">
        <ele>297.6</ele>
        <time>2023-05-27T10:01:21Z</time>
      </trkpt>
      <trkpt lat="45.74679" lon="5.32546">
        <ele>297.6</ele>
        <time>2023-05-27T10:01:22Z</time>
      </trkpt>
      <trkpt lat="45.74673" lon="5.32545">
        <ele>297.6</ele>
        <time>2023-05-27T10:01:23Z</time>
      </trkpt>
      <trkpt lat="45.74668" lon="5.32544">
        <ele>297.6</ele>
        <time>2023-05-27T10:01:24Z</time>
      </trkpt>
      <trkpt lat="45.74661" lon="5.32542">
        <ele>298</ele>
        <time>2023-05-27T10:01:25Z</time>
      </trkpt>
      <trkpt lat="45.74655" lon="5.3254">
        <ele>298</ele>
        <time>2023-05-27T10:01:26Z</time>
      </trkpt>
      <trkpt lat="45.7465" lon="5.32539">
        <ele>298.4</ele>
        <time>2023-05-27T10:01:27Z</time>
      </trkpt>
      <trkpt lat="45.74638" lon="5.32536">
        <ele>298.6</ele>
        <time>2023-05-27T10:01:29Z</time>
      </trkpt>
      <trkpt lat="45.74632" lon="5.32535">
        <ele>298.6</ele>
        <time>2023-05-27T10:01:30Z</time>
      </trkpt>
      <trkpt lat="45.74626" lon="5.32533">
        <ele>298.6</ele>
        <time>2023-05-27T10:01:31Z</time>
      </trkpt>
      <trkpt lat="45.74621" lon="5.32532">
        <ele>299</ele>
        <time>2023-05-27T10:01:32Z</time>
      </trkpt>
      <trkpt lat="45.74616" lon="5.32531">
        <ele>299</ele>
        <time>2023-05-27T10:01:33Z</time>
      </trkpt>
      <trkpt lat="45.7461" lon="5.32529">
        <ele>299.2</ele>
        <time>2023-05-27T10:01:34Z</time>
      </trkpt>
      <trkpt lat="45.74604" lon="5.32528">
        <ele>299.2</ele>
        <time>2023-05-27T10:01:35Z</time>
      </trkpt>
      <trkpt lat="45.74599" lon="5.32527">
        <ele>299.4</ele>
        <time>2023-05-27T10:01:36Z</time>
      </trkpt>
      <trkpt lat="45.74594" lon="5.32526">
        <ele>299.4</ele>
        <time>2023-05-27T10:01:37Z</time>
      </trkpt>
      <trkpt lat="45.74589" lon="5.32525">
        <ele>299.4</ele>
        <time>2023-05-27T10:01:38Z</time>
      </trkpt>
      <trkpt lat="45.74584" lon="5.32524">
        <ele>299.4</ele>
        <time>2023-05-27T10:01:39Z</time>
      </trkpt>
      <trkpt lat="45.74579" lon="5.32523">
        <ele>299.4</ele>
        <time>2023-05-27T10:01:40Z</time>
      </trkpt>
      <trkpt lat="45.74574" lon="5.32522">
        <ele>299.4</ele>
        <time>2023-05-27T10:01:41Z</time>
      </trkpt>
      <trkpt lat="45.7457" lon="5.32522">
        <ele>299.4</ele>
        <time>2023-05-27T10:01:42Z</time>
      </trkpt>
      <trkpt lat="45.74565" lon="5.32521">
        <ele>299.6</ele>
        <time>2023-05-27T10:01:43Z</time>
      </trkpt>
      <trkpt lat="45.74554" lon="5.32518">
        <ele>299.8</ele>
        <time>2023-05-27T10:01:45Z</time>
      </trkpt>
      <trkpt lat="45.7455" lon="5.32517">
        <ele>299.8</ele>
        <time>2023-05-27T10:01:46Z</time>
      </trkpt>
      <trkpt lat="45.74545" lon="5.32516">
        <ele>300</ele>
        <time>2023-05-27T10:01:47Z</time>
      </trkpt>
      <trkpt lat="45.7454" lon="5.32515">
        <ele>300</ele>
        <time>2023-05-27T10:01:48Z</time>
      </trkpt>
      <trkpt lat="45.74534" lon="5.32514">
        <ele>300.2</ele>
        <time>2023-05-27T10:01:49Z</time>
      </trkpt>
      <trkpt lat="45.74529" lon="5.32513">
        <ele>300.2</ele>
        <time>2023-05-27T10:01:50Z</time>
      </trkpt>
      <trkpt lat="45.74525" lon="5.32512">
        <ele>300.4</ele>
        <time>2023-05-27T10:01:51Z</time>
      </trkpt>
      <trkpt lat="45.74519" lon="5.32511">
        <ele>300.4</ele>
        <time>2023-05-27T10:01:52Z</time>
      </trkpt>
      <trkpt lat="45.74515" lon="5.3251">
        <ele>300.4</ele>
        <time>2023-05-27T10:01:53Z</time>
      </trkpt>
      <trkpt lat="45.74509" lon="5.32509">
        <ele>300.4</ele>
        <time>2023-05-27T10:01:54Z</time>
      </trkpt>
      <trkpt lat="45.74503" lon="5.32507">
        <ele>300.8</ele>
        <time>2023-05-27T10:01:55Z</time>
      </trkpt>
      <trkpt lat="45.74499" lon="5.32506">
        <ele>301</ele>
        <time>2023-05-27T10:01:56Z</time>
      </trkpt>
      <trkpt lat="45.74494" lon="5.32505">
        <ele>301</ele>
        <time>2023-05-27T10:01:57Z</time>
      </trkpt>
      <trkpt lat="45.74488" lon="5.32504">
        <ele>301.2</ele>
        <time>2023-05-27T10:01:58Z</time>
      </trkpt>
      <trkpt lat="45.74483" lon="5.32502">
        <ele>301.4</ele>
        <time>2023-05-27T10:01:59Z</time>
      </trkpt>
      <trkpt lat="45.74478" lon="5.32501">
        <ele>301.6</ele>
        <time>2023-05-27T10:02:00Z</time>
      </trkpt>
      <trkpt lat="45.74473" lon="5.325">
        <ele>301.6</ele>
        <time>2023-05-27T10:02:01Z</time>
      </trkpt>
      <trkpt lat="45.74468" lon="5.32498">
        <ele>301.8</ele>
        <time>2023-05-27T10:02:02Z</time>
      </trkpt>
      <trkpt lat="45.74462" lon="5.32497">
        <ele>301.8</ele>
        <time>2023-05-27T10:02:03Z</time>
      </trkpt>
      <trkpt lat="45.74457" lon="5.32496">
        <ele>302</ele>
        <time>2023-05-27T10:02:04Z</time>
      </trkpt>
      <trkpt lat="45.74452" lon="5.32494">
        <ele>302.2</ele>
        <time>2023-05-27T10:02:05Z</time>
      </trkpt>
      <trkpt lat="45.74447" lon="5.32493">
        <ele>302.4</ele>
        <time>2023-05-27T10:02:06Z</time>
      </trkpt>
      <trkpt lat="45.74442" lon="5.32492">
        <ele>302.4</ele>
        <time>2023-05-27T10:02:07Z</time>
      </trkpt>
      <trkpt lat="45.74436" lon="5.32491">
        <ele>302.6</ele>
        <time>2023-05-27T10:02:08Z</time>
      </trkpt>
      <trkpt lat="45.74431" lon="5.3249">
        <ele>302.8</ele>
        <time>2023-05-27T10:02:09Z</time>
      </trkpt>
      <trkpt lat="45.74427" lon="5.32489">
        <ele>303</ele>
        <time>2023-05-27T10:02:10Z</time>
      </trkpt>
      <trkpt lat="45.74422" lon="5.32487">
        <ele>303.2</ele>
        <time>2023-05-27T10:02:11Z</time>
      </trkpt>
      <trkpt lat="45.74417" lon="5.32486">
        <ele>303.2</ele>
        <time>2023-05-27T10:02:12Z</time>
      </trkpt>
      <trkpt lat="45.74412" lon="5.32485">
        <ele>303.6</ele>
        <time>2023-05-27T10:02:13Z</time>
      </trkpt>
      <trkpt lat="45.74406" lon="5.32484">
        <ele>303.8</ele>
        <time>2023-05-27T10:02:14Z</time>
      </trkpt>
      <trkpt lat="45.74402" lon="5.32483">
        <ele>304</ele>
        <time>2023-05-27T10:02:15Z</time>
      </trkpt>
      <trkpt lat="45.74396" lon="5.32481">
        <ele>304.2</ele>
        <time>2023-05-27T10:02:16Z</time>
      </trkpt>
      <trkpt lat="45.74393" lon="5.32481">
        <ele>304.4</ele>
        <time>2023-05-27T10:02:17Z</time>
      </trkpt>
      <trkpt lat="45.74387" lon="5.32479">
        <ele>304.6</ele>
        <time>2023-05-27T10:02:18Z</time>
      </trkpt>
      <trkpt lat="45.74382" lon="5.32478">
        <ele>304.6</ele>
        <time>2023-05-27T10:02:19Z</time>
      </trkpt>
      <trkpt lat="45.74378" lon="5.32477">
        <ele>304.8</ele>
        <time>2023-05-27T10:02:20Z</time>
      </trkpt>
      <trkpt lat="45.74373" lon="5.32476">
        <ele>305</ele>
        <time>2023-05-27T10:02:21Z</time>
      </trkpt>
      <trkpt lat="45.74367" lon="5.32475">
        <ele>305</ele>
        <time>2023-05-27T10:02:22Z</time>
      </trkpt>
      <trkpt lat="45.74363" lon="5.32474">
        <ele>305.2</ele>
        <time>2023-05-27T10:02:23Z</time>
      </trkpt>
      <trkpt lat="45.74358" lon="5.32473">
        <ele>305.4</ele>
        <time>2023-05-27T10:02:24Z</time>
      </trkpt>
      <trkpt lat="45.74354" lon="5.32472">
        <ele>305.6</ele>
        <time>2023-05-27T10:02:25Z</time>
      </trkpt>
      <trkpt lat="45.74349" lon="5.32471">
        <ele>305.6</ele>
        <time>2023-05-27T10:02:26Z</time>
      </trkpt>
      <trkpt lat="45.74344" lon="5.32469">
        <ele>306</ele>
        <time>2023-05-27T10:02:27Z</time>
      </trkpt>
      <trkpt lat="45.74339" lon="5.32468">
        <ele>306.2</ele>
        <time>2023-05-27T10:02:28Z</time>
      </trkpt>
      <trkpt lat="45.74335" lon="5.32467">
        <ele>306.4</ele>
        <time>2023-05-27T10:02:29Z</time>
      </trkpt>
      <trkpt lat="45.74331" lon="5.32466">
        <ele>306.4</ele>
        <time>2023-05-27T10:02:30Z</time>
      </trkpt>
      <trkpt lat="45.74326" lon="5.32465">
        <ele>306.6</ele>
        <time>2023-05-27T10:02:31Z</time>
      </trkpt>
      <trkpt lat="45.74321" lon="5.32463">
        <ele>306.6</ele>
        <time>2023-05-27T10:02:32Z</time>
      </trkpt>
      <trkpt lat="45.74316" lon="5.32461">
        <ele>306.8</ele>
        <time>2023-05-27T10:02:33Z</time>
      </trkpt>
      <trkpt lat="45.74313" lon="5.3246">
        <ele>307</ele>
        <time>2023-05-27T10:02:34Z</time>
      </trkpt>
      <trkpt lat="45.74309" lon="5.32457">
        <ele>307</ele>
        <time>2023-05-27T10:02:35Z</time>
      </trkpt>
      <trkpt lat="45.74304" lon="5.32454">
        <ele>307.2</ele>
        <time>2023-05-27T10:02:36Z</time>
      </trkpt>
      <trkpt lat="45.74301" lon="5.3245">
        <ele>307.2</ele>
        <time>2023-05-27T10:02:37Z</time>
      </trkpt>
      <trkpt lat="45.74297" lon="5.32446">
        <ele>307.4</ele>
        <time>2023-05-27T10:02:38Z</time>
      </trkpt>
      <trkpt lat="45.74295" lon="5.32442">
        <ele>307.6</ele>
        <time>2023-05-27T10:02:39Z</time>
      </trkpt>
      <trkpt lat="45.74292" lon="5.32435">
        <ele>307.6</ele>
        <time>2023-05-27T10:02:40Z</time>
      </trkpt>
      <trkpt lat="45.74291" lon="5.3243">
        <ele>308</ele>
        <time>2023-05-27T10:02:41Z</time>
      </trkpt>
      <trkpt lat="45.74289" lon="5.32422">
        <ele>308</ele>
        <time>2023-05-27T10:02:42Z</time>
      </trkpt>
      <trkpt lat="45.74288" lon="5.32416">
        <ele>308.4</ele>
        <time>2023-05-27T10:02:43Z</time>
      </trkpt>
      <trkpt lat="45.74289" lon="5.3241">
        <ele>308.6</ele>
        <time>2023-05-27T10:02:44Z</time>
      </trkpt>
      <trkpt lat="45.74289" lon="5.32404">
        <ele>309</ele>
        <time>2023-05-27T10:02:45Z</time>
      </trkpt>
      <trkpt lat="45.7429" lon="5.32396">
        <ele>309.4</ele>
        <time>2023-05-27T10:02:46Z</time>
      </trkpt>
      <trkpt lat="45.74291" lon="5.32389">
        <ele>309.4</ele>
        <time>2023-05-27T10:02:47Z</time>
      </trkpt>
      <trkpt lat="45.74292" lon="5.32384">
        <ele>309.6</ele>
        <time>2023-05-27T10:02:48Z</time>
      </trkpt>
      <trkpt lat="45.74294" lon="5.32379">
        <ele>309.8</ele>
        <time>2023-05-27T10:02:49Z</time>
      </trkpt>
      <trkpt lat="45.74296" lon="5.32373">
        <ele>310</ele>
        <time>2023-05-27T10:02:50Z</time>
      </trkpt>
      <trkpt lat="45.74297" lon="5.32367">
        <ele>310.2</ele>
        <time>2023-05-27T10:02:51Z</time>
      </trkpt>
      <trkpt lat="45.74299" lon="5.32361">
        <ele>310.6</ele>
        <time>2023-05-27T10:02:52Z</time>
      </trkpt>
      <trkpt lat="45.743" lon="5.32356">
        <ele>310.8</ele>
        <time>2023-05-27T10:02:53Z</time>
      </trkpt>
      <trkpt lat="45.74302" lon="5.3235">
        <ele>311</ele>
        <time>2023-05-27T10:02:54Z</time>
      </trkpt>
      <trkpt lat="45.74303" lon="5.32347">
        <ele>311</ele>
        <time>2023-05-27T10:02:55Z</time>
      </trkpt>
      <trkpt lat="45.74305" lon="5.32341">
        <ele>311.2</ele>
        <time>2023-05-27T10:02:56Z</time>
      </trkpt>
      <trkpt lat="45.74306" lon="5.32336">
        <ele>311.6</ele>
        <time>2023-05-27T10:02:57Z</time>
      </trkpt>
      <trkpt lat="45.74307" lon="5.32331">
        <ele>311.6</ele>
        <time>2023-05-27T10:02:58Z</time>
      </trkpt>
      <trkpt lat="45.74308" lon="5.32326">
        <ele>311.8</ele>
        <time>2023-05-27T10:02:59Z</time>
      </trkpt>
      <trkpt lat="45.74308" lon="5.32322">
        <ele>312</ele>
        <time>2023-05-27T10:03:00Z</time>
      </trkpt>
      <trkpt lat="45.74309" lon="5.32317">
        <ele>312.4</ele>
        <time>2023-05-27T10:03:01Z</time>
      </trkpt>
      <trkpt lat="45.74309" lon="5.32312">
        <ele>313</ele>
        <time>2023-05-27T10:03:02Z</time>
      </trkpt>
      <trkpt lat="45.74309" lon="5.32307">
        <ele>313.2</ele>
        <time>2023-05-27T10:03:03Z</time>
      </trkpt>
      <trkpt lat="45.74308" lon="5.32302">
        <ele>313.6</ele>
        <time>2023-05-27T10:03:04Z</time>
      </trkpt>
      <trkpt lat="45.74307" lon="5.32298">
        <ele>313.8</ele>
        <time>2023-05-27T10:03:05Z</time>
      </trkpt>
      <trkpt lat="45.74306" lon="5.32293">
        <ele>314.2</ele>
        <time>2023-05-27T10:03:06Z</time>
      </trkpt>
      <trkpt lat="45.74304" lon="5.32288">
        <ele>314.4</ele>
        <time>2023-05-27T10:03:07Z</time>
      </trkpt>
      <trkpt lat="45.74302" lon="5.32284">
        <ele>314.6</ele>
        <time>2023-05-27T10:03:08Z</time>
      </trkpt>
      <trkpt lat="45.74299" lon="5.3228">
        <ele>314.6</ele>
        <time>2023-05-27T10:03:09Z</time>
      </trkpt>
      <trkpt lat="45.74297" lon="5.32277">
        <ele>314.8</ele>
        <time>2023-05-27T10:03:10Z</time>
      </trkpt>
      <trkpt lat="45.74294" lon="5.32274">
        <ele>314.8</ele>
        <time>2023-05-27T10:03:11Z</time>
      </trkpt>
      <trkpt lat="45.7429" lon="5.32271">
        <ele>314.8</ele>
        <time>2023-05-27T10:03:12Z</time>
      </trkpt>
      <trkpt lat="45.74287" lon="5.32268">
        <ele>315</ele>
        <time>2023-05-27T10:03:13Z</time>
      </trkpt>
      <trkpt lat="45.74284" lon="5.32265">
        <ele>315</ele>
        <time>2023-05-27T10:03:14Z</time>
      </trkpt>
      <trkpt lat="45.74281" lon="5.32262">
        <ele>315.2</ele>
        <time>2023-05-27T10:03:15Z</time>
      </trkpt>
      <trkpt lat="45.74277" lon="5.3226">
        <ele>315.2</ele>
        <time>2023-05-27T10:03:16Z</time>
      </trkpt>
      <trkpt lat="45.74274" lon="5.32257">
        <ele>315.4</ele>
        <time>2023-05-27T10:03:17Z</time>
      </trkpt>
      <trkpt lat="45.74271" lon="5.32254">
        <ele>315.8</ele>
        <time>2023-05-27T10:03:18Z</time>
      </trkpt>
      <trkpt lat="45.74268" lon="5.32252">
        <ele>315.8</ele>
        <time>2023-05-27T10:03:19Z</time>
      </trkpt>
      <trkpt lat="45.74265" lon="5.32249">
        <ele>315.8</ele>
        <time>2023-05-27T10:03:20Z</time>
      </trkpt>
      <trkpt lat="45.74262" lon="5.32247">
        <ele>316</ele>
        <time>2023-05-27T10:03:21Z</time>
      </trkpt>
      <trkpt lat="45.74259" lon="5.32244">
        <ele>316.2</ele>
        <time>2023-05-27T10:03:22Z</time>
      </trkpt>
      <trkpt lat="45.74255" lon="5.32242">
        <ele>316.2</ele>
        <time>2023-05-27T10:03:23Z</time>
      </trkpt>
      <trkpt lat="45.74252" lon="5.3224">
        <ele>316.6</ele>
        <time>2023-05-27T10:03:24Z</time>
      </trkpt>
      <trkpt lat="45.7425" lon="5.32237">
        <ele>316.8</ele>
        <time>2023-05-27T10:03:25Z</time>
      </trkpt>
      <trkpt lat="45.74247" lon="5.32235">
        <ele>316.8</ele>
        <time>2023-05-27T10:03:26Z</time>
      </trkpt>
      <trkpt lat="45.74245" lon="5.32233">
        <ele>317</ele>
        <time>2023-05-27T10:03:27Z</time>
      </trkpt>
      <trkpt lat="45.74242" lon="5.3223">
        <ele>317.2</ele>
        <time>2023-05-27T10:03:28Z</time>
      </trkpt>
      <trkpt lat="45.74239" lon="5.32227">
        <ele>317.4</ele>
        <time>2023-05-27T10:03:29Z</time>
      </trkpt>
      <trkpt lat="45.74236" lon="5.32225">
        <ele>317.4</ele>
        <time>2023-05-27T10:03:30Z</time>
      </trkpt>
      <trkpt lat="45.74232" lon="5.32223">
        <ele>317.4</ele>
        <time>2023-05-27T10:03:31Z</time>
      </trkpt>
      <trkpt lat="45.74229" lon="5.3222">
        <ele>317.6</ele>
        <time>2023-05-27T10:03:32Z</time>
      </trkpt>
      <trkpt lat="45.74226" lon="5.32217">
        <ele>317.8</ele>
        <time>2023-05-27T10:03:33Z</time>
      </trkpt>
      <trkpt lat="45.74223" lon="5.32214">
        <ele>318</ele>
        <time>2023-05-27T10:03:34Z</time>
      </trkpt>
      <trkpt lat="45.7422" lon="5.32212">
        <ele>318</ele>
        <time>2023-05-27T10:03:35Z</time>
      </trkpt>
      <trkpt lat="45.74216" lon="5.32209">
        <ele>318.4</ele>
        <time>2023-05-27T10:03:36Z</time>
      </trkpt>
      <trkpt lat="45.74213" lon="5.32206">
        <ele>318.6</ele>
        <time>2023-05-27T10:03:37Z</time>
      </trkpt>
      <trkpt lat="45.74209" lon="5.32203">
        <ele>318.8</ele>
        <time>2023-05-27T10:03:38Z</time>
      </trkpt>
      <trkpt lat="45.74205" lon="5.32201">
        <ele>319</ele>
        <time>2023-05-27T10:03:39Z</time>
      </trkpt>
      <trkpt lat="45.74202" lon="5.32198">
        <ele>319</ele>
        <time>2023-05-27T10:03:40Z</time>
      </trkpt>
      <trkpt lat="45.74198" lon="5.32195">
        <ele>319.4</ele>
        <time>2023-05-27T10:03:41Z</time>
      </trkpt>
      <trkpt lat="45.74195" lon="5.32192">
        <ele>319.4</ele>
        <time>2023-05-27T10:03:42Z</time>
      </trkpt>
      <trkpt lat="45.74191" lon="5.32189">
        <ele>319.6</ele>
        <time>2023-05-27T10:03:43Z</time>
      </trkpt>
      <trkpt lat="45.74188" lon="5.32186">
        <ele>319.8</ele>
        <time>2023-05-27T10:03:44Z</time>
      </trkpt>
      <trkpt lat="45.74184" lon="5.32184">
        <ele>320.2</ele>
        <time>2023-05-27T10:03:45Z</time>
      </trkpt>
      <trkpt lat="45.7418" lon="5.32181">
        <ele>320.2</ele>
        <time>2023-05-27T10:03:46Z</time>
      </trkpt>
      <trkpt lat="45.74177" lon="5.32178">
        <ele>320.6</ele>
        <time>2023-05-27T10:03:47Z</time>
      </trkpt>
      <trkpt lat="45.74173" lon="5.32175">
        <ele>320.8</ele>
        <time>2023-05-27T10:03:48Z</time>
      </trkpt>
      <trkpt lat="45.7417" lon="5.32172">
        <ele>321</ele>
        <time>2023-05-27T10:03:49Z</time>
      </trkpt>
      <trkpt lat="45.74166" lon="5.32169">
        <ele>321</ele>
        <time>2023-05-27T10:03:50Z</time>
      </trkpt>
      <trkpt lat="45.74163" lon="5.32166">
        <ele>321.4</ele>
        <time>2023-05-27T10:03:51Z</time>
      </trkpt>
      <trkpt lat="45.74159" lon="5.32164">
        <ele>321.8</ele>
        <time>2023-05-27T10:03:52Z</time>
      </trkpt>
      <trkpt lat="45.74155" lon="5.32161">
        <ele>322</ele>
        <time>2023-05-27T10:03:53Z</time>
      </trkpt>
      <trkpt lat="45.74152" lon="5.32158">
        <ele>322.2</ele>
        <time>2023-05-27T10:03:54Z</time>
      </trkpt>
      <trkpt lat="45.74148" lon="5.32156">
        <ele>322.4</ele>
        <time>2023-05-27T10:03:55Z</time>
      </trkpt>
      <trkpt lat="45.74145" lon="5.32153">
        <ele>322.4</ele>
        <time>2023-05-27T10:03:56Z</time>
      </trkpt>
      <trkpt lat="45.74141" lon="5.32151">
        <ele>322.4</ele>
        <time>2023-05-27T10:03:57Z</time>
      </trkpt>
      <trkpt lat="45.74138" lon="5.32148">
        <ele>322.4</ele>
        <time>2023-05-27T10:03:58Z</time>
      </trkpt>
      <trkpt lat="45.74135" lon="5.32145">
        <ele>322.6</ele>
        <time>2023-05-27T10:03:59Z</time>
      </trkpt>
      <trkpt lat="45.74131" lon="5.32142">
        <ele>322.8</ele>
        <time>2023-05-27T10:04:00Z</time>
      </trkpt>
      <trkpt lat="45.74128" lon="5.3214">
        <ele>323</ele>
        <time>2023-05-27T10:04:01Z</time>
      </trkpt>
      <trkpt lat="45.74124" lon="5.32137">
        <ele>323</ele>
        <time>2023-05-27T10:04:02Z</time>
      </trkpt>
      <trkpt lat="45.7412" lon="5.32134">
        <ele>323.2</ele>
        <time>2023-05-27T10:04:03Z</time>
      </trkpt>
      <trkpt lat="45.74116" lon="5.32131">
        <ele>323.4</ele>
        <time>2023-05-27T10:04:04Z</time>
      </trkpt>
      <trkpt lat="45.74113" lon="5.32128">
        <ele>323.6</ele>
        <time>2023-05-27T10:04:05Z</time>
      </trkpt>
      <trkpt lat="45.74109" lon="5.32125">
        <ele>323.6</ele>
        <time>2023-05-27T10:04:06Z</time>
      </trkpt>
      <trkpt lat="45.74105" lon="5.32121">
        <ele>323.8</ele>
        <time>2023-05-27T10:04:07Z</time>
      </trkpt>
      <trkpt lat="45.74101" lon="5.32118">
        <ele>324.2</ele>
        <time>2023-05-27T10:04:08Z</time>
      </trkpt>
      <trkpt lat="45.74097" lon="5.32115">
        <ele>324.4</ele>
        <time>2023-05-27T10:04:09Z</time>
      </trkpt>
      <trkpt lat="45.74093" lon="5.32111">
        <ele>324.6</ele>
        <time>2023-05-27T10:04:10Z</time>
      </trkpt>
      <trkpt lat="45.74089" lon="5.32108">
        <ele>325</ele>
        <time>2023-05-27T10:04:11Z</time>
      </trkpt>
      <trkpt lat="45.74084" lon="5.32104">
        <ele>325.2</ele>
        <time>2023-05-27T10:04:12Z</time>
      </trkpt>
      <trkpt lat="45.7408" lon="5.32101">
        <ele>325.6</ele>
        <time>2023-05-27T10:04:13Z</time>
      </trkpt>
      <trkpt lat="45.74075" lon="5.32098">
        <ele>325.6</ele>
        <time>2023-05-27T10:04:14Z</time>
      </trkpt>
      <trkpt lat="45.7407" lon="5.32094">
        <ele>325.8</ele>
        <time>2023-05-27T10:04:15Z</time>
      </trkpt>
      <trkpt lat="45.74065" lon="5.32091">
        <ele>326</ele>
        <time>2023-05-27T10:04:16Z</time>
      </trkpt>
      <trkpt lat="45.74061" lon="5.32087">
        <ele>326.2</ele>
        <time>2023-05-27T10:04:17Z</time>
      </trkpt>
      <trkpt lat="45.74056" lon="5.32084">
        <ele>326.2</ele>
        <time>2023-05-27T10:04:18Z</time>
      </trkpt>
      <trkpt lat="45.74051" lon="5.32081">
        <ele>326.4</ele>
        <time>2023-05-27T10:04:19Z</time>
      </trkpt>
      <trkpt lat="45.74046" lon="5.32078">
        <ele>326.6</ele>
        <time>2023-05-27T10:04:20Z</time>
      </trkpt>
      <trkpt lat="45.7404" lon="5.32075">
        <ele>326.6</ele>
        <time>2023-05-27T10:04:21Z</time>
      </trkpt>
      <trkpt lat="45.74035" lon="5.32073">
        <ele>326.8</ele>
        <time>2023-05-27T10:04:22Z</time>
      </trkpt>
      <trkpt lat="45.7403" lon="5.32071">
        <ele>326.8</ele>
        <time>2023-05-27T10:04:23Z</time>
      </trkpt>
      <trkpt lat="45.74024" lon="5.32069">
        <ele>327.2</ele>
        <time>2023-05-27T10:04:24Z</time>
      </trkpt>
      <trkpt lat="45.74018" lon="5.32067">
        <ele>327.4</ele>
        <time>2023-05-27T10:04:25Z</time>
      </trkpt>
      <trkpt lat="45.74013" lon="5.32065">
        <ele>327.4</ele>
        <time>2023-05-27T10:04:26Z</time>
      </trkpt>
      <trkpt lat="45.74007" lon="5.32063">
        <ele>327.6</ele>
        <time>2023-05-27T10:04:27Z</time>
      </trkpt>
      <trkpt lat="45.74001" lon="5.32062">
        <ele>327.8</ele>
        <time>2023-05-27T10:04:28Z</time>
      </trkpt>
      <trkpt lat="45.73995" lon="5.3206">
        <ele>327.8</ele>
        <time>2023-05-27T10:04:29Z</time>
      </trkpt>
      <trkpt lat="45.7399" lon="5.32058">
        <ele>328</ele>
        <time>2023-05-27T10:04:30Z</time>
      </trkpt>
      <trkpt lat="45.73984" lon="5.32056">
        <ele>328.2</ele>
        <time>2023-05-27T10:04:31Z</time>
      </trkpt>
      <trkpt lat="45.73979" lon="5.32052">
        <ele>328.2</ele>
        <time>2023-05-27T10:04:32Z</time>
      </trkpt>
      <trkpt lat="45.73975" lon="5.32049">
        <ele>328.6</ele>
        <time>2023-05-27T10:04:33Z</time>
      </trkpt>
      <trkpt lat="45.73971" lon="5.32044">
        <ele>328.8</ele>
        <time>2023-05-27T10:04:34Z</time>
      </trkpt>
      <trkpt lat="45.73967" lon="5.32039">
        <ele>328.8</ele>
        <time>2023-05-27T10:04:35Z</time>
      </trkpt>
      <trkpt lat="45.73964" lon="5.32032">
        <ele>329</ele>
        <time>2023-05-27T10:04:36Z</time>
      </trkpt>
      <trkpt lat="45.73961" lon="5.32025">
        <ele>329</ele>
        <time>2023-05-27T10:04:37Z</time>
      </trkpt>
      <trkpt lat="45.73959" lon="5.32018">
        <ele>329.2</ele>
        <time>2023-05-27T10:04:38Z</time>
      </trkpt>
      <trkpt lat="45.73956" lon="5.32012">
        <ele>329.2</ele>
        <time>2023-05-27T10:04:39Z</time>
      </trkpt>
      <trkpt lat="45.73954" lon="5.32006">
        <ele>329.4</ele>
        <time>2023-05-27T10:04:40Z</time>
      </trkpt>
      <trkpt lat="45.73952" lon="5.31999">
        <ele>329.8</ele>
        <time>2023-05-27T10:04:41Z</time>
      </trkpt>
      <trkpt lat="45.7395" lon="5.31993">
        <ele>329.8</ele>
        <time>2023-05-27T10:04:42Z</time>
      </trkpt>
      <trkpt lat="45.73948" lon="5.31987">
        <ele>330.2</ele>
        <time>2023-05-27T10:04:43Z</time>
      </trkpt>
      <trkpt lat="45.73945" lon="5.31981">
        <ele>330.4</ele>
        <time>2023-05-27T10:04:44Z</time>
      </trkpt>
      <trkpt lat="45.73943" lon="5.31975">
        <ele>330.8</ele>
        <time>2023-05-27T10:04:45Z</time>
      </trkpt>
      <trkpt lat="45.7394" lon="5.3197">
        <ele>331</ele>
        <time>2023-05-27T10:04:46Z</time>
      </trkpt>
      <trkpt lat="45.73937" lon="5.31965">
        <ele>331.4</ele>
        <time>2023-05-27T10:04:47Z</time>
      </trkpt>
      <trkpt lat="45.73934" lon="5.31961">
        <ele>331.4</ele>
        <time>2023-05-27T10:04:48Z</time>
      </trkpt>
      <trkpt lat="45.73931" lon="5.31958">
        <ele>331.8</ele>
        <time>2023-05-27T10:04:49Z</time>
      </trkpt>
      <trkpt lat="45.73927" lon="5.31955">
        <ele>331.8</ele>
        <time>2023-05-27T10:04:50Z</time>
      </trkpt>
      <trkpt lat="45.73924" lon="5.31952">
        <ele>332</ele>
        <time>2023-05-27T10:04:51Z</time>
      </trkpt>
      <trkpt lat="45.7392" lon="5.3195">
        <ele>332.2</ele>
        <time>2023-05-27T10:04:52Z</time>
      </trkpt>
      <trkpt lat="45.73917" lon="5.31948">
        <ele>332.2</ele>
        <time>2023-05-27T10:04:53Z</time>
      </trkpt>
      <trkpt lat="45.73913" lon="5.31946">
        <ele>332.2</ele>
        <time>2023-05-27T10:04:54Z</time>
      </trkpt>
      <trkpt lat="45.73909" lon="5.31945">
        <ele>332.4</ele>
        <time>2023-05-27T10:04:55Z</time>
      </trkpt>
      <trkpt lat="45.73905" lon="5.31944">
        <ele>332.4</ele>
        <time>2023-05-27T10:04:56Z</time>
      </trkpt>
      <trkpt lat="45.73901" lon="5.31943">
        <ele>333</ele>
        <time>2023-05-27T10:04:57Z</time>
      </trkpt>
      <trkpt lat="45.73896" lon="5.31942">
        <ele>333.4</ele>
        <time>2023-05-27T10:04:58Z</time>
      </trkpt>
      <trkpt lat="45.73892" lon="5.31942">
        <ele>333.8</ele>
        <time>2023-05-27T10:04:59Z</time>
      </trkpt>
      <trkpt lat="45.73887" lon="5.31941">
        <ele>334</ele>
        <time>2023-05-27T10:05:00Z</time>
      </trkpt>
      <trkpt lat="45.73883" lon="5.3194">
        <ele>334.6</ele>
        <time>2023-05-27T10:05:01Z</time>
      </trkpt>
      <trkpt lat="45.73879" lon="5.31939">
        <ele>334.8</ele>
        <time>2023-05-27T10:05:02Z</time>
      </trkpt>
      <trkpt lat="45.73875" lon="5.31939">
        <ele>335.2</ele>
        <time>2023-05-27T10:05:03Z</time>
      </trkpt>
      <trkpt lat="45.7387" lon="5.31938">
        <ele>335.2</ele>
        <time>2023-05-27T10:05:04Z</time>
      </trkpt>
      <trkpt lat="45.73865" lon="5.31938">
        <ele>335.6</ele>
        <time>2023-05-27T10:05:05Z</time>
      </trkpt>
      <trkpt lat="45.73861" lon="5.31937">
        <ele>335.6</ele>
        <time>2023-05-27T10:05:06Z</time>
      </trkpt>
      <trkpt lat="45.73857" lon="5.31936">
        <ele>335.8</ele>
        <time>2023-05-27T10:05:07Z</time>
      </trkpt>
      <trkpt lat="45.73853" lon="5.31936">
        <ele>336</ele>
        <time>2023-05-27T10:05:08Z</time>
      </trkpt>
      <trkpt lat="45.73849" lon="5.31935">
        <ele>336</ele>
        <time>2023-05-27T10:05:09Z</time>
      </trkpt>
      <trkpt lat="45.73845" lon="5.31934">
        <ele>336.2</ele>
        <time>2023-05-27T10:05:10Z</time>
      </trkpt>
      <trkpt lat="45.73841" lon="5.31933">
        <ele>336.4</ele>
        <time>2023-05-27T10:05:11Z</time>
      </trkpt>
      <trkpt lat="45.73837" lon="5.31933">
        <ele>336.6</ele>
        <time>2023-05-27T10:05:12Z</time>
      </trkpt>
      <trkpt lat="45.73833" lon="5.31932">
        <ele>337.2</ele>
        <time>2023-05-27T10:05:13Z</time>
      </trkpt>
      <trkpt lat="45.73829" lon="5.31932">
        <ele>337.4</ele>
        <time>2023-05-27T10:05:14Z</time>
      </trkpt>
      <trkpt lat="45.73825" lon="5.31931">
        <ele>337.8</ele>
        <time>2023-05-27T10:05:15Z</time>
      </trkpt>
      <trkpt lat="45.73821" lon="5.31931">
        <ele>338.2</ele>
        <time>2023-05-27T10:05:16Z</time>
      </trkpt>
      <trkpt lat="45.73817" lon="5.3193">
        <ele>338.4</ele>
        <time>2023-05-27T10:05:17Z</time>
      </trkpt>
      <trkpt lat="45.73813" lon="5.31928">
        <ele>338.4</ele>
        <time>2023-05-27T10:05:18Z</time>
      </trkpt>
      <trkpt lat="45.73809" lon="5.31927">
        <ele>338.8</ele>
        <time>2023-05-27T10:05:19Z</time>
      </trkpt>
      <trkpt lat="45.73805" lon="5.31926">
        <ele>339</ele>
        <time>2023-05-27T10:05:20Z</time>
      </trkpt>
      <trkpt lat="45.73801" lon="5.31924">
        <ele>339.2</ele>
        <time>2023-05-27T10:05:21Z</time>
      </trkpt>
      <trkpt lat="45.73797" lon="5.31921">
        <ele>339.4</ele>
        <time>2023-05-27T10:05:22Z</time>
      </trkpt>
      <trkpt lat="45.73794" lon="5.31918">
        <ele>339.4</ele>
        <time>2023-05-27T10:05:23Z</time>
      </trkpt>
      <trkpt lat="45.7379" lon="5.31914">
        <ele>339.8</ele>
        <time>2023-05-27T10:05:24Z</time>
      </trkpt>
      <trkpt lat="45.73787" lon="5.3191">
        <ele>339.8</ele>
        <time>2023-05-27T10:05:25Z</time>
      </trkpt>
      <trkpt lat="45.73783" lon="5.31906">
        <ele>340</ele>
        <time>2023-05-27T10:05:26Z</time>
      </trkpt>
      <trkpt lat="45.7378" lon="5.31902">
        <ele>340.2</ele>
        <time>2023-05-27T10:05:27Z</time>
      </trkpt>
      <trkpt lat="45.73777" lon="5.31897">
        <ele>340.4</ele>
        <time>2023-05-27T10:05:28Z</time>
      </trkpt>
      <trkpt lat="45.73774" lon="5.31892">
        <ele>340.6</ele>
        <time>2023-05-27T10:05:29Z</time>
      </trkpt>
      <trkpt lat="45.73771" lon="5.31887">
        <ele>340.6</ele>
        <time>2023-05-27T10:05:30Z</time>
      </trkpt>
      <trkpt lat="45.73769" lon="5.31882">
        <ele>340.8</ele>
        <time>2023-05-27T10:05:31Z</time>
      </trkpt>
      <trkpt lat="45.73766" lon="5.31876">
        <ele>341</ele>
        <time>2023-05-27T10:05:32Z</time>
      </trkpt>
      <trkpt lat="45.73764" lon="5.3187">
        <ele>341</ele>
        <time>2023-05-27T10:05:33Z</time>
      </trkpt>
      <trkpt lat="45.73761" lon="5.31865">
        <ele>341.2</ele>
        <time>2023-05-27T10:05:34Z</time>
      </trkpt>
      <trkpt lat="45.73759" lon="5.31859">
        <ele>341.2</ele>
        <time>2023-05-27T10:05:35Z</time>
      </trkpt>
      <trkpt lat="45.73756" lon="5.31853">
        <ele>341.4</ele>
        <time>2023-05-27T10:05:36Z</time>
      </trkpt>
      <trkpt lat="45.73754" lon="5.31848">
        <ele>341.4</ele>
        <time>2023-05-27T10:05:37Z</time>
      </trkpt>
      <trkpt lat="45.73752" lon="5.31842">
        <ele>341.6</ele>
        <time>2023-05-27T10:05:38Z</time>
      </trkpt>
      <trkpt lat="45.73749" lon="5.31837">
        <ele>341.8</ele>
        <time>2023-05-27T10:05:39Z</time>
      </trkpt>
      <trkpt lat="45.73747" lon="5.31831">
        <ele>342</ele>
        <time>2023-05-27T10:05:40Z</time>
      </trkpt>
      <trkpt lat="45.73744" lon="5.31826">
        <ele>342</ele>
        <time>2023-05-27T10:05:41Z</time>
      </trkpt>
      <trkpt lat="45.73741" lon="5.31821">
        <ele>342.2</ele>
        <time>2023-05-27T10:05:42Z</time>
      </trkpt>
      <trkpt lat="45.73738" lon="5.31817">
        <ele>342.4</ele>
        <time>2023-05-27T10:05:43Z</time>
      </trkpt>
      <trkpt lat="45.73735" lon="5.31813">
        <ele>342.6</ele>
        <time>2023-05-27T10:05:44Z</time>
      </trkpt>
      <trkpt lat="45.73732" lon="5.31809">
        <ele>342.8</ele>
        <time>2023-05-27T10:05:45Z</time>
      </trkpt>
      <trkpt lat="45.73728" lon="5.31806">
        <ele>342.8</ele>
        <time>2023-05-27T10:05:46Z</time>
      </trkpt>
      <trkpt lat="45.73725" lon="5.31802">
        <ele>343</ele>
        <time>2023-05-27T10:05:47Z</time>
      </trkpt>
      <trkpt lat="45.73721" lon="5.31799">
        <ele>343</ele>
        <time>2023-05-27T10:05:48Z</time>
      </trkpt>
      <trkpt lat="45.73717" lon="5.31796">
        <ele>343.2</ele>
        <time>2023-05-27T10:05:49Z</time>
      </trkpt>
      <trkpt lat="45.73713" lon="5.31793">
        <ele>343.4</ele>
        <time>2023-05-27T10:05:50Z</time>
      </trkpt>
      <trkpt lat="45.73709" lon="5.3179">
        <ele>343.6</ele>
        <time>2023-05-27T10:05:51Z</time>
      </trkpt>
      <trkpt lat="45.73705" lon="5.31788">
        <ele>343.8</ele>
        <time>2023-05-27T10:05:52Z</time>
      </trkpt>
      <trkpt lat="45.73701" lon="5.31787">
        <ele>344</ele>
        <time>2023-05-27T10:05:53Z</time>
      </trkpt>
      <trkpt lat="45.73697" lon="5.31785">
        <ele>344.4</ele>
        <time>2023-05-27T10:05:54Z</time>
      </trkpt>
      <trkpt lat="45.73693" lon="5.31783">
        <ele>344.6</ele>
        <time>2023-05-27T10:05:55Z</time>
      </trkpt>
      <trkpt lat="45.73688" lon="5.31782">
        <ele>344.8</ele>
        <time>2023-05-27T10:05:56Z</time>
      </trkpt>
      <trkpt lat="45.73684" lon="5.3178">
        <ele>345</ele>
        <time>2023-05-27T10:05:57Z</time>
      </trkpt>
      <trkpt lat="45.7368" lon="5.31778">
        <ele>345.2</ele>
        <time>2023-05-27T10:05:58Z</time>
      </trkpt>
      <trkpt lat="45.73676" lon="5.31777">
        <ele>345.4</ele>
        <time>2023-05-27T10:05:59Z</time>
      </trkpt>
      <trkpt lat="45.73672" lon="5.31776">
        <ele>345.6</ele>
        <time>2023-05-27T10:06:00Z</time>
      </trkpt>
      <trkpt lat="45.73668" lon="5.31774">
        <ele>346.2</ele>
        <time>2023-05-27T10:06:01Z</time>
      </trkpt>
      <trkpt lat="45.73664" lon="5.31773">
        <ele>346.2</ele>
        <time>2023-05-27T10:06:02Z</time>
      </trkpt>
      <trkpt lat="45.73659" lon="5.31771">
        <ele>346.6</ele>
        <time>2023-05-27T10:06:03Z</time>
      </trkpt>
      <trkpt lat="45.73656" lon="5.3177">
        <ele>346.6</ele>
        <time>2023-05-27T10:06:04Z</time>
      </trkpt>
      <trkpt lat="45.73652" lon="5.31768">
        <ele>346.8</ele>
        <time>2023-05-27T10:06:05Z</time>
      </trkpt>
      <trkpt lat="45.73648" lon="5.31766">
        <ele>346.8</ele>
        <time>2023-05-27T10:06:06Z</time>
      </trkpt>
      <trkpt lat="45.73644" lon="5.31765">
        <ele>347.2</ele>
        <time>2023-05-27T10:06:07Z</time>
      </trkpt>
      <trkpt lat="45.7364" lon="5.31763">
        <ele>347.4</ele>
        <time>2023-05-27T10:06:08Z</time>
      </trkpt>
      <trkpt lat="45.73636" lon="5.31761">
        <ele>347.6</ele>
        <time>2023-05-27T10:06:09Z</time>
      </trkpt>
      <trkpt lat="45.73632" lon="5.31758">
        <ele>348.2</ele>
        <time>2023-05-27T10:06:10Z</time>
      </trkpt>
      <trkpt lat="45.73628" lon="5.31756">
        <ele>348.4</ele>
        <time>2023-05-27T10:06:11Z</time>
      </trkpt>
      <trkpt lat="45.73624" lon="5.31754">
        <ele>348.8</ele>
        <time>2023-05-27T10:06:12Z</time>
      </trkpt>
      <trkpt lat="45.7362" lon="5.31751">
        <ele>348.8</ele>
        <time>2023-05-27T10:06:13Z</time>
      </trkpt>
      <trkpt lat="45.73616" lon="5.31749">
        <ele>349.2</ele>
        <time>2023-05-27T10:06:14Z</time>
      </trkpt>
      <trkpt lat="45.73612" lon="5.31746">
        <ele>349.6</ele>
        <time>2023-05-27T10:06:15Z</time>
      </trkpt>
      <trkpt lat="45.73609" lon="5.31742">
        <ele>349.8</ele>
        <time>2023-05-27T10:06:16Z</time>
      </trkpt>
      <trkpt lat="45.73605" lon="5.31739">
        <ele>350.6</ele>
        <time>2023-05-27T10:06:17Z</time>
      </trkpt>
      <trkpt lat="45.73602" lon="5.31736">
        <ele>350.8</ele>
        <time>2023-05-27T10:06:18Z</time>
      </trkpt>
      <trkpt lat="45.73598" lon="5.31732">
        <ele>351.4</ele>
        <time>2023-05-27T10:06:19Z</time>
      </trkpt>
      <trkpt lat="45.73595" lon="5.31729">
        <ele>351.6</ele>
        <time>2023-05-27T10:06:20Z</time>
      </trkpt>
      <trkpt lat="45.73591" lon="5.31725">
        <ele>351.8</ele>
        <time>2023-05-27T10:06:21Z</time>
      </trkpt>
      <trkpt lat="45.73587" lon="5.31721">
        <ele>352</ele>
        <time>2023-05-27T10:06:22Z</time>
      </trkpt>
      <trkpt lat="45.73583" lon="5.31716">
        <ele>352.2</ele>
        <time>2023-05-27T10:06:23Z</time>
      </trkpt>
      <trkpt lat="45.7358" lon="5.31712">
        <ele>352.4</ele>
        <time>2023-05-27T10:06:24Z</time>
      </trkpt>
      <trkpt lat="45.73576" lon="5.31707">
        <ele>352.6</ele>
        <time>2023-05-27T10:06:25Z</time>
      </trkpt>
      <trkpt lat="45.73573" lon="5.31703">
        <ele>353</ele>
        <time>2023-05-27T10:06:26Z</time>
      </trkpt>
      <trkpt lat="45.73569" lon="5.31698">
        <ele>353</ele>
        <time>2023-05-27T10:06:27Z</time>
      </trkpt>
      <trkpt lat="45.73565" lon="5.31694">
        <ele>353.4</ele>
        <time>2023-05-27T10:06:28Z</time>
      </trkpt>
      <trkpt lat="45.73561" lon="5.31691">
        <ele>353.4</ele>
        <time>2023-05-27T10:06:29Z</time>
      </trkpt>
      <trkpt lat="45.73557" lon="5.31687">
        <ele>353.8</ele>
        <time>2023-05-27T10:06:30Z</time>
      </trkpt>
      <trkpt lat="45.73553" lon="5.31683">
        <ele>354.2</ele>
        <time>2023-05-27T10:06:31Z</time>
      </trkpt>
      <trkpt lat="45.73549" lon="5.3168">
        <ele>354.4</ele>
        <time>2023-05-27T10:06:32Z</time>
      </trkpt>
      <trkpt lat="45.73539" lon="5.31674">
        <ele>355</ele>
        <time>2023-05-27T10:06:34Z</time>
      </trkpt>
      <trkpt lat="45.73534" lon="5.31672">
        <ele>355.2</ele>
        <time>2023-05-27T10:06:35Z</time>
      </trkpt>
      <trkpt lat="45.73528" lon="5.3167">
        <ele>355.4</ele>
        <time>2023-05-27T10:06:36Z</time>
      </trkpt>
      <trkpt lat="45.73522" lon="5.31668">
        <ele>355.6</ele>
        <time>2023-05-27T10:06:37Z</time>
      </trkpt>
      <trkpt lat="45.7351" lon="5.31663">
        <ele>356</ele>
        <time>2023-05-27T10:06:39Z</time>
      </trkpt>
      <trkpt lat="45.73504" lon="5.31661">
        <ele>356.4</ele>
        <time>2023-05-27T10:06:40Z</time>
      </trkpt>
      <trkpt lat="45.73492" lon="5.31657">
        <ele>356.6</ele>
        <time>2023-05-27T10:06:42Z</time>
      </trkpt>
      <trkpt lat="45.73486" lon="5.31655">
        <ele>356.8</ele>
        <time>2023-05-27T10:06:43Z</time>
      </trkpt>
      <trkpt lat="45.73481" lon="5.31652">
        <ele>356.8</ele>
        <time>2023-05-27T10:06:44Z</time>
      </trkpt>
      <trkpt lat="45.7347" lon="5.31646">
        <ele>357</ele>
        <time>2023-05-27T10:06:46Z</time>
      </trkpt>
      <trkpt lat="45.73464" lon="5.31643">
        <ele>357.2</ele>
        <time>2023-05-27T10:06:47Z</time>
      </trkpt>
      <trkpt lat="45.73459" lon="5.31639">
        <ele>357.4</ele>
        <time>2023-05-27T10:06:48Z</time>
      </trkpt>
      <trkpt lat="45.73454" lon="5.31636">
        <ele>357.6</ele>
        <time>2023-05-27T10:06:49Z</time>
      </trkpt>
      <trkpt lat="45.7345" lon="5.3163">
        <ele>357.8</ele>
        <time>2023-05-27T10:06:50Z</time>
      </trkpt>
      <trkpt lat="45.73447" lon="5.31624">
        <ele>358</ele>
        <time>2023-05-27T10:06:51Z</time>
      </trkpt>
      <trkpt lat="45.73445" lon="5.31615">
        <ele>358.2</ele>
        <time>2023-05-27T10:06:52Z</time>
      </trkpt>
      <trkpt lat="45.73445" lon="5.31606">
        <ele>358.6</ele>
        <time>2023-05-27T10:06:53Z</time>
      </trkpt>
      <trkpt lat="45.73445" lon="5.31597">
        <ele>358.8</ele>
        <time>2023-05-27T10:06:54Z</time>
      </trkpt>
      <trkpt lat="45.73445" lon="5.31588">
        <ele>359.2</ele>
        <time>2023-05-27T10:06:55Z</time>
      </trkpt>
      <trkpt lat="45.73447" lon="5.31568">
        <ele>359.4</ele>
        <time>2023-05-27T10:06:57Z</time>
      </trkpt>
      <trkpt lat="45.73449" lon="5.31558">
        <ele>359.4</ele>
        <time>2023-05-27T10:06:58Z</time>
      </trkpt>
      <trkpt lat="45.7345" lon="5.31548">
        <ele>359.6</ele>
        <time>2023-05-27T10:06:59Z</time>
      </trkpt>
      <trkpt lat="45.73451" lon="5.31537">
        <ele>359.6</ele>
        <time>2023-05-27T10:07:00Z</time>
      </trkpt>
      <trkpt lat="45.73452" lon="5.31525">
        <ele>359.6</ele>
        <time>2023-05-27T10:07:01Z</time>
      </trkpt>
      <trkpt lat="45.73454" lon="5.31502">
        <ele>360</ele>
        <time>2023-05-27T10:07:03Z</time>
      </trkpt>
      <trkpt lat="45.73455" lon="5.3149">
        <ele>360.2</ele>
        <time>2023-05-27T10:07:04Z</time>
      </trkpt>
      <trkpt lat="45.73456" lon="5.31478">
        <ele>360.2</ele>
        <time>2023-05-27T10:07:05Z</time>
      </trkpt>
      <trkpt lat="45.73457" lon="5.31466">
        <ele>360.4</ele>
        <time>2023-05-27T10:07:06Z</time>
      </trkpt>
      <trkpt lat="45.73458" lon="5.31454">
        <ele>360.6</ele>
        <time>2023-05-27T10:07:07Z</time>
      </trkpt>
      <trkpt lat="45.7346" lon="5.31429">
        <ele>360.8</ele>
        <time>2023-05-27T10:07:09Z</time>
      </trkpt>
      <trkpt lat="45.73461" lon="5.31417">
        <ele>361</ele>
        <time>2023-05-27T10:07:10Z</time>
      </trkpt>
      <trkpt lat="45.73462" lon="5.31405">
        <ele>361</ele>
        <time>2023-05-27T10:07:11Z</time>
      </trkpt>
      <trkpt lat="45.73463" lon="5.31393">
        <ele>361</ele>
        <time>2023-05-27T10:07:12Z</time>
      </trkpt>
      <trkpt lat="45.73466" lon="5.3137">
        <ele>361</ele>
        <time>2023-05-27T10:07:14Z</time>
      </trkpt>
      <trkpt lat="45.73467" lon="5.31359">
        <ele>361</ele>
        <time>2023-05-27T10:07:15Z</time>
      </trkpt>
      <trkpt lat="45.73468" lon="5.31348">
        <ele>360.8</ele>
        <time>2023-05-27T10:07:16Z</time>
      </trkpt>
      <trkpt lat="45.73469" lon="5.31337">
        <ele>360.8</ele>
        <time>2023-05-27T10:07:17Z</time>
      </trkpt>
      <trkpt lat="45.73471" lon="5.31325">
        <ele>360.8</ele>
        <time>2023-05-27T10:07:18Z</time>
      </trkpt>
      <trkpt lat="45.73472" lon="5.31302">
        <ele>361</ele>
        <time>2023-05-27T10:07:20Z</time>
      </trkpt>
      <trkpt lat="45.73474" lon="5.31291">
        <ele>361</ele>
        <time>2023-05-27T10:07:21Z</time>
      </trkpt>
      <trkpt lat="45.73474" lon="5.3128">
        <ele>361</ele>
        <time>2023-05-27T10:07:22Z</time>
      </trkpt>
      <trkpt lat="45.73475" lon="5.31269">
        <ele>361</ele>
        <time>2023-05-27T10:07:23Z</time>
      </trkpt>
      <trkpt lat="45.73476" lon="5.31257">
        <ele>361</ele>
        <time>2023-05-27T10:07:24Z</time>
      </trkpt>
      <trkpt lat="45.73478" lon="5.31234">
        <ele>360.8</ele>
        <time>2023-05-27T10:07:26Z</time>
      </trkpt>
      <trkpt lat="45.73479" lon="5.31222">
        <ele>360.6</ele>
        <time>2023-05-27T10:07:27Z</time>
      </trkpt>
      <trkpt lat="45.73479" lon="5.31211">
        <ele>360.4</ele>
        <time>2023-05-27T10:07:28Z</time>
      </trkpt>
      <trkpt lat="45.73478" lon="5.31199">
        <ele>360.4</ele>
        <time>2023-05-27T10:07:29Z</time>
      </trkpt>
      <trkpt lat="45.73475" lon="5.31187">
        <ele>360.2</ele>
        <time>2023-05-27T10:07:30Z</time>
      </trkpt>
      <trkpt lat="45.73467" lon="5.31166">
        <ele>360</ele>
        <time>2023-05-27T10:07:32Z</time>
      </trkpt>
      <trkpt lat="45.7346" lon="5.31156">
        <ele>360</ele>
        <time>2023-05-27T10:07:33Z</time>
      </trkpt>
      <trkpt lat="45.73454" lon="5.31147">
        <ele>360</ele>
        <time>2023-05-27T10:07:34Z</time>
      </trkpt>
      <trkpt lat="45.73448" lon="5.31138">
        <ele>360</ele>
        <time>2023-05-27T10:07:35Z</time>
      </trkpt>
      <trkpt lat="45.73441" lon="5.3113">
        <ele>360</ele>
        <time>2023-05-27T10:07:36Z</time>
      </trkpt>
      <trkpt lat="45.73435" lon="5.31122">
        <ele>360</ele>
        <time>2023-05-27T10:07:37Z</time>
      </trkpt>
      <trkpt lat="45.73429" lon="5.31114">
        <ele>360</ele>
        <time>2023-05-27T10:07:38Z</time>
      </trkpt>
      <trkpt lat="45.73423" lon="5.31107">
        <ele>360</ele>
        <time>2023-05-27T10:07:39Z</time>
      </trkpt>
      <trkpt lat="45.73418" lon="5.31099">
        <ele>360</ele>
        <time>2023-05-27T10:07:40Z</time>
      </trkpt>
      <trkpt lat="45.73413" lon="5.31092">
        <ele>360.2</ele>
        <time>2023-05-27T10:07:41Z</time>
      </trkpt>
      <trkpt lat="45.73408" lon="5.31085">
        <ele>360.4</ele>
        <time>2023-05-27T10:07:42Z</time>
      </trkpt>
      <trkpt lat="45.73399" lon="5.31074">
        <ele>360.8</ele>
        <time>2023-05-27T10:07:44Z</time>
      </trkpt>
      <trkpt lat="45.73395" lon="5.31069">
        <ele>360.8</ele>
        <time>2023-05-27T10:07:45Z</time>
      </trkpt>
      <trkpt lat="45.73391" lon="5.31063">
        <ele>361</ele>
        <time>2023-05-27T10:07:46Z</time>
      </trkpt>
      <trkpt lat="45.73387" lon="5.31058">
        <ele>361</ele>
        <time>2023-05-27T10:07:47Z</time>
      </trkpt>
      <trkpt lat="45.73383" lon="5.31053">
        <ele>361.2</ele>
        <time>2023-05-27T10:07:48Z</time>
      </trkpt>
      <trkpt lat="45.73375" lon="5.31041">
        <ele>361.4</ele>
        <time>2023-05-27T10:07:50Z</time>
      </trkpt>
      <trkpt lat="45.73371" lon="5.31036">
        <ele>361.8</ele>
        <time>2023-05-27T10:07:51Z</time>
      </trkpt>
      <trkpt lat="45.73367" lon="5.3103">
        <ele>361.8</ele>
        <time>2023-05-27T10:07:52Z</time>
      </trkpt>
      <trkpt lat="45.73363" lon="5.31024">
        <ele>361.8</ele>
        <time>2023-05-27T10:07:53Z</time>
      </trkpt>
      <trkpt lat="45.73356" lon="5.31014">
        <ele>361.8</ele>
        <time>2023-05-27T10:07:55Z</time>
      </trkpt>
      <trkpt lat="45.73352" lon="5.31009">
        <ele>361.8</ele>
        <time>2023-05-27T10:07:56Z</time>
      </trkpt>
      <trkpt lat="45.73348" lon="5.31004">
        <ele>361.8</ele>
        <time>2023-05-27T10:07:57Z</time>
      </trkpt>
      <trkpt lat="45.73345" lon="5.30999">
        <ele>361.8</ele>
        <time>2023-05-27T10:07:58Z</time>
      </trkpt>
      <trkpt lat="45.73341" lon="5.30994">
        <ele>361.6</ele>
        <time>2023-05-27T10:07:59Z</time>
      </trkpt>
      <trkpt lat="45.73337" lon="5.30989">
        <ele>361.6</ele>
        <time>2023-05-27T10:08:00Z</time>
      </trkpt>
      <trkpt lat="45.7333" lon="5.30979">
        <ele>361.6</ele>
        <time>2023-05-27T10:08:02Z</time>
      </trkpt>
      <trkpt lat="45.73327" lon="5.30974">
        <ele>361.6</ele>
        <time>2023-05-27T10:08:03Z</time>
      </trkpt>
      <trkpt lat="45.73323" lon="5.30969">
        <ele>361.4</ele>
        <time>2023-05-27T10:08:04Z</time>
      </trkpt>
      <trkpt lat="45.73319" lon="5.30964">
        <ele>361.4</ele>
        <time>2023-05-27T10:08:05Z</time>
      </trkpt>
      <trkpt lat="45.73316" lon="5.3096">
        <ele>361.4</ele>
        <time>2023-05-27T10:08:06Z</time>
      </trkpt>
      <trkpt lat="45.73309" lon="5.30951">
        <ele>361.2</ele>
        <time>2023-05-27T10:08:08Z</time>
      </trkpt>
      <trkpt lat="45.73306" lon="5.30947">
        <ele>361.2</ele>
        <time>2023-05-27T10:08:09Z</time>
      </trkpt>
      <trkpt lat="45.73302" lon="5.30943">
        <ele>361.2</ele>
        <time>2023-05-27T10:08:10Z</time>
      </trkpt>
      <trkpt lat="45.73299" lon="5.30939">
        <ele>361.2</ele>
        <time>2023-05-27T10:08:11Z</time>
      </trkpt>
      <trkpt lat="45.73292" lon="5.30932">
        <ele>361.2</ele>
        <time>2023-05-27T10:08:13Z</time>
      </trkpt>
      <trkpt lat="45.73288" lon="5.30929">
        <ele>361.2</ele>
        <time>2023-05-27T10:08:14Z</time>
      </trkpt>
      <trkpt lat="45.73284" lon="5.30925">
        <ele>361.2</ele>
        <time>2023-05-27T10:08:15Z</time>
      </trkpt>
      <trkpt lat="45.7328" lon="5.30923">
        <ele>361.2</ele>
        <time>2023-05-27T10:08:16Z</time>
      </trkpt>
      <trkpt lat="45.73276" lon="5.3092">
        <ele>361.2</ele>
        <time>2023-05-27T10:08:17Z</time>
      </trkpt>
      <trkpt lat="45.73267" lon="5.30915">
        <ele>361.2</ele>
        <time>2023-05-27T10:08:19Z</time>
      </trkpt>
      <trkpt lat="45.73262" lon="5.30912">
        <ele>361.2</ele>
        <time>2023-05-27T10:08:20Z</time>
      </trkpt>
      <trkpt lat="45.73258" lon="5.30911">
        <ele>361.2</ele>
        <time>2023-05-27T10:08:21Z</time>
      </trkpt>
      <trkpt lat="45.73253" lon="5.30909">
        <ele>361.2</ele>
        <time>2023-05-27T10:08:22Z</time>
      </trkpt>
      <trkpt lat="45.73249" lon="5.30907">
        <ele>361.2</ele>
        <time>2023-05-27T10:08:23Z</time>
      </trkpt>
      <trkpt lat="45.7324" lon="5.30904">
        <ele>361</ele>
        <time>2023-05-27T10:08:25Z</time>
      </trkpt>
      <trkpt lat="45.73236" lon="5.30902">
        <ele>360.8</ele>
        <time>2023-05-27T10:08:26Z</time>
      </trkpt>
      <trkpt lat="45.73232" lon="5.30901">
        <ele>360.8</ele>
        <time>2023-05-27T10:08:27Z</time>
      </trkpt>
      <trkpt lat="45.73228" lon="5.30899">
        <ele>360.6</ele>
        <time>2023-05-27T10:08:28Z</time>
      </trkpt>
      <trkpt lat="45.73223" lon="5.30898">
        <ele>360.6</ele>
        <time>2023-05-27T10:08:29Z</time>
      </trkpt>
      <trkpt lat="45.73215" lon="5.30895">
        <ele>360.6</ele>
        <time>2023-05-27T10:08:31Z</time>
      </trkpt>
      <trkpt lat="45.73211" lon="5.30894">
        <ele>360.6</ele>
        <time>2023-05-27T10:08:32Z</time>
      </trkpt>
      <trkpt lat="45.73207" lon="5.30893">
        <ele>360.6</ele>
        <time>2023-05-27T10:08:33Z</time>
      </trkpt>
      <trkpt lat="45.73204" lon="5.30891">
        <ele>360.6</ele>
        <time>2023-05-27T10:08:34Z</time>
      </trkpt>
      <trkpt lat="45.73199" lon="5.30889">
        <ele>360.6</ele>
        <time>2023-05-27T10:08:35Z</time>
      </trkpt>
      <trkpt lat="45.73191" lon="5.30886">
        <ele>360.8</ele>
        <time>2023-05-27T10:08:37Z</time>
      </trkpt>
      <trkpt lat="45.73187" lon="5.30885">
        <ele>360.8</ele>
        <time>2023-05-27T10:08:38Z</time>
      </trkpt>
      <trkpt lat="45.73184" lon="5.30884">
        <ele>360.8</ele>
        <time>2023-05-27T10:08:39Z</time>
      </trkpt>
      <trkpt lat="45.73181" lon="5.30882">
        <ele>361</ele>
        <time>2023-05-27T10:08:40Z</time>
      </trkpt>
      <trkpt lat="45.73178" lon="5.3088">
        <ele>361</ele>
        <time>2023-05-27T10:08:41Z</time>
      </trkpt>
      <trkpt lat="45.7317" lon="5.30874">
        <ele>361.2</ele>
        <time>2023-05-27T10:08:43Z</time>
      </trkpt>
      <trkpt lat="45.73167" lon="5.30871">
        <ele>361.2</ele>
        <time>2023-05-27T10:08:44Z</time>
      </trkpt>
      <trkpt lat="45.73163" lon="5.30869">
        <ele>361.4</ele>
        <time>2023-05-27T10:08:45Z</time>
      </trkpt>
      <trkpt lat="45.73159" lon="5.30865">
        <ele>361.8</ele>
        <time>2023-05-27T10:08:46Z</time>
      </trkpt>
      <trkpt lat="45.73156" lon="5.30861">
        <ele>362</ele>
        <time>2023-05-27T10:08:47Z</time>
      </trkpt>
      <trkpt lat="45.73152" lon="5.30856">
        <ele>362.2</ele>
        <time>2023-05-27T10:08:48Z</time>
      </trkpt>
      <trkpt lat="45.73149" lon="5.30852">
        <ele>362.4</ele>
        <time>2023-05-27T10:08:49Z</time>
      </trkpt>
      <trkpt lat="45.73146" lon="5.30847">
        <ele>362.6</ele>
        <time>2023-05-27T10:08:50Z</time>
      </trkpt>
      <trkpt lat="45.73144" lon="5.30842">
        <ele>362.8</ele>
        <time>2023-05-27T10:08:51Z</time>
      </trkpt>
      <trkpt lat="45.73141" lon="5.30836">
        <ele>363</ele>
        <time>2023-05-27T10:08:52Z</time>
      </trkpt>
      <trkpt lat="45.73139" lon="5.30831">
        <ele>363</ele>
        <time>2023-05-27T10:08:53Z</time>
      </trkpt>
      <trkpt lat="45.73137" lon="5.30824">
        <ele>363.4</ele>
        <time>2023-05-27T10:08:54Z</time>
      </trkpt>
      <trkpt lat="45.73136" lon="5.30819">
        <ele>363.6</ele>
        <time>2023-05-27T10:08:55Z</time>
      </trkpt>
      <trkpt lat="45.73134" lon="5.30812">
        <ele>363.6</ele>
        <time>2023-05-27T10:08:56Z</time>
      </trkpt>
      <trkpt lat="45.73133" lon="5.30805">
        <ele>363.8</ele>
        <time>2023-05-27T10:08:57Z</time>
      </trkpt>
      <trkpt lat="45.73133" lon="5.30799">
        <ele>363.8</ele>
        <time>2023-05-27T10:08:58Z</time>
      </trkpt>
      <trkpt lat="45.73132" lon="5.30792">
        <ele>364.2</ele>
        <time>2023-05-27T10:08:59Z</time>
      </trkpt>
      <trkpt lat="45.73131" lon="5.30785">
        <ele>364.4</ele>
        <time>2023-05-27T10:09:00Z</time>
      </trkpt>
      <trkpt lat="45.7313" lon="5.30777">
        <ele>364.6</ele>
        <time>2023-05-27T10:09:01Z</time>
      </trkpt>
      <trkpt lat="45.7313" lon="5.30771">
        <ele>364.8</ele>
        <time>2023-05-27T10:09:02Z</time>
      </trkpt>
      <trkpt lat="45.7313" lon="5.30763">
        <ele>365</ele>
        <time>2023-05-27T10:09:03Z</time>
      </trkpt>
      <trkpt lat="45.7313" lon="5.30756">
        <ele>365.2</ele>
        <time>2023-05-27T10:09:04Z</time>
      </trkpt>
      <trkpt lat="45.73129" lon="5.30749">
        <ele>365.4</ele>
        <time>2023-05-27T10:09:05Z</time>
      </trkpt>
      <trkpt lat="45.73129" lon="5.30741">
        <ele>365.6</ele>
        <time>2023-05-27T10:09:06Z</time>
      </trkpt>
      <trkpt lat="45.73128" lon="5.30734">
        <ele>365.8</ele>
        <time>2023-05-27T10:09:07Z</time>
      </trkpt>
      <trkpt lat="45.73128" lon="5.30726">
        <ele>366</ele>
        <time>2023-05-27T10:09:08Z</time>
      </trkpt>
      <trkpt lat="45.73128" lon="5.30718">
        <ele>366</ele>
        <time>2023-05-27T10:09:09Z</time>
      </trkpt>
      <trkpt lat="45.73127" lon="5.3071">
        <ele>366.2</ele>
        <time>2023-05-27T10:09:10Z</time>
      </trkpt>
      <trkpt lat="45.73127" lon="5.30702">
        <ele>366.4</ele>
        <time>2023-05-27T10:09:11Z</time>
      </trkpt>
      <trkpt lat="45.73126" lon="5.30685">
        <ele>366.6</ele>
        <time>2023-05-27T10:09:13Z</time>
      </trkpt>
      <trkpt lat="45.73126" lon="5.30676">
        <ele>366.8</ele>
        <time>2023-05-27T10:09:14Z</time>
      </trkpt>
      <trkpt lat="45.73125" lon="5.30667">
        <ele>367</ele>
        <time>2023-05-27T10:09:15Z</time>
      </trkpt>
      <trkpt lat="45.73125" lon="5.30659">
        <ele>367.2</ele>
        <time>2023-05-27T10:09:16Z</time>
      </trkpt>
      <trkpt lat="45.73124" lon="5.3065">
        <ele>367.4</ele>
        <time>2023-05-27T10:09:17Z</time>
      </trkpt>
      <trkpt lat="45.73123" lon="5.30632">
        <ele>367.6</ele>
        <time>2023-05-27T10:09:19Z</time>
      </trkpt>
      <trkpt lat="45.73122" lon="5.30623">
        <ele>367.8</ele>
        <time>2023-05-27T10:09:20Z</time>
      </trkpt>
      <trkpt lat="45.73122" lon="5.30614">
        <ele>368</ele>
        <time>2023-05-27T10:09:21Z</time>
      </trkpt>
      <trkpt lat="45.73121" lon="5.30597">
        <ele>368.4</ele>
        <time>2023-05-27T10:09:23Z</time>
      </trkpt>
      <trkpt lat="45.7312" lon="5.30588">
        <ele>368.6</ele>
        <time>2023-05-27T10:09:24Z</time>
      </trkpt>
      <trkpt lat="45.73119" lon="5.30578">
        <ele>368.6</ele>
        <time>2023-05-27T10:09:25Z</time>
      </trkpt>
      <trkpt lat="45.73119" lon="5.30569">
        <ele>368.6</ele>
        <time>2023-05-27T10:09:26Z</time>
      </trkpt>
      <trkpt lat="45.73119" lon="5.30559">
        <ele>368.8</ele>
        <time>2023-05-27T10:09:27Z</time>
      </trkpt>
      <trkpt lat="45.7312" lon="5.3054">
        <ele>369</ele>
        <time>2023-05-27T10:09:29Z</time>
      </trkpt>
      <trkpt lat="45.73121" lon="5.30531">
        <ele>369</ele>
        <time>2023-05-27T10:09:30Z</time>
      </trkpt>
      <trkpt lat="45.73122" lon="5.30521">
        <ele>369.6</ele>
        <time>2023-05-27T10:09:31Z</time>
      </trkpt>
      <trkpt lat="45.73124" lon="5.30511">
        <ele>369.6</ele>
        <time>2023-05-27T10:09:32Z</time>
      </trkpt>
      <trkpt lat="45.73125" lon="5.30502">
        <ele>370</ele>
        <time>2023-05-27T10:09:33Z</time>
      </trkpt>
      <trkpt lat="45.73128" lon="5.30493">
        <ele>370.2</ele>
        <time>2023-05-27T10:09:34Z</time>
      </trkpt>
      <trkpt lat="45.7313" lon="5.30483">
        <ele>370.2</ele>
        <time>2023-05-27T10:09:35Z</time>
      </trkpt>
      <trkpt lat="45.73133" lon="5.30474">
        <ele>370.4</ele>
        <time>2023-05-27T10:09:36Z</time>
      </trkpt>
      <trkpt lat="45.73136" lon="5.30465">
        <ele>370.4</ele>
        <time>2023-05-27T10:09:37Z</time>
      </trkpt>
      <trkpt lat="45.73139" lon="5.30456">
        <ele>370.8</ele>
        <time>2023-05-27T10:09:38Z</time>
      </trkpt>
      <trkpt lat="45.73143" lon="5.30447">
        <ele>370.8</ele>
        <time>2023-05-27T10:09:39Z</time>
      </trkpt>
      <trkpt lat="45.73146" lon="5.30437">
        <ele>371.2</ele>
        <time>2023-05-27T10:09:40Z</time>
      </trkpt>
      <trkpt lat="45.73149" lon="5.30428">
        <ele>371.4</ele>
        <time>2023-05-27T10:09:41Z</time>
      </trkpt>
      <trkpt lat="45.73152" lon="5.30418">
        <ele>371.6</ele>
        <time>2023-05-27T10:09:42Z</time>
      </trkpt>
      <trkpt lat="45.73155" lon="5.30408">
        <ele>371.8</ele>
        <time>2023-05-27T10:09:43Z</time>
      </trkpt>
      <trkpt lat="45.73158" lon="5.30399">
        <ele>371.8</ele>
        <time>2023-05-27T10:09:44Z</time>
      </trkpt>
      <trkpt lat="45.73163" lon="5.3038">
        <ele>372</ele>
        <time>2023-05-27T10:09:46Z</time>
      </trkpt>
      <trkpt lat="45.73166" lon="5.3037">
        <ele>372.4</ele>
        <time>2023-05-27T10:09:47Z</time>
      </trkpt>
      <trkpt lat="45.73169" lon="5.30361">
        <ele>372.8</ele>
        <time>2023-05-27T10:09:48Z</time>
      </trkpt>
      <trkpt lat="45.73172" lon="5.30352">
        <ele>373</ele>
        <time>2023-05-27T10:09:49Z</time>
      </trkpt>
      <trkpt lat="45.73175" lon="5.30342">
        <ele>373.2</ele>
        <time>2023-05-27T10:09:50Z</time>
      </trkpt>
      <trkpt lat="45.73181" lon="5.30324">
        <ele>373.4</ele>
        <time>2023-05-27T10:09:52Z</time>
      </trkpt>
      <trkpt lat="45.73183" lon="5.30315">
        <ele>373.4</ele>
        <time>2023-05-27T10:09:53Z</time>
      </trkpt>
      <trkpt lat="45.73186" lon="5.30305">
        <ele>373.6</ele>
        <time>2023-05-27T10:09:54Z</time>
      </trkpt>
      <trkpt lat="45.73189" lon="5.30296">
        <ele>373.6</ele>
        <time>2023-05-27T10:09:55Z</time>
      </trkpt>
      <trkpt lat="45.73192" lon="5.30287">
        <ele>373.6</ele>
        <time>2023-05-27T10:09:56Z</time>
      </trkpt>
      <trkpt lat="45.73198" lon="5.30269">
        <ele>374</ele>
        <time>2023-05-27T10:09:58Z</time>
      </trkpt>
      <trkpt lat="45.73201" lon="5.30259">
        <ele>374</ele>
        <time>2023-05-27T10:09:59Z</time>
      </trkpt>
      <trkpt lat="45.73204" lon="5.3025">
        <ele>374</ele>
        <time>2023-05-27T10:10:00Z</time>
      </trkpt>
      <trkpt lat="45.73206" lon="5.30241">
        <ele>374</ele>
        <time>2023-05-27T10:10:01Z</time>
      </trkpt>
      <trkpt lat="45.73209" lon="5.30232">
        <ele>374.2</ele>
        <time>2023-05-27T10:10:02Z</time>
      </trkpt>
      <trkpt lat="45.73215" lon="5.30214">
        <ele>374.2</ele>
        <time>2023-05-27T10:10:04Z</time>
      </trkpt>
      <trkpt lat="45.73218" lon="5.30205">
        <ele>374.4</ele>
        <time>2023-05-27T10:10:05Z</time>
      </trkpt>
      <trkpt lat="45.7322" lon="5.30197">
        <ele>374.4</ele>
        <time>2023-05-27T10:10:06Z</time>
      </trkpt>
      <trkpt lat="45.73223" lon="5.30188">
        <ele>374.4</ele>
        <time>2023-05-27T10:10:07Z</time>
      </trkpt>
      <trkpt lat="45.73229" lon="5.3017">
        <ele>374.4</ele>
        <time>2023-05-27T10:10:09Z</time>
      </trkpt>
      <trkpt lat="45.73231" lon="5.30162">
        <ele>374.4</ele>
        <time>2023-05-27T10:10:10Z</time>
      </trkpt>
      <trkpt lat="45.73234" lon="5.30153">
        <ele>374.4</ele>
        <time>2023-05-27T10:10:11Z</time>
      </trkpt>
      <trkpt lat="45.73237" lon="5.30144">
        <ele>374.6</ele>
        <time>2023-05-27T10:10:12Z</time>
      </trkpt>
      <trkpt lat="45.73239" lon="5.30135">
        <ele>374.6</ele>
        <time>2023-05-27T10:10:13Z</time>
      </trkpt>
      <trkpt lat="45.73242" lon="5.30126">
        <ele>374.6</ele>
        <time>2023-05-27T10:10:14Z</time>
      </trkpt>
      <trkpt lat="45.73245" lon="5.30118">
        <ele>374.8</ele>
        <time>2023-05-27T10:10:15Z</time>
      </trkpt>
      <trkpt lat="45.73248" lon="5.30109">
        <ele>374.8</ele>
        <time>2023-05-27T10:10:16Z</time>
      </trkpt>
      <trkpt lat="45.7325" lon="5.301">
        <ele>375.2</ele>
        <time>2023-05-27T10:10:17Z</time>
      </trkpt>
      <trkpt lat="45.73253" lon="5.30092">
        <ele>375.2</ele>
        <time>2023-05-27T10:10:18Z</time>
      </trkpt>
      <trkpt lat="45.73256" lon="5.30083">
        <ele>375.4</ele>
        <time>2023-05-27T10:10:19Z</time>
      </trkpt>
      <trkpt lat="45.73261" lon="5.30065">
        <ele>375.8</ele>
        <time>2023-05-27T10:10:21Z</time>
      </trkpt>
      <trkpt lat="45.73264" lon="5.30056">
        <ele>375.8</ele>
        <time>2023-05-27T10:10:22Z</time>
      </trkpt>
      <trkpt lat="45.73267" lon="5.30047">
        <ele>376</ele>
        <time>2023-05-27T10:10:23Z</time>
      </trkpt>
      <trkpt lat="45.73269" lon="5.30039">
        <ele>376</ele>
        <time>2023-05-27T10:10:24Z</time>
      </trkpt>
      <trkpt lat="45.73272" lon="5.3003">
        <ele>376</ele>
        <time>2023-05-27T10:10:25Z</time>
      </trkpt>
      <trkpt lat="45.73275" lon="5.30021">
        <ele>376.4</ele>
        <time>2023-05-27T10:10:26Z</time>
      </trkpt>
      <trkpt lat="45.73277" lon="5.30013">
        <ele>376.4</ele>
        <time>2023-05-27T10:10:27Z</time>
      </trkpt>
      <trkpt lat="45.7328" lon="5.30004">
        <ele>376.6</ele>
        <time>2023-05-27T10:10:28Z</time>
      </trkpt>
      <trkpt lat="45.73283" lon="5.29995">
        <ele>376.8</ele>
        <time>2023-05-27T10:10:29Z</time>
      </trkpt>
      <trkpt lat="45.73286" lon="5.29987">
        <ele>376.8</ele>
        <time>2023-05-27T10:10:30Z</time>
      </trkpt>
      <trkpt lat="45.73288" lon="5.29978">
        <ele>377</ele>
        <time>2023-05-27T10:10:31Z</time>
      </trkpt>
      <trkpt lat="45.73293" lon="5.29961">
        <ele>377.2</ele>
        <time>2023-05-27T10:10:33Z</time>
      </trkpt>
      <trkpt lat="45.73296" lon="5.29953">
        <ele>377.4</ele>
        <time>2023-05-27T10:10:34Z</time>
      </trkpt>
      <trkpt lat="45.73299" lon="5.29945">
        <ele>377.4</ele>
        <time>2023-05-27T10:10:35Z</time>
      </trkpt>
      <trkpt lat="45.73302" lon="5.29936">
        <ele>377.6</ele>
        <time>2023-05-27T10:10:36Z</time>
      </trkpt>
      <trkpt lat="45.73304" lon="5.29928">
        <ele>377.6</ele>
        <time>2023-05-27T10:10:37Z</time>
      </trkpt>
      <trkpt lat="45.73309" lon="5.29911">
        <ele>377.8</ele>
        <time>2023-05-27T10:10:39Z</time>
      </trkpt>
      <trkpt lat="45.73312" lon="5.29903">
        <ele>377.8</ele>
        <time>2023-05-27T10:10:40Z</time>
      </trkpt>
      <trkpt lat="45.73314" lon="5.29894">
        <ele>377.8</ele>
        <time>2023-05-27T10:10:41Z</time>
      </trkpt>
      <trkpt lat="45.73317" lon="5.29886">
        <ele>377.8</ele>
        <time>2023-05-27T10:10:42Z</time>
      </trkpt>
      <trkpt lat="45.73319" lon="5.29877">
        <ele>377.8</ele>
        <time>2023-05-27T10:10:43Z</time>
      </trkpt>
      <trkpt lat="45.73323" lon="5.29859">
        <ele>378</ele>
        <time>2023-05-27T10:10:45Z</time>
      </trkpt>
      <trkpt lat="45.73326" lon="5.29849">
        <ele>378</ele>
        <time>2023-05-27T10:10:46Z</time>
      </trkpt>
      <trkpt lat="45.73328" lon="5.29841">
        <ele>378</ele>
        <time>2023-05-27T10:10:47Z</time>
      </trkpt>
      <trkpt lat="45.73331" lon="5.29832">
        <ele>378</ele>
        <time>2023-05-27T10:10:48Z</time>
      </trkpt>
      <trkpt lat="45.73333" lon="5.29823">
        <ele>378.2</ele>
        <time>2023-05-27T10:10:49Z</time>
      </trkpt>
      <trkpt lat="45.73336" lon="5.29814">
        <ele>378.2</ele>
        <time>2023-05-27T10:10:50Z</time>
      </trkpt>
      <trkpt lat="45.73338" lon="5.29805">
        <ele>378.2</ele>
        <time>2023-05-27T10:10:51Z</time>
      </trkpt>
      <trkpt lat="45.7334" lon="5.29795">
        <ele>378.2</ele>
        <time>2023-05-27T10:10:52Z</time>
      </trkpt>
      <trkpt lat="45.73343" lon="5.29786">
        <ele>378.2</ele>
        <time>2023-05-27T10:10:53Z</time>
      </trkpt>
      <trkpt lat="45.73345" lon="5.29777">
        <ele>378.2</ele>
        <time>2023-05-27T10:10:54Z</time>
      </trkpt>
      <trkpt lat="45.73347" lon="5.29768">
        <ele>378.2</ele>
        <time>2023-05-27T10:10:55Z</time>
      </trkpt>
      <trkpt lat="45.73352" lon="5.29751">
        <ele>378.2</ele>
        <time>2023-05-27T10:10:57Z</time>
      </trkpt>
      <trkpt lat="45.73354" lon="5.29743">
        <ele>378.2</ele>
        <time>2023-05-27T10:10:58Z</time>
      </trkpt>
      <trkpt lat="45.73356" lon="5.29734">
        <ele>378.2</ele>
        <time>2023-05-27T10:10:59Z</time>
      </trkpt>
      <trkpt lat="45.73359" lon="5.29724">
        <ele>378</ele>
        <time>2023-05-27T10:11:00Z</time>
      </trkpt>
      <trkpt lat="45.73361" lon="5.29718">
        <ele>377.8</ele>
        <time>2023-05-27T10:11:01Z</time>
      </trkpt>
      <trkpt lat="45.73363" lon="5.2971">
        <ele>378</ele>
        <time>2023-05-27T10:11:02Z</time>
      </trkpt>
      <trkpt lat="45.73365" lon="5.29702">
        <ele>377.8</ele>
        <time>2023-05-27T10:11:03Z</time>
      </trkpt>
      <trkpt lat="45.73368" lon="5.29694">
        <ele>377.8</ele>
        <time>2023-05-27T10:11:04Z</time>
      </trkpt>
      <trkpt lat="45.7337" lon="5.29686">
        <ele>378</ele>
        <time>2023-05-27T10:11:05Z</time>
      </trkpt>
      <trkpt lat="45.73372" lon="5.29679">
        <ele>378</ele>
        <time>2023-05-27T10:11:06Z</time>
      </trkpt>
      <trkpt lat="45.73374" lon="5.29672">
        <ele>378.2</ele>
        <time>2023-05-27T10:11:07Z</time>
      </trkpt>
      <trkpt lat="45.73376" lon="5.29665">
        <ele>378.2</ele>
        <time>2023-05-27T10:11:08Z</time>
      </trkpt>
      <trkpt lat="45.73379" lon="5.29659">
        <ele>378.2</ele>
        <time>2023-05-27T10:11:09Z</time>
      </trkpt>
      <trkpt lat="45.73381" lon="5.29652">
        <ele>378.4</ele>
        <time>2023-05-27T10:11:10Z</time>
      </trkpt>
      <trkpt lat="45.73383" lon="5.29645">
        <ele>378.4</ele>
        <time>2023-05-27T10:11:11Z</time>
      </trkpt>
      <trkpt lat="45.73385" lon="5.29638">
        <ele>378.8</ele>
        <time>2023-05-27T10:11:12Z</time>
      </trkpt>
      <trkpt lat="45.73387" lon="5.29631">
        <ele>379</ele>
        <time>2023-05-27T10:11:13Z</time>
      </trkpt>
      <trkpt lat="45.7339" lon="5.29623">
        <ele>379.2</ele>
        <time>2023-05-27T10:11:14Z</time>
      </trkpt>
      <trkpt lat="45.73393" lon="5.29617">
        <ele>379.4</ele>
        <time>2023-05-27T10:11:15Z</time>
      </trkpt>
      <trkpt lat="45.73395" lon="5.2961">
        <ele>379.6</ele>
        <time>2023-05-27T10:11:16Z</time>
      </trkpt>
      <trkpt lat="45.73398" lon="5.29603">
        <ele>379.6</ele>
        <time>2023-05-27T10:11:17Z</time>
      </trkpt>
      <trkpt lat="45.734" lon="5.29596">
        <ele>379.6</ele>
        <time>2023-05-27T10:11:18Z</time>
      </trkpt>
      <trkpt lat="45.73401" lon="5.29587">
        <ele>379.8</ele>
        <time>2023-05-27T10:11:19Z</time>
      </trkpt>
      <trkpt lat="45.73403" lon="5.29578">
        <ele>379.8</ele>
        <time>2023-05-27T10:11:20Z</time>
      </trkpt>
      <trkpt lat="45.73404" lon="5.29569">
        <ele>379.8</ele>
        <time>2023-05-27T10:11:21Z</time>
      </trkpt>
      <trkpt lat="45.73403" lon="5.29558">
        <ele>380</ele>
        <time>2023-05-27T10:11:22Z</time>
      </trkpt>
      <trkpt lat="45.734" lon="5.29546">
        <ele>379.8</ele>
        <time>2023-05-27T10:11:23Z</time>
      </trkpt>
      <trkpt lat="45.73396" lon="5.29535">
        <ele>379.6</ele>
        <time>2023-05-27T10:11:24Z</time>
      </trkpt>
      <trkpt lat="45.7339" lon="5.29524">
        <ele>379.6</ele>
        <time>2023-05-27T10:11:25Z</time>
      </trkpt>
      <trkpt lat="45.73384" lon="5.29513">
        <ele>379.6</ele>
        <time>2023-05-27T10:11:26Z</time>
      </trkpt>
      <trkpt lat="45.73377" lon="5.29503">
        <ele>379.8</ele>
        <time>2023-05-27T10:11:27Z</time>
      </trkpt>
      <trkpt lat="45.73371" lon="5.29492">
        <ele>380</ele>
        <time>2023-05-27T10:11:28Z</time>
      </trkpt>
      <trkpt lat="45.73363" lon="5.29482">
        <ele>379.8</ele>
        <time>2023-05-27T10:11:29Z</time>
      </trkpt>
      <trkpt lat="45.73355" lon="5.29471">
        <ele>379.6</ele>
        <time>2023-05-27T10:11:30Z</time>
      </trkpt>
      <trkpt lat="45.73347" lon="5.29462">
        <ele>379.2</ele>
        <time>2023-05-27T10:11:31Z</time>
      </trkpt>
      <trkpt lat="45.73331" lon="5.29445">
        <ele>378.8</ele>
        <time>2023-05-27T10:11:33Z</time>
      </trkpt>
      <trkpt lat="45.73322" lon="5.29437">
        <ele>378.6</ele>
        <time>2023-05-27T10:11:34Z</time>
      </trkpt>
      <trkpt lat="45.73315" lon="5.29428">
        <ele>378.4</ele>
        <time>2023-05-27T10:11:35Z</time>
      </trkpt>
      <trkpt lat="45.73309" lon="5.29418">
        <ele>378.4</ele>
        <time>2023-05-27T10:11:36Z</time>
      </trkpt>
      <trkpt lat="45.73306" lon="5.29407">
        <ele>378</ele>
        <time>2023-05-27T10:11:37Z</time>
      </trkpt>
      <trkpt lat="45.73306" lon="5.29394">
        <ele>377.8</ele>
        <time>2023-05-27T10:11:38Z</time>
      </trkpt>
      <trkpt lat="45.73311" lon="5.29383">
        <ele>376.8</ele>
        <time>2023-05-27T10:11:39Z</time>
      </trkpt>
      <trkpt lat="45.73318" lon="5.29375">
        <ele>376</ele>
        <time>2023-05-27T10:11:40Z</time>
      </trkpt>
      <trkpt lat="45.73325" lon="5.29369">
        <ele>375.8</ele>
        <time>2023-05-27T10:11:41Z</time>
      </trkpt>
      <trkpt lat="45.73333" lon="5.29363">
        <ele>375.4</ele>
        <time>2023-05-27T10:11:42Z</time>
      </trkpt>
      <trkpt lat="45.73341" lon="5.29359">
        <ele>375.2</ele>
        <time>2023-05-27T10:11:43Z</time>
      </trkpt>
      <trkpt lat="45.7335" lon="5.29357">
        <ele>374.8</ele>
        <time>2023-05-27T10:11:44Z</time>
      </trkpt>
      <trkpt lat="45.73359" lon="5.29356">
        <ele>374.6</ele>
        <time>2023-05-27T10:11:45Z</time>
      </trkpt>
      <trkpt lat="45.73368" lon="5.29356">
        <ele>374.2</ele>
        <time>2023-05-27T10:11:46Z</time>
      </trkpt>
      <trkpt lat="45.73378" lon="5.29357">
        <ele>374</ele>
        <time>2023-05-27T10:11:47Z</time>
      </trkpt>
      <trkpt lat="45.73387" lon="5.29358">
        <ele>373.8</ele>
        <time>2023-05-27T10:11:48Z</time>
      </trkpt>
      <trkpt lat="45.73397" lon="5.29358">
        <ele>373.2</ele>
        <time>2023-05-27T10:11:49Z</time>
      </trkpt>
      <trkpt lat="45.73407" lon="5.29358">
        <ele>373</ele>
        <time>2023-05-27T10:11:50Z</time>
      </trkpt>
      <trkpt lat="45.73418" lon="5.29357">
        <ele>372.6</ele>
        <time>2023-05-27T10:11:51Z</time>
      </trkpt>
      <trkpt lat="45.73429" lon="5.29354">
        <ele>372.4</ele>
        <time>2023-05-27T10:11:52Z</time>
      </trkpt>
      <trkpt lat="45.7344" lon="5.2935">
        <ele>371.8</ele>
        <time>2023-05-27T10:11:53Z</time>
      </trkpt>
      <trkpt lat="45.73451" lon="5.29347">
        <ele>371.6</ele>
        <time>2023-05-27T10:11:54Z</time>
      </trkpt>
      <trkpt lat="45.73462" lon="5.29343">
        <ele>371.2</ele>
        <time>2023-05-27T10:11:55Z</time>
      </trkpt>
      <trkpt lat="45.73473" lon="5.29339">
        <ele>370.8</ele>
        <time>2023-05-27T10:11:56Z</time>
      </trkpt>
      <trkpt lat="45.73484" lon="5.29335">
        <ele>370.4</ele>
        <time>2023-05-27T10:11:57Z</time>
      </trkpt>
      <trkpt lat="45.73495" lon="5.29329">
        <ele>370.2</ele>
        <time>2023-05-27T10:11:58Z</time>
      </trkpt>
      <trkpt lat="45.73505" lon="5.29321">
        <ele>370</ele>
        <time>2023-05-27T10:11:59Z</time>
      </trkpt>
      <trkpt lat="45.73514" lon="5.2931">
        <ele>369.4</ele>
        <time>2023-05-27T10:12:00Z</time>
      </trkpt>
      <trkpt lat="45.73523" lon="5.29298">
        <ele>369.2</ele>
        <time>2023-05-27T10:12:01Z</time>
      </trkpt>
      <trkpt lat="45.7353" lon="5.29286">
        <ele>368.4</ele>
        <time>2023-05-27T10:12:02Z</time>
      </trkpt>
      <trkpt lat="45.73539" lon="5.29275">
        <ele>367.8</ele>
        <time>2023-05-27T10:12:03Z</time>
      </trkpt>
      <trkpt lat="45.73549" lon="5.29265">
        <ele>367.4</ele>
        <time>2023-05-27T10:12:04Z</time>
      </trkpt>
      <trkpt lat="45.73559" lon="5.29256">
        <ele>367</ele>
        <time>2023-05-27T10:12:05Z</time>
      </trkpt>
      <trkpt lat="45.7357" lon="5.29247">
        <ele>366.8</ele>
        <time>2023-05-27T10:12:06Z</time>
      </trkpt>
      <trkpt lat="45.73582" lon="5.29238">
        <ele>366.6</ele>
        <time>2023-05-27T10:12:07Z</time>
      </trkpt>
      <trkpt lat="45.7359" lon="5.29231">
        <ele>366.4</ele>
        <time>2023-05-27T10:12:08Z</time>
      </trkpt>
      <trkpt lat="45.73599" lon="5.29219">
        <ele>366</ele>
        <time>2023-05-27T10:12:09Z</time>
      </trkpt>
      <trkpt lat="45.73601" lon="5.29202">
        <ele>365.8</ele>
        <time>2023-05-27T10:12:10Z</time>
      </trkpt>
      <trkpt lat="45.736" lon="5.29183">
        <ele>365.2</ele>
        <time>2023-05-27T10:12:11Z</time>
      </trkpt>
      <trkpt lat="45.73597" lon="5.29165">
        <ele>364.4</ele>
        <time>2023-05-27T10:12:12Z</time>
      </trkpt>
      <trkpt lat="45.73593" lon="5.29154">
        <ele>363.8</ele>
        <time>2023-05-27T10:12:13Z</time>
      </trkpt>
      <trkpt lat="45.7359" lon="5.29138">
        <ele>363.2</ele>
        <time>2023-05-27T10:12:14Z</time>
      </trkpt>
      <trkpt lat="45.73587" lon="5.29122">
        <ele>362.4</ele>
        <time>2023-05-27T10:12:15Z</time>
      </trkpt>
      <trkpt lat="45.73587" lon="5.29102">
        <ele>361.6</ele>
        <time>2023-05-27T10:12:16Z</time>
      </trkpt>
      <trkpt lat="45.73589" lon="5.29089">
        <ele>361.4</ele>
        <time>2023-05-27T10:12:17Z</time>
      </trkpt>
      <trkpt lat="45.73594" lon="5.29075">
        <ele>361</ele>
        <time>2023-05-27T10:12:18Z</time>
      </trkpt>
      <trkpt lat="45.73601" lon="5.29063">
        <ele>360.4</ele>
        <time>2023-05-27T10:12:19Z</time>
      </trkpt>
      <trkpt lat="45.73608" lon="5.29051">
        <ele>360.2</ele>
        <time>2023-05-27T10:12:20Z</time>
      </trkpt>
      <trkpt lat="45.73613" lon="5.29039">
        <ele>359.4</ele>
        <time>2023-05-27T10:12:21Z</time>
      </trkpt>
      <trkpt lat="45.73615" lon="5.29025">
        <ele>358.8</ele>
        <time>2023-05-27T10:12:22Z</time>
      </trkpt>
      <trkpt lat="45.73612" lon="5.2901">
        <ele>358.2</ele>
        <time>2023-05-27T10:12:23Z</time>
      </trkpt>
      <trkpt lat="45.73607" lon="5.28997">
        <ele>357.6</ele>
        <time>2023-05-27T10:12:24Z</time>
      </trkpt>
      <trkpt lat="45.73601" lon="5.28986">
        <ele>356.4</ele>
        <time>2023-05-27T10:12:25Z</time>
      </trkpt>
      <trkpt lat="45.73594" lon="5.28976">
        <ele>355.6</ele>
        <time>2023-05-27T10:12:26Z</time>
      </trkpt>
      <trkpt lat="45.73585" lon="5.28966">
        <ele>355.4</ele>
        <time>2023-05-27T10:12:27Z</time>
      </trkpt>
      <trkpt lat="45.73577" lon="5.28956">
        <ele>354.8</ele>
        <time>2023-05-27T10:12:28Z</time>
      </trkpt>
      <trkpt lat="45.73569" lon="5.28947">
        <ele>354.2</ele>
        <time>2023-05-27T10:12:29Z</time>
      </trkpt>
      <trkpt lat="45.7356" lon="5.28939">
        <ele>352.8</ele>
        <time>2023-05-27T10:12:30Z</time>
      </trkpt>
      <trkpt lat="45.73551" lon="5.2893">
        <ele>352.4</ele>
        <time>2023-05-27T10:12:31Z</time>
      </trkpt>
      <trkpt lat="45.73542" lon="5.28922">
        <ele>351.8</ele>
        <time>2023-05-27T10:12:32Z</time>
      </trkpt>
      <trkpt lat="45.73534" lon="5.28914">
        <ele>351.4</ele>
        <time>2023-05-27T10:12:33Z</time>
      </trkpt>
      <trkpt lat="45.73526" lon="5.28905">
        <ele>351.2</ele>
        <time>2023-05-27T10:12:34Z</time>
      </trkpt>
      <trkpt lat="45.73519" lon="5.28895">
        <ele>349.6</ele>
        <time>2023-05-27T10:12:35Z</time>
      </trkpt>
      <trkpt lat="45.73513" lon="5.28884">
        <ele>348.8</ele>
        <time>2023-05-27T10:12:36Z</time>
      </trkpt>
      <trkpt lat="45.73507" lon="5.28872">
        <ele>347.4</ele>
        <time>2023-05-27T10:12:37Z</time>
      </trkpt>
      <trkpt lat="45.73501" lon="5.28861">
        <ele>346.8</ele>
        <time>2023-05-27T10:12:38Z</time>
      </trkpt>
      <trkpt lat="45.73494" lon="5.2885">
        <ele>346</ele>
        <time>2023-05-27T10:12:39Z</time>
      </trkpt>
      <trkpt lat="45.73488" lon="5.28839">
        <ele>345.8</ele>
        <time>2023-05-27T10:12:40Z</time>
      </trkpt>
      <trkpt lat="45.73481" lon="5.28829">
        <ele>345</ele>
        <time>2023-05-27T10:12:41Z</time>
      </trkpt>
      <trkpt lat="45.73473" lon="5.28818">
        <ele>344</ele>
        <time>2023-05-27T10:12:42Z</time>
      </trkpt>
      <trkpt lat="45.73466" lon="5.28808">
        <ele>343.4</ele>
        <time>2023-05-27T10:12:43Z</time>
      </trkpt>
      <trkpt lat="45.73459" lon="5.28798">
        <ele>342</ele>
        <time>2023-05-27T10:12:44Z</time>
      </trkpt>
      <trkpt lat="45.73451" lon="5.28787">
        <ele>341.4</ele>
        <time>2023-05-27T10:12:45Z</time>
      </trkpt>
      <trkpt lat="45.73443" lon="5.28776">
        <ele>340.2</ele>
        <time>2023-05-27T10:12:46Z</time>
      </trkpt>
      <trkpt lat="45.73436" lon="5.28764">
        <ele>339.8</ele>
        <time>2023-05-27T10:12:47Z</time>
      </trkpt>
      <trkpt lat="45.73429" lon="5.28752">
        <ele>339.2</ele>
        <time>2023-05-27T10:12:48Z</time>
      </trkpt>
      <trkpt lat="45.73423" lon="5.28738">
        <ele>338.4</ele>
        <time>2023-05-27T10:12:49Z</time>
      </trkpt>
      <trkpt lat="45.73417" lon="5.28724">
        <ele>338.2</ele>
        <time>2023-05-27T10:12:50Z</time>
      </trkpt>
      <trkpt lat="45.73412" lon="5.2871">
        <ele>337.8</ele>
        <time>2023-05-27T10:12:51Z</time>
      </trkpt>
      <trkpt lat="45.73407" lon="5.28696">
        <ele>337.4</ele>
        <time>2023-05-27T10:12:52Z</time>
      </trkpt>
      <trkpt lat="45.73401" lon="5.28683">
        <ele>336.6</ele>
        <time>2023-05-27T10:12:53Z</time>
      </trkpt>
      <trkpt lat="45.73394" lon="5.28669">
        <ele>336</ele>
        <time>2023-05-27T10:12:54Z</time>
      </trkpt>
      <trkpt lat="45.73387" lon="5.28656">
        <ele>335</ele>
        <time>2023-05-27T10:12:55Z</time>
      </trkpt>
      <trkpt lat="45.73381" lon="5.28641">
        <ele>334.6</ele>
        <time>2023-05-27T10:12:56Z</time>
      </trkpt>
      <trkpt lat="45.73376" lon="5.28626">
        <ele>334.2</ele>
        <time>2023-05-27T10:12:57Z</time>
      </trkpt>
      <trkpt lat="45.73372" lon="5.2861">
        <ele>333.6</ele>
        <time>2023-05-27T10:12:58Z</time>
      </trkpt>
      <trkpt lat="45.7337" lon="5.28594">
        <ele>333.2</ele>
        <time>2023-05-27T10:12:59Z</time>
      </trkpt>
      <trkpt lat="45.73368" lon="5.28577">
        <ele>332.6</ele>
        <time>2023-05-27T10:13:00Z</time>
      </trkpt>
      <trkpt lat="45.73366" lon="5.2856">
        <ele>332.2</ele>
        <time>2023-05-27T10:13:01Z</time>
      </trkpt>
      <trkpt lat="45.73363" lon="5.28544">
        <ele>330.8</ele>
        <time>2023-05-27T10:13:02Z</time>
      </trkpt>
      <trkpt lat="45.73359" lon="5.28528">
        <ele>330.4</ele>
        <time>2023-05-27T10:13:03Z</time>
      </trkpt>
      <trkpt lat="45.73354" lon="5.28512">
        <ele>329.4</ele>
        <time>2023-05-27T10:13:04Z</time>
      </trkpt>
      <trkpt lat="45.73348" lon="5.28497">
        <ele>328.6</ele>
        <time>2023-05-27T10:13:05Z</time>
      </trkpt>
      <trkpt lat="45.73341" lon="5.28483">
        <ele>328.2</ele>
        <time>2023-05-27T10:13:06Z</time>
      </trkpt>
      <trkpt lat="45.73335" lon="5.28468">
        <ele>327.8</ele>
        <time>2023-05-27T10:13:07Z</time>
      </trkpt>
      <trkpt lat="45.7333" lon="5.28452">
        <ele>327</ele>
        <time>2023-05-27T10:13:08Z</time>
      </trkpt>
      <trkpt lat="45.73327" lon="5.28434">
        <ele>326</ele>
        <time>2023-05-27T10:13:09Z</time>
      </trkpt>
      <trkpt lat="45.73325" lon="5.28417">
        <ele>325.8</ele>
        <time>2023-05-27T10:13:10Z</time>
      </trkpt>
      <trkpt lat="45.73324" lon="5.28399">
        <ele>324.8</ele>
        <time>2023-05-27T10:13:11Z</time>
      </trkpt>
      <trkpt lat="45.73323" lon="5.28382">
        <ele>324.4</ele>
        <time>2023-05-27T10:13:12Z</time>
      </trkpt>
      <trkpt lat="45.7332" lon="5.28365">
        <ele>323.8</ele>
        <time>2023-05-27T10:13:13Z</time>
      </trkpt>
      <trkpt lat="45.73318" lon="5.28348">
        <ele>322.6</ele>
        <time>2023-05-27T10:13:14Z</time>
      </trkpt>
      <trkpt lat="45.73314" lon="5.28331">
        <ele>322.2</ele>
        <time>2023-05-27T10:13:15Z</time>
      </trkpt>
      <trkpt lat="45.7331" lon="5.28313">
        <ele>321.4</ele>
        <time>2023-05-27T10:13:16Z</time>
      </trkpt>
      <trkpt lat="45.73307" lon="5.28296">
        <ele>320.8</ele>
        <time>2023-05-27T10:13:17Z</time>
      </trkpt>
      <trkpt lat="45.73304" lon="5.28278">
        <ele>320</ele>
        <time>2023-05-27T10:13:18Z</time>
      </trkpt>
      <trkpt lat="45.73301" lon="5.2826">
        <ele>319.8</ele>
        <time>2023-05-27T10:13:19Z</time>
      </trkpt>
      <trkpt lat="45.73298" lon="5.28242">
        <ele>319</ele>
        <time>2023-05-27T10:13:20Z</time>
      </trkpt>
      <trkpt lat="45.73295" lon="5.28224">
        <ele>317.8</ele>
        <time>2023-05-27T10:13:21Z</time>
      </trkpt>
      <trkpt lat="45.73291" lon="5.28206">
        <ele>317</ele>
        <time>2023-05-27T10:13:22Z</time>
      </trkpt>
      <trkpt lat="45.73288" lon="5.28188">
        <ele>315.6</ele>
        <time>2023-05-27T10:13:23Z</time>
      </trkpt>
      <trkpt lat="45.73284" lon="5.28169">
        <ele>315</ele>
        <time>2023-05-27T10:13:24Z</time>
      </trkpt>
      <trkpt lat="45.73281" lon="5.28151">
        <ele>314</ele>
        <time>2023-05-27T10:13:25Z</time>
      </trkpt>
      <trkpt lat="45.73276" lon="5.28134">
        <ele>313.6</ele>
        <time>2023-05-27T10:13:26Z</time>
      </trkpt>
      <trkpt lat="45.7327" lon="5.28117">
        <ele>312.6</ele>
        <time>2023-05-27T10:13:27Z</time>
      </trkpt>
      <trkpt lat="45.73264" lon="5.281">
        <ele>311.8</ele>
        <time>2023-05-27T10:13:28Z</time>
      </trkpt>
      <trkpt lat="45.73258" lon="5.28084">
        <ele>311.4</ele>
        <time>2023-05-27T10:13:29Z</time>
      </trkpt>
      <trkpt lat="45.73251" lon="5.28064">
        <ele>310.6</ele>
        <time>2023-05-27T10:13:30Z</time>
      </trkpt>
      <trkpt lat="45.73246" lon="5.28051">
        <ele>309.8</ele>
        <time>2023-05-27T10:13:31Z</time>
      </trkpt>
      <trkpt lat="45.73242" lon="5.28036">
        <ele>308.4</ele>
        <time>2023-05-27T10:13:32Z</time>
      </trkpt>
      <trkpt lat="45.73237" lon="5.28019">
        <ele>307.8</ele>
        <time>2023-05-27T10:13:33Z</time>
      </trkpt>
      <trkpt lat="45.73234" lon="5.28003">
        <ele>306.8</ele>
        <time>2023-05-27T10:13:34Z</time>
      </trkpt>
      <trkpt lat="45.73231" lon="5.27988">
        <ele>306.4</ele>
        <time>2023-05-27T10:13:35Z</time>
      </trkpt>
      <trkpt lat="45.73228" lon="5.27972">
        <ele>305.4</ele>
        <time>2023-05-27T10:13:36Z</time>
      </trkpt>
      <trkpt lat="45.73225" lon="5.27957">
        <ele>304.8</ele>
        <time>2023-05-27T10:13:37Z</time>
      </trkpt>
      <trkpt lat="45.73221" lon="5.27941">
        <ele>304.4</ele>
        <time>2023-05-27T10:13:38Z</time>
      </trkpt>
      <trkpt lat="45.73219" lon="5.27925">
        <ele>303.8</ele>
        <time>2023-05-27T10:13:39Z</time>
      </trkpt>
      <trkpt lat="45.73216" lon="5.27909">
        <ele>303.6</ele>
        <time>2023-05-27T10:13:40Z</time>
      </trkpt>
      <trkpt lat="45.73213" lon="5.27893">
        <ele>303</ele>
        <time>2023-05-27T10:13:41Z</time>
      </trkpt>
      <trkpt lat="45.73212" lon="5.27877">
        <ele>302.6</ele>
        <time>2023-05-27T10:13:42Z</time>
      </trkpt>
      <trkpt lat="45.73211" lon="5.27861">
        <ele>302</ele>
        <time>2023-05-27T10:13:43Z</time>
      </trkpt>
      <trkpt lat="45.7321" lon="5.27845">
        <ele>301.4</ele>
        <time>2023-05-27T10:13:44Z</time>
      </trkpt>
      <trkpt lat="45.73209" lon="5.2783">
        <ele>301</ele>
        <time>2023-05-27T10:13:45Z</time>
      </trkpt>
      <trkpt lat="45.73209" lon="5.27815">
        <ele>300</ele>
        <time>2023-05-27T10:13:46Z</time>
      </trkpt>
      <trkpt lat="45.73209" lon="5.27801">
        <ele>299.6</ele>
        <time>2023-05-27T10:13:47Z</time>
      </trkpt>
      <trkpt lat="45.73209" lon="5.27787">
        <ele>299.2</ele>
        <time>2023-05-27T10:13:48Z</time>
      </trkpt>
      <trkpt lat="45.73209" lon="5.27773">
        <ele>299</ele>
        <time>2023-05-27T10:13:49Z</time>
      </trkpt>
      <trkpt lat="45.73209" lon="5.2776">
        <ele>298.8</ele>
        <time>2023-05-27T10:13:50Z</time>
      </trkpt>
      <trkpt lat="45.73209" lon="5.27746">
        <ele>298.6</ele>
        <time>2023-05-27T10:13:51Z</time>
      </trkpt>
      <trkpt lat="45.73209" lon="5.27733">
        <ele>298.2</ele>
        <time>2023-05-27T10:13:52Z</time>
      </trkpt>
      <trkpt lat="45.73209" lon="5.2772">
        <ele>297.6</ele>
        <time>2023-05-27T10:13:53Z</time>
      </trkpt>
      <trkpt lat="45.73208" lon="5.27706">
        <ele>297.2</ele>
        <time>2023-05-27T10:13:54Z</time>
      </trkpt>
      <trkpt lat="45.73207" lon="5.27693">
        <ele>296.8</ele>
        <time>2023-05-27T10:13:55Z</time>
      </trkpt>
      <trkpt lat="45.73206" lon="5.2768">
        <ele>296.6</ele>
        <time>2023-05-27T10:13:56Z</time>
      </trkpt>
      <trkpt lat="45.73205" lon="5.27668">
        <ele>296.2</ele>
        <time>2023-05-27T10:13:57Z</time>
      </trkpt>
      <trkpt lat="45.73204" lon="5.27655">
        <ele>296.2</ele>
        <time>2023-05-27T10:13:58Z</time>
      </trkpt>
      <trkpt lat="45.73203" lon="5.27642">
        <ele>295.8</ele>
        <time>2023-05-27T10:13:59Z</time>
      </trkpt>
      <trkpt lat="45.73201" lon="5.27629">
        <ele>295.4</ele>
        <time>2023-05-27T10:14:00Z</time>
      </trkpt>
      <trkpt lat="45.73199" lon="5.27616">
        <ele>295.2</ele>
        <time>2023-05-27T10:14:01Z</time>
      </trkpt>
      <trkpt lat="45.73197" lon="5.27602">
        <ele>295.2</ele>
        <time>2023-05-27T10:14:02Z</time>
      </trkpt>
      <trkpt lat="45.73194" lon="5.27588">
        <ele>295</ele>
        <time>2023-05-27T10:14:03Z</time>
      </trkpt>
      <trkpt lat="45.73192" lon="5.27575">
        <ele>294.4</ele>
        <time>2023-05-27T10:14:04Z</time>
      </trkpt>
      <trkpt lat="45.7319" lon="5.27561">
        <ele>294.2</ele>
        <time>2023-05-27T10:14:05Z</time>
      </trkpt>
      <trkpt lat="45.73188" lon="5.27548">
        <ele>293.8</ele>
        <time>2023-05-27T10:14:06Z</time>
      </trkpt>
      <trkpt lat="45.73186" lon="5.27535">
        <ele>293.4</ele>
        <time>2023-05-27T10:14:07Z</time>
      </trkpt>
      <trkpt lat="45.73184" lon="5.27521">
        <ele>293.2</ele>
        <time>2023-05-27T10:14:08Z</time>
      </trkpt>
      <trkpt lat="45.73182" lon="5.27508">
        <ele>292.8</ele>
        <time>2023-05-27T10:14:09Z</time>
      </trkpt>
      <trkpt lat="45.73179" lon="5.27494">
        <ele>292.6</ele>
        <time>2023-05-27T10:14:10Z</time>
      </trkpt>
      <trkpt lat="45.73176" lon="5.27478">
        <ele>292.4</ele>
        <time>2023-05-27T10:14:11Z</time>
      </trkpt>
      <trkpt lat="45.73174" lon="5.27468">
        <ele>292.2</ele>
        <time>2023-05-27T10:14:12Z</time>
      </trkpt>
      <trkpt lat="45.7317" lon="5.27455">
        <ele>292</ele>
        <time>2023-05-27T10:14:13Z</time>
      </trkpt>
      <trkpt lat="45.73166" lon="5.27442">
        <ele>292</ele>
        <time>2023-05-27T10:14:14Z</time>
      </trkpt>
      <trkpt lat="45.73163" lon="5.2743">
        <ele>292</ele>
        <time>2023-05-27T10:14:15Z</time>
      </trkpt>
      <trkpt lat="45.73158" lon="5.27417">
        <ele>291.8</ele>
        <time>2023-05-27T10:14:16Z</time>
      </trkpt>
      <trkpt lat="45.73154" lon="5.27405">
        <ele>291.6</ele>
        <time>2023-05-27T10:14:17Z</time>
      </trkpt>
      <trkpt lat="45.73149" lon="5.27391">
        <ele>291.2</ele>
        <time>2023-05-27T10:14:18Z</time>
      </trkpt>
      <trkpt lat="45.73145" lon="5.27378">
        <ele>291</ele>
        <time>2023-05-27T10:14:19Z</time>
      </trkpt>
      <trkpt lat="45.73141" lon="5.27364">
        <ele>290.6</ele>
        <time>2023-05-27T10:14:20Z</time>
      </trkpt>
      <trkpt lat="45.73136" lon="5.2735">
        <ele>290.6</ele>
        <time>2023-05-27T10:14:21Z</time>
      </trkpt>
      <trkpt lat="45.73133" lon="5.27335">
        <ele>290.2</ele>
        <time>2023-05-27T10:14:22Z</time>
      </trkpt>
      <trkpt lat="45.73129" lon="5.2732">
        <ele>289.6</ele>
        <time>2023-05-27T10:14:23Z</time>
      </trkpt>
      <trkpt lat="45.73126" lon="5.27305">
        <ele>289.4</ele>
        <time>2023-05-27T10:14:24Z</time>
      </trkpt>
      <trkpt lat="45.73123" lon="5.27289">
        <ele>289.2</ele>
        <time>2023-05-27T10:14:25Z</time>
      </trkpt>
      <trkpt lat="45.73121" lon="5.27273">
        <ele>289</ele>
        <time>2023-05-27T10:14:26Z</time>
      </trkpt>
      <trkpt lat="45.7312" lon="5.27255">
        <ele>288.8</ele>
        <time>2023-05-27T10:14:27Z</time>
      </trkpt>
      <trkpt lat="45.7312" lon="5.27238">
        <ele>288.8</ele>
        <time>2023-05-27T10:14:28Z</time>
      </trkpt>
      <trkpt lat="45.7312" lon="5.27221">
        <ele>288.4</ele>
        <time>2023-05-27T10:14:29Z</time>
      </trkpt>
      <trkpt lat="45.73122" lon="5.27205">
        <ele>288</ele>
        <time>2023-05-27T10:14:30Z</time>
      </trkpt>
      <trkpt lat="45.73124" lon="5.27188">
        <ele>287.4</ele>
        <time>2023-05-27T10:14:31Z</time>
      </trkpt>
      <trkpt lat="45.73128" lon="5.27173">
        <ele>287</ele>
        <time>2023-05-27T10:14:32Z</time>
      </trkpt>
      <trkpt lat="45.73134" lon="5.2716">
        <ele>286.6</ele>
        <time>2023-05-27T10:14:33Z</time>
      </trkpt>
      <trkpt lat="45.73139" lon="5.27147">
        <ele>286</ele>
        <time>2023-05-27T10:14:34Z</time>
      </trkpt>
      <trkpt lat="45.73143" lon="5.27133">
        <ele>285.8</ele>
        <time>2023-05-27T10:14:35Z</time>
      </trkpt>
      <trkpt lat="45.73144" lon="5.27119">
        <ele>285.6</ele>
        <time>2023-05-27T10:14:36Z</time>
      </trkpt>
      <trkpt lat="45.73143" lon="5.27105">
        <ele>285.4</ele>
        <time>2023-05-27T10:14:37Z</time>
      </trkpt>
      <trkpt lat="45.73139" lon="5.27092">
        <ele>285</ele>
        <time>2023-05-27T10:14:38Z</time>
      </trkpt>
      <trkpt lat="45.73133" lon="5.2708">
        <ele>284.2</ele>
        <time>2023-05-27T10:14:39Z</time>
      </trkpt>
      <trkpt lat="45.73128" lon="5.2707">
        <ele>283.8</ele>
        <time>2023-05-27T10:14:40Z</time>
      </trkpt>
      <trkpt lat="45.73123" lon="5.27058">
        <ele>282.6</ele>
        <time>2023-05-27T10:14:41Z</time>
      </trkpt>
      <trkpt lat="45.7312" lon="5.27045">
        <ele>282.2</ele>
        <time>2023-05-27T10:14:42Z</time>
      </trkpt>
      <trkpt lat="45.73117" lon="5.27031">
        <ele>281.4</ele>
        <time>2023-05-27T10:14:43Z</time>
      </trkpt>
      <trkpt lat="45.73115" lon="5.27016">
        <ele>281.2</ele>
        <time>2023-05-27T10:14:44Z</time>
      </trkpt>
      <trkpt lat="45.73113" lon="5.27">
        <ele>280.6</ele>
        <time>2023-05-27T10:14:45Z</time>
      </trkpt>
      <trkpt lat="45.73111" lon="5.26984">
        <ele>280.4</ele>
        <time>2023-05-27T10:14:46Z</time>
      </trkpt>
      <trkpt lat="45.73109" lon="5.26967">
        <ele>280</ele>
        <time>2023-05-27T10:14:47Z</time>
      </trkpt>
      <trkpt lat="45.73107" lon="5.26951">
        <ele>279.4</ele>
        <time>2023-05-27T10:14:48Z</time>
      </trkpt>
      <trkpt lat="45.73103" lon="5.26934">
        <ele>278.8</ele>
        <time>2023-05-27T10:14:49Z</time>
      </trkpt>
      <trkpt lat="45.731" lon="5.26916">
        <ele>278.2</ele>
        <time>2023-05-27T10:14:50Z</time>
      </trkpt>
      <trkpt lat="45.73097" lon="5.26899">
        <ele>277.6</ele>
        <time>2023-05-27T10:14:51Z</time>
      </trkpt>
      <trkpt lat="45.73093" lon="5.26882">
        <ele>277</ele>
        <time>2023-05-27T10:14:52Z</time>
      </trkpt>
      <trkpt lat="45.73088" lon="5.26866">
        <ele>276</ele>
        <time>2023-05-27T10:14:53Z</time>
      </trkpt>
      <trkpt lat="45.73082" lon="5.26848">
        <ele>275.4</ele>
        <time>2023-05-27T10:14:54Z</time>
      </trkpt>
      <trkpt lat="45.73076" lon="5.26831">
        <ele>274</ele>
        <time>2023-05-27T10:14:55Z</time>
      </trkpt>
      <trkpt lat="45.73071" lon="5.26813">
        <ele>273</ele>
        <time>2023-05-27T10:14:56Z</time>
      </trkpt>
      <trkpt lat="45.73067" lon="5.26795">
        <ele>271.4</ele>
        <time>2023-05-27T10:14:57Z</time>
      </trkpt>
      <trkpt lat="45.73063" lon="5.26776">
        <ele>270.6</ele>
        <time>2023-05-27T10:14:58Z</time>
      </trkpt>
      <trkpt lat="45.73061" lon="5.26757">
        <ele>269.2</ele>
        <time>2023-05-27T10:14:59Z</time>
      </trkpt>
      <trkpt lat="45.73058" lon="5.26738">
        <ele>268.6</ele>
        <time>2023-05-27T10:15:00Z</time>
      </trkpt>
      <trkpt lat="45.73056" lon="5.2672">
        <ele>267.4</ele>
        <time>2023-05-27T10:15:01Z</time>
      </trkpt>
      <trkpt lat="45.73053" lon="5.26701">
        <ele>266.2</ele>
        <time>2023-05-27T10:15:02Z</time>
      </trkpt>
      <trkpt lat="45.7305" lon="5.26682">
        <ele>266</ele>
        <time>2023-05-27T10:15:03Z</time>
      </trkpt>
      <trkpt lat="45.73048" lon="5.26664">
        <ele>264.6</ele>
        <time>2023-05-27T10:15:04Z</time>
      </trkpt>
      <trkpt lat="45.73046" lon="5.26645">
        <ele>264</ele>
        <time>2023-05-27T10:15:05Z</time>
      </trkpt>
      <trkpt lat="45.73044" lon="5.26627">
        <ele>262.6</ele>
        <time>2023-05-27T10:15:06Z</time>
      </trkpt>
      <trkpt lat="45.73042" lon="5.26606">
        <ele>262</ele>
        <time>2023-05-27T10:15:07Z</time>
      </trkpt>
      <trkpt lat="45.73041" lon="5.26589">
        <ele>260.8</ele>
        <time>2023-05-27T10:15:08Z</time>
      </trkpt>
      <trkpt lat="45.73041" lon="5.26573">
        <ele>259.2</ele>
        <time>2023-05-27T10:15:09Z</time>
      </trkpt>
      <trkpt lat="45.73039" lon="5.26557">
        <ele>258.4</ele>
        <time>2023-05-27T10:15:10Z</time>
      </trkpt>
      <trkpt lat="45.73036" lon="5.26541">
        <ele>256.6</ele>
        <time>2023-05-27T10:15:11Z</time>
      </trkpt>
      <trkpt lat="45.73033" lon="5.26529">
        <ele>256.2</ele>
        <time>2023-05-27T10:15:12Z</time>
      </trkpt>
      <trkpt lat="45.73028" lon="5.26513">
        <ele>255.2</ele>
        <time>2023-05-27T10:15:13Z</time>
      </trkpt>
      <trkpt lat="45.73025" lon="5.26497">
        <ele>254.8</ele>
        <time>2023-05-27T10:15:14Z</time>
      </trkpt>
      <trkpt lat="45.73021" lon="5.26476">
        <ele>254</ele>
        <time>2023-05-27T10:15:15Z</time>
      </trkpt>
      <trkpt lat="45.73018" lon="5.26459">
        <ele>253.4</ele>
        <time>2023-05-27T10:15:16Z</time>
      </trkpt>
      <trkpt lat="45.73014" lon="5.26442">
        <ele>253</ele>
        <time>2023-05-27T10:15:17Z</time>
      </trkpt>
      <trkpt lat="45.73011" lon="5.26425">
        <ele>251.6</ele>
        <time>2023-05-27T10:15:18Z</time>
      </trkpt>
      <trkpt lat="45.73009" lon="5.26412">
        <ele>250.8</ele>
        <time>2023-05-27T10:15:19Z</time>
      </trkpt>
      <trkpt lat="45.73007" lon="5.26397">
        <ele>249.8</ele>
        <time>2023-05-27T10:15:20Z</time>
      </trkpt>
      <trkpt lat="45.73006" lon="5.26382">
        <ele>249.6</ele>
        <time>2023-05-27T10:15:21Z</time>
      </trkpt>
      <trkpt lat="45.73008" lon="5.26368">
        <ele>248.6</ele>
        <time>2023-05-27T10:15:22Z</time>
      </trkpt>
      <trkpt lat="45.73011" lon="5.26355">
        <ele>247.8</ele>
        <time>2023-05-27T10:15:23Z</time>
      </trkpt>
      <trkpt lat="45.73017" lon="5.26341">
        <ele>246.4</ele>
        <time>2023-05-27T10:15:24Z</time>
      </trkpt>
      <trkpt lat="45.73023" lon="5.26331">
        <ele>245.2</ele>
        <time>2023-05-27T10:15:25Z</time>
      </trkpt>
      <trkpt lat="45.7303" lon="5.26322">
        <ele>244.8</ele>
        <time>2023-05-27T10:15:26Z</time>
      </trkpt>
      <trkpt lat="45.73035" lon="5.26316">
        <ele>244</ele>
        <time>2023-05-27T10:15:27Z</time>
      </trkpt>
      <trkpt lat="45.73044" lon="5.26307">
        <ele>243.8</ele>
        <time>2023-05-27T10:15:28Z</time>
      </trkpt>
      <trkpt lat="45.73051" lon="5.26299">
        <ele>243.4</ele>
        <time>2023-05-27T10:15:29Z</time>
      </trkpt>
      <trkpt lat="45.73056" lon="5.26291">
        <ele>242.8</ele>
        <time>2023-05-27T10:15:30Z</time>
      </trkpt>
      <trkpt lat="45.73061" lon="5.26282">
        <ele>242.4</ele>
        <time>2023-05-27T10:15:31Z</time>
      </trkpt>
      <trkpt lat="45.73067" lon="5.26272">
        <ele>242</ele>
        <time>2023-05-27T10:15:32Z</time>
      </trkpt>
      <trkpt lat="45.73073" lon="5.26263">
        <ele>242</ele>
        <time>2023-05-27T10:15:33Z</time>
      </trkpt>
      <trkpt lat="45.73079" lon="5.26253">
        <ele>241.6</ele>
        <time>2023-05-27T10:15:34Z</time>
      </trkpt>
      <trkpt lat="45.73086" lon="5.2624">
        <ele>241.8</ele>
        <time>2023-05-27T10:15:35Z</time>
      </trkpt>
      <trkpt lat="45.7309" lon="5.26232">
        <ele>241.4</ele>
        <time>2023-05-27T10:15:36Z</time>
      </trkpt>
      <trkpt lat="45.73095" lon="5.26222">
        <ele>241.2</ele>
        <time>2023-05-27T10:15:37Z</time>
      </trkpt>
      <trkpt lat="45.73102" lon="5.26211">
        <ele>241</ele>
        <time>2023-05-27T10:15:38Z</time>
      </trkpt>
      <trkpt lat="45.73107" lon="5.26201">
        <ele>240.6</ele>
        <time>2023-05-27T10:15:39Z</time>
      </trkpt>
      <trkpt lat="45.73112" lon="5.26192">
        <ele>240.4</ele>
        <time>2023-05-27T10:15:40Z</time>
      </trkpt>
      <trkpt lat="45.73115" lon="5.26182">
        <ele>240</ele>
        <time>2023-05-27T10:15:41Z</time>
      </trkpt>
      <trkpt lat="45.73119" lon="5.26173">
        <ele>239.8</ele>
        <time>2023-05-27T10:15:42Z</time>
      </trkpt>
      <trkpt lat="45.73123" lon="5.26164">
        <ele>239.6</ele>
        <time>2023-05-27T10:15:43Z</time>
      </trkpt>
      <trkpt lat="45.73127" lon="5.26156">
        <ele>239.4</ele>
        <time>2023-05-27T10:15:44Z</time>
      </trkpt>
      <trkpt lat="45.7313" lon="5.26148">
        <ele>239.2</ele>
        <time>2023-05-27T10:15:45Z</time>
      </trkpt>
      <trkpt lat="45.73133" lon="5.2614">
        <ele>239</ele>
        <time>2023-05-27T10:15:46Z</time>
      </trkpt>
      <trkpt lat="45.73136" lon="5.2613">
        <ele>238.8</ele>
        <time>2023-05-27T10:15:47Z</time>
      </trkpt>
      <trkpt lat="45.73138" lon="5.26121">
        <ele>238.6</ele>
        <time>2023-05-27T10:15:48Z</time>
      </trkpt>
      <trkpt lat="45.7314" lon="5.26111">
        <ele>238.6</ele>
        <time>2023-05-27T10:15:49Z</time>
      </trkpt>
      <trkpt lat="45.73141" lon="5.26101">
        <ele>238.4</ele>
        <time>2023-05-27T10:15:50Z</time>
      </trkpt>
      <trkpt lat="45.73142" lon="5.26093">
        <ele>238.4</ele>
        <time>2023-05-27T10:15:51Z</time>
      </trkpt>
      <trkpt lat="45.73143" lon="5.2608">
        <ele>238.2</ele>
        <time>2023-05-27T10:15:52Z</time>
      </trkpt>
      <trkpt lat="45.73145" lon="5.26069">
        <ele>238.2</ele>
        <time>2023-05-27T10:15:53Z</time>
      </trkpt>
      <trkpt lat="45.73146" lon="5.26058">
        <ele>237.8</ele>
        <time>2023-05-27T10:15:54Z</time>
      </trkpt>
      <trkpt lat="45.73149" lon="5.26047">
        <ele>237.4</ele>
        <time>2023-05-27T10:15:55Z</time>
      </trkpt>
      <trkpt lat="45.73151" lon="5.26036">
        <ele>237</ele>
        <time>2023-05-27T10:15:56Z</time>
      </trkpt>
      <trkpt lat="45.73154" lon="5.26025">
        <ele>236.8</ele>
        <time>2023-05-27T10:15:57Z</time>
      </trkpt>
      <trkpt lat="45.73155" lon="5.26016">
        <ele>236.8</ele>
        <time>2023-05-27T10:15:58Z</time>
      </trkpt>
      <trkpt lat="45.7316" lon="5.25995">
        <ele>236.6</ele>
        <time>2023-05-27T10:16:00Z</time>
      </trkpt>
      <trkpt lat="45.73162" lon="5.25984">
        <ele>236.2</ele>
        <time>2023-05-27T10:16:01Z</time>
      </trkpt>
      <trkpt lat="45.73165" lon="5.25973">
        <ele>236</ele>
        <time>2023-05-27T10:16:02Z</time>
      </trkpt>
      <trkpt lat="45.73168" lon="5.25962">
        <ele>235.8</ele>
        <time>2023-05-27T10:16:03Z</time>
      </trkpt>
      <trkpt lat="45.7317" lon="5.25951">
        <ele>235.4</ele>
        <time>2023-05-27T10:16:04Z</time>
      </trkpt>
      <trkpt lat="45.73173" lon="5.2594">
        <ele>235.2</ele>
        <time>2023-05-27T10:16:05Z</time>
      </trkpt>
      <trkpt lat="45.73176" lon="5.25929">
        <ele>234.8</ele>
        <time>2023-05-27T10:16:06Z</time>
      </trkpt>
      <trkpt lat="45.73178" lon="5.25918">
        <ele>234.6</ele>
        <time>2023-05-27T10:16:07Z</time>
      </trkpt>
      <trkpt lat="45.73181" lon="5.25907">
        <ele>234.4</ele>
        <time>2023-05-27T10:16:08Z</time>
      </trkpt>
      <trkpt lat="45.73184" lon="5.25896">
        <ele>234.2</ele>
        <time>2023-05-27T10:16:09Z</time>
      </trkpt>
      <trkpt lat="45.73188" lon="5.25886">
        <ele>233.6</ele>
        <time>2023-05-27T10:16:10Z</time>
      </trkpt>
      <trkpt lat="45.73192" lon="5.25876">
        <ele>233.4</ele>
        <time>2023-05-27T10:16:11Z</time>
      </trkpt>
      <trkpt lat="45.73196" lon="5.25867">
        <ele>233.2</ele>
        <time>2023-05-27T10:16:12Z</time>
      </trkpt>
      <trkpt lat="45.732" lon="5.25858">
        <ele>233</ele>
        <time>2023-05-27T10:16:13Z</time>
      </trkpt>
      <trkpt lat="45.73204" lon="5.25849">
        <ele>233</ele>
        <time>2023-05-27T10:16:14Z</time>
      </trkpt>
      <trkpt lat="45.73209" lon="5.25841">
        <ele>232.8</ele>
        <time>2023-05-27T10:16:15Z</time>
      </trkpt>
      <trkpt lat="45.73213" lon="5.25833">
        <ele>232.8</ele>
        <time>2023-05-27T10:16:16Z</time>
      </trkpt>
      <trkpt lat="45.73218" lon="5.25825">
        <ele>232.6</ele>
        <time>2023-05-27T10:16:17Z</time>
      </trkpt>
      <trkpt lat="45.73222" lon="5.25818">
        <ele>232.4</ele>
        <time>2023-05-27T10:16:18Z</time>
      </trkpt>
      <trkpt lat="45.73224" lon="5.25813">
        <ele>232.2</ele>
        <time>2023-05-27T10:16:19Z</time>
      </trkpt>
      <trkpt lat="45.73226" lon="5.25808">
        <ele>231.8</ele>
        <time>2023-05-27T10:16:20Z</time>
      </trkpt>
      <trkpt lat="45.73226" lon="5.25802">
        <ele>231.8</ele>
        <time>2023-05-27T10:16:21Z</time>
      </trkpt>
      <trkpt lat="45.73225" lon="5.25797">
        <ele>231.6</ele>
        <time>2023-05-27T10:16:22Z</time>
      </trkpt>
      <trkpt lat="45.73223" lon="5.25792">
        <ele>231.6</ele>
        <time>2023-05-27T10:16:23Z</time>
      </trkpt>
      <trkpt lat="45.73219" lon="5.25786">
        <ele>231.6</ele>
        <time>2023-05-27T10:16:24Z</time>
      </trkpt>
      <trkpt lat="45.73215" lon="5.25781">
        <ele>231.6</ele>
        <time>2023-05-27T10:16:25Z</time>
      </trkpt>
      <trkpt lat="45.7321" lon="5.25775">
        <ele>231.4</ele>
        <time>2023-05-27T10:16:26Z</time>
      </trkpt>
      <trkpt lat="45.73204" lon="5.25769">
        <ele>231.4</ele>
        <time>2023-05-27T10:16:27Z</time>
      </trkpt>
      <trkpt lat="45.73198" lon="5.25763">
        <ele>231.4</ele>
        <time>2023-05-27T10:16:28Z</time>
      </trkpt>
      <trkpt lat="45.73192" lon="5.25757">
        <ele>231.4</ele>
        <time>2023-05-27T10:16:29Z</time>
      </trkpt>
      <trkpt lat="45.73186" lon="5.25751">
        <ele>231.4</ele>
        <time>2023-05-27T10:16:30Z</time>
      </trkpt>
      <trkpt lat="45.7318" lon="5.25744">
        <ele>231.2</ele>
        <time>2023-05-27T10:16:31Z</time>
      </trkpt>
      <trkpt lat="45.73174" lon="5.25737">
        <ele>231.2</ele>
        <time>2023-05-27T10:16:32Z</time>
      </trkpt>
      <trkpt lat="45.73168" lon="5.2573">
        <ele>230.8</ele>
        <time>2023-05-27T10:16:33Z</time>
      </trkpt>
      <trkpt lat="45.73162" lon="5.25723">
        <ele>230.4</ele>
        <time>2023-05-27T10:16:34Z</time>
      </trkpt>
      <trkpt lat="45.73155" lon="5.25716">
        <ele>230.4</ele>
        <time>2023-05-27T10:16:35Z</time>
      </trkpt>
      <trkpt lat="45.73149" lon="5.25709">
        <ele>230.2</ele>
        <time>2023-05-27T10:16:36Z</time>
      </trkpt>
      <trkpt lat="45.73142" lon="5.25701">
        <ele>230.2</ele>
        <time>2023-05-27T10:16:37Z</time>
      </trkpt>
      <trkpt lat="45.73135" lon="5.25694">
        <ele>230</ele>
        <time>2023-05-27T10:16:38Z</time>
      </trkpt>
      <trkpt lat="45.73129" lon="5.25688">
        <ele>229.8</ele>
        <time>2023-05-27T10:16:39Z</time>
      </trkpt>
      <trkpt lat="45.73116" lon="5.25676">
        <ele>229.4</ele>
        <time>2023-05-27T10:16:41Z</time>
      </trkpt>
      <trkpt lat="45.7311" lon="5.2567">
        <ele>229.4</ele>
        <time>2023-05-27T10:16:42Z</time>
      </trkpt>
      <trkpt lat="45.73103" lon="5.25664">
        <ele>229.2</ele>
        <time>2023-05-27T10:16:43Z</time>
      </trkpt>
      <trkpt lat="45.73098" lon="5.25659">
        <ele>229.2</ele>
        <time>2023-05-27T10:16:44Z</time>
      </trkpt>
      <trkpt lat="45.73091" lon="5.25654">
        <ele>228.8</ele>
        <time>2023-05-27T10:16:45Z</time>
      </trkpt>
      <trkpt lat="45.73084" lon="5.25649">
        <ele>228.8</ele>
        <time>2023-05-27T10:16:46Z</time>
      </trkpt>
      <trkpt lat="45.73076" lon="5.25644">
        <ele>228.6</ele>
        <time>2023-05-27T10:16:47Z</time>
      </trkpt>
    </trkseg>
  </trk>
</gpx>